<?xml version='1.0' encoding='UTF-8'?><gpx version="1.1" creator="JPX - https://github.com/jenetics/jpx" xmlns="http://www.topografix.com/GPX/1/1"><trk><trkseg><trkpt lat="45.64653878156833" lon="11.298817623397348"><ele>276.66666666666663</ele><time>2026-04-18T06:09:41.115Z</time></trkpt><trkpt lat="45.6464411225595" lon="11.298947464685234"><ele>273.3333333333333</ele><time>2026-04-18T06:09:42.136Z</time></trkpt><trkpt lat="45.64629355915417" lon="11.29909532145718"><ele>270.0</ele><time>2026-04-18T06:09:43.94Z</time></trkpt><trkpt lat="45.64621355973896" lon="11.299286376987162"><ele>270.25</ele><time>2026-04-18T06:10:11.673Z</time></trkpt><trkpt lat="45.64611649144994" lon="11.29899306223849"><ele>270.5</ele><time>2026-04-18T06:10:14.011Z</time></trkpt><trkpt lat="45.64611686975454" lon="11.29911455519567"><ele>270.75</ele><time>2026-04-18T06:10:17.017Z</time></trkpt><trkpt lat="45.64608373793013" lon="11.29928661159621"><ele>271.0</ele><time>2026-04-18T06:10:18.991Z</time></trkpt><trkpt lat="45.646113165022705" lon="11.299378842709983"><ele>271.0</ele><time>2026-04-18T06:10:19.992Z</time></trkpt><trkpt lat="45.64610025686514" lon="11.299544063173702"><ele>271.0</ele><time>2026-04-18T06:10:21.993Z</time></trkpt><trkpt lat="45.64606308642197" lon="11.299619255450542"><ele>271.0</ele><time>2026-04-18T06:10:22.993Z</time></trkpt><trkpt lat="45.646055726304105" lon="11.299771656695183"><ele>271.0</ele><time>2026-04-18T06:10:24.994Z</time></trkpt><trkpt lat="45.646045621572334" lon="11.299914503983661"><ele>271.0</ele><time>2026-04-18T06:10:26.995Z</time></trkpt><trkpt lat="45.64603597142473" lon="11.300042425038917"><ele>270.25</ele><time>2026-04-18T06:10:28.996Z</time></trkpt><trkpt lat="45.64619533109473" lon="11.300124826779298"><ele>269.5</ele><time>2026-04-18T06:10:30.996Z</time></trkpt><trkpt lat="45.64630110418936" lon="11.300136730939125"><ele>268.75</ele><time>2026-04-18T06:10:32.997Z</time></trkpt><trkpt lat="45.64640248830746" lon="11.300177562844457"><ele>268.0</ele><time>2026-04-18T06:10:34.997Z</time></trkpt><trkpt lat="45.646486001429786" lon="11.300211375345471"><ele>268.0</ele><time>2026-04-18T06:10:35.997Z</time></trkpt><trkpt lat="45.646579770453755" lon="11.300253692079176"><ele>268.0</ele><time>2026-04-18T06:10:36.997Z</time></trkpt><trkpt lat="45.64664347474997" lon="11.300268774213048"><ele>268.0</ele><time>2026-04-18T06:10:37.998Z</time></trkpt><trkpt lat="45.646745033920034" lon="11.300288086328704"><ele>268.0</ele><time>2026-04-18T06:10:39.998Z</time></trkpt><trkpt lat="45.646854582080266" lon="11.300308916674384"><ele>268.0</ele><time>2026-04-18T06:10:41.998Z</time></trkpt><trkpt lat="45.64693652280004" lon="11.300350169246446"><ele>267.6</ele><time>2026-04-18T06:10:42.998Z</time></trkpt><trkpt lat="45.64701024533252" lon="11.30038191545917"><ele>267.20000000000005</ele><time>2026-04-18T06:10:43.998Z</time></trkpt><trkpt lat="45.64709948765725" lon="11.300427802590951"><ele>266.8</ele><time>2026-04-18T06:10:44.999Z</time></trkpt><trkpt lat="45.64720974434313" lon="11.300430995470865"><ele>266.40000000000003</ele><time>2026-04-18T06:10:45.999Z</time></trkpt><trkpt lat="45.64728597627967" lon="11.300418050904302"><ele>266.0</ele><time>2026-04-18T06:10:47.999Z</time></trkpt><trkpt lat="45.647389190280705" lon="11.30039003368473"><ele>266.0</ele><time>2026-04-18T06:10:49.999Z</time></trkpt><trkpt lat="45.64751013705379" lon="11.30035036091916"><ele>266.0</ele><time>2026-04-18T06:10:51.999Z</time></trkpt><trkpt lat="45.64755989231704" lon="11.30021942084279"><ele>266.0</ele><time>2026-04-18T06:10:52.999Z</time></trkpt><trkpt lat="45.64763131103342" lon="11.30020078425675"><ele>266.0</ele><time>2026-04-18T06:10:53.999Z</time></trkpt><trkpt lat="45.64769852073665" lon="11.300187396034817"><ele>266.0</ele><time>2026-04-18T06:10:54.999Z</time></trkpt><trkpt lat="45.64782868982412" lon="11.300159870370127"><ele>265.5</ele><time>2026-04-18T06:10:56.999Z</time></trkpt><trkpt lat="45.64794546984846" lon="11.300102256059422"><ele>265.0</ele><time>2026-04-18T06:10:59Z</time></trkpt><trkpt lat="45.64801174993299" lon="11.300078934597959"><ele>264.5</ele><time>2026-04-18T06:11:00Z</time></trkpt><trkpt lat="45.648076698085916" lon="11.30004784547922"><ele>264.0</ele><time>2026-04-18T06:11:01Z</time></trkpt><trkpt lat="45.64814190085363" lon="11.300023398728051"><ele>263.5</ele><time>2026-04-18T06:11:02Z</time></trkpt><trkpt lat="45.64820808585823" lon="11.299996135886348"><ele>263.0</ele><time>2026-04-18T06:11:03Z</time></trkpt><trkpt lat="45.64828023483561" lon="11.300016418845582"><ele>263.0</ele><time>2026-04-18T06:11:04Z</time></trkpt><trkpt lat="45.64834884881757" lon="11.299994811610665"><ele>263.0</ele><time>2026-04-18T06:11:05Z</time></trkpt><trkpt lat="45.64841218705413" lon="11.29997512764929"><ele>263.0</ele><time>2026-04-18T06:11:06Z</time></trkpt><trkpt lat="45.648478509995854" lon="11.299954516091054"><ele>263.0</ele><time>2026-04-18T06:11:07Z</time></trkpt><trkpt lat="45.64854063985242" lon="11.299933640549535"><ele>263.0</ele><time>2026-04-18T06:11:08Z</time></trkpt><trkpt lat="45.64861521818856" lon="11.299907583978586"><ele>263.0</ele><time>2026-04-18T06:11:09Z</time></trkpt><trkpt lat="45.6486907484738" lon="11.299881194778632"><ele>263.0</ele><time>2026-04-18T06:11:10Z</time></trkpt><trkpt lat="45.64876954908028" lon="11.299853662951614"><ele>262.4</ele><time>2026-04-18T06:11:11Z</time></trkpt><trkpt lat="45.648864071416675" lon="11.299820638215838"><ele>261.8</ele><time>2026-04-18T06:11:12Z</time></trkpt><trkpt lat="45.64894537002345" lon="11.299770381700537"><ele>261.2</ele><time>2026-04-18T06:11:13Z</time></trkpt><trkpt lat="45.64904827900952" lon="11.299752694846633"><ele>260.6</ele><time>2026-04-18T06:11:14Z</time></trkpt><trkpt lat="45.6491440142723" lon="11.29972044407613"><ele>260.0</ele><time>2026-04-18T06:11:15Z</time></trkpt><trkpt lat="45.64923855478404" lon="11.299675306394038"><ele>261.6</ele><time>2026-04-18T06:11:16Z</time></trkpt><trkpt lat="45.649342595216666" lon="11.299655334895938"><ele>263.2</ele><time>2026-04-18T06:11:17Z</time></trkpt><trkpt lat="45.64944283370237" lon="11.299616404943677"><ele>264.8</ele><time>2026-04-18T06:11:18Z</time></trkpt><trkpt lat="45.64953201573131" lon="11.299576570107346"><ele>266.4</ele><time>2026-04-18T06:11:19Z</time></trkpt><trkpt lat="45.649633476685096" lon="11.299546405942463"><ele>268.0</ele><time>2026-04-18T06:11:20Z</time></trkpt><trkpt lat="45.64972253357016" lon="11.299512157525172"><ele>268.0</ele><time>2026-04-18T06:11:21Z</time></trkpt><trkpt lat="45.64981436286632" lon="11.299481788130228"><ele>268.0</ele><time>2026-04-18T06:11:22Z</time></trkpt><trkpt lat="45.64991512298481" lon="11.299448493735824"><ele>268.0</ele><time>2026-04-18T06:11:23Z</time></trkpt><trkpt lat="45.65001008181511" lon="11.299410723871512"><ele>268.0</ele><time>2026-04-18T06:11:24Z</time></trkpt><trkpt lat="45.65010256784788" lon="11.299374731515249"><ele>268.0</ele><time>2026-04-18T06:11:25Z</time></trkpt><trkpt lat="45.65020824625827" lon="11.299346574973558"><ele>267.25</ele><time>2026-04-18T06:11:26Z</time></trkpt><trkpt lat="45.65032089263614" lon="11.299303381721337"><ele>266.5</ele><time>2026-04-18T06:11:27Z</time></trkpt><trkpt lat="45.65044697099218" lon="11.299284754672364"><ele>265.75</ele><time>2026-04-18T06:11:28Z</time></trkpt><trkpt lat="45.65056276722945" lon="11.2992419661253"><ele>265.0</ele><time>2026-04-18T06:11:29Z</time></trkpt><trkpt lat="45.65068269228413" lon="11.299196064040165"><ele>265.0</ele><time>2026-04-18T06:11:30Z</time></trkpt><trkpt lat="45.65079539190275" lon="11.299165761846762"><ele>265.0</ele><time>2026-04-18T06:11:31Z</time></trkpt><trkpt lat="45.650918853136766" lon="11.299120373170297"><ele>265.0</ele><time>2026-04-18T06:11:32Z</time></trkpt><trkpt lat="45.651035375723794" lon="11.299077209404617"><ele>265.0</ele><time>2026-04-18T06:11:33Z</time></trkpt><trkpt lat="45.651162217288714" lon="11.299025705411248"><ele>264.0</ele><time>2026-04-18T06:11:34Z</time></trkpt><trkpt lat="45.65129496971167" lon="11.298981707406579"><ele>263.0</ele><time>2026-04-18T06:11:35Z</time></trkpt><trkpt lat="45.65141863234362" lon="11.298938790017868"><ele>262.0</ele><time>2026-04-18T06:11:36Z</time></trkpt><trkpt lat="45.65154367775807" lon="11.298898055598281"><ele>261.0</ele><time>2026-04-18T06:11:37Z</time></trkpt><trkpt lat="45.65165766414178" lon="11.298850607946028"><ele>262.75</ele><time>2026-04-18T06:11:38Z</time></trkpt><trkpt lat="45.65177288544732" lon="11.298811730833915"><ele>264.5</ele><time>2026-04-18T06:11:39Z</time></trkpt><trkpt lat="45.651880647496164" lon="11.298780957079105"><ele>266.25</ele><time>2026-04-18T06:11:40Z</time></trkpt><trkpt lat="45.652002648509026" lon="11.298736967927663"><ele>268.0</ele><time>2026-04-18T06:11:41Z</time></trkpt><trkpt lat="45.65213256899558" lon="11.298709583243841"><ele>268.0</ele><time>2026-04-18T06:11:42Z</time></trkpt><trkpt lat="45.65224904901427" lon="11.298672562281551"><ele>268.0</ele><time>2026-04-18T06:11:43Z</time></trkpt><trkpt lat="45.65236732503503" lon="11.298645942511913"><ele>268.0</ele><time>2026-04-18T06:11:44Z</time></trkpt><trkpt lat="45.65248545843999" lon="11.298649635449102"><ele>268.0</ele><time>2026-04-18T06:11:45Z</time></trkpt><trkpt lat="45.65261326658845" lon="11.298643735274075"><ele>268.0</ele><time>2026-04-18T06:11:46Z</time></trkpt><trkpt lat="45.65274425210655" lon="11.298659120941197"><ele>268.0</ele><time>2026-04-18T06:11:47Z</time></trkpt><trkpt lat="45.652879141207656" lon="11.298693875525716"><ele>268.0</ele><time>2026-04-18T06:11:48Z</time></trkpt><trkpt lat="45.65301337523084" lon="11.298730951702737"><ele>268.0</ele><time>2026-04-18T06:11:49Z</time></trkpt><trkpt lat="45.653150415246415" lon="11.298760889458528"><ele>268.25</ele><time>2026-04-18T06:11:50Z</time></trkpt><trkpt lat="45.653284339834016" lon="11.298785194048934"><ele>268.5</ele><time>2026-04-18T06:11:51Z</time></trkpt><trkpt lat="45.65342671775881" lon="11.298806492288765"><ele>268.75</ele><time>2026-04-18T06:11:52Z</time></trkpt><trkpt lat="45.653560973130574" lon="11.298844150821417"><ele>269.0</ele><time>2026-04-18T06:11:53Z</time></trkpt><trkpt lat="45.653697014298785" lon="11.298866605032261"><ele>270.0</ele><time>2026-04-18T06:11:54Z</time></trkpt><trkpt lat="45.653827665597774" lon="11.298878386415025"><ele>271.0</ele><time>2026-04-18T06:11:55Z</time></trkpt><trkpt lat="45.653953725635354" lon="11.298904123167908"><ele>272.0</ele><time>2026-04-18T06:11:56Z</time></trkpt><trkpt lat="45.65407807454471" lon="11.298938432019055"><ele>273.0</ele><time>2026-04-18T06:11:57Z</time></trkpt><trkpt lat="45.65420519459139" lon="11.2989570377412"><ele>273.0</ele><time>2026-04-18T06:11:58Z</time></trkpt><trkpt lat="45.65432946338981" lon="11.298983407913418"><ele>273.0</ele><time>2026-04-18T06:11:59Z</time></trkpt><trkpt lat="45.654450828010006" lon="11.299009933230922"><ele>273.0</ele><time>2026-04-18T06:12:00Z</time></trkpt><trkpt lat="45.65457910026246" lon="11.299049159736228"><ele>273.0</ele><time>2026-04-18T06:12:01Z</time></trkpt><trkpt lat="45.65469714431936" lon="11.29909174786999"><ele>271.8</ele><time>2026-04-18T06:12:02Z</time></trkpt><trkpt lat="45.65481289901826" lon="11.299110698086198"><ele>270.6</ele><time>2026-04-18T06:12:03Z</time></trkpt><trkpt lat="45.65491969889719" lon="11.299127061305247"><ele>269.4</ele><time>2026-04-18T06:12:04Z</time></trkpt><trkpt lat="45.65502783021655" lon="11.29913101251777"><ele>268.2</ele><time>2026-04-18T06:12:05Z</time></trkpt><trkpt lat="45.655112054968406" lon="11.299136958398565"><ele>267.0</ele><time>2026-04-18T06:12:06Z</time></trkpt><trkpt lat="45.65520514562904" lon="11.299152208639125"><ele>267.0</ele><time>2026-04-18T06:12:07Z</time></trkpt><trkpt lat="45.65528318990953" lon="11.299164106734125"><ele>267.0</ele><time>2026-04-18T06:12:08Z</time></trkpt><trkpt lat="45.655352936974076" lon="11.299199985938328"><ele>267.0</ele><time>2026-04-18T06:12:09Z</time></trkpt><trkpt lat="45.65542814075073" lon="11.299258970871088"><ele>267.0</ele><time>2026-04-18T06:12:11Z</time></trkpt><trkpt lat="45.65538577288238" lon="11.2994100903978"><ele>267.0</ele><time>2026-04-18T06:12:13Z</time></trkpt><trkpt lat="45.655330748541836" lon="11.29946727488667"><ele>267.0</ele><time>2026-04-18T06:12:14Z</time></trkpt><trkpt lat="45.65527696006575" lon="11.29953977841093"><ele>267.0</ele><time>2026-04-18T06:12:15Z</time></trkpt><trkpt lat="45.65522076531654" lon="11.299627485067257"><ele>267.0</ele><time>2026-04-18T06:12:16Z</time></trkpt><trkpt lat="45.65516332712055" lon="11.299717045707009"><ele>267.0</ele><time>2026-04-18T06:12:17Z</time></trkpt><trkpt lat="45.65509997389577" lon="11.299801574801066"><ele>267.0</ele><time>2026-04-18T06:12:18Z</time></trkpt><trkpt lat="45.65503308311867" lon="11.299892024657108"><ele>267.0</ele><time>2026-04-18T06:12:19Z</time></trkpt><trkpt lat="45.6549794733938" lon="11.300006724017415"><ele>267.0</ele><time>2026-04-18T06:12:20Z</time></trkpt><trkpt lat="45.65494630837613" lon="11.300128433942948"><ele>266.4</ele><time>2026-04-18T06:12:21Z</time></trkpt><trkpt lat="45.654937628540075" lon="11.300269354854933"><ele>265.79999999999995</ele><time>2026-04-18T06:12:22Z</time></trkpt><trkpt lat="45.65495194808381" lon="11.300409958394354"><ele>265.2</ele><time>2026-04-18T06:12:23Z</time></trkpt><trkpt lat="45.654989692744735" lon="11.300521027786239"><ele>264.59999999999997</ele><time>2026-04-18T06:12:24Z</time></trkpt><trkpt lat="45.655050853006514" lon="11.300608516686644"><ele>264.0</ele><time>2026-04-18T06:12:25Z</time></trkpt><trkpt lat="45.65512599275064" lon="11.30066499478266"><ele>264.0</ele><time>2026-04-18T06:12:26Z</time></trkpt><trkpt lat="45.65520611342267" lon="11.30069575811477"><ele>264.0</ele><time>2026-04-18T06:12:27Z</time></trkpt><trkpt lat="45.65529606377913" lon="11.300696706274165"><ele>264.0</ele><time>2026-04-18T06:12:28Z</time></trkpt><trkpt lat="45.65538191767177" lon="11.300660361290417"><ele>264.0</ele><time>2026-04-18T06:12:29Z</time></trkpt><trkpt lat="45.65545976803768" lon="11.30062183118452"><ele>264.0</ele><time>2026-04-18T06:12:30Z</time></trkpt><trkpt lat="45.65553090332091" lon="11.300559845740947"><ele>264.0</ele><time>2026-04-18T06:12:31Z</time></trkpt><trkpt lat="45.6556253222627" lon="11.30058645982935"><ele>264.0</ele><time>2026-04-18T06:12:32Z</time></trkpt><trkpt lat="45.65570591140793" lon="11.300620201362333"><ele>264.0</ele><time>2026-04-18T06:12:33Z</time></trkpt><trkpt lat="45.65577851039548" lon="11.300673003432403"><ele>264.0</ele><time>2026-04-18T06:12:34Z</time></trkpt><trkpt lat="45.65585512262327" lon="11.300719636855101"><ele>264.0</ele><time>2026-04-18T06:12:35Z</time></trkpt><trkpt lat="45.655931290955735" lon="11.300733623163314"><ele>264.0</ele><time>2026-04-18T06:12:36Z</time></trkpt><trkpt lat="45.65601068887181" lon="11.300723356675118"><ele>264.0</ele><time>2026-04-18T06:12:37Z</time></trkpt><trkpt lat="45.65608858343731" lon="11.300680048800414"><ele>264.3333333333333</ele><time>2026-04-18T06:12:38Z</time></trkpt><trkpt lat="45.656161707219226" lon="11.300614309341954"><ele>264.6666666666667</ele><time>2026-04-18T06:12:39Z</time></trkpt><trkpt lat="45.65621861941972" lon="11.30052377772918"><ele>265.0</ele><time>2026-04-18T06:12:40Z</time></trkpt><trkpt lat="45.65626882520766" lon="11.300423736179505"><ele>265.33333333333337</ele><time>2026-04-18T06:12:41Z</time></trkpt><trkpt lat="45.65632029168403" lon="11.300320514686858"><ele>265.6666666666667</ele><time>2026-04-18T06:12:42Z</time></trkpt><trkpt lat="45.65637534996445" lon="11.300232236697424"><ele>266.0</ele><time>2026-04-18T06:12:43Z</time></trkpt><trkpt lat="45.65643774850544" lon="11.300145569341739"><ele>266.0</ele><time>2026-04-18T06:12:44Z</time></trkpt><trkpt lat="45.656492770572775" lon="11.300054913946601"><ele>266.0</ele><time>2026-04-18T06:12:45Z</time></trkpt><trkpt lat="45.6565601163769" lon="11.299984475904763"><ele>266.0</ele><time>2026-04-18T06:12:46Z</time></trkpt><trkpt lat="45.656625089554566" lon="11.2998938626014"><ele>266.0</ele><time>2026-04-18T06:12:47Z</time></trkpt><trkpt lat="45.65669962257624" lon="11.299822339026123"><ele>266.0</ele><time>2026-04-18T06:12:48Z</time></trkpt><trkpt lat="45.65679786705943" lon="11.299763259022626"><ele>266.2</ele><time>2026-04-18T06:12:49Z</time></trkpt><trkpt lat="45.65684034594209" lon="11.299674584260929"><ele>266.40000000000003</ele><time>2026-04-18T06:12:50Z</time></trkpt><trkpt lat="45.65692679661509" lon="11.299599216813121"><ele>266.6</ele><time>2026-04-18T06:12:51Z</time></trkpt><trkpt lat="45.657002978027826" lon="11.299500137257208"><ele>266.8</ele><time>2026-04-18T06:12:52Z</time></trkpt><trkpt lat="45.657081235175156" lon="11.299427211496614"><ele>267.0</ele><time>2026-04-18T06:12:53Z</time></trkpt><trkpt lat="45.65715730094407" lon="11.299338985038434"><ele>267.0</ele><time>2026-04-18T06:12:54Z</time></trkpt><trkpt lat="45.65723887286639" lon="11.299255128428578"><ele>267.0</ele><time>2026-04-18T06:12:55Z</time></trkpt><trkpt lat="45.65732039131544" lon="11.299165550880113"><ele>267.0</ele><time>2026-04-18T06:12:56Z</time></trkpt><trkpt lat="45.657399773831685" lon="11.29907049895482"><ele>267.0</ele><time>2026-04-18T06:12:57Z</time></trkpt><trkpt lat="45.65749010526535" lon="11.298982623459004"><ele>267.0</ele><time>2026-04-18T06:12:58Z</time></trkpt><trkpt lat="45.65758627222415" lon="11.29891219483383"><ele>267.2</ele><time>2026-04-18T06:12:59Z</time></trkpt><trkpt lat="45.657676099002344" lon="11.298855683300811"><ele>267.4</ele><time>2026-04-18T06:13:00Z</time></trkpt><trkpt lat="45.657781522056204" lon="11.298811198683456"><ele>267.6</ele><time>2026-04-18T06:13:01Z</time></trkpt><trkpt lat="45.65788627889971" lon="11.298764198143916"><ele>267.8</ele><time>2026-04-18T06:13:02Z</time></trkpt><trkpt lat="45.65800073111831" lon="11.29870845118819"><ele>268.0</ele><time>2026-04-18T06:13:03Z</time></trkpt><trkpt lat="45.65811083664672" lon="11.298651165954634"><ele>268.0</ele><time>2026-04-18T06:13:04Z</time></trkpt><trkpt lat="45.658214364391924" lon="11.298595873439925"><ele>268.0</ele><time>2026-04-18T06:13:05Z</time></trkpt><trkpt lat="45.65830463900825" lon="11.298533430857539"><ele>268.0</ele><time>2026-04-18T06:13:06Z</time></trkpt><trkpt lat="45.65839615957396" lon="11.298462994081259"><ele>268.0</ele><time>2026-04-18T06:13:07Z</time></trkpt><trkpt lat="45.65847309151231" lon="11.298371013481528"><ele>268.0</ele><time>2026-04-18T06:13:08Z</time></trkpt><trkpt lat="45.65854476122675" lon="11.298266277500504"><ele>268.0</ele><time>2026-04-18T06:13:09Z</time></trkpt><trkpt lat="45.65861811244762" lon="11.298166673799752"><ele>268.0</ele><time>2026-04-18T06:13:10Z</time></trkpt><trkpt lat="45.65869455517106" lon="11.298075483264006"><ele>268.0</ele><time>2026-04-18T06:13:11Z</time></trkpt><trkpt lat="45.65877683655656" lon="11.29798923753591"><ele>268.0</ele><time>2026-04-18T06:13:12Z</time></trkpt><trkpt lat="45.658864688808066" lon="11.297921321366596"><ele>268.0</ele><time>2026-04-18T06:13:13Z</time></trkpt><trkpt lat="45.65895970947948" lon="11.297883795088064"><ele>268.0</ele><time>2026-04-18T06:13:14Z</time></trkpt><trkpt lat="45.65906559574639" lon="11.297888136101458"><ele>268.0</ele><time>2026-04-18T06:13:15Z</time></trkpt><trkpt lat="45.65917426390632" lon="11.29791836940566"><ele>268.0</ele><time>2026-04-18T06:13:16Z</time></trkpt><trkpt lat="45.65928331521339" lon="11.297974822132147"><ele>268.0</ele><time>2026-04-18T06:13:17Z</time></trkpt><trkpt lat="45.65939677190051" lon="11.298035123900494"><ele>268.5</ele><time>2026-04-18T06:13:18Z</time></trkpt><trkpt lat="45.65951304957915" lon="11.298095395531304"><ele>269.0</ele><time>2026-04-18T06:13:19Z</time></trkpt><trkpt lat="45.6596297696533" lon="11.298159596968786"><ele>269.5</ele><time>2026-04-18T06:13:20Z</time></trkpt><trkpt lat="45.65975736118838" lon="11.298214511865359"><ele>270.0</ele><time>2026-04-18T06:13:21Z</time></trkpt><trkpt lat="45.65988104356592" lon="11.298275647806165"><ele>270.0</ele><time>2026-04-18T06:13:22Z</time></trkpt><trkpt lat="45.66000433642663" lon="11.298330763215452"><ele>270.0</ele><time>2026-04-18T06:13:23Z</time></trkpt><trkpt lat="45.660135662445335" lon="11.298371006907825"><ele>270.0</ele><time>2026-04-18T06:13:24Z</time></trkpt><trkpt lat="45.66026930940496" lon="11.298385768575"><ele>270.0</ele><time>2026-04-18T06:13:25Z</time></trkpt><trkpt lat="45.66040471731327" lon="11.298380108879936"><ele>271.0</ele><time>2026-04-18T06:13:26Z</time></trkpt><trkpt lat="45.660541252164116" lon="11.298366607203917"><ele>272.0</ele><time>2026-04-18T06:13:27Z</time></trkpt><trkpt lat="45.66067525818819" lon="11.298338882025952"><ele>273.0</ele><time>2026-04-18T06:13:28Z</time></trkpt><trkpt lat="45.66081257629906" lon="11.298292391755494"><ele>274.0</ele><time>2026-04-18T06:13:29Z</time></trkpt><trkpt lat="45.66095655658297" lon="11.298239683457668"><ele>274.0</ele><time>2026-04-18T06:13:30Z</time></trkpt><trkpt lat="45.66109975456929" lon="11.298178736285996"><ele>274.0</ele><time>2026-04-18T06:13:31Z</time></trkpt><trkpt lat="45.6612502381596" lon="11.298134852466072"><ele>274.0</ele><time>2026-04-18T06:13:32Z</time></trkpt><trkpt lat="45.66139044917963" lon="11.298045393702132"><ele>275.0</ele><time>2026-04-18T06:13:33Z</time></trkpt><trkpt lat="45.6615633821224" lon="11.297975584755148"><ele>276.0</ele><time>2026-04-18T06:13:34Z</time></trkpt><trkpt lat="45.66169424197333" lon="11.297876899408438"><ele>277.0</ele><time>2026-04-18T06:13:35Z</time></trkpt><trkpt lat="45.66181824523785" lon="11.297759113262014"><ele>277.0</ele><time>2026-04-18T06:13:36Z</time></trkpt><trkpt lat="45.661945516046806" lon="11.297645607656106"><ele>277.0</ele><time>2026-04-18T06:13:37Z</time></trkpt><trkpt lat="45.66206622836481" lon="11.29750663982107"><ele>277.0</ele><time>2026-04-18T06:13:38Z</time></trkpt><trkpt lat="45.66217993407173" lon="11.297357341891674"><ele>278.0</ele><time>2026-04-18T06:13:39Z</time></trkpt><trkpt lat="45.66228374621234" lon="11.297205029591296"><ele>279.0</ele><time>2026-04-18T06:13:40Z</time></trkpt><trkpt lat="45.662375524726905" lon="11.297049552335901"><ele>280.0</ele><time>2026-04-18T06:13:41Z</time></trkpt><trkpt lat="45.6624477932845" lon="11.296893004245094"><ele>281.0</ele><time>2026-04-18T06:13:42Z</time></trkpt><trkpt lat="45.662505935683285" lon="11.296743028119593"><ele>281.0</ele><time>2026-04-18T06:13:43Z</time></trkpt><trkpt lat="45.662566346676535" lon="11.296612432173468"><ele>281.0</ele><time>2026-04-18T06:13:44Z</time></trkpt><trkpt lat="45.66264468004642" lon="11.296523184646778"><ele>281.0</ele><time>2026-04-18T06:13:45Z</time></trkpt><trkpt lat="45.66273299985246" lon="11.296486186327861"><ele>281.0</ele><time>2026-04-18T06:13:46Z</time></trkpt><trkpt lat="45.6628236797255" lon="11.296509635787018"><ele>281.0</ele><time>2026-04-18T06:13:47Z</time></trkpt><trkpt lat="45.66292703458125" lon="11.296547122094639"><ele>283.5</ele><time>2026-04-18T06:13:48Z</time></trkpt><trkpt lat="45.66304577703053" lon="11.296577007056765"><ele>286.0</ele><time>2026-04-18T06:13:49Z</time></trkpt><trkpt lat="45.663165948163524" lon="11.296627350588173"><ele>288.5</ele><time>2026-04-18T06:13:50Z</time></trkpt><trkpt lat="45.6632998103789" lon="11.296656061756718"><ele>291.0</ele><time>2026-04-18T06:13:51Z</time></trkpt><trkpt lat="45.66343868951434" lon="11.296669981913633"><ele>291.0</ele><time>2026-04-18T06:13:52Z</time></trkpt><trkpt lat="45.663571610968226" lon="11.296672532125012"><ele>291.0</ele><time>2026-04-18T06:13:53Z</time></trkpt><trkpt lat="45.66370245525785" lon="11.296659853224307"><ele>291.0</ele><time>2026-04-18T06:13:54Z</time></trkpt><trkpt lat="45.663835006518454" lon="11.296619359633059"><ele>291.0</ele><time>2026-04-18T06:13:55Z</time></trkpt><trkpt lat="45.66397744494012" lon="11.296568815266024"><ele>290.0</ele><time>2026-04-18T06:13:56Z</time></trkpt><trkpt lat="45.66412753743261" lon="11.296505605387527"><ele>289.0</ele><time>2026-04-18T06:13:57Z</time></trkpt><trkpt lat="45.66427634787868" lon="11.296424306930144"><ele>288.0</ele><time>2026-04-18T06:13:58Z</time></trkpt><trkpt lat="45.664428752288124" lon="11.296334790620714"><ele>289.6666666666667</ele><time>2026-04-18T06:13:59Z</time></trkpt><trkpt lat="45.66457320454884" lon="11.29623583023828"><ele>291.33333333333337</ele><time>2026-04-18T06:14:00Z</time></trkpt><trkpt lat="45.664722028653955" lon="11.296141529110708"><ele>293.0</ele><time>2026-04-18T06:14:01Z</time></trkpt><trkpt lat="45.66486992858983" lon="11.296045507260724"><ele>293.0</ele><time>2026-04-18T06:14:02Z</time></trkpt><trkpt lat="45.66501865460254" lon="11.295955715505293"><ele>293.0</ele><time>2026-04-18T06:14:03Z</time></trkpt><trkpt lat="45.6651605878925" lon="11.295871429815897"><ele>293.0</ele><time>2026-04-18T06:14:04Z</time></trkpt><trkpt lat="45.66530238015509" lon="11.29577691093017"><ele>293.0</ele><time>2026-04-18T06:14:05Z</time></trkpt><trkpt lat="45.66544592932505" lon="11.295693799569117"><ele>293.0</ele><time>2026-04-18T06:14:06Z</time></trkpt><trkpt lat="45.66558853370783" lon="11.295638496969856"><ele>293.0</ele><time>2026-04-18T06:14:07Z</time></trkpt><trkpt lat="45.66573124799294" lon="11.295599249856984"><ele>293.0</ele><time>2026-04-18T06:14:08Z</time></trkpt><trkpt lat="45.66587427033853" lon="11.295580903185806"><ele>296.0</ele><time>2026-04-18T06:14:09Z</time></trkpt><trkpt lat="45.6660356011946" lon="11.295588652938907"><ele>299.0</ele><time>2026-04-18T06:14:10Z</time></trkpt><trkpt lat="45.66618986524542" lon="11.295613356944644"><ele>302.0</ele><time>2026-04-18T06:14:11Z</time></trkpt><trkpt lat="45.66633727873533" lon="11.295657535415598"><ele>302.0</ele><time>2026-04-18T06:14:12Z</time></trkpt><trkpt lat="45.66649093482484" lon="11.295709997380795"><ele>302.0</ele><time>2026-04-18T06:14:13Z</time></trkpt><trkpt lat="45.66664256474618" lon="11.295754020442756"><ele>302.0</ele><time>2026-04-18T06:14:14Z</time></trkpt><trkpt lat="45.66679299738634" lon="11.295764377734844"><ele>302.0</ele><time>2026-04-18T06:14:15Z</time></trkpt><trkpt lat="45.66692890671141" lon="11.295741128022225"><ele>302.0</ele><time>2026-04-18T06:14:16Z</time></trkpt><trkpt lat="45.667059195160405" lon="11.295707585686444"><ele>302.0</ele><time>2026-04-18T06:14:17Z</time></trkpt><trkpt lat="45.66718434003907" lon="11.29567023873393"><ele>302.0</ele><time>2026-04-18T06:14:18Z</time></trkpt><trkpt lat="45.66730715052579" lon="11.295633699162432"><ele>300.75</ele><time>2026-04-18T06:14:19Z</time></trkpt><trkpt lat="45.667425128225176" lon="11.295587937198311"><ele>299.5</ele><time>2026-04-18T06:14:20Z</time></trkpt><trkpt lat="45.66752955515094" lon="11.295533107904348"><ele>298.25</ele><time>2026-04-18T06:14:21Z</time></trkpt><trkpt lat="45.667619724330216" lon="11.295439319099357"><ele>297.0</ele><time>2026-04-18T06:14:22Z</time></trkpt><trkpt lat="45.66770353596307" lon="11.295318455871918"><ele>296.5</ele><time>2026-04-18T06:14:23Z</time></trkpt><trkpt lat="45.667763874278755" lon="11.29517447822053"><ele>296.0</ele><time>2026-04-18T06:14:24Z</time></trkpt><trkpt lat="45.667799750459345" lon="11.295014440614741"><ele>295.5</ele><time>2026-04-18T06:14:25Z</time></trkpt><trkpt lat="45.66782605626498" lon="11.294846612948055"><ele>295.0</ele><time>2026-04-18T06:14:26Z</time></trkpt><trkpt lat="45.66785233521659" lon="11.294671173732034"><ele>297.25</ele><time>2026-04-18T06:14:27Z</time></trkpt><trkpt lat="45.66788253919585" lon="11.294491120352498"><ele>299.5</ele><time>2026-04-18T06:14:28Z</time></trkpt><trkpt lat="45.667920984217645" lon="11.294300283395009"><ele>301.75</ele><time>2026-04-18T06:14:29Z</time></trkpt><trkpt lat="45.66796896858425" lon="11.294131311366165"><ele>304.0</ele><time>2026-04-18T06:14:30Z</time></trkpt><trkpt lat="45.66801909253731" lon="11.293977673743461"><ele>303.59999999999997</ele><time>2026-04-18T06:14:31Z</time></trkpt><trkpt lat="45.66806081494398" lon="11.293847565575206"><ele>303.2</ele><time>2026-04-18T06:14:32Z</time></trkpt><trkpt lat="45.668080729847425" lon="11.293753493088243"><ele>302.79999999999995</ele><time>2026-04-18T06:14:33Z</time></trkpt><trkpt lat="45.66810752782976" lon="11.293665639910861"><ele>302.4</ele><time>2026-04-18T06:14:34Z</time></trkpt><trkpt lat="45.66817286388548" lon="11.293525472421061"><ele>302.0</ele><time>2026-04-18T06:14:36Z</time></trkpt><trkpt lat="45.66828129400226" lon="11.29352188218296"><ele>302.0</ele><time>2026-04-18T06:14:37Z</time></trkpt><trkpt lat="45.66836569493226" lon="11.293472830460171"><ele>302.0</ele><time>2026-04-18T06:14:38Z</time></trkpt><trkpt lat="45.66845403513516" lon="11.293421489386713"><ele>302.0</ele><time>2026-04-18T06:14:39Z</time></trkpt><trkpt lat="45.66854316689909" lon="11.293369688262773"><ele>302.0</ele><time>2026-04-18T06:14:40Z</time></trkpt><trkpt lat="45.66862991315894" lon="11.29331927352419"><ele>302.0</ele><time>2026-04-18T06:14:41Z</time></trkpt><trkpt lat="45.66871327403885" lon="11.293268001317289"><ele>302.5</ele><time>2026-04-18T06:14:42Z</time></trkpt><trkpt lat="45.668796037468205" lon="11.29320036241356"><ele>303.0</ele><time>2026-04-18T06:14:43Z</time></trkpt><trkpt lat="45.66886910881375" lon="11.293118946290072"><ele>303.5</ele><time>2026-04-18T06:14:44Z</time></trkpt><trkpt lat="45.66893296159535" lon="11.293040213797182"><ele>304.0</ele><time>2026-04-18T06:14:45Z</time></trkpt><trkpt lat="45.668981676080236" lon="11.292975608348975"><ele>304.5</ele><time>2026-04-18T06:14:46Z</time></trkpt><trkpt lat="45.669067227675626" lon="11.292951338145638"><ele>305.0</ele><time>2026-04-18T06:14:48Z</time></trkpt><trkpt lat="45.669067090313014" lon="11.29312759391417"><ele>306.5</ele><time>2026-04-18T06:14:50Z</time></trkpt><trkpt lat="45.66901392246319" lon="11.29321173604559"><ele>308.0</ele><time>2026-04-18T06:14:51Z</time></trkpt><trkpt lat="45.66895992051201" lon="11.293321258790373"><ele>309.5</ele><time>2026-04-18T06:14:52Z</time></trkpt><trkpt lat="45.66891862552879" lon="11.29343757987428"><ele>311.0</ele><time>2026-04-18T06:14:53Z</time></trkpt><trkpt lat="45.6688538516644" lon="11.293530370846431"><ele>312.5</ele><time>2026-04-18T06:14:54Z</time></trkpt><trkpt lat="45.66879685525071" lon="11.293621934654196"><ele>314.0</ele><time>2026-04-18T06:14:55Z</time></trkpt><trkpt lat="45.66875208975042" lon="11.293698710127794"><ele>314.0</ele><time>2026-04-18T06:14:56Z</time></trkpt><trkpt lat="45.66871578895075" lon="11.293780531159186"><ele>314.0</ele><time>2026-04-18T06:14:57Z</time></trkpt><trkpt lat="45.668709520262" lon="11.293890170096457"><ele>314.0</ele><time>2026-04-18T06:14:58Z</time></trkpt><trkpt lat="45.66873472805363" lon="11.294006601202176"><ele>314.0</ele><time>2026-04-18T06:14:59Z</time></trkpt><trkpt lat="45.66878782568519" lon="11.294106553793258"><ele>314.0</ele><time>2026-04-18T06:15:00Z</time></trkpt><trkpt lat="45.66886714197025" lon="11.294203269525543"><ele>314.0</ele><time>2026-04-18T06:15:01Z</time></trkpt><trkpt lat="45.66894374682763" lon="11.29432365964381"><ele>315.0</ele><time>2026-04-18T06:15:02Z</time></trkpt><trkpt lat="45.66902322753133" lon="11.29445349887366"><ele>316.0</ele><time>2026-04-18T06:15:03Z</time></trkpt><trkpt lat="45.669101897647316" lon="11.294587411638405"><ele>317.0</ele><time>2026-04-18T06:15:04Z</time></trkpt><trkpt lat="45.66917337834271" lon="11.294716425770709"><ele>318.0</ele><time>2026-04-18T06:15:05Z</time></trkpt><trkpt lat="45.669248345817" lon="11.294858405181794"><ele>318.0</ele><time>2026-04-18T06:15:06Z</time></trkpt><trkpt lat="45.66931433623466" lon="11.294985218764205"><ele>318.0</ele><time>2026-04-18T06:15:07Z</time></trkpt><trkpt lat="45.669374052995074" lon="11.295107640119015"><ele>318.0</ele><time>2026-04-18T06:15:08Z</time></trkpt><trkpt lat="45.669427410453494" lon="11.29520356152923"><ele>318.0</ele><time>2026-04-18T06:15:09Z</time></trkpt><trkpt lat="45.66949579922298" lon="11.295287567762452"><ele>318.0</ele><time>2026-04-18T06:15:10Z</time></trkpt><trkpt lat="45.66957394632247" lon="11.295395293783749"><ele>321.25</ele><time>2026-04-18T06:15:11Z</time></trkpt><trkpt lat="45.66967297040957" lon="11.295491801188298"><ele>324.5</ele><time>2026-04-18T06:15:12Z</time></trkpt><trkpt lat="45.669787185552615" lon="11.295574972795208"><ele>327.75</ele><time>2026-04-18T06:15:13Z</time></trkpt><trkpt lat="45.669894811418104" lon="11.295690445200329"><ele>331.0</ele><time>2026-04-18T06:15:14Z</time></trkpt><trkpt lat="45.67000598391457" lon="11.29580772770652"><ele>331.0</ele><time>2026-04-18T06:15:15Z</time></trkpt><trkpt lat="45.67012355539838" lon="11.295923936048979"><ele>331.0</ele><time>2026-04-18T06:15:16Z</time></trkpt><trkpt lat="45.67024757292532" lon="11.29605277076695"><ele>331.0</ele><time>2026-04-18T06:15:17Z</time></trkpt><trkpt lat="45.67035437909219" lon="11.296218278946318"><ele>334.75</ele><time>2026-04-18T06:15:18Z</time></trkpt><trkpt lat="45.67047437188534" lon="11.296344374425464"><ele>338.5</ele><time>2026-04-18T06:15:19Z</time></trkpt><trkpt lat="45.67057564574886" lon="11.296487321792863"><ele>342.25</ele><time>2026-04-18T06:15:20Z</time></trkpt><trkpt lat="45.670671329973196" lon="11.296616067955826"><ele>346.0</ele><time>2026-04-18T06:15:21Z</time></trkpt><trkpt lat="45.67076255869501" lon="11.29673966026363"><ele>346.0</ele><time>2026-04-18T06:15:22Z</time></trkpt><trkpt lat="45.670852536124194" lon="11.296844430174716"><ele>346.0</ele><time>2026-04-18T06:15:23Z</time></trkpt><trkpt lat="45.6709558783589" lon="11.296914903446739"><ele>346.0</ele><time>2026-04-18T06:15:24Z</time></trkpt><trkpt lat="45.67107106066295" lon="11.296960687057963"><ele>346.0</ele><time>2026-04-18T06:15:25Z</time></trkpt><trkpt lat="45.67118540997247" lon="11.29701773540821"><ele>350.6</ele><time>2026-04-18T06:15:26Z</time></trkpt><trkpt lat="45.67128869066362" lon="11.297079132969191"><ele>355.20000000000005</ele><time>2026-04-18T06:15:27Z</time></trkpt><trkpt lat="45.671381613071205" lon="11.29711592626336"><ele>359.79999999999995</ele><time>2026-04-18T06:15:28Z</time></trkpt><trkpt lat="45.67147627312814" lon="11.297102812069992"><ele>364.4</ele><time>2026-04-18T06:15:29Z</time></trkpt><trkpt lat="45.67158290762255" lon="11.297056784015675"><ele>369.0</ele><time>2026-04-18T06:15:30Z</time></trkpt><trkpt lat="45.67169836463738" lon="11.297014625572363"><ele>369.0</ele><time>2026-04-18T06:15:31Z</time></trkpt><trkpt lat="45.671823944632436" lon="11.296995837997164"><ele>369.0</ele><time>2026-04-18T06:15:32Z</time></trkpt><trkpt lat="45.67196999361425" lon="11.29700562294876"><ele>369.0</ele><time>2026-04-18T06:15:33Z</time></trkpt><trkpt lat="45.672103169333376" lon="11.29703116988266"><ele>369.0</ele><time>2026-04-18T06:15:34Z</time></trkpt><trkpt lat="45.672250755978844" lon="11.297069379108093"><ele>372.0</ele><time>2026-04-18T06:15:35Z</time></trkpt><trkpt lat="45.67240137829852" lon="11.297021421604676"><ele>375.0</ele><time>2026-04-18T06:15:36Z</time></trkpt><trkpt lat="45.67256034488005" lon="11.297005787716007"><ele>378.0</ele><time>2026-04-18T06:15:37Z</time></trkpt><trkpt lat="45.672721352898726" lon="11.297009690313478"><ele>384.0</ele><time>2026-04-18T06:15:38Z</time></trkpt><trkpt lat="45.672882864429496" lon="11.297022675384012"><ele>390.0</ele><time>2026-04-18T06:15:39Z</time></trkpt><trkpt lat="45.673041196493344" lon="11.297025589202018"><ele>396.0</ele><time>2026-04-18T06:15:40Z</time></trkpt><trkpt lat="45.67320082385554" lon="11.297005713199392"><ele>396.0</ele><time>2026-04-18T06:15:41Z</time></trkpt><trkpt lat="45.673350861975955" lon="11.296976888299264"><ele>396.0</ele><time>2026-04-18T06:15:42Z</time></trkpt><trkpt lat="45.6734926020652" lon="11.296963663422845"><ele>396.0</ele><time>2026-04-18T06:15:43Z</time></trkpt><trkpt lat="45.67363971260877" lon="11.296981429364477"><ele>396.0</ele><time>2026-04-18T06:15:44Z</time></trkpt><trkpt lat="45.67377286889376" lon="11.297077927931992"><ele>391.6666666666667</ele><time>2026-04-18T06:15:45Z</time></trkpt><trkpt lat="45.673919504676974" lon="11.297161664441246"><ele>387.33333333333337</ele><time>2026-04-18T06:15:46Z</time></trkpt><trkpt lat="45.67407080652844" lon="11.297243202623312"><ele>383.0</ele><time>2026-04-18T06:15:47Z</time></trkpt><trkpt lat="45.67419121185574" lon="11.297335054917014"><ele>383.0</ele><time>2026-04-18T06:15:48Z</time></trkpt><trkpt lat="45.67430300580561" lon="11.297406574041768"><ele>383.0</ele><time>2026-04-18T06:15:49Z</time></trkpt><trkpt lat="45.67441261886611" lon="11.297432603285547"><ele>383.0</ele><time>2026-04-18T06:15:50Z</time></trkpt><trkpt lat="45.67450599922938" lon="11.297409057972816"><ele>383.0</ele><time>2026-04-18T06:15:51Z</time></trkpt><trkpt lat="45.67458708696491" lon="11.297441751641207"><ele>383.0</ele><time>2026-04-18T06:15:52Z</time></trkpt><trkpt lat="45.6746301528865" lon="11.297545067082545"><ele>390.25</ele><time>2026-04-18T06:15:53Z</time></trkpt><trkpt lat="45.674702523039585" lon="11.297654125803192"><ele>397.5</ele><time>2026-04-18T06:15:54Z</time></trkpt><trkpt lat="45.67479209096322" lon="11.297764477115276"><ele>404.75</ele><time>2026-04-18T06:15:55Z</time></trkpt><trkpt lat="45.67490020666891" lon="11.297869567774363"><ele>412.0</ele><time>2026-04-18T06:15:56Z</time></trkpt><trkpt lat="45.6750138947275" lon="11.297978447275264"><ele>412.0</ele><time>2026-04-18T06:15:57Z</time></trkpt><trkpt lat="45.67512025802806" lon="11.29807993918725"><ele>412.0</ele><time>2026-04-18T06:15:58Z</time></trkpt><trkpt lat="45.67519795659697" lon="11.298256847146284"><ele>412.0</ele><time>2026-04-18T06:15:59Z</time></trkpt><trkpt lat="45.6752845986403" lon="11.29842863798574"><ele>412.0</ele><time>2026-04-18T06:16:00Z</time></trkpt><trkpt lat="45.67534176583947" lon="11.298609395611216"><ele>413.0</ele><time>2026-04-18T06:16:01Z</time></trkpt><trkpt lat="45.67539511627314" lon="11.29880281408093"><ele>414.0</ele><time>2026-04-18T06:16:02Z</time></trkpt><trkpt lat="45.67543220259058" lon="11.299009211657118"><ele>415.0</ele><time>2026-04-18T06:16:03Z</time></trkpt><trkpt lat="45.67548092168099" lon="11.299189047523639"><ele>416.0</ele><time>2026-04-18T06:16:04Z</time></trkpt><trkpt lat="45.67553025766369" lon="11.299343528645407"><ele>416.0</ele><time>2026-04-18T06:16:05Z</time></trkpt><trkpt lat="45.675596693342705" lon="11.299459540021974"><ele>416.0</ele><time>2026-04-18T06:16:06Z</time></trkpt><trkpt lat="45.675692889239635" lon="11.299525448460882"><ele>416.0</ele><time>2026-04-18T06:16:07Z</time></trkpt><trkpt lat="45.67580594144833" lon="11.29955644411368"><ele>416.0</ele><time>2026-04-18T06:16:08Z</time></trkpt><trkpt lat="45.675931571417465" lon="11.299569717308499"><ele>416.0</ele><time>2026-04-18T06:16:09Z</time></trkpt><trkpt lat="45.676058889478" lon="11.299642256215408"><ele>416.0</ele><time>2026-04-18T06:16:10Z</time></trkpt><trkpt lat="45.67618540925849" lon="11.299735031149611"><ele>416.0</ele><time>2026-04-18T06:16:11Z</time></trkpt><trkpt lat="45.676309845567694" lon="11.29986004162083"><ele>416.0</ele><time>2026-04-18T06:16:12Z</time></trkpt><trkpt lat="45.67643003184443" lon="11.299985458789179"><ele>416.25</ele><time>2026-04-18T06:16:13Z</time></trkpt><trkpt lat="45.67652912938133" lon="11.30009063922963"><ele>416.5</ele><time>2026-04-18T06:16:14Z</time></trkpt><trkpt lat="45.6765676947391" lon="11.300250647159833"><ele>416.75</ele><time>2026-04-18T06:16:15Z</time></trkpt><trkpt lat="45.67660384320404" lon="11.300412362379095"><ele>417.0</ele><time>2026-04-18T06:16:16Z</time></trkpt><trkpt lat="45.676637768500235" lon="11.300588852790254"><ele>417.0</ele><time>2026-04-18T06:16:17Z</time></trkpt><trkpt lat="45.67665853198865" lon="11.300742902398698"><ele>417.0</ele><time>2026-04-18T06:16:18Z</time></trkpt><trkpt lat="45.67669148882315" lon="11.300865857694893"><ele>417.0</ele><time>2026-04-18T06:16:19Z</time></trkpt><trkpt lat="45.676727575558346" lon="11.30095027898747"><ele>417.0</ele><time>2026-04-18T06:16:20Z</time></trkpt><trkpt lat="45.676833670691856" lon="11.300907061092675"><ele>417.0</ele><time>2026-04-18T06:16:22Z</time></trkpt><trkpt lat="45.676861235627236" lon="11.300786843595734"><ele>417.0</ele><time>2026-04-18T06:16:23Z</time></trkpt><trkpt lat="45.676850212842055" lon="11.300627463908985"><ele>417.0</ele><time>2026-04-18T06:16:24Z</time></trkpt><trkpt lat="45.67685018002897" lon="11.300454122586041"><ele>417.0</ele><time>2026-04-18T06:16:25Z</time></trkpt><trkpt lat="45.6768590912964" lon="11.300284463089227"><ele>417.0</ele><time>2026-04-18T06:16:26Z</time></trkpt><trkpt lat="45.67687227949885" lon="11.300102250371705"><ele>418.75</ele><time>2026-04-18T06:16:27Z</time></trkpt><trkpt lat="45.67688047594745" lon="11.299919934578432"><ele>420.5</ele><time>2026-04-18T06:16:28Z</time></trkpt><trkpt lat="45.676846135965384" lon="11.299744850018469"><ele>422.25</ele><time>2026-04-18T06:16:29Z</time></trkpt><trkpt lat="45.67678029368366" lon="11.299563241107032"><ele>424.0</ele><time>2026-04-18T06:16:30Z</time></trkpt><trkpt lat="45.67670735101263" lon="11.299361310920672"><ele>427.6666666666667</ele><time>2026-04-18T06:16:31Z</time></trkpt><trkpt lat="45.67662053985788" lon="11.299151907110868"><ele>431.33333333333337</ele><time>2026-04-18T06:16:32Z</time></trkpt><trkpt lat="45.6765205087645" lon="11.298957406534946"><ele>435.0</ele><time>2026-04-18T06:16:33Z</time></trkpt><trkpt lat="45.676409015913386" lon="11.298785391491945"><ele>438.6</ele><time>2026-04-18T06:16:34Z</time></trkpt><trkpt lat="45.67630506547403" lon="11.298677107623119"><ele>442.2</ele><time>2026-04-18T06:16:35Z</time></trkpt><trkpt lat="45.676213709841576" lon="11.298599292829847"><ele>445.79999999999995</ele><time>2026-04-18T06:16:36Z</time></trkpt><trkpt lat="45.67616242638091" lon="11.298492891183896"><ele>449.4</ele><time>2026-04-18T06:16:37Z</time></trkpt><trkpt lat="45.67616411742368" lon="11.298375635371722"><ele>453.0</ele><time>2026-04-18T06:16:38Z</time></trkpt><trkpt lat="45.676199527836594" lon="11.298256920144985"><ele>453.0</ele><time>2026-04-18T06:16:39Z</time></trkpt><trkpt lat="45.67622038084789" lon="11.298113451698002"><ele>453.0</ele><time>2026-04-18T06:16:40Z</time></trkpt><trkpt lat="45.6761987023643" lon="11.297964873990255"><ele>453.0</ele><time>2026-04-18T06:16:41Z</time></trkpt><trkpt lat="45.67611739100515" lon="11.297836318147098"><ele>453.0</ele><time>2026-04-18T06:16:42Z</time></trkpt><trkpt lat="45.67603616153674" lon="11.297682434215075"><ele>450.33333333333337</ele><time>2026-04-18T06:16:43Z</time></trkpt><trkpt lat="45.67594988235148" lon="11.297499944490845"><ele>447.6666666666667</ele><time>2026-04-18T06:16:44Z</time></trkpt><trkpt lat="45.675852231184805" lon="11.29730592947816"><ele>445.0</ele><time>2026-04-18T06:16:45Z</time></trkpt><trkpt lat="45.675753608622365" lon="11.297123328171416"><ele>453.6666666666667</ele><time>2026-04-18T06:16:46Z</time></trkpt><trkpt lat="45.6756534602115" lon="11.296915132205234"><ele>462.33333333333337</ele><time>2026-04-18T06:16:47Z</time></trkpt><trkpt lat="45.67555511324375" lon="11.296681744323932"><ele>471.0</ele><time>2026-04-18T06:16:48Z</time></trkpt><trkpt lat="45.67544797774058" lon="11.296441784212126"><ele>470.33333333333337</ele><time>2026-04-18T06:16:49Z</time></trkpt><trkpt lat="45.67534545126153" lon="11.296191210404146"><ele>469.6666666666667</ele><time>2026-04-18T06:16:50Z</time></trkpt><trkpt lat="45.675264502830856" lon="11.295945906696726"><ele>469.0</ele><time>2026-04-18T06:16:51Z</time></trkpt><trkpt lat="45.67521295778648" lon="11.295725648493256"><ele>475.5</ele><time>2026-04-18T06:16:52Z</time></trkpt><trkpt lat="45.67517405087691" lon="11.295558566305708"><ele>482.0</ele><time>2026-04-18T06:16:53Z</time></trkpt><trkpt lat="45.67510084376375" lon="11.29544017780726"><ele>488.5</ele><time>2026-04-18T06:16:54Z</time></trkpt><trkpt lat="45.67499249562329" lon="11.295358512545679"><ele>495.0</ele><time>2026-04-18T06:16:55Z</time></trkpt><trkpt lat="45.67486174831824" lon="11.295295927920806"><ele>495.0</ele><time>2026-04-18T06:16:56Z</time></trkpt><trkpt lat="45.67472223490596" lon="11.295231461332712"><ele>495.0</ele><time>2026-04-18T06:16:57Z</time></trkpt><trkpt lat="45.674567516035424" lon="11.295172286403174"><ele>495.0</ele><time>2026-04-18T06:16:58Z</time></trkpt><trkpt lat="45.674403421514874" lon="11.295136017407211"><ele>492.25</ele><time>2026-04-18T06:16:59Z</time></trkpt><trkpt lat="45.67424015753334" lon="11.29511714489407"><ele>489.5</ele><time>2026-04-18T06:17:00Z</time></trkpt><trkpt lat="45.67410105000782" lon="11.295103565396929"><ele>486.75</ele><time>2026-04-18T06:17:01Z</time></trkpt><trkpt lat="45.673991887379735" lon="11.29508331491832"><ele>484.0</ele><time>2026-04-18T06:17:02Z</time></trkpt><trkpt lat="45.67392799764289" lon="11.295025895986846"><ele>484.0</ele><time>2026-04-18T06:17:03Z</time></trkpt><trkpt lat="45.67387223580083" lon="11.294926226048892"><ele>484.0</ele><time>2026-04-18T06:17:05Z</time></trkpt><trkpt lat="45.6739728159766" lon="11.29490124169216"><ele>484.0</ele><time>2026-04-18T06:17:07Z</time></trkpt><trkpt lat="45.674040920559285" lon="11.294972102315027"><ele>484.0</ele><time>2026-04-18T06:17:08Z</time></trkpt><trkpt lat="45.67413927251862" lon="11.29497786487247"><ele>484.0</ele><time>2026-04-18T06:17:09Z</time></trkpt><trkpt lat="45.674250561772176" lon="11.29493956948245"><ele>484.0</ele><time>2026-04-18T06:17:10Z</time></trkpt><trkpt lat="45.67438667671207" lon="11.294899257646758"><ele>484.0</ele><time>2026-04-18T06:17:11Z</time></trkpt><trkpt lat="45.67453640602383" lon="11.294855637842927"><ele>484.0</ele><time>2026-04-18T06:17:12Z</time></trkpt><trkpt lat="45.674687676283305" lon="11.294873476773438"><ele>484.0</ele><time>2026-04-18T06:17:13Z</time></trkpt><trkpt lat="45.67486952111556" lon="11.294906010144587"><ele>487.6666666666667</ele><time>2026-04-18T06:17:14Z</time></trkpt><trkpt lat="45.67506014561779" lon="11.294945039619787"><ele>491.33333333333337</ele><time>2026-04-18T06:17:15Z</time></trkpt><trkpt lat="45.67522983519132" lon="11.294993630574915"><ele>495.0</ele><time>2026-04-18T06:17:16Z</time></trkpt><trkpt lat="45.67538589959251" lon="11.295078080380543"><ele>501.66666666666663</ele><time>2026-04-18T06:17:17Z</time></trkpt><trkpt lat="45.67550592235926" lon="11.295249536609948"><ele>508.3333333333333</ele><time>2026-04-18T06:17:18Z</time></trkpt><trkpt lat="45.67562799137286" lon="11.295413448513122"><ele>515.0</ele><time>2026-04-18T06:17:19Z</time></trkpt><trkpt lat="45.675708572913464" lon="11.295565505475345"><ele>515.0</ele><time>2026-04-18T06:17:20Z</time></trkpt><trkpt lat="45.67578784087739" lon="11.295673849589232"><ele>515.0</ele><time>2026-04-18T06:17:21Z</time></trkpt><trkpt lat="45.67588384268991" lon="11.295735110169616"><ele>515.0</ele><time>2026-04-18T06:17:22Z</time></trkpt><trkpt lat="45.676004738038145" lon="11.295757074647021"><ele>515.0</ele><time>2026-04-18T06:17:23Z</time></trkpt><trkpt lat="45.67614418176022" lon="11.295749633178373"><ele>515.0</ele><time>2026-04-18T06:17:24Z</time></trkpt><trkpt lat="45.67629817087636" lon="11.295758449959585"><ele>515.0</ele><time>2026-04-18T06:17:25Z</time></trkpt><trkpt lat="45.67646052717619" lon="11.295782090042481"><ele>515.0</ele><time>2026-04-18T06:17:26Z</time></trkpt><trkpt lat="45.676636343324" lon="11.295852172525503"><ele>515.0</ele><time>2026-04-18T06:17:27Z</time></trkpt><trkpt lat="45.676834211333954" lon="11.295930783362149"><ele>515.0</ele><time>2026-04-18T06:17:28Z</time></trkpt><trkpt lat="45.677026131707336" lon="11.295984828902595"><ele>515.0</ele><time>2026-04-18T06:17:29Z</time></trkpt><trkpt lat="45.677196217121896" lon="11.296093263054958"><ele>516.6666666666666</ele><time>2026-04-18T06:17:30Z</time></trkpt><trkpt lat="45.677351500056425" lon="11.296191223367494"><ele>518.3333333333334</ele><time>2026-04-18T06:17:31Z</time></trkpt><trkpt lat="45.677457824157784" lon="11.296377176303102"><ele>520.0</ele><time>2026-04-18T06:17:32Z</time></trkpt><trkpt lat="45.6775821303998" lon="11.296579115553522"><ele>520.0</ele><time>2026-04-18T06:17:33Z</time></trkpt><trkpt lat="45.67772035927703" lon="11.296784404675979"><ele>520.0</ele><time>2026-04-18T06:17:34Z</time></trkpt><trkpt lat="45.67783912782466" lon="11.297030443283875"><ele>520.0</ele><time>2026-04-18T06:17:35Z</time></trkpt><trkpt lat="45.677924853711865" lon="11.297324127713388"><ele>528.3333333333334</ele><time>2026-04-18T06:17:36Z</time></trkpt><trkpt lat="45.67805048878182" lon="11.297586856015766"><ele>536.6666666666666</ele><time>2026-04-18T06:17:37Z</time></trkpt><trkpt lat="45.67817152787943" lon="11.297810730306125"><ele>545.0</ele><time>2026-04-18T06:17:38Z</time></trkpt><trkpt lat="45.678251529537484" lon="11.29799751910328"><ele>543.3333333333333</ele><time>2026-04-18T06:17:39Z</time></trkpt><trkpt lat="45.67830594959737" lon="11.298155877935809"><ele>541.6666666666666</ele><time>2026-04-18T06:17:40Z</time></trkpt><trkpt lat="45.67833625627499" lon="11.298288595438253"><ele>540.0</ele><time>2026-04-18T06:17:41Z</time></trkpt><trkpt lat="45.67834828194662" lon="11.298385672859876"><ele>538.3333333333334</ele><time>2026-04-18T06:17:42Z</time></trkpt><trkpt lat="45.678400731104674" lon="11.298444258023004"><ele>536.6666666666667</ele><time>2026-04-18T06:17:43Z</time></trkpt><trkpt lat="45.67846441451204" lon="11.298434900101663"><ele>535.0</ele><time>2026-04-18T06:17:44Z</time></trkpt><trkpt lat="45.6785052036239" lon="11.29835183738778"><ele>535.0</ele><time>2026-04-18T06:17:45Z</time></trkpt><trkpt lat="45.678493985221664" lon="11.298224584203064"><ele>535.0</ele><time>2026-04-18T06:17:46Z</time></trkpt><trkpt lat="45.678442988687586" lon="11.298086764841043"><ele>535.0</ele><time>2026-04-18T06:17:47Z</time></trkpt><trkpt lat="45.67839770065685" lon="11.297909243396251"><ele>535.0</ele><time>2026-04-18T06:17:48Z</time></trkpt><trkpt lat="45.678354206226736" lon="11.297690152279728"><ele>538.3333333333334</ele><time>2026-04-18T06:17:49Z</time></trkpt><trkpt lat="45.6783264872325" lon="11.297468091162873"><ele>541.6666666666666</ele><time>2026-04-18T06:17:50Z</time></trkpt><trkpt lat="45.67829148414131" lon="11.297216776665275"><ele>545.0</ele><time>2026-04-18T06:17:51Z</time></trkpt><trkpt lat="45.6782588678242" lon="11.296985099114002"><ele>548.4</ele><time>2026-04-18T06:17:52Z</time></trkpt><trkpt lat="45.678214044952135" lon="11.29679482964957"><ele>551.8</ele><time>2026-04-18T06:17:53Z</time></trkpt><trkpt lat="45.678144602092246" lon="11.296651483050708"><ele>555.2</ele><time>2026-04-18T06:17:54Z</time></trkpt><trkpt lat="45.678089910771185" lon="11.296545845138958"><ele>558.6</ele><time>2026-04-18T06:17:55Z</time></trkpt><trkpt lat="45.67804146222644" lon="11.296466470368722"><ele>562.0</ele><time>2026-04-18T06:17:56Z</time></trkpt><trkpt lat="45.67804776666608" lon="11.296349100345257"><ele>562.0</ele><time>2026-04-18T06:17:58Z</time></trkpt><trkpt lat="45.67811029636005" lon="11.296314651231594"><ele>562.0</ele><time>2026-04-18T06:17:59Z</time></trkpt><trkpt lat="45.67818051466651" lon="11.29646378869927"><ele>562.0</ele><time>2026-04-18T06:18:00Z</time></trkpt><trkpt lat="45.67824756023256" lon="11.296590705913859"><ele>562.0</ele><time>2026-04-18T06:18:01Z</time></trkpt><trkpt lat="45.67833071623734" lon="11.29674257433554"><ele>562.0</ele><time>2026-04-18T06:18:02Z</time></trkpt><trkpt lat="45.67843954997862" lon="11.296925418424818"><ele>562.0</ele><time>2026-04-18T06:18:03Z</time></trkpt><trkpt lat="45.67853469627614" lon="11.297146731008478"><ele>562.0</ele><time>2026-04-18T06:18:04Z</time></trkpt><trkpt lat="45.67863057226003" lon="11.297366092751012"><ele>562.0</ele><time>2026-04-18T06:18:05Z</time></trkpt><trkpt lat="45.67874300908612" lon="11.297616907825033"><ele>567.0</ele><time>2026-04-18T06:18:06Z</time></trkpt><trkpt lat="45.67885728409021" lon="11.29788662280792"><ele>572.0</ele><time>2026-04-18T06:18:07Z</time></trkpt><trkpt lat="45.67896810868952" lon="11.298140996777422"><ele>577.0</ele><time>2026-04-18T06:18:08Z</time></trkpt><trkpt lat="45.67909161198363" lon="11.298404598880674"><ele>577.0</ele><time>2026-04-18T06:18:09Z</time></trkpt><trkpt lat="45.679230720801684" lon="11.298677685794312"><ele>577.0</ele><time>2026-04-18T06:18:10Z</time></trkpt><trkpt lat="45.6793840670749" lon="11.298960921443188"><ele>590.5</ele><time>2026-04-18T06:18:11Z</time></trkpt><trkpt lat="45.6795242576987" lon="11.299227932834157"><ele>604.0</ele><time>2026-04-18T06:18:12Z</time></trkpt><trkpt lat="45.679663642804336" lon="11.299497768498835"><ele>604.0</ele><time>2026-04-18T06:18:13Z</time></trkpt><trkpt lat="45.679791803658425" lon="11.299745393604919"><ele>604.0</ele><time>2026-04-18T06:18:14Z</time></trkpt><trkpt lat="45.679910851618054" lon="11.299968996631065"><ele>604.0</ele><time>2026-04-18T06:18:15Z</time></trkpt><trkpt lat="45.68001847488696" lon="11.300177505271552"><ele>599.3333333333334</ele><time>2026-04-18T06:18:16Z</time></trkpt><trkpt lat="45.68009027906995" lon="11.300424021773898"><ele>594.6666666666666</ele><time>2026-04-18T06:18:17Z</time></trkpt><trkpt lat="45.68017917222715" lon="11.300678364559413"><ele>590.0</ele><time>2026-04-18T06:18:18Z</time></trkpt><trkpt lat="45.680255644319786" lon="11.30094676683725"><ele>592.0</ele><time>2026-04-18T06:18:19Z</time></trkpt><trkpt lat="45.680336232929726" lon="11.301215518883597"><ele>594.0</ele><time>2026-04-18T06:18:20Z</time></trkpt><trkpt lat="45.68039947879146" lon="11.301431951626503"><ele>596.0</ele><time>2026-04-18T06:18:21Z</time></trkpt><trkpt lat="45.68045234631135" lon="11.301600666867905"><ele>596.0</ele><time>2026-04-18T06:18:22Z</time></trkpt><trkpt lat="45.6805214395789" lon="11.301750432783086"><ele>596.0</ele><time>2026-04-18T06:18:23Z</time></trkpt><trkpt lat="45.6806145160047" lon="11.301860031990993"><ele>596.0</ele><time>2026-04-18T06:18:24Z</time></trkpt><trkpt lat="45.680727304452844" lon="11.301933621758868"><ele>596.0</ele><time>2026-04-18T06:18:25Z</time></trkpt><trkpt lat="45.68084782205902" lon="11.301963871668889"><ele>596.0</ele><time>2026-04-18T06:18:26Z</time></trkpt><trkpt lat="45.68098106723748" lon="11.301970524661805"><ele>596.0</ele><time>2026-04-18T06:18:27Z</time></trkpt><trkpt lat="45.68111863394766" lon="11.30198065577237"><ele>596.0</ele><time>2026-04-18T06:18:28Z</time></trkpt><trkpt lat="45.6812606881937" lon="11.301975200192231"><ele>596.0</ele><time>2026-04-18T06:18:29Z</time></trkpt><trkpt lat="45.68141421160191" lon="11.301938287300032"><ele>598.75</ele><time>2026-04-18T06:18:30Z</time></trkpt><trkpt lat="45.681571938352455" lon="11.301878209704537"><ele>601.5</ele><time>2026-04-18T06:18:31Z</time></trkpt><trkpt lat="45.68171668467909" lon="11.301815320697331"><ele>604.25</ele><time>2026-04-18T06:18:32Z</time></trkpt><trkpt lat="45.68183797746012" lon="11.301765433740053"><ele>607.0</ele><time>2026-04-18T06:18:33Z</time></trkpt><trkpt lat="45.68193572119963" lon="11.30176075961515"><ele>605.2</ele><time>2026-04-18T06:18:34Z</time></trkpt><trkpt lat="45.68200632267912" lon="11.301763530206355"><ele>603.4000000000001</ele><time>2026-04-18T06:18:35Z</time></trkpt><trkpt lat="45.6820669939822" lon="11.301916552307794"><ele>601.5999999999999</ele><time>2026-04-18T06:18:37Z</time></trkpt><trkpt lat="45.68202827569199" lon="11.302040547456967"><ele>599.8</ele><time>2026-04-18T06:18:38Z</time></trkpt><trkpt lat="45.68196177921443" lon="11.302158061893653"><ele>598.0</ele><time>2026-04-18T06:18:39Z</time></trkpt><trkpt lat="45.68190743152294" lon="11.302285831029337"><ele>598.0</ele><time>2026-04-18T06:18:40Z</time></trkpt><trkpt lat="45.6818947231647" lon="11.30244143485907"><ele>598.0</ele><time>2026-04-18T06:18:41Z</time></trkpt><trkpt lat="45.68190567567172" lon="11.30262492260197"><ele>598.0</ele><time>2026-04-18T06:18:42Z</time></trkpt><trkpt lat="45.681910163856166" lon="11.302822616361738"><ele>598.0</ele><time>2026-04-18T06:18:43Z</time></trkpt><trkpt lat="45.68190634856328" lon="11.303020031988689"><ele>596.25</ele><time>2026-04-18T06:18:44Z</time></trkpt><trkpt lat="45.68190220273746" lon="11.303192374930484"><ele>594.5</ele><time>2026-04-18T06:18:45Z</time></trkpt><trkpt lat="45.681923476530905" lon="11.303350417364491"><ele>592.75</ele><time>2026-04-18T06:18:46Z</time></trkpt><trkpt lat="45.681977323450006" lon="11.303498439706612"><ele>591.0</ele><time>2026-04-18T06:18:47Z</time></trkpt><trkpt lat="45.682056719159796" lon="11.303633910004779"><ele>595.75</ele><time>2026-04-18T06:18:48Z</time></trkpt><trkpt lat="45.68215813698094" lon="11.303728845482997"><ele>600.5</ele><time>2026-04-18T06:18:49Z</time></trkpt><trkpt lat="45.682272062422825" lon="11.303783795637194"><ele>605.25</ele><time>2026-04-18T06:18:50Z</time></trkpt><trkpt lat="45.682394784066545" lon="11.303849429721248"><ele>610.0</ele><time>2026-04-18T06:18:51Z</time></trkpt><trkpt lat="45.68251459440086" lon="11.303961720515924"><ele>610.0</ele><time>2026-04-18T06:18:52Z</time></trkpt><trkpt lat="45.682634773356895" lon="11.304102177607755"><ele>610.0</ele><time>2026-04-18T06:18:53Z</time></trkpt><trkpt lat="45.68276755385826" lon="11.304254914691644"><ele>610.0</ele><time>2026-04-18T06:18:54Z</time></trkpt><trkpt lat="45.68291426481272" lon="11.304422762562082"><ele>613.0</ele><time>2026-04-18T06:18:55Z</time></trkpt><trkpt lat="45.68305672549955" lon="11.304580919833121"><ele>616.0</ele><time>2026-04-18T06:18:56Z</time></trkpt><trkpt lat="45.683205527385276" lon="11.304731023071033"><ele>619.0</ele><time>2026-04-18T06:18:57Z</time></trkpt><trkpt lat="45.68334796349535" lon="11.304871100630573"><ele>619.0</ele><time>2026-04-18T06:18:58Z</time></trkpt><trkpt lat="45.68347332782388" lon="11.305025099014765"><ele>619.0</ele><time>2026-04-18T06:18:59Z</time></trkpt><trkpt lat="45.683558885667516" lon="11.305223384206085"><ele>619.0</ele><time>2026-04-18T06:19:00Z</time></trkpt><trkpt lat="45.68365390704279" lon="11.305427041844384"><ele>624.3333333333334</ele><time>2026-04-18T06:19:01Z</time></trkpt><trkpt lat="45.68373997110124" lon="11.30565207768512"><ele>629.6666666666666</ele><time>2026-04-18T06:19:02Z</time></trkpt><trkpt lat="45.68382540052081" lon="11.305853176017257"><ele>635.0</ele><time>2026-04-18T06:19:03Z</time></trkpt><trkpt lat="45.68390362626275" lon="11.306035343045275"><ele>635.0</ele><time>2026-04-18T06:19:04Z</time></trkpt><trkpt lat="45.68397575655744" lon="11.30620846565643"><ele>635.0</ele><time>2026-04-18T06:19:05Z</time></trkpt><trkpt lat="45.684043875729195" lon="11.306363556703918"><ele>635.0</ele><time>2026-04-18T06:19:06Z</time></trkpt><trkpt lat="45.68411033436757" lon="11.306504376391835"><ele>635.0</ele><time>2026-04-18T06:19:07Z</time></trkpt><trkpt lat="45.6841758608544" lon="11.306641949932413"><ele>634.0</ele><time>2026-04-18T06:19:08Z</time></trkpt><trkpt lat="45.684214589371095" lon="11.306796563304035"><ele>633.0</ele><time>2026-04-18T06:19:09Z</time></trkpt><trkpt lat="45.68420528306659" lon="11.306971968305923"><ele>632.0</ele><time>2026-04-18T06:19:10Z</time></trkpt><trkpt lat="45.684160530958415" lon="11.307155898351942"><ele>631.0</ele><time>2026-04-18T06:19:11Z</time></trkpt><trkpt lat="45.684115577255305" lon="11.307363652107906"><ele>631.0</ele><time>2026-04-18T06:19:12Z</time></trkpt><trkpt lat="45.684074865013855" lon="11.307593653028343"><ele>631.0</ele><time>2026-04-18T06:19:13Z</time></trkpt><trkpt lat="45.684021901136596" lon="11.307833601310977"><ele>631.0</ele><time>2026-04-18T06:19:14Z</time></trkpt><trkpt lat="45.683944921249335" lon="11.308036775579284"><ele>632.25</ele><time>2026-04-18T06:19:15Z</time></trkpt><trkpt lat="45.683868114533645" lon="11.308195992522354"><ele>633.5</ele><time>2026-04-18T06:19:16Z</time></trkpt><trkpt lat="45.683810354469465" lon="11.308360672289647"><ele>634.75</ele><time>2026-04-18T06:19:17Z</time></trkpt><trkpt lat="45.683797688216316" lon="11.308539645809185"><ele>636.0</ele><time>2026-04-18T06:19:18Z</time></trkpt><trkpt lat="45.68381303828096" lon="11.30872055386829"><ele>636.0</ele><time>2026-04-18T06:19:19Z</time></trkpt><trkpt lat="45.68386570246763" lon="11.30887988623431"><ele>636.0</ele><time>2026-04-18T06:19:20Z</time></trkpt><trkpt lat="45.68395793328901" lon="11.30899702965967"><ele>636.0</ele><time>2026-04-18T06:19:21Z</time></trkpt><trkpt lat="45.684039485739184" lon="11.309103833788802"><ele>636.0</ele><time>2026-04-18T06:19:22Z</time></trkpt><trkpt lat="45.68407352915351" lon="11.309242302532343"><ele>636.0</ele><time>2026-04-18T06:19:23Z</time></trkpt><trkpt lat="45.68404152262682" lon="11.30938309098818"><ele>636.0</ele><time>2026-04-18T06:19:24Z</time></trkpt><trkpt lat="45.68401368713817" lon="11.309544103827"><ele>636.0</ele><time>2026-04-18T06:19:25Z</time></trkpt><trkpt lat="45.68395674197564" lon="11.30971110226798"><ele>636.0</ele><time>2026-04-18T06:19:26Z</time></trkpt><trkpt lat="45.68392086100243" lon="11.309881470944243"><ele>635.75</ele><time>2026-04-18T06:19:27Z</time></trkpt><trkpt lat="45.6839259793295" lon="11.310054795117964"><ele>635.5</ele><time>2026-04-18T06:19:28Z</time></trkpt><trkpt lat="45.68394800082441" lon="11.310250068247893"><ele>635.25</ele><time>2026-04-18T06:19:29Z</time></trkpt><trkpt lat="45.68398535677204" lon="11.310449872235731"><ele>635.0</ele><time>2026-04-18T06:19:30Z</time></trkpt><trkpt lat="45.684039246175146" lon="11.310619200462934"><ele>635.0</ele><time>2026-04-18T06:19:31Z</time></trkpt><trkpt lat="45.684122559346996" lon="11.310779211132477"><ele>635.0</ele><time>2026-04-18T06:19:32Z</time></trkpt><trkpt lat="45.684217586695816" lon="11.310927189376825"><ele>635.0</ele><time>2026-04-18T06:19:33Z</time></trkpt><trkpt lat="45.684321639203624" lon="11.311042106640702"><ele>635.0</ele><time>2026-04-18T06:19:34Z</time></trkpt><trkpt lat="45.68441544633359" lon="11.311151453282829"><ele>627.5</ele><time>2026-04-18T06:19:35Z</time></trkpt><trkpt lat="45.68447329738327" lon="11.311304241976432"><ele>620.0</ele><time>2026-04-18T06:19:36Z</time></trkpt><trkpt lat="45.68447712545182" lon="11.311490411649011"><ele>612.5</ele><time>2026-04-18T06:19:37Z</time></trkpt><trkpt lat="45.68449860201196" lon="11.311699676694378"><ele>605.0</ele><time>2026-04-18T06:19:38Z</time></trkpt><trkpt lat="45.6845108280299" lon="11.31193811879673"><ele>605.0</ele><time>2026-04-18T06:19:39Z</time></trkpt><trkpt lat="45.684534185094435" lon="11.312191960885443"><ele>605.0</ele><time>2026-04-18T06:19:40Z</time></trkpt><trkpt lat="45.684578318169606" lon="11.312425237185396"><ele>605.0</ele><time>2026-04-18T06:19:41Z</time></trkpt><trkpt lat="45.68463094173533" lon="11.312641190659464"><ele>605.75</ele><time>2026-04-18T06:19:42Z</time></trkpt><trkpt lat="45.68467648503856" lon="11.312828176459973"><ele>606.5</ele><time>2026-04-18T06:19:43Z</time></trkpt><trkpt lat="45.68472252075455" lon="11.312998839136606"><ele>607.25</ele><time>2026-04-18T06:19:44Z</time></trkpt><trkpt lat="45.684772167129985" lon="11.313153534511125"><ele>608.0</ele><time>2026-04-18T06:19:45Z</time></trkpt><trkpt lat="45.684810933481" lon="11.31330500632481"><ele>608.25</ele><time>2026-04-18T06:19:46Z</time></trkpt><trkpt lat="45.684811003209944" lon="11.313452414644658"><ele>608.5</ele><time>2026-04-18T06:19:47Z</time></trkpt><trkpt lat="45.684760688779924" lon="11.313591696886506"><ele>608.75</ele><time>2026-04-18T06:19:48Z</time></trkpt><trkpt lat="45.68465666461876" lon="11.313669772860411"><ele>609.0</ele><time>2026-04-18T06:19:49Z</time></trkpt><trkpt lat="45.6845367994518" lon="11.313741523995606"><ele>609.4</ele><time>2026-04-18T06:19:50Z</time></trkpt><trkpt lat="45.68441476838144" lon="11.31381575516166"><ele>609.8</ele><time>2026-04-18T06:19:51Z</time></trkpt><trkpt lat="45.68430634920102" lon="11.313865849543031"><ele>610.2</ele><time>2026-04-18T06:19:52Z</time></trkpt><trkpt lat="45.68422801140938" lon="11.31391793707468"><ele>610.6</ele><time>2026-04-18T06:19:53Z</time></trkpt><trkpt lat="45.68417316324461" lon="11.314057355123365"><ele>611.0</ele><time>2026-04-18T06:19:54Z</time></trkpt><trkpt lat="45.68415757831968" lon="11.314227857118965"><ele>611.0</ele><time>2026-04-18T06:19:55Z</time></trkpt><trkpt lat="45.6841499975067" lon="11.314384580924024"><ele>611.0</ele><time>2026-04-18T06:19:56Z</time></trkpt><trkpt lat="45.68415790809518" lon="11.314527663389592"><ele>611.0</ele><time>2026-04-18T06:19:57Z</time></trkpt><trkpt lat="45.68419441463747" lon="11.314645961953502"><ele>611.0</ele><time>2026-04-18T06:19:58Z</time></trkpt><trkpt lat="45.68426534539115" lon="11.314735256342852"><ele>611.0</ele><time>2026-04-18T06:19:59Z</time></trkpt><trkpt lat="45.68436176455057" lon="11.314786662331848"><ele>607.2</ele><time>2026-04-18T06:20:00Z</time></trkpt><trkpt lat="45.684464111904894" lon="11.314807598823316"><ele>603.4000000000001</ele><time>2026-04-18T06:20:01Z</time></trkpt><trkpt lat="45.684547110966705" lon="11.314864753902093"><ele>599.6</ele><time>2026-04-18T06:20:02Z</time></trkpt><trkpt lat="45.68461476435691" lon="11.314963297784495"><ele>595.8000000000001</ele><time>2026-04-18T06:20:03Z</time></trkpt><trkpt lat="45.68465054179262" lon="11.31510544562315"><ele>592.0</ele><time>2026-04-18T06:20:04Z</time></trkpt><trkpt lat="45.68466931394115" lon="11.315281996636669"><ele>592.0</ele><time>2026-04-18T06:20:05Z</time></trkpt><trkpt lat="45.68469222757113" lon="11.315477922904924"><ele>592.0</ele><time>2026-04-18T06:20:06Z</time></trkpt><trkpt lat="45.68469962432564" lon="11.315674203584825"><ele>592.0</ele><time>2026-04-18T06:20:07Z</time></trkpt><trkpt lat="45.68469507071213" lon="11.315870734246522"><ele>592.0</ele><time>2026-04-18T06:20:08Z</time></trkpt><trkpt lat="45.6846805750081" lon="11.316064816780905"><ele>591.25</ele><time>2026-04-18T06:20:09Z</time></trkpt><trkpt lat="45.68465603335266" lon="11.316256885552907"><ele>590.5</ele><time>2026-04-18T06:20:10Z</time></trkpt><trkpt lat="45.68460597928188" lon="11.316442118406739"><ele>589.75</ele><time>2026-04-18T06:20:11Z</time></trkpt><trkpt lat="45.684526271089595" lon="11.316599580104985"><ele>589.0</ele><time>2026-04-18T06:20:12Z</time></trkpt><trkpt lat="45.68443552307464" lon="11.316740237684492"><ele>590.5</ele><time>2026-04-18T06:20:13Z</time></trkpt><trkpt lat="45.684365444524914" lon="11.31688933470153"><ele>592.0</ele><time>2026-04-18T06:20:14Z</time></trkpt><trkpt lat="45.684326614500534" lon="11.317058754278822"><ele>593.5</ele><time>2026-04-18T06:20:15Z</time></trkpt><trkpt lat="45.684301565178224" lon="11.317229783752378"><ele>595.0</ele><time>2026-04-18T06:20:16Z</time></trkpt><trkpt lat="45.684291541996465" lon="11.317415704177764"><ele>595.0</ele><time>2026-04-18T06:20:17Z</time></trkpt><trkpt lat="45.68428623474364" lon="11.317575355070773"><ele>595.0</ele><time>2026-04-18T06:20:18Z</time></trkpt><trkpt lat="45.68428719873022" lon="11.317721748950824"><ele>595.0</ele><time>2026-04-18T06:20:19Z</time></trkpt><trkpt lat="45.68431779338446" lon="11.317867507888629"><ele>595.0</ele><time>2026-04-18T06:20:20Z</time></trkpt><trkpt lat="45.68437543132898" lon="11.318008404356485"><ele>595.0</ele><time>2026-04-18T06:20:21Z</time></trkpt><trkpt lat="45.684465325927945" lon="11.318149874013876"><ele>589.0</ele><time>2026-04-18T06:20:22Z</time></trkpt><trkpt lat="45.684548870102944" lon="11.318293717357221"><ele>583.0</ele><time>2026-04-18T06:20:23Z</time></trkpt><trkpt lat="45.68461370290135" lon="11.31847010199388"><ele>577.0</ele><time>2026-04-18T06:20:24Z</time></trkpt><trkpt lat="45.68466566275407" lon="11.318614162311002"><ele>571.0</ele><time>2026-04-18T06:20:25Z</time></trkpt><trkpt lat="45.68469320347997" lon="11.318779496732637"><ele>569.5</ele><time>2026-04-18T06:20:26Z</time></trkpt><trkpt lat="45.68467473361752" lon="11.318942026889884"><ele>568.0</ele><time>2026-04-18T06:20:27Z</time></trkpt><trkpt lat="45.6846235413173" lon="11.319114254505815"><ele>566.5</ele><time>2026-04-18T06:20:28Z</time></trkpt><trkpt lat="45.68457369769697" lon="11.319305319016761"><ele>565.0</ele><time>2026-04-18T06:20:29Z</time></trkpt><trkpt lat="45.68457105853022" lon="11.319505426203126"><ele>565.0</ele><time>2026-04-18T06:20:30Z</time></trkpt><trkpt lat="45.68456922139389" lon="11.319689108688562"><ele>565.0</ele><time>2026-04-18T06:20:31Z</time></trkpt><trkpt lat="45.684539104178604" lon="11.319845568970388"><ele>565.0</ele><time>2026-04-18T06:20:32Z</time></trkpt><trkpt lat="45.6844734936056" lon="11.31998209379899"><ele>565.0</ele><time>2026-04-18T06:20:33Z</time></trkpt><trkpt lat="45.68439384652277" lon="11.320141223278686"><ele>566.0</ele><time>2026-04-18T06:20:34Z</time></trkpt><trkpt lat="45.68430254720377" lon="11.320326305613237"><ele>567.0</ele><time>2026-04-18T06:20:35Z</time></trkpt><trkpt lat="45.68420379933572" lon="11.320521667249325"><ele>568.0</ele><time>2026-04-18T06:20:36Z</time></trkpt><trkpt lat="45.68409570270915" lon="11.32074140653067"><ele>564.6666666666667</ele><time>2026-04-18T06:20:37Z</time></trkpt><trkpt lat="45.68398493957023" lon="11.320933440056189"><ele>561.3333333333334</ele><time>2026-04-18T06:20:38Z</time></trkpt><trkpt lat="45.6838680268932" lon="11.321108733101394"><ele>558.0</ele><time>2026-04-18T06:20:39Z</time></trkpt><trkpt lat="45.68375305637886" lon="11.321271907699728"><ele>556.6666666666666</ele><time>2026-04-18T06:20:40Z</time></trkpt><trkpt lat="45.68363009523991" lon="11.321413210349972"><ele>555.3333333333333</ele><time>2026-04-18T06:20:41Z</time></trkpt><trkpt lat="45.683493420337456" lon="11.321545618831994"><ele>554.0</ele><time>2026-04-18T06:20:42Z</time></trkpt><trkpt lat="45.683356389187885" lon="11.321662260985002"><ele>553.5</ele><time>2026-04-18T06:20:43Z</time></trkpt><trkpt lat="45.68322174819426" lon="11.321752243870012"><ele>553.0</ele><time>2026-04-18T06:20:44Z</time></trkpt><trkpt lat="45.68310860781942" lon="11.321852941521145"><ele>552.5</ele><time>2026-04-18T06:20:45Z</time></trkpt><trkpt lat="45.68299881617128" lon="11.321926640501873"><ele>552.0</ele><time>2026-04-18T06:20:46Z</time></trkpt><trkpt lat="45.68287894506608" lon="11.321961618136267"><ele>552.0</ele><time>2026-04-18T06:20:47Z</time></trkpt><trkpt lat="45.682768858124035" lon="11.32196287862945"><ele>552.0</ele><time>2026-04-18T06:20:48Z</time></trkpt><trkpt lat="45.68266402761716" lon="11.321932789546107"><ele>552.0</ele><time>2026-04-18T06:20:49Z</time></trkpt><trkpt lat="45.68256530845446" lon="11.321877699716856"><ele>552.0</ele><time>2026-04-18T06:20:50Z</time></trkpt><trkpt lat="45.68247414450716" lon="11.321822139496538"><ele>552.0</ele><time>2026-04-18T06:20:51Z</time></trkpt><trkpt lat="45.682391010358536" lon="11.321804193564269"><ele>553.5</ele><time>2026-04-18T06:20:52Z</time></trkpt><trkpt lat="45.68229637163614" lon="11.321883760657066"><ele>555.0</ele><time>2026-04-18T06:20:53Z</time></trkpt><trkpt lat="45.68225480060701" lon="11.322042922127471"><ele>556.5</ele><time>2026-04-18T06:20:54Z</time></trkpt><trkpt lat="45.682197564697866" lon="11.322200309706373"><ele>558.0</ele><time>2026-04-18T06:20:55Z</time></trkpt><trkpt lat="45.68210489145323" lon="11.322362725818994"><ele>557.5</ele><time>2026-04-18T06:20:56Z</time></trkpt><trkpt lat="45.6819915771646" lon="11.322499021577206"><ele>557.0</ele><time>2026-04-18T06:20:57Z</time></trkpt><trkpt lat="45.68193357777261" lon="11.322691943728465"><ele>556.5</ele><time>2026-04-18T06:20:58Z</time></trkpt><trkpt lat="45.68188598956731" lon="11.322890865930995"><ele>556.0</ele><time>2026-04-18T06:20:59Z</time></trkpt><trkpt lat="45.68180672764067" lon="11.323049702880672"><ele>548.6666666666667</ele><time>2026-04-18T06:21:00Z</time></trkpt><trkpt lat="45.6817055291704" lon="11.323200100519038"><ele>541.3333333333334</ele><time>2026-04-18T06:21:01Z</time></trkpt><trkpt lat="45.68158354238881" lon="11.323332527331425"><ele>534.0</ele><time>2026-04-18T06:21:02Z</time></trkpt><trkpt lat="45.681454753353435" lon="11.32346561042361"><ele>534.0</ele><time>2026-04-18T06:21:03Z</time></trkpt><trkpt lat="45.68134137131038" lon="11.323552351224807"><ele>534.0</ele><time>2026-04-18T06:21:04Z</time></trkpt><trkpt lat="45.681246735042436" lon="11.323689753850502"><ele>534.0</ele><time>2026-04-18T06:21:05Z</time></trkpt><trkpt lat="45.68117631517443" lon="11.323853667075118"><ele>534.0</ele><time>2026-04-18T06:21:06Z</time></trkpt><trkpt lat="45.68113345641501" lon="11.323993839754271"><ele>532.3333333333334</ele><time>2026-04-18T06:21:07Z</time></trkpt><trkpt lat="45.68110432124184" lon="11.324104219835203"><ele>530.6666666666666</ele><time>2026-04-18T06:21:08Z</time></trkpt><trkpt lat="45.68109647104449" lon="11.32422111980696"><ele>529.0</ele><time>2026-04-18T06:21:09Z</time></trkpt><trkpt lat="45.68113272210768" lon="11.324328300192855"><ele>527.3333333333333</ele><time>2026-04-18T06:21:10Z</time></trkpt><trkpt lat="45.68119342270141" lon="11.324397412440634"><ele>525.6666666666666</ele><time>2026-04-18T06:21:11Z</time></trkpt><trkpt lat="45.681275764218114" lon="11.32445022968253"><ele>524.0</ele><time>2026-04-18T06:21:12Z</time></trkpt><trkpt lat="45.68135368784889" lon="11.324522457958873"><ele>524.0</ele><time>2026-04-18T06:21:13Z</time></trkpt><trkpt lat="45.681415868692426" lon="11.324645927821638"><ele>524.0</ele><time>2026-04-18T06:21:14Z</time></trkpt><trkpt lat="45.681451120012596" lon="11.324806745996009"><ele>524.0</ele><time>2026-04-18T06:21:15Z</time></trkpt><trkpt lat="45.681462208002955" lon="11.324993144933671"><ele>524.0</ele><time>2026-04-18T06:21:16Z</time></trkpt><trkpt lat="45.681462656280985" lon="11.325204895952403"><ele>523.6666666666666</ele><time>2026-04-18T06:21:17Z</time></trkpt><trkpt lat="45.68145799615593" lon="11.325436928523615"><ele>523.3333333333334</ele><time>2026-04-18T06:21:18Z</time></trkpt><trkpt lat="45.68144760607457" lon="11.325674145392888"><ele>523.0</ele><time>2026-04-18T06:21:19Z</time></trkpt><trkpt lat="45.68142251285766" lon="11.325897984228195"><ele>523.0</ele><time>2026-04-18T06:21:20Z</time></trkpt><trkpt lat="45.681422215223805" lon="11.3261076584658"><ele>523.0</ele><time>2026-04-18T06:21:21Z</time></trkpt><trkpt lat="45.68141033556643" lon="11.326305115220045"><ele>523.0</ele><time>2026-04-18T06:21:22Z</time></trkpt><trkpt lat="45.68141933850307" lon="11.32649881711413"><ele>523.0</ele><time>2026-04-18T06:21:23Z</time></trkpt><trkpt lat="45.681444584521046" lon="11.326680428606865"><ele>522.5</ele><time>2026-04-18T06:21:24Z</time></trkpt><trkpt lat="45.68146581370519" lon="11.326856935575263"><ele>522.0</ele><time>2026-04-18T06:21:25Z</time></trkpt><trkpt lat="45.681469962568556" lon="11.327022475315971"><ele>521.5</ele><time>2026-04-18T06:21:26Z</time></trkpt><trkpt lat="45.681449400161846" lon="11.327178660672134"><ele>521.0</ele><time>2026-04-18T06:21:27Z</time></trkpt><trkpt lat="45.6813745190092" lon="11.327311814906514"><ele>520.6666666666666</ele><time>2026-04-18T06:21:28Z</time></trkpt><trkpt lat="45.68129943869384" lon="11.327479847421603"><ele>520.3333333333334</ele><time>2026-04-18T06:21:29Z</time></trkpt><trkpt lat="45.68120529339293" lon="11.327656354020311"><ele>520.0</ele><time>2026-04-18T06:21:30Z</time></trkpt><trkpt lat="45.68111366575372" lon="11.327846150591911"><ele>520.2</ele><time>2026-04-18T06:21:31Z</time></trkpt><trkpt lat="45.681033864271456" lon="11.328016891626541"><ele>520.4</ele><time>2026-04-18T06:21:32Z</time></trkpt><trkpt lat="45.68098961190739" lon="11.328155328104407"><ele>520.6</ele><time>2026-04-18T06:21:33Z</time></trkpt><trkpt lat="45.68098275450406" lon="11.328285434610553"><ele>520.8</ele><time>2026-04-18T06:21:34Z</time></trkpt><trkpt lat="45.68100941470486" lon="11.328416881570018"><ele>521.0</ele><time>2026-04-18T06:21:35Z</time></trkpt><trkpt lat="45.68106474505057" lon="11.32853157065984"><ele>519.4</ele><time>2026-04-18T06:21:36Z</time></trkpt><trkpt lat="45.681088160294685" lon="11.32865055710128"><ele>517.8</ele><time>2026-04-18T06:21:37Z</time></trkpt><trkpt lat="45.68105549118078" lon="11.328809158673364"><ele>516.1999999999999</ele><time>2026-04-18T06:21:39Z</time></trkpt><trkpt lat="45.680955977461615" lon="11.328839987013122"><ele>514.6</ele><time>2026-04-18T06:21:40Z</time></trkpt><trkpt lat="45.6808393704688" lon="11.328907268215069"><ele>513.0</ele><time>2026-04-18T06:21:41Z</time></trkpt><trkpt lat="45.68071792288722" lon="11.32895929684544"><ele>510.75</ele><time>2026-04-18T06:21:42Z</time></trkpt><trkpt lat="45.68060294660303" lon="11.32902683188106"><ele>508.5</ele><time>2026-04-18T06:21:43Z</time></trkpt><trkpt lat="45.68050165788249" lon="11.329128090547945"><ele>506.25</ele><time>2026-04-18T06:21:44Z</time></trkpt><trkpt lat="45.680412442315685" lon="11.329271869440273"><ele>504.0</ele><time>2026-04-18T06:21:45Z</time></trkpt><trkpt lat="45.68033905579789" lon="11.329418006170972"><ele>504.25</ele><time>2026-04-18T06:21:46Z</time></trkpt><trkpt lat="45.68025791295238" lon="11.329569853030515"><ele>504.5</ele><time>2026-04-18T06:21:47Z</time></trkpt><trkpt lat="45.68015763956512" lon="11.329699463284603"><ele>504.75</ele><time>2026-04-18T06:21:48Z</time></trkpt><trkpt lat="45.68007648729931" lon="11.329847273473359"><ele>505.0</ele><time>2026-04-18T06:21:49Z</time></trkpt><trkpt lat="45.67998390119923" lon="11.329991334589788"><ele>501.5</ele><time>2026-04-18T06:21:50Z</time></trkpt><trkpt lat="45.67989176805823" lon="11.330144719305187"><ele>498.0</ele><time>2026-04-18T06:21:51Z</time></trkpt><trkpt lat="45.679801490592354" lon="11.330277001715348"><ele>494.5</ele><time>2026-04-18T06:21:52Z</time></trkpt><trkpt lat="45.679725489239054" lon="11.330406840221334"><ele>491.0</ele><time>2026-04-18T06:21:53Z</time></trkpt><trkpt lat="45.679658620353095" lon="11.330523272238807"><ele>488.8</ele><time>2026-04-18T06:21:54Z</time></trkpt><trkpt lat="45.67959368861676" lon="11.330628866444444"><ele>486.6</ele><time>2026-04-18T06:21:55Z</time></trkpt><trkpt lat="45.679546563846905" lon="11.330720042226677"><ele>484.4</ele><time>2026-04-18T06:21:56Z</time></trkpt><trkpt lat="45.67959586794147" lon="11.330888032533121"><ele>482.2</ele><time>2026-04-18T06:21:58Z</time></trkpt><trkpt lat="45.679672841536174" lon="11.330939825140417"><ele>480.0</ele><time>2026-04-18T06:21:59Z</time></trkpt><trkpt lat="45.67977858036897" lon="11.330950628526125"><ele>480.0</ele><time>2026-04-18T06:22:00Z</time></trkpt><trkpt lat="45.679903542746935" lon="11.330974696245184"><ele>480.0</ele><time>2026-04-18T06:22:01Z</time></trkpt><trkpt lat="45.6800304288684" lon="11.331016753795604"><ele>480.0</ele><time>2026-04-18T06:22:02Z</time></trkpt><trkpt lat="45.68016578214974" lon="11.331054454237819"><ele>480.0</ele><time>2026-04-18T06:22:03Z</time></trkpt><trkpt lat="45.68029777391772" lon="11.331066797481768"><ele>478.8</ele><time>2026-04-18T06:22:04Z</time></trkpt><trkpt lat="45.68043057551972" lon="11.331075971537212"><ele>477.6</ele><time>2026-04-18T06:22:05Z</time></trkpt><trkpt lat="45.680546168114496" lon="11.331032283485136"><ele>476.4</ele><time>2026-04-18T06:22:06Z</time></trkpt><trkpt lat="45.68061994991293" lon="11.330994458920555"><ele>475.2</ele><time>2026-04-18T06:22:07Z</time></trkpt><trkpt lat="45.68069118439309" lon="11.331044297958968"><ele>474.0</ele><time>2026-04-18T06:22:08Z</time></trkpt><trkpt lat="45.680736456744974" lon="11.33115379586886"><ele>474.0</ele><time>2026-04-18T06:22:09Z</time></trkpt><trkpt lat="45.68075457500767" lon="11.331314117884665"><ele>474.0</ele><time>2026-04-18T06:22:10Z</time></trkpt><trkpt lat="45.68077657321866" lon="11.3314984087618"><ele>474.0</ele><time>2026-04-18T06:22:11Z</time></trkpt><trkpt lat="45.680820620014224" lon="11.331698035110355"><ele>474.0</ele><time>2026-04-18T06:22:12Z</time></trkpt><trkpt lat="45.6808720559347" lon="11.331901233878996"><ele>473.75</ele><time>2026-04-18T06:22:13Z</time></trkpt><trkpt lat="45.68093188603412" lon="11.332096199506204"><ele>473.5</ele><time>2026-04-18T06:22:14Z</time></trkpt><trkpt lat="45.68099513163054" lon="11.332275827367644"><ele>473.25</ele><time>2026-04-18T06:22:15Z</time></trkpt><trkpt lat="45.681069108662065" lon="11.332439850734175"><ele>473.0</ele><time>2026-04-18T06:22:16Z</time></trkpt><trkpt lat="45.68116417233829" lon="11.332579727682385"><ele>473.0</ele><time>2026-04-18T06:22:17Z</time></trkpt><trkpt lat="45.68128002356549" lon="11.332719560608197"><ele>473.0</ele><time>2026-04-18T06:22:18Z</time></trkpt><trkpt lat="45.68138477011451" lon="11.332876717161954"><ele>473.0</ele><time>2026-04-18T06:22:19Z</time></trkpt><trkpt lat="45.68147297588503" lon="11.333045441634123"><ele>468.25</ele><time>2026-04-18T06:22:20Z</time></trkpt><trkpt lat="45.68153535927211" lon="11.333229432688775"><ele>463.5</ele><time>2026-04-18T06:22:21Z</time></trkpt><trkpt lat="45.68159202108937" lon="11.333398971102904"><ele>458.75</ele><time>2026-04-18T06:22:22Z</time></trkpt><trkpt lat="45.68166218777622" lon="11.333542341101806"><ele>454.0</ele><time>2026-04-18T06:22:23Z</time></trkpt><trkpt lat="45.68176260717632" lon="11.33367271181973"><ele>454.0</ele><time>2026-04-18T06:22:24Z</time></trkpt><trkpt lat="45.68188353145233" lon="11.33379767239502"><ele>454.0</ele><time>2026-04-18T06:22:25Z</time></trkpt><trkpt lat="45.68202186705402" lon="11.333916895665833"><ele>454.0</ele><time>2026-04-18T06:22:26Z</time></trkpt><trkpt lat="45.682165990529505" lon="11.334031473073836"><ele>451.0</ele><time>2026-04-18T06:22:27Z</time></trkpt><trkpt lat="45.6823076844387" lon="11.334148069401477"><ele>448.0</ele><time>2026-04-18T06:22:28Z</time></trkpt><trkpt lat="45.682440221014765" lon="11.33427098494075"><ele>445.0</ele><time>2026-04-18T06:22:29Z</time></trkpt><trkpt lat="45.68257560918719" lon="11.334383189992923"><ele>445.0</ele><time>2026-04-18T06:22:30Z</time></trkpt><trkpt lat="45.682717378543416" lon="11.334463604866837"><ele>445.0</ele><time>2026-04-18T06:22:31Z</time></trkpt><trkpt lat="45.68285701121768" lon="11.334545604000423"><ele>445.0</ele><time>2026-04-18T06:22:32Z</time></trkpt><trkpt lat="45.682993241771705" lon="11.334629295958155"><ele>443.0</ele><time>2026-04-18T06:22:33Z</time></trkpt><trkpt lat="45.68312418741044" lon="11.334729517475655"><ele>441.0</ele><time>2026-04-18T06:22:34Z</time></trkpt><trkpt lat="45.683253143864334" lon="11.334836837769453"><ele>439.0</ele><time>2026-04-18T06:22:35Z</time></trkpt><trkpt lat="45.68338719769135" lon="11.334952762064079"><ele>439.0</ele><time>2026-04-18T06:22:36Z</time></trkpt><trkpt lat="45.68352545458973" lon="11.335074726593783"><ele>439.0</ele><time>2026-04-18T06:22:37Z</time></trkpt><trkpt lat="45.683665676261306" lon="11.335196199632412"><ele>439.0</ele><time>2026-04-18T06:22:38Z</time></trkpt><trkpt lat="45.68379916740343" lon="11.335318460300726"><ele>438.5</ele><time>2026-04-18T06:22:39Z</time></trkpt><trkpt lat="45.68391128864335" lon="11.33543119420946"><ele>438.0</ele><time>2026-04-18T06:22:40Z</time></trkpt><trkpt lat="45.684016951458304" lon="11.335509814790711"><ele>437.5</ele><time>2026-04-18T06:22:41Z</time></trkpt><trkpt lat="45.68414173034875" lon="11.335562606190763"><ele>437.0</ele><time>2026-04-18T06:22:42Z</time></trkpt><trkpt lat="45.68427784590281" lon="11.335658474939184"><ele>436.66666666666663</ele><time>2026-04-18T06:22:43Z</time></trkpt><trkpt lat="45.684418924348165" lon="11.335769412164959"><ele>436.33333333333337</ele><time>2026-04-18T06:22:44Z</time></trkpt><trkpt lat="45.684565337983834" lon="11.335902849472157"><ele>436.0</ele><time>2026-04-18T06:22:45Z</time></trkpt><trkpt lat="45.68470842761501" lon="11.336035957104578"><ele>436.0</ele><time>2026-04-18T06:22:46Z</time></trkpt><trkpt lat="45.68484981185952" lon="11.336157915543408"><ele>436.0</ele><time>2026-04-18T06:22:47Z</time></trkpt><trkpt lat="45.684981458128455" lon="11.336264412215861"><ele>436.0</ele><time>2026-04-18T06:22:48Z</time></trkpt><trkpt lat="45.68511212653604" lon="11.336359217855174"><ele>434.25</ele><time>2026-04-18T06:22:49Z</time></trkpt><trkpt lat="45.68524634420515" lon="11.336429930495571"><ele>432.5</ele><time>2026-04-18T06:22:50Z</time></trkpt><trkpt lat="45.685378098922854" lon="11.336490108469587"><ele>430.75</ele><time>2026-04-18T06:22:51Z</time></trkpt><trkpt lat="45.6855054564954" lon="11.336565037069459"><ele>429.0</ele><time>2026-04-18T06:22:52Z</time></trkpt><trkpt lat="45.685633429062705" lon="11.336657123413044"><ele>429.0</ele><time>2026-04-18T06:22:53Z</time></trkpt><trkpt lat="45.68577149837794" lon="11.336761545173442"><ele>429.0</ele><time>2026-04-18T06:22:54Z</time></trkpt><trkpt lat="45.68590581170869" lon="11.33686854359756"><ele>429.0</ele><time>2026-04-18T06:22:55Z</time></trkpt><trkpt lat="45.686034593320926" lon="11.336970248111214"><ele>427.25</ele><time>2026-04-18T06:22:56Z</time></trkpt><trkpt lat="45.68615443593552" lon="11.337053776103879"><ele>425.5</ele><time>2026-04-18T06:22:57Z</time></trkpt><trkpt lat="45.686275884836135" lon="11.337100712833815"><ele>423.75</ele><time>2026-04-18T06:22:58Z</time></trkpt><trkpt lat="45.68640920193142" lon="11.337111053213727"><ele>422.0</ele><time>2026-04-18T06:22:59Z</time></trkpt><trkpt lat="45.686550911581705" lon="11.337118316747356"><ele>422.0</ele><time>2026-04-18T06:23:00Z</time></trkpt><trkpt lat="45.68668894621724" lon="11.337160279988277"><ele>422.0</ele><time>2026-04-18T06:23:01Z</time></trkpt><trkpt lat="45.68681808192581" lon="11.337240933819574"><ele>422.0</ele><time>2026-04-18T06:23:02Z</time></trkpt><trkpt lat="45.686914483374174" lon="11.337355012783858"><ele>422.0</ele><time>2026-04-18T06:23:03Z</time></trkpt><trkpt lat="45.68698439211391" lon="11.337518290711673"><ele>420.3333333333333</ele><time>2026-04-18T06:23:04Z</time></trkpt><trkpt lat="45.68704431501154" lon="11.337705738910534"><ele>418.66666666666663</ele><time>2026-04-18T06:23:05Z</time></trkpt><trkpt lat="45.68711565023581" lon="11.337897075260903"><ele>417.0</ele><time>2026-04-18T06:23:06Z</time></trkpt><trkpt lat="45.68719212865664" lon="11.338094669165912"><ele>414.66666666666663</ele><time>2026-04-18T06:23:07Z</time></trkpt><trkpt lat="45.68728433463554" lon="11.338294765025516"><ele>412.3333333333333</ele><time>2026-04-18T06:23:08Z</time></trkpt><trkpt lat="45.68739971523039" lon="11.338498018811617"><ele>410.0</ele><time>2026-04-18T06:23:09Z</time></trkpt><trkpt lat="45.68750250011268" lon="11.33870030712476"><ele>408.66666666666663</ele><time>2026-04-18T06:23:10Z</time></trkpt><trkpt lat="45.68760496351944" lon="11.338900881271307"><ele>407.33333333333337</ele><time>2026-04-18T06:23:11Z</time></trkpt><trkpt lat="45.68769595234599" lon="11.33907558043958"><ele>406.0</ele><time>2026-04-18T06:23:12Z</time></trkpt><trkpt lat="45.687787940531685" lon="11.339231419714189"><ele>406.0</ele><time>2026-04-18T06:23:13Z</time></trkpt><trkpt lat="45.68788127289653" lon="11.339365278914816"><ele>406.0</ele><time>2026-04-18T06:23:14Z</time></trkpt><trkpt lat="45.68799086587575" lon="11.339470574505699"><ele>406.0</ele><time>2026-04-18T06:23:15Z</time></trkpt><trkpt lat="45.68811231010227" lon="11.339553545761376"><ele>406.0</ele><time>2026-04-18T06:23:16Z</time></trkpt><trkpt lat="45.68824272574311" lon="11.33961409048215"><ele>406.0</ele><time>2026-04-18T06:23:17Z</time></trkpt><trkpt lat="45.68837251821263" lon="11.33969949580595"><ele>406.0</ele><time>2026-04-18T06:23:18Z</time></trkpt><trkpt lat="45.68850405614658" lon="11.339753676273272"><ele>406.0</ele><time>2026-04-18T06:23:19Z</time></trkpt><trkpt lat="45.68862975959433" lon="11.339812096363836"><ele>406.0</ele><time>2026-04-18T06:23:20Z</time></trkpt><trkpt lat="45.68874481487317" lon="11.339871940446915"><ele>401.5</ele><time>2026-04-18T06:23:21Z</time></trkpt><trkpt lat="45.68883316393092" lon="11.33999674668832"><ele>397.0</ele><time>2026-04-18T06:23:22Z</time></trkpt><trkpt lat="45.688890344811256" lon="11.340172255470055"><ele>392.5</ele><time>2026-04-18T06:23:23Z</time></trkpt><trkpt lat="45.68892869384717" lon="11.340381896799745"><ele>388.0</ele><time>2026-04-18T06:23:24Z</time></trkpt><trkpt lat="45.68896998315165" lon="11.340606669441152"><ele>386.6666666666667</ele><time>2026-04-18T06:23:25Z</time></trkpt><trkpt lat="45.68901718423362" lon="11.340834155451509"><ele>385.33333333333337</ele><time>2026-04-18T06:23:26Z</time></trkpt><trkpt lat="45.68906107811794" lon="11.34105472498587"><ele>384.0</ele><time>2026-04-18T06:23:27Z</time></trkpt><trkpt lat="45.689105577323346" lon="11.341265182910487"><ele>382.6</ele><time>2026-04-18T06:23:28Z</time></trkpt><trkpt lat="45.68914834660411" lon="11.341450390730666"><ele>381.2</ele><time>2026-04-18T06:23:29Z</time></trkpt><trkpt lat="45.689181935094865" lon="11.341610204116236"><ele>379.8</ele><time>2026-04-18T06:23:30Z</time></trkpt><trkpt lat="45.68921462909079" lon="11.341745112964727"><ele>378.40000000000003</ele><time>2026-04-18T06:23:31Z</time></trkpt><trkpt lat="45.68926514591605" lon="11.3418580909341"><ele>377.0</ele><time>2026-04-18T06:23:32Z</time></trkpt><trkpt lat="45.68934531943124" lon="11.3419282248975"><ele>375.25</ele><time>2026-04-18T06:23:33Z</time></trkpt><trkpt lat="45.689452653198956" lon="11.341941628247241"><ele>373.5</ele><time>2026-04-18T06:23:34Z</time></trkpt><trkpt lat="45.68957487614859" lon="11.34190140368082"><ele>371.75</ele><time>2026-04-18T06:23:35Z</time></trkpt><trkpt lat="45.689715245719455" lon="11.341889380907714"><ele>370.0</ele><time>2026-04-18T06:23:36Z</time></trkpt><trkpt lat="45.68985555947879" lon="11.341867746013527"><ele>370.0</ele><time>2026-04-18T06:23:37Z</time></trkpt><trkpt lat="45.68998348850085" lon="11.34182832450383"><ele>370.0</ele><time>2026-04-18T06:23:38Z</time></trkpt><trkpt lat="45.69010155021481" lon="11.341818702495296"><ele>370.0</ele><time>2026-04-18T06:23:39Z</time></trkpt><trkpt lat="45.690215171889555" lon="11.341812056636016"><ele>370.0</ele><time>2026-04-18T06:23:40Z</time></trkpt><trkpt lat="45.69030798254386" lon="11.341838992494553"><ele>367.0</ele><time>2026-04-18T06:23:41Z</time></trkpt><trkpt lat="45.69040727703554" lon="11.341901608046436"><ele>364.0</ele><time>2026-04-18T06:23:42Z</time></trkpt><trkpt lat="45.69050220942999" lon="11.34201843378973"><ele>361.0</ele><time>2026-04-18T06:23:43Z</time></trkpt><trkpt lat="45.69058909430079" lon="11.342158820040632"><ele>358.0</ele><time>2026-04-18T06:23:44Z</time></trkpt><trkpt lat="45.69065664817497" lon="11.342323064969033"><ele>357.75</ele><time>2026-04-18T06:23:45Z</time></trkpt><trkpt lat="45.690685310388844" lon="11.342523245072478"><ele>357.5</ele><time>2026-04-18T06:23:46Z</time></trkpt><trkpt lat="45.69073311437051" lon="11.342710140822835"><ele>357.25</ele><time>2026-04-18T06:23:47Z</time></trkpt><trkpt lat="45.69075567020054" lon="11.342904008808986"><ele>357.0</ele><time>2026-04-18T06:23:48Z</time></trkpt><trkpt lat="45.69077011264677" lon="11.343083224555548"><ele>355.8</ele><time>2026-04-18T06:23:49Z</time></trkpt><trkpt lat="45.69075755282086" lon="11.343234626756946"><ele>354.6</ele><time>2026-04-18T06:23:50Z</time></trkpt><trkpt lat="45.69073816719915" lon="11.343353703130644"><ele>353.40000000000003</ele><time>2026-04-18T06:23:51Z</time></trkpt><trkpt lat="45.690654769498934" lon="11.343431851892085"><ele>352.20000000000005</ele><time>2026-04-18T06:23:52Z</time></trkpt><trkpt lat="45.690562099508654" lon="11.343520791612354"><ele>351.0</ele><time>2026-04-18T06:23:53Z</time></trkpt><trkpt lat="45.690450371959976" lon="11.34357020399496"><ele>351.0</ele><time>2026-04-18T06:23:54Z</time></trkpt><trkpt lat="45.69034228345506" lon="11.343549944376617"><ele>351.0</ele><time>2026-04-18T06:23:55Z</time></trkpt><trkpt lat="45.690253231481485" lon="11.34355382241438"><ele>351.0</ele><time>2026-04-18T06:23:56Z</time></trkpt><trkpt lat="45.690175592033555" lon="11.34354005657139"><ele>351.0</ele><time>2026-04-18T06:23:57Z</time></trkpt><trkpt lat="45.690099419319004" lon="11.343645660036715"><ele>351.0</ele><time>2026-04-18T06:23:59Z</time></trkpt><trkpt lat="45.690123660300266" lon="11.343732792378812"><ele>351.0</ele><time>2026-04-18T06:24:00Z</time></trkpt><trkpt lat="45.690190256083376" lon="11.343804434760292"><ele>351.0</ele><time>2026-04-18T06:24:01Z</time></trkpt><trkpt lat="45.690291965711495" lon="11.343855226899214"><ele>351.0</ele><time>2026-04-18T06:24:02Z</time></trkpt><trkpt lat="45.69040214928214" lon="11.343906132232176"><ele>351.0</ele><time>2026-04-18T06:24:03Z</time></trkpt><trkpt lat="45.6905214571841" lon="11.34393520648545"><ele>351.0</ele><time>2026-04-18T06:24:04Z</time></trkpt><trkpt lat="45.69065552977924" lon="11.343947932787959"><ele>351.0</ele><time>2026-04-18T06:24:05Z</time></trkpt><trkpt lat="45.69079445813507" lon="11.343930353870142"><ele>351.0</ele><time>2026-04-18T06:24:06Z</time></trkpt><trkpt lat="45.69093037037173" lon="11.343883529714784"><ele>351.0</ele><time>2026-04-18T06:24:07Z</time></trkpt><trkpt lat="45.69105931910596" lon="11.343807230819099"><ele>351.0</ele><time>2026-04-18T06:24:08Z</time></trkpt><trkpt lat="45.69119190535308" lon="11.343736094016629"><ele>346.75</ele><time>2026-04-18T06:24:09Z</time></trkpt><trkpt lat="45.69132283296933" lon="11.343670312298865"><ele>342.5</ele><time>2026-04-18T06:24:10Z</time></trkpt><trkpt lat="45.69145561595513" lon="11.343602972447197"><ele>338.25</ele><time>2026-04-18T06:24:11Z</time></trkpt><trkpt lat="45.691586520332145" lon="11.343536700215477"><ele>334.0</ele><time>2026-04-18T06:24:12Z</time></trkpt><trkpt lat="45.69171760425487" lon="11.343472952838068"><ele>334.0</ele><time>2026-04-18T06:24:13Z</time></trkpt><trkpt lat="45.691844094893554" lon="11.343401968293612"><ele>334.0</ele><time>2026-04-18T06:24:14Z</time></trkpt><trkpt lat="45.69196687154763" lon="11.343316563722002"><ele>334.0</ele><time>2026-04-18T06:24:15Z</time></trkpt><trkpt lat="45.69208352916817" lon="11.343208761011837"><ele>334.0</ele><time>2026-04-18T06:24:16Z</time></trkpt><trkpt lat="45.6921928118419" lon="11.343087146098835"><ele>332.0</ele><time>2026-04-18T06:24:17Z</time></trkpt><trkpt lat="45.69230187154954" lon="11.342966985491275"><ele>330.0</ele><time>2026-04-18T06:24:18Z</time></trkpt><trkpt lat="45.692421410477415" lon="11.342843072127721"><ele>328.0</ele><time>2026-04-18T06:24:19Z</time></trkpt><trkpt lat="45.69253493759106" lon="11.342734360181115"><ele>326.0</ele><time>2026-04-18T06:24:20Z</time></trkpt><trkpt lat="45.692662507167825" lon="11.342655936488843"><ele>321.5</ele><time>2026-04-18T06:24:21Z</time></trkpt><trkpt lat="45.692768430992935" lon="11.342609003004366"><ele>317.0</ele><time>2026-04-18T06:24:22Z</time></trkpt><trkpt lat="45.692870105336674" lon="11.342539363345313"><ele>312.5</ele><time>2026-04-18T06:24:23Z</time></trkpt><trkpt lat="45.69295811805086" lon="11.34243322351659"><ele>308.0</ele><time>2026-04-18T06:24:24Z</time></trkpt><trkpt lat="45.69303071377691" lon="11.342298681719615"><ele>308.33333333333337</ele><time>2026-04-18T06:24:25Z</time></trkpt><trkpt lat="45.69310521981664" lon="11.342181394004388"><ele>308.6666666666667</ele><time>2026-04-18T06:24:26Z</time></trkpt><trkpt lat="45.693152332223335" lon="11.34208544580683"><ele>309.0</ele><time>2026-04-18T06:24:27Z</time></trkpt><trkpt lat="45.69320395792715" lon="11.34200745884964"><ele>309.3333333333333</ele><time>2026-04-18T06:24:28Z</time></trkpt><trkpt lat="45.6932767455313" lon="11.342016037856961"><ele>309.66666666666663</ele><time>2026-04-18T06:24:29Z</time></trkpt><trkpt lat="45.69333409229756" lon="11.34209499229342"><ele>310.0</ele><time>2026-04-18T06:24:30Z</time></trkpt><trkpt lat="45.69331862870289" lon="11.342214857146594"><ele>309.6</ele><time>2026-04-18T06:24:31Z</time></trkpt><trkpt lat="45.693300759495564" lon="11.34234525621272"><ele>309.2</ele><time>2026-04-18T06:24:32Z</time></trkpt><trkpt lat="45.6932884662575" lon="11.34251965231202"><ele>308.8</ele><time>2026-04-18T06:24:33Z</time></trkpt><trkpt lat="45.69328180615901" lon="11.342684361614527"><ele>308.4</ele><time>2026-04-18T06:24:34Z</time></trkpt><trkpt lat="45.693269186767296" lon="11.342822173266633"><ele>308.0</ele><time>2026-04-18T06:24:35Z</time></trkpt><trkpt lat="45.693268980733976" lon="11.342945597719222"><ele>308.0</ele><time>2026-04-18T06:24:36Z</time></trkpt><trkpt lat="45.693287400444625" lon="11.343055903780256"><ele>308.0</ele><time>2026-04-18T06:24:37Z</time></trkpt><trkpt lat="45.69337049912888" lon="11.34309862142368"><ele>308.0</ele><time>2026-04-18T06:24:38Z</time></trkpt><trkpt lat="45.6934493192472" lon="11.343102584887227"><ele>308.0</ele><time>2026-04-18T06:24:39Z</time></trkpt><trkpt lat="45.69351722392713" lon="11.342987851599048"><ele>308.0</ele><time>2026-04-18T06:24:40Z</time></trkpt><trkpt lat="45.69356603933446" lon="11.34284729637432"><ele>305.0</ele><time>2026-04-18T06:24:41Z</time></trkpt><trkpt lat="45.69363225690209" lon="11.342676949477312"><ele>302.0</ele><time>2026-04-18T06:24:42Z</time></trkpt><trkpt lat="45.69372099026355" lon="11.342516584225407"><ele>299.0</ele><time>2026-04-18T06:24:43Z</time></trkpt><trkpt lat="45.69382211302601" lon="11.342344063721015"><ele>296.0</ele><time>2026-04-18T06:24:44Z</time></trkpt><trkpt lat="45.69394411543062" lon="11.34216673781276"><ele>296.0</ele><time>2026-04-18T06:24:45Z</time></trkpt><trkpt lat="45.694080023473184" lon="11.342039600396989"><ele>296.0</ele><time>2026-04-18T06:24:46Z</time></trkpt><trkpt lat="45.694191734734915" lon="11.341899451898245"><ele>296.0</ele><time>2026-04-18T06:24:47Z</time></trkpt><trkpt lat="45.69430107882303" lon="11.341784736880925"><ele>296.0</ele><time>2026-04-18T06:24:48Z</time></trkpt><trkpt lat="45.69439713093452" lon="11.341685119087824"><ele>293.6666666666667</ele><time>2026-04-18T06:24:49Z</time></trkpt><trkpt lat="45.6944948864653" lon="11.34162656450897"><ele>291.33333333333337</ele><time>2026-04-18T06:24:50Z</time></trkpt><trkpt lat="45.69457421915613" lon="11.341572085671794"><ele>289.0</ele><time>2026-04-18T06:24:51Z</time></trkpt><trkpt lat="45.69464671920275" lon="11.341533416272664"><ele>286.6666666666667</ele><time>2026-04-18T06:24:52Z</time></trkpt><trkpt lat="45.69471758209312" lon="11.34152640316794"><ele>284.3333333333333</ele><time>2026-04-18T06:24:53Z</time></trkpt><trkpt lat="45.69477901219214" lon="11.341604792799469"><ele>282.0</ele><time>2026-04-18T06:24:54Z</time></trkpt><trkpt lat="45.69478910846045" lon="11.341714982478004"><ele>282.0</ele><time>2026-04-18T06:24:55Z</time></trkpt><trkpt lat="45.69472622452272" lon="11.341812313432275"><ele>282.0</ele><time>2026-04-18T06:24:56Z</time></trkpt><trkpt lat="45.6946698695223" lon="11.341952489481054"><ele>282.0</ele><time>2026-04-18T06:24:57Z</time></trkpt><trkpt lat="45.694621678615135" lon="11.342131753269095"><ele>282.0</ele><time>2026-04-18T06:24:58Z</time></trkpt><trkpt lat="45.69455545737159" lon="11.34230778398006"><ele>280.6</ele><time>2026-04-18T06:24:59Z</time></trkpt><trkpt lat="45.69449975566784" lon="11.342476142355833"><ele>279.2</ele><time>2026-04-18T06:25:00Z</time></trkpt><trkpt lat="45.694449720569104" lon="11.342626618808968"><ele>277.8</ele><time>2026-04-18T06:25:01Z</time></trkpt><trkpt lat="45.69440542083875" lon="11.342750872935401"><ele>276.4</ele><time>2026-04-18T06:25:02Z</time></trkpt><trkpt lat="45.6943887147431" lon="11.342856174277424"><ele>275.0</ele><time>2026-04-18T06:25:03Z</time></trkpt><trkpt lat="45.694415787249305" lon="11.342954021525307"><ele>275.0</ele><time>2026-04-18T06:25:04Z</time></trkpt><trkpt lat="45.69446682413541" lon="11.343032710137638"><ele>275.0</ele><time>2026-04-18T06:25:05Z</time></trkpt><trkpt lat="45.694560009774584" lon="11.343014996918876"><ele>275.0</ele><time>2026-04-18T06:25:06Z</time></trkpt><trkpt lat="45.69464658986997" lon="11.342958618250792"><ele>275.0</ele><time>2026-04-18T06:25:07Z</time></trkpt><trkpt lat="45.69475041725707" lon="11.342886318765952"><ele>275.0</ele><time>2026-04-18T06:25:08Z</time></trkpt><trkpt lat="45.694870753500005" lon="11.342803160214324"><ele>275.0</ele><time>2026-04-18T06:25:09Z</time></trkpt><trkpt lat="45.69498508692124" lon="11.342676370807734"><ele>275.0</ele><time>2026-04-18T06:25:10Z</time></trkpt><trkpt lat="45.695095716047106" lon="11.342569895746669"><ele>275.0</ele><time>2026-04-18T06:25:11Z</time></trkpt><trkpt lat="45.69517567689432" lon="11.342473694078333"><ele>275.0</ele><time>2026-04-18T06:25:12Z</time></trkpt><trkpt lat="45.69523971218284" lon="11.3424040506423"><ele>274.1666666666667</ele><time>2026-04-18T06:25:13Z</time></trkpt><trkpt lat="45.69530014300035" lon="11.342376790690956"><ele>273.33333333333337</ele><time>2026-04-18T06:25:14Z</time></trkpt><trkpt lat="45.695358985540075" lon="11.34245209039871"><ele>272.5</ele><time>2026-04-18T06:25:15Z</time></trkpt><trkpt lat="45.69537732228673" lon="11.342567119506384"><ele>271.6666666666667</ele><time>2026-04-18T06:25:16Z</time></trkpt><trkpt lat="45.69533602017952" lon="11.342690157712738"><ele>270.8333333333333</ele><time>2026-04-18T06:25:17Z</time></trkpt><trkpt lat="45.695303161789795" lon="11.342864194844436"><ele>270.0</ele><time>2026-04-18T06:25:18Z</time></trkpt><trkpt lat="45.69525114761749" lon="11.343067409694656"><ele>270.0</ele><time>2026-04-18T06:25:19Z</time></trkpt><trkpt lat="45.695188113157116" lon="11.343288793089966"><ele>270.0</ele><time>2026-04-18T06:25:20Z</time></trkpt><trkpt lat="45.69513614287011" lon="11.343501010264054"><ele>270.0</ele><time>2026-04-18T06:25:21Z</time></trkpt><trkpt lat="45.695086879481316" lon="11.343705578850892"><ele>267.0</ele><time>2026-04-18T06:25:22Z</time></trkpt><trkpt lat="45.695032101544136" lon="11.343896975867064"><ele>264.0</ele><time>2026-04-18T06:25:23Z</time></trkpt><trkpt lat="45.694980534483165" lon="11.34407228030509"><ele>261.0</ele><time>2026-04-18T06:25:24Z</time></trkpt><trkpt lat="45.694931261385825" lon="11.344220256527361"><ele>258.0</ele><time>2026-04-18T06:25:25Z</time></trkpt><trkpt lat="45.694885650460456" lon="11.344351896969407"><ele>258.0</ele><time>2026-04-18T06:25:26Z</time></trkpt><trkpt lat="45.69485862047319" lon="11.344465438064848"><ele>258.0</ele><time>2026-04-18T06:25:27Z</time></trkpt><trkpt lat="45.69486230798391" lon="11.344564489245792"><ele>258.0</ele><time>2026-04-18T06:25:28Z</time></trkpt><trkpt lat="45.694916158272804" lon="11.344640414026687"><ele>258.0</ele><time>2026-04-18T06:25:29Z</time></trkpt><trkpt lat="45.69498695892174" lon="11.344696012569939"><ele>258.0</ele><time>2026-04-18T06:25:30Z</time></trkpt><trkpt lat="45.695102482199275" lon="11.34463583071203"><ele>258.0</ele><time>2026-04-18T06:25:31Z</time></trkpt><trkpt lat="45.69522250400289" lon="11.34458785417873"><ele>254.5</ele><time>2026-04-18T06:25:32Z</time></trkpt><trkpt lat="45.695363740774354" lon="11.344573164393365"><ele>251.0</ele><time>2026-04-18T06:25:33Z</time></trkpt><trkpt lat="45.69550634997241" lon="11.344588481103317"><ele>247.5</ele><time>2026-04-18T06:25:34Z</time></trkpt><trkpt lat="45.69564044919156" lon="11.344619066749067"><ele>244.0</ele><time>2026-04-18T06:25:35Z</time></trkpt><trkpt lat="45.695749519004934" lon="11.344617410299154"><ele>244.0</ele><time>2026-04-18T06:25:36Z</time></trkpt><trkpt lat="45.69586268996953" lon="11.344588474308674"><ele>244.0</ele><time>2026-04-18T06:25:37Z</time></trkpt><trkpt lat="45.69595790300129" lon="11.344482438266283"><ele>244.0</ele><time>2026-04-18T06:25:38Z</time></trkpt><trkpt lat="45.69602599780365" lon="11.344350258092755"><ele>244.0</ele><time>2026-04-18T06:25:39Z</time></trkpt><trkpt lat="45.696073858153625" lon="11.344223112413248"><ele>241.5</ele><time>2026-04-18T06:25:40Z</time></trkpt><trkpt lat="45.696113667270765" lon="11.344141869126569"><ele>239.0</ele><time>2026-04-18T06:25:41Z</time></trkpt><trkpt lat="45.6962484509764" lon="11.344179576332172"><ele>236.5</ele><time>2026-04-18T06:25:43Z</time></trkpt><trkpt lat="45.69631169772029" lon="11.34432355769091"><ele>234.0</ele><time>2026-04-18T06:25:44Z</time></trkpt><trkpt lat="45.69639178783485" lon="11.34448747909853"><ele>234.0</ele><time>2026-04-18T06:25:45Z</time></trkpt><trkpt lat="45.69647044748243" lon="11.34465117300114"><ele>233.99999999999997</ele><time>2026-04-18T06:25:46Z</time></trkpt><trkpt lat="45.69654500877112" lon="11.344792804967712"><ele>233.99999999999997</ele><time>2026-04-18T06:25:47Z</time></trkpt><trkpt lat="45.69660376637847" lon="11.344909394842547"><ele>234.0</ele><time>2026-04-18T06:25:48Z</time></trkpt><trkpt lat="45.696661286894084" lon="11.344983655949012"><ele>234.0</ele><time>2026-04-18T06:25:49Z</time></trkpt><trkpt lat="45.69673052760031" lon="11.34499188621963"><ele>234.0</ele><time>2026-04-18T06:25:50Z</time></trkpt><trkpt lat="45.69680681028927" lon="11.344958230250011"><ele>233.99999999999997</ele><time>2026-04-18T06:25:51Z</time></trkpt><trkpt lat="45.69684557750423" lon="11.34482460235459"><ele>233.99999999999997</ele><time>2026-04-18T06:25:52Z</time></trkpt><trkpt lat="45.69686378936423" lon="11.344660126276025"><ele>234.0</ele><time>2026-04-18T06:25:53Z</time></trkpt><trkpt lat="45.696893009220624" lon="11.344478056307699"><ele>234.0</ele><time>2026-04-18T06:25:54Z</time></trkpt><trkpt lat="45.69691258730492" lon="11.344295526565215"><ele>233.6</ele><time>2026-04-18T06:25:55Z</time></trkpt><trkpt lat="45.6969348244378" lon="11.344125817733795"><ele>233.2</ele><time>2026-04-18T06:25:56Z</time></trkpt><trkpt lat="45.69696737130962" lon="11.343989862254187"><ele>232.79999999999998</ele><time>2026-04-18T06:25:57Z</time></trkpt><trkpt lat="45.697034193695565" lon="11.34388053290712"><ele>232.39999999999998</ele><time>2026-04-18T06:25:58Z</time></trkpt><trkpt lat="45.697137205271886" lon="11.343844023193775"><ele>232.0</ele><time>2026-04-18T06:25:59Z</time></trkpt><trkpt lat="45.69725349031746" lon="11.343917603812589"><ele>229.0</ele><time>2026-04-18T06:26:00Z</time></trkpt><trkpt lat="45.69739338001638" lon="11.34394834030053"><ele>226.0</ele><time>2026-04-18T06:26:01Z</time></trkpt><trkpt lat="45.69754404766752" lon="11.344001514643056"><ele>223.0</ele><time>2026-04-18T06:26:02Z</time></trkpt><trkpt lat="45.697698581207796" lon="11.344030177923182"><ele>220.33333333333331</ele><time>2026-04-18T06:26:03Z</time></trkpt><trkpt lat="45.69786510782466" lon="11.344022891767274"><ele>217.66666666666669</ele><time>2026-04-18T06:26:04Z</time></trkpt><trkpt lat="45.69803249316913" lon="11.343997387628752"><ele>215.0</ele><time>2026-04-18T06:26:05Z</time></trkpt><trkpt lat="45.69819001456967" lon="11.3440176197559"><ele>215.0</ele><time>2026-04-18T06:26:06Z</time></trkpt><trkpt lat="45.69832181416277" lon="11.34400643679058"><ele>215.0</ele><time>2026-04-18T06:26:07Z</time></trkpt><trkpt lat="45.69843665685471" lon="11.343982736361767"><ele>215.0</ele><time>2026-04-18T06:26:08Z</time></trkpt><trkpt lat="45.698534544980646" lon="11.344025083907624"><ele>215.0</ele><time>2026-04-18T06:26:09Z</time></trkpt><trkpt lat="45.6986149576582" lon="11.34412642359514"><ele>213.5</ele><time>2026-04-18T06:26:10Z</time></trkpt><trkpt lat="45.698680450885455" lon="11.344279063041695"><ele>212.0</ele><time>2026-04-18T06:26:11Z</time></trkpt><trkpt lat="45.69873381252152" lon="11.34446570757963"><ele>210.5</ele><time>2026-04-18T06:26:12Z</time></trkpt><trkpt lat="45.69877882564321" lon="11.344679822925597"><ele>209.0</ele><time>2026-04-18T06:26:13Z</time></trkpt><trkpt lat="45.69883328073106" lon="11.34490504262481"><ele>208.66666666666669</ele><time>2026-04-18T06:26:14Z</time></trkpt><trkpt lat="45.69890044134562" lon="11.345136107440926"><ele>208.33333333333331</ele><time>2026-04-18T06:26:15Z</time></trkpt><trkpt lat="45.698990088634474" lon="11.34537078827334"><ele>208.0</ele><time>2026-04-18T06:26:16Z</time></trkpt><trkpt lat="45.69909489810102" lon="11.345604203428884"><ele>207.66666666666666</ele><time>2026-04-18T06:26:17Z</time></trkpt><trkpt lat="45.699205312528974" lon="11.3458357512499"><ele>207.33333333333331</ele><time>2026-04-18T06:26:18Z</time></trkpt><trkpt lat="45.69933286110552" lon="11.346063452806565"><ele>207.0</ele><time>2026-04-18T06:26:19Z</time></trkpt><trkpt lat="45.6994717396047" lon="11.346281700162423"><ele>206.33333333333331</ele><time>2026-04-18T06:26:20Z</time></trkpt><trkpt lat="45.699623531636256" lon="11.346484552199081"><ele>205.66666666666666</ele><time>2026-04-18T06:26:21Z</time></trkpt><trkpt lat="45.69978383818274" lon="11.346666596748369"><ele>205.0</ele><time>2026-04-18T06:26:22Z</time></trkpt><trkpt lat="45.699953978070134" lon="11.346836854173745"><ele>205.0</ele><time>2026-04-18T06:26:23Z</time></trkpt><trkpt lat="45.70012737369141" lon="11.347012579273262"><ele>205.0</ele><time>2026-04-18T06:26:24Z</time></trkpt><trkpt lat="45.70029883888517" lon="11.347198330523977"><ele>205.0</ele><time>2026-04-18T06:26:25Z</time></trkpt><trkpt lat="45.700466989385724" lon="11.347381015612335"><ele>204.66666666666666</ele><time>2026-04-18T06:26:26Z</time></trkpt><trkpt lat="45.70062539698433" lon="11.3475523704559"><ele>204.33333333333331</ele><time>2026-04-18T06:26:27Z</time></trkpt><trkpt lat="45.70077849218868" lon="11.347717574275206"><ele>204.0</ele><time>2026-04-18T06:26:28Z</time></trkpt><trkpt lat="45.7009250130842" lon="11.347875936070068"><ele>204.0</ele><time>2026-04-18T06:26:29Z</time></trkpt><trkpt lat="45.70106522127574" lon="11.34802935765026"><ele>204.0</ele><time>2026-04-18T06:26:30Z</time></trkpt><trkpt lat="45.70119802736709" lon="11.348174040660139"><ele>204.0</ele><time>2026-04-18T06:26:31Z</time></trkpt><trkpt lat="45.701327799280484" lon="11.348309964608731"><ele>203.75</ele><time>2026-04-18T06:26:32Z</time></trkpt><trkpt lat="45.70145298382366" lon="11.348439995268393"><ele>203.5</ele><time>2026-04-18T06:26:33Z</time></trkpt><trkpt lat="45.70157381556491" lon="11.348564640755438"><ele>203.25</ele><time>2026-04-18T06:26:34Z</time></trkpt><trkpt lat="45.70168700740708" lon="11.348682456519848"><ele>203.0</ele><time>2026-04-18T06:26:35Z</time></trkpt><trkpt lat="45.7017949975226" lon="11.348795908697573"><ele>202.75</ele><time>2026-04-18T06:26:36Z</time></trkpt><trkpt lat="45.70190181848049" lon="11.348903918288181"><ele>202.5</ele><time>2026-04-18T06:26:37Z</time></trkpt><trkpt lat="45.702006215432625" lon="11.349003597181081"><ele>202.25</ele><time>2026-04-18T06:26:38Z</time></trkpt><trkpt lat="45.70210395494004" lon="11.349103769711974"><ele>202.0</ele><time>2026-04-18T06:26:39Z</time></trkpt><trkpt lat="45.70218604120141" lon="11.34920259123931"><ele>202.39999999999998</ele><time>2026-04-18T06:26:40Z</time></trkpt><trkpt lat="45.70225715450005" lon="11.349306816686994"><ele>202.79999999999998</ele><time>2026-04-18T06:26:41Z</time></trkpt><trkpt lat="45.70233258696621" lon="11.349405088092846"><ele>203.2</ele><time>2026-04-18T06:26:42Z</time></trkpt><trkpt lat="45.70243019386985" lon="11.349480549604484"><ele>203.6</ele><time>2026-04-18T06:26:43Z</time></trkpt><trkpt lat="45.7025398541206" lon="11.349565502574094"><ele>204.0</ele><time>2026-04-18T06:26:44Z</time></trkpt><trkpt lat="45.7026531168978" lon="11.349682417351008"><ele>204.66666666666669</ele><time>2026-04-18T06:26:45Z</time></trkpt><trkpt lat="45.702770105554464" lon="11.349815133356461"><ele>205.33333333333334</ele><time>2026-04-18T06:26:46Z</time></trkpt><trkpt lat="45.70289465443601" lon="11.349949409947676"><ele>206.0</ele><time>2026-04-18T06:26:47Z</time></trkpt><trkpt lat="45.703025002538375" lon="11.350095586081672"><ele>206.0</ele><time>2026-04-18T06:26:48Z</time></trkpt><trkpt lat="45.70315812228639" lon="11.350238363199669"><ele>206.0</ele><time>2026-04-18T06:26:49Z</time></trkpt><trkpt lat="45.70329577016701" lon="11.35038677561659"><ele>206.0</ele><time>2026-04-18T06:26:50Z</time></trkpt><trkpt lat="45.70343437455228" lon="11.350531283082939"><ele>206.0</ele><time>2026-04-18T06:26:51Z</time></trkpt><trkpt lat="45.70356466283149" lon="11.350667463789328"><ele>206.0</ele><time>2026-04-18T06:26:52Z</time></trkpt><trkpt lat="45.70368706033649" lon="11.350794427967614"><ele>206.0</ele><time>2026-04-18T06:26:53Z</time></trkpt><trkpt lat="45.70380111412696" lon="11.3509117107513"><ele>206.0</ele><time>2026-04-18T06:26:54Z</time></trkpt><trkpt lat="45.703898382828136" lon="11.351010160319376"><ele>206.0</ele><time>2026-04-18T06:26:55Z</time></trkpt><trkpt lat="45.70398153416191" lon="11.351100383318078"><ele>206.0</ele><time>2026-04-18T06:26:56Z</time></trkpt><trkpt lat="45.704052193089375" lon="11.351190435649375"><ele>206.0</ele><time>2026-04-18T06:26:57Z</time></trkpt><trkpt lat="45.70409738122994" lon="11.351296388954552"><ele>206.0</ele><time>2026-04-18T06:26:58Z</time></trkpt><trkpt lat="45.70416899293223" lon="11.351377114835556"><ele>206.0</ele><time>2026-04-18T06:26:59Z</time></trkpt><trkpt lat="45.70426153548078" lon="11.35142860454101"><ele>206.0</ele><time>2026-04-18T06:27:00Z</time></trkpt><trkpt lat="45.70435973659586" lon="11.351508714096404"><ele>206.0</ele><time>2026-04-18T06:27:01Z</time></trkpt><trkpt lat="45.704462423362685" lon="11.35162188954744"><ele>206.0</ele><time>2026-04-18T06:27:02Z</time></trkpt><trkpt lat="45.70456369586929" lon="11.351743910128786"><ele>206.5</ele><time>2026-04-18T06:27:03Z</time></trkpt><trkpt lat="45.7046806821436" lon="11.351869232898963"><ele>207.0</ele><time>2026-04-18T06:27:04Z</time></trkpt><trkpt lat="45.704796095659454" lon="11.35198832845228"><ele>207.5</ele><time>2026-04-18T06:27:05Z</time></trkpt><trkpt lat="45.704918481925766" lon="11.35211644051269"><ele>208.0</ele><time>2026-04-18T06:27:06Z</time></trkpt><trkpt lat="45.70504066507662" lon="11.352254423128352"><ele>208.33333333333331</ele><time>2026-04-18T06:27:07Z</time></trkpt><trkpt lat="45.70516914773845" lon="11.352394507650983"><ele>208.66666666666669</ele><time>2026-04-18T06:27:08Z</time></trkpt><trkpt lat="45.70529983640709" lon="11.352530599166117"><ele>209.0</ele><time>2026-04-18T06:27:09Z</time></trkpt><trkpt lat="45.70542568895552" lon="11.352662382459483"><ele>209.25</ele><time>2026-04-18T06:27:10Z</time></trkpt><trkpt lat="45.70554232415891" lon="11.352785931131807"><ele>209.5</ele><time>2026-04-18T06:27:11Z</time></trkpt><trkpt lat="45.70565737138221" lon="11.352902995802884"><ele>209.75</ele><time>2026-04-18T06:27:12Z</time></trkpt><trkpt lat="45.705764958941195" lon="11.353020329281247"><ele>210.0</ele><time>2026-04-18T06:27:13Z</time></trkpt><trkpt lat="45.70586939291244" lon="11.353131467464808"><ele>210.0</ele><time>2026-04-18T06:27:14Z</time></trkpt><trkpt lat="45.7059708190463" lon="11.353244011251444"><ele>210.0</ele><time>2026-04-18T06:27:15Z</time></trkpt><trkpt lat="45.706067783248194" lon="11.353350158508457"><ele>210.0</ele><time>2026-04-18T06:27:16Z</time></trkpt><trkpt lat="45.70616565612954" lon="11.353451572781717"><ele>210.0</ele><time>2026-04-18T06:27:17Z</time></trkpt><trkpt lat="45.70625789272582" lon="11.353546929590363"><ele>209.83333333333334</ele><time>2026-04-18T06:27:18Z</time></trkpt><trkpt lat="45.70632943327366" lon="11.353627668455154"><ele>209.66666666666669</ele><time>2026-04-18T06:27:19Z</time></trkpt><trkpt lat="45.70638945423657" lon="11.353693810111244"><ele>209.5</ele><time>2026-04-18T06:27:20Z</time></trkpt><trkpt lat="45.70648125883548" lon="11.353784095707985"><ele>209.33333333333334</ele><time>2026-04-18T06:27:22Z</time></trkpt><trkpt lat="45.70654562064953" lon="11.353870265857607"><ele>209.16666666666669</ele><time>2026-04-18T06:27:24Z</time></trkpt><trkpt lat="45.706606093448464" lon="11.353932641647337"><ele>209.0</ele><time>2026-04-18T06:27:27Z</time></trkpt><trkpt lat="45.706663357319385" lon="11.354010859757084"><ele>208.79999999999998</ele><time>2026-04-18T06:27:35Z</time></trkpt><trkpt lat="45.70675046320587" lon="11.354117898177453"><ele>208.6</ele><time>2026-04-18T06:27:37Z</time></trkpt><trkpt lat="45.70684694114934" lon="11.354231491598009"><ele>208.4</ele><time>2026-04-18T06:27:39Z</time></trkpt><trkpt lat="45.70692172514271" lon="11.35430689931228"><ele>208.2</ele><time>2026-04-18T06:27:40Z</time></trkpt><trkpt lat="45.70700011477934" lon="11.354395233673417"><ele>208.0</ele><time>2026-04-18T06:27:41Z</time></trkpt><trkpt lat="45.707085331754655" lon="11.354493800506214"><ele>207.75</ele><time>2026-04-18T06:27:42Z</time></trkpt><trkpt lat="45.70717165668632" lon="11.354586035677602"><ele>207.5</ele><time>2026-04-18T06:27:43Z</time></trkpt><trkpt lat="45.70726534225894" lon="11.3546848128173"><ele>207.25</ele><time>2026-04-18T06:27:44Z</time></trkpt><trkpt lat="45.70736800078767" lon="11.354790505404644"><ele>207.0</ele><time>2026-04-18T06:27:45Z</time></trkpt><trkpt lat="45.707492134429344" lon="11.354916513345364"><ele>206.5</ele><time>2026-04-18T06:27:46Z</time></trkpt><trkpt lat="45.70761335130887" lon="11.35503878757667"><ele>206.0</ele><time>2026-04-18T06:27:47Z</time></trkpt><trkpt lat="45.707725953941136" lon="11.355152630644742"><ele>205.5</ele><time>2026-04-18T06:27:48Z</time></trkpt><trkpt lat="45.70782964400994" lon="11.355258492900436"><ele>205.0</ele><time>2026-04-18T06:27:49Z</time></trkpt><trkpt lat="45.70792304178423" lon="11.355348493797287"><ele>204.99999999999997</ele><time>2026-04-18T06:27:50Z</time></trkpt><trkpt lat="45.70801653851227" lon="11.355419428683902"><ele>205.0</ele><time>2026-04-18T06:27:51Z</time></trkpt><trkpt lat="45.708095392573085" lon="11.355489697427528"><ele>205.0</ele><time>2026-04-18T06:27:52Z</time></trkpt><trkpt lat="45.708182413158056" lon="11.355443473510071"><ele>205.0</ele><time>2026-04-18T06:27:53Z</time></trkpt><trkpt lat="45.70824149176066" lon="11.355373574572845"><ele>204.99999999999997</ele><time>2026-04-18T06:27:54Z</time></trkpt><trkpt lat="45.70828497603985" lon="11.355277651863409"><ele>205.0</ele><time>2026-04-18T06:27:55Z</time></trkpt><trkpt lat="45.708326884398055" lon="11.35515317757314"><ele>205.0</ele><time>2026-04-18T06:27:56Z</time></trkpt><trkpt lat="45.70838692470426" lon="11.355020214012004"><ele>205.0</ele><time>2026-04-18T06:27:57Z</time></trkpt><trkpt lat="45.708462166366004" lon="11.354877779130206"><ele>205.0</ele><time>2026-04-18T06:27:58Z</time></trkpt><trkpt lat="45.70853904937364" lon="11.354729327477404"><ele>205.0</ele><time>2026-04-18T06:27:59Z</time></trkpt><trkpt lat="45.7086113003389" lon="11.354584068596175"><ele>204.0</ele><time>2026-04-18T06:28:00Z</time></trkpt><trkpt lat="45.70867393042589" lon="11.354438758347676"><ele>203.0</ele><time>2026-04-18T06:28:01Z</time></trkpt><trkpt lat="45.70873578411356" lon="11.354300190170262"><ele>202.0</ele><time>2026-04-18T06:28:02Z</time></trkpt><trkpt lat="45.708795180829995" lon="11.354189127992097"><ele>201.0</ele><time>2026-04-18T06:28:03Z</time></trkpt><trkpt lat="45.7088512450061" lon="11.35409567751865"><ele>200.0</ele><time>2026-04-18T06:28:04Z</time></trkpt><trkpt lat="45.7089056625888" lon="11.354036994230418"><ele>200.0</ele><time>2026-04-18T06:28:05Z</time></trkpt><trkpt lat="45.70895852433933" lon="11.353970889139934"><ele>200.0</ele><time>2026-04-18T06:28:06Z</time></trkpt><trkpt lat="45.709126133499694" lon="11.354079326747115"><ele>200.0</ele><time>2026-04-18T06:28:08Z</time></trkpt><trkpt lat="45.70920954074808" lon="11.354137452215568"><ele>200.0</ele><time>2026-04-18T06:28:09Z</time></trkpt><trkpt lat="45.7093260726379" lon="11.35419228073019"><ele>200.00000000000003</ele><time>2026-04-18T06:28:10Z</time></trkpt><trkpt lat="45.70941226951349" lon="11.354263420765355"><ele>200.0</ele><time>2026-04-18T06:28:11Z</time></trkpt><trkpt lat="45.709486579670155" lon="11.354317788670404"><ele>200.0</ele><time>2026-04-18T06:28:12Z</time></trkpt><trkpt lat="45.70955242722585" lon="11.354370479329384"><ele>200.0</ele><time>2026-04-18T06:28:13Z</time></trkpt><trkpt lat="45.709610912405786" lon="11.354417863347601"><ele>200.00000000000003</ele><time>2026-04-18T06:28:14Z</time></trkpt><trkpt lat="45.709697105224066" lon="11.354491926153107"><ele>200.0</ele><time>2026-04-18T06:28:16Z</time></trkpt><trkpt lat="45.709760452507375" lon="11.354554532295822"><ele>200.00000000000003</ele><time>2026-04-18T06:28:18Z</time></trkpt><trkpt lat="45.709821845646275" lon="11.354609311799901"><ele>200.0</ele><time>2026-04-18T06:28:20Z</time></trkpt><trkpt lat="45.70987704998842" lon="11.354654989248086"><ele>200.0</ele><time>2026-04-18T06:28:22Z</time></trkpt><trkpt lat="45.709949394525346" lon="11.35470093021637"><ele>200.0</ele><time>2026-04-18T06:28:25Z</time></trkpt><trkpt lat="45.70999474034839" lon="11.354768939753404"><ele>200.00000000000003</ele><time>2026-04-18T06:28:55Z</time></trkpt><trkpt lat="45.710091481470485" lon="11.354818973439533"><ele>200.0</ele><time>2026-04-18T06:28:57Z</time></trkpt><trkpt lat="45.71019460948331" lon="11.354888476695528"><ele>199.4</ele><time>2026-04-18T06:28:59Z</time></trkpt><trkpt lat="45.71027012628927" lon="11.35494204243737"><ele>198.8</ele><time>2026-04-18T06:29:00Z</time></trkpt><trkpt lat="45.71035998356901" lon="11.355006988985798"><ele>198.2</ele><time>2026-04-18T06:29:01Z</time></trkpt><trkpt lat="45.71046020603398" lon="11.35507753333976"><ele>197.6</ele><time>2026-04-18T06:29:02Z</time></trkpt><trkpt lat="45.71055198027682" lon="11.355146352838332"><ele>197.0</ele><time>2026-04-18T06:29:03Z</time></trkpt><trkpt lat="45.71064939574894" lon="11.355219535552932"><ele>197.0</ele><time>2026-04-18T06:29:04Z</time></trkpt><trkpt lat="45.71074238737041" lon="11.355286507025482"><ele>197.0</ele><time>2026-04-18T06:29:05Z</time></trkpt><trkpt lat="45.71084500388204" lon="11.355351328257989"><ele>197.0</ele><time>2026-04-18T06:29:06Z</time></trkpt><trkpt lat="45.71093582586267" lon="11.355418963378574"><ele>197.0</ele><time>2026-04-18T06:29:07Z</time></trkpt><trkpt lat="45.71101652604782" lon="11.355501297624155"><ele>197.0</ele><time>2026-04-18T06:29:08Z</time></trkpt><trkpt lat="45.71108619625661" lon="11.35559452778648"><ele>197.39999999999998</ele><time>2026-04-18T06:29:09Z</time></trkpt><trkpt lat="45.71114605017691" lon="11.355663298640808"><ele>197.79999999999998</ele><time>2026-04-18T06:29:10Z</time></trkpt><trkpt lat="45.71126153485479" lon="11.35565704415601"><ele>198.2</ele><time>2026-04-18T06:29:12Z</time></trkpt><trkpt lat="45.711308803645196" lon="11.35558984693477"><ele>198.6</ele><time>2026-04-18T06:29:13Z</time></trkpt><trkpt lat="45.711336336971236" lon="11.355444169253856"><ele>199.0</ele><time>2026-04-18T06:29:15Z</time></trkpt><trkpt lat="45.711362318145916" lon="11.35529950011546"><ele>199.0</ele><time>2026-04-18T06:29:31Z</time></trkpt><trkpt lat="45.711416842672094" lon="11.355142465141691"><ele>199.0</ele><time>2026-04-18T06:29:33Z</time></trkpt><trkpt lat="45.7114726592663" lon="11.354963370226336"><ele>199.0</ele><time>2026-04-18T06:29:35Z</time></trkpt><trkpt lat="45.71151291192343" lon="11.354832334239124"><ele>199.0</ele><time>2026-04-18T06:29:36Z</time></trkpt><trkpt lat="45.711559778513724" lon="11.354685988672372"><ele>199.0</ele><time>2026-04-18T06:29:37Z</time></trkpt><trkpt lat="45.7116049975547" lon="11.354537983580366"><ele>199.0</ele><time>2026-04-18T06:29:38Z</time></trkpt><trkpt lat="45.71164883482484" lon="11.354399574884898"><ele>199.0</ele><time>2026-04-18T06:29:39Z</time></trkpt><trkpt lat="45.71169373626239" lon="11.354249245068948"><ele>199.0</ele><time>2026-04-18T06:29:40Z</time></trkpt><trkpt lat="45.71174316684403" lon="11.354081651013539"><ele>199.0</ele><time>2026-04-18T06:29:41Z</time></trkpt><trkpt lat="45.711800077692686" lon="11.353920277614202"><ele>199.0</ele><time>2026-04-18T06:29:42Z</time></trkpt><trkpt lat="45.71184972355326" lon="11.353784964225435"><ele>199.0</ele><time>2026-04-18T06:29:43Z</time></trkpt><trkpt lat="45.711902367250154" lon="11.353664396642895"><ele>199.0</ele><time>2026-04-18T06:29:44Z</time></trkpt><trkpt lat="45.71196093582875" lon="11.353561991038942"><ele>199.0</ele><time>2026-04-18T06:29:45Z</time></trkpt><trkpt lat="45.71201733628233" lon="11.353462407814117"><ele>199.0</ele><time>2026-04-18T06:29:46Z</time></trkpt><trkpt lat="45.712051321190906" lon="11.35334987543519"><ele>199.0</ele><time>2026-04-18T06:29:47Z</time></trkpt><trkpt lat="45.7120568517373" lon="11.353200725042518"><ele>199.0</ele><time>2026-04-18T06:29:48Z</time></trkpt><trkpt lat="45.712086213956646" lon="11.35303694577008"><ele>199.0</ele><time>2026-04-18T06:29:49Z</time></trkpt><trkpt lat="45.71214368265364" lon="11.352861296398672"><ele>199.0</ele><time>2026-04-18T06:29:50Z</time></trkpt><trkpt lat="45.712209084550615" lon="11.352680470654242"><ele>199.0</ele><time>2026-04-18T06:29:51Z</time></trkpt><trkpt lat="45.71227899811412" lon="11.35247256485639"><ele>199.0</ele><time>2026-04-18T06:29:52Z</time></trkpt><trkpt lat="45.71235191367588" lon="11.35224973285374"><ele>199.0</ele><time>2026-04-18T06:29:53Z</time></trkpt><trkpt lat="45.71242101758388" lon="11.352036618797792"><ele>199.66666666666666</ele><time>2026-04-18T06:29:54Z</time></trkpt><trkpt lat="45.712502359118176" lon="11.351815777969156"><ele>200.33333333333331</ele><time>2026-04-18T06:29:55Z</time></trkpt><trkpt lat="45.71258458767956" lon="11.35157642371914"><ele>201.0</ele><time>2026-04-18T06:29:56Z</time></trkpt><trkpt lat="45.71266606562798" lon="11.351327937612293"><ele>201.0</ele><time>2026-04-18T06:29:57Z</time></trkpt><trkpt lat="45.712750530298386" lon="11.351072424152733"><ele>201.0</ele><time>2026-04-18T06:29:58Z</time></trkpt><trkpt lat="45.71283421324817" lon="11.35081398189826"><ele>201.0</ele><time>2026-04-18T06:29:59Z</time></trkpt><trkpt lat="45.71292023922519" lon="11.350553622056571"><ele>201.66666666666669</ele><time>2026-04-18T06:30:00Z</time></trkpt><trkpt lat="45.713003503103586" lon="11.35029601554318"><ele>202.33333333333334</ele><time>2026-04-18T06:30:01Z</time></trkpt><trkpt lat="45.71308390773144" lon="11.350045302462679"><ele>203.0</ele><time>2026-04-18T06:30:02Z</time></trkpt><trkpt lat="45.71316315371825" lon="11.349802914818609"><ele>203.33333333333334</ele><time>2026-04-18T06:30:03Z</time></trkpt><trkpt lat="45.713241023085224" lon="11.349567635569986"><ele>203.66666666666669</ele><time>2026-04-18T06:30:04Z</time></trkpt><trkpt lat="45.71332074530477" lon="11.349329447174728"><ele>204.0</ele><time>2026-04-18T06:30:05Z</time></trkpt><trkpt lat="45.71340536770023" lon="11.349081476629125"><ele>204.33333333333331</ele><time>2026-04-18T06:30:06Z</time></trkpt><trkpt lat="45.713489043981696" lon="11.348834408842434"><ele>204.66666666666666</ele><time>2026-04-18T06:30:07Z</time></trkpt><trkpt lat="45.71356296218686" lon="11.348609207588007"><ele>205.0</ele><time>2026-04-18T06:30:08Z</time></trkpt><trkpt lat="45.713636674035975" lon="11.34839667759508"><ele>205.25</ele><time>2026-04-18T06:30:09Z</time></trkpt><trkpt lat="45.713702604803636" lon="11.348186693365129"><ele>205.5</ele><time>2026-04-18T06:30:10Z</time></trkpt><trkpt lat="45.71376696016765" lon="11.347992942964925"><ele>205.75</ele><time>2026-04-18T06:30:11Z</time></trkpt><trkpt lat="45.71382682196889" lon="11.347815265588704"><ele>206.0</ele><time>2026-04-18T06:30:12Z</time></trkpt><trkpt lat="45.713886498353105" lon="11.347642038647653"><ele>206.0</ele><time>2026-04-18T06:30:13Z</time></trkpt><trkpt lat="45.713943430593694" lon="11.347477943356905"><ele>206.0</ele><time>2026-04-18T06:30:14Z</time></trkpt><trkpt lat="45.713995449711646" lon="11.347327008053211"><ele>206.0</ele><time>2026-04-18T06:30:15Z</time></trkpt><trkpt lat="45.71404257937437" lon="11.347179619084676"><ele>206.0</ele><time>2026-04-18T06:30:16Z</time></trkpt><trkpt lat="45.714088785769334" lon="11.347044486352157"><ele>206.20000000000002</ele><time>2026-04-18T06:30:17Z</time></trkpt><trkpt lat="45.71413152491515" lon="11.34691296889231"><ele>206.4</ele><time>2026-04-18T06:30:18Z</time></trkpt><trkpt lat="45.71416733857231" lon="11.346788481322832"><ele>206.6</ele><time>2026-04-18T06:30:19Z</time></trkpt><trkpt lat="45.714203825253676" lon="11.34667462580854"><ele>206.8</ele><time>2026-04-18T06:30:20Z</time></trkpt><trkpt lat="45.714233925887285" lon="11.346580499915104"><ele>207.0</ele><time>2026-04-18T06:30:21Z</time></trkpt><trkpt lat="45.71427271401925" lon="11.34644840087725"><ele>207.0</ele><time>2026-04-18T06:30:23Z</time></trkpt><trkpt lat="45.714299193475235" lon="11.346359232126922"><ele>207.0</ele><time>2026-04-18T06:30:25Z</time></trkpt><trkpt lat="45.71433592524165" lon="11.34624425691278"><ele>207.0</ele><time>2026-04-18T06:30:28Z</time></trkpt><trkpt lat="45.71436639715799" lon="11.346163873676923"><ele>207.0</ele><time>2026-04-18T06:30:31Z</time></trkpt><trkpt lat="45.71439615730146" lon="11.346054411815823"><ele>207.0</ele><time>2026-04-18T06:30:57Z</time></trkpt><trkpt lat="45.71445553718473" lon="11.345898046540515"><ele>207.0</ele><time>2026-04-18T06:30:59Z</time></trkpt><trkpt lat="45.7145232721665" lon="11.345725321094063"><ele>207.0</ele><time>2026-04-18T06:31:01Z</time></trkpt><trkpt lat="45.71456460136931" lon="11.345598279625447"><ele>207.0</ele><time>2026-04-18T06:31:02Z</time></trkpt><trkpt lat="45.714610836046774" lon="11.34545125550766"><ele>207.0</ele><time>2026-04-18T06:31:03Z</time></trkpt><trkpt lat="45.714659669885336" lon="11.345307946344194"><ele>207.0</ele><time>2026-04-18T06:31:04Z</time></trkpt><trkpt lat="45.71470759357701" lon="11.345171713779502"><ele>207.0</ele><time>2026-04-18T06:31:05Z</time></trkpt><trkpt lat="45.71475826152659" lon="11.345024934099511"><ele>207.0</ele><time>2026-04-18T06:31:06Z</time></trkpt><trkpt lat="45.71481127704001" lon="11.344859811245126"><ele>207.0</ele><time>2026-04-18T06:31:07Z</time></trkpt><trkpt lat="45.71486767985655" lon="11.34467838485227"><ele>207.0</ele><time>2026-04-18T06:31:08Z</time></trkpt><trkpt lat="45.7149299793046" lon="11.344481332867547"><ele>207.0</ele><time>2026-04-18T06:31:09Z</time></trkpt><trkpt lat="45.71499733814226" lon="11.344277116044365"><ele>207.25</ele><time>2026-04-18T06:31:10Z</time></trkpt><trkpt lat="45.715060504835726" lon="11.344076250561075"><ele>207.5</ele><time>2026-04-18T06:31:11Z</time></trkpt><trkpt lat="45.71512610016978" lon="11.343884768454366"><ele>207.75</ele><time>2026-04-18T06:31:12Z</time></trkpt><trkpt lat="45.715189905316244" lon="11.343697644181745"><ele>208.0</ele><time>2026-04-18T06:31:13Z</time></trkpt><trkpt lat="45.715257925326846" lon="11.343518122289746"><ele>208.75</ele><time>2026-04-18T06:31:14Z</time></trkpt><trkpt lat="45.71531462700883" lon="11.34333724225497"><ele>209.5</ele><time>2026-04-18T06:31:15Z</time></trkpt><trkpt lat="45.71537168480338" lon="11.343155558681838"><ele>210.25</ele><time>2026-04-18T06:31:16Z</time></trkpt><trkpt lat="45.71543064313086" lon="11.342974427482336"><ele>211.0</ele><time>2026-04-18T06:31:17Z</time></trkpt><trkpt lat="45.715485510110405" lon="11.342789341812994"><ele>211.0</ele><time>2026-04-18T06:31:18Z</time></trkpt><trkpt lat="45.71553386943743" lon="11.342616958645138"><ele>211.0</ele><time>2026-04-18T06:31:19Z</time></trkpt><trkpt lat="45.71558192189704" lon="11.342455451099319"><ele>211.0</ele><time>2026-04-18T06:31:20Z</time></trkpt><trkpt lat="45.71562425921611" lon="11.34230340739804"><ele>211.0</ele><time>2026-04-18T06:31:21Z</time></trkpt><trkpt lat="45.71565689441265" lon="11.342165913286404"><ele>210.99999999999997</ele><time>2026-04-18T06:31:22Z</time></trkpt><trkpt lat="45.71567056994604" lon="11.342050886664786"><ele>211.0</ele><time>2026-04-18T06:31:23Z</time></trkpt><trkpt lat="45.715671289231445" lon="11.341897231843857"><ele>211.0</ele><time>2026-04-18T06:31:25Z</time></trkpt><trkpt lat="45.71566002601231" lon="11.34179144961034"><ele>211.0</ele><time>2026-04-18T06:31:27Z</time></trkpt><trkpt lat="45.715652279181384" lon="11.341678416065342"><ele>210.99999999999997</ele><time>2026-04-18T06:31:30Z</time></trkpt><trkpt lat="45.71565006930048" lon="11.341586707336477"><ele>211.0</ele><time>2026-04-18T06:31:34Z</time></trkpt><trkpt lat="45.715636814741295" lon="11.34147132830977"><ele>211.49999999999997</ele><time>2026-04-18T06:31:52Z</time></trkpt><trkpt lat="45.71563295599437" lon="11.341377560745835"><ele>212.0</ele><time>2026-04-18T06:31:53Z</time></trkpt><trkpt lat="45.71562789701065" lon="11.341276414209299"><ele>212.5</ele><time>2026-04-18T06:31:54Z</time></trkpt><trkpt lat="45.71562142494388" lon="11.341178173914846"><ele>213.0</ele><time>2026-04-18T06:31:55Z</time></trkpt><trkpt lat="45.715613363178754" lon="11.341054865414938"><ele>213.49999999999997</ele><time>2026-04-18T06:31:56Z</time></trkpt><trkpt lat="45.715604820129485" lon="11.340902077998328"><ele>214.0</ele><time>2026-04-18T06:31:57Z</time></trkpt><trkpt lat="45.715592179224906" lon="11.340730048089902"><ele>214.0</ele><time>2026-04-18T06:31:58Z</time></trkpt><trkpt lat="45.71557832217332" lon="11.340564240548336"><ele>214.0</ele><time>2026-04-18T06:31:59Z</time></trkpt><trkpt lat="45.715563158998734" lon="11.340404042228528"><ele>214.0</ele><time>2026-04-18T06:32:00Z</time></trkpt><trkpt lat="45.71554979688173" lon="11.340229740712704"><ele>214.0</ele><time>2026-04-18T06:32:01Z</time></trkpt><trkpt lat="45.71553679334661" lon="11.34003876257941"><ele>213.75</ele><time>2026-04-18T06:32:02Z</time></trkpt><trkpt lat="45.71552105867669" lon="11.339833423180552"><ele>213.5</ele><time>2026-04-18T06:32:03Z</time></trkpt><trkpt lat="45.715505708153444" lon="11.339619944928634"><ele>213.25</ele><time>2026-04-18T06:32:04Z</time></trkpt><trkpt lat="45.715488967894004" lon="11.339406767731552"><ele>213.0</ele><time>2026-04-18T06:32:05Z</time></trkpt><trkpt lat="45.715471288611504" lon="11.339200808393228"><ele>213.75</ele><time>2026-04-18T06:32:06Z</time></trkpt><trkpt lat="45.71545637198438" lon="11.339002980996721"><ele>214.5</ele><time>2026-04-18T06:32:07Z</time></trkpt><trkpt lat="45.715443274676225" lon="11.338806170764851"><ele>215.25</ele><time>2026-04-18T06:32:08Z</time></trkpt><trkpt lat="45.71542729080152" lon="11.338603079768312"><ele>216.0</ele><time>2026-04-18T06:32:09Z</time></trkpt><trkpt lat="45.71541117477317" lon="11.338409129112437"><ele>216.75</ele><time>2026-04-18T06:32:10Z</time></trkpt><trkpt lat="45.71539732680577" lon="11.33822866092758"><ele>217.5</ele><time>2026-04-18T06:32:11Z</time></trkpt><trkpt lat="45.71538447686401" lon="11.338057326412434"><ele>218.25</ele><time>2026-04-18T06:32:12Z</time></trkpt><trkpt lat="45.71537349644206" lon="11.33789028414631"><ele>219.0</ele><time>2026-04-18T06:32:13Z</time></trkpt><trkpt lat="45.71536297110333" lon="11.33772768732731"><ele>219.25</ele><time>2026-04-18T06:32:14Z</time></trkpt><trkpt lat="45.7153544697433" lon="11.33756432317549"><ele>219.5</ele><time>2026-04-18T06:32:15Z</time></trkpt><trkpt lat="45.7153442080434" lon="11.337404286529537"><ele>219.75</ele><time>2026-04-18T06:32:16Z</time></trkpt><trkpt lat="45.715333591394824" lon="11.337244973679098"><ele>220.0</ele><time>2026-04-18T06:32:17Z</time></trkpt><trkpt lat="45.71532329058112" lon="11.337085151393323"><ele>220.4</ele><time>2026-04-18T06:32:18Z</time></trkpt><trkpt lat="45.715313581972346" lon="11.336927955511042"><ele>220.8</ele><time>2026-04-18T06:32:19Z</time></trkpt><trkpt lat="45.715301815790944" lon="11.33676468177907"><ele>221.2</ele><time>2026-04-18T06:32:20Z</time></trkpt><trkpt lat="45.71529045418851" lon="11.33660268714557"><ele>221.6</ele><time>2026-04-18T06:32:21Z</time></trkpt><trkpt lat="45.71527958408825" lon="11.336449271861351"><ele>222.0</ele><time>2026-04-18T06:32:22Z</time></trkpt><trkpt lat="45.715270586655826" lon="11.33630460766577"><ele>222.2</ele><time>2026-04-18T06:32:23Z</time></trkpt><trkpt lat="45.71526324308137" lon="11.3361625007006"><ele>222.39999999999998</ele><time>2026-04-18T06:32:24Z</time></trkpt><trkpt lat="45.7152531597824" lon="11.336020985053468"><ele>222.60000000000002</ele><time>2026-04-18T06:32:25Z</time></trkpt><trkpt lat="45.715245903586165" lon="11.335881052491146"><ele>222.8</ele><time>2026-04-18T06:32:26Z</time></trkpt><trkpt lat="45.71524870993153" lon="11.335759574276835"><ele>223.0</ele><time>2026-04-18T06:32:27Z</time></trkpt><trkpt lat="45.71524322606766" lon="11.335630377974894"><ele>223.0</ele><time>2026-04-18T06:32:28Z</time></trkpt><trkpt lat="45.7152395012822" lon="11.335508524838826"><ele>223.0</ele><time>2026-04-18T06:32:29Z</time></trkpt><trkpt lat="45.715236230837384" lon="11.335369931185726"><ele>223.0</ele><time>2026-04-18T06:32:30Z</time></trkpt><trkpt lat="45.715229738813" lon="11.335210616279246"><ele>223.0</ele><time>2026-04-18T06:32:31Z</time></trkpt><trkpt lat="45.71521874183417" lon="11.335038799809707"><ele>223.0</ele><time>2026-04-18T06:32:32Z</time></trkpt><trkpt lat="45.715207625164474" lon="11.334875193561047"><ele>222.0</ele><time>2026-04-18T06:32:33Z</time></trkpt><trkpt lat="45.71519621116172" lon="11.334694866896625"><ele>221.0</ele><time>2026-04-18T06:32:34Z</time></trkpt><trkpt lat="45.71517876106556" lon="11.334490656044288"><ele>220.0</ele><time>2026-04-18T06:32:35Z</time></trkpt><trkpt lat="45.71516356893538" lon="11.334281088919653"><ele>219.0</ele><time>2026-04-18T06:32:36Z</time></trkpt><trkpt lat="45.71514888802639" lon="11.33408744938033"><ele>219.0</ele><time>2026-04-18T06:32:37Z</time></trkpt><trkpt lat="45.71513595000171" lon="11.333897505407062"><ele>219.0</ele><time>2026-04-18T06:32:38Z</time></trkpt><trkpt lat="45.715118378329265" lon="11.333711383911183"><ele>219.0</ele><time>2026-04-18T06:32:39Z</time></trkpt><trkpt lat="45.71510094409978" lon="11.333541901282857"><ele>219.0</ele><time>2026-04-18T06:32:40Z</time></trkpt><trkpt lat="45.71509747188011" lon="11.33337493314036"><ele>218.83333333333334</ele><time>2026-04-18T06:32:41Z</time></trkpt><trkpt lat="45.7151137591512" lon="11.333224360847895"><ele>218.66666666666669</ele><time>2026-04-18T06:32:42Z</time></trkpt><trkpt lat="45.715121834232086" lon="11.333100035603161"><ele>218.5</ele><time>2026-04-18T06:32:43Z</time></trkpt><trkpt lat="45.715093577944465" lon="11.333004255550604"><ele>218.33333333333334</ele><time>2026-04-18T06:32:44Z</time></trkpt><trkpt lat="45.715035456545664" lon="11.33294671725749"><ele>218.16666666666669</ele><time>2026-04-18T06:32:45Z</time></trkpt><trkpt lat="45.71497664189065" lon="11.332907576442413"><ele>218.0</ele><time>2026-04-18T06:32:46Z</time></trkpt><trkpt lat="45.71486678298339" lon="11.332986511289134"><ele>218.0</ele><time>2026-04-18T06:32:47Z</time></trkpt><trkpt lat="45.71476094267851" lon="11.33304550876075"><ele>218.0</ele><time>2026-04-18T06:32:48Z</time></trkpt><trkpt lat="45.71463302315382" lon="11.333071665973105"><ele>218.0</ele><time>2026-04-18T06:32:49Z</time></trkpt><trkpt lat="45.71448680022535" lon="11.33306453566348"><ele>218.0</ele><time>2026-04-18T06:32:50Z</time></trkpt><trkpt lat="45.71433709221416" lon="11.33305152957477"><ele>217.75</ele><time>2026-04-18T06:32:51Z</time></trkpt><trkpt lat="45.71419860833161" lon="11.333037631928411"><ele>217.5</ele><time>2026-04-18T06:32:52Z</time></trkpt><trkpt lat="45.71407580971661" lon="11.333003452826214"><ele>217.25</ele><time>2026-04-18T06:32:53Z</time></trkpt><trkpt lat="45.71396587134516" lon="11.3329438943054"><ele>217.0</ele><time>2026-04-18T06:32:54Z</time></trkpt><trkpt lat="45.71386262387697" lon="11.33285983731815"><ele>217.0</ele><time>2026-04-18T06:32:55Z</time></trkpt><trkpt lat="45.7137477981817" lon="11.332760603096125"><ele>217.0</ele><time>2026-04-18T06:32:56Z</time></trkpt><trkpt lat="45.71363015976391" lon="11.332672794611442"><ele>217.0</ele><time>2026-04-18T06:32:57Z</time></trkpt><trkpt lat="45.71353290097716" lon="11.33258164189988"><ele>217.0</ele><time>2026-04-18T06:32:58Z</time></trkpt><trkpt lat="45.7134665918554" lon="11.3324548716423"><ele>216.75</ele><time>2026-04-18T06:32:59Z</time></trkpt><trkpt lat="45.71344337872678" lon="11.332302673682463"><ele>216.5</ele><time>2026-04-18T06:33:00Z</time></trkpt><trkpt lat="45.71345631252111" lon="11.332121679558728"><ele>216.25</ele><time>2026-04-18T06:33:01Z</time></trkpt><trkpt lat="45.71348779615647" lon="11.331916218347224"><ele>216.0</ele><time>2026-04-18T06:33:02Z</time></trkpt><trkpt lat="45.71351790225187" lon="11.331679852517356"><ele>216.0</ele><time>2026-04-18T06:33:03Z</time></trkpt><trkpt lat="45.713549510009365" lon="11.331415951929085"><ele>216.0</ele><time>2026-04-18T06:33:04Z</time></trkpt><trkpt lat="45.713579726759086" lon="11.331127770312683"><ele>216.0</ele><time>2026-04-18T06:33:05Z</time></trkpt><trkpt lat="45.713609935074956" lon="11.330844172363859"><ele>217.66666666666669</ele><time>2026-04-18T06:33:06Z</time></trkpt><trkpt lat="45.71362980030018" lon="11.330536618247024"><ele>219.33333333333334</ele><time>2026-04-18T06:33:07Z</time></trkpt><trkpt lat="45.713632036280394" lon="11.330213731086335"><ele>221.0</ele><time>2026-04-18T06:33:08Z</time></trkpt><trkpt lat="45.71362362279637" lon="11.32987680498085"><ele>221.0</ele><time>2026-04-18T06:33:09Z</time></trkpt><trkpt lat="45.71361175348563" lon="11.329526755420352"><ele>221.0</ele><time>2026-04-18T06:33:10Z</time></trkpt><trkpt lat="45.71360545791571" lon="11.329182997790767"><ele>221.5</ele><time>2026-04-18T06:33:11Z</time></trkpt><trkpt lat="45.71361003329557" lon="11.328851058370617"><ele>222.0</ele><time>2026-04-18T06:33:12Z</time></trkpt><trkpt lat="45.71362530545958" lon="11.328512498997569"><ele>222.0</ele><time>2026-04-18T06:33:13Z</time></trkpt><trkpt lat="45.71365165845698" lon="11.32816497363543"><ele>222.0</ele><time>2026-04-18T06:33:14Z</time></trkpt><trkpt lat="45.71368015783253" lon="11.327806708086015"><ele>221.5</ele><time>2026-04-18T06:33:15Z</time></trkpt><trkpt lat="45.713710737728015" lon="11.327444403717594"><ele>221.0</ele><time>2026-04-18T06:33:16Z</time></trkpt><trkpt lat="45.7137434100933" lon="11.327076097864797"><ele>221.0</ele><time>2026-04-18T06:33:17Z</time></trkpt><trkpt lat="45.71377168127319" lon="11.326720243762002"><ele>221.0</ele><time>2026-04-18T06:33:18Z</time></trkpt><trkpt lat="45.713795039194444" lon="11.326360659695748"><ele>222.0</ele><time>2026-04-18T06:33:19Z</time></trkpt><trkpt lat="45.71380811833452" lon="11.325998981121533"><ele>223.0</ele><time>2026-04-18T06:33:20Z</time></trkpt><trkpt lat="45.713806103172196" lon="11.325637832714214"><ele>224.0</ele><time>2026-04-18T06:33:21Z</time></trkpt><trkpt lat="45.71379363775939" lon="11.325270726149636"><ele>225.0</ele><time>2026-04-18T06:33:22Z</time></trkpt><trkpt lat="45.713784656468924" lon="11.324900917341203"><ele>225.5</ele><time>2026-04-18T06:33:23Z</time></trkpt><trkpt lat="45.713782942548825" lon="11.32453019648987"><ele>226.0</ele><time>2026-04-18T06:33:24Z</time></trkpt><trkpt lat="45.71377943535501" lon="11.32415755119578"><ele>227.0</ele><time>2026-04-18T06:33:25Z</time></trkpt><trkpt lat="45.713775588643124" lon="11.323784978151416"><ele>228.0</ele><time>2026-04-18T06:33:26Z</time></trkpt><trkpt lat="45.713770484418944" lon="11.323415270151362"><ele>227.0</ele><time>2026-04-18T06:33:27Z</time></trkpt><trkpt lat="45.713759635137635" lon="11.32304471856916"><ele>226.0</ele><time>2026-04-18T06:33:28Z</time></trkpt><trkpt lat="45.71374568331075" lon="11.322684937058083"><ele>226.0</ele><time>2026-04-18T06:33:29Z</time></trkpt><trkpt lat="45.71372509403357" lon="11.322332584398522"><ele>226.0</ele><time>2026-04-18T06:33:30Z</time></trkpt><trkpt lat="45.71370268411653" lon="11.3219961974554"><ele>226.5</ele><time>2026-04-18T06:33:31Z</time></trkpt><trkpt lat="45.71368179807755" lon="11.321666923740173"><ele>227.0</ele><time>2026-04-18T06:33:32Z</time></trkpt><trkpt lat="45.71366324437579" lon="11.32134732021977"><ele>227.0</ele><time>2026-04-18T06:33:33Z</time></trkpt><trkpt lat="45.713651274274156" lon="11.3210339295239"><ele>227.0</ele><time>2026-04-18T06:33:34Z</time></trkpt><trkpt lat="45.71364715947612" lon="11.320719280458036"><ele>227.0</ele><time>2026-04-18T06:33:35Z</time></trkpt><trkpt lat="45.713654562824416" lon="11.320397754777778"><ele>227.5</ele><time>2026-04-18T06:33:36Z</time></trkpt><trkpt lat="45.7136762806817" lon="11.320070662736535"><ele>228.0</ele><time>2026-04-18T06:33:37Z</time></trkpt><trkpt lat="45.71371493614864" lon="11.319751769894708"><ele>229.66666666666669</ele><time>2026-04-18T06:33:38Z</time></trkpt><trkpt lat="45.71376329155738" lon="11.319453177195038"><ele>231.33333333333334</ele><time>2026-04-18T06:33:39Z</time></trkpt><trkpt lat="45.713813893061285" lon="11.31917026156989"><ele>233.0</ele><time>2026-04-18T06:33:40Z</time></trkpt><trkpt lat="45.713845147651455" lon="11.3189007677488"><ele>234.0</ele><time>2026-04-18T06:33:41Z</time></trkpt><trkpt lat="45.71385374253071" lon="11.31861814844804"><ele>235.0</ele><time>2026-04-18T06:33:42Z</time></trkpt><trkpt lat="45.71383718879042" lon="11.318327664229145"><ele>236.0</ele><time>2026-04-18T06:33:43Z</time></trkpt><trkpt lat="45.71384618950952" lon="11.318035038168821"><ele>237.5</ele><time>2026-04-18T06:33:44Z</time></trkpt><trkpt lat="45.7137361886862" lon="11.317732843763226"><ele>239.0</ele><time>2026-04-18T06:33:45Z</time></trkpt><trkpt lat="45.71366459266732" lon="11.31742463230789"><ele>239.0</ele><time>2026-04-18T06:33:46Z</time></trkpt><trkpt lat="45.713596803646645" lon="11.317110439560224"><ele>239.0</ele><time>2026-04-18T06:33:47Z</time></trkpt><trkpt lat="45.71354613025053" lon="11.316797424046047"><ele>236.66666666666669</ele><time>2026-04-18T06:33:48Z</time></trkpt><trkpt lat="45.7135209546962" lon="11.316491452520642"><ele>234.33333333333331</ele><time>2026-04-18T06:33:49Z</time></trkpt><trkpt lat="45.71352145667372" lon="11.316181626738988"><ele>232.0</ele><time>2026-04-18T06:33:50Z</time></trkpt><trkpt lat="45.71353705896621" lon="11.315861955825637"><ele>233.5</ele><time>2026-04-18T06:33:51Z</time></trkpt><trkpt lat="45.713573778584596" lon="11.315541072204534"><ele>235.0</ele><time>2026-04-18T06:33:52Z</time></trkpt><trkpt lat="45.7136429977346" lon="11.315227414040585"><ele>235.0</ele><time>2026-04-18T06:33:53Z</time></trkpt><trkpt lat="45.713732243401594" lon="11.314907843211202"><ele>235.0</ele><time>2026-04-18T06:33:54Z</time></trkpt><trkpt lat="45.713838471626154" lon="11.314587642771937"><ele>234.0</ele><time>2026-04-18T06:33:55Z</time></trkpt><trkpt lat="45.71395642022483" lon="11.314264878561076"><ele>233.0</ele><time>2026-04-18T06:33:56Z</time></trkpt><trkpt lat="45.71405987910622" lon="11.313954298283457"><ele>233.66666666666669</ele><time>2026-04-18T06:33:57Z</time></trkpt><trkpt lat="45.714130812254155" lon="11.313679044762361"><ele>234.33333333333331</ele><time>2026-04-18T06:33:58Z</time></trkpt><trkpt lat="45.71417912563745" lon="11.31344282365293"><ele>235.0</ele><time>2026-04-18T06:33:59Z</time></trkpt><trkpt lat="45.714229493024774" lon="11.31322429333195"><ele>237.0</ele><time>2026-04-18T06:34:00Z</time></trkpt><trkpt lat="45.7142713706236" lon="11.313036531991742"><ele>239.0</ele><time>2026-04-18T06:34:01Z</time></trkpt><trkpt lat="45.71430654569941" lon="11.312883137852902"><ele>241.0</ele><time>2026-04-18T06:34:02Z</time></trkpt><trkpt lat="45.71433675678019" lon="11.312760779831711"><ele>243.0</ele><time>2026-04-18T06:34:03Z</time></trkpt><trkpt lat="45.714360535785076" lon="11.312656742034706"><ele>245.0</ele><time>2026-04-18T06:34:04Z</time></trkpt><trkpt lat="45.714381837277486" lon="11.312568850554205"><ele>243.83333333333334</ele><time>2026-04-18T06:34:05Z</time></trkpt><trkpt lat="45.71441484674193" lon="11.312436030180633"><ele>242.66666666666669</ele><time>2026-04-18T06:34:07Z</time></trkpt><trkpt lat="45.71444609488705" lon="11.31234131414919"><ele>241.5</ele><time>2026-04-18T06:34:09Z</time></trkpt><trkpt lat="45.714470804764424" lon="11.31224459872869"><ele>240.33333333333331</ele><time>2026-04-18T06:34:12Z</time></trkpt><trkpt lat="45.714493195508894" lon="11.312150805686862"><ele>239.16666666666666</ele><time>2026-04-18T06:34:19Z</time></trkpt><trkpt lat="45.71450615313558" lon="11.312049301746868"><ele>238.0</ele><time>2026-04-18T06:34:24Z</time></trkpt><trkpt lat="45.7145251509186" lon="11.311954109650182"><ele>237.8</ele><time>2026-04-18T06:34:25Z</time></trkpt><trkpt lat="45.71456141773371" lon="11.311787903979749"><ele>237.60000000000002</ele><time>2026-04-18T06:34:27Z</time></trkpt><trkpt lat="45.71459376438911" lon="11.311666627090402"><ele>237.39999999999998</ele><time>2026-04-18T06:34:28Z</time></trkpt><trkpt lat="45.714627347585626" lon="11.311521995912868"><ele>237.2</ele><time>2026-04-18T06:34:29Z</time></trkpt><trkpt lat="45.714662559132954" lon="11.311352673971069"><ele>237.0</ele><time>2026-04-18T06:34:30Z</time></trkpt><trkpt lat="45.71469385881829" lon="11.311199508903565"><ele>237.5</ele><time>2026-04-18T06:34:31Z</time></trkpt><trkpt lat="45.71472781635077" lon="11.311045099985307"><ele>238.0</ele><time>2026-04-18T06:34:32Z</time></trkpt><trkpt lat="45.71476741957615" lon="11.310874070465376"><ele>238.5</ele><time>2026-04-18T06:34:33Z</time></trkpt><trkpt lat="45.71481569960748" lon="11.310683822531598"><ele>239.0</ele><time>2026-04-18T06:34:34Z</time></trkpt><trkpt lat="45.714868846068256" lon="11.310476026219101"><ele>239.66666666666669</ele><time>2026-04-18T06:34:35Z</time></trkpt><trkpt lat="45.714938467479385" lon="11.310252429803528"><ele>240.33333333333331</ele><time>2026-04-18T06:34:36Z</time></trkpt><trkpt lat="45.71502720547084" lon="11.310025829603113"><ele>241.0</ele><time>2026-04-18T06:34:37Z</time></trkpt><trkpt lat="45.71512968263988" lon="11.309829432532613"><ele>241.66666666666666</ele><time>2026-04-18T06:34:38Z</time></trkpt><trkpt lat="45.71525586191584" lon="11.309651204138145"><ele>242.33333333333331</ele><time>2026-04-18T06:34:39Z</time></trkpt><trkpt lat="45.715404247362876" lon="11.30948850250725"><ele>243.0</ele><time>2026-04-18T06:34:40Z</time></trkpt><trkpt lat="45.71556506868815" lon="11.30931965776156"><ele>243.0</ele><time>2026-04-18T06:34:41Z</time></trkpt><trkpt lat="45.715725774530256" lon="11.309139090202592"><ele>243.0</ele><time>2026-04-18T06:34:42Z</time></trkpt><trkpt lat="45.71589125215145" lon="11.308940782686156"><ele>243.0</ele><time>2026-04-18T06:34:43Z</time></trkpt><trkpt lat="45.71605887365891" lon="11.308721914750683"><ele>244.0</ele><time>2026-04-18T06:34:44Z</time></trkpt><trkpt lat="45.716235912882894" lon="11.308481616827173"><ele>245.0</ele><time>2026-04-18T06:34:45Z</time></trkpt><trkpt lat="45.71641531987899" lon="11.308231931774388"><ele>245.5</ele><time>2026-04-18T06:34:46Z</time></trkpt><trkpt lat="45.71659287164508" lon="11.307987985155263"><ele>246.0</ele><time>2026-04-18T06:34:47Z</time></trkpt><trkpt lat="45.71675646899069" lon="11.307751516617325"><ele>246.0</ele><time>2026-04-18T06:34:48Z</time></trkpt><trkpt lat="45.71690172990902" lon="11.307516657749009"><ele>246.0</ele><time>2026-04-18T06:34:49Z</time></trkpt><trkpt lat="45.71702582048335" lon="11.30728395234081"><ele>246.0</ele><time>2026-04-18T06:34:50Z</time></trkpt><trkpt lat="45.71713155444604" lon="11.307051000328052"><ele>246.0</ele><time>2026-04-18T06:34:51Z</time></trkpt><trkpt lat="45.717239222581185" lon="11.306833183076915"><ele>246.0</ele><time>2026-04-18T06:34:52Z</time></trkpt><trkpt lat="45.71736113034043" lon="11.30663973344089"><ele>246.0</ele><time>2026-04-18T06:34:53Z</time></trkpt><trkpt lat="45.71749266418587" lon="11.306463974844615"><ele>247.0</ele><time>2026-04-18T06:34:54Z</time></trkpt><trkpt lat="45.7176445860439" lon="11.306301759707907"><ele>248.0</ele><time>2026-04-18T06:34:55Z</time></trkpt><trkpt lat="45.71781037506674" lon="11.306158354564806"><ele>249.0</ele><time>2026-04-18T06:34:56Z</time></trkpt><trkpt lat="45.71797752998526" lon="11.306022920544484"><ele>250.66666666666669</ele><time>2026-04-18T06:34:57Z</time></trkpt><trkpt lat="45.71812735241113" lon="11.305859219880276"><ele>252.33333333333334</ele><time>2026-04-18T06:34:58Z</time></trkpt><trkpt lat="45.71824839108459" lon="11.30565353840586"><ele>254.0</ele><time>2026-04-18T06:34:59Z</time></trkpt><trkpt lat="45.71834414419569" lon="11.305425932484342"><ele>254.33333333333334</ele><time>2026-04-18T06:35:00Z</time></trkpt><trkpt lat="45.718407456027435" lon="11.30516662612347"><ele>254.66666666666669</ele><time>2026-04-18T06:35:01Z</time></trkpt><trkpt lat="45.71846024713443" lon="11.30488816887325"><ele>255.0</ele><time>2026-04-18T06:35:02Z</time></trkpt><trkpt lat="45.71851789579423" lon="11.304586513631207"><ele>261.5</ele><time>2026-04-18T06:35:03Z</time></trkpt><trkpt lat="45.718591922197824" lon="11.30427223194096"><ele>268.0</ele><time>2026-04-18T06:35:04Z</time></trkpt><trkpt lat="45.71868110986302" lon="11.303944640290478"><ele>268.0</ele><time>2026-04-18T06:35:05Z</time></trkpt><trkpt lat="45.71876915767833" lon="11.303624500021893"><ele>268.0</ele><time>2026-04-18T06:35:06Z</time></trkpt><trkpt lat="45.7188460775954" lon="11.303319458668996"><ele>268.66666666666663</ele><time>2026-04-18T06:35:07Z</time></trkpt><trkpt lat="45.71891572713487" lon="11.303035692426125"><ele>269.3333333333333</ele><time>2026-04-18T06:35:08Z</time></trkpt><trkpt lat="45.71898241725514" lon="11.302769775626247"><ele>270.0</ele><time>2026-04-18T06:35:09Z</time></trkpt><trkpt lat="45.71904209953784" lon="11.302534138557547"><ele>270.0</ele><time>2026-04-18T06:35:10Z</time></trkpt><trkpt lat="45.71910282531364" lon="11.302323835788393"><ele>270.0</ele><time>2026-04-18T06:35:11Z</time></trkpt><trkpt lat="45.719164575156476" lon="11.302134051224424"><ele>270.0</ele><time>2026-04-18T06:35:12Z</time></trkpt><trkpt lat="45.71921820638382" lon="11.301955784121962"><ele>270.0</ele><time>2026-04-18T06:35:13Z</time></trkpt><trkpt lat="45.71924001549941" lon="11.301776433550678"><ele>270.25</ele><time>2026-04-18T06:35:14Z</time></trkpt><trkpt lat="45.71924259389831" lon="11.30158395501853"><ele>270.5</ele><time>2026-04-18T06:35:15Z</time></trkpt><trkpt lat="45.719236382729584" lon="11.301406831796358"><ele>270.75</ele><time>2026-04-18T06:35:16Z</time></trkpt><trkpt lat="45.71922863710927" lon="11.301230527352649"><ele>271.0</ele><time>2026-04-18T06:35:17Z</time></trkpt><trkpt lat="45.71920980138834" lon="11.301044988501522"><ele>271.0</ele><time>2026-04-18T06:35:18Z</time></trkpt><trkpt lat="45.719175406208706" lon="11.300848113706552"><ele>271.0</ele><time>2026-04-18T06:35:19Z</time></trkpt><trkpt lat="45.71912869884296" lon="11.300634581456809"><ele>271.0</ele><time>2026-04-18T06:35:20Z</time></trkpt><trkpt lat="45.71911302123576" lon="11.300386959370915"><ele>271.66666666666663</ele><time>2026-04-18T06:35:21Z</time></trkpt><trkpt lat="45.719092724193956" lon="11.30011865300855"><ele>272.3333333333333</ele><time>2026-04-18T06:35:22Z</time></trkpt><trkpt lat="45.719076437481206" lon="11.299840665694889"><ele>273.0</ele><time>2026-04-18T06:35:23Z</time></trkpt><trkpt lat="45.71908213376845" lon="11.2995507743969"><ele>274.6666666666667</ele><time>2026-04-18T06:35:24Z</time></trkpt><trkpt lat="45.71907796706612" lon="11.299254642204328"><ele>276.33333333333337</ele><time>2026-04-18T06:35:25Z</time></trkpt><trkpt lat="45.71906301342762" lon="11.29896521745019"><ele>278.0</ele><time>2026-04-18T06:35:26Z</time></trkpt><trkpt lat="45.719038332944265" lon="11.298684995412557"><ele>278.33333333333337</ele><time>2026-04-18T06:35:27Z</time></trkpt><trkpt lat="45.719004046710495" lon="11.298418227944465"><ele>278.6666666666667</ele><time>2026-04-18T06:35:28Z</time></trkpt><trkpt lat="45.718974491582266" lon="11.298165152205357"><ele>279.0</ele><time>2026-04-18T06:35:29Z</time></trkpt><trkpt lat="45.718955418439094" lon="11.297922374114524"><ele>281.3333333333333</ele><time>2026-04-18T06:35:30Z</time></trkpt><trkpt lat="45.718953012590134" lon="11.297683625120953"><ele>283.66666666666663</ele><time>2026-04-18T06:35:31Z</time></trkpt><trkpt lat="45.718975969326195" lon="11.297463415239315"><ele>286.0</ele><time>2026-04-18T06:35:32Z</time></trkpt><trkpt lat="45.7189814401224" lon="11.297248188136802"><ele>286.0</ele><time>2026-04-18T06:35:33Z</time></trkpt><trkpt lat="45.71894832083765" lon="11.297022818494728"><ele>286.0</ele><time>2026-04-18T06:35:34Z</time></trkpt><trkpt lat="45.71889665992531" lon="11.296783188210672"><ele>286.0</ele><time>2026-04-18T06:35:35Z</time></trkpt><trkpt lat="45.71884188637333" lon="11.296531102459614"><ele>286.3333333333333</ele><time>2026-04-18T06:35:36Z</time></trkpt><trkpt lat="45.71878687157937" lon="11.296273870557023"><ele>286.6666666666667</ele><time>2026-04-18T06:35:37Z</time></trkpt><trkpt lat="45.7187349077741" lon="11.296031671202142"><ele>287.0</ele><time>2026-04-18T06:35:38Z</time></trkpt><trkpt lat="45.718684517996735" lon="11.295796023729691"><ele>288.6666666666667</ele><time>2026-04-18T06:35:39Z</time></trkpt><trkpt lat="45.7186548550036" lon="11.29555217386116"><ele>290.3333333333333</ele><time>2026-04-18T06:35:40Z</time></trkpt><trkpt lat="45.71864914961854" lon="11.295309341058447"><ele>292.0</ele><time>2026-04-18T06:35:41Z</time></trkpt><trkpt lat="45.718654693325874" lon="11.295047715564094"><ele>292.0</ele><time>2026-04-18T06:35:42Z</time></trkpt><trkpt lat="45.71866313692769" lon="11.294780191620337"><ele>292.0</ele><time>2026-04-18T06:35:43Z</time></trkpt><trkpt lat="45.718671911625826" lon="11.294504351527742"><ele>292.0</ele><time>2026-04-18T06:35:44Z</time></trkpt><trkpt lat="45.71867930088204" lon="11.294218389674054"><ele>289.0</ele><time>2026-04-18T06:35:45Z</time></trkpt><trkpt lat="45.71870296708929" lon="11.293919071827542"><ele>286.0</ele><time>2026-04-18T06:35:46Z</time></trkpt><trkpt lat="45.718717023438984" lon="11.293608800418513"><ele>283.0</ele><time>2026-04-18T06:35:47Z</time></trkpt><trkpt lat="45.718717956841516" lon="11.293294701891012"><ele>281.66666666666663</ele><time>2026-04-18T06:35:48Z</time></trkpt><trkpt lat="45.718735097092996" lon="11.292990468698"><ele>280.3333333333333</ele><time>2026-04-18T06:35:49Z</time></trkpt><trkpt lat="45.71874721610456" lon="11.292699565352013"><ele>279.0</ele><time>2026-04-18T06:35:50Z</time></trkpt><trkpt lat="45.71875874185489" lon="11.292408293266863"><ele>278.0</ele><time>2026-04-18T06:35:51Z</time></trkpt><trkpt lat="45.7187826450912" lon="11.292123911570854"><ele>277.0</ele><time>2026-04-18T06:35:52Z</time></trkpt><trkpt lat="45.718819442708146" lon="11.291842842846522"><ele>276.0</ele><time>2026-04-18T06:35:53Z</time></trkpt><trkpt lat="45.71886541255504" lon="11.291557911573946"><ele>274.6666666666667</ele><time>2026-04-18T06:35:54Z</time></trkpt><trkpt lat="45.71892159349587" lon="11.29128084778602"><ele>273.33333333333337</ele><time>2026-04-18T06:35:55Z</time></trkpt><trkpt lat="45.718994942307795" lon="11.291028952344558"><ele>272.0</ele><time>2026-04-18T06:35:56Z</time></trkpt><trkpt lat="45.71909625244647" lon="11.290815858593177"><ele>272.0</ele><time>2026-04-18T06:35:57Z</time></trkpt><trkpt lat="45.7192215637645" lon="11.290623140562449"><ele>272.0</ele><time>2026-04-18T06:35:58Z</time></trkpt><trkpt lat="45.71936107849067" lon="11.290436608414689"><ele>272.0</ele><time>2026-04-18T06:35:59Z</time></trkpt><trkpt lat="45.7195097463926" lon="11.290250509358998"><ele>272.6666666666667</ele><time>2026-04-18T06:36:00Z</time></trkpt><trkpt lat="45.71965681197263" lon="11.290061967070784"><ele>273.3333333333333</ele><time>2026-04-18T06:36:01Z</time></trkpt><trkpt lat="45.71980596994714" lon="11.289870927779726"><ele>274.0</ele><time>2026-04-18T06:36:02Z</time></trkpt><trkpt lat="45.71994790160431" lon="11.289680658504667"><ele>274.0</ele><time>2026-04-18T06:36:03Z</time></trkpt><trkpt lat="45.720087383212785" lon="11.28949484464605"><ele>274.0</ele><time>2026-04-18T06:36:04Z</time></trkpt><trkpt lat="45.72022500632721" lon="11.289315392922747"><ele>274.0</ele><time>2026-04-18T06:36:05Z</time></trkpt><trkpt lat="45.720362693740185" lon="11.289141944853776"><ele>275.0</ele><time>2026-04-18T06:36:06Z</time></trkpt><trkpt lat="45.720491578705015" lon="11.288973845487963"><ele>276.0</ele><time>2026-04-18T06:36:07Z</time></trkpt><trkpt lat="45.720612883254866" lon="11.28880197708865"><ele>277.0</ele><time>2026-04-18T06:36:08Z</time></trkpt><trkpt lat="45.72072505426407" lon="11.288617634173091"><ele>277.0</ele><time>2026-04-18T06:36:09Z</time></trkpt><trkpt lat="45.72082629066618" lon="11.288421142397876"><ele>277.0</ele><time>2026-04-18T06:36:10Z</time></trkpt><trkpt lat="45.72091877763046" lon="11.288217284797083"><ele>277.0</ele><time>2026-04-18T06:36:11Z</time></trkpt><trkpt lat="45.721003455609306" lon="11.288012979488498"><ele>281.25</ele><time>2026-04-18T06:36:12Z</time></trkpt><trkpt lat="45.72107970737718" lon="11.28781924728797"><ele>285.5</ele><time>2026-04-18T06:36:13Z</time></trkpt><trkpt lat="45.72115734399017" lon="11.287642457048872"><ele>289.75</ele><time>2026-04-18T06:36:14Z</time></trkpt><trkpt lat="45.721225702258515" lon="11.287489191924106"><ele>294.0</ele><time>2026-04-18T06:36:15Z</time></trkpt><trkpt lat="45.721291911306814" lon="11.287339665773233"><ele>292.0</ele><time>2026-04-18T06:36:16Z</time></trkpt><trkpt lat="45.72135638996738" lon="11.287193686975819"><ele>290.0</ele><time>2026-04-18T06:36:17Z</time></trkpt><trkpt lat="45.72142045153346" lon="11.287041457215151"><ele>288.0</ele><time>2026-04-18T06:36:18Z</time></trkpt><trkpt lat="45.72149097347281" lon="11.286875389933487"><ele>286.0</ele><time>2026-04-18T06:36:19Z</time></trkpt><trkpt lat="45.72156815500115" lon="11.286694746558595"><ele>286.0</ele><time>2026-04-18T06:36:20Z</time></trkpt><trkpt lat="45.72164994115817" lon="11.286504746645345"><ele>286.0</ele><time>2026-04-18T06:36:21Z</time></trkpt><trkpt lat="45.721733638573625" lon="11.286307756144565"><ele>286.0</ele><time>2026-04-18T06:36:22Z</time></trkpt><trkpt lat="45.7218123476759" lon="11.286112120212424"><ele>285.75</ele><time>2026-04-18T06:36:23Z</time></trkpt><trkpt lat="45.72187843420537" lon="11.28592038784936"><ele>285.5</ele><time>2026-04-18T06:36:24Z</time></trkpt><trkpt lat="45.7219302010669" lon="11.285738418686922"><ele>285.25</ele><time>2026-04-18T06:36:25Z</time></trkpt><trkpt lat="45.72197282240049" lon="11.285555370112212"><ele>285.0</ele><time>2026-04-18T06:36:26Z</time></trkpt><trkpt lat="45.722007586464386" lon="11.285365109661235"><ele>292.25</ele><time>2026-04-18T06:36:27Z</time></trkpt><trkpt lat="45.722035214730546" lon="11.2851677693775"><ele>299.5</ele><time>2026-04-18T06:36:28Z</time></trkpt><trkpt lat="45.72205527568113" lon="11.284971446717993"><ele>306.75</ele><time>2026-04-18T06:36:29Z</time></trkpt><trkpt lat="45.72207977095968" lon="11.284778455826084"><ele>314.0</ele><time>2026-04-18T06:36:30Z</time></trkpt><trkpt lat="45.722110138950896" lon="11.284597121616859"><ele>314.0</ele><time>2026-04-18T06:36:31Z</time></trkpt><trkpt lat="45.72214627955395" lon="11.284416436405943"><ele>314.0</ele><time>2026-04-18T06:36:32Z</time></trkpt><trkpt lat="45.72218031160121" lon="11.284229247068359"><ele>314.0</ele><time>2026-04-18T06:36:33Z</time></trkpt><trkpt lat="45.72222243513291" lon="11.28404258911911"><ele>314.0</ele><time>2026-04-18T06:36:34Z</time></trkpt><trkpt lat="45.72227112410814" lon="11.283872533899428"><ele>311.4</ele><time>2026-04-18T06:36:35Z</time></trkpt><trkpt lat="45.72232062049011" lon="11.283712726928208"><ele>308.79999999999995</ele><time>2026-04-18T06:36:36Z</time></trkpt><trkpt lat="45.722387050382586" lon="11.283582785133511"><ele>306.20000000000005</ele><time>2026-04-18T06:36:37Z</time></trkpt><trkpt lat="45.722434897090515" lon="11.283439284917074"><ele>303.6</ele><time>2026-04-18T06:36:38Z</time></trkpt><trkpt lat="45.72247569450835" lon="11.283303015218895"><ele>301.0</ele><time>2026-04-18T06:36:39Z</time></trkpt><trkpt lat="45.722519998632386" lon="11.2831787650476"><ele>301.16666666666663</ele><time>2026-04-18T06:36:40Z</time></trkpt><trkpt lat="45.722568813881324" lon="11.283071891742885"><ele>301.3333333333333</ele><time>2026-04-18T06:36:41Z</time></trkpt><trkpt lat="45.72262571620574" lon="11.282977705650465"><ele>301.5</ele><time>2026-04-18T06:36:42Z</time></trkpt><trkpt lat="45.72268406117737" lon="11.282896058457748"><ele>301.6666666666667</ele><time>2026-04-18T06:36:43Z</time></trkpt><trkpt lat="45.72274225209039" lon="11.2828266572035"><ele>301.83333333333337</ele><time>2026-04-18T06:36:44Z</time></trkpt><trkpt lat="45.722807562144105" lon="11.282759462317799"><ele>302.0</ele><time>2026-04-18T06:36:45Z</time></trkpt><trkpt lat="45.722872727690785" lon="11.282686429105864"><ele>302.00000000000006</ele><time>2026-04-18T06:36:46Z</time></trkpt><trkpt lat="45.72293635756792" lon="11.282621371068233"><ele>302.0</ele><time>2026-04-18T06:36:47Z</time></trkpt><trkpt lat="45.72299362180811" lon="11.282566886212312"><ele>302.0</ele><time>2026-04-18T06:36:48Z</time></trkpt><trkpt lat="45.7230505009897" lon="11.2825117547128"><ele>302.0</ele><time>2026-04-18T06:36:49Z</time></trkpt><trkpt lat="45.723103893354576" lon="11.282456626717275"><ele>302.0</ele><time>2026-04-18T06:36:50Z</time></trkpt><trkpt lat="45.72314692159884" lon="11.282383614842182"><ele>302.00000000000006</ele><time>2026-04-18T06:36:51Z</time></trkpt><trkpt lat="45.72317856240616" lon="11.282284897455161"><ele>302.0</ele><time>2026-04-18T06:36:52Z</time></trkpt><trkpt lat="45.72319531030049" lon="11.282168455450211"><ele>299.6666666666667</ele><time>2026-04-18T06:36:53Z</time></trkpt><trkpt lat="45.72319640551173" lon="11.282049529114998"><ele>297.33333333333337</ele><time>2026-04-18T06:36:54Z</time></trkpt><trkpt lat="45.72320320216469" lon="11.28194060770005"><ele>295.0</ele><time>2026-04-18T06:36:55Z</time></trkpt><trkpt lat="45.723227485633224" lon="11.281836672642482"><ele>292.6666666666667</ele><time>2026-04-18T06:36:56Z</time></trkpt><trkpt lat="45.72327135729261" lon="11.281725635467975"><ele>290.3333333333333</ele><time>2026-04-18T06:36:57Z</time></trkpt><trkpt lat="45.723337152217255" lon="11.281617535904708"><ele>288.0</ele><time>2026-04-18T06:36:58Z</time></trkpt><trkpt lat="45.72342198553589" lon="11.281518053160234"><ele>288.0</ele><time>2026-04-18T06:36:59Z</time></trkpt><trkpt lat="45.723538175232356" lon="11.281446829228958"><ele>288.0</ele><time>2026-04-18T06:37:00Z</time></trkpt><trkpt lat="45.72367909625607" lon="11.281360754396495"><ele>288.0</ele><time>2026-04-18T06:37:01Z</time></trkpt><trkpt lat="45.72382536231314" lon="11.281271414765872"><ele>288.0</ele><time>2026-04-18T06:37:02Z</time></trkpt><trkpt lat="45.72397593652596" lon="11.28117632058843"><ele>288.3333333333333</ele><time>2026-04-18T06:37:03Z</time></trkpt><trkpt lat="45.724147515965385" lon="11.281067679570604"><ele>288.66666666666663</ele><time>2026-04-18T06:37:04Z</time></trkpt><trkpt lat="45.724331817141874" lon="11.280950781240376"><ele>289.0</ele><time>2026-04-18T06:37:05Z</time></trkpt><trkpt lat="45.72452421233041" lon="11.280822477048925"><ele>289.0</ele><time>2026-04-18T06:37:06Z</time></trkpt><trkpt lat="45.72471140932155" lon="11.280692963488804"><ele>289.0</ele><time>2026-04-18T06:37:07Z</time></trkpt><trkpt lat="45.72489630165929" lon="11.280557155960928"><ele>289.0</ele><time>2026-04-18T06:37:08Z</time></trkpt><trkpt lat="45.7250733287559" lon="11.280414706678702"><ele>291.0</ele><time>2026-04-18T06:37:09Z</time></trkpt><trkpt lat="45.725268921332095" lon="11.280310492766588"><ele>293.0</ele><time>2026-04-18T06:37:10Z</time></trkpt><trkpt lat="45.725470480998716" lon="11.280218102110126"><ele>295.0</ele><time>2026-04-18T06:37:11Z</time></trkpt><trkpt lat="45.72567373135" lon="11.280157661172012"><ele>295.0</ele><time>2026-04-18T06:37:12Z</time></trkpt><trkpt lat="45.72586479347316" lon="11.280070517654057"><ele>295.0</ele><time>2026-04-18T06:37:13Z</time></trkpt><trkpt lat="45.726061517080964" lon="11.280021310573328"><ele>295.0</ele><time>2026-04-18T06:37:14Z</time></trkpt><trkpt lat="45.72626068939744" lon="11.279986620590481"><ele>295.3333333333333</ele><time>2026-04-18T06:37:15Z</time></trkpt><trkpt lat="45.72646074380579" lon="11.27996471121365"><ele>295.6666666666667</ele><time>2026-04-18T06:37:16Z</time></trkpt><trkpt lat="45.72666362663772" lon="11.279948630262597"><ele>296.0</ele><time>2026-04-18T06:37:17Z</time></trkpt><trkpt lat="45.72685349190007" lon="11.279935836304354"><ele>296.6666666666667</ele><time>2026-04-18T06:37:18Z</time></trkpt><trkpt lat="45.72702646018779" lon="11.279915372241893"><ele>297.3333333333333</ele><time>2026-04-18T06:37:19Z</time></trkpt><trkpt lat="45.72718428755553" lon="11.279878886288733"><ele>298.0</ele><time>2026-04-18T06:37:20Z</time></trkpt><trkpt lat="45.72731562769183" lon="11.279826161945417"><ele>300.0</ele><time>2026-04-18T06:37:21Z</time></trkpt><trkpt lat="45.72742773990211" lon="11.279722841331036"><ele>302.0</ele><time>2026-04-18T06:37:22Z</time></trkpt><trkpt lat="45.72753154988862" lon="11.279560590660468"><ele>304.0</ele><time>2026-04-18T06:37:23Z</time></trkpt><trkpt lat="45.72763666372294" lon="11.27937172689934"><ele>303.5</ele><time>2026-04-18T06:37:24Z</time></trkpt><trkpt lat="45.7277597757284" lon="11.279215649023525"><ele>303.0</ele><time>2026-04-18T06:37:25Z</time></trkpt><trkpt lat="45.72785623882355" lon="11.27907521106486"><ele>302.5</ele><time>2026-04-18T06:37:26Z</time></trkpt><trkpt lat="45.72796378233114" lon="11.278993404987943"><ele>302.0</ele><time>2026-04-18T06:37:27Z</time></trkpt><trkpt lat="45.728072624807226" lon="11.278953042477777"><ele>302.0</ele><time>2026-04-18T06:37:28Z</time></trkpt><trkpt lat="45.728171131906514" lon="11.278983312950338"><ele>302.0</ele><time>2026-04-18T06:37:29Z</time></trkpt><trkpt lat="45.72826042175308" lon="11.279071955535537"><ele>302.0</ele><time>2026-04-18T06:37:30Z</time></trkpt><trkpt lat="45.72835461617547" lon="11.279130736072242"><ele>302.0</ele><time>2026-04-18T06:37:31Z</time></trkpt><trkpt lat="45.728468349533784" lon="11.279123897766313"><ele>302.0</ele><time>2026-04-18T06:37:32Z</time></trkpt><trkpt lat="45.72858674796026" lon="11.279067225002537"><ele>303.6666666666667</ele><time>2026-04-18T06:37:33Z</time></trkpt><trkpt lat="45.72870724339245" lon="11.278959234484505"><ele>305.3333333333333</ele><time>2026-04-18T06:37:34Z</time></trkpt><trkpt lat="45.72882150066076" lon="11.278828642134904"><ele>307.0</ele><time>2026-04-18T06:37:35Z</time></trkpt><trkpt lat="45.72895434096305" lon="11.278694429920073"><ele>307.0</ele><time>2026-04-18T06:37:36Z</time></trkpt><trkpt lat="45.72910136512326" lon="11.278558526335425"><ele>307.0</ele><time>2026-04-18T06:37:37Z</time></trkpt><trkpt lat="45.7292621125345" lon="11.278422396147281"><ele>307.0</ele><time>2026-04-18T06:37:38Z</time></trkpt><trkpt lat="45.72942150550033" lon="11.278298047803494"><ele>307.3333333333333</ele><time>2026-04-18T06:37:39Z</time></trkpt><trkpt lat="45.72958400882953" lon="11.278168471653846"><ele>307.6666666666667</ele><time>2026-04-18T06:37:40Z</time></trkpt><trkpt lat="45.72975397534846" lon="11.278030117564565"><ele>308.0</ele><time>2026-04-18T06:37:41Z</time></trkpt><trkpt lat="45.72992208270272" lon="11.277885221738629"><ele>308.0</ele><time>2026-04-18T06:37:42Z</time></trkpt><trkpt lat="45.730081464117795" lon="11.277726863503014"><ele>308.0</ele><time>2026-04-18T06:37:43Z</time></trkpt><trkpt lat="45.73022406869266" lon="11.277548483570028"><ele>308.0</ele><time>2026-04-18T06:37:44Z</time></trkpt><trkpt lat="45.73035934508302" lon="11.277359051257166"><ele>309.33333333333337</ele><time>2026-04-18T06:37:45Z</time></trkpt><trkpt lat="45.73049176223173" lon="11.277178178033063"><ele>310.6666666666667</ele><time>2026-04-18T06:37:46Z</time></trkpt><trkpt lat="45.73062187828266" lon="11.276987140610464"><ele>312.0</ele><time>2026-04-18T06:37:47Z</time></trkpt><trkpt lat="45.73074322815859" lon="11.276781217556966"><ele>312.0</ele><time>2026-04-18T06:37:48Z</time></trkpt><trkpt lat="45.73084737949044" lon="11.27658182295358"><ele>312.0</ele><time>2026-04-18T06:37:49Z</time></trkpt><trkpt lat="45.73096094138791" lon="11.276398574302112"><ele>312.0</ele><time>2026-04-18T06:37:50Z</time></trkpt><trkpt lat="45.73109891005837" lon="11.276222485829736"><ele>312.6666666666667</ele><time>2026-04-18T06:37:51Z</time></trkpt><trkpt lat="45.73124481907307" lon="11.276034366231302"><ele>313.33333333333337</ele><time>2026-04-18T06:37:52Z</time></trkpt><trkpt lat="45.73139572149752" lon="11.275839044126565"><ele>314.0</ele><time>2026-04-18T06:37:53Z</time></trkpt><trkpt lat="45.73154848264817" lon="11.27564442352457"><ele>313.6666666666667</ele><time>2026-04-18T06:37:54Z</time></trkpt><trkpt lat="45.73168629249996" lon="11.27545065766073"><ele>313.3333333333333</ele><time>2026-04-18T06:37:55Z</time></trkpt><trkpt lat="45.731798282741224" lon="11.2752569306294"><ele>313.0</ele><time>2026-04-18T06:37:56Z</time></trkpt><trkpt lat="45.73188130069919" lon="11.27504912583388"><ele>313.0</ele><time>2026-04-18T06:37:57Z</time></trkpt><trkpt lat="45.7319524392288" lon="11.27484941322936"><ele>313.0</ele><time>2026-04-18T06:37:58Z</time></trkpt><trkpt lat="45.732047299050755" lon="11.274693776479705"><ele>313.0</ele><time>2026-04-18T06:37:59Z</time></trkpt><trkpt lat="45.732172394933336" lon="11.274562196388233"><ele>313.0</ele><time>2026-04-18T06:38:00Z</time></trkpt><trkpt lat="45.732317161821314" lon="11.27443004282376"><ele>313.0</ele><time>2026-04-18T06:38:01Z</time></trkpt><trkpt lat="45.73246933624506" lon="11.27427772993491"><ele>313.0</ele><time>2026-04-18T06:38:02Z</time></trkpt><trkpt lat="45.73261260406297" lon="11.274111567132074"><ele>314.66666666666663</ele><time>2026-04-18T06:38:03Z</time></trkpt><trkpt lat="45.7327466805359" lon="11.273935553284707"><ele>316.3333333333333</ele><time>2026-04-18T06:38:04Z</time></trkpt><trkpt lat="45.732862273555305" lon="11.273730267370476"><ele>318.0</ele><time>2026-04-18T06:38:05Z</time></trkpt><trkpt lat="45.73296589239138" lon="11.273517069929527"><ele>318.0</ele><time>2026-04-18T06:38:06Z</time></trkpt><trkpt lat="45.73305403620515" lon="11.273310149223063"><ele>318.0</ele><time>2026-04-18T06:38:07Z</time></trkpt><trkpt lat="45.733123286274825" lon="11.273098123139864"><ele>318.0</ele><time>2026-04-18T06:38:08Z</time></trkpt><trkpt lat="45.733170699466434" lon="11.27288658086387"><ele>317.0</ele><time>2026-04-18T06:38:09Z</time></trkpt><trkpt lat="45.73321534814455" lon="11.272679708946237"><ele>316.0</ele><time>2026-04-18T06:38:10Z</time></trkpt><trkpt lat="45.73326742785316" lon="11.272504497953006"><ele>315.0</ele><time>2026-04-18T06:38:11Z</time></trkpt><trkpt lat="45.73333267705352" lon="11.272369519987764"><ele>314.0</ele><time>2026-04-18T06:38:12Z</time></trkpt><trkpt lat="45.73342462307088" lon="11.272253295144893"><ele>312.33333333333337</ele><time>2026-04-18T06:38:13Z</time></trkpt><trkpt lat="45.733542854594766" lon="11.27214124159519"><ele>310.6666666666667</ele><time>2026-04-18T06:38:14Z</time></trkpt><trkpt lat="45.73367178319138" lon="11.272016172190707"><ele>309.0</ele><time>2026-04-18T06:38:15Z</time></trkpt><trkpt lat="45.733800164622494" lon="11.271868252025733"><ele>312.0</ele><time>2026-04-18T06:38:16Z</time></trkpt><trkpt lat="45.733928376965956" lon="11.271723379009215"><ele>315.0</ele><time>2026-04-18T06:38:17Z</time></trkpt><trkpt lat="45.734058982044125" lon="11.271579033608363"><ele>318.0</ele><time>2026-04-18T06:38:18Z</time></trkpt><trkpt lat="45.7341892713149" lon="11.271440235282395"><ele>318.0</ele><time>2026-04-18T06:38:19Z</time></trkpt><trkpt lat="45.734316777613174" lon="11.271306155055495"><ele>318.0</ele><time>2026-04-18T06:38:20Z</time></trkpt><trkpt lat="45.734438459516895" lon="11.271177143902603"><ele>318.0</ele><time>2026-04-18T06:38:21Z</time></trkpt><trkpt lat="45.73455781237443" lon="11.27106228246625"><ele>319.25</ele><time>2026-04-18T06:38:22Z</time></trkpt><trkpt lat="45.734671780192215" lon="11.270950465848314"><ele>320.5</ele><time>2026-04-18T06:38:23Z</time></trkpt><trkpt lat="45.734772430674646" lon="11.270829213347334"><ele>321.75</ele><time>2026-04-18T06:38:24Z</time></trkpt><trkpt lat="45.73487582674414" lon="11.270723459435489"><ele>323.0</ele><time>2026-04-18T06:38:25Z</time></trkpt><trkpt lat="45.73492546989382" lon="11.270528269955514"><ele>323.0</ele><time>2026-04-18T06:38:26Z</time></trkpt><trkpt lat="45.735006131780565" lon="11.27035360071639"><ele>323.0</ele><time>2026-04-18T06:38:27Z</time></trkpt><trkpt lat="45.73511265865135" lon="11.270186054356955"><ele>323.0</ele><time>2026-04-18T06:38:28Z</time></trkpt><trkpt lat="45.735232810781575" lon="11.270017376062205"><ele>326.6666666666667</ele><time>2026-04-18T06:38:29Z</time></trkpt><trkpt lat="45.73536482547861" lon="11.26985044955079"><ele>330.3333333333333</ele><time>2026-04-18T06:38:30Z</time></trkpt><trkpt lat="45.73549985521382" lon="11.26966767008187"><ele>334.0</ele><time>2026-04-18T06:38:31Z</time></trkpt><trkpt lat="45.7356444257972" lon="11.26949579478751"><ele>334.0</ele><time>2026-04-18T06:38:32Z</time></trkpt><trkpt lat="45.735778283548505" lon="11.269307635427403"><ele>334.0</ele><time>2026-04-18T06:38:33Z</time></trkpt><trkpt lat="45.73592149746149" lon="11.26913900873375"><ele>334.0</ele><time>2026-04-18T06:38:34Z</time></trkpt><trkpt lat="45.73604383731064" lon="11.26894314062448"><ele>336.3333333333333</ele><time>2026-04-18T06:38:35Z</time></trkpt><trkpt lat="45.736155219786184" lon="11.268726577550279"><ele>338.6666666666667</ele><time>2026-04-18T06:38:36Z</time></trkpt><trkpt lat="45.73625896574668" lon="11.268516838088395"><ele>341.0</ele><time>2026-04-18T06:38:37Z</time></trkpt><trkpt lat="45.73635415716957" lon="11.268323459123875"><ele>341.0</ele><time>2026-04-18T06:38:38Z</time></trkpt><trkpt lat="45.73643448130039" lon="11.268147965797302"><ele>341.0</ele><time>2026-04-18T06:38:39Z</time></trkpt><trkpt lat="45.7365226190628" lon="11.267994478548923"><ele>341.0</ele><time>2026-04-18T06:38:40Z</time></trkpt><trkpt lat="45.73663657286543" lon="11.267870272465508"><ele>341.0</ele><time>2026-04-18T06:38:41Z</time></trkpt><trkpt lat="45.736759240928166" lon="11.26775580444179"><ele>340.0</ele><time>2026-04-18T06:38:42Z</time></trkpt><trkpt lat="45.736868774402346" lon="11.267613453086225"><ele>339.0</ele><time>2026-04-18T06:38:43Z</time></trkpt><trkpt lat="45.73697116962009" lon="11.267451096138826"><ele>338.0</ele><time>2026-04-18T06:38:44Z</time></trkpt><trkpt lat="45.73706711891674" lon="11.267269302312462"><ele>340.0</ele><time>2026-04-18T06:38:45Z</time></trkpt><trkpt lat="45.73716328456364" lon="11.26707591513002"><ele>342.0</ele><time>2026-04-18T06:38:46Z</time></trkpt><trkpt lat="45.73726908572574" lon="11.266877241231931"><ele>344.0</ele><time>2026-04-18T06:38:47Z</time></trkpt><trkpt lat="45.737379023300846" lon="11.266680308761387"><ele>344.0</ele><time>2026-04-18T06:38:48Z</time></trkpt><trkpt lat="45.737484407792394" lon="11.266487887618872"><ele>344.0</ele><time>2026-04-18T06:38:49Z</time></trkpt><trkpt lat="45.73757784590993" lon="11.26630064541037"><ele>344.0</ele><time>2026-04-18T06:38:50Z</time></trkpt><trkpt lat="45.73767216041146" lon="11.2661276510694"><ele>343.6666666666667</ele><time>2026-04-18T06:38:51Z</time></trkpt><trkpt lat="45.73778082361446" lon="11.265980031615861"><ele>343.3333333333333</ele><time>2026-04-18T06:38:52Z</time></trkpt><trkpt lat="45.73791087635825" lon="11.265862705706164"><ele>343.0</ele><time>2026-04-18T06:38:53Z</time></trkpt><trkpt lat="45.738052713703915" lon="11.265790873925607"><ele>343.0</ele><time>2026-04-18T06:38:54Z</time></trkpt><trkpt lat="45.73819647752138" lon="11.265759771697432"><ele>343.0</ele><time>2026-04-18T06:38:55Z</time></trkpt><trkpt lat="45.73834665540139" lon="11.265767314151397"><ele>343.0</ele><time>2026-04-18T06:38:56Z</time></trkpt><trkpt lat="45.73849617420108" lon="11.26578532812079"><ele>343.0</ele><time>2026-04-18T06:38:57Z</time></trkpt><trkpt lat="45.73863279771392" lon="11.26576148324307"><ele>343.0</ele><time>2026-04-18T06:38:58Z</time></trkpt><trkpt lat="45.738765832084674" lon="11.265676473077109"><ele>343.0</ele><time>2026-04-18T06:38:59Z</time></trkpt><trkpt lat="45.738893198390585" lon="11.265547297989649"><ele>343.0</ele><time>2026-04-18T06:39:00Z</time></trkpt><trkpt lat="45.739018935628685" lon="11.265401898535528"><ele>343.0</ele><time>2026-04-18T06:39:01Z</time></trkpt><trkpt lat="45.73913635139221" lon="11.265273218747948"><ele>343.0</ele><time>2026-04-18T06:39:02Z</time></trkpt><trkpt lat="45.73923230031468" lon="11.2651221660038"><ele>343.0</ele><time>2026-04-18T06:39:03Z</time></trkpt><trkpt lat="45.73928976074423" lon="11.264939254264158"><ele>343.0</ele><time>2026-04-18T06:39:04Z</time></trkpt><trkpt lat="45.73932109677927" lon="11.26473112879444"><ele>341.66666666666663</ele><time>2026-04-18T06:39:05Z</time></trkpt><trkpt lat="45.73935147661656" lon="11.264507254591946"><ele>340.3333333333333</ele><time>2026-04-18T06:39:06Z</time></trkpt><trkpt lat="45.73939214410579" lon="11.264275581414383"><ele>339.0</ele><time>2026-04-18T06:39:07Z</time></trkpt><trkpt lat="45.73944360327547" lon="11.2640337526567"><ele>339.0</ele><time>2026-04-18T06:39:08Z</time></trkpt><trkpt lat="45.73949531131489" lon="11.263788945912776"><ele>339.0</ele><time>2026-04-18T06:39:09Z</time></trkpt><trkpt lat="45.73955173899373" lon="11.263546312464822"><ele>339.0</ele><time>2026-04-18T06:39:10Z</time></trkpt><trkpt lat="45.73962444157259" lon="11.263326550766164"><ele>340.0</ele><time>2026-04-18T06:39:11Z</time></trkpt><trkpt lat="45.73971408480222" lon="11.26310723893263"><ele>341.0</ele><time>2026-04-18T06:39:12Z</time></trkpt><trkpt lat="45.739804351820574" lon="11.262886381692155"><ele>342.0</ele><time>2026-04-18T06:39:13Z</time></trkpt><trkpt lat="45.739887333365694" lon="11.262660660466267"><ele>342.0</ele><time>2026-04-18T06:39:14Z</time></trkpt><trkpt lat="45.73996138848233" lon="11.26243482206921"><ele>342.0</ele><time>2026-04-18T06:39:15Z</time></trkpt><trkpt lat="45.74003395892461" lon="11.262211003369213"><ele>342.0</ele><time>2026-04-18T06:39:16Z</time></trkpt><trkpt lat="45.74010992887958" lon="11.261988853314508"><ele>342.0</ele><time>2026-04-18T06:39:17Z</time></trkpt><trkpt lat="45.740187344692934" lon="11.261774561276878"><ele>342.0</ele><time>2026-04-18T06:39:18Z</time></trkpt><trkpt lat="45.740271563543054" lon="11.261564698215846"><ele>342.0</ele><time>2026-04-18T06:39:19Z</time></trkpt><trkpt lat="45.74036150161507" lon="11.261356965649622"><ele>343.3333333333333</ele><time>2026-04-18T06:39:20Z</time></trkpt><trkpt lat="45.74045874796678" lon="11.261157995020849"><ele>344.66666666666663</ele><time>2026-04-18T06:39:21Z</time></trkpt><trkpt lat="45.74056343958901" lon="11.260971817853346"><ele>346.0</ele><time>2026-04-18T06:39:22Z</time></trkpt><trkpt lat="45.740662858189914" lon="11.260791125878796"><ele>348.25</ele><time>2026-04-18T06:39:23Z</time></trkpt><trkpt lat="45.740753627997336" lon="11.260607350245678"><ele>350.5</ele><time>2026-04-18T06:39:24Z</time></trkpt><trkpt lat="45.740838487411835" lon="11.260433934719728"><ele>352.75</ele><time>2026-04-18T06:39:25Z</time></trkpt><trkpt lat="45.740931468649194" lon="11.260281186771083"><ele>355.0</ele><time>2026-04-18T06:39:26Z</time></trkpt><trkpt lat="45.74104203842082" lon="11.260143789446111"><ele>353.3333333333333</ele><time>2026-04-18T06:39:27Z</time></trkpt><trkpt lat="45.74117356116981" lon="11.260025885737916"><ele>351.6666666666667</ele><time>2026-04-18T06:39:28Z</time></trkpt><trkpt lat="45.74132153941856" lon="11.259922493351244"><ele>350.0</ele><time>2026-04-18T06:39:29Z</time></trkpt><trkpt lat="45.74147157735092" lon="11.259823573477622"><ele>353.33333333333337</ele><time>2026-04-18T06:39:30Z</time></trkpt><trkpt lat="45.74162765482502" lon="11.259726140739065"><ele>356.6666666666667</ele><time>2026-04-18T06:39:31Z</time></trkpt><trkpt lat="45.74178828465804" lon="11.259617924224626"><ele>360.0</ele><time>2026-04-18T06:39:32Z</time></trkpt><trkpt lat="45.74195605034323" lon="11.2595041269727"><ele>360.0</ele><time>2026-04-18T06:39:33Z</time></trkpt><trkpt lat="45.74212846169074" lon="11.259384982878688"><ele>360.0</ele><time>2026-04-18T06:39:34Z</time></trkpt><trkpt lat="45.74230328549492" lon="11.259271814761176"><ele>360.0</ele><time>2026-04-18T06:39:35Z</time></trkpt><trkpt lat="45.742473590678145" lon="11.259160802441933"><ele>360.0</ele><time>2026-04-18T06:39:36Z</time></trkpt><trkpt lat="45.74262700172399" lon="11.259051211141605"><ele>360.0</ele><time>2026-04-18T06:39:37Z</time></trkpt><trkpt lat="45.74275610115209" lon="11.258917557272934"><ele>360.0</ele><time>2026-04-18T06:39:38Z</time></trkpt><trkpt lat="45.74285242298013" lon="11.258746097691345"><ele>361.0</ele><time>2026-04-18T06:39:39Z</time></trkpt><trkpt lat="45.742928271790575" lon="11.258539239175832"><ele>362.0</ele><time>2026-04-18T06:39:40Z</time></trkpt><trkpt lat="45.74299563889772" lon="11.258311586352258"><ele>363.0</ele><time>2026-04-18T06:39:41Z</time></trkpt><trkpt lat="45.743069148096" lon="11.25807579240917"><ele>363.0</ele><time>2026-04-18T06:39:42Z</time></trkpt><trkpt lat="45.743146997559926" lon="11.257833967615559"><ele>363.0</ele><time>2026-04-18T06:39:43Z</time></trkpt><trkpt lat="45.74322704295815" lon="11.257585836962951"><ele>363.0</ele><time>2026-04-18T06:39:44Z</time></trkpt><trkpt lat="45.743305488422095" lon="11.257325987763677"><ele>366.3333333333333</ele><time>2026-04-18T06:39:45Z</time></trkpt><trkpt lat="45.74338006664136" lon="11.257057499222016"><ele>369.66666666666663</ele><time>2026-04-18T06:39:46Z</time></trkpt><trkpt lat="45.743439107247596" lon="11.256794185865369"><ele>373.0</ele><time>2026-04-18T06:39:47Z</time></trkpt><trkpt lat="45.743492003578496" lon="11.256553219288953"><ele>371.75</ele><time>2026-04-18T06:39:48Z</time></trkpt><trkpt lat="45.74355544868279" lon="11.256349366673426"><ele>370.5</ele><time>2026-04-18T06:39:49Z</time></trkpt><trkpt lat="45.743620918387215" lon="11.256172222993753"><ele>369.25</ele><time>2026-04-18T06:39:50Z</time></trkpt><trkpt lat="45.74365630832709" lon="11.255994944716596"><ele>368.0</ele><time>2026-04-18T06:39:51Z</time></trkpt><trkpt lat="45.74365729360573" lon="11.255800816671552"><ele>368.33333333333337</ele><time>2026-04-18T06:39:52Z</time></trkpt><trkpt lat="45.743621144449136" lon="11.255589752804715"><ele>368.6666666666667</ele><time>2026-04-18T06:39:53Z</time></trkpt><trkpt lat="45.74357384772314" lon="11.255363925383513"><ele>369.0</ele><time>2026-04-18T06:39:54Z</time></trkpt><trkpt lat="45.74350927019107" lon="11.255123271762614"><ele>373.6666666666667</ele><time>2026-04-18T06:39:55Z</time></trkpt><trkpt lat="45.74345401447402" lon="11.254853974139067"><ele>378.33333333333337</ele><time>2026-04-18T06:39:56Z</time></trkpt><trkpt lat="45.74343392674693" lon="11.254582135652962"><ele>383.0</ele><time>2026-04-18T06:39:57Z</time></trkpt><trkpt lat="45.74341964934611" lon="11.25427222015208"><ele>383.0</ele><time>2026-04-18T06:39:58Z</time></trkpt><trkpt lat="45.74337918745617" lon="11.253962145787753"><ele>383.0</ele><time>2026-04-18T06:39:59Z</time></trkpt><trkpt lat="45.74334129284264" lon="11.253648187620998"><ele>383.0</ele><time>2026-04-18T06:40:00Z</time></trkpt><trkpt lat="45.743322926651366" lon="11.25334441922923"><ele>385.33333333333337</ele><time>2026-04-18T06:40:01Z</time></trkpt><trkpt lat="45.74332799522392" lon="11.253039927936507"><ele>387.6666666666667</ele><time>2026-04-18T06:40:02Z</time></trkpt><trkpt lat="45.74335628641731" lon="11.252723941478399"><ele>390.0</ele><time>2026-04-18T06:40:03Z</time></trkpt><trkpt lat="45.7434018268735" lon="11.252418755936937"><ele>390.0</ele><time>2026-04-18T06:40:04Z</time></trkpt><trkpt lat="45.74340105980119" lon="11.25213802982998"><ele>390.0</ele><time>2026-04-18T06:40:05Z</time></trkpt><trkpt lat="45.74343312018896" lon="11.251868937032933"><ele>390.0</ele><time>2026-04-18T06:40:06Z</time></trkpt><trkpt lat="45.743481661807216" lon="11.251625313982434"><ele>386.3333333333333</ele><time>2026-04-18T06:40:07Z</time></trkpt><trkpt lat="45.743548371860854" lon="11.251399381402736"><ele>382.66666666666663</ele><time>2026-04-18T06:40:08Z</time></trkpt><trkpt lat="45.74362911370738" lon="11.251180335643879"><ele>379.0</ele><time>2026-04-18T06:40:09Z</time></trkpt><trkpt lat="45.74370400416415" lon="11.250946190583976"><ele>379.0</ele><time>2026-04-18T06:40:10Z</time></trkpt><trkpt lat="45.74377689417577" lon="11.250699754855676"><ele>379.0</ele><time>2026-04-18T06:40:11Z</time></trkpt><trkpt lat="45.74385590830884" lon="11.250455844435962"><ele>379.0</ele><time>2026-04-18T06:40:12Z</time></trkpt><trkpt lat="45.743920517237434" lon="11.250197177045656"><ele>381.3333333333333</ele><time>2026-04-18T06:40:13Z</time></trkpt><trkpt lat="45.74397527688461" lon="11.249920181493051"><ele>383.66666666666663</ele><time>2026-04-18T06:40:14Z</time></trkpt><trkpt lat="45.74402965011098" lon="11.249633253294522"><ele>386.0</ele><time>2026-04-18T06:40:15Z</time></trkpt><trkpt lat="45.744080779562964" lon="11.249311940822789"><ele>388.5</ele><time>2026-04-18T06:40:16Z</time></trkpt><trkpt lat="45.74413175425424" lon="11.248971700577828"><ele>391.0</ele><time>2026-04-18T06:40:17Z</time></trkpt><trkpt lat="45.74416954525159" lon="11.248654543078468"><ele>391.6666666666667</ele><time>2026-04-18T06:40:18Z</time></trkpt><trkpt lat="45.74420945222937" lon="11.248377182149563"><ele>392.33333333333337</ele><time>2026-04-18T06:40:19Z</time></trkpt><trkpt lat="45.74423329439501" lon="11.24813199749537"><ele>393.0</ele><time>2026-04-18T06:40:20Z</time></trkpt><trkpt lat="45.744225800706374" lon="11.247890191605377"><ele>394.33333333333337</ele><time>2026-04-18T06:40:21Z</time></trkpt><trkpt lat="45.744180936617575" lon="11.247644326288821"><ele>395.6666666666667</ele><time>2026-04-18T06:40:22Z</time></trkpt><trkpt lat="45.744114950938254" lon="11.247402565030704"><ele>397.0</ele><time>2026-04-18T06:40:23Z</time></trkpt><trkpt lat="45.744038449628064" lon="11.24716614831978"><ele>397.33333333333337</ele><time>2026-04-18T06:40:24Z</time></trkpt><trkpt lat="45.743975076450496" lon="11.246939692005222"><ele>397.66666666666663</ele><time>2026-04-18T06:40:25Z</time></trkpt><trkpt lat="45.74394122041625" lon="11.246714552569001"><ele>398.0</ele><time>2026-04-18T06:40:26Z</time></trkpt><trkpt lat="45.74393875027184" lon="11.24648401050087"><ele>398.66666666666663</ele><time>2026-04-18T06:40:27Z</time></trkpt><trkpt lat="45.74394954250873" lon="11.246250838967752"><ele>399.33333333333337</ele><time>2026-04-18T06:40:28Z</time></trkpt><trkpt lat="45.74394509444509" lon="11.246007516207213"><ele>400.0</ele><time>2026-04-18T06:40:29Z</time></trkpt><trkpt lat="45.743912868830506" lon="11.245748622475157"><ele>399.6666666666667</ele><time>2026-04-18T06:40:30Z</time></trkpt><trkpt lat="45.74388673230076" lon="11.245473960946441"><ele>399.33333333333337</ele><time>2026-04-18T06:40:31Z</time></trkpt><trkpt lat="45.74383766693389" lon="11.245197700333126"><ele>399.0</ele><time>2026-04-18T06:40:32Z</time></trkpt><trkpt lat="45.74384534368109" lon="11.24490487134864"><ele>399.0</ele><time>2026-04-18T06:40:33Z</time></trkpt><trkpt lat="45.74383897635726" lon="11.244627284825665"><ele>399.0</ele><time>2026-04-18T06:40:34Z</time></trkpt><trkpt lat="45.74385039680254" lon="11.24436676909826"><ele>399.0</ele><time>2026-04-18T06:40:35Z</time></trkpt><trkpt lat="45.74384547524979" lon="11.244121983376901"><ele>399.33333333333337</ele><time>2026-04-18T06:40:36Z</time></trkpt><trkpt lat="45.74384430078752" lon="11.243885939410784"><ele>399.6666666666667</ele><time>2026-04-18T06:40:37Z</time></trkpt><trkpt lat="45.7437874738755" lon="11.243680757935431"><ele>400.0</ele><time>2026-04-18T06:40:38Z</time></trkpt><trkpt lat="45.74375014575266" lon="11.243483741366752"><ele>400.0</ele><time>2026-04-18T06:40:39Z</time></trkpt><trkpt lat="45.743747559740896" lon="11.243271579812397"><ele>400.0</ele><time>2026-04-18T06:40:40Z</time></trkpt><trkpt lat="45.74376403926337" lon="11.243047794653096"><ele>400.0</ele><time>2026-04-18T06:40:41Z</time></trkpt><trkpt lat="45.74380753138105" lon="11.242814379846704"><ele>401.0</ele><time>2026-04-18T06:40:42Z</time></trkpt><trkpt lat="45.74387158464479" lon="11.242574458833287"><ele>402.0</ele><time>2026-04-18T06:40:43Z</time></trkpt><trkpt lat="45.74393648273022" lon="11.242324268719722"><ele>403.0</ele><time>2026-04-18T06:40:44Z</time></trkpt><trkpt lat="45.7439982626141" lon="11.242056605943842"><ele>404.33333333333337</ele><time>2026-04-18T06:40:45Z</time></trkpt><trkpt lat="45.74405565347598" lon="11.241774358387095"><ele>405.66666666666663</ele><time>2026-04-18T06:40:46Z</time></trkpt><trkpt lat="45.74410892484141" lon="11.241488280156124"><ele>407.0</ele><time>2026-04-18T06:40:47Z</time></trkpt><trkpt lat="45.74416158212526" lon="11.241214285434944"><ele>407.0</ele><time>2026-04-18T06:40:48Z</time></trkpt><trkpt lat="45.74421085485977" lon="11.240956185753623"><ele>407.0</ele><time>2026-04-18T06:40:49Z</time></trkpt><trkpt lat="45.744256956774265" lon="11.240712192463"><ele>407.0</ele><time>2026-04-18T06:40:50Z</time></trkpt><trkpt lat="45.7443023688892" lon="11.240486998968981"><ele>407.5</ele><time>2026-04-18T06:40:51Z</time></trkpt><trkpt lat="45.744354973945796" lon="11.240282010186702"><ele>408.0</ele><time>2026-04-18T06:40:52Z</time></trkpt><trkpt lat="45.74441203051235" lon="11.24010601981412"><ele>408.5</ele><time>2026-04-18T06:40:53Z</time></trkpt><trkpt lat="45.74448283597132" lon="11.239938363592486"><ele>409.0</ele><time>2026-04-18T06:40:54Z</time></trkpt><trkpt lat="45.744563350368125" lon="11.23978023708621"><ele>409.25</ele><time>2026-04-18T06:40:55Z</time></trkpt><trkpt lat="45.74463358431803" lon="11.239625605749014"><ele>409.5</ele><time>2026-04-18T06:40:56Z</time></trkpt><trkpt lat="45.744677403493604" lon="11.239463560103545"><ele>409.75</ele><time>2026-04-18T06:40:57Z</time></trkpt><trkpt lat="45.74470182893834" lon="11.239279840977181"><ele>410.0</ele><time>2026-04-18T06:40:58Z</time></trkpt><trkpt lat="45.74472091226062" lon="11.239076980921654"><ele>410.75</ele><time>2026-04-18T06:40:59Z</time></trkpt><trkpt lat="45.744741054471945" lon="11.238874066965936"><ele>411.5</ele><time>2026-04-18T06:41:00Z</time></trkpt><trkpt lat="45.74477649803198" lon="11.238697916651281"><ele>412.25</ele><time>2026-04-18T06:41:01Z</time></trkpt><trkpt lat="45.74484107883079" lon="11.23855790888957"><ele>413.0</ele><time>2026-04-18T06:41:02Z</time></trkpt><trkpt lat="45.7449270907608" lon="11.23843153191194"><ele>413.0</ele><time>2026-04-18T06:41:03Z</time></trkpt><trkpt lat="45.74504814210169" lon="11.238331562266772"><ele>413.0</ele><time>2026-04-18T06:41:04Z</time></trkpt><trkpt lat="45.74518581016408" lon="11.238229402447022"><ele>413.0</ele><time>2026-04-18T06:41:05Z</time></trkpt><trkpt lat="45.74532424524823" lon="11.23811750338159"><ele>416.3333333333333</ele><time>2026-04-18T06:41:06Z</time></trkpt><trkpt lat="45.74545583987486" lon="11.23798132734896"><ele>419.66666666666663</ele><time>2026-04-18T06:41:07Z</time></trkpt><trkpt lat="45.7455823021743" lon="11.237821635759278"><ele>423.0</ele><time>2026-04-18T06:41:08Z</time></trkpt><trkpt lat="45.745722234117174" lon="11.237660318152045"><ele>423.0</ele><time>2026-04-18T06:41:09Z</time></trkpt><trkpt lat="45.74588627428163" lon="11.237517948791524"><ele>423.0</ele><time>2026-04-18T06:41:10Z</time></trkpt><trkpt lat="45.746064061325384" lon="11.237388530018395"><ele>423.0</ele><time>2026-04-18T06:41:11Z</time></trkpt><trkpt lat="45.74626133657875" lon="11.237281299021724"><ele>429.0</ele><time>2026-04-18T06:41:12Z</time></trkpt><trkpt lat="45.74645575136446" lon="11.237142952878678"><ele>435.0</ele><time>2026-04-18T06:41:13Z</time></trkpt><trkpt lat="45.746638755752926" lon="11.23700580097767"><ele>441.0</ele><time>2026-04-18T06:41:14Z</time></trkpt><trkpt lat="45.746818530164674" lon="11.23690912691806"><ele>442.0</ele><time>2026-04-18T06:41:15Z</time></trkpt><trkpt lat="45.74700231451734" lon="11.236883117054191"><ele>443.0</ele><time>2026-04-18T06:41:16Z</time></trkpt><trkpt lat="45.74719191616099" lon="11.236870130464748"><ele>444.0</ele><time>2026-04-18T06:41:17Z</time></trkpt><trkpt lat="45.747386490030934" lon="11.23691255073017"><ele>444.0</ele><time>2026-04-18T06:41:18Z</time></trkpt><trkpt lat="45.747560156238144" lon="11.236944136950466"><ele>444.0</ele><time>2026-04-18T06:41:19Z</time></trkpt><trkpt lat="45.74772808016444" lon="11.236928684858615"><ele>444.0</ele><time>2026-04-18T06:41:20Z</time></trkpt><trkpt lat="45.74788805640943" lon="11.23688184189928"><ele>441.0</ele><time>2026-04-18T06:41:21Z</time></trkpt><trkpt lat="45.74802179633015" lon="11.236780788995032"><ele>438.0</ele><time>2026-04-18T06:41:22Z</time></trkpt><trkpt lat="45.7481592764323" lon="11.236658385352719"><ele>435.0</ele><time>2026-04-18T06:41:23Z</time></trkpt><trkpt lat="45.74830826102178" lon="11.236541286837127"><ele>437.33333333333337</ele><time>2026-04-18T06:41:24Z</time></trkpt><trkpt lat="45.748469882832644" lon="11.23642624220203"><ele>439.6666666666667</ele><time>2026-04-18T06:41:25Z</time></trkpt><trkpt lat="45.74863361540023" lon="11.236312654173208"><ele>442.0</ele><time>2026-04-18T06:41:26Z</time></trkpt><trkpt lat="45.74878310834737" lon="11.236181192082466"><ele>442.0</ele><time>2026-04-18T06:41:27Z</time></trkpt><trkpt lat="45.74890942253304" lon="11.236013535162082"><ele>442.0</ele><time>2026-04-18T06:41:28Z</time></trkpt><trkpt lat="45.74901616764133" lon="11.235807378727626"><ele>442.0</ele><time>2026-04-18T06:41:29Z</time></trkpt><trkpt lat="45.7491191283252" lon="11.235577169256135"><ele>443.0</ele><time>2026-04-18T06:41:30Z</time></trkpt><trkpt lat="45.74922458592998" lon="11.235330845872406"><ele>444.0</ele><time>2026-04-18T06:41:31Z</time></trkpt><trkpt lat="45.74932548677764" lon="11.235070824794377"><ele>445.0</ele><time>2026-04-18T06:41:32Z</time></trkpt><trkpt lat="45.74943286068929" lon="11.2347970314348"><ele>445.0</ele><time>2026-04-18T06:41:33Z</time></trkpt><trkpt lat="45.74953741639066" lon="11.234550713469662"><ele>445.0</ele><time>2026-04-18T06:41:34Z</time></trkpt><trkpt lat="45.74963206503778" lon="11.234358121177248"><ele>445.0</ele><time>2026-04-18T06:41:35Z</time></trkpt><trkpt lat="45.74970910535386" lon="11.23416098494126"><ele>446.6666666666667</ele><time>2026-04-18T06:41:36Z</time></trkpt><trkpt lat="45.74976418853456" lon="11.233928165149212"><ele>448.33333333333337</ele><time>2026-04-18T06:41:37Z</time></trkpt><trkpt lat="45.749799484837055" lon="11.233670966221284"><ele>450.0</ele><time>2026-04-18T06:41:38Z</time></trkpt><trkpt lat="45.749831030484536" lon="11.233391528417878"><ele>452.33333333333337</ele><time>2026-04-18T06:41:39Z</time></trkpt><trkpt lat="45.74986042860265" lon="11.233102892796989"><ele>454.6666666666667</ele><time>2026-04-18T06:41:40Z</time></trkpt><trkpt lat="45.74988558605237" lon="11.23281746702992"><ele>457.0</ele><time>2026-04-18T06:41:41Z</time></trkpt><trkpt lat="45.749918642581186" lon="11.232537627224428"><ele>459.6666666666667</ele><time>2026-04-18T06:41:42Z</time></trkpt><trkpt lat="45.749956910149905" lon="11.232275669936385"><ele>462.33333333333337</ele><time>2026-04-18T06:41:43Z</time></trkpt><trkpt lat="45.749993681363286" lon="11.232025975595565"><ele>465.0</ele><time>2026-04-18T06:41:44Z</time></trkpt><trkpt lat="45.75002036308524" lon="11.231792065698388"><ele>465.0</ele><time>2026-04-18T06:41:45Z</time></trkpt><trkpt lat="45.75004138999438" lon="11.231571531264004"><ele>465.0</ele><time>2026-04-18T06:41:46Z</time></trkpt><trkpt lat="45.75008865834704" lon="11.231349317540866"><ele>465.0</ele><time>2026-04-18T06:41:47Z</time></trkpt><trkpt lat="45.750119558451296" lon="11.23111128188064"><ele>467.0</ele><time>2026-04-18T06:41:48Z</time></trkpt><trkpt lat="45.75015588252018" lon="11.230856193540285"><ele>469.0</ele><time>2026-04-18T06:41:49Z</time></trkpt><trkpt lat="45.75020783670465" lon="11.230604179644683"><ele>471.0</ele><time>2026-04-18T06:41:50Z</time></trkpt><trkpt lat="45.750285121838026" lon="11.230356936269251"><ele>471.0</ele><time>2026-04-18T06:41:51Z</time></trkpt><trkpt lat="45.75037561756612" lon="11.230104816312178"><ele>471.0</ele><time>2026-04-18T06:41:52Z</time></trkpt><trkpt lat="45.75046661266029" lon="11.22983792100293"><ele>471.0</ele><time>2026-04-18T06:41:53Z</time></trkpt><trkpt lat="45.75055144926568" lon="11.229564620471551"><ele>473.33333333333337</ele><time>2026-04-18T06:41:54Z</time></trkpt><trkpt lat="45.75062108006345" lon="11.229297459495088"><ele>475.6666666666667</ele><time>2026-04-18T06:41:55Z</time></trkpt><trkpt lat="45.75069040592318" lon="11.229035941020404"><ele>478.0</ele><time>2026-04-18T06:41:56Z</time></trkpt><trkpt lat="45.75077342834452" lon="11.228778452131198"><ele>479.6666666666667</ele><time>2026-04-18T06:41:57Z</time></trkpt><trkpt lat="45.75086407692407" lon="11.228528775240754"><ele>481.33333333333337</ele><time>2026-04-18T06:41:58Z</time></trkpt><trkpt lat="45.75096272319066" lon="11.228280116618215"><ele>483.0</ele><time>2026-04-18T06:41:59Z</time></trkpt><trkpt lat="45.7510672722676" lon="11.228033670204123"><ele>483.0</ele><time>2026-04-18T06:42:00Z</time></trkpt><trkpt lat="45.75118688185208" lon="11.227810441411952"><ele>483.0</ele><time>2026-04-18T06:42:01Z</time></trkpt><trkpt lat="45.751329256721775" lon="11.227588249042434"><ele>483.0</ele><time>2026-04-18T06:42:02Z</time></trkpt><trkpt lat="45.75148288000801" lon="11.227362312980354"><ele>488.0</ele><time>2026-04-18T06:42:03Z</time></trkpt><trkpt lat="45.751644115259666" lon="11.227124686498446"><ele>493.0</ele><time>2026-04-18T06:42:04Z</time></trkpt><trkpt lat="45.75181333976241" lon="11.226880162537624"><ele>493.5</ele><time>2026-04-18T06:42:05Z</time></trkpt><trkpt lat="45.75198971896195" lon="11.226629548281958"><ele>494.0</ele><time>2026-04-18T06:42:06Z</time></trkpt><trkpt lat="45.752164924950264" lon="11.226376691816405"><ele>494.0</ele><time>2026-04-18T06:42:07Z</time></trkpt><trkpt lat="45.75233428239386" lon="11.22613192485619"><ele>494.0</ele><time>2026-04-18T06:42:08Z</time></trkpt><trkpt lat="45.75250000155088" lon="11.225894000777009"><ele>494.0</ele><time>2026-04-18T06:42:09Z</time></trkpt><trkpt lat="45.752667535383786" lon="11.225659035266553"><ele>494.0</ele><time>2026-04-18T06:42:10Z</time></trkpt><trkpt lat="45.752831560854716" lon="11.225430391790333"><ele>495.0</ele><time>2026-04-18T06:42:11Z</time></trkpt><trkpt lat="45.75298847083446" lon="11.225214646573324"><ele>496.0</ele><time>2026-04-18T06:42:12Z</time></trkpt><trkpt lat="45.753142049333064" lon="11.225023021426349"><ele>497.0</ele><time>2026-04-18T06:42:13Z</time></trkpt><trkpt lat="45.75328683552005" lon="11.224854713776503"><ele>500.3333333333333</ele><time>2026-04-18T06:42:14Z</time></trkpt><trkpt lat="45.753412760862524" lon="11.22469506287155"><ele>503.66666666666663</ele><time>2026-04-18T06:42:15Z</time></trkpt><trkpt lat="45.75351698332587" lon="11.224513545701523"><ele>507.0</ele><time>2026-04-18T06:42:16Z</time></trkpt><trkpt lat="45.75361091175326" lon="11.224315254865598"><ele>507.0</ele><time>2026-04-18T06:42:17Z</time></trkpt><trkpt lat="45.75369237173968" lon="11.224106550090275"><ele>507.0</ele><time>2026-04-18T06:42:18Z</time></trkpt><trkpt lat="45.7537473074971" lon="11.22387986612015"><ele>507.0</ele><time>2026-04-18T06:42:19Z</time></trkpt><trkpt lat="45.75378098588473" lon="11.223632756028126"><ele>507.66666666666663</ele><time>2026-04-18T06:42:20Z</time></trkpt><trkpt lat="45.75381431435874" lon="11.22337461453564"><ele>508.3333333333333</ele><time>2026-04-18T06:42:21Z</time></trkpt><trkpt lat="45.75386256409815" lon="11.223110069503825"><ele>509.0</ele><time>2026-04-18T06:42:22Z</time></trkpt><trkpt lat="45.75394506558213" lon="11.22285946021104"><ele>511.66666666666663</ele><time>2026-04-18T06:42:23Z</time></trkpt><trkpt lat="45.754043245572625" lon="11.222611049999665"><ele>514.3333333333334</ele><time>2026-04-18T06:42:24Z</time></trkpt><trkpt lat="45.75413243847403" lon="11.222363580915024"><ele>517.0</ele><time>2026-04-18T06:42:25Z</time></trkpt><trkpt lat="45.75421244471456" lon="11.222121345946167"><ele>519.0</ele><time>2026-04-18T06:42:26Z</time></trkpt><trkpt lat="45.754302182116355" lon="11.22189098088691"><ele>521.0</ele><time>2026-04-18T06:42:27Z</time></trkpt><trkpt lat="45.75438662317691" lon="11.221672740461942"><ele>523.0</ele><time>2026-04-18T06:42:28Z</time></trkpt><trkpt lat="45.7544729263319" lon="11.221469893903357"><ele>527.3333333333334</ele><time>2026-04-18T06:42:29Z</time></trkpt><trkpt lat="45.7545792707223" lon="11.22128903106487"><ele>531.6666666666666</ele><time>2026-04-18T06:42:30Z</time></trkpt><trkpt lat="45.75470687503242" lon="11.221126972218197"><ele>536.0</ele><time>2026-04-18T06:42:31Z</time></trkpt><trkpt lat="45.754845435414204" lon="11.220977381602808"><ele>536.0</ele><time>2026-04-18T06:42:32Z</time></trkpt><trkpt lat="45.75496502074233" lon="11.220829838056531"><ele>536.0</ele><time>2026-04-18T06:42:33Z</time></trkpt><trkpt lat="45.7550631656773" lon="11.220695916772199"><ele>536.0</ele><time>2026-04-18T06:42:34Z</time></trkpt><trkpt lat="45.755137645165156" lon="11.220551367136876"><ele>536.0</ele><time>2026-04-18T06:42:35Z</time></trkpt><trkpt lat="45.755160459964245" lon="11.220387137180833"><ele>538.25</ele><time>2026-04-18T06:42:36Z</time></trkpt><trkpt lat="45.755144386796985" lon="11.220212570264652"><ele>540.5</ele><time>2026-04-18T06:42:37Z</time></trkpt><trkpt lat="45.755105404438716" lon="11.220025902325467"><ele>542.75</ele><time>2026-04-18T06:42:38Z</time></trkpt><trkpt lat="45.75506764237837" lon="11.21982873354013"><ele>545.0</ele><time>2026-04-18T06:42:39Z</time></trkpt><trkpt lat="45.755007758150946" lon="11.219648936967689"><ele>547.6</ele><time>2026-04-18T06:42:40Z</time></trkpt><trkpt lat="45.754922401758954" lon="11.219516168081306"><ele>550.2</ele><time>2026-04-18T06:42:41Z</time></trkpt><trkpt lat="45.754839928372824" lon="11.219427522013774"><ele>552.8</ele><time>2026-04-18T06:42:42Z</time></trkpt><trkpt lat="45.75477796435059" lon="11.219346151830683"><ele>555.4</ele><time>2026-04-18T06:42:43Z</time></trkpt><trkpt lat="45.754738151039504" lon="11.219255906950734"><ele>558.0</ele><time>2026-04-18T06:42:44Z</time></trkpt><trkpt lat="45.754760928746215" lon="11.21912657284476"><ele>558.0</ele><time>2026-04-18T06:42:45Z</time></trkpt><trkpt lat="45.75482217065868" lon="11.219013321898505"><ele>558.0</ele><time>2026-04-18T06:42:46Z</time></trkpt><trkpt lat="45.75489263055402" lon="11.218886581835395"><ele>558.0</ele><time>2026-04-18T06:42:47Z</time></trkpt><trkpt lat="45.75494819857565" lon="11.218729672726123"><ele>558.0</ele><time>2026-04-18T06:42:48Z</time></trkpt><trkpt lat="45.754995197271775" lon="11.218558792423627"><ele>560.25</ele><time>2026-04-18T06:42:49Z</time></trkpt><trkpt lat="45.75504072908977" lon="11.21838792507269"><ele>562.5</ele><time>2026-04-18T06:42:50Z</time></trkpt><trkpt lat="45.755089892493764" lon="11.218226846494304"><ele>564.75</ele><time>2026-04-18T06:42:51Z</time></trkpt><trkpt lat="45.75512603813036" lon="11.218050678773604"><ele>567.0</ele><time>2026-04-18T06:42:52Z</time></trkpt><trkpt lat="45.75513675929004" lon="11.217843971967278"><ele>568.0</ele><time>2026-04-18T06:42:53Z</time></trkpt><trkpt lat="45.7551387022552" lon="11.217615042988639"><ele>569.0</ele><time>2026-04-18T06:42:54Z</time></trkpt><trkpt lat="45.75515414002952" lon="11.217367776186615"><ele>570.0</ele><time>2026-04-18T06:42:55Z</time></trkpt><trkpt lat="45.75515682215941" lon="11.217125561862199"><ele>571.6666666666666</ele><time>2026-04-18T06:42:56Z</time></trkpt><trkpt lat="45.75516292058489" lon="11.216881006754262"><ele>573.3333333333333</ele><time>2026-04-18T06:42:57Z</time></trkpt><trkpt lat="45.75515993088066" lon="11.216640988038538"><ele>575.0</ele><time>2026-04-18T06:42:58Z</time></trkpt><trkpt lat="45.755159022650474" lon="11.216396057121187"><ele>576.0</ele><time>2026-04-18T06:42:59Z</time></trkpt><trkpt lat="45.755169115327405" lon="11.216146756032737"><ele>577.0</ele><time>2026-04-18T06:43:00Z</time></trkpt><trkpt lat="45.755199887881716" lon="11.215891250962521"><ele>578.0</ele><time>2026-04-18T06:43:01Z</time></trkpt><trkpt lat="45.75525604586083" lon="11.215620642432008"><ele>578.0</ele><time>2026-04-18T06:43:02Z</time></trkpt><trkpt lat="45.75532374263899" lon="11.21534750263748"><ele>578.0</ele><time>2026-04-18T06:43:03Z</time></trkpt><trkpt lat="45.75538900577821" lon="11.215093047470322"><ele>578.0</ele><time>2026-04-18T06:43:04Z</time></trkpt><trkpt lat="45.755446087698225" lon="11.214875065312185"><ele>581.5</ele><time>2026-04-18T06:43:05Z</time></trkpt><trkpt lat="45.75549760868237" lon="11.214702108170757"><ele>585.0</ele><time>2026-04-18T06:43:06Z</time></trkpt><trkpt lat="45.75553370983986" lon="11.214569471186755"><ele>588.5</ele><time>2026-04-18T06:43:07Z</time></trkpt><trkpt lat="45.755478929839974" lon="11.214439055616884"><ele>592.0</ele><time>2026-04-18T06:43:09Z</time></trkpt><trkpt lat="45.75535061305811" lon="11.214543724163118"><ele>592.0</ele><time>2026-04-18T06:43:11Z</time></trkpt><trkpt lat="45.75528671722883" lon="11.214670841971582"><ele>592.0</ele><time>2026-04-18T06:43:12Z</time></trkpt><trkpt lat="45.755204640524646" lon="11.214829526612839"><ele>592.0</ele><time>2026-04-18T06:43:13Z</time></trkpt><trkpt lat="45.75510633319747" lon="11.215006508499929"><ele>592.0</ele><time>2026-04-18T06:43:14Z</time></trkpt><trkpt lat="45.75500859701446" lon="11.215184339389927"><ele>592.3333333333334</ele><time>2026-04-18T06:43:15Z</time></trkpt><trkpt lat="45.754912745123725" lon="11.21539982709663"><ele>592.6666666666666</ele><time>2026-04-18T06:43:16Z</time></trkpt><trkpt lat="45.754817301190855" lon="11.215649827613001"><ele>593.0</ele><time>2026-04-18T06:43:17Z</time></trkpt><trkpt lat="45.75473368663426" lon="11.215923678950698"><ele>590.75</ele><time>2026-04-18T06:43:18Z</time></trkpt><trkpt lat="45.75465605933043" lon="11.216151658223525"><ele>588.5</ele><time>2026-04-18T06:43:19Z</time></trkpt><trkpt lat="45.75458933105039" lon="11.216320253900284"><ele>586.25</ele><time>2026-04-18T06:43:20Z</time></trkpt><trkpt lat="45.75453958832691" lon="11.21646124120831"><ele>584.0</ele><time>2026-04-18T06:43:21Z</time></trkpt><trkpt lat="45.754487222038684" lon="11.216568006676262"><ele>584.0</ele><time>2026-04-18T06:43:22Z</time></trkpt><trkpt lat="45.754394000058674" lon="11.21656039732403"><ele>584.0</ele><time>2026-04-18T06:43:24Z</time></trkpt><trkpt lat="45.75439847782306" lon="11.216357386978528"><ele>584.0</ele><time>2026-04-18T06:43:26Z</time></trkpt><trkpt lat="45.75442188546726" lon="11.21621648071239"><ele>584.0</ele><time>2026-04-18T06:43:27Z</time></trkpt><trkpt lat="45.754434183856866" lon="11.216042855274146"><ele>584.0</ele><time>2026-04-18T06:43:28Z</time></trkpt><trkpt lat="45.75445907353974" lon="11.215840492356708"><ele>584.0</ele><time>2026-04-18T06:43:29Z</time></trkpt><trkpt lat="45.75448116405972" lon="11.215597729810685"><ele>584.0</ele><time>2026-04-18T06:43:30Z</time></trkpt><trkpt lat="45.75450870934215" lon="11.215316227551313"><ele>587.0</ele><time>2026-04-18T06:43:31Z</time></trkpt><trkpt lat="45.754549174154256" lon="11.21505048211814"><ele>590.0</ele><time>2026-04-18T06:43:32Z</time></trkpt><trkpt lat="45.75458236243853" lon="11.21477065134092"><ele>593.0</ele><time>2026-04-18T06:43:33Z</time></trkpt><trkpt lat="45.754606960487536" lon="11.214500765713554"><ele>598.3333333333333</ele><time>2026-04-18T06:43:34Z</time></trkpt><trkpt lat="45.75467096588411" lon="11.214251499864375"><ele>603.6666666666666</ele><time>2026-04-18T06:43:35Z</time></trkpt><trkpt lat="45.75475739432606" lon="11.214035506566237"><ele>609.0</ele><time>2026-04-18T06:43:36Z</time></trkpt><trkpt lat="45.75486031461358" lon="11.213842613137187"><ele>614.3333333333334</ele><time>2026-04-18T06:43:37Z</time></trkpt><trkpt lat="45.754983945284245" lon="11.213681373019924"><ele>619.6666666666667</ele><time>2026-04-18T06:43:38Z</time></trkpt><trkpt lat="45.755146910288516" lon="11.21358086093553"><ele>625.0</ele><time>2026-04-18T06:43:39Z</time></trkpt><trkpt lat="45.755303060421156" lon="11.213453109660694"><ele>625.0</ele><time>2026-04-18T06:43:40Z</time></trkpt><trkpt lat="45.75545525703356" lon="11.213335632758303"><ele>625.0</ele><time>2026-04-18T06:43:41Z</time></trkpt><trkpt lat="45.755564337803996" lon="11.213175134362134"><ele>625.0</ele><time>2026-04-18T06:43:42Z</time></trkpt><trkpt lat="45.755682933154134" lon="11.21298476803788"><ele>628.3333333333334</ele><time>2026-04-18T06:43:43Z</time></trkpt><trkpt lat="45.75583028683915" lon="11.212832783896408"><ele>631.6666666666666</ele><time>2026-04-18T06:43:44Z</time></trkpt><trkpt lat="45.75598124773852" lon="11.212693882632527"><ele>635.0</ele><time>2026-04-18T06:43:45Z</time></trkpt><trkpt lat="45.756158062515134" lon="11.21259424397212"><ele>635.0</ele><time>2026-04-18T06:43:46Z</time></trkpt><trkpt lat="45.756281254173444" lon="11.212436590299646"><ele>635.0</ele><time>2026-04-18T06:43:47Z</time></trkpt><trkpt lat="45.75641738206671" lon="11.212304316614308"><ele>635.0</ele><time>2026-04-18T06:43:48Z</time></trkpt><trkpt lat="45.756523427714114" lon="11.21213718876234"><ele>640.5</ele><time>2026-04-18T06:43:49Z</time></trkpt><trkpt lat="45.75659942234938" lon="11.211994217140425"><ele>646.0</ele><time>2026-04-18T06:43:50Z</time></trkpt><trkpt lat="45.75671553669312" lon="11.21187986102763"><ele>651.5</ele><time>2026-04-18T06:43:51Z</time></trkpt><trkpt lat="45.75687183786577" lon="11.211804442825132"><ele>657.0</ele><time>2026-04-18T06:43:52Z</time></trkpt><trkpt lat="45.75704162312393" lon="11.211736372880193"><ele>657.0</ele><time>2026-04-18T06:43:53Z</time></trkpt><trkpt lat="45.757227037230386" lon="11.211662034353832"><ele>657.0</ele><time>2026-04-18T06:43:54Z</time></trkpt><trkpt lat="45.75740060353231" lon="11.211580838064359"><ele>657.0</ele><time>2026-04-18T06:43:55Z</time></trkpt><trkpt lat="45.75757876961717" lon="11.211478965601492"><ele>662.3333333333334</ele><time>2026-04-18T06:43:56Z</time></trkpt><trkpt lat="45.757755064852624" lon="11.211353747982464"><ele>667.6666666666667</ele><time>2026-04-18T06:43:57Z</time></trkpt><trkpt lat="45.75792662726431" lon="11.21123509974593"><ele>673.0</ele><time>2026-04-18T06:43:58Z</time></trkpt><trkpt lat="45.75804757783078" lon="11.211077408350096"><ele>673.0</ele><time>2026-04-18T06:43:59Z</time></trkpt><trkpt lat="45.75817935341411" lon="11.210983006827743"><ele>673.0</ele><time>2026-04-18T06:44:00Z</time></trkpt><trkpt lat="45.75830886376386" lon="11.210954192857614"><ele>673.0</ele><time>2026-04-18T06:44:01Z</time></trkpt><trkpt lat="45.75842592987349" lon="11.210931958180156"><ele>673.0</ele><time>2026-04-18T06:44:02Z</time></trkpt><trkpt lat="45.75852494783069" lon="11.210853857576906"><ele>669.25</ele><time>2026-04-18T06:44:03Z</time></trkpt><trkpt lat="45.75862211738097" lon="11.210725215520808"><ele>665.5</ele><time>2026-04-18T06:44:04Z</time></trkpt><trkpt lat="45.75870664937504" lon="11.210584289443341"><ele>661.75</ele><time>2026-04-18T06:44:05Z</time></trkpt><trkpt lat="45.758774374775285" lon="11.21045993514615"><ele>658.0</ele><time>2026-04-18T06:44:06Z</time></trkpt><trkpt lat="45.758793976622606" lon="11.2103152601952"><ele>658.0</ele><time>2026-04-18T06:44:07Z</time></trkpt><trkpt lat="45.75877697145989" lon="11.210147102242178"><ele>658.0</ele><time>2026-04-18T06:44:08Z</time></trkpt><trkpt lat="45.75879742138633" lon="11.209949460981441"><ele>658.0</ele><time>2026-04-18T06:44:09Z</time></trkpt><trkpt lat="45.75881676664638" lon="11.209731289646339"><ele>658.0</ele><time>2026-04-18T06:44:10Z</time></trkpt><trkpt lat="45.75882084066962" lon="11.209497458994957"><ele>662.6666666666667</ele><time>2026-04-18T06:44:11Z</time></trkpt><trkpt lat="45.75881862936921" lon="11.209248923926848"><ele>667.3333333333334</ele><time>2026-04-18T06:44:12Z</time></trkpt><trkpt lat="45.75883647012033" lon="11.209009156227728"><ele>672.0</ele><time>2026-04-18T06:44:13Z</time></trkpt><trkpt lat="45.75886750327064" lon="11.208795105935216"><ele>676.6666666666666</ele><time>2026-04-18T06:44:14Z</time></trkpt><trkpt lat="45.75891260516907" lon="11.208598536207603"><ele>681.3333333333333</ele><time>2026-04-18T06:44:15Z</time></trkpt><trkpt lat="45.75899431909476" lon="11.208428472982959"><ele>686.0</ele><time>2026-04-18T06:44:16Z</time></trkpt><trkpt lat="45.7591078394159" lon="11.208259345274895"><ele>690.0</ele><time>2026-04-18T06:44:17Z</time></trkpt><trkpt lat="45.75922027780931" lon="11.208070139641917"><ele>694.0</ele><time>2026-04-18T06:44:18Z</time></trkpt><trkpt lat="45.75931678738298" lon="11.207854743965985"><ele>698.0</ele><time>2026-04-18T06:44:19Z</time></trkpt><trkpt lat="45.759400995474245" lon="11.207623055521173"><ele>696.0</ele><time>2026-04-18T06:44:20Z</time></trkpt><trkpt lat="45.759470682501274" lon="11.207375004489212"><ele>694.0</ele><time>2026-04-18T06:44:21Z</time></trkpt><trkpt lat="45.759517435369546" lon="11.207124235749614"><ele>692.0</ele><time>2026-04-18T06:44:22Z</time></trkpt><trkpt lat="45.759566205877285" lon="11.206888995877028"><ele>692.0</ele><time>2026-04-18T06:44:23Z</time></trkpt><trkpt lat="45.75961841608362" lon="11.206696602700898"><ele>692.0</ele><time>2026-04-18T06:44:24Z</time></trkpt><trkpt lat="45.75964619043866" lon="11.206545859310893"><ele>692.0</ele><time>2026-04-18T06:44:25Z</time></trkpt><trkpt lat="45.75964500225364" lon="11.206389663981215"><ele>692.0</ele><time>2026-04-18T06:44:26Z</time></trkpt><trkpt lat="45.75960288249237" lon="11.206225407319545"><ele>695.0</ele><time>2026-04-18T06:44:27Z</time></trkpt><trkpt lat="45.75953019498977" lon="11.206051486928084"><ele>698.0</ele><time>2026-04-18T06:44:28Z</time></trkpt><trkpt lat="45.75948993463226" lon="11.205850367729719"><ele>701.0</ele><time>2026-04-18T06:44:29Z</time></trkpt><trkpt lat="45.75945694619841" lon="11.20567014441222"><ele>704.0</ele><time>2026-04-18T06:44:30Z</time></trkpt><trkpt lat="45.759509051155824" lon="11.205523049234465"><ele>707.25</ele><time>2026-04-18T06:44:31Z</time></trkpt><trkpt lat="45.75956262887831" lon="11.205355002546057"><ele>710.5</ele><time>2026-04-18T06:44:32Z</time></trkpt><trkpt lat="45.75965144354813" lon="11.205196785161622"><ele>713.75</ele><time>2026-04-18T06:44:33Z</time></trkpt><trkpt lat="45.759754575243804" lon="11.205052819609127"><ele>717.0</ele><time>2026-04-18T06:44:34Z</time></trkpt><trkpt lat="45.75985516417032" lon="11.20493006956058"><ele>717.0</ele><time>2026-04-18T06:44:35Z</time></trkpt><trkpt lat="45.75994609777677" lon="11.204843916638932"><ele>717.0</ele><time>2026-04-18T06:44:36Z</time></trkpt><trkpt lat="45.76000497671754" lon="11.204763106278742"><ele>717.0</ele><time>2026-04-18T06:44:37Z</time></trkpt><trkpt lat="45.76002504177509" lon="11.204663317366286"><ele>717.0</ele><time>2026-04-18T06:44:38Z</time></trkpt><trkpt lat="45.75995786164271" lon="11.204512760222896"><ele>717.0</ele><time>2026-04-18T06:44:40Z</time></trkpt><trkpt lat="45.75987283090779" lon="11.204568294583478"><ele>717.0</ele><time>2026-04-18T06:44:41Z</time></trkpt><trkpt lat="45.75979293637129" lon="11.204657244580627"><ele>717.0</ele><time>2026-04-18T06:44:42Z</time></trkpt><trkpt lat="45.75970640180691" lon="11.204761705238052"><ele>717.0</ele><time>2026-04-18T06:44:43Z</time></trkpt><trkpt lat="45.75960279062841" lon="11.204882265567752"><ele>717.0</ele><time>2026-04-18T06:44:44Z</time></trkpt><trkpt lat="45.759479031072665" lon="11.205017809129668"><ele>723.6666666666666</ele><time>2026-04-18T06:44:45Z</time></trkpt><trkpt lat="45.759347302380846" lon="11.20517866137449"><ele>730.3333333333333</ele><time>2026-04-18T06:44:46Z</time></trkpt><trkpt lat="45.75921420959224" lon="11.20533668619498"><ele>737.0</ele><time>2026-04-18T06:44:47Z</time></trkpt><trkpt lat="45.75907149706886" lon="11.205504123108607"><ele>730.6666666666666</ele><time>2026-04-18T06:44:48Z</time></trkpt><trkpt lat="45.7589235415458" lon="11.205684482643015"><ele>724.3333333333334</ele><time>2026-04-18T06:44:49Z</time></trkpt><trkpt lat="45.75876865295153" lon="11.205878083211468"><ele>718.0</ele><time>2026-04-18T06:44:50Z</time></trkpt><trkpt lat="45.75861362628023" lon="11.206067090582488"><ele>721.25</ele><time>2026-04-18T06:44:51Z</time></trkpt><trkpt lat="45.75847023267873" lon="11.206228568294682"><ele>724.5</ele><time>2026-04-18T06:44:52Z</time></trkpt><trkpt lat="45.758355649579684" lon="11.20635818095626"><ele>727.75</ele><time>2026-04-18T06:44:53Z</time></trkpt><trkpt lat="45.758271422681226" lon="11.20647312472089"><ele>731.0</ele><time>2026-04-18T06:44:54Z</time></trkpt><trkpt lat="45.75821083773282" lon="11.206560793577149"><ele>731.0</ele><time>2026-04-18T06:44:55Z</time></trkpt><trkpt lat="45.758146055454304" lon="11.206582283400879"><ele>731.0</ele><time>2026-04-18T06:44:56Z</time></trkpt><trkpt lat="45.75810379751269" lon="11.206447097141057"><ele>731.0</ele><time>2026-04-18T06:44:58Z</time></trkpt><trkpt lat="45.758201354543914" lon="11.206302453828826"><ele>731.0</ele><time>2026-04-18T06:45:00Z</time></trkpt><trkpt lat="45.758288548397935" lon="11.206208413434057"><ele>731.0</ele><time>2026-04-18T06:45:01Z</time></trkpt><trkpt lat="45.75838622479665" lon="11.206068642740552"><ele>733.0</ele><time>2026-04-18T06:45:02Z</time></trkpt><trkpt lat="45.758479643708704" lon="11.205893172401247"><ele>735.0</ele><time>2026-04-18T06:45:03Z</time></trkpt><trkpt lat="45.75856786207668" lon="11.205720904125307"><ele>737.0</ele><time>2026-04-18T06:45:04Z</time></trkpt><trkpt lat="45.75866878741027" lon="11.205520539694986"><ele>737.0</ele><time>2026-04-18T06:45:05Z</time></trkpt><trkpt lat="45.75877440408265" lon="11.205298540543643"><ele>737.0</ele><time>2026-04-18T06:45:06Z</time></trkpt><trkpt lat="45.75887977255773" lon="11.205046739032523"><ele>737.0</ele><time>2026-04-18T06:45:07Z</time></trkpt><trkpt lat="45.75899382202324" lon="11.204799127053764"><ele>737.0</ele><time>2026-04-18T06:45:08Z</time></trkpt><trkpt lat="45.75912156702239" lon="11.204576809093682"><ele>737.0</ele><time>2026-04-18T06:45:09Z</time></trkpt><trkpt lat="45.75928103439081" lon="11.20436854773752"><ele>737.0</ele><time>2026-04-18T06:45:10Z</time></trkpt><trkpt lat="45.75944910832307" lon="11.204171914045181"><ele>745.6666666666666</ele><time>2026-04-18T06:45:11Z</time></trkpt><trkpt lat="45.759607907751466" lon="11.20398150950483"><ele>754.3333333333334</ele><time>2026-04-18T06:45:12Z</time></trkpt><trkpt lat="45.75975990114418" lon="11.203775024939581"><ele>763.0</ele><time>2026-04-18T06:45:13Z</time></trkpt><trkpt lat="45.75989297911222" lon="11.203544518751169"><ele>763.0</ele><time>2026-04-18T06:45:14Z</time></trkpt><trkpt lat="45.760018622415" lon="11.203306523289134"><ele>763.0</ele><time>2026-04-18T06:45:15Z</time></trkpt><trkpt lat="45.76012081247841" lon="11.203076672213424"><ele>763.0</ele><time>2026-04-18T06:45:16Z</time></trkpt><trkpt lat="45.76019157265433" lon="11.202853649143238"><ele>762.6666666666667</ele><time>2026-04-18T06:45:17Z</time></trkpt><trkpt lat="45.76022382569713" lon="11.202610256483684"><ele>762.3333333333334</ele><time>2026-04-18T06:45:18Z</time></trkpt><trkpt lat="45.76026624938557" lon="11.20235576029196"><ele>762.0</ele><time>2026-04-18T06:45:19Z</time></trkpt><trkpt lat="45.760326703672504" lon="11.202108156478031"><ele>762.0</ele><time>2026-04-18T06:45:20Z</time></trkpt><trkpt lat="45.76037651601943" lon="11.201875729451375"><ele>762.0</ele><time>2026-04-18T06:45:21Z</time></trkpt><trkpt lat="45.76037466978574" lon="11.20164558720236"><ele>762.0</ele><time>2026-04-18T06:45:22Z</time></trkpt><trkpt lat="45.76036872486019" lon="11.20140663397382"><ele>765.25</ele><time>2026-04-18T06:45:23Z</time></trkpt><trkpt lat="45.760356943298845" lon="11.201169792982578"><ele>768.5</ele><time>2026-04-18T06:45:24Z</time></trkpt><trkpt lat="45.76038837243601" lon="11.200983396665082"><ele>771.75</ele><time>2026-04-18T06:45:25Z</time></trkpt><trkpt lat="45.76045849902304" lon="11.200832743204199"><ele>775.0</ele><time>2026-04-18T06:45:26Z</time></trkpt><trkpt lat="45.760511911717586" lon="11.20065801870319"><ele>779.3333333333333</ele><time>2026-04-18T06:45:27Z</time></trkpt><trkpt lat="45.76056467700136" lon="11.200463331892125"><ele>783.6666666666667</ele><time>2026-04-18T06:45:28Z</time></trkpt><trkpt lat="45.76059045708858" lon="11.200230883991063"><ele>788.0</ele><time>2026-04-18T06:45:29Z</time></trkpt><trkpt lat="45.760597098151926" lon="11.199986704825507"><ele>790.6666666666667</ele><time>2026-04-18T06:45:30Z</time></trkpt><trkpt lat="45.76062641306706" lon="11.19974116901975"><ele>793.3333333333333</ele><time>2026-04-18T06:45:31Z</time></trkpt><trkpt lat="45.76068755353845" lon="11.199530854928925"><ele>796.0</ele><time>2026-04-18T06:45:32Z</time></trkpt><trkpt lat="45.76077661064105" lon="11.199365324531197"><ele>796.0</ele><time>2026-04-18T06:45:33Z</time></trkpt><trkpt lat="45.76088214473521" lon="11.199221165919406"><ele>796.0</ele><time>2026-04-18T06:45:34Z</time></trkpt><trkpt lat="45.76099202851446" lon="11.19913910575431"><ele>796.0</ele><time>2026-04-18T06:45:35Z</time></trkpt><trkpt lat="45.761081240362564" lon="11.199091004987356"><ele>796.0</ele><time>2026-04-18T06:45:36Z</time></trkpt><trkpt lat="45.761145989890764" lon="11.199013454389764"><ele>796.0</ele><time>2026-04-18T06:45:37Z</time></trkpt><trkpt lat="45.7611591242309" lon="11.198874633550044"><ele>799.1999999999999</ele><time>2026-04-18T06:45:38Z</time></trkpt><trkpt lat="45.76113530025888" lon="11.198734879597637"><ele>802.4</ele><time>2026-04-18T06:45:39Z</time></trkpt><trkpt lat="45.76110160416765" lon="11.1986102586027"><ele>805.6</ele><time>2026-04-18T06:45:40Z</time></trkpt><trkpt lat="45.761050158823146" lon="11.198512846313857"><ele>808.8</ele><time>2026-04-18T06:45:41Z</time></trkpt><trkpt lat="45.760938691738446" lon="11.198475568910418"><ele>812.0</ele><time>2026-04-18T06:45:42Z</time></trkpt><trkpt lat="45.760828447147624" lon="11.198551059721868"><ele>812.0</ele><time>2026-04-18T06:45:43Z</time></trkpt><trkpt lat="45.760732044501005" lon="11.198645185371042"><ele>812.0</ele><time>2026-04-18T06:45:44Z</time></trkpt><trkpt lat="45.760640489762714" lon="11.198765034128078"><ele>812.0</ele><time>2026-04-18T06:45:45Z</time></trkpt><trkpt lat="45.760539960566824" lon="11.19889885068637"><ele>812.0</ele><time>2026-04-18T06:45:46Z</time></trkpt><trkpt lat="45.760439864854774" lon="11.199036071950632"><ele>808.0</ele><time>2026-04-18T06:45:47Z</time></trkpt><trkpt lat="45.760367128654984" lon="11.199191990334828"><ele>804.0</ele><time>2026-04-18T06:45:48Z</time></trkpt><trkpt lat="45.76033532983621" lon="11.199344061068121"><ele>800.0</ele><time>2026-04-18T06:45:49Z</time></trkpt><trkpt lat="45.76028323903262" lon="11.199508603920139"><ele>796.0</ele><time>2026-04-18T06:45:51Z</time></trkpt><trkpt lat="45.76016541406866" lon="11.199481390989742"><ele>796.0</ele><time>2026-04-18T06:45:53Z</time></trkpt><trkpt lat="45.76014613670811" lon="11.19936346105093"><ele>796.0</ele><time>2026-04-18T06:45:54Z</time></trkpt><trkpt lat="45.76022626848861" lon="11.199291616440396"><ele>796.0</ele><time>2026-04-18T06:45:55Z</time></trkpt><trkpt lat="45.76028270265205" lon="11.19917119521449"><ele>796.0</ele><time>2026-04-18T06:45:56Z</time></trkpt><trkpt lat="45.7603497791133" lon="11.19902059526687"><ele>796.0</ele><time>2026-04-18T06:45:57Z</time></trkpt><trkpt lat="45.76041057375954" lon="11.198839847017776"><ele>801.3333333333333</ele><time>2026-04-18T06:45:58Z</time></trkpt><trkpt lat="45.76045534519066" lon="11.19865638959676"><ele>806.6666666666667</ele><time>2026-04-18T06:45:59Z</time></trkpt><trkpt lat="45.76050070305649" lon="11.198445849327598"><ele>812.0</ele><time>2026-04-18T06:46:00Z</time></trkpt><trkpt lat="45.760553806574684" lon="11.19822264679042"><ele>817.0</ele><time>2026-04-18T06:46:01Z</time></trkpt><trkpt lat="45.76060037956226" lon="11.197982663897092"><ele>822.0</ele><time>2026-04-18T06:46:02Z</time></trkpt><trkpt lat="45.76062440974643" lon="11.197721699440994"><ele>827.0</ele><time>2026-04-18T06:46:03Z</time></trkpt><trkpt lat="45.76063779732378" lon="11.197484969779875"><ele>837.0</ele><time>2026-04-18T06:46:04Z</time></trkpt><trkpt lat="45.760654836631225" lon="11.197282366640158"><ele>847.0</ele><time>2026-04-18T06:46:05Z</time></trkpt><trkpt lat="45.76068225098555" lon="11.197121250278334"><ele>857.0</ele><time>2026-04-18T06:46:06Z</time></trkpt><trkpt lat="45.76073020860144" lon="11.196990907062835"><ele>867.0</ele><time>2026-04-18T06:46:07Z</time></trkpt><trkpt lat="45.76080962929307" lon="11.196912037313288"><ele>867.0</ele><time>2026-04-18T06:46:08Z</time></trkpt><trkpt lat="45.76093202937518" lon="11.196853706368072"><ele>867.0</ele><time>2026-04-18T06:46:09Z</time></trkpt><trkpt lat="45.761080283709994" lon="11.196786899473203"><ele>867.0</ele><time>2026-04-18T06:46:10Z</time></trkpt><trkpt lat="45.761224817115" lon="11.1967681176339"><ele>867.0</ele><time>2026-04-18T06:46:11Z</time></trkpt><trkpt lat="45.76135520065911" lon="11.196812147564433"><ele>869.2</ele><time>2026-04-18T06:46:12Z</time></trkpt><trkpt lat="45.76145753529846" lon="11.19694133439863"><ele>871.4000000000001</ele><time>2026-04-18T06:46:13Z</time></trkpt><trkpt lat="45.76155530432569" lon="11.197066352527422"><ele>873.5999999999999</ele><time>2026-04-18T06:46:14Z</time></trkpt><trkpt lat="45.761637444154154" lon="11.197131443693378"><ele>875.8</ele><time>2026-04-18T06:46:15Z</time></trkpt><trkpt lat="45.761723413086756" lon="11.19713107937811"><ele>878.0</ele><time>2026-04-18T06:46:16Z</time></trkpt><trkpt lat="45.761810093089956" lon="11.197038252947499"><ele>873.5</ele><time>2026-04-18T06:46:17Z</time></trkpt><trkpt lat="45.761895217232684" lon="11.196947159041185"><ele>869.0</ele><time>2026-04-18T06:46:18Z</time></trkpt><trkpt lat="45.76200473828328" lon="11.196870994866046"><ele>864.5</ele><time>2026-04-18T06:46:19Z</time></trkpt><trkpt lat="45.7621247913726" lon="11.196787512630854"><ele>860.0</ele><time>2026-04-18T06:46:20Z</time></trkpt><trkpt lat="45.76225044948875" lon="11.196687975237396"><ele>860.0</ele><time>2026-04-18T06:46:21Z</time></trkpt><trkpt lat="45.76237209915767" lon="11.19655393384674"><ele>860.0</ele><time>2026-04-18T06:46:22Z</time></trkpt><trkpt lat="45.76246893878263" lon="11.196450188619242"><ele>860.0</ele><time>2026-04-18T06:46:23Z</time></trkpt><trkpt lat="45.76256257988899" lon="11.1963720303898"><ele>860.0</ele><time>2026-04-18T06:46:24Z</time></trkpt><trkpt lat="45.76264586307989" lon="11.196327026910907"><ele>862.6666666666667</ele><time>2026-04-18T06:46:25Z</time></trkpt><trkpt lat="45.76273533858964" lon="11.196329666336839"><ele>865.3333333333334</ele><time>2026-04-18T06:46:26Z</time></trkpt><trkpt lat="45.7628176764003" lon="11.196356447360747"><ele>868.0</ele><time>2026-04-18T06:46:27Z</time></trkpt><trkpt lat="45.76285964226753" lon="11.196451177625868"><ele>870.6666666666667</ele><time>2026-04-18T06:46:28Z</time></trkpt><trkpt lat="45.7628565154901" lon="11.19657636865407"><ele>873.3333333333334</ele><time>2026-04-18T06:46:29Z</time></trkpt><trkpt lat="45.76282281876679" lon="11.196715644630219"><ele>876.0</ele><time>2026-04-18T06:46:30Z</time></trkpt><trkpt lat="45.762785020269206" lon="11.196874737609372"><ele>876.0</ele><time>2026-04-18T06:46:31Z</time></trkpt><trkpt lat="45.76277451574767" lon="11.197057918303162"><ele>876.0</ele><time>2026-04-18T06:46:32Z</time></trkpt><trkpt lat="45.76279537011586" lon="11.197260709318845"><ele>876.0</ele><time>2026-04-18T06:46:33Z</time></trkpt><trkpt lat="45.762826510463164" lon="11.197439392273072"><ele>876.0</ele><time>2026-04-18T06:46:34Z</time></trkpt><trkpt lat="45.76286389708187" lon="11.197553253302978"><ele>876.0</ele><time>2026-04-18T06:46:35Z</time></trkpt><trkpt lat="45.76297484395968" lon="11.197588776531935"><ele>875.9999999999999</ele><time>2026-04-18T06:46:37Z</time></trkpt><trkpt lat="45.76302924713782" lon="11.197519622023224"><ele>875.9999999999999</ele><time>2026-04-18T06:46:38Z</time></trkpt><trkpt lat="45.763043551417226" lon="11.19736575659828"><ele>876.0</ele><time>2026-04-18T06:46:39Z</time></trkpt><trkpt lat="45.763044273742594" lon="11.197210820519732"><ele>876.0</ele><time>2026-04-18T06:46:40Z</time></trkpt><trkpt lat="45.76306252148454" lon="11.19704274025406"><ele>876.0</ele><time>2026-04-18T06:46:41Z</time></trkpt><trkpt lat="45.76310799152908" lon="11.196851871902934"><ele>876.0</ele><time>2026-04-18T06:46:42Z</time></trkpt><trkpt lat="45.76315948179688" lon="11.196649112709514"><ele>876.0</ele><time>2026-04-18T06:46:43Z</time></trkpt><trkpt lat="45.7632031419973" lon="11.196465688978721"><ele>876.0</ele><time>2026-04-18T06:46:44Z</time></trkpt><trkpt lat="45.76323363626261" lon="11.196328997463539"><ele>876.0</ele><time>2026-04-18T06:46:45Z</time></trkpt><trkpt lat="45.76325919515783" lon="11.19622368843659"><ele>875.9999999999999</ele><time>2026-04-18T06:46:46Z</time></trkpt><trkpt lat="45.763358841352286" lon="11.196185628903073"><ele>875.9999999999999</ele><time>2026-04-18T06:46:48Z</time></trkpt><trkpt lat="45.763364873746006" lon="11.196387974498373"><ele>876.0</ele><time>2026-04-18T06:46:50Z</time></trkpt><trkpt lat="45.76332872755862" lon="11.196534477607194"><ele>876.0</ele><time>2026-04-18T06:46:51Z</time></trkpt><trkpt lat="45.76331162168677" lon="11.196706447571792"><ele>876.0</ele><time>2026-04-18T06:46:52Z</time></trkpt><trkpt lat="45.76330207008443" lon="11.196904624970584"><ele>875.9999999999999</ele><time>2026-04-18T06:46:53Z</time></trkpt><trkpt lat="45.76330197495359" lon="11.197057912609933"><ele>875.9999999999999</ele><time>2026-04-18T06:46:54Z</time></trkpt><trkpt lat="45.76332019343554" lon="11.197171732924884"><ele>876.0</ele><time>2026-04-18T06:46:55Z</time></trkpt><trkpt lat="45.7633689220951" lon="11.197250188846754"><ele>876.0</ele><time>2026-04-18T06:46:56Z</time></trkpt><trkpt lat="45.7634371505565" lon="11.197261278293263"><ele>876.0</ele><time>2026-04-18T06:46:57Z</time></trkpt><trkpt lat="45.763523142692215" lon="11.19721007849183"><ele>876.0</ele><time>2026-04-18T06:46:58Z</time></trkpt><trkpt lat="45.76361372739315" lon="11.197126113622492"><ele>876.0</ele><time>2026-04-18T06:46:59Z</time></trkpt><trkpt lat="45.763716045128874" lon="11.197023449008155"><ele>876.0</ele><time>2026-04-18T06:47:00Z</time></trkpt><trkpt lat="45.763805005635746" lon="11.19688861430684"><ele>885.25</ele><time>2026-04-18T06:47:01Z</time></trkpt><trkpt lat="45.76386708720554" lon="11.196723807226018"><ele>894.5</ele><time>2026-04-18T06:47:02Z</time></trkpt><trkpt lat="45.76389690373464" lon="11.196549253827824"><ele>903.75</ele><time>2026-04-18T06:47:03Z</time></trkpt><trkpt lat="45.76388678383557" lon="11.19636394331053"><ele>913.0</ele><time>2026-04-18T06:47:04Z</time></trkpt><trkpt lat="45.76385832026299" lon="11.196183133322668"><ele>916.8</ele><time>2026-04-18T06:47:05Z</time></trkpt><trkpt lat="45.7637592698848" lon="11.196082416130553"><ele>920.5999999999999</ele><time>2026-04-18T06:47:06Z</time></trkpt><trkpt lat="45.763674249871336" lon="11.19597224875331"><ele>924.4000000000001</ele><time>2026-04-18T06:47:07Z</time></trkpt><trkpt lat="45.76360309469065" lon="11.19586963405617"><ele>928.2</ele><time>2026-04-18T06:47:08Z</time></trkpt><trkpt lat="45.76356778077412" lon="11.195748282143816"><ele>932.0</ele><time>2026-04-18T06:47:09Z</time></trkpt><trkpt lat="45.76359555800152" lon="11.195622035542861"><ele>932.5</ele><time>2026-04-18T06:47:10Z</time></trkpt><trkpt lat="45.7636378934565" lon="11.195476349928432"><ele>933.0</ele><time>2026-04-18T06:47:11Z</time></trkpt><trkpt lat="45.763683988095764" lon="11.195301220816479"><ele>933.5</ele><time>2026-04-18T06:47:12Z</time></trkpt><trkpt lat="45.763712273458445" lon="11.195111305079246"><ele>934.0</ele><time>2026-04-18T06:47:13Z</time></trkpt><trkpt lat="45.763767981285554" lon="11.19491546917764"><ele>933.75</ele><time>2026-04-18T06:47:14Z</time></trkpt><trkpt lat="45.76378268309062" lon="11.19473056396282"><ele>933.5</ele><time>2026-04-18T06:47:15Z</time></trkpt><trkpt lat="45.763758472086565" lon="11.19456345623958"><ele>933.25</ele><time>2026-04-18T06:47:16Z</time></trkpt><trkpt lat="45.76371492338869" lon="11.194404712037974"><ele>933.0</ele><time>2026-04-18T06:47:17Z</time></trkpt><trkpt lat="45.76363821663466" lon="11.194244526518116"><ele>925.6666666666667</ele><time>2026-04-18T06:47:18Z</time></trkpt><trkpt lat="45.76351978068908" lon="11.194112893992065"><ele>918.3333333333334</ele><time>2026-04-18T06:47:19Z</time></trkpt><trkpt lat="45.76338258454032" lon="11.194029487203569"><ele>911.0</ele><time>2026-04-18T06:47:20Z</time></trkpt><trkpt lat="45.76322982820145" lon="11.194007531665806"><ele>911.0</ele><time>2026-04-18T06:47:21Z</time></trkpt><trkpt lat="45.763101371814905" lon="11.193994567330565"><ele>911.0</ele><time>2026-04-18T06:47:22Z</time></trkpt><trkpt lat="45.76298127559401" lon="11.194022519831886"><ele>911.0</ele><time>2026-04-18T06:47:23Z</time></trkpt><trkpt lat="45.76286246388944" lon="11.194106085987245"><ele>911.0</ele><time>2026-04-18T06:47:24Z</time></trkpt><trkpt lat="45.762753860797375" lon="11.19423224506302"><ele>911.75</ele><time>2026-04-18T06:47:25Z</time></trkpt><trkpt lat="45.76266712819895" lon="11.19438439876181"><ele>912.5</ele><time>2026-04-18T06:47:26Z</time></trkpt><trkpt lat="45.7625930156473" lon="11.19455945341544"><ele>913.25</ele><time>2026-04-18T06:47:27Z</time></trkpt><trkpt lat="45.76254525440574" lon="11.194736720913232"><ele>914.0</ele><time>2026-04-18T06:47:28Z</time></trkpt><trkpt lat="45.762507618383594" lon="11.194879818632314"><ele>914.0</ele><time>2026-04-18T06:47:29Z</time></trkpt><trkpt lat="45.76244793979578" lon="11.194971912396303"><ele>914.0000000000001</ele><time>2026-04-18T06:47:30Z</time></trkpt><trkpt lat="45.76235539898973" lon="11.19501955417422"><ele>914.0000000000001</ele><time>2026-04-18T06:47:31Z</time></trkpt><trkpt lat="45.762243937067275" lon="11.195054670477948"><ele>914.0</ele><time>2026-04-18T06:47:32Z</time></trkpt><trkpt lat="45.76212415105802" lon="11.195113290195827"><ele>914.0</ele><time>2026-04-18T06:47:33Z</time></trkpt><trkpt lat="45.762009116608034" lon="11.19518270997706"><ele>914.0</ele><time>2026-04-18T06:47:34Z</time></trkpt><trkpt lat="45.76189342061939" lon="11.19518368516792"><ele>914.0</ele><time>2026-04-18T06:47:35Z</time></trkpt><trkpt lat="45.76178888216801" lon="11.195138511193008"><ele>914.0</ele><time>2026-04-18T06:47:36Z</time></trkpt><trkpt lat="45.761662097803985" lon="11.195085717259772"><ele>914.0</ele><time>2026-04-18T06:47:37Z</time></trkpt><trkpt lat="45.761519284740636" lon="11.195067363049525"><ele>918.0</ele><time>2026-04-18T06:47:38Z</time></trkpt><trkpt lat="45.76136469834108" lon="11.195071363001357"><ele>922.0</ele><time>2026-04-18T06:47:39Z</time></trkpt><trkpt lat="45.76121683290274" lon="11.195067422728417"><ele>926.0</ele><time>2026-04-18T06:47:40Z</time></trkpt><trkpt lat="45.76107945906073" lon="11.19503980966089"><ele>930.0</ele><time>2026-04-18T06:47:41Z</time></trkpt><trkpt lat="45.760939543249094" lon="11.194972576766089"><ele>930.6666666666667</ele><time>2026-04-18T06:47:42Z</time></trkpt><trkpt lat="45.7608022831012" lon="11.194855108701825"><ele>931.3333333333334</ele><time>2026-04-18T06:47:43Z</time></trkpt><trkpt lat="45.760660233229096" lon="11.194711591091972"><ele>932.0</ele><time>2026-04-18T06:47:44Z</time></trkpt><trkpt lat="45.76054305563216" lon="11.194570225558559"><ele>935.5</ele><time>2026-04-18T06:47:45Z</time></trkpt><trkpt lat="45.76046210993904" lon="11.194431114678881"><ele>939.0</ele><time>2026-04-18T06:47:46Z</time></trkpt><trkpt lat="45.76042453225039" lon="11.194287285012665"><ele>942.5</ele><time>2026-04-18T06:47:47Z</time></trkpt><trkpt lat="45.76041352938779" lon="11.19413533441251"><ele>946.0</ele><time>2026-04-18T06:47:48Z</time></trkpt><trkpt lat="45.76045982450493" lon="11.193990666649844"><ele>950.75</ele><time>2026-04-18T06:47:49Z</time></trkpt><trkpt lat="45.76055841031953" lon="11.193914488085351"><ele>955.5</ele><time>2026-04-18T06:47:50Z</time></trkpt><trkpt lat="45.76066491600777" lon="11.193852282780737"><ele>960.25</ele><time>2026-04-18T06:47:51Z</time></trkpt><trkpt lat="45.760791160888616" lon="11.193785579069104"><ele>965.0</ele><time>2026-04-18T06:47:52Z</time></trkpt><trkpt lat="45.76094104037843" lon="11.193787474017393"><ele>966.6666666666667</ele><time>2026-04-18T06:47:53Z</time></trkpt><trkpt lat="45.76110004541614" lon="11.193880472668441"><ele>968.3333333333333</ele><time>2026-04-18T06:47:54Z</time></trkpt><trkpt lat="45.76128203898873" lon="11.19394162460671"><ele>970.0</ele><time>2026-04-18T06:47:55Z</time></trkpt><trkpt lat="45.761476669299846" lon="11.194027559722302"><ele>963.6666666666666</ele><time>2026-04-18T06:47:56Z</time></trkpt><trkpt lat="45.76166497394717" lon="11.194094044344286"><ele>957.3333333333333</ele><time>2026-04-18T06:47:57Z</time></trkpt><trkpt lat="45.761810613668395" lon="11.19413946472279"><ele>951.0</ele><time>2026-04-18T06:47:58Z</time></trkpt><trkpt lat="45.76192558093531" lon="11.19417953494037"><ele>953.0</ele><time>2026-04-18T06:47:59Z</time></trkpt><trkpt lat="45.76200515896542" lon="11.194183611024545"><ele>954.9999999999999</ele><time>2026-04-18T06:48:00Z</time></trkpt><trkpt lat="45.76209574823752" lon="11.194074074381493"><ele>956.9999999999999</ele><time>2026-04-18T06:48:02Z</time></trkpt><trkpt lat="45.762050878984155" lon="11.193936332578364"><ele>959.0</ele><time>2026-04-18T06:48:03Z</time></trkpt><trkpt lat="45.76192534877162" lon="11.193885373636256"><ele>961.0</ele><time>2026-04-18T06:48:04Z</time></trkpt><trkpt lat="45.76181309363628" lon="11.193823191995842"><ele>963.25</ele><time>2026-04-18T06:48:05Z</time></trkpt><trkpt lat="45.76169008030156" lon="11.1937259417826"><ele>965.5</ele><time>2026-04-18T06:48:06Z</time></trkpt><trkpt lat="45.76156046396169" lon="11.193630113954779"><ele>967.75</ele><time>2026-04-18T06:48:07Z</time></trkpt><trkpt lat="45.761435656910265" lon="11.193533888149078"><ele>970.0</ele><time>2026-04-18T06:48:08Z</time></trkpt><trkpt lat="45.761294167535276" lon="11.193418823886073"><ele>970.0</ele><time>2026-04-18T06:48:09Z</time></trkpt><trkpt lat="45.76114326763542" lon="11.193292489066103"><ele>970.0</ele><time>2026-04-18T06:48:10Z</time></trkpt><trkpt lat="45.760984432160875" lon="11.193144528504572"><ele>970.0</ele><time>2026-04-18T06:48:11Z</time></trkpt><trkpt lat="45.76083434801889" lon="11.19302734579674"><ele>978.0</ele><time>2026-04-18T06:48:12Z</time></trkpt><trkpt lat="45.76067681006445" lon="11.192964721971018"><ele>986.0</ele><time>2026-04-18T06:48:13Z</time></trkpt><trkpt lat="45.76050647522251" lon="11.192958320395126"><ele>994.0</ele><time>2026-04-18T06:48:14Z</time></trkpt><trkpt lat="45.760332665893884" lon="11.192988376456809"><ele>994.3333333333333</ele><time>2026-04-18T06:48:15Z</time></trkpt><trkpt lat="45.760165221655726" lon="11.193046483651802"><ele>994.6666666666667</ele><time>2026-04-18T06:48:16Z</time></trkpt><trkpt lat="45.76000742053269" lon="11.193089781128139"><ele>995.0</ele><time>2026-04-18T06:48:17Z</time></trkpt><trkpt lat="45.7598431370997" lon="11.193094814351726"><ele>995.0</ele><time>2026-04-18T06:48:18Z</time></trkpt><trkpt lat="45.75966816173961" lon="11.193080851439491"><ele>995.0</ele><time>2026-04-18T06:48:19Z</time></trkpt><trkpt lat="45.75948591208934" lon="11.193077939207507"><ele>995.0</ele><time>2026-04-18T06:48:20Z</time></trkpt><trkpt lat="45.759308077895234" lon="11.193095161623031"><ele>996.4</ele><time>2026-04-18T06:48:21Z</time></trkpt><trkpt lat="45.75916362149593" lon="11.193127517914155"><ele>997.8</ele><time>2026-04-18T06:48:22Z</time></trkpt><trkpt lat="45.759054149966985" lon="11.193159850331615"><ele>999.2</ele><time>2026-04-18T06:48:23Z</time></trkpt><trkpt lat="45.75896062882078" lon="11.193159856098934"><ele>1000.6</ele><time>2026-04-18T06:48:24Z</time></trkpt><trkpt lat="45.75888576641672" lon="11.193099765557243"><ele>1002.0</ele><time>2026-04-18T06:48:25Z</time></trkpt><trkpt lat="45.75885771355192" lon="11.19296413123536"><ele>1002.0</ele><time>2026-04-18T06:48:26Z</time></trkpt><trkpt lat="45.758804339839585" lon="11.192826571033708"><ele>1002.0</ele><time>2026-04-18T06:48:27Z</time></trkpt><trkpt lat="45.75876910532597" lon="11.19265760311609"><ele>1002.0</ele><time>2026-04-18T06:48:28Z</time></trkpt><trkpt lat="45.758731195392635" lon="11.192466339957821"><ele>1002.0</ele><time>2026-04-18T06:48:29Z</time></trkpt><trkpt lat="45.75868929961631" lon="11.192259426176593"><ele>1004.0</ele><time>2026-04-18T06:48:30Z</time></trkpt><trkpt lat="45.75870934204881" lon="11.192042877651842"><ele>1006.0</ele><time>2026-04-18T06:48:31Z</time></trkpt><trkpt lat="45.758709342043986" lon="11.191828288297756"><ele>1008.0</ele><time>2026-04-18T06:48:32Z</time></trkpt><trkpt lat="45.75868695811887" lon="11.191627614931344"><ele>1010.0</ele><time>2026-04-18T06:48:33Z</time></trkpt><trkpt lat="45.75861928958753" lon="11.191452683301273"><ele>1016.3333333333334</ele><time>2026-04-18T06:48:34Z</time></trkpt><trkpt lat="45.758511346027944" lon="11.1913020599656"><ele>1022.6666666666667</ele><time>2026-04-18T06:48:35Z</time></trkpt><trkpt lat="45.758353658647216" lon="11.191233363570243"><ele>1029.0</ele><time>2026-04-18T06:48:36Z</time></trkpt><trkpt lat="45.75822148806558" lon="11.1911302756057"><ele>1029.0</ele><time>2026-04-18T06:48:37Z</time></trkpt><trkpt lat="45.75811292593411" lon="11.191004557385652"><ele>1029.0</ele><time>2026-04-18T06:48:38Z</time></trkpt><trkpt lat="45.75799485465482" lon="11.190833104906856"><ele>1029.0</ele><time>2026-04-18T06:48:39Z</time></trkpt><trkpt lat="45.75787870514408" lon="11.190634783405237"><ele>1028.75</ele><time>2026-04-18T06:48:40Z</time></trkpt><trkpt lat="45.75778667600581" lon="11.190434881072294"><ele>1028.5</ele><time>2026-04-18T06:48:41Z</time></trkpt><trkpt lat="45.75771218507159" lon="11.190249821422459"><ele>1028.25</ele><time>2026-04-18T06:48:42Z</time></trkpt><trkpt lat="45.75769822666959" lon="11.190077366296457"><ele>1028.0</ele><time>2026-04-18T06:48:43Z</time></trkpt><trkpt lat="45.75769942152779" lon="11.189888486548131"><ele>1031.6666666666667</ele><time>2026-04-18T06:48:44Z</time></trkpt><trkpt lat="45.757676036803886" lon="11.189678539000305"><ele>1035.3333333333333</ele><time>2026-04-18T06:48:45Z</time></trkpt><trkpt lat="45.757625897777" lon="11.18948088142481"><ele>1039.0</ele><time>2026-04-18T06:48:46Z</time></trkpt><trkpt lat="45.757549764986685" lon="11.189279305709686"><ele>1039.0</ele><time>2026-04-18T06:48:47Z</time></trkpt><trkpt lat="45.75746310344098" lon="11.189062847421035"><ele>1039.0</ele><time>2026-04-18T06:48:48Z</time></trkpt><trkpt lat="45.757387566530596" lon="11.188814533968737"><ele>1039.0</ele><time>2026-04-18T06:48:49Z</time></trkpt><trkpt lat="45.75729490636099" lon="11.188572385475863"><ele>1046.0</ele><time>2026-04-18T06:48:50Z</time></trkpt><trkpt lat="45.75720591529495" lon="11.188352863690413"><ele>1053.0</ele><time>2026-04-18T06:48:51Z</time></trkpt><trkpt lat="45.75710773342871" lon="11.188152392210926"><ele>1060.0</ele><time>2026-04-18T06:48:52Z</time></trkpt><trkpt lat="45.75696975059327" lon="11.187992192929858"><ele>1057.5</ele><time>2026-04-18T06:48:53Z</time></trkpt><trkpt lat="45.756836570000495" lon="11.187848505572687"><ele>1055.0</ele><time>2026-04-18T06:48:54Z</time></trkpt><trkpt lat="45.756754456326256" lon="11.187701237781624"><ele>1052.5</ele><time>2026-04-18T06:48:55Z</time></trkpt><trkpt lat="45.75672995745138" lon="11.187521957636875"><ele>1050.0</ele><time>2026-04-18T06:48:56Z</time></trkpt><trkpt lat="45.756673618871105" lon="11.18738336671928"><ele>1052.6</ele><time>2026-04-18T06:48:57Z</time></trkpt><trkpt lat="45.75660688256783" lon="11.187255566849288"><ele>1055.2</ele><time>2026-04-18T06:48:58Z</time></trkpt><trkpt lat="45.75651000209287" lon="11.187182025266624"><ele>1057.8</ele><time>2026-04-18T06:48:59Z</time></trkpt><trkpt lat="45.75640956390284" lon="11.187155928612"><ele>1060.4</ele><time>2026-04-18T06:49:00Z</time></trkpt><trkpt lat="45.75632666318779" lon="11.18710135647845"><ele>1063.0</ele><time>2026-04-18T06:49:01Z</time></trkpt><trkpt lat="45.75625736307403" lon="11.187021224450547"><ele>1063.0</ele><time>2026-04-18T06:49:02Z</time></trkpt><trkpt lat="45.756261278581384" lon="11.186880432888564"><ele>1063.0</ele><time>2026-04-18T06:49:03Z</time></trkpt><trkpt lat="45.756262395913396" lon="11.18673262562098"><ele>1063.0</ele><time>2026-04-18T06:49:04Z</time></trkpt><trkpt lat="45.75625876946516" lon="11.186565171503355"><ele>1063.0</ele><time>2026-04-18T06:49:05Z</time></trkpt><trkpt lat="45.75625487338271" lon="11.186381926657278"><ele>1063.0</ele><time>2026-04-18T06:49:06Z</time></trkpt><trkpt lat="45.75625284190971" lon="11.186219685889752"><ele>1063.8</ele><time>2026-04-18T06:49:07Z</time></trkpt><trkpt lat="45.75625426505869" lon="11.186087253241528"><ele>1064.6</ele><time>2026-04-18T06:49:08Z</time></trkpt><trkpt lat="45.75627299883767" lon="11.185988581798716"><ele>1065.4</ele><time>2026-04-18T06:49:09Z</time></trkpt><trkpt lat="45.75640424841966" lon="11.185938599344597"><ele>1066.2</ele><time>2026-04-18T06:49:11Z</time></trkpt><trkpt lat="45.756476759218685" lon="11.185929757440446"><ele>1067.0</ele><time>2026-04-18T06:49:12Z</time></trkpt><trkpt lat="45.75654961523292" lon="11.18587302724786"><ele>1067.0</ele><time>2026-04-18T06:49:13Z</time></trkpt><trkpt lat="45.75679033994402" lon="11.186104568973173"><ele>1067.0</ele><time>2026-04-18T06:49:14Z</time></trkpt><trkpt lat="45.756953803025745" lon="11.186141299342513"><ele>1070.5</ele><time>2026-04-18T06:49:15Z</time></trkpt><trkpt lat="45.757098798149286" lon="11.186136480990722"><ele>1074.0</ele><time>2026-04-18T06:49:16Z</time></trkpt><trkpt lat="45.757202982155384" lon="11.186072134542263"><ele>1077.5</ele><time>2026-04-18T06:49:17Z</time></trkpt><trkpt lat="45.757281506862824" lon="11.185952208456591"><ele>1081.0</ele><time>2026-04-18T06:49:18Z</time></trkpt><trkpt lat="45.75732566820603" lon="11.18578373362226"><ele>1081.0</ele><time>2026-04-18T06:49:19Z</time></trkpt><trkpt lat="45.75733932602542" lon="11.185613028614725"><ele>1081.0</ele><time>2026-04-18T06:49:20Z</time></trkpt><trkpt lat="45.757348188962496" lon="11.185469561857202"><ele>1081.0</ele><time>2026-04-18T06:49:21Z</time></trkpt><trkpt lat="45.75740143233932" lon="11.185391315532907"><ele>1081.0</ele><time>2026-04-18T06:49:22Z</time></trkpt><trkpt lat="45.75746649432288" lon="11.185373989849909"><ele>1081.0</ele><time>2026-04-18T06:49:23Z</time></trkpt><trkpt lat="45.75753260754593" lon="11.185438548925438"><ele>1081.0</ele><time>2026-04-18T06:49:24Z</time></trkpt><trkpt lat="45.75757393552419" lon="11.185576666762104"><ele>1081.0</ele><time>2026-04-18T06:49:25Z</time></trkpt><trkpt lat="45.757580974224716" lon="11.185745388086016"><ele>1081.0</ele><time>2026-04-18T06:49:26Z</time></trkpt><trkpt lat="45.75755906402117" lon="11.185924571349222"><ele>1081.0</ele><time>2026-04-18T06:49:27Z</time></trkpt><trkpt lat="45.75750649979204" lon="11.18610179815868"><ele>1081.0</ele><time>2026-04-18T06:49:28Z</time></trkpt><trkpt lat="45.75743560571487" lon="11.186242295822016"><ele>1081.0</ele><time>2026-04-18T06:49:29Z</time></trkpt><trkpt lat="45.757391466659975" lon="11.186336296534956"><ele>1081.0</ele><time>2026-04-18T06:49:30Z</time></trkpt><trkpt lat="45.75737090279318" lon="11.186432839398934"><ele>1081.0</ele><time>2026-04-18T06:49:31Z</time></trkpt><trkpt lat="45.75737283061915" lon="11.186523065514878"><ele>1081.0</ele><time>2026-04-18T06:49:32Z</time></trkpt><trkpt lat="45.75746940149878" lon="11.186593309858662"><ele>1081.0</ele><time>2026-04-18T06:49:34Z</time></trkpt><trkpt lat="45.7575433814059" lon="11.186549577873647"><ele>1081.0</ele><time>2026-04-18T06:49:35Z</time></trkpt><trkpt lat="45.75760831115092" lon="11.18644517605135"><ele>1081.0</ele><time>2026-04-18T06:49:36Z</time></trkpt><trkpt lat="45.75767307642291" lon="11.186311015373674"><ele>1081.0</ele><time>2026-04-18T06:49:37Z</time></trkpt><trkpt lat="45.757750624391605" lon="11.186144538923175"><ele>1081.0</ele><time>2026-04-18T06:49:38Z</time></trkpt><trkpt lat="45.7578334307954" lon="11.185958459026194"><ele>1081.0</ele><time>2026-04-18T06:49:39Z</time></trkpt><trkpt lat="45.75796086884664" lon="11.185871219086428"><ele>1086.3333333333333</ele><time>2026-04-18T06:49:40Z</time></trkpt><trkpt lat="45.75802110240733" lon="11.185769526832642"><ele>1091.6666666666665</ele><time>2026-04-18T06:49:41Z</time></trkpt><trkpt lat="45.758081591902275" lon="11.18574243189753"><ele>1097.0</ele><time>2026-04-18T06:49:42Z</time></trkpt><trkpt lat="45.75816255741008" lon="11.185684520159922"><ele>1102.3333333333333</ele><time>2026-04-18T06:49:43Z</time></trkpt><trkpt lat="45.75825222934198" lon="11.185620381032148"><ele>1107.6666666666667</ele><time>2026-04-18T06:49:44Z</time></trkpt><trkpt lat="45.75833965925049" lon="11.185557845538325"><ele>1113.0</ele><time>2026-04-18T06:49:45Z</time></trkpt><trkpt lat="45.75835216849781" lon="11.185344244726819"><ele>1114.25</ele><time>2026-04-18T06:49:46Z</time></trkpt><trkpt lat="45.75836193891412" lon="11.185196934024136"><ele>1115.5</ele><time>2026-04-18T06:49:47Z</time></trkpt><trkpt lat="45.75835038624221" lon="11.185036919101826"><ele>1116.75</ele><time>2026-04-18T06:49:48Z</time></trkpt><trkpt lat="45.758314944655986" lon="11.184869620380946"><ele>1118.0</ele><time>2026-04-18T06:49:49Z</time></trkpt><trkpt lat="45.758237646853" lon="11.18467785154503"><ele>1123.3333333333335</ele><time>2026-04-18T06:49:50Z</time></trkpt><trkpt lat="45.75814590236818" lon="11.184449470786939"><ele>1128.6666666666667</ele><time>2026-04-18T06:49:51Z</time></trkpt><trkpt lat="45.75806607544849" lon="11.184200264926952"><ele>1134.0</ele><time>2026-04-18T06:49:52Z</time></trkpt><trkpt lat="45.75801202058856" lon="11.183988310629882"><ele>1139.0</ele><time>2026-04-18T06:49:53Z</time></trkpt><trkpt lat="45.75796061595633" lon="11.183798816016791"><ele>1144.0</ele><time>2026-04-18T06:49:54Z</time></trkpt><trkpt lat="45.757906640806844" lon="11.183631341657199"><ele>1149.0</ele><time>2026-04-18T06:49:55Z</time></trkpt><trkpt lat="45.75785434713225" lon="11.183470148387707"><ele>1154.0</ele><time>2026-04-18T06:49:56Z</time></trkpt><trkpt lat="45.757805052116446" lon="11.183301845796723"><ele>1158.5</ele><time>2026-04-18T06:49:57Z</time></trkpt><trkpt lat="45.757770014482496" lon="11.18311875984217"><ele>1163.0</ele><time>2026-04-18T06:49:58Z</time></trkpt><trkpt lat="45.75774156013535" lon="11.182916241493446"><ele>1167.5</ele><time>2026-04-18T06:49:59Z</time></trkpt><trkpt lat="45.757714063882716" lon="11.18269717153853"><ele>1172.0</ele><time>2026-04-18T06:50:00Z</time></trkpt><trkpt lat="45.75769200328036" lon="11.182479599255627"><ele>1162.6666666666667</ele><time>2026-04-18T06:50:01Z</time></trkpt><trkpt lat="45.75767223949836" lon="11.182261614236797"><ele>1153.3333333333333</ele><time>2026-04-18T06:50:02Z</time></trkpt><trkpt lat="45.75765482166263" lon="11.182064157359447"><ele>1144.0</ele><time>2026-04-18T06:50:03Z</time></trkpt><trkpt lat="45.75763727120171" lon="11.181836630629082"><ele>1144.0</ele><time>2026-04-18T06:50:04Z</time></trkpt><trkpt lat="45.757633782461504" lon="11.181587020251511"><ele>1144.0</ele><time>2026-04-18T06:50:05Z</time></trkpt><trkpt lat="45.75763918386757" lon="11.181319379850368"><ele>1144.0</ele><time>2026-04-18T06:50:06Z</time></trkpt><trkpt lat="45.757650960395274" lon="11.181066360857695"><ele>1148.3333333333333</ele><time>2026-04-18T06:50:07Z</time></trkpt><trkpt lat="45.757661983994346" lon="11.180822439137197"><ele>1152.6666666666667</ele><time>2026-04-18T06:50:08Z</time></trkpt><trkpt lat="45.75767093058016" lon="11.180576391336222"><ele>1157.0</ele><time>2026-04-18T06:50:09Z</time></trkpt><trkpt lat="45.75767561377724" lon="11.180326846565816"><ele>1159.3333333333335</ele><time>2026-04-18T06:50:10Z</time></trkpt><trkpt lat="45.75766903303738" lon="11.180079561896875"><ele>1161.6666666666667</ele><time>2026-04-18T06:50:11Z</time></trkpt><trkpt lat="45.75765537389146" lon="11.179844669013995"><ele>1164.0</ele><time>2026-04-18T06:50:12Z</time></trkpt><trkpt lat="45.757639368960966" lon="11.17962321228718"><ele>1164.0</ele><time>2026-04-18T06:50:13Z</time></trkpt><trkpt lat="45.757635946123976" lon="11.179409462898672"><ele>1164.0</ele><time>2026-04-18T06:50:14Z</time></trkpt><trkpt lat="45.75765619989824" lon="11.179191498930367"><ele>1164.0</ele><time>2026-04-18T06:50:15Z</time></trkpt><trkpt lat="45.75770294508571" lon="11.178970550408394"><ele>1168.0</ele><time>2026-04-18T06:50:16Z</time></trkpt><trkpt lat="45.757759012408314" lon="11.178744579430957"><ele>1172.0</ele><time>2026-04-18T06:50:17Z</time></trkpt><trkpt lat="45.75780633747434" lon="11.178522162821109"><ele>1176.0</ele><time>2026-04-18T06:50:18Z</time></trkpt><trkpt lat="45.757844818605726" lon="11.178318575117656"><ele>1172.6666666666667</ele><time>2026-04-18T06:50:19Z</time></trkpt><trkpt lat="45.75790486920508" lon="11.17809699561998"><ele>1169.3333333333335</ele><time>2026-04-18T06:50:20Z</time></trkpt><trkpt lat="45.75798239569678" lon="11.177852936233691"><ele>1166.0</ele><time>2026-04-18T06:50:21Z</time></trkpt><trkpt lat="45.758073900697134" lon="11.177575748235093"><ele>1163.0</ele><time>2026-04-18T06:50:22Z</time></trkpt><trkpt lat="45.75817860059004" lon="11.177287087621538"><ele>1160.0</ele><time>2026-04-18T06:50:23Z</time></trkpt><trkpt lat="45.75828948855524" lon="11.177007921817768"><ele>1160.0</ele><time>2026-04-18T06:50:24Z</time></trkpt><trkpt lat="45.75840526092475" lon="11.176725067517811"><ele>1160.0</ele><time>2026-04-18T06:50:25Z</time></trkpt><trkpt lat="45.758519695023374" lon="11.176456537429624"><ele>1160.0</ele><time>2026-04-18T06:50:26Z</time></trkpt><trkpt lat="45.758639337555124" lon="11.176204702611214"><ele>1161.6666666666667</ele><time>2026-04-18T06:50:27Z</time></trkpt><trkpt lat="45.75876625388119" lon="11.175971218730503"><ele>1163.3333333333333</ele><time>2026-04-18T06:50:28Z</time></trkpt><trkpt lat="45.758892871243624" lon="11.175765809589024"><ele>1165.0</ele><time>2026-04-18T06:50:29Z</time></trkpt><trkpt lat="45.75901297917664" lon="11.175574426204465"><ele>1165.0</ele><time>2026-04-18T06:50:30Z</time></trkpt><trkpt lat="45.759116296129626" lon="11.175377537258097"><ele>1165.0</ele><time>2026-04-18T06:50:31Z</time></trkpt><trkpt lat="45.75919034984738" lon="11.175175390216403"><ele>1165.0</ele><time>2026-04-18T06:50:32Z</time></trkpt><trkpt lat="45.759247008889" lon="11.174975128195465"><ele>1166.5</ele><time>2026-04-18T06:50:33Z</time></trkpt><trkpt lat="45.75928865196959" lon="11.17478986324128"><ele>1168.0</ele><time>2026-04-18T06:50:34Z</time></trkpt><trkpt lat="45.75933073255222" lon="11.17462056419085"><ele>1169.5</ele><time>2026-04-18T06:50:35Z</time></trkpt><trkpt lat="45.75938786147834" lon="11.174460544474865"><ele>1171.0</ele><time>2026-04-18T06:50:36Z</time></trkpt><trkpt lat="45.7594614584817" lon="11.17431975028"><ele>1171.75</ele><time>2026-04-18T06:50:37Z</time></trkpt><trkpt lat="45.75955203907528" lon="11.17420929783948"><ele>1172.5</ele><time>2026-04-18T06:50:38Z</time></trkpt><trkpt lat="45.75966490396643" lon="11.174105451156024"><ele>1173.25</ele><time>2026-04-18T06:50:39Z</time></trkpt><trkpt lat="45.75977621267354" lon="11.174004453648413"><ele>1174.0</ele><time>2026-04-18T06:50:40Z</time></trkpt><trkpt lat="45.75988893593973" lon="11.17390248589464"><ele>1174.0</ele><time>2026-04-18T06:50:41Z</time></trkpt><trkpt lat="45.75998982385542" lon="11.173784687431281"><ele>1174.0</ele><time>2026-04-18T06:50:42Z</time></trkpt><trkpt lat="45.76006859864725" lon="11.17363688912903"><ele>1174.0</ele><time>2026-04-18T06:50:43Z</time></trkpt><trkpt lat="45.7601313330433" lon="11.173464675461519"><ele>1174.0</ele><time>2026-04-18T06:50:44Z</time></trkpt><trkpt lat="45.76020660934652" lon="11.17329973689177"><ele>1171.0</ele><time>2026-04-18T06:50:45Z</time></trkpt><trkpt lat="45.76028859600025" lon="11.173118913129306"><ele>1168.0</ele><time>2026-04-18T06:50:46Z</time></trkpt><trkpt lat="45.76037980344709" lon="11.17291435065798"><ele>1165.0</ele><time>2026-04-18T06:50:47Z</time></trkpt><trkpt lat="45.760487435122" lon="11.172687833962488"><ele>1165.0</ele><time>2026-04-18T06:50:48Z</time></trkpt><trkpt lat="45.76059771680082" lon="11.172490589497711"><ele>1165.0</ele><time>2026-04-18T06:50:49Z</time></trkpt><trkpt lat="45.76071183792971" lon="11.17230581811034"><ele>1165.0</ele><time>2026-04-18T06:50:50Z</time></trkpt><trkpt lat="45.76083489507229" lon="11.172147361462379"><ele>1165.0</ele><time>2026-04-18T06:50:51Z</time></trkpt><trkpt lat="45.76097641509533" lon="11.172033012016348"><ele>1165.0</ele><time>2026-04-18T06:50:52Z</time></trkpt><trkpt lat="45.76113010845668" lon="11.171950555054089"><ele>1165.0</ele><time>2026-04-18T06:50:53Z</time></trkpt><trkpt lat="45.76129653215636" lon="11.171903107655517"><ele>1165.0</ele><time>2026-04-18T06:50:54Z</time></trkpt><trkpt lat="45.76145354904435" lon="11.17186757595744"><ele>1165.0</ele><time>2026-04-18T06:50:55Z</time></trkpt><trkpt lat="45.76160469737838" lon="11.17180242776564"><ele>1165.0</ele><time>2026-04-18T06:50:56Z</time></trkpt><trkpt lat="45.761759927948745" lon="11.171710718460597"><ele>1164.6666666666665</ele><time>2026-04-18T06:50:57Z</time></trkpt><trkpt lat="45.761918022086746" lon="11.171595121533022"><ele>1164.3333333333333</ele><time>2026-04-18T06:50:58Z</time></trkpt><trkpt lat="45.762074997047" lon="11.17145534108457"><ele>1164.0</ele><time>2026-04-18T06:50:59Z</time></trkpt><trkpt lat="45.76222175150395" lon="11.171284590064351"><ele>1164.0</ele><time>2026-04-18T06:51:00Z</time></trkpt><trkpt lat="45.762359699791276" lon="11.171117067009511"><ele>1164.0</ele><time>2026-04-18T06:51:01Z</time></trkpt><trkpt lat="45.762489005617034" lon="11.17094451675321"><ele>1164.0</ele><time>2026-04-18T06:51:02Z</time></trkpt><trkpt lat="45.76261009226645" lon="11.170775308128537"><ele>1165.0</ele><time>2026-04-18T06:51:03Z</time></trkpt><trkpt lat="45.76272272063235" lon="11.17059383420281"><ele>1166.0</ele><time>2026-04-18T06:51:04Z</time></trkpt><trkpt lat="45.7628236925798" lon="11.170405159388913"><ele>1167.0</ele><time>2026-04-18T06:51:05Z</time></trkpt><trkpt lat="45.76290601905252" lon="11.170203636501645"><ele>1167.0</ele><time>2026-04-18T06:51:06Z</time></trkpt><trkpt lat="45.762973383124674" lon="11.169992722145253"><ele>1167.0</ele><time>2026-04-18T06:51:07Z</time></trkpt><trkpt lat="45.763037397772294" lon="11.169792065560483"><ele>1167.0</ele><time>2026-04-18T06:51:08Z</time></trkpt><trkpt lat="45.763088765206" lon="11.169581017056675"><ele>1163.0</ele><time>2026-04-18T06:51:09Z</time></trkpt><trkpt lat="45.76309579798508" lon="11.169360570771598"><ele>1159.0</ele><time>2026-04-18T06:51:10Z</time></trkpt><trkpt lat="45.763084625464664" lon="11.169141356146152"><ele>1155.0</ele><time>2026-04-18T06:51:11Z</time></trkpt><trkpt lat="45.763085517566715" lon="11.168930398839002"><ele>1151.6666666666667</ele><time>2026-04-18T06:51:12Z</time></trkpt><trkpt lat="45.7631237757962" lon="11.16872583499235"><ele>1148.3333333333335</ele><time>2026-04-18T06:51:13Z</time></trkpt><trkpt lat="45.76318548015226" lon="11.16852742598555"><ele>1145.0</ele><time>2026-04-18T06:51:14Z</time></trkpt><trkpt lat="45.76327501533529" lon="11.168352465001155"><ele>1143.0</ele><time>2026-04-18T06:51:15Z</time></trkpt><trkpt lat="45.76339051902252" lon="11.168193100877385"><ele>1141.0</ele><time>2026-04-18T06:51:16Z</time></trkpt><trkpt lat="45.763501327551964" lon="11.16807378888438"><ele>1139.0</ele><time>2026-04-18T06:51:17Z</time></trkpt><trkpt lat="45.763583402136334" lon="11.167929974053365"><ele>1137.0</ele><time>2026-04-18T06:51:18Z</time></trkpt><trkpt lat="45.76363350633166" lon="11.167742339265658"><ele>1149.6666666666667</ele><time>2026-04-18T06:51:19Z</time></trkpt><trkpt lat="45.763651127009076" lon="11.167533280500628"><ele>1162.3333333333335</ele><time>2026-04-18T06:51:20Z</time></trkpt><trkpt lat="45.7636414983856" lon="11.167298857921793"><ele>1175.0</ele><time>2026-04-18T06:51:21Z</time></trkpt><trkpt lat="45.76361965011777" lon="11.16705530793498"><ele>1176.3333333333335</ele><time>2026-04-18T06:51:22Z</time></trkpt><trkpt lat="45.7635877992047" lon="11.166797837932494"><ele>1177.6666666666667</ele><time>2026-04-18T06:51:23Z</time></trkpt><trkpt lat="45.76354763853847" lon="11.166531711577221"><ele>1179.0</ele><time>2026-04-18T06:51:24Z</time></trkpt><trkpt lat="45.76349182580901" lon="11.166271306967353"><ele>1170.6666666666667</ele><time>2026-04-18T06:51:25Z</time></trkpt><trkpt lat="45.763418143136185" lon="11.16599836794003"><ele>1162.3333333333335</ele><time>2026-04-18T06:51:26Z</time></trkpt><trkpt lat="45.76334640349754" lon="11.16570778673645"><ele>1154.0</ele><time>2026-04-18T06:51:27Z</time></trkpt><trkpt lat="45.76328198905359" lon="11.165412320650205"><ele>1154.0</ele><time>2026-04-18T06:51:28Z</time></trkpt><trkpt lat="45.7632245492167" lon="11.165117673925323"><ele>1154.0</ele><time>2026-04-18T06:51:29Z</time></trkpt><trkpt lat="45.76316292484816" lon="11.164829747670508"><ele>1154.0</ele><time>2026-04-18T06:51:30Z</time></trkpt><trkpt lat="45.76309899806603" lon="11.16454940570106"><ele>1156.6666666666667</ele><time>2026-04-18T06:51:31Z</time></trkpt><trkpt lat="45.76302970036501" lon="11.164283787977393"><ele>1159.3333333333333</ele><time>2026-04-18T06:51:32Z</time></trkpt><trkpt lat="45.76295851113635" lon="11.164017184167594"><ele>1162.0</ele><time>2026-04-18T06:51:33Z</time></trkpt><trkpt lat="45.76289078155351" lon="11.163744883560716"><ele>1163.3333333333333</ele><time>2026-04-18T06:51:34Z</time></trkpt><trkpt lat="45.76282843639174" lon="11.163450646292326"><ele>1164.6666666666667</ele><time>2026-04-18T06:51:35Z</time></trkpt><trkpt lat="45.762765104163094" lon="11.163175434650423"><ele>1166.0</ele><time>2026-04-18T06:51:36Z</time></trkpt><trkpt lat="45.76270323644858" lon="11.162920836052962"><ele>1154.3333333333335</ele><time>2026-04-18T06:51:37Z</time></trkpt><trkpt lat="45.76264426974202" lon="11.162669638507468"><ele>1142.6666666666667</ele><time>2026-04-18T06:51:38Z</time></trkpt><trkpt lat="45.7625871299266" lon="11.162410969911702"><ele>1131.0</ele><time>2026-04-18T06:51:39Z</time></trkpt><trkpt lat="45.76253411108685" lon="11.162149082140841"><ele>1130.6666666666667</ele><time>2026-04-18T06:51:40Z</time></trkpt><trkpt lat="45.76249126821146" lon="11.161884014243606"><ele>1130.3333333333335</ele><time>2026-04-18T06:51:41Z</time></trkpt><trkpt lat="45.76245207559691" lon="11.161631485793059"><ele>1130.0</ele><time>2026-04-18T06:51:42Z</time></trkpt><trkpt lat="45.76240805165597" lon="11.161393421512841"><ele>1130.0</ele><time>2026-04-18T06:51:43Z</time></trkpt><trkpt lat="45.76236752750678" lon="11.161171386700312"><ele>1130.0</ele><time>2026-04-18T06:51:44Z</time></trkpt><trkpt lat="45.76231320755696" lon="11.160957907986345"><ele>1130.0</ele><time>2026-04-18T06:51:45Z</time></trkpt><trkpt lat="45.76224807321322" lon="11.160745239308913"><ele>1128.3333333333335</ele><time>2026-04-18T06:51:46Z</time></trkpt><trkpt lat="45.76214107350905" lon="11.160572933505556"><ele>1126.6666666666667</ele><time>2026-04-18T06:51:47Z</time></trkpt><trkpt lat="45.762051725752926" lon="11.160392413909086"><ele>1125.0</ele><time>2026-04-18T06:51:48Z</time></trkpt><trkpt lat="45.76197357245202" lon="11.160208299532322"><ele>1125.0</ele><time>2026-04-18T06:51:49Z</time></trkpt><trkpt lat="45.76192378764652" lon="11.160019967403613"><ele>1125.0</ele><time>2026-04-18T06:51:50Z</time></trkpt><trkpt lat="45.7619075041727" lon="11.159838446167337"><ele>1125.0</ele><time>2026-04-18T06:51:51Z</time></trkpt><trkpt lat="45.76191235854042" lon="11.159685943020587"><ele>1125.0</ele><time>2026-04-18T06:51:52Z</time></trkpt><trkpt lat="45.761921846535905" lon="11.159562636403239"><ele>1122.75</ele><time>2026-04-18T06:51:53Z</time></trkpt><trkpt lat="45.761990116154514" lon="11.159487379012818"><ele>1120.5</ele><time>2026-04-18T06:51:54Z</time></trkpt><trkpt lat="45.762088056995026" lon="11.159418547944421"><ele>1118.25</ele><time>2026-04-18T06:51:55Z</time></trkpt><trkpt lat="45.76220714666771" lon="11.15934142299981"><ele>1116.0</ele><time>2026-04-18T06:51:56Z</time></trkpt><trkpt lat="45.76232666089936" lon="11.159206802650015"><ele>1116.0</ele><time>2026-04-18T06:51:57Z</time></trkpt><trkpt lat="45.76244777501054" lon="11.1590469541093"><ele>1116.0</ele><time>2026-04-18T06:51:58Z</time></trkpt><trkpt lat="45.762547922706446" lon="11.158878753297108"><ele>1116.0</ele><time>2026-04-18T06:51:59Z</time></trkpt><trkpt lat="45.76265158510968" lon="11.15871930945342"><ele>1114.0</ele><time>2026-04-18T06:52:00Z</time></trkpt><trkpt lat="45.76274698593997" lon="11.158553911770017"><ele>1112.0</ele><time>2026-04-18T06:52:01Z</time></trkpt><trkpt lat="45.76284602461041" lon="11.158386651125838"><ele>1110.0</ele><time>2026-04-18T06:52:02Z</time></trkpt><trkpt lat="45.7629388252337" lon="11.158233783740917"><ele>1108.0</ele><time>2026-04-18T06:52:03Z</time></trkpt><trkpt lat="45.76305573024416" lon="11.158150995377884"><ele>1104.25</ele><time>2026-04-18T06:52:04Z</time></trkpt><trkpt lat="45.7631901790701" lon="11.158120231156126"><ele>1100.5</ele><time>2026-04-18T06:52:05Z</time></trkpt><trkpt lat="45.76332556821408" lon="11.158120398120369"><ele>1096.75</ele><time>2026-04-18T06:52:06Z</time></trkpt><trkpt lat="45.763451846107834" lon="11.158071088121302"><ele>1093.0</ele><time>2026-04-18T06:52:07Z</time></trkpt><trkpt lat="45.76357119308828" lon="11.157964585302086"><ele>1093.0</ele><time>2026-04-18T06:52:08Z</time></trkpt><trkpt lat="45.76367196800662" lon="11.157812287673035"><ele>1093.0</ele><time>2026-04-18T06:52:09Z</time></trkpt><trkpt lat="45.76374257126079" lon="11.157637375480768"><ele>1093.0</ele><time>2026-04-18T06:52:10Z</time></trkpt><trkpt lat="45.76381768375357" lon="11.157458187373129"><ele>1093.0</ele><time>2026-04-18T06:52:11Z</time></trkpt><trkpt lat="45.763902692943134" lon="11.1573021395798"><ele>1086.25</ele><time>2026-04-18T06:52:12Z</time></trkpt><trkpt lat="45.76400814979464" lon="11.157227724528632"><ele>1079.5</ele><time>2026-04-18T06:52:13Z</time></trkpt><trkpt lat="45.76412455788908" lon="11.157217682632826"><ele>1072.75</ele><time>2026-04-18T06:52:14Z</time></trkpt><trkpt lat="45.76425382882348" lon="11.15722567518962"><ele>1066.0</ele><time>2026-04-18T06:52:15Z</time></trkpt><trkpt lat="45.764393514231365" lon="11.15723157633667"><ele>1065.6666666666665</ele><time>2026-04-18T06:52:16Z</time></trkpt><trkpt lat="45.7645338712738" lon="11.15728528557349"><ele>1065.3333333333333</ele><time>2026-04-18T06:52:17Z</time></trkpt><trkpt lat="45.76467748847185" lon="11.157369940822665"><ele>1065.0</ele><time>2026-04-18T06:52:18Z</time></trkpt><trkpt lat="45.76481575562381" lon="11.157450488174582"><ele>1065.5</ele><time>2026-04-18T06:52:19Z</time></trkpt><trkpt lat="45.76495649601089" lon="11.157505294665668"><ele>1066.0</ele><time>2026-04-18T06:52:20Z</time></trkpt><trkpt lat="45.765082492103524" lon="11.15751222734615"><ele>1066.5</ele><time>2026-04-18T06:52:21Z</time></trkpt><trkpt lat="45.76520043484032" lon="11.157471413143366"><ele>1067.0</ele><time>2026-04-18T06:52:22Z</time></trkpt><trkpt lat="45.76529733334682" lon="11.15737283974029"><ele>1067.6</ele><time>2026-04-18T06:52:23Z</time></trkpt><trkpt lat="45.76536177575538" lon="11.157251923805013"><ele>1068.2</ele><time>2026-04-18T06:52:24Z</time></trkpt><trkpt lat="45.76539490722095" lon="11.157116724533077"><ele>1068.8</ele><time>2026-04-18T06:52:25Z</time></trkpt><trkpt lat="45.76540354188191" lon="11.156993230564055"><ele>1069.4</ele><time>2026-04-18T06:52:26Z</time></trkpt><trkpt lat="45.76534946091654" lon="11.156862432087296"><ele>1070.0</ele><time>2026-04-18T06:52:27Z</time></trkpt><trkpt lat="45.76523677753716" lon="11.156810679524897"><ele>1069.0</ele><time>2026-04-18T06:52:28Z</time></trkpt><trkpt lat="45.765143284664966" lon="11.15677569984835"><ele>1068.0</ele><time>2026-04-18T06:52:29Z</time></trkpt><trkpt lat="45.76506960428741" lon="11.156704751246894"><ele>1067.0</ele><time>2026-04-18T06:52:30Z</time></trkpt><trkpt lat="45.765049966106275" lon="11.15659754170838"><ele>1066.0</ele><time>2026-04-18T06:52:31Z</time></trkpt><trkpt lat="45.76507209783445" lon="11.156466178513083"><ele>1065.0</ele><time>2026-04-18T06:52:32Z</time></trkpt><trkpt lat="45.76517238773399" lon="11.15636690524847"><ele>1062.5</ele><time>2026-04-18T06:52:33Z</time></trkpt><trkpt lat="45.76527798285169" lon="11.15623565125947"><ele>1060.0</ele><time>2026-04-18T06:52:34Z</time></trkpt><trkpt lat="45.76539101597898" lon="11.156087524540453"><ele>1057.5</ele><time>2026-04-18T06:52:35Z</time></trkpt><trkpt lat="45.765516769377726" lon="11.155962647780274"><ele>1055.0</ele><time>2026-04-18T06:52:36Z</time></trkpt><trkpt lat="45.765653086214634" lon="11.155884427570687"><ele>1055.0</ele><time>2026-04-18T06:52:37Z</time></trkpt><trkpt lat="45.76579965105774" lon="11.15578610020602"><ele>1055.0</ele><time>2026-04-18T06:52:38Z</time></trkpt><trkpt lat="45.765928102000316" lon="11.155640646994021"><ele>1055.0</ele><time>2026-04-18T06:52:39Z</time></trkpt><trkpt lat="45.766029789923905" lon="11.155477543055925"><ele>1048.75</ele><time>2026-04-18T06:52:40Z</time></trkpt><trkpt lat="45.76611848115199" lon="11.155351495116395"><ele>1042.5</ele><time>2026-04-18T06:52:41Z</time></trkpt><trkpt lat="45.76621403220475" lon="11.155272318284934"><ele>1036.25</ele><time>2026-04-18T06:52:42Z</time></trkpt><trkpt lat="45.766345045751244" lon="11.155255382101988"><ele>1030.0</ele><time>2026-04-18T06:52:43Z</time></trkpt><trkpt lat="45.76648929297804" lon="11.155291200143077"><ele>1030.0</ele><time>2026-04-18T06:52:44Z</time></trkpt><trkpt lat="45.76663288018345" lon="11.155271222835873"><ele>1030.0</ele><time>2026-04-18T06:52:45Z</time></trkpt><trkpt lat="45.76677288999256" lon="11.15528950213001"><ele>1030.0</ele><time>2026-04-18T06:52:46Z</time></trkpt><trkpt lat="45.7669112703275" lon="11.155350952823193"><ele>1030.0</ele><time>2026-04-18T06:52:47Z</time></trkpt><trkpt lat="45.76702736295227" lon="11.15544376631628"><ele>1029.2</ele><time>2026-04-18T06:52:48Z</time></trkpt><trkpt lat="45.76711076678858" lon="11.155545821240635"><ele>1028.4</ele><time>2026-04-18T06:52:49Z</time></trkpt><trkpt lat="45.767167343474576" lon="11.155669107020874"><ele>1027.6</ele><time>2026-04-18T06:52:50Z</time></trkpt><trkpt lat="45.76716171187568" lon="11.155817960773117"><ele>1026.8</ele><time>2026-04-18T06:52:51Z</time></trkpt><trkpt lat="45.76713734321422" lon="11.155963508153594"><ele>1026.0</ele><time>2026-04-18T06:52:52Z</time></trkpt><trkpt lat="45.76706529580683" lon="11.15610150393117"><ele>1026.0</ele><time>2026-04-18T06:52:53Z</time></trkpt><trkpt lat="45.76697207162" lon="11.156255676754128"><ele>1026.0</ele><time>2026-04-18T06:52:54Z</time></trkpt><trkpt lat="45.766892308004834" lon="11.156432679400075"><ele>1026.0</ele><time>2026-04-18T06:52:55Z</time></trkpt><trkpt lat="45.76682655255073" lon="11.156626184281183"><ele>1026.0</ele><time>2026-04-18T06:52:56Z</time></trkpt><trkpt lat="45.766765739431975" lon="11.156826596675009"><ele>1028.5</ele><time>2026-04-18T06:52:57Z</time></trkpt><trkpt lat="45.76670729621273" lon="11.157028304478898"><ele>1031.0</ele><time>2026-04-18T06:52:58Z</time></trkpt><trkpt lat="45.766653169180515" lon="11.15723964533444"><ele>1033.5</ele><time>2026-04-18T06:52:59Z</time></trkpt><trkpt lat="45.76661713712989" lon="11.157432882952596"><ele>1036.0</ele><time>2026-04-18T06:53:00Z</time></trkpt><trkpt lat="45.76659926075801" lon="11.157615758402295"><ele>1036.0</ele><time>2026-04-18T06:53:01Z</time></trkpt><trkpt lat="45.76662097657245" lon="11.157796869899633"><ele>1036.0</ele><time>2026-04-18T06:53:02Z</time></trkpt><trkpt lat="45.766691998390975" lon="11.15797252059892"><ele>1036.0</ele><time>2026-04-18T06:53:03Z</time></trkpt><trkpt lat="45.766795266582676" lon="11.158110657504785"><ele>1036.0</ele><time>2026-04-18T06:53:04Z</time></trkpt><trkpt lat="45.76691951336791" lon="11.15820823905567"><ele>1031.75</ele><time>2026-04-18T06:53:05Z</time></trkpt><trkpt lat="45.76706101397931" lon="11.158235324527363"><ele>1027.5</ele><time>2026-04-18T06:53:06Z</time></trkpt><trkpt lat="45.7671953550128" lon="11.158221761550543"><ele>1023.25</ele><time>2026-04-18T06:53:07Z</time></trkpt><trkpt lat="45.76731369752105" lon="11.15814286156924"><ele>1019.0</ele><time>2026-04-18T06:53:08Z</time></trkpt><trkpt lat="45.767441336220244" lon="11.158068581699954"><ele>1013.6666666666667</ele><time>2026-04-18T06:53:09Z</time></trkpt><trkpt lat="45.76759805943159" lon="11.158029105741646"><ele>1008.3333333333333</ele><time>2026-04-18T06:53:10Z</time></trkpt><trkpt lat="45.76775862382351" lon="11.157999693231966"><ele>1003.0</ele><time>2026-04-18T06:53:11Z</time></trkpt><trkpt lat="45.76791259594186" lon="11.157971726323535"><ele>998.0</ele><time>2026-04-18T06:53:12Z</time></trkpt><trkpt lat="45.76806371398592" lon="11.157942100987679"><ele>993.0</ele><time>2026-04-18T06:53:13Z</time></trkpt><trkpt lat="45.76820792799216" lon="11.157909016423892"><ele>988.0</ele><time>2026-04-18T06:53:14Z</time></trkpt><trkpt lat="45.768360848460354" lon="11.157878387417416"><ele>988.0</ele><time>2026-04-18T06:53:15Z</time></trkpt><trkpt lat="45.768509313556955" lon="11.15786657064639"><ele>988.0</ele><time>2026-04-18T06:53:16Z</time></trkpt><trkpt lat="45.768647269581145" lon="11.15786139098317"><ele>988.0</ele><time>2026-04-18T06:53:17Z</time></trkpt><trkpt lat="45.768781683968015" lon="11.15785808469781"><ele>988.0</ele><time>2026-04-18T06:53:18Z</time></trkpt><trkpt lat="45.76892174971871" lon="11.157802793644672"><ele>987.75</ele><time>2026-04-18T06:53:19Z</time></trkpt><trkpt lat="45.76902326357734" lon="11.157676517520148"><ele>987.5</ele><time>2026-04-18T06:53:20Z</time></trkpt><trkpt lat="45.76913377738479" lon="11.157595987513549"><ele>987.25</ele><time>2026-04-18T06:53:21Z</time></trkpt><trkpt lat="45.76922989149316" lon="11.15750229754495"><ele>987.0</ele><time>2026-04-18T06:53:22Z</time></trkpt><trkpt lat="45.769312697276426" lon="11.157433591712902"><ele>984.8</ele><time>2026-04-18T06:53:23Z</time></trkpt><trkpt lat="45.76941185629692" lon="11.157430001891397"><ele>982.6</ele><time>2026-04-18T06:53:24Z</time></trkpt><trkpt lat="45.76950196862585" lon="11.15749064536268"><ele>980.3999999999999</ele><time>2026-04-18T06:53:25Z</time></trkpt><trkpt lat="45.76957702292987" lon="11.157605880778574"><ele>978.1999999999999</ele><time>2026-04-18T06:53:26Z</time></trkpt><trkpt lat="45.769673263359" lon="11.157723474589458"><ele>976.0</ele><time>2026-04-18T06:53:27Z</time></trkpt><trkpt lat="45.76977910077479" lon="11.15781686199366"><ele>976.0</ele><time>2026-04-18T06:53:28Z</time></trkpt><trkpt lat="45.76988113392414" lon="11.157870305028755"><ele>975.9999999999999</ele><time>2026-04-18T06:53:29Z</time></trkpt><trkpt lat="45.769990125433246" lon="11.157892076230675"><ele>975.9999999999999</ele><time>2026-04-18T06:53:30Z</time></trkpt><trkpt lat="45.77009120754955" lon="11.15788580520328"><ele>976.0</ele><time>2026-04-18T06:53:31Z</time></trkpt><trkpt lat="45.77019657461281" lon="11.157836911409117"><ele>976.0</ele><time>2026-04-18T06:53:32.012Z</time></trkpt><trkpt lat="45.77029891165712" lon="11.157737925973615"><ele>979.3333333333333</ele><time>2026-04-18T06:53:33.017Z</time></trkpt><trkpt lat="45.770401264312135" lon="11.157615425665227"><ele>982.6666666666667</ele><time>2026-04-18T06:53:34.018Z</time></trkpt><trkpt lat="45.77049811632445" lon="11.157498313741486"><ele>986.0</ele><time>2026-04-18T06:53:35.013Z</time></trkpt><trkpt lat="45.77087420508803" lon="11.15720889532115"><ele>977.0</ele><time>2026-04-18T06:53:38Z</time></trkpt><trkpt lat="45.77096712663824" lon="11.157084022276413"><ele>968.0</ele><time>2026-04-18T06:53:39Z</time></trkpt><trkpt lat="45.771060797122225" lon="11.156935743837474"><ele>959.0</ele><time>2026-04-18T06:53:40Z</time></trkpt><trkpt lat="45.771196980460246" lon="11.15695786435427"><ele>950.0</ele><time>2026-04-18T06:53:41Z</time></trkpt><trkpt lat="45.77129770014949" lon="11.156967996154782"><ele>947.25</ele><time>2026-04-18T06:53:42Z</time></trkpt><trkpt lat="45.77143670691168" lon="11.157002031621012"><ele>944.5</ele><time>2026-04-18T06:53:43Z</time></trkpt><trkpt lat="45.771571519572795" lon="11.157073898082718"><ele>941.75</ele><time>2026-04-18T06:53:44Z</time></trkpt><trkpt lat="45.77172444165525" lon="11.15712355694194"><ele>939.0</ele><time>2026-04-18T06:53:45Z</time></trkpt><trkpt lat="45.77189807831064" lon="11.157155976795801"><ele>933.6666666666667</ele><time>2026-04-18T06:53:46Z</time></trkpt><trkpt lat="45.772065331914135" lon="11.157156776932357"><ele>928.3333333333334</ele><time>2026-04-18T06:53:47Z</time></trkpt><trkpt lat="45.772233197661734" lon="11.15715718178554"><ele>923.0</ele><time>2026-04-18T06:53:48Z</time></trkpt><trkpt lat="45.7723909637921" lon="11.157185575549198"><ele>923.0</ele><time>2026-04-18T06:53:49Z</time></trkpt><trkpt lat="45.77255684561351" lon="11.157225285242067"><ele>923.0</ele><time>2026-04-18T06:53:50Z</time></trkpt><trkpt lat="45.772719467720364" lon="11.157270934946322"><ele>923.0</ele><time>2026-04-18T06:53:51Z</time></trkpt><trkpt lat="45.77286733484023" lon="11.157272548710768"><ele>922.75</ele><time>2026-04-18T06:53:52Z</time></trkpt><trkpt lat="45.77300455226939" lon="11.15729288170317"><ele>922.5</ele><time>2026-04-18T06:53:53Z</time></trkpt><trkpt lat="45.77313835564106" lon="11.157342133362386"><ele>922.25</ele><time>2026-04-18T06:53:54Z</time></trkpt><trkpt lat="45.77326373242374" lon="11.157429913783902"><ele>922.0</ele><time>2026-04-18T06:53:55Z</time></trkpt><trkpt lat="45.773370583697236" lon="11.157505662151816"><ele>927.5</ele><time>2026-04-18T06:53:56Z</time></trkpt><trkpt lat="45.773481037358955" lon="11.157541384762176"><ele>933.0</ele><time>2026-04-18T06:53:57Z</time></trkpt><trkpt lat="45.77361133454477" lon="11.157522932701694"><ele>938.5</ele><time>2026-04-18T06:53:58Z</time></trkpt><trkpt lat="45.77373388357235" lon="11.157443183269393"><ele>944.0</ele><time>2026-04-18T06:53:59Z</time></trkpt><trkpt lat="45.77383932672121" lon="11.157325865022171"><ele>944.0</ele><time>2026-04-18T06:54:00Z</time></trkpt><trkpt lat="45.77392422530994" lon="11.157195453486205"><ele>944.0</ele><time>2026-04-18T06:54:01Z</time></trkpt><trkpt lat="45.7740084970474" lon="11.157058374894214"><ele>944.0</ele><time>2026-04-18T06:54:02Z</time></trkpt><trkpt lat="45.77407819438827" lon="11.156915764479194"><ele>944.0</ele><time>2026-04-18T06:54:03Z</time></trkpt><trkpt lat="45.77407937315553" lon="11.156756927999801"><ele>944.0</ele><time>2026-04-18T06:54:04Z</time></trkpt><trkpt lat="45.77409476368021" lon="11.156612022953114"><ele>944.0</ele><time>2026-04-18T06:54:05Z</time></trkpt><trkpt lat="45.77406486465268" lon="11.156450541504514"><ele>944.0</ele><time>2026-04-18T06:54:06Z</time></trkpt><trkpt lat="45.774000769444235" lon="11.156279928439696"><ele>944.0</ele><time>2026-04-18T06:54:07Z</time></trkpt><trkpt lat="45.77395734380611" lon="11.156085515194269"><ele>954.25</ele><time>2026-04-18T06:54:08Z</time></trkpt><trkpt lat="45.773895576781115" lon="11.15588653527747"><ele>964.5</ele><time>2026-04-18T06:54:09Z</time></trkpt><trkpt lat="45.773823213598334" lon="11.155696488710104"><ele>974.75</ele><time>2026-04-18T06:54:10Z</time></trkpt><trkpt lat="45.77375388711692" lon="11.155514833090205"><ele>985.0</ele><time>2026-04-18T06:54:11Z</time></trkpt><trkpt lat="45.77368847977251" lon="11.155351136340524"><ele>988.0</ele><time>2026-04-18T06:54:12Z</time></trkpt><trkpt lat="45.77360620458015" lon="11.155220060193065"><ele>991.0</ele><time>2026-04-18T06:54:13Z</time></trkpt><trkpt lat="45.77348482934534" lon="11.15515600378342"><ele>994.0</ele><time>2026-04-18T06:54:14Z</time></trkpt><trkpt lat="45.773373201519405" lon="11.155141538969877"><ele>997.0</ele><time>2026-04-18T06:54:15Z</time></trkpt><trkpt lat="45.77328213509882" lon="11.15509710572116"><ele>993.5</ele><time>2026-04-18T06:54:16Z</time></trkpt><trkpt lat="45.77322504733411" lon="11.155004251030176"><ele>990.0</ele><time>2026-04-18T06:54:17Z</time></trkpt><trkpt lat="45.77317179799471" lon="11.154878384362933"><ele>986.5</ele><time>2026-04-18T06:54:18Z</time></trkpt><trkpt lat="45.77309499795449" lon="11.15472383727822"><ele>983.0</ele><time>2026-04-18T06:54:19Z</time></trkpt><trkpt lat="45.773011174616485" lon="11.154566323010387"><ele>983.0</ele><time>2026-04-18T06:54:20Z</time></trkpt><trkpt lat="45.77291504889073" lon="11.154406471930221"><ele>983.0</ele><time>2026-04-18T06:54:21Z</time></trkpt><trkpt lat="45.77280656721688" lon="11.15423214801218"><ele>983.0</ele><time>2026-04-18T06:54:22Z</time></trkpt><trkpt lat="45.77270036723409" lon="11.15404836601465"><ele>979.0</ele><time>2026-04-18T06:54:23Z</time></trkpt><trkpt lat="45.77255798266456" lon="11.15386527105274"><ele>975.0</ele><time>2026-04-18T06:54:24Z</time></trkpt><trkpt lat="45.77240295218302" lon="11.153711601415258"><ele>971.0</ele><time>2026-04-18T06:54:25Z</time></trkpt><trkpt lat="45.772264744303236" lon="11.153543495271684"><ele>971.0</ele><time>2026-04-18T06:54:26Z</time></trkpt><trkpt lat="45.77212546786882" lon="11.15335843798491"><ele>971.0</ele><time>2026-04-18T06:54:27Z</time></trkpt><trkpt lat="45.77198253519267" lon="11.153170884699897"><ele>971.0</ele><time>2026-04-18T06:54:28Z</time></trkpt><trkpt lat="45.771845226833655" lon="11.152990217484358"><ele>971.3333333333334</ele><time>2026-04-18T06:54:29Z</time></trkpt><trkpt lat="45.771706803971455" lon="11.152822875319137"><ele>971.6666666666667</ele><time>2026-04-18T06:54:30Z</time></trkpt><trkpt lat="45.77155976237553" lon="11.152696247986183"><ele>972.0</ele><time>2026-04-18T06:54:31Z</time></trkpt><trkpt lat="45.7714134920042" lon="11.152636303635363"><ele>972.0</ele><time>2026-04-18T06:54:32Z</time></trkpt><trkpt lat="45.771292754401266" lon="11.152599369937493"><ele>972.0</ele><time>2026-04-18T06:54:33Z</time></trkpt><trkpt lat="45.771185633837234" lon="11.15255201384028"><ele>972.0</ele><time>2026-04-18T06:54:34Z</time></trkpt><trkpt lat="45.77112776033748" lon="11.152411591432779"><ele>972.0</ele><time>2026-04-18T06:54:35Z</time></trkpt><trkpt lat="45.77103922892819" lon="11.152283672453857"><ele>973.25</ele><time>2026-04-18T06:54:36Z</time></trkpt><trkpt lat="45.77093191094085" lon="11.15216236218797"><ele>974.5</ele><time>2026-04-18T06:54:37Z</time></trkpt><trkpt lat="45.77080457999782" lon="11.152060931561607"><ele>975.75</ele><time>2026-04-18T06:54:38Z</time></trkpt><trkpt lat="45.77066199244016" lon="11.151991395952452"><ele>977.0</ele><time>2026-04-18T06:54:39Z</time></trkpt><trkpt lat="45.77054630086178" lon="11.151947045213996"><ele>977.0</ele><time>2026-04-18T06:54:40Z</time></trkpt><trkpt lat="45.770452420883586" lon="11.151895281246958"><ele>977.0</ele><time>2026-04-18T06:54:41Z</time></trkpt><trkpt lat="45.77039222199796" lon="11.151810850557867"><ele>977.0</ele><time>2026-04-18T06:54:42Z</time></trkpt><trkpt lat="45.77036932095226" lon="11.151692408970169"><ele>977.0</ele><time>2026-04-18T06:54:43Z</time></trkpt><trkpt lat="45.77036932324252" lon="11.151542782488097"><ele>977.0</ele><time>2026-04-18T06:54:44Z</time></trkpt><trkpt lat="45.770342420326934" lon="11.151389970739695"><ele>977.4000000000001</ele><time>2026-04-18T06:54:45Z</time></trkpt><trkpt lat="45.77027187288456" lon="11.151265515854403"><ele>977.8000000000001</ele><time>2026-04-18T06:54:46Z</time></trkpt><trkpt lat="45.77017665453902" lon="11.151200463499425"><ele>978.2</ele><time>2026-04-18T06:54:47Z</time></trkpt><trkpt lat="45.77007975634483" lon="11.151185130093081"><ele>978.6</ele><time>2026-04-18T06:54:48Z</time></trkpt><trkpt lat="45.76997609081252" lon="11.151178419896304"><ele>979.0</ele><time>2026-04-18T06:54:49Z</time></trkpt><trkpt lat="45.76987382343728" lon="11.151135363915284"><ele>979.0</ele><time>2026-04-18T06:54:50Z</time></trkpt><trkpt lat="45.76978153295885" lon="11.151032156391679"><ele>979.0</ele><time>2026-04-18T06:54:51Z</time></trkpt><trkpt lat="45.769709565360905" lon="11.150890355517628"><ele>979.0</ele><time>2026-04-18T06:54:52Z</time></trkpt><trkpt lat="45.76962216082033" lon="11.150726012652223"><ele>979.0</ele><time>2026-04-18T06:54:53Z</time></trkpt><trkpt lat="45.76952505366898" lon="11.150553543136969"><ele>978.5</ele><time>2026-04-18T06:54:54Z</time></trkpt><trkpt lat="45.769440637538665" lon="11.150395623939131"><ele>978.0</ele><time>2026-04-18T06:54:55Z</time></trkpt><trkpt lat="45.769381399569255" lon="11.150228686085248"><ele>977.5</ele><time>2026-04-18T06:54:56Z</time></trkpt><trkpt lat="45.76932284360199" lon="11.150034460350188"><ele>977.0</ele><time>2026-04-18T06:54:57Z</time></trkpt><trkpt lat="45.76924940501436" lon="11.149846609700678"><ele>981.5</ele><time>2026-04-18T06:54:58Z</time></trkpt><trkpt lat="45.76915190854023" lon="11.149686042267136"><ele>986.0</ele><time>2026-04-18T06:54:59Z</time></trkpt><trkpt lat="45.76901163111468" lon="11.14960109517854"><ele>990.5</ele><time>2026-04-18T06:55:00Z</time></trkpt><trkpt lat="45.76886624015891" lon="11.149588767310002"><ele>995.0</ele><time>2026-04-18T06:55:01Z</time></trkpt><trkpt lat="45.76872083186612" lon="11.14953295453003"><ele>995.0</ele><time>2026-04-18T06:55:02Z</time></trkpt><trkpt lat="45.76857695568272" lon="11.14951450853712"><ele>995.0</ele><time>2026-04-18T06:55:03Z</time></trkpt><trkpt lat="45.7684517994024" lon="11.14950895172019"><ele>995.0</ele><time>2026-04-18T06:55:04Z</time></trkpt><trkpt lat="45.76836183707058" lon="11.149496358624035"><ele>995.0</ele><time>2026-04-18T06:55:05Z</time></trkpt><trkpt lat="45.768303606263835" lon="11.149438368542839"><ele>995.0</ele><time>2026-04-18T06:55:06Z</time></trkpt><trkpt lat="45.76829321838624" lon="11.149325648080454"><ele>997.6</ele><time>2026-04-18T06:55:07Z</time></trkpt><trkpt lat="45.76834297928092" lon="11.149224344569147"><ele>1000.2</ele><time>2026-04-18T06:55:08Z</time></trkpt><trkpt lat="45.76841972207226" lon="11.149136736270064"><ele>1002.8</ele><time>2026-04-18T06:55:09Z</time></trkpt><trkpt lat="45.76849381980517" lon="11.149004082542715"><ele>1005.4</ele><time>2026-04-18T06:55:10Z</time></trkpt><trkpt lat="45.76855128590061" lon="11.148832497059207"><ele>1008.0</ele><time>2026-04-18T06:55:11Z</time></trkpt><trkpt lat="45.76861585559509" lon="11.148651447669666"><ele>1008.0</ele><time>2026-04-18T06:55:12Z</time></trkpt><trkpt lat="45.76865463422429" lon="11.148472687412019"><ele>1008.0</ele><time>2026-04-18T06:55:13Z</time></trkpt><trkpt lat="45.768671742085665" lon="11.14829996880924"><ele>1008.0</ele><time>2026-04-18T06:55:14Z</time></trkpt><trkpt lat="45.768621004410136" lon="11.1481271232498"><ele>1008.0</ele><time>2026-04-18T06:55:15Z</time></trkpt><trkpt lat="45.76853270938548" lon="11.147992379495598"><ele>1004.0</ele><time>2026-04-18T06:55:16Z</time></trkpt><trkpt lat="45.76841233193811" lon="11.147903934833336"><ele>1000.0</ele><time>2026-04-18T06:55:17Z</time></trkpt><trkpt lat="45.76828133501882" lon="11.14782457999434"><ele>996.0</ele><time>2026-04-18T06:55:18Z</time></trkpt><trkpt lat="45.768121026120525" lon="11.147729825766318"><ele>996.0</ele><time>2026-04-18T06:55:19Z</time></trkpt><trkpt lat="45.767962942956274" lon="11.147636798447094"><ele>996.0</ele><time>2026-04-18T06:55:20Z</time></trkpt><trkpt lat="45.767807730346156" lon="11.14758005111331"><ele>996.0</ele><time>2026-04-18T06:55:21Z</time></trkpt><trkpt lat="45.7676704861469" lon="11.14754183298222"><ele>996.0</ele><time>2026-04-18T06:55:22Z</time></trkpt><trkpt lat="45.767584903120984" lon="11.147430777161107"><ele>996.0</ele><time>2026-04-18T06:55:23Z</time></trkpt><trkpt lat="45.7675565025136" lon="11.14728062943583"><ele>996.0</ele><time>2026-04-18T06:55:24Z</time></trkpt><trkpt lat="45.767516465332456" lon="11.147120397476355"><ele>996.0</ele><time>2026-04-18T06:55:25Z</time></trkpt><trkpt lat="45.767459880808254" lon="11.146942527826882"><ele>996.0</ele><time>2026-04-18T06:55:26Z</time></trkpt><trkpt lat="45.767411197705755" lon="11.146773484747909"><ele>996.0</ele><time>2026-04-18T06:55:27Z</time></trkpt><trkpt lat="45.767395761790006" lon="11.1466001209256"><ele>996.0</ele><time>2026-04-18T06:55:28Z</time></trkpt><trkpt lat="45.76740535709141" lon="11.146386147339499"><ele>996.0</ele><time>2026-04-18T06:55:29Z</time></trkpt><trkpt lat="45.76740304036788" lon="11.146138442540229"><ele>996.0</ele><time>2026-04-18T06:55:30Z</time></trkpt><trkpt lat="45.76739948166623" lon="11.145881029778112"><ele>996.0</ele><time>2026-04-18T06:55:31Z</time></trkpt><trkpt lat="45.76739625747119" lon="11.14564279111527"><ele>996.0</ele><time>2026-04-18T06:55:32Z</time></trkpt><trkpt lat="45.767398229528204" lon="11.145420826065065"><ele>997.5</ele><time>2026-04-18T06:55:33Z</time></trkpt><trkpt lat="45.76742202151018" lon="11.145228953621519"><ele>999.0</ele><time>2026-04-18T06:55:34Z</time></trkpt><trkpt lat="45.76748506826321" lon="11.14504751196782"><ele>1000.5</ele><time>2026-04-18T06:55:35Z</time></trkpt><trkpt lat="45.76758310149429" lon="11.144889968939252"><ele>1002.0</ele><time>2026-04-18T06:55:36Z</time></trkpt><trkpt lat="45.76769645952185" lon="11.144724554989867"><ele>1002.0</ele><time>2026-04-18T06:55:37Z</time></trkpt><trkpt lat="45.76781348548357" lon="11.144587833105295"><ele>1002.0</ele><time>2026-04-18T06:55:38Z</time></trkpt><trkpt lat="45.76791588989193" lon="11.144452723584816"><ele>1002.0</ele><time>2026-04-18T06:55:39Z</time></trkpt><trkpt lat="45.768002280057104" lon="11.1443044882568"><ele>1002.0</ele><time>2026-04-18T06:55:40Z</time></trkpt><trkpt lat="45.768118591372584" lon="11.144199160822966"><ele>996.0</ele><time>2026-04-18T06:55:41Z</time></trkpt><trkpt lat="45.76814650801286" lon="11.143947940094728"><ele>990.0</ele><time>2026-04-18T06:55:42Z</time></trkpt><trkpt lat="45.76802383749383" lon="11.143774444038774"><ele>984.0</ele><time>2026-04-18T06:55:43Z</time></trkpt><trkpt lat="45.768023748009384" lon="11.1436008160068"><ele>984.0</ele><time>2026-04-18T06:55:44Z</time></trkpt><trkpt lat="45.768065737125795" lon="11.1434409309789"><ele>984.0</ele><time>2026-04-18T06:55:45Z</time></trkpt><trkpt lat="45.76814303294954" lon="11.143304345474633"><ele>984.0</ele><time>2026-04-18T06:55:46Z</time></trkpt><trkpt lat="45.768248232081895" lon="11.14318267066583"><ele>984.0</ele><time>2026-04-18T06:55:47Z</time></trkpt><trkpt lat="45.76834874313357" lon="11.143051152495543"><ele>984.0</ele><time>2026-04-18T06:55:48Z</time></trkpt><trkpt lat="45.768438947391715" lon="11.142898007332457"><ele>984.0</ele><time>2026-04-18T06:55:49Z</time></trkpt><trkpt lat="45.76850116341758" lon="11.142695261445816"><ele>984.0</ele><time>2026-04-18T06:55:50Z</time></trkpt><trkpt lat="45.76854693378181" lon="11.1424842732691"><ele>984.0</ele><time>2026-04-18T06:55:51Z</time></trkpt><trkpt lat="45.768584772375696" lon="11.142269152190176"><ele>982.0</ele><time>2026-04-18T06:55:52Z</time></trkpt><trkpt lat="45.76861376945003" lon="11.14204954079455"><ele>980.0</ele><time>2026-04-18T06:55:53Z</time></trkpt><trkpt lat="45.768623426956644" lon="11.141827964476171"><ele>978.0</ele><time>2026-04-18T06:55:54Z</time></trkpt><trkpt lat="45.76860759622204" lon="11.141612019949827"><ele>973.6666666666667</ele><time>2026-04-18T06:55:55Z</time></trkpt><trkpt lat="45.76866446116512" lon="11.141409139594721"><ele>969.3333333333334</ele><time>2026-04-18T06:55:56Z</time></trkpt><trkpt lat="45.76870906215162" lon="11.14119681071886"><ele>965.0</ele><time>2026-04-18T06:55:57Z</time></trkpt><trkpt lat="45.768750084832746" lon="11.14098360192327"><ele>965.0</ele><time>2026-04-18T06:55:58Z</time></trkpt><trkpt lat="45.7688044632146" lon="11.14078726847107"><ele>965.0</ele><time>2026-04-18T06:55:59Z</time></trkpt><trkpt lat="45.7688951028819" lon="11.140620637023162"><ele>965.0</ele><time>2026-04-18T06:56:00Z</time></trkpt><trkpt lat="45.76897361177548" lon="11.140465951801513"><ele>965.0</ele><time>2026-04-18T06:56:01Z</time></trkpt><trkpt lat="45.76904268190816" lon="11.140335994340322"><ele>959.6</ele><time>2026-04-18T06:56:02Z</time></trkpt><trkpt lat="45.76909592475215" lon="11.140229344668139"><ele>954.2</ele><time>2026-04-18T06:56:03Z</time></trkpt><trkpt lat="45.769180511483235" lon="11.140210315057676"><ele>948.8</ele><time>2026-04-18T06:56:04Z</time></trkpt><trkpt lat="45.769286282617756" lon="11.140250112292655"><ele>943.4</ele><time>2026-04-18T06:56:05Z</time></trkpt><trkpt lat="45.76939736244217" lon="11.140331307597625"><ele>938.0</ele><time>2026-04-18T06:56:06Z</time></trkpt><trkpt lat="45.76950882013687" lon="11.140434770329092"><ele>938.0</ele><time>2026-04-18T06:56:07Z</time></trkpt><trkpt lat="45.7696034418934" lon="11.140549906086559"><ele>938.0</ele><time>2026-04-18T06:56:08Z</time></trkpt><trkpt lat="45.76969227304974" lon="11.14065949840525"><ele>938.0</ele><time>2026-04-18T06:56:09Z</time></trkpt><trkpt lat="45.769791904574845" lon="11.14071837591564"><ele>938.0</ele><time>2026-04-18T06:56:10Z</time></trkpt><trkpt lat="45.769893313713276" lon="11.140729358463279"><ele>938.0</ele><time>2026-04-18T06:56:11Z</time></trkpt><trkpt lat="45.76999003523566" lon="11.140661939948632"><ele>938.0</ele><time>2026-04-18T06:56:12Z</time></trkpt><trkpt lat="45.770043152198845" lon="11.140539070331211"><ele>938.0</ele><time>2026-04-18T06:56:13Z</time></trkpt><trkpt lat="45.770057769521244" lon="11.14038349905427"><ele>938.0</ele><time>2026-04-18T06:56:14Z</time></trkpt><trkpt lat="45.770038336517366" lon="11.140208577293636"><ele>938.0</ele><time>2026-04-18T06:56:15Z</time></trkpt><trkpt lat="45.77003417281478" lon="11.139998330616363"><ele>934.6666666666667</ele><time>2026-04-18T06:56:16Z</time></trkpt><trkpt lat="45.77002857425202" lon="11.13977584892812"><ele>931.3333333333333</ele><time>2026-04-18T06:56:17Z</time></trkpt><trkpt lat="45.77002716224546" lon="11.139533869271807"><ele>928.0</ele><time>2026-04-18T06:56:18Z</time></trkpt><trkpt lat="45.77003180258714" lon="11.139283064153933"><ele>926.3333333333333</ele><time>2026-04-18T06:56:19Z</time></trkpt><trkpt lat="45.770043444650014" lon="11.139033850947191"><ele>924.6666666666667</ele><time>2026-04-18T06:56:20Z</time></trkpt><trkpt lat="45.77008834313159" lon="11.138795756790964"><ele>923.0</ele><time>2026-04-18T06:56:21Z</time></trkpt><trkpt lat="45.77012683017497" lon="11.138580418206834"><ele>923.0</ele><time>2026-04-18T06:56:22Z</time></trkpt><trkpt lat="45.77015620812204" lon="11.138389361141355"><ele>923.0</ele><time>2026-04-18T06:56:23Z</time></trkpt><trkpt lat="45.77017605326482" lon="11.138215025891874"><ele>923.0</ele><time>2026-04-18T06:56:24Z</time></trkpt><trkpt lat="45.770213725992235" lon="11.138068888413008"><ele>923.0</ele><time>2026-04-18T06:56:25Z</time></trkpt><trkpt lat="45.770289109635364" lon="11.137931990208834"><ele>923.6666666666667</ele><time>2026-04-18T06:56:26Z</time></trkpt><trkpt lat="45.7704019370985" lon="11.137809356880718"><ele>924.3333333333333</ele><time>2026-04-18T06:56:27Z</time></trkpt><trkpt lat="45.77053030108571" lon="11.137672236624034"><ele>925.0</ele><time>2026-04-18T06:56:28Z</time></trkpt><trkpt lat="45.77065841597427" lon="11.137517522520882"><ele>918.6666666666666</ele><time>2026-04-18T06:56:29Z</time></trkpt><trkpt lat="45.77078334695255" lon="11.137354555196577"><ele>912.3333333333333</ele><time>2026-04-18T06:56:30Z</time></trkpt><trkpt lat="45.77090779599858" lon="11.137204097926215"><ele>906.0</ele><time>2026-04-18T06:56:31Z</time></trkpt><trkpt lat="45.77103476546491" lon="11.137084107553461"><ele>905.25</ele><time>2026-04-18T06:56:32Z</time></trkpt><trkpt lat="45.77117258520052" lon="11.136977336838438"><ele>904.5</ele><time>2026-04-18T06:56:33Z</time></trkpt><trkpt lat="45.77131249234412" lon="11.136887111222206"><ele>903.75</ele><time>2026-04-18T06:56:34Z</time></trkpt><trkpt lat="45.77143538054326" lon="11.136814713710349"><ele>903.0</ele><time>2026-04-18T06:56:35Z</time></trkpt><trkpt lat="45.77152304579767" lon="11.136718779227259"><ele>903.0</ele><time>2026-04-18T06:56:36Z</time></trkpt><trkpt lat="45.77157314475072" lon="11.13656523274066"><ele>903.0</ele><time>2026-04-18T06:56:37Z</time></trkpt><trkpt lat="45.77158022232387" lon="11.136384391579252"><ele>903.0</ele><time>2026-04-18T06:56:38Z</time></trkpt><trkpt lat="45.771603029032676" lon="11.136186920761006"><ele>903.0</ele><time>2026-04-18T06:56:39Z</time></trkpt><trkpt lat="45.77159561274737" lon="11.135967988278102"><ele>901.5</ele><time>2026-04-18T06:56:40Z</time></trkpt><trkpt lat="45.77160992911283" lon="11.135760061092691"><ele>900.0</ele><time>2026-04-18T06:56:41Z</time></trkpt><trkpt lat="45.771611832246776" lon="11.135555326616812"><ele>898.5</ele><time>2026-04-18T06:56:42Z</time></trkpt><trkpt lat="45.771604697867765" lon="11.135353313974614"><ele>897.0</ele><time>2026-04-18T06:56:43Z</time></trkpt><trkpt lat="45.771594104718254" lon="11.135152128211084"><ele>896.75</ele><time>2026-04-18T06:56:44Z</time></trkpt><trkpt lat="45.77157105591854" lon="11.134959473974652"><ele>896.5</ele><time>2026-04-18T06:56:45Z</time></trkpt><trkpt lat="45.77156729554914" lon="11.13478109587765"><ele>896.25</ele><time>2026-04-18T06:56:46Z</time></trkpt><trkpt lat="45.77155601181424" lon="11.134614267445606"><ele>896.0</ele><time>2026-04-18T06:56:47Z</time></trkpt><trkpt lat="45.77154655028257" lon="11.134470318772605"><ele>894.8</ele><time>2026-04-18T06:56:48Z</time></trkpt><trkpt lat="45.771595535331656" lon="11.13435384016757"><ele>893.5999999999999</ele><time>2026-04-18T06:56:49Z</time></trkpt><trkpt lat="45.77167565110255" lon="11.134285781748435"><ele>892.4</ele><time>2026-04-18T06:56:50Z</time></trkpt><trkpt lat="45.77177764944396" lon="11.134253251000954"><ele>891.2</ele><time>2026-04-18T06:56:51Z</time></trkpt><trkpt lat="45.771883964657356" lon="11.134209872390405"><ele>890.0</ele><time>2026-04-18T06:56:52Z</time></trkpt><trkpt lat="45.77198942952159" lon="11.13416657670685"><ele>890.0</ele><time>2026-04-18T06:56:53Z</time></trkpt><trkpt lat="45.77209966407331" lon="11.13416508547912"><ele>890.0</ele><time>2026-04-18T06:56:54Z</time></trkpt><trkpt lat="45.77222128345154" lon="11.134183355945698"><ele>890.0</ele><time>2026-04-18T06:56:55Z</time></trkpt><trkpt lat="45.7723519098735" lon="11.134198117057176"><ele>890.0</ele><time>2026-04-18T06:56:56Z</time></trkpt><trkpt lat="45.772487224906314" lon="11.134184290212751"><ele>890.0</ele><time>2026-04-18T06:56:57Z</time></trkpt><trkpt lat="45.772616458903535" lon="11.13415345980101"><ele>890.0</ele><time>2026-04-18T06:56:58Z</time></trkpt><trkpt lat="45.77272849226031" lon="11.134124304912335"><ele>890.0</ele><time>2026-04-18T06:56:59Z</time></trkpt><trkpt lat="45.772840961431854" lon="11.134084252227765"><ele>890.0</ele><time>2026-04-18T06:57:00Z</time></trkpt><trkpt lat="45.77295089638851" lon="11.13402121308695"><ele>888.0</ele><time>2026-04-18T06:57:01Z</time></trkpt><trkpt lat="45.773057564146896" lon="11.133920620858996"><ele>886.0</ele><time>2026-04-18T06:57:02Z</time></trkpt><trkpt lat="45.773177786504384" lon="11.133802376206926"><ele>884.0</ele><time>2026-04-18T06:57:03Z</time></trkpt><trkpt lat="45.77329581813141" lon="11.133683508788458"><ele>882.0</ele><time>2026-04-18T06:57:04Z</time></trkpt><trkpt lat="45.77340418315919" lon="11.13355109413611"><ele>882.0</ele><time>2026-04-18T06:57:05Z</time></trkpt><trkpt lat="45.77348208804897" lon="11.133388641049043"><ele>882.0</ele><time>2026-04-18T06:57:06Z</time></trkpt><trkpt lat="45.77353560042774" lon="11.133209425490683"><ele>882.0</ele><time>2026-04-18T06:57:07Z</time></trkpt><trkpt lat="45.77356540262606" lon="11.133024377227029"><ele>882.0</ele><time>2026-04-18T06:57:08Z</time></trkpt><trkpt lat="45.77357597646364" lon="11.132835977941435"><ele>881.25</ele><time>2026-04-18T06:57:09Z</time></trkpt><trkpt lat="45.77356095072931" lon="11.13265033808481"><ele>880.5</ele><time>2026-04-18T06:57:10Z</time></trkpt><trkpt lat="45.7735318883578" lon="11.132465594870853"><ele>879.75</ele><time>2026-04-18T06:57:11Z</time></trkpt><trkpt lat="45.77346861026676" lon="11.132293777521442"><ele>879.0</ele><time>2026-04-18T06:57:12Z</time></trkpt><trkpt lat="45.77339124391333" lon="11.132133198111998"><ele>879.0</ele><time>2026-04-18T06:57:13Z</time></trkpt><trkpt lat="45.773322250140076" lon="11.131970470422353"><ele>879.0</ele><time>2026-04-18T06:57:14Z</time></trkpt><trkpt lat="45.77327216994231" lon="11.131788796429943"><ele>879.0</ele><time>2026-04-18T06:57:15Z</time></trkpt><trkpt lat="45.77322373928074" lon="11.1315895845931"><ele>879.0</ele><time>2026-04-18T06:57:16Z</time></trkpt><trkpt lat="45.77315812062452" lon="11.131381305717648"><ele>880.0</ele><time>2026-04-18T06:57:17Z</time></trkpt><trkpt lat="45.7731047037466" lon="11.131148623742352"><ele>881.0</ele><time>2026-04-18T06:57:18Z</time></trkpt><trkpt lat="45.77305525551982" lon="11.130924697652071"><ele>882.0</ele><time>2026-04-18T06:57:19Z</time></trkpt><trkpt lat="45.77298803229033" lon="11.130714086479284"><ele>882.5</ele><time>2026-04-18T06:57:20Z</time></trkpt><trkpt lat="45.772935363446" lon="11.130512153477014"><ele>883.0</ele><time>2026-04-18T06:57:21Z</time></trkpt><trkpt lat="45.77286533107833" lon="11.130329545490172"><ele>883.5</ele><time>2026-04-18T06:57:22Z</time></trkpt><trkpt lat="45.77280158649942" lon="11.130156000471523"><ele>884.0</ele><time>2026-04-18T06:57:23Z</time></trkpt><trkpt lat="45.772752588983316" lon="11.130005821021303"><ele>879.5</ele><time>2026-04-18T06:57:24Z</time></trkpt><trkpt lat="45.77272253884667" lon="11.129852917365348"><ele>875.0</ele><time>2026-04-18T06:57:25Z</time></trkpt><trkpt lat="45.77274604676015" lon="11.129687382993925"><ele>870.5</ele><time>2026-04-18T06:57:26Z</time></trkpt><trkpt lat="45.772791181814206" lon="11.12953197696903"><ele>866.0</ele><time>2026-04-18T06:57:27Z</time></trkpt><trkpt lat="45.77286498640224" lon="11.12939432235364"><ele>866.0</ele><time>2026-04-18T06:57:28Z</time></trkpt><trkpt lat="45.77296424177775" lon="11.12929432625756"><ele>866.0</ele><time>2026-04-18T06:57:29Z</time></trkpt><trkpt lat="45.773089987238386" lon="11.129237881642451"><ele>866.0</ele><time>2026-04-18T06:57:30Z</time></trkpt><trkpt lat="45.77323295405251" lon="11.129211311328355"><ele>866.0</ele><time>2026-04-18T06:57:31Z</time></trkpt><trkpt lat="45.773388186873625" lon="11.129191409093703"><ele>869.3333333333334</ele><time>2026-04-18T06:57:32Z</time></trkpt><trkpt lat="45.77354174741684" lon="11.129157608337046"><ele>872.6666666666667</ele><time>2026-04-18T06:57:33Z</time></trkpt><trkpt lat="45.77368933454021" lon="11.129108074546101"><ele>876.0</ele><time>2026-04-18T06:57:34Z</time></trkpt><trkpt lat="45.77383219594222" lon="11.129029898229751"><ele>868.6666666666667</ele><time>2026-04-18T06:57:35Z</time></trkpt><trkpt lat="45.77396432099051" lon="11.128906146192373"><ele>861.3333333333334</ele><time>2026-04-18T06:57:36Z</time></trkpt><trkpt lat="45.7740782111722" lon="11.128751677338581"><ele>854.0</ele><time>2026-04-18T06:57:37Z</time></trkpt><trkpt lat="45.774188608050515" lon="11.12858715056007"><ele>854.0</ele><time>2026-04-18T06:57:38Z</time></trkpt><trkpt lat="45.7742737307978" lon="11.128392855041266"><ele>854.0</ele><time>2026-04-18T06:57:39Z</time></trkpt><trkpt lat="45.7744066158939" lon="11.12827199933148"><ele>854.0</ele><time>2026-04-18T06:57:40Z</time></trkpt><trkpt lat="45.774538342848615" lon="11.12814072389622"><ele>850.6666666666667</ele><time>2026-04-18T06:57:41Z</time></trkpt><trkpt lat="45.7746812937904" lon="11.12803128718002"><ele>847.3333333333333</ele><time>2026-04-18T06:57:42Z</time></trkpt><trkpt lat="45.77480055898893" lon="11.127891470423448"><ele>844.0</ele><time>2026-04-18T06:57:43Z</time></trkpt><trkpt lat="45.774891940478746" lon="11.127729012209993"><ele>844.0</ele><time>2026-04-18T06:57:44Z</time></trkpt><trkpt lat="45.77496093265396" lon="11.127526093916"><ele>844.0</ele><time>2026-04-18T06:57:45Z</time></trkpt><trkpt lat="45.77503459410888" lon="11.127319142884893"><ele>844.0</ele><time>2026-04-18T06:57:46Z</time></trkpt><trkpt lat="45.77510727103087" lon="11.12711420904691"><ele>841.6666666666666</ele><time>2026-04-18T06:57:47Z</time></trkpt><trkpt lat="45.775184425523854" lon="11.126910794624086"><ele>839.3333333333333</ele><time>2026-04-18T06:57:48Z</time></trkpt><trkpt lat="45.77526318385606" lon="11.126710122244818"><ele>837.0</ele><time>2026-04-18T06:57:49Z</time></trkpt><trkpt lat="45.77534299145256" lon="11.126505193696909"><ele>837.0</ele><time>2026-04-18T06:57:50Z</time></trkpt><trkpt lat="45.775426746382124" lon="11.126300604767057"><ele>837.0</ele><time>2026-04-18T06:57:51Z</time></trkpt><trkpt lat="45.77550926161476" lon="11.126092533095902"><ele>837.0</ele><time>2026-04-18T06:57:52Z</time></trkpt><trkpt lat="45.775588191294894" lon="11.125878363243942"><ele>829.6666666666667</ele><time>2026-04-18T06:57:53Z</time></trkpt><trkpt lat="45.775672385198284" lon="11.12567022135164"><ele>822.3333333333334</ele><time>2026-04-18T06:57:54Z</time></trkpt><trkpt lat="45.77577344342381" lon="11.125480294944865"><ele>815.0</ele><time>2026-04-18T06:57:55Z</time></trkpt><trkpt lat="45.77588332690484" lon="11.125292690622823"><ele>815.0</ele><time>2026-04-18T06:57:56Z</time></trkpt><trkpt lat="45.77599817840864" lon="11.125114680960653"><ele>815.0</ele><time>2026-04-18T06:57:57Z</time></trkpt><trkpt lat="45.77611975099301" lon="11.124941000978536"><ele>815.0</ele><time>2026-04-18T06:57:58Z</time></trkpt><trkpt lat="45.776228570495064" lon="11.124757062195403"><ele>816.3333333333334</ele><time>2026-04-18T06:57:59Z</time></trkpt><trkpt lat="45.77632500871033" lon="11.124557200857495"><ele>817.6666666666667</ele><time>2026-04-18T06:58:00Z</time></trkpt><trkpt lat="45.77638920769516" lon="11.12435965182887"><ele>819.0</ele><time>2026-04-18T06:58:01Z</time></trkpt><trkpt lat="45.77645065021774" lon="11.124180861143312"><ele>818.0</ele><time>2026-04-18T06:58:02Z</time></trkpt><trkpt lat="45.776505892331535" lon="11.12400009146393"><ele>817.0</ele><time>2026-04-18T06:58:03Z</time></trkpt><trkpt lat="45.77660463853426" lon="11.123859372426015"><ele>816.0</ele><time>2026-04-18T06:58:04Z</time></trkpt><trkpt lat="45.77670050417101" lon="11.123763064077016"><ele>815.0</ele><time>2026-04-18T06:58:05Z</time></trkpt><trkpt lat="45.776794574649045" lon="11.123687808979076"><ele>813.3333333333334</ele><time>2026-04-18T06:58:06Z</time></trkpt><trkpt lat="45.77687954794806" lon="11.123606668847875"><ele>811.6666666666667</ele><time>2026-04-18T06:58:07Z</time></trkpt><trkpt lat="45.77694502192191" lon="11.123551486060993"><ele>810.0</ele><time>2026-04-18T06:58:08Z</time></trkpt><trkpt lat="45.77700289131017" lon="11.123458250174844"><ele>808.3333333333333</ele><time>2026-04-18T06:58:10Z</time></trkpt><trkpt lat="45.7770418712883" lon="11.123387227115526"><ele>806.6666666666666</ele><time>2026-04-18T06:58:11Z</time></trkpt><trkpt lat="45.77708910701692" lon="11.123282417594629"><ele>805.0</ele><time>2026-04-18T06:58:12Z</time></trkpt><trkpt lat="45.77713083737853" lon="11.123158518019679"><ele>805.0</ele><time>2026-04-18T06:58:13Z</time></trkpt><trkpt lat="45.77719763979719" lon="11.123079008833141"><ele>805.0</ele><time>2026-04-18T06:58:14Z</time></trkpt><trkpt lat="45.777271004432215" lon="11.12305766512879"><ele>805.0</ele><time>2026-04-18T06:58:15Z</time></trkpt><trkpt lat="45.77735092843708" lon="11.12310571070641"><ele>805.0</ele><time>2026-04-18T06:58:16Z</time></trkpt><trkpt lat="45.77742634960629" lon="11.123201258798794"><ele>805.0</ele><time>2026-04-18T06:58:17Z</time></trkpt><trkpt lat="45.777494483889534" lon="11.123349722240011"><ele>805.0</ele><time>2026-04-18T06:58:18Z</time></trkpt><trkpt lat="45.77754295568393" lon="11.123509148882803"><ele>805.0</ele><time>2026-04-18T06:58:19Z</time></trkpt><trkpt lat="45.777584628389405" lon="11.123698899432414"><ele>805.0</ele><time>2026-04-18T06:58:20Z</time></trkpt><trkpt lat="45.77762802427377" lon="11.123888120590085"><ele>805.0</ele><time>2026-04-18T06:58:21Z</time></trkpt><trkpt lat="45.77767305622502" lon="11.124070845277052"><ele>798.5</ele><time>2026-04-18T06:58:22Z</time></trkpt><trkpt lat="45.7777350821719" lon="11.124243352343987"><ele>792.0</ele><time>2026-04-18T06:58:23Z</time></trkpt><trkpt lat="45.77781071529627" lon="11.124411524516189"><ele>785.5</ele><time>2026-04-18T06:58:24Z</time></trkpt><trkpt lat="45.77789677688005" lon="11.124565985019881"><ele>779.0</ele><time>2026-04-18T06:58:25Z</time></trkpt><trkpt lat="45.77799700316087" lon="11.124697594434847"><ele>779.0</ele><time>2026-04-18T06:58:26Z</time></trkpt><trkpt lat="45.77811122838181" lon="11.124805331015343"><ele>779.0</ele><time>2026-04-18T06:58:27Z</time></trkpt><trkpt lat="45.778227250053625" lon="11.12490876519371"><ele>779.0</ele><time>2026-04-18T06:58:28Z</time></trkpt><trkpt lat="45.778342914772935" lon="11.125009654783392"><ele>779.0</ele><time>2026-04-18T06:58:29Z</time></trkpt><trkpt lat="45.778465585294555" lon="11.125108250592653"><ele>778.6666666666667</ele><time>2026-04-18T06:58:30Z</time></trkpt><trkpt lat="45.778601909655436" lon="11.125194717760346"><ele>778.3333333333333</ele><time>2026-04-18T06:58:31Z</time></trkpt><trkpt lat="45.77874749089773" lon="11.12526970105364"><ele>778.0</ele><time>2026-04-18T06:58:32Z</time></trkpt><trkpt lat="45.778909292833276" lon="11.125332710291406"><ele>778.0</ele><time>2026-04-18T06:58:33Z</time></trkpt><trkpt lat="45.77907657558297" lon="11.125394257472848"><ele>778.0</ele><time>2026-04-18T06:58:34Z</time></trkpt><trkpt lat="45.77924108806016" lon="11.12543637720951"><ele>778.0</ele><time>2026-04-18T06:58:35Z</time></trkpt><trkpt lat="45.77941156269919" lon="11.12545829686774"><ele>776.0</ele><time>2026-04-18T06:58:36Z</time></trkpt><trkpt lat="45.779577345464844" lon="11.125502331682988"><ele>774.0</ele><time>2026-04-18T06:58:37Z</time></trkpt><trkpt lat="45.779745647793135" lon="11.125488037662782"><ele>772.0</ele><time>2026-04-18T06:58:38Z</time></trkpt><trkpt lat="45.77991103524571" lon="11.12548137325791"><ele>772.0</ele><time>2026-04-18T06:58:39Z</time></trkpt><trkpt lat="45.7800714058896" lon="11.125436460162886"><ele>772.0</ele><time>2026-04-18T06:58:40Z</time></trkpt><trkpt lat="45.78022878944229" lon="11.125369753867842"><ele>772.0</ele><time>2026-04-18T06:58:41Z</time></trkpt><trkpt lat="45.78038714049629" lon="11.125308717302396"><ele>770.3333333333333</ele><time>2026-04-18T06:58:42Z</time></trkpt><trkpt lat="45.78054175564643" lon="11.12522184183691"><ele>768.6666666666666</ele><time>2026-04-18T06:58:43Z</time></trkpt><trkpt lat="45.78068972214444" lon="11.125123145756008"><ele>767.0</ele><time>2026-04-18T06:58:44Z</time></trkpt><trkpt lat="45.78081565814949" lon="11.125042397804938"><ele>767.0</ele><time>2026-04-18T06:58:45Z</time></trkpt><trkpt lat="45.780943611724155" lon="11.124955422877148"><ele>767.0</ele><time>2026-04-18T06:58:46Z</time></trkpt><trkpt lat="45.78106436225119" lon="11.124950344988338"><ele>767.0</ele><time>2026-04-18T06:58:47Z</time></trkpt><trkpt lat="45.781163227974446" lon="11.124986277473754"><ele>767.0</ele><time>2026-04-18T06:58:48Z</time></trkpt><trkpt lat="45.78123414298661" lon="11.12507023075287"><ele>763.8</ele><time>2026-04-18T06:58:49Z</time></trkpt><trkpt lat="45.78127020901881" lon="11.1252037202562"><ele>760.6</ele><time>2026-04-18T06:58:50Z</time></trkpt><trkpt lat="45.78128529288748" lon="11.125347800681165"><ele>757.4</ele><time>2026-04-18T06:58:51Z</time></trkpt><trkpt lat="45.78133810848181" lon="11.125448884838118"><ele>754.1999999999999</ele><time>2026-04-18T06:58:52Z</time></trkpt><trkpt lat="45.78141972241996" lon="11.125494913336176"><ele>751.0</ele><time>2026-04-18T06:58:53Z</time></trkpt><trkpt lat="45.781504219976675" lon="11.125484976815576"><ele>751.0</ele><time>2026-04-18T06:58:54Z</time></trkpt><trkpt lat="45.781581759485995" lon="11.125425946699112"><ele>751.0</ele><time>2026-04-18T06:58:55Z</time></trkpt><trkpt lat="45.781618967954664" lon="11.125315188585764"><ele>751.0</ele><time>2026-04-18T06:58:56Z</time></trkpt><trkpt lat="45.781629762821645" lon="11.125171165489636"><ele>751.0</ele><time>2026-04-18T06:58:57Z</time></trkpt><trkpt lat="45.781589437485366" lon="11.125019239791769"><ele>751.0</ele><time>2026-04-18T06:58:58Z</time></trkpt><trkpt lat="45.78150831900191" lon="11.124873518503128"><ele>746.8</ele><time>2026-04-18T06:58:59Z</time></trkpt><trkpt lat="45.78144270891363" lon="11.124724701619419"><ele>742.5999999999999</ele><time>2026-04-18T06:59:00Z</time></trkpt><trkpt lat="45.7813573197442" lon="11.124610435301785"><ele>738.4</ele><time>2026-04-18T06:59:01Z</time></trkpt><trkpt lat="45.78127596002841" lon="11.124534642628868"><ele>734.2</ele><time>2026-04-18T06:59:02Z</time></trkpt><trkpt lat="45.781213735454706" lon="11.124470599957332"><ele>730.0</ele><time>2026-04-18T06:59:03Z</time></trkpt><trkpt lat="45.78117321029016" lon="11.124349081288319"><ele>730.0</ele><time>2026-04-18T06:59:05Z</time></trkpt><trkpt lat="45.78123291226909" lon="11.124290933662834"><ele>730.0</ele><time>2026-04-18T06:59:06Z</time></trkpt><trkpt lat="45.7813263080741" lon="11.124304201553022"><ele>730.0</ele><time>2026-04-18T06:59:07Z</time></trkpt><trkpt lat="45.78141883571631" lon="11.124392045902123"><ele>730.0</ele><time>2026-04-18T06:59:08Z</time></trkpt><trkpt lat="45.781515307932835" lon="11.1245119407262"><ele>730.0</ele><time>2026-04-18T06:59:09Z</time></trkpt><trkpt lat="45.78159594408571" lon="11.12465561702725"><ele>730.0</ele><time>2026-04-18T06:59:10Z</time></trkpt><trkpt lat="45.78167670973145" lon="11.12483492998764"><ele>730.0</ele><time>2026-04-18T06:59:11Z</time></trkpt><trkpt lat="45.781764159009434" lon="11.125036843152607"><ele>730.0</ele><time>2026-04-18T06:59:12Z</time></trkpt><trkpt lat="45.781856549610424" lon="11.125243308482661"><ele>731.3333333333334</ele><time>2026-04-18T06:59:13Z</time></trkpt><trkpt lat="45.78194785595945" lon="11.125449206989494"><ele>732.6666666666666</ele><time>2026-04-18T06:59:14Z</time></trkpt><trkpt lat="45.78203675208091" lon="11.125645718036333"><ele>734.0</ele><time>2026-04-18T06:59:15Z</time></trkpt><trkpt lat="45.7821135315692" lon="11.125815589982924"><ele>735.6</ele><time>2026-04-18T06:59:16Z</time></trkpt><trkpt lat="45.78217812558264" lon="11.125955690105458"><ele>737.2</ele><time>2026-04-18T06:59:17Z</time></trkpt><trkpt lat="45.78226525532707" lon="11.126051529862782"><ele>738.8000000000001</ele><time>2026-04-18T06:59:18Z</time></trkpt><trkpt lat="45.7823632811177" lon="11.126085542705958"><ele>740.4000000000001</ele><time>2026-04-18T06:59:19Z</time></trkpt><trkpt lat="45.78246385286959" lon="11.126102242180869"><ele>742.0</ele><time>2026-04-18T06:59:20Z</time></trkpt><trkpt lat="45.78255895742702" lon="11.126118619818126"><ele>742.0</ele><time>2026-04-18T06:59:21Z</time></trkpt><trkpt lat="45.782645783636525" lon="11.126089725978904"><ele>742.0</ele><time>2026-04-18T06:59:22Z</time></trkpt><trkpt lat="45.782726387691476" lon="11.12602672607617"><ele>742.0</ele><time>2026-04-18T06:59:23Z</time></trkpt><trkpt lat="45.78274705846819" lon="11.125845207512192"><ele>742.0</ele><time>2026-04-18T06:59:24Z</time></trkpt><trkpt lat="45.78277000467052" lon="11.125659837395657"><ele>742.0</ele><time>2026-04-18T06:59:25Z</time></trkpt><trkpt lat="45.782789797281616" lon="11.125446295099099"><ele>748.6666666666667</ele><time>2026-04-18T06:59:26Z</time></trkpt><trkpt lat="45.78280537790696" lon="11.125238129751278"><ele>755.3333333333334</ele><time>2026-04-18T06:59:27Z</time></trkpt><trkpt lat="45.782810169568656" lon="11.12500498148819"><ele>762.0</ele><time>2026-04-18T06:59:28Z</time></trkpt><trkpt lat="45.78280699730279" lon="11.124741299914868"><ele>762.0</ele><time>2026-04-18T06:59:29Z</time></trkpt><trkpt lat="45.78279653229809" lon="11.12446525705984"><ele>762.0</ele><time>2026-04-18T06:59:30Z</time></trkpt><trkpt lat="45.78275959637127" lon="11.124197014513054"><ele>762.0</ele><time>2026-04-18T06:59:31Z</time></trkpt><trkpt lat="45.78268650273967" lon="11.123930637305323"><ele>751.3333333333334</ele><time>2026-04-18T06:59:32Z</time></trkpt><trkpt lat="45.782607330727714" lon="11.123661531153061"><ele>740.6666666666667</ele><time>2026-04-18T06:59:33Z</time></trkpt><trkpt lat="45.782549363348124" lon="11.123383474893773"><ele>730.0</ele><time>2026-04-18T06:59:34Z</time></trkpt><trkpt lat="45.78251151304542" lon="11.123106850035162"><ele>729.0</ele><time>2026-04-18T06:59:35Z</time></trkpt><trkpt lat="45.78248163736074" lon="11.122836647219474"><ele>728.0</ele><time>2026-04-18T06:59:36Z</time></trkpt><trkpt lat="45.78244747364589" lon="11.122580665966053"><ele>727.0</ele><time>2026-04-18T06:59:37Z</time></trkpt><trkpt lat="45.78241585873706" lon="11.122331709080704"><ele>726.6666666666667</ele><time>2026-04-18T06:59:38Z</time></trkpt><trkpt lat="45.782390836300856" lon="11.122087297694279"><ele>726.3333333333334</ele><time>2026-04-18T06:59:39Z</time></trkpt><trkpt lat="45.78239653758068" lon="11.121860327565969"><ele>726.0</ele><time>2026-04-18T06:59:40Z</time></trkpt><trkpt lat="45.782433029368796" lon="11.121666863200428"><ele>725.0</ele><time>2026-04-18T06:59:41Z</time></trkpt><trkpt lat="45.78246865443843" lon="11.12149862344375"><ele>724.0</ele><time>2026-04-18T06:59:42Z</time></trkpt><trkpt lat="45.78250598423332" lon="11.121360770269465"><ele>723.0</ele><time>2026-04-18T06:59:43Z</time></trkpt><trkpt lat="45.78255715208728" lon="11.121231515304222"><ele>722.0</ele><time>2026-04-18T06:59:44Z</time></trkpt><trkpt lat="45.782633649067485" lon="11.12110948152048"><ele>721.0</ele><time>2026-04-18T06:59:45Z</time></trkpt><trkpt lat="45.78272473404234" lon="11.120976216373942"><ele>726.0</ele><time>2026-04-18T06:59:46Z</time></trkpt><trkpt lat="45.782799488391795" lon="11.120842098576944"><ele>731.0</ele><time>2026-04-18T06:59:47Z</time></trkpt><trkpt lat="45.78287103004947" lon="11.120713689570781"><ele>736.0</ele><time>2026-04-18T06:59:48Z</time></trkpt><trkpt lat="45.782919286871135" lon="11.120566866275034"><ele>741.0</ele><time>2026-04-18T06:59:49Z</time></trkpt><trkpt lat="45.7829380581409" lon="11.120385034599012"><ele>741.5</ele><time>2026-04-18T06:59:50Z</time></trkpt><trkpt lat="45.78293430283028" lon="11.12019088161264"><ele>742.0</ele><time>2026-04-18T06:59:51Z</time></trkpt><trkpt lat="45.78290484176458" lon="11.11999723672177"><ele>742.5</ele><time>2026-04-18T06:59:52Z</time></trkpt><trkpt lat="45.78285770733289" lon="11.119812684625565"><ele>743.0</ele><time>2026-04-18T06:59:53Z</time></trkpt><trkpt lat="45.782818673944796" lon="11.119663178551928"><ele>743.5</ele><time>2026-04-18T06:59:54Z</time></trkpt><trkpt lat="45.78279661710354" lon="11.119533911413258"><ele>744.0</ele><time>2026-04-18T06:59:55Z</time></trkpt><trkpt lat="45.78278760977396" lon="11.11942531054751"><ele>744.5</ele><time>2026-04-18T06:59:56Z</time></trkpt><trkpt lat="45.78278097272388" lon="11.119330816781773"><ele>745.0</ele><time>2026-04-18T06:59:57Z</time></trkpt><trkpt lat="45.7827641886924" lon="11.119225909233936"><ele>745.5</ele><time>2026-04-18T06:59:58Z</time></trkpt><trkpt lat="45.78274566463144" lon="11.119091698286134"><ele>746.0</ele><time>2026-04-18T06:59:59Z</time></trkpt><trkpt lat="45.782735907403" lon="11.118919141288341"><ele>747.25</ele><time>2026-04-18T07:00:00Z</time></trkpt><trkpt lat="45.782722965646975" lon="11.118726419240748"><ele>748.5</ele><time>2026-04-18T07:00:01Z</time></trkpt><trkpt lat="45.78270787932314" lon="11.118547016307808"><ele>749.75</ele><time>2026-04-18T07:00:02Z</time></trkpt><trkpt lat="45.78269916258205" lon="11.118374245889873"><ele>751.0</ele><time>2026-04-18T07:00:03Z</time></trkpt><trkpt lat="45.782693198591886" lon="11.118206864802449"><ele>751.5999999999999</ele><time>2026-04-18T07:00:04Z</time></trkpt><trkpt lat="45.78269575346385" lon="11.118047714439617"><ele>752.2</ele><time>2026-04-18T07:00:05Z</time></trkpt><trkpt lat="45.782700330943335" lon="11.117894626356252"><ele>752.8</ele><time>2026-04-18T07:00:06Z</time></trkpt><trkpt lat="45.78270209893415" lon="11.117745772680824"><ele>753.4000000000001</ele><time>2026-04-18T07:00:07Z</time></trkpt><trkpt lat="45.782691433558384" lon="11.117601477217885"><ele>754.0</ele><time>2026-04-18T07:00:08Z</time></trkpt><trkpt lat="45.7826728881969" lon="11.117442137144797"><ele>748.6</ele><time>2026-04-18T07:00:09Z</time></trkpt><trkpt lat="45.78261588806884" lon="11.117302659341101"><ele>743.2</ele><time>2026-04-18T07:00:10Z</time></trkpt><trkpt lat="45.78258692691252" lon="11.117149100034586"><ele>737.8000000000001</ele><time>2026-04-18T07:00:11Z</time></trkpt><trkpt lat="45.78252944628125" lon="11.117004518599558"><ele>732.4000000000001</ele><time>2026-04-18T07:00:12Z</time></trkpt><trkpt lat="45.78247780837991" lon="11.116887471330019"><ele>727.0</ele><time>2026-04-18T07:00:13Z</time></trkpt><trkpt lat="45.78242668611715" lon="11.11676856380173"><ele>727.0</ele><time>2026-04-18T07:00:14Z</time></trkpt><trkpt lat="45.7823914831009" lon="11.116677130241962"><ele>727.0</ele><time>2026-04-18T07:00:15Z</time></trkpt><trkpt lat="45.78236266528824" lon="11.116572783083868"><ele>727.0</ele><time>2026-04-18T07:00:16Z</time></trkpt><trkpt lat="45.782379730695006" lon="11.116451175181515"><ele>727.0</ele><time>2026-04-18T07:00:17Z</time></trkpt><trkpt lat="45.78237242583478" lon="11.116300099716758"><ele>727.0</ele><time>2026-04-18T07:00:18Z</time></trkpt><trkpt lat="45.78237291231643" lon="11.116153826896662"><ele>727.0</ele><time>2026-04-18T07:00:19Z</time></trkpt><trkpt lat="45.78237679168038" lon="11.115998671358645"><ele>726.0</ele><time>2026-04-18T07:00:20Z</time></trkpt><trkpt lat="45.78235810997008" lon="11.115848315778225"><ele>725.0</ele><time>2026-04-18T07:00:21Z</time></trkpt><trkpt lat="45.78234153486067" lon="11.115694317138038"><ele>724.0</ele><time>2026-04-18T07:00:22Z</time></trkpt><trkpt lat="45.78232584834948" lon="11.115533896767053"><ele>723.0</ele><time>2026-04-18T07:00:23Z</time></trkpt><trkpt lat="45.782310469453" lon="11.115372615284878"><ele>722.0</ele><time>2026-04-18T07:00:24Z</time></trkpt><trkpt lat="45.78229775064465" lon="11.11521037163659"><ele>720.0</ele><time>2026-04-18T07:00:25Z</time></trkpt><trkpt lat="45.782288482668335" lon="11.115054141005066"><ele>718.0</ele><time>2026-04-18T07:00:26Z</time></trkpt><trkpt lat="45.78229323240347" lon="11.114893951067172"><ele>716.0</ele><time>2026-04-18T07:00:27Z</time></trkpt><trkpt lat="45.78233394630367" lon="11.114747599186254"><ele>714.0</ele><time>2026-04-18T07:00:28Z</time></trkpt><trkpt lat="45.78240328615017" lon="11.114605735455592"><ele>710.75</ele><time>2026-04-18T07:00:29Z</time></trkpt><trkpt lat="45.78247023022437" lon="11.114457668273998"><ele>707.5</ele><time>2026-04-18T07:00:30Z</time></trkpt><trkpt lat="45.782535400306415" lon="11.114314265028419"><ele>704.25</ele><time>2026-04-18T07:00:31Z</time></trkpt><trkpt lat="45.78259672287014" lon="11.1141712473956"><ele>701.0</ele><time>2026-04-18T07:00:32Z</time></trkpt><trkpt lat="45.782656861671384" lon="11.114029035033232"><ele>698.75</ele><time>2026-04-18T07:00:33Z</time></trkpt><trkpt lat="45.782711410249185" lon="11.113885928056423"><ele>696.5</ele><time>2026-04-18T07:00:34Z</time></trkpt><trkpt lat="45.782795139043" lon="11.113771417922003"><ele>694.25</ele><time>2026-04-18T07:00:35Z</time></trkpt><trkpt lat="45.782911022700496" lon="11.113715345491386"><ele>692.0</ele><time>2026-04-18T07:00:36Z</time></trkpt><trkpt lat="45.78301774040659" lon="11.113644431931123"><ele>692.0</ele><time>2026-04-18T07:00:37Z</time></trkpt><trkpt lat="45.78312250354315" lon="11.113640318424828"><ele>692.0</ele><time>2026-04-18T07:00:38Z</time></trkpt><trkpt lat="45.78322883543375" lon="11.113687389397562"><ele>692.0</ele><time>2026-04-18T07:00:39Z</time></trkpt><trkpt lat="45.78333040203185" lon="11.113769716543029"><ele>692.0</ele><time>2026-04-18T07:00:40Z</time></trkpt><trkpt lat="45.78341163700863" lon="11.113859697554954"><ele>692.0</ele><time>2026-04-18T07:00:41Z</time></trkpt><trkpt lat="45.78350572096428" lon="11.113935729939827"><ele>691.5</ele><time>2026-04-18T07:00:42Z</time></trkpt><trkpt lat="45.78361339328197" lon="11.113965887160221"><ele>691.0</ele><time>2026-04-18T07:00:43Z</time></trkpt><trkpt lat="45.78372363357452" lon="11.113935195533744"><ele>690.5</ele><time>2026-04-18T07:00:44Z</time></trkpt><trkpt lat="45.78384295834205" lon="11.11384751063378"><ele>690.0</ele><time>2026-04-18T07:00:45Z</time></trkpt><trkpt lat="45.78396989594069" lon="11.113742195300654"><ele>690.0</ele><time>2026-04-18T07:00:46Z</time></trkpt><trkpt lat="45.784114769027624" lon="11.113601992539264"><ele>690.0</ele><time>2026-04-18T07:00:47Z</time></trkpt><trkpt lat="45.78426320823225" lon="11.11340452704951"><ele>690.0</ele><time>2026-04-18T07:00:48Z</time></trkpt><trkpt lat="45.78442271115956" lon="11.113258712429836"><ele>692.0</ele><time>2026-04-18T07:00:49Z</time></trkpt><trkpt lat="45.784562881063856" lon="11.113113635245687"><ele>694.0</ele><time>2026-04-18T07:00:50Z</time></trkpt><trkpt lat="45.78469370626375" lon="11.112958413244284"><ele>696.0</ele><time>2026-04-18T07:00:51Z</time></trkpt><trkpt lat="45.78480644355504" lon="11.112791031146383"><ele>696.0</ele><time>2026-04-18T07:00:52Z</time></trkpt><trkpt lat="45.784906789146476" lon="11.1126137235376"><ele>696.0</ele><time>2026-04-18T07:00:53Z</time></trkpt><trkpt lat="45.785006509082066" lon="11.112416515819826"><ele>696.0</ele><time>2026-04-18T07:00:54Z</time></trkpt><trkpt lat="45.785062517754824" lon="11.112163634331585"><ele>693.3333333333334</ele><time>2026-04-18T07:00:55Z</time></trkpt><trkpt lat="45.785104984766306" lon="11.11190525824631"><ele>690.6666666666667</ele><time>2026-04-18T07:00:56Z</time></trkpt><trkpt lat="45.78513101017202" lon="11.111644594179204"><ele>688.0</ele><time>2026-04-18T07:00:57Z</time></trkpt><trkpt lat="45.785141013739505" lon="11.111398307876904"><ele>689.6666666666667</ele><time>2026-04-18T07:00:58Z</time></trkpt><trkpt lat="45.78515646936247" lon="11.11116354069619"><ele>691.3333333333334</ele><time>2026-04-18T07:00:59Z</time></trkpt><trkpt lat="45.78520362625968" lon="11.11093038781908"><ele>693.0</ele><time>2026-04-18T07:01:00Z</time></trkpt><trkpt lat="45.785251762326745" lon="11.110702044522526"><ele>693.0</ele><time>2026-04-18T07:01:01Z</time></trkpt><trkpt lat="45.7852955577667" lon="11.110483050064335"><ele>693.0</ele><time>2026-04-18T07:01:02Z</time></trkpt><trkpt lat="45.7853379692591" lon="11.11028423732956"><ele>693.0</ele><time>2026-04-18T07:01:03Z</time></trkpt><trkpt lat="45.785402967737056" lon="11.110113967656767"><ele>693.0</ele><time>2026-04-18T07:01:04Z</time></trkpt><trkpt lat="45.78548465258643" lon="11.109955337128733"><ele>688.0</ele><time>2026-04-18T07:01:05Z</time></trkpt><trkpt lat="45.785567028695475" lon="11.109818766341157"><ele>683.0</ele><time>2026-04-18T07:01:06Z</time></trkpt><trkpt lat="45.78564223708046" lon="11.109687676195119"><ele>678.0</ele><time>2026-04-18T07:01:07Z</time></trkpt><trkpt lat="45.78575359182607" lon="11.10960958810535"><ele>673.0</ele><time>2026-04-18T07:01:08Z</time></trkpt><trkpt lat="45.78588305432065" lon="11.109543451209056"><ele>676.6666666666667</ele><time>2026-04-18T07:01:09Z</time></trkpt><trkpt lat="45.7860187186061" lon="11.109468476219904"><ele>680.3333333333334</ele><time>2026-04-18T07:01:10Z</time></trkpt><trkpt lat="45.78615221642588" lon="11.109352093834703"><ele>684.0</ele><time>2026-04-18T07:01:11Z</time></trkpt><trkpt lat="45.786288898033014" lon="11.109240008741363"><ele>684.0</ele><time>2026-04-18T07:01:12Z</time></trkpt><trkpt lat="45.78643369569979" lon="11.109171862214028"><ele>684.0</ele><time>2026-04-18T07:01:13Z</time></trkpt><trkpt lat="45.78656681859508" lon="11.109091678314028"><ele>684.0</ele><time>2026-04-18T07:01:14Z</time></trkpt><trkpt lat="45.786705891895565" lon="11.109053912334037"><ele>684.0</ele><time>2026-04-18T07:01:15Z</time></trkpt><trkpt lat="45.786830592113" lon="11.109028974070904"><ele>679.5</ele><time>2026-04-18T07:01:16Z</time></trkpt><trkpt lat="45.786948069048826" lon="11.109033954972253"><ele>675.0</ele><time>2026-04-18T07:01:17Z</time></trkpt><trkpt lat="45.78705081097718" lon="11.109092021595682"><ele>670.5</ele><time>2026-04-18T07:01:18Z</time></trkpt><trkpt lat="45.78715294847559" lon="11.109191425034822"><ele>666.0</ele><time>2026-04-18T07:01:19Z</time></trkpt><trkpt lat="45.78725463870044" lon="11.109310731635853"><ele>666.0</ele><time>2026-04-18T07:01:20Z</time></trkpt><trkpt lat="45.78734421055678" lon="11.109462153773132"><ele>666.0</ele><time>2026-04-18T07:01:21Z</time></trkpt><trkpt lat="45.78742597973606" lon="11.109652365776187"><ele>666.0</ele><time>2026-04-18T07:01:22Z</time></trkpt><trkpt lat="45.787497449654644" lon="11.10986638339439"><ele>662.0</ele><time>2026-04-18T07:01:23Z</time></trkpt><trkpt lat="45.78758137857903" lon="11.110096634362165"><ele>658.0</ele><time>2026-04-18T07:01:24Z</time></trkpt><trkpt lat="45.78767545480378" lon="11.110333049891288"><ele>654.0</ele><time>2026-04-18T07:01:25Z</time></trkpt><trkpt lat="45.7877806592432" lon="11.110565942145257"><ele>658.3333333333334</ele><time>2026-04-18T07:01:26Z</time></trkpt><trkpt lat="45.78789904680604" lon="11.110770412879791"><ele>662.6666666666667</ele><time>2026-04-18T07:01:27Z</time></trkpt><trkpt lat="45.788036831034766" lon="11.110934217336593"><ele>667.0</ele><time>2026-04-18T07:01:28Z</time></trkpt><trkpt lat="45.78818088602401" lon="11.111077015090682"><ele>667.0</ele><time>2026-04-18T07:01:29Z</time></trkpt><trkpt lat="45.78832935349905" lon="11.111221950167607"><ele>667.0</ele><time>2026-04-18T07:01:30Z</time></trkpt><trkpt lat="45.788481604161014" lon="11.11137112073536"><ele>667.0</ele><time>2026-04-18T07:01:31Z</time></trkpt><trkpt lat="45.78863264172887" lon="11.111515422082244"><ele>667.6666666666667</ele><time>2026-04-18T07:01:32Z</time></trkpt><trkpt lat="45.78877855766895" lon="11.111651724969686"><ele>668.3333333333334</ele><time>2026-04-18T07:01:33Z</time></trkpt><trkpt lat="45.788918500229734" lon="11.111768046776643"><ele>669.0</ele><time>2026-04-18T07:01:34Z</time></trkpt><trkpt lat="45.78906578202067" lon="11.111841516995412"><ele>669.0</ele><time>2026-04-18T07:01:35Z</time></trkpt><trkpt lat="45.789216512295404" lon="11.111866005815077"><ele>669.0</ele><time>2026-04-18T07:01:36Z</time></trkpt><trkpt lat="45.789364704136716" lon="11.111883186016303"><ele>669.0</ele><time>2026-04-18T07:01:37Z</time></trkpt><trkpt lat="45.78950541834121" lon="11.111890539477413"><ele>669.0</ele><time>2026-04-18T07:01:38Z</time></trkpt><trkpt lat="45.78964125284441" lon="11.111896389700025"><ele>668.75</ele><time>2026-04-18T07:01:39Z</time></trkpt><trkpt lat="45.789760200479" lon="11.111937862152045"><ele>668.5</ele><time>2026-04-18T07:01:40Z</time></trkpt><trkpt lat="45.78987528612773" lon="11.111981380280639"><ele>668.25</ele><time>2026-04-18T07:01:41Z</time></trkpt><trkpt lat="45.78998617379204" lon="11.112044389500898"><ele>668.0</ele><time>2026-04-18T07:01:42Z</time></trkpt><trkpt lat="45.79009850379383" lon="11.112118247755607"><ele>664.8</ele><time>2026-04-18T07:01:43Z</time></trkpt><trkpt lat="45.790193896832626" lon="11.112170397579181"><ele>661.5999999999999</ele><time>2026-04-18T07:01:44Z</time></trkpt><trkpt lat="45.79027534931726" lon="11.112237357417618"><ele>658.4000000000001</ele><time>2026-04-18T07:01:45Z</time></trkpt><trkpt lat="45.79034450092904" lon="11.112347656422498"><ele>655.2</ele><time>2026-04-18T07:01:46Z</time></trkpt><trkpt lat="45.790402803595896" lon="11.11249442739025"><ele>652.0</ele><time>2026-04-18T07:01:47Z</time></trkpt><trkpt lat="45.79045171510413" lon="11.112677752029969"><ele>652.0</ele><time>2026-04-18T07:01:48Z</time></trkpt><trkpt lat="45.79051849374004" lon="11.112873037339085"><ele>652.0</ele><time>2026-04-18T07:01:49Z</time></trkpt><trkpt lat="45.79060204520836" lon="11.113085761763147"><ele>652.0</ele><time>2026-04-18T07:01:50Z</time></trkpt><trkpt lat="45.79067918169305" lon="11.11330448323054"><ele>655.0</ele><time>2026-04-18T07:01:51Z</time></trkpt><trkpt lat="45.79075418383359" lon="11.113525945085701"><ele>658.0</ele><time>2026-04-18T07:01:52Z</time></trkpt><trkpt lat="45.79084504335655" lon="11.113726781426116"><ele>661.0</ele><time>2026-04-18T07:01:53Z</time></trkpt><trkpt lat="45.79095369866296" lon="11.11391652395373"><ele>656.6666666666667</ele><time>2026-04-18T07:01:54Z</time></trkpt><trkpt lat="45.79108316351817" lon="11.114109176004254"><ele>652.3333333333334</ele><time>2026-04-18T07:01:55Z</time></trkpt><trkpt lat="45.7912296354445" lon="11.11429309097297"><ele>648.0</ele><time>2026-04-18T07:01:56Z</time></trkpt><trkpt lat="45.79137583685764" lon="11.114459723093663"><ele>648.0</ele><time>2026-04-18T07:01:57Z</time></trkpt><trkpt lat="45.79150404747145" lon="11.11461495550051"><ele>648.0</ele><time>2026-04-18T07:01:58Z</time></trkpt><trkpt lat="45.79161834507096" lon="11.114760941924603"><ele>648.0</ele><time>2026-04-18T07:01:59Z</time></trkpt><trkpt lat="45.79170941109016" lon="11.114907417247343"><ele>650.5</ele><time>2026-04-18T07:02:00Z</time></trkpt><trkpt lat="45.791781889684" lon="11.115079248850336"><ele>653.0</ele><time>2026-04-18T07:02:01Z</time></trkpt><trkpt lat="45.79184058640931" lon="11.115250807592538"><ele>655.5</ele><time>2026-04-18T07:02:02Z</time></trkpt><trkpt lat="45.79189030168031" lon="11.115410783374864"><ele>658.0</ele><time>2026-04-18T07:02:03Z</time></trkpt><trkpt lat="45.791960562320625" lon="11.115539847606659"><ele>658.25</ele><time>2026-04-18T07:02:04Z</time></trkpt><trkpt lat="45.792053925744625" lon="11.115612796305486"><ele>658.5</ele><time>2026-04-18T07:02:05Z</time></trkpt><trkpt lat="45.79216670528832" lon="11.115628864064654"><ele>658.75</ele><time>2026-04-18T07:02:06Z</time></trkpt><trkpt lat="45.79229004820081" lon="11.115599628266676"><ele>659.0</ele><time>2026-04-18T07:02:07Z</time></trkpt><trkpt lat="45.79242189302409" lon="11.115565696679074"><ele>659.0</ele><time>2026-04-18T07:02:08Z</time></trkpt><trkpt lat="45.79254576614684" lon="11.115509591934874"><ele>659.0</ele><time>2026-04-18T07:02:09Z</time></trkpt><trkpt lat="45.79265285952473" lon="11.115398343498585"><ele>659.0</ele><time>2026-04-18T07:02:10Z</time></trkpt><trkpt lat="45.792734453500856" lon="11.115242205635148"><ele>659.0</ele><time>2026-04-18T07:02:11Z</time></trkpt><trkpt lat="45.79277731797994" lon="11.115057678272318"><ele>669.6666666666666</ele><time>2026-04-18T07:02:12Z</time></trkpt><trkpt lat="45.79278846575796" lon="11.114842881924401"><ele>680.3333333333334</ele><time>2026-04-18T07:02:13Z</time></trkpt><trkpt lat="45.792776341068794" lon="11.114597154653175"><ele>691.0</ele><time>2026-04-18T07:02:14Z</time></trkpt><trkpt lat="45.792764515171136" lon="11.114311328783964"><ele>689.6666666666667</ele><time>2026-04-18T07:02:15Z</time></trkpt><trkpt lat="45.792736745260264" lon="11.114007930965732"><ele>688.3333333333334</ele><time>2026-04-18T07:02:16Z</time></trkpt><trkpt lat="45.79270954952656" lon="11.113717293976267"><ele>687.0</ele><time>2026-04-18T07:02:17Z</time></trkpt><trkpt lat="45.79268386379925" lon="11.113441583986221"><ele>677.3333333333334</ele><time>2026-04-18T07:02:18Z</time></trkpt><trkpt lat="45.79266055589238" lon="11.11318756006755"><ele>667.6666666666667</ele><time>2026-04-18T07:02:19Z</time></trkpt><trkpt lat="45.7926395350503" lon="11.112958462116294"><ele>658.0</ele><time>2026-04-18T07:02:20Z</time></trkpt><trkpt lat="45.79262104768752" lon="11.112766900241944"><ele>658.0</ele><time>2026-04-18T07:02:21Z</time></trkpt><trkpt lat="45.792593494766166" lon="11.11258175081307"><ele>658.0</ele><time>2026-04-18T07:02:22Z</time></trkpt><trkpt lat="45.79254783947647" lon="11.112389095358775"><ele>658.0</ele><time>2026-04-18T07:02:23Z</time></trkpt><trkpt lat="45.79250825037319" lon="11.112236455818946"><ele>658.0</ele><time>2026-04-18T07:02:24Z</time></trkpt><trkpt lat="45.79248242455985" lon="11.112099393555049"><ele>657.75</ele><time>2026-04-18T07:02:25Z</time></trkpt><trkpt lat="45.79245821951936" lon="11.111951452882286"><ele>657.5</ele><time>2026-04-18T07:02:26Z</time></trkpt><trkpt lat="45.79242408923638" lon="11.111765123765583"><ele>657.25</ele><time>2026-04-18T07:02:27Z</time></trkpt><trkpt lat="45.79237991055343" lon="11.111556460830073"><ele>657.0</ele><time>2026-04-18T07:02:28Z</time></trkpt><trkpt lat="45.7923335402008" lon="11.111357075579285"><ele>656.75</ele><time>2026-04-18T07:02:29Z</time></trkpt><trkpt lat="45.79228064637406" lon="11.11117201232576"><ele>656.5</ele><time>2026-04-18T07:02:30Z</time></trkpt><trkpt lat="45.792248507264006" lon="11.110984113067905"><ele>656.25</ele><time>2026-04-18T07:02:31Z</time></trkpt><trkpt lat="45.792215786013045" lon="11.11078370815541"><ele>656.0</ele><time>2026-04-18T07:02:32Z</time></trkpt><trkpt lat="45.79217820320467" lon="11.110568964281352"><ele>654.0</ele><time>2026-04-18T07:02:33Z</time></trkpt><trkpt lat="45.79214744016247" lon="11.11034146919132"><ele>652.0</ele><time>2026-04-18T07:02:34Z</time></trkpt><trkpt lat="45.79212763392705" lon="11.11011127534911"><ele>650.0</ele><time>2026-04-18T07:02:35Z</time></trkpt><trkpt lat="45.792121010108836" lon="11.109885882958658"><ele>648.75</ele><time>2026-04-18T07:02:36Z</time></trkpt><trkpt lat="45.79212212263287" lon="11.109667332405499"><ele>647.5</ele><time>2026-04-18T07:02:37Z</time></trkpt><trkpt lat="45.79214626018771" lon="11.109453679042366"><ele>646.25</ele><time>2026-04-18T07:02:38Z</time></trkpt><trkpt lat="45.79215979957038" lon="11.109252453339137"><ele>645.0</ele><time>2026-04-18T07:02:39Z</time></trkpt><trkpt lat="45.79217415606075" lon="11.109060756968207"><ele>644.5</ele><time>2026-04-18T07:02:40Z</time></trkpt><trkpt lat="45.792225442366856" lon="11.10889929461613"><ele>644.0</ele><time>2026-04-18T07:02:41Z</time></trkpt><trkpt lat="45.79229898593091" lon="11.108765340689311"><ele>643.5</ele><time>2026-04-18T07:02:42Z</time></trkpt><trkpt lat="45.79239587782211" lon="11.108651441366431"><ele>643.0</ele><time>2026-04-18T07:02:43Z</time></trkpt><trkpt lat="45.792513639351895" lon="11.108538188259384"><ele>643.0</ele><time>2026-04-18T07:02:44Z</time></trkpt><trkpt lat="45.792647024633936" lon="11.108411435328895"><ele>643.0</ele><time>2026-04-18T07:02:45Z</time></trkpt><trkpt lat="45.79278230369938" lon="11.10827490312323"><ele>643.0</ele><time>2026-04-18T07:02:46Z</time></trkpt><trkpt lat="45.792929212765586" lon="11.108143932091847"><ele>642.3333333333334</ele><time>2026-04-18T07:02:47Z</time></trkpt><trkpt lat="45.79308579108998" lon="11.108019542616688"><ele>641.6666666666666</ele><time>2026-04-18T07:02:48Z</time></trkpt><trkpt lat="45.79324223731553" lon="11.107912699190061"><ele>641.0</ele><time>2026-04-18T07:02:49Z</time></trkpt><trkpt lat="45.79339818652426" lon="11.107824669807199"><ele>640.3333333333333</ele><time>2026-04-18T07:02:50Z</time></trkpt><trkpt lat="45.793551177703456" lon="11.107747093048701"><ele>639.6666666666666</ele><time>2026-04-18T07:02:51Z</time></trkpt><trkpt lat="45.79371150614176" lon="11.1076688830524"><ele>639.0</ele><time>2026-04-18T07:02:52Z</time></trkpt><trkpt lat="45.79387941216695" lon="11.107582210325745"><ele>639.0</ele><time>2026-04-18T07:02:53Z</time></trkpt><trkpt lat="45.79405479914899" lon="11.107490286129023"><ele>639.0</ele><time>2026-04-18T07:02:54Z</time></trkpt><trkpt lat="45.79423481098493" lon="11.107397018136258"><ele>639.0</ele><time>2026-04-18T07:02:55Z</time></trkpt><trkpt lat="45.79441918040225" lon="11.107302720569477"><ele>635.3333333333334</ele><time>2026-04-18T07:02:56Z</time></trkpt><trkpt lat="45.79460589359295" lon="11.107208373128698"><ele>631.6666666666667</ele><time>2026-04-18T07:02:57Z</time></trkpt><trkpt lat="45.79478734180472" lon="11.107114206340006"><ele>628.0</ele><time>2026-04-18T07:02:58Z</time></trkpt><trkpt lat="45.79496347723283" lon="11.107020304117105"><ele>628.0</ele><time>2026-04-18T07:02:59Z</time></trkpt><trkpt lat="45.795136744524314" lon="11.106925805817562"><ele>628.0</ele><time>2026-04-18T07:03:00Z</time></trkpt><trkpt lat="45.795305040296796" lon="11.106833269114272"><ele>628.0</ele><time>2026-04-18T07:03:01Z</time></trkpt><trkpt lat="45.795453015478216" lon="11.10673872549004"><ele>626.6666666666667</ele><time>2026-04-18T07:03:02Z</time></trkpt><trkpt lat="45.795594926122654" lon="11.106634326015245"><ele>625.3333333333334</ele><time>2026-04-18T07:03:03Z</time></trkpt><trkpt lat="45.795742664303695" lon="11.106518757390225"><ele>624.0</ele><time>2026-04-18T07:03:04Z</time></trkpt><trkpt lat="45.79588760446306" lon="11.106386630240948"><ele>631.6666666666666</ele><time>2026-04-18T07:03:05Z</time></trkpt><trkpt lat="45.79602051620371" lon="11.106224568280444"><ele>639.3333333333333</ele><time>2026-04-18T07:03:06Z</time></trkpt><trkpt lat="45.79614829472738" lon="11.10603688007014"><ele>647.0</ele><time>2026-04-18T07:03:07Z</time></trkpt><trkpt lat="45.79626638107702" lon="11.105830511701253"><ele>641.0</ele><time>2026-04-18T07:03:08Z</time></trkpt><trkpt lat="45.79638443945401" lon="11.105615896657307"><ele>635.0</ele><time>2026-04-18T07:03:09Z</time></trkpt><trkpt lat="45.79649716149739" lon="11.105393780262304"><ele>629.0</ele><time>2026-04-18T07:03:10Z</time></trkpt><trkpt lat="45.79660497393887" lon="11.105176634694756"><ele>629.0</ele><time>2026-04-18T07:03:11Z</time></trkpt><trkpt lat="45.79671010853075" lon="11.104974248897777"><ele>629.0</ele><time>2026-04-18T07:03:12Z</time></trkpt><trkpt lat="45.79680986520625" lon="11.10478322374355"><ele>629.0</ele><time>2026-04-18T07:03:13Z</time></trkpt><trkpt lat="45.79690153170901" lon="11.104611137056734"><ele>629.75</ele><time>2026-04-18T07:03:14Z</time></trkpt><trkpt lat="45.79698430314751" lon="11.104439418656417"><ele>630.5</ele><time>2026-04-18T07:03:15Z</time></trkpt><trkpt lat="45.79705767312431" lon="11.104255651916745"><ele>631.25</ele><time>2026-04-18T07:03:16Z</time></trkpt><trkpt lat="45.79712118333222" lon="11.104080928092758"><ele>632.0</ele><time>2026-04-18T07:03:17Z</time></trkpt><trkpt lat="45.79718488230934" lon="11.103912243223354"><ele>632.0</ele><time>2026-04-18T07:03:18Z</time></trkpt><trkpt lat="45.797257296202666" lon="11.103755856659495"><ele>632.0</ele><time>2026-04-18T07:03:19Z</time></trkpt><trkpt lat="45.797348925980344" lon="11.103627319792523"><ele>632.0</ele><time>2026-04-18T07:03:20Z</time></trkpt><trkpt lat="45.79746524944716" lon="11.103524256185128"><ele>632.0</ele><time>2026-04-18T07:03:21Z</time></trkpt><trkpt lat="45.79759723071912" lon="11.103431368945742"><ele>635.3333333333333</ele><time>2026-04-18T07:03:22Z</time></trkpt><trkpt lat="45.79772928077501" lon="11.103312732599774"><ele>638.6666666666666</ele><time>2026-04-18T07:03:23Z</time></trkpt><trkpt lat="45.79785067162982" lon="11.10316153295968"><ele>642.0</ele><time>2026-04-18T07:03:24Z</time></trkpt><trkpt lat="45.797985815064706" lon="11.103014726663472"><ele>642.0</ele><time>2026-04-18T07:03:25Z</time></trkpt><trkpt lat="45.79810398119865" lon="11.102854348657974"><ele>642.0</ele><time>2026-04-18T07:03:26Z</time></trkpt><trkpt lat="45.79820969275946" lon="11.102691679611869"><ele>642.0</ele><time>2026-04-18T07:03:27Z</time></trkpt><trkpt lat="45.79834736209812" lon="11.10259647535834"><ele>642.0</ele><time>2026-04-18T07:03:28Z</time></trkpt><trkpt lat="45.798493839847275" lon="11.102517654419184"><ele>642.0</ele><time>2026-04-18T07:03:29Z</time></trkpt><trkpt lat="45.798641119094086" lon="11.102479320550213"><ele>642.0</ele><time>2026-04-18T07:03:30Z</time></trkpt><trkpt lat="45.798751376868566" lon="11.102434480776932"><ele>642.0</ele><time>2026-04-18T07:03:31Z</time></trkpt><trkpt lat="45.79884193561239" lon="11.102326813650432"><ele>644.5</ele><time>2026-04-18T07:03:32Z</time></trkpt><trkpt lat="45.798913661029104" lon="11.102173911092382"><ele>647.0</ele><time>2026-04-18T07:03:33Z</time></trkpt><trkpt lat="45.79896774124441" lon="11.101983612923593"><ele>649.5</ele><time>2026-04-18T07:03:34Z</time></trkpt><trkpt lat="45.79901809655521" lon="11.101774812917071"><ele>652.0</ele><time>2026-04-18T07:03:35Z</time></trkpt><trkpt lat="45.79907690249151" lon="11.101588953230026"><ele>650.4000000000001</ele><time>2026-04-18T07:03:36Z</time></trkpt><trkpt lat="45.79910563296734" lon="11.101420636011254"><ele>648.8000000000001</ele><time>2026-04-18T07:03:37Z</time></trkpt><trkpt lat="45.79918269055447" lon="11.101307385968642"><ele>647.2</ele><time>2026-04-18T07:03:38Z</time></trkpt><trkpt lat="45.79927949650088" lon="11.101246976746207"><ele>645.6</ele><time>2026-04-18T07:03:39Z</time></trkpt><trkpt lat="45.79938265306284" lon="11.101237284650573"><ele>644.0</ele><time>2026-04-18T07:03:40Z</time></trkpt><trkpt lat="45.79949645691264" lon="11.101248226058914"><ele>644.0</ele><time>2026-04-18T07:03:41Z</time></trkpt><trkpt lat="45.79962576356476" lon="11.10125447975238"><ele>644.0</ele><time>2026-04-18T07:03:42Z</time></trkpt><trkpt lat="45.79976873286055" lon="11.101247487043436"><ele>644.0</ele><time>2026-04-18T07:03:43Z</time></trkpt><trkpt lat="45.79991636040204" lon="11.10124184502438"><ele>644.0</ele><time>2026-04-18T07:03:44Z</time></trkpt><trkpt lat="45.80006236217772" lon="11.101260915411006"><ele>652.25</ele><time>2026-04-18T07:03:45Z</time></trkpt><trkpt lat="45.800189881511265" lon="11.101294853814865"><ele>660.5</ele><time>2026-04-18T07:03:46Z</time></trkpt><trkpt lat="45.80031375361971" lon="11.1012861623115"><ele>668.75</ele><time>2026-04-18T07:03:47Z</time></trkpt><trkpt lat="45.80043773415275" lon="11.101220023673841"><ele>677.0</ele><time>2026-04-18T07:03:48Z</time></trkpt><trkpt lat="45.80055861501104" lon="11.101106166728025"><ele>677.0</ele><time>2026-04-18T07:03:49Z</time></trkpt><trkpt lat="45.800674475819164" lon="11.10096425731115"><ele>677.0</ele><time>2026-04-18T07:03:50Z</time></trkpt><trkpt lat="45.80078114587729" lon="11.100800663424089"><ele>677.0</ele><time>2026-04-18T07:03:51Z</time></trkpt><trkpt lat="45.80086343977357" lon="11.100599284968585"><ele>682.6666666666666</ele><time>2026-04-18T07:03:52Z</time></trkpt><trkpt lat="45.80094034980113" lon="11.100375729460678"><ele>688.3333333333334</ele><time>2026-04-18T07:03:53Z</time></trkpt><trkpt lat="45.80105380986175" lon="11.100166108608494"><ele>694.0</ele><time>2026-04-18T07:03:54Z</time></trkpt><trkpt lat="45.801140595481804" lon="11.099950349640348"><ele>678.75</ele><time>2026-04-18T07:03:55Z</time></trkpt><trkpt lat="45.8012330507517" lon="11.099781623496357"><ele>663.5</ele><time>2026-04-18T07:03:56Z</time></trkpt><trkpt lat="45.80130961677617" lon="11.099643038058254"><ele>648.25</ele><time>2026-04-18T07:03:57Z</time></trkpt><trkpt lat="45.80140791596716" lon="11.099577139896079"><ele>633.0</ele><time>2026-04-18T07:03:58Z</time></trkpt><trkpt lat="45.80150433536994" lon="11.099515072563898"><ele>633.0</ele><time>2026-04-18T07:03:59Z</time></trkpt><trkpt lat="45.80161953482448" lon="11.099482964650432"><ele>633.0</ele><time>2026-04-18T07:04:00Z</time></trkpt><trkpt lat="45.80175526567642" lon="11.099435841853083"><ele>633.0</ele><time>2026-04-18T07:04:01Z</time></trkpt><trkpt lat="45.80190816651811" lon="11.0993738375404"><ele>633.0</ele><time>2026-04-18T07:04:02Z</time></trkpt><trkpt lat="45.802055109611544" lon="11.09923445505018"><ele>625.6666666666666</ele><time>2026-04-18T07:04:03Z</time></trkpt><trkpt lat="45.80222709086476" lon="11.099125105420091"><ele>618.3333333333333</ele><time>2026-04-18T07:04:04Z</time></trkpt><trkpt lat="45.80241132096157" lon="11.099028847510326"><ele>611.0</ele><time>2026-04-18T07:04:05Z</time></trkpt><trkpt lat="45.80258855017813" lon="11.098941565719388"><ele>619.5</ele><time>2026-04-18T07:04:06Z</time></trkpt><trkpt lat="45.80272419278275" lon="11.098777395472993"><ele>628.0</ele><time>2026-04-18T07:04:07Z</time></trkpt><trkpt lat="45.802839347058814" lon="11.098660330348299"><ele>636.5</ele><time>2026-04-18T07:04:08Z</time></trkpt><trkpt lat="45.80292917843027" lon="11.098568295697644"><ele>645.0</ele><time>2026-04-18T07:04:09Z</time></trkpt><trkpt lat="45.80301450525753" lon="11.09849956625337"><ele>645.0</ele><time>2026-04-18T07:04:10Z</time></trkpt><trkpt lat="45.80311888279978" lon="11.098531072586706"><ele>645.0</ele><time>2026-04-18T07:04:11Z</time></trkpt><trkpt lat="45.803236396585554" lon="11.098605828015524"><ele>645.0</ele><time>2026-04-18T07:04:12Z</time></trkpt><trkpt lat="45.803365974336344" lon="11.098682650279258"><ele>645.0</ele><time>2026-04-18T07:04:13Z</time></trkpt><trkpt lat="45.80351232161827" lon="11.098739469185093"><ele>647.6666666666666</ele><time>2026-04-18T07:04:14Z</time></trkpt><trkpt lat="45.80368686596433" lon="11.098793501552093"><ele>650.3333333333333</ele><time>2026-04-18T07:04:15Z</time></trkpt><trkpt lat="45.803863392379725" lon="11.098844630026973"><ele>653.0</ele><time>2026-04-18T07:04:16Z</time></trkpt><trkpt lat="45.80403218525527" lon="11.098896085527194"><ele>653.0</ele><time>2026-04-18T07:04:17Z</time></trkpt><trkpt lat="45.804189463954735" lon="11.098931294946844"><ele>653.0</ele><time>2026-04-18T07:04:18Z</time></trkpt><trkpt lat="45.80433299594153" lon="11.098852876936355"><ele>653.0</ele><time>2026-04-18T07:04:19Z</time></trkpt><trkpt lat="45.8044780589807" lon="11.098771880921328"><ele>656.0</ele><time>2026-04-18T07:04:20Z</time></trkpt><trkpt lat="45.80464230468426" lon="11.098742394769424"><ele>659.0</ele><time>2026-04-18T07:04:21Z</time></trkpt><trkpt lat="45.804816288807814" lon="11.098751541632952"><ele>662.0</ele><time>2026-04-18T07:04:22Z</time></trkpt><trkpt lat="45.805003043346666" lon="11.09875669999831"><ele>663.3333333333333</ele><time>2026-04-18T07:04:23Z</time></trkpt><trkpt lat="45.805187964796644" lon="11.098738582052258"><ele>664.6666666666666</ele><time>2026-04-18T07:04:24Z</time></trkpt><trkpt lat="45.80536958024073" lon="11.098734873467674"><ele>666.0</ele><time>2026-04-18T07:04:25Z</time></trkpt><trkpt lat="45.80553920140854" lon="11.09876864578478"><ele>666.0</ele><time>2026-04-18T07:04:26Z</time></trkpt><trkpt lat="45.80569291147242" lon="11.098832257814747"><ele>666.0</ele><time>2026-04-18T07:04:27Z</time></trkpt><trkpt lat="45.80582584887361" lon="11.098869796504921"><ele>666.0</ele><time>2026-04-18T07:04:28Z</time></trkpt><trkpt lat="45.80596416326912" lon="11.098836135758551"><ele>666.0</ele><time>2026-04-18T07:04:29Z</time></trkpt><trkpt lat="45.806110873123565" lon="11.098753403757334"><ele>672.6666666666666</ele><time>2026-04-18T07:04:30Z</time></trkpt><trkpt lat="45.806268520454736" lon="11.098659095640372"><ele>679.3333333333333</ele><time>2026-04-18T07:04:31Z</time></trkpt><trkpt lat="45.806426048621134" lon="11.098557930340844"><ele>686.0</ele><time>2026-04-18T07:04:32Z</time></trkpt><trkpt lat="45.806570393102994" lon="11.09840376265499"><ele>686.3333333333333</ele><time>2026-04-18T07:04:33Z</time></trkpt><trkpt lat="45.806713181781724" lon="11.09822173529411"><ele>686.6666666666666</ele><time>2026-04-18T07:04:34Z</time></trkpt><trkpt lat="45.806838869374914" lon="11.09801891838273"><ele>687.0</ele><time>2026-04-18T07:04:35Z</time></trkpt><trkpt lat="45.80699522641717" lon="11.097857551421596"><ele>687.0</ele><time>2026-04-18T07:04:36Z</time></trkpt><trkpt lat="45.80715766698807" lon="11.09772861371167"><ele>687.0</ele><time>2026-04-18T07:04:37Z</time></trkpt><trkpt lat="45.80728004863791" lon="11.097557318812246"><ele>687.0</ele><time>2026-04-18T07:04:38Z</time></trkpt><trkpt lat="45.807368499503966" lon="11.097376661910417"><ele>682.75</ele><time>2026-04-18T07:04:39Z</time></trkpt><trkpt lat="45.80746479366712" lon="11.097247224015495"><ele>678.5</ele><time>2026-04-18T07:04:40Z</time></trkpt><trkpt lat="45.80758307195254" lon="11.097180172579"><ele>674.25</ele><time>2026-04-18T07:04:41Z</time></trkpt><trkpt lat="45.80770198062385" lon="11.097101287010366"><ele>670.0</ele><time>2026-04-18T07:04:42Z</time></trkpt><trkpt lat="45.80783029888545" lon="11.097051415676663"><ele>670.0</ele><time>2026-04-18T07:04:43Z</time></trkpt><trkpt lat="45.807982474169116" lon="11.09701883160659"><ele>670.0</ele><time>2026-04-18T07:04:44Z</time></trkpt><trkpt lat="45.80814263913233" lon="11.097028912079757"><ele>670.0</ele><time>2026-04-18T07:04:45Z</time></trkpt><trkpt lat="45.80829662882648" lon="11.097019259751955"><ele>670.0</ele><time>2026-04-18T07:04:46Z</time></trkpt><trkpt lat="45.808456794906476" lon="11.096966028817853"><ele>670.0</ele><time>2026-04-18T07:04:47Z</time></trkpt><trkpt lat="45.808615032796865" lon="11.096889422614456"><ele>670.0</ele><time>2026-04-18T07:04:48Z</time></trkpt><trkpt lat="45.80877125439175" lon="11.096793441482008"><ele>670.3333333333334</ele><time>2026-04-18T07:04:49Z</time></trkpt><trkpt lat="45.808910788583376" lon="11.096672133458064"><ele>670.6666666666666</ele><time>2026-04-18T07:04:50Z</time></trkpt><trkpt lat="45.809047363232146" lon="11.096568178810939"><ele>671.0</ele><time>2026-04-18T07:04:51Z</time></trkpt><trkpt lat="45.809169359283615" lon="11.096402380296043"><ele>671.0</ele><time>2026-04-18T07:04:52Z</time></trkpt><trkpt lat="45.80927130108288" lon="11.096194758503765"><ele>671.0</ele><time>2026-04-18T07:04:53Z</time></trkpt><trkpt lat="45.809379038276056" lon="11.096000624703397"><ele>671.0</ele><time>2026-04-18T07:04:54Z</time></trkpt><trkpt lat="45.80949083883393" lon="11.095844250884605"><ele>666.0</ele><time>2026-04-18T07:04:55Z</time></trkpt><trkpt lat="45.80958595493531" lon="11.095704358788096"><ele>661.0</ele><time>2026-04-18T07:04:56Z</time></trkpt><trkpt lat="45.8096741347079" lon="11.09559856503763"><ele>656.0</ele><time>2026-04-18T07:04:57Z</time></trkpt><trkpt lat="45.80977116597281" lon="11.09553386786921"><ele>651.0</ele><time>2026-04-18T07:04:58Z</time></trkpt><trkpt lat="45.809878646698714" lon="11.095543270487374"><ele>651.0</ele><time>2026-04-18T07:04:59Z</time></trkpt><trkpt lat="45.809995795017805" lon="11.09560456801937"><ele>651.0</ele><time>2026-04-18T07:05:00Z</time></trkpt><trkpt lat="45.81012638392314" lon="11.09568452991234"><ele>651.0</ele><time>2026-04-18T07:05:01Z</time></trkpt><trkpt lat="45.810265450253034" lon="11.09578160501784"><ele>651.0</ele><time>2026-04-18T07:05:02Z</time></trkpt><trkpt lat="45.81040412830571" lon="11.09585017101799"><ele>657.5</ele><time>2026-04-18T07:05:03Z</time></trkpt><trkpt lat="45.81053676700349" lon="11.095854469536832"><ele>664.0</ele><time>2026-04-18T07:05:04Z</time></trkpt><trkpt lat="45.81067913880837" lon="11.095876727590987"><ele>670.5</ele><time>2026-04-18T07:05:05Z</time></trkpt><trkpt lat="45.81081761139424" lon="11.095950732225784"><ele>677.0</ele><time>2026-04-18T07:05:06Z</time></trkpt><trkpt lat="45.810963440108345" lon="11.096073990781344"><ele>673.5</ele><time>2026-04-18T07:05:07Z</time></trkpt><trkpt lat="45.81109854739658" lon="11.096182284964653"><ele>670.0</ele><time>2026-04-18T07:05:08Z</time></trkpt><trkpt lat="45.8112267432355" lon="11.09625031033611"><ele>666.5</ele><time>2026-04-18T07:05:09Z</time></trkpt><trkpt lat="45.81135990422987" lon="11.096283540801293"><ele>663.0</ele><time>2026-04-18T07:05:10Z</time></trkpt><trkpt lat="45.81150735842182" lon="11.096263746568395"><ele>663.0</ele><time>2026-04-18T07:05:11Z</time></trkpt><trkpt lat="45.81166989879903" lon="11.096187116364014"><ele>663.0</ele><time>2026-04-18T07:05:12Z</time></trkpt><trkpt lat="45.81184199276282" lon="11.09607570726565"><ele>663.0</ele><time>2026-04-18T07:05:13Z</time></trkpt><trkpt lat="45.81200525500485" lon="11.095933690027096"><ele>659.6666666666666</ele><time>2026-04-18T07:05:14Z</time></trkpt><trkpt lat="45.812196861991175" lon="11.095803016050949"><ele>656.3333333333333</ele><time>2026-04-18T07:05:15Z</time></trkpt><trkpt lat="45.81237142325226" lon="11.095657686503213"><ele>653.0</ele><time>2026-04-18T07:05:16Z</time></trkpt><trkpt lat="45.81250867553478" lon="11.095473254991818"><ele>653.0</ele><time>2026-04-18T07:05:17Z</time></trkpt><trkpt lat="45.81264008342537" lon="11.095322024576515"><ele>653.0</ele><time>2026-04-18T07:05:18Z</time></trkpt><trkpt lat="45.81275419979546" lon="11.09515959913306"><ele>653.0</ele><time>2026-04-18T07:05:19Z</time></trkpt><trkpt lat="45.81288458344015" lon="11.095038667067396"><ele>659.6666666666666</ele><time>2026-04-18T07:05:20Z</time></trkpt><trkpt lat="45.81301999440368" lon="11.094935749193167"><ele>666.3333333333334</ele><time>2026-04-18T07:05:21Z</time></trkpt><trkpt lat="45.813174014204" lon="11.094904186454887"><ele>673.0</ele><time>2026-04-18T07:05:22Z</time></trkpt><trkpt lat="45.81334419474558" lon="11.094897673852405"><ele>658.6666666666667</ele><time>2026-04-18T07:05:23Z</time></trkpt><trkpt lat="45.813522131401136" lon="11.094915416290254"><ele>644.3333333333334</ele><time>2026-04-18T07:05:24Z</time></trkpt><trkpt lat="45.813699977889584" lon="11.094893566327242"><ele>630.0</ele><time>2026-04-18T07:05:25Z</time></trkpt><trkpt lat="45.813858665346565" lon="11.094869085626646"><ele>630.0</ele><time>2026-04-18T07:05:26Z</time></trkpt><trkpt lat="45.81401188581382" lon="11.0948466166251"><ele>630.0</ele><time>2026-04-18T07:05:27Z</time></trkpt><trkpt lat="45.814161973735956" lon="11.094830181876326"><ele>630.0</ele><time>2026-04-18T07:05:28Z</time></trkpt><trkpt lat="45.81430782120313" lon="11.094819910421489"><ele>633.3333333333334</ele><time>2026-04-18T07:05:29Z</time></trkpt><trkpt lat="45.81445540209285" lon="11.09489303061911"><ele>636.6666666666667</ele><time>2026-04-18T07:05:30Z</time></trkpt><trkpt lat="45.81457699085559" lon="11.095014456746519"><ele>640.0</ele><time>2026-04-18T07:05:31Z</time></trkpt><trkpt lat="45.81469197734827" lon="11.095164973827506"><ele>640.0</ele><time>2026-04-18T07:05:32Z</time></trkpt><trkpt lat="45.814810710162455" lon="11.095343335775317"><ele>640.0</ele><time>2026-04-18T07:05:33Z</time></trkpt><trkpt lat="45.81493383518994" lon="11.09552650175828"><ele>640.0</ele><time>2026-04-18T07:05:34Z</time></trkpt><trkpt lat="45.81504996039975" lon="11.095713195742336"><ele>645.75</ele><time>2026-04-18T07:05:35Z</time></trkpt><trkpt lat="45.815140956581715" lon="11.095898760756755"><ele>651.5</ele><time>2026-04-18T07:05:36Z</time></trkpt><trkpt lat="45.815207968959825" lon="11.096084005190162"><ele>657.25</ele><time>2026-04-18T07:05:37Z</time></trkpt><trkpt lat="45.815256441199054" lon="11.096254984200339"><ele>663.0</ele><time>2026-04-18T07:05:38Z</time></trkpt><trkpt lat="45.81529094766351" lon="11.09638762347326"><ele>663.0</ele><time>2026-04-18T07:05:39Z</time></trkpt><trkpt lat="45.81533928588373" lon="11.096495206129065"><ele>663.0</ele><time>2026-04-18T07:05:40Z</time></trkpt><trkpt lat="45.8154252945807" lon="11.096546000810413"><ele>663.0</ele><time>2026-04-18T07:05:41Z</time></trkpt><trkpt lat="45.81550987747546" lon="11.096527193357975"><ele>663.0</ele><time>2026-04-18T07:05:42Z</time></trkpt><trkpt lat="45.81561469310143" lon="11.09647369834616"><ele>663.0</ele><time>2026-04-18T07:05:43Z</time></trkpt><trkpt lat="45.815680886970526" lon="11.096313497055126"><ele>663.0</ele><time>2026-04-18T07:05:44Z</time></trkpt><trkpt lat="45.815751103712074" lon="11.096140151194966"><ele>663.0</ele><time>2026-04-18T07:05:45Z</time></trkpt><trkpt lat="45.81580102161068" lon="11.09593584732928"><ele>663.0</ele><time>2026-04-18T07:05:46Z</time></trkpt><trkpt lat="45.815818456455375" lon="11.095726634601967"><ele>663.0</ele><time>2026-04-18T07:05:47Z</time></trkpt><trkpt lat="45.815848466294625" lon="11.095553272345969"><ele>661.8</ele><time>2026-04-18T07:05:48Z</time></trkpt><trkpt lat="45.81587547632067" lon="11.095414266348511"><ele>660.5999999999999</ele><time>2026-04-18T07:05:49Z</time></trkpt><trkpt lat="45.81590562008056" lon="11.095320652739295"><ele>659.4000000000001</ele><time>2026-04-18T07:05:50Z</time></trkpt><trkpt lat="45.81599164815299" lon="11.095280824512919"><ele>658.2</ele><time>2026-04-18T07:05:51Z</time></trkpt><trkpt lat="45.816107213502676" lon="11.0952510484059"><ele>657.0</ele><time>2026-04-18T07:05:52Z</time></trkpt><trkpt lat="45.816243392198025" lon="11.095204659936964"><ele>657.0</ele><time>2026-04-18T07:05:53Z</time></trkpt><trkpt lat="45.816383081683796" lon="11.095137930484276"><ele>657.0</ele><time>2026-04-18T07:05:54Z</time></trkpt><trkpt lat="45.81651423253852" lon="11.09503386455208"><ele>657.0</ele><time>2026-04-18T07:05:55Z</time></trkpt><trkpt lat="45.81666081408603" lon="11.094916274509377"><ele>655.6666666666666</ele><time>2026-04-18T07:05:56Z</time></trkpt><trkpt lat="45.81680836283142" lon="11.094784675519834"><ele>654.3333333333333</ele><time>2026-04-18T07:05:57Z</time></trkpt><trkpt lat="45.81694325795755" lon="11.094612956808945"><ele>653.0</ele><time>2026-04-18T07:05:58Z</time></trkpt><trkpt lat="45.81707548943247" lon="11.094422260762517"><ele>653.0</ele><time>2026-04-18T07:05:59Z</time></trkpt><trkpt lat="45.81720550746715" lon="11.094245146719048"><ele>653.0</ele><time>2026-04-18T07:06:00Z</time></trkpt><trkpt lat="45.817350824240606" lon="11.09410091065176"><ele>653.0</ele><time>2026-04-18T07:06:01Z</time></trkpt><trkpt lat="45.817462630896344" lon="11.093909380229732"><ele>654.0</ele><time>2026-04-18T07:06:02Z</time></trkpt><trkpt lat="45.8175579994907" lon="11.09370670576004"><ele>655.0</ele><time>2026-04-18T07:06:03Z</time></trkpt><trkpt lat="45.81765068842813" lon="11.0935078496439"><ele>656.0</ele><time>2026-04-18T07:06:04Z</time></trkpt><trkpt lat="45.817748037608716" lon="11.093320020662805"><ele>652.3333333333333</ele><time>2026-04-18T07:06:05Z</time></trkpt><trkpt lat="45.81786542657098" lon="11.093149353434972"><ele>648.6666666666666</ele><time>2026-04-18T07:06:06Z</time></trkpt><trkpt lat="45.81797380890813" lon="11.09296933104791"><ele>645.0</ele><time>2026-04-18T07:06:07Z</time></trkpt><trkpt lat="45.81807146160574" lon="11.092791998394652"><ele>645.0</ele><time>2026-04-18T07:06:08Z</time></trkpt><trkpt lat="45.81816264426031" lon="11.092617417814413"><ele>645.0</ele><time>2026-04-18T07:06:09Z</time></trkpt><trkpt lat="45.818245908521924" lon="11.092449744254973"><ele>645.0</ele><time>2026-04-18T07:06:10Z</time></trkpt><trkpt lat="45.818323151219694" lon="11.092285806223531"><ele>645.0</ele><time>2026-04-18T07:06:11Z</time></trkpt><trkpt lat="45.81839254842273" lon="11.092115459333632"><ele>647.0</ele><time>2026-04-18T07:06:12Z</time></trkpt><trkpt lat="45.818479024169285" lon="11.091960956455713"><ele>649.0</ele><time>2026-04-18T07:06:13Z</time></trkpt><trkpt lat="45.818585941552456" lon="11.091822372798863"><ele>651.0</ele><time>2026-04-18T07:06:14Z</time></trkpt><trkpt lat="45.81870491430299" lon="11.091676187570842"><ele>653.0</ele><time>2026-04-18T07:06:15Z</time></trkpt><trkpt lat="45.81881984354495" lon="11.091517996146637"><ele>642.3333333333333</ele><time>2026-04-18T07:06:16Z</time></trkpt><trkpt lat="45.81895324774401" lon="11.09138973571161"><ele>631.6666666666666</ele><time>2026-04-18T07:06:17Z</time></trkpt><trkpt lat="45.81908747824288" lon="11.09127583344599"><ele>621.0</ele><time>2026-04-18T07:06:18Z</time></trkpt><trkpt lat="45.8192294863956" lon="11.091192278673471"><ele>625.3333333333334</ele><time>2026-04-18T07:06:19Z</time></trkpt><trkpt lat="45.8193756874367" lon="11.09109746862862"><ele>629.6666666666667</ele><time>2026-04-18T07:06:20Z</time></trkpt><trkpt lat="45.81954326113301" lon="11.091011148174665"><ele>634.0</ele><time>2026-04-18T07:06:21Z</time></trkpt><trkpt lat="45.81972826267155" lon="11.09092523847549"><ele>634.0</ele><time>2026-04-18T07:06:22Z</time></trkpt><trkpt lat="45.81990292193179" lon="11.090820990435835"><ele>634.0</ele><time>2026-04-18T07:06:23Z</time></trkpt><trkpt lat="45.82007987262116" lon="11.09077073764016"><ele>634.0</ele><time>2026-04-18T07:06:24Z</time></trkpt><trkpt lat="45.820248704450016" lon="11.090720851360532"><ele>620.3333333333334</ele><time>2026-04-18T07:06:25Z</time></trkpt><trkpt lat="45.82041683819268" lon="11.090702593484613"><ele>606.6666666666666</ele><time>2026-04-18T07:06:26Z</time></trkpt><trkpt lat="45.82057914670512" lon="11.090698601424858"><ele>593.0</ele><time>2026-04-18T07:06:27Z</time></trkpt><trkpt lat="45.820743281549134" lon="11.090732397246365"><ele>601.6666666666666</ele><time>2026-04-18T07:06:28Z</time></trkpt><trkpt lat="45.820928998103845" lon="11.090767789703008"><ele>610.3333333333334</ele><time>2026-04-18T07:06:29Z</time></trkpt><trkpt lat="45.82110850631498" lon="11.09085467831776"><ele>619.0</ele><time>2026-04-18T07:06:30Z</time></trkpt><trkpt lat="45.82128004296361" lon="11.090937559828786"><ele>619.0</ele><time>2026-04-18T07:06:31Z</time></trkpt><trkpt lat="45.82144724646737" lon="11.090999008070996"><ele>619.0</ele><time>2026-04-18T07:06:32Z</time></trkpt><trkpt lat="45.82162278332225" lon="11.091024254834245"><ele>619.0</ele><time>2026-04-18T07:06:33Z</time></trkpt><trkpt lat="45.82180735973014" lon="11.091008253325604"><ele>621.6666666666667</ele><time>2026-04-18T07:06:34Z</time></trkpt><trkpt lat="45.82199959034944" lon="11.090976172414614"><ele>624.3333333333334</ele><time>2026-04-18T07:06:35Z</time></trkpt><trkpt lat="45.82218046958946" lon="11.090946145604079"><ele>627.0</ele><time>2026-04-18T07:06:36Z</time></trkpt><trkpt lat="45.82234552230627" lon="11.090907584163892"><ele>627.0</ele><time>2026-04-18T07:06:37Z</time></trkpt><trkpt lat="45.822500867979926" lon="11.090832856422711"><ele>627.0</ele><time>2026-04-18T07:06:38Z</time></trkpt><trkpt lat="45.82265191416" lon="11.09073144071406"><ele>627.0</ele><time>2026-04-18T07:06:39Z</time></trkpt><trkpt lat="45.82279431779491" lon="11.09058357687972"><ele>633.0</ele><time>2026-04-18T07:06:40Z</time></trkpt><trkpt lat="45.82293750029956" lon="11.090426704423125"><ele>639.0</ele><time>2026-04-18T07:06:41Z</time></trkpt><trkpt lat="45.82304922978808" lon="11.090234227752262"><ele>645.0</ele><time>2026-04-18T07:06:42Z</time></trkpt><trkpt lat="45.82311538984503" lon="11.090010796831008"><ele>639.6666666666666</ele><time>2026-04-18T07:06:43Z</time></trkpt><trkpt lat="45.823128542883744" lon="11.0897745131702"><ele>634.3333333333333</ele><time>2026-04-18T07:06:44Z</time></trkpt><trkpt lat="45.823088383175474" lon="11.089550315836373"><ele>629.0</ele><time>2026-04-18T07:06:45Z</time></trkpt><trkpt lat="45.82305870553286" lon="11.089325519113308"><ele>629.0</ele><time>2026-04-18T07:06:46Z</time></trkpt><trkpt lat="45.82300521669903" lon="11.089138033964282"><ele>629.0</ele><time>2026-04-18T07:06:47Z</time></trkpt><trkpt lat="45.82297108874836" lon="11.08897787233908"><ele>629.0</ele><time>2026-04-18T07:06:48Z</time></trkpt><trkpt lat="45.82299109162587" lon="11.08881517148914"><ele>629.0</ele><time>2026-04-18T07:06:49Z</time></trkpt><trkpt lat="45.82305226156755" lon="11.088671704043575"><ele>620.6666666666666</ele><time>2026-04-18T07:06:50Z</time></trkpt><trkpt lat="45.82315014615619" lon="11.088542842184426"><ele>612.3333333333334</ele><time>2026-04-18T07:06:51Z</time></trkpt><trkpt lat="45.823267431423055" lon="11.08840406677988"><ele>604.0</ele><time>2026-04-18T07:06:52Z</time></trkpt><trkpt lat="45.82338863803135" lon="11.088238062694925"><ele>615.0</ele><time>2026-04-18T07:06:53Z</time></trkpt><trkpt lat="45.823509623015035" lon="11.08803575461067"><ele>626.0</ele><time>2026-04-18T07:06:54Z</time></trkpt><trkpt lat="45.823616871424335" lon="11.087822613911353"><ele>637.0</ele><time>2026-04-18T07:06:55Z</time></trkpt><trkpt lat="45.823730697519196" lon="11.08760063217927"><ele>627.6666666666667</ele><time>2026-04-18T07:06:56Z</time></trkpt><trkpt lat="45.82382046252371" lon="11.087371363515729"><ele>618.3333333333334</ele><time>2026-04-18T07:06:57Z</time></trkpt><trkpt lat="45.82389511554094" lon="11.087148222849942"><ele>609.0</ele><time>2026-04-18T07:06:58Z</time></trkpt><trkpt lat="45.82396604767706" lon="11.086932244079295"><ele>609.0</ele><time>2026-04-18T07:06:59Z</time></trkpt><trkpt lat="45.82403544350675" lon="11.086722630533796"><ele>609.0</ele><time>2026-04-18T07:07:00Z</time></trkpt><trkpt lat="45.82409449488617" lon="11.086515061922233"><ele>609.0</ele><time>2026-04-18T07:07:01Z</time></trkpt><trkpt lat="45.82419149808067" lon="11.086328228669048"><ele>615.0</ele><time>2026-04-18T07:07:02Z</time></trkpt><trkpt lat="45.824308523629355" lon="11.086150575679918"><ele>621.0</ele><time>2026-04-18T07:07:03Z</time></trkpt><trkpt lat="45.82444106523924" lon="11.086006187327158"><ele>627.0</ele><time>2026-04-18T07:07:04Z</time></trkpt><trkpt lat="45.82452742396415" lon="11.08583803694368"><ele>616.75</ele><time>2026-04-18T07:07:05Z</time></trkpt><trkpt lat="45.824602438422026" lon="11.085690580905222"><ele>606.5</ele><time>2026-04-18T07:07:06Z</time></trkpt><trkpt lat="45.82471977369737" lon="11.085592004032488"><ele>596.25</ele><time>2026-04-18T07:07:07Z</time></trkpt><trkpt lat="45.82484194495084" lon="11.085516432416437"><ele>586.0</ele><time>2026-04-18T07:07:08Z</time></trkpt><trkpt lat="45.82496838541372" lon="11.085403057988152"><ele>586.0</ele><time>2026-04-18T07:07:09Z</time></trkpt><trkpt lat="45.82507040527032" lon="11.085244287346809"><ele>586.0</ele><time>2026-04-18T07:07:10Z</time></trkpt><trkpt lat="45.8251560458582" lon="11.08505741184788"><ele>586.0</ele><time>2026-04-18T07:07:11Z</time></trkpt><trkpt lat="45.825211087277424" lon="11.08483842327229"><ele>593.6666666666667</ele><time>2026-04-18T07:07:12Z</time></trkpt><trkpt lat="45.82525146290199" lon="11.08461170858399"><ele>601.3333333333334</ele><time>2026-04-18T07:07:13Z</time></trkpt><trkpt lat="45.825323396187095" lon="11.08440784043982"><ele>609.0</ele><time>2026-04-18T07:07:14Z</time></trkpt><trkpt lat="45.825403657193135" lon="11.08421935698175"><ele>597.6666666666666</ele><time>2026-04-18T07:07:15Z</time></trkpt><trkpt lat="45.82549366244494" lon="11.084028452935785"><ele>586.3333333333333</ele><time>2026-04-18T07:07:16Z</time></trkpt><trkpt lat="45.825567672257904" lon="11.083829032887657"><ele>575.0</ele><time>2026-04-18T07:07:17Z</time></trkpt><trkpt lat="45.82564912764914" lon="11.083643251463785"><ele>575.0</ele><time>2026-04-18T07:07:18Z</time></trkpt><trkpt lat="45.82574152261488" lon="11.08348572018309"><ele>575.0</ele><time>2026-04-18T07:07:19Z</time></trkpt><trkpt lat="45.82580595088879" lon="11.083318582010302"><ele>575.0</ele><time>2026-04-18T07:07:20Z</time></trkpt><trkpt lat="45.825906017254724" lon="11.083214144163346"><ele>575.0</ele><time>2026-04-18T07:07:21Z</time></trkpt><trkpt lat="45.82603130388103" lon="11.08315978806544"><ele>576.75</ele><time>2026-04-18T07:07:22Z</time></trkpt><trkpt lat="45.82617072241428" lon="11.08313804236467"><ele>578.5</ele><time>2026-04-18T07:07:23Z</time></trkpt><trkpt lat="45.82631335611607" lon="11.083077668576173"><ele>580.25</ele><time>2026-04-18T07:07:24Z</time></trkpt><trkpt lat="45.826442285470876" lon="11.08296915501953"><ele>582.0</ele><time>2026-04-18T07:07:25Z</time></trkpt><trkpt lat="45.826544300906136" lon="11.082829676154063"><ele>582.0</ele><time>2026-04-18T07:07:26Z</time></trkpt><trkpt lat="45.82662074342889" lon="11.082652077330193"><ele>582.0</ele><time>2026-04-18T07:07:27Z</time></trkpt><trkpt lat="45.82669455064368" lon="11.082447376721044"><ele>582.0</ele><time>2026-04-18T07:07:28Z</time></trkpt><trkpt lat="45.82675896490134" lon="11.082232110081947"><ele>584.0</ele><time>2026-04-18T07:07:29Z</time></trkpt><trkpt lat="45.82682493910857" lon="11.08203444885428"><ele>586.0</ele><time>2026-04-18T07:07:30Z</time></trkpt><trkpt lat="45.82689099480062" lon="11.081855238917322"><ele>588.0</ele><time>2026-04-18T07:07:31Z</time></trkpt><trkpt lat="45.826951798544975" lon="11.081706550633657"><ele>590.0</ele><time>2026-04-18T07:07:32Z</time></trkpt><trkpt lat="45.827029654267726" lon="11.081573119227526"><ele>581.5</ele><time>2026-04-18T07:07:33Z</time></trkpt><trkpt lat="45.82716520729033" lon="11.081504895736224"><ele>573.0</ele><time>2026-04-18T07:07:34Z</time></trkpt><trkpt lat="45.82726984984427" lon="11.08136854279473"><ele>564.5</ele><time>2026-04-18T07:07:35Z</time></trkpt><trkpt lat="45.827338048321906" lon="11.081203579366207"><ele>556.0</ele><time>2026-04-18T07:07:36Z</time></trkpt><trkpt lat="45.827410979404554" lon="11.081072269785842"><ele>556.0</ele><time>2026-04-18T07:07:37Z</time></trkpt><trkpt lat="45.827505630592654" lon="11.080977952071162"><ele>556.0</ele><time>2026-04-18T07:07:38Z</time></trkpt><trkpt lat="45.82764566806296" lon="11.080937129338821"><ele>556.0</ele><time>2026-04-18T07:07:39Z</time></trkpt><trkpt lat="45.827777924336495" lon="11.080853651968804"><ele>556.0</ele><time>2026-04-18T07:07:40Z</time></trkpt><trkpt lat="45.82789896928885" lon="11.080690575195982"><ele>554.3333333333334</ele><time>2026-04-18T07:07:41Z</time></trkpt><trkpt lat="45.82802067076816" lon="11.080503145971896"><ele>552.6666666666666</ele><time>2026-04-18T07:07:42Z</time></trkpt><trkpt lat="45.82812051047914" lon="11.080312157361949"><ele>551.0</ele><time>2026-04-18T07:07:43Z</time></trkpt><trkpt lat="45.828213004725626" lon="11.080133453442556"><ele>551.0</ele><time>2026-04-18T07:07:44Z</time></trkpt><trkpt lat="45.8282914319264" lon="11.079992139069399"><ele>551.0</ele><time>2026-04-18T07:07:45Z</time></trkpt><trkpt lat="45.828421430410316" lon="11.079950035655155"><ele>551.0</ele><time>2026-04-18T07:07:46Z</time></trkpt><trkpt lat="45.82856885382389" lon="11.079904491061264"><ele>551.0</ele><time>2026-04-18T07:07:47Z</time></trkpt><trkpt lat="45.82868310129206" lon="11.079811700770993"><ele>547.6</ele><time>2026-04-18T07:07:48Z</time></trkpt><trkpt lat="45.82877048760263" lon="11.079679643505381"><ele>544.2</ele><time>2026-04-18T07:07:49Z</time></trkpt><trkpt lat="45.828826663705286" lon="11.079543391689873"><ele>540.8</ele><time>2026-04-18T07:07:50Z</time></trkpt><trkpt lat="45.8288837255425" lon="11.079430076872201"><ele>537.4</ele><time>2026-04-18T07:07:51Z</time></trkpt><trkpt lat="45.82894823071786" lon="11.079343465540308"><ele>534.0</ele><time>2026-04-18T07:07:52Z</time></trkpt><trkpt lat="45.82903474231595" lon="11.079273915995834"><ele>534.0</ele><time>2026-04-18T07:07:53Z</time></trkpt><trkpt lat="45.82910269354335" lon="11.079173184888264"><ele>534.0</ele><time>2026-04-18T07:07:54Z</time></trkpt><trkpt lat="45.82914466167205" lon="11.079063051973883"><ele>534.0</ele><time>2026-04-18T07:07:55Z</time></trkpt><trkpt lat="45.829163894810584" lon="11.078965219698825"><ele>534.0</ele><time>2026-04-18T07:07:56Z</time></trkpt><trkpt lat="45.829214943582514" lon="11.078815476795505"><ele>534.0</ele><time>2026-04-18T07:07:58Z</time></trkpt><trkpt lat="45.829338165537095" lon="11.078873641793074"><ele>527.0</ele><time>2026-04-18T07:08:00Z</time></trkpt><trkpt lat="45.829353746778935" lon="11.079007313826557"><ele>520.0</ele><time>2026-04-18T07:08:01Z</time></trkpt><trkpt lat="45.82941756987772" lon="11.07915272126522"><ele>513.0</ele><time>2026-04-18T07:08:02Z</time></trkpt><trkpt lat="45.82953905005549" lon="11.079254810590701"><ele>506.0</ele><time>2026-04-18T07:08:03Z</time></trkpt><trkpt lat="45.82963453084219" lon="11.079409273369011"><ele>506.0</ele><time>2026-04-18T07:08:04Z</time></trkpt><trkpt lat="45.82974769004111" lon="11.079566626313762"><ele>506.0</ele><time>2026-04-18T07:08:05Z</time></trkpt><trkpt lat="45.829826652557706" lon="11.079779425549402"><ele>506.0</ele><time>2026-04-18T07:08:06Z</time></trkpt><trkpt lat="45.829879906393984" lon="11.08001320131461"><ele>514.6666666666666</ele><time>2026-04-18T07:08:07Z</time></trkpt><trkpt lat="45.82991616354415" lon="11.080245386271312"><ele>523.3333333333334</ele><time>2026-04-18T07:08:08Z</time></trkpt><trkpt lat="45.82995097888483" lon="11.080470059207574"><ele>532.0</ele><time>2026-04-18T07:08:09Z</time></trkpt><trkpt lat="45.830013149120916" lon="11.080693887286111"><ele>547.0</ele><time>2026-04-18T07:08:10Z</time></trkpt><trkpt lat="45.83009587068585" lon="11.080910968323803"><ele>562.0</ele><time>2026-04-18T07:08:11Z</time></trkpt><trkpt lat="45.83015567544914" lon="11.08110371872344"><ele>577.0</ele><time>2026-04-18T07:08:12Z</time></trkpt><trkpt lat="45.8302166013327" lon="11.081263533315514"><ele>592.0</ele><time>2026-04-18T07:08:13Z</time></trkpt><trkpt lat="45.83028761944702" lon="11.081369042877421"><ele>592.0</ele><time>2026-04-18T07:08:14Z</time></trkpt><trkpt lat="45.83039385639465" lon="11.081412652745444"><ele>592.0</ele><time>2026-04-18T07:08:15Z</time></trkpt><trkpt lat="45.83051066830831" lon="11.081370793602469"><ele>592.0</ele><time>2026-04-18T07:08:16Z</time></trkpt><trkpt lat="45.830614400780696" lon="11.081266802203537"><ele>592.0</ele><time>2026-04-18T07:08:17Z</time></trkpt><trkpt lat="45.830691429941396" lon="11.081096283925499"><ele>577.0</ele><time>2026-04-18T07:08:18Z</time></trkpt><trkpt lat="45.83075625100799" lon="11.080900655987321"><ele>562.0</ele><time>2026-04-18T07:08:19Z</time></trkpt><trkpt lat="45.830805968518916" lon="11.080670110097632"><ele>547.0</ele><time>2026-04-18T07:08:20Z</time></trkpt><trkpt lat="45.83086453909509" lon="11.080426173240236"><ele>547.0</ele><time>2026-04-18T07:08:21Z</time></trkpt><trkpt lat="45.8309464100976" lon="11.080170409009959"><ele>547.0</ele><time>2026-04-18T07:08:22Z</time></trkpt><trkpt lat="45.83099902525949" lon="11.079907996256795"><ele>547.0</ele><time>2026-04-18T07:08:23Z</time></trkpt><trkpt lat="45.831027856208266" lon="11.079661061422646"><ele>546.25</ele><time>2026-04-18T07:08:24Z</time></trkpt><trkpt lat="45.83107079689281" lon="11.079461704075126"><ele>545.5</ele><time>2026-04-18T07:08:25Z</time></trkpt><trkpt lat="45.83109025803896" lon="11.079285548129024"><ele>544.75</ele><time>2026-04-18T07:08:26Z</time></trkpt><trkpt lat="45.831077057507116" lon="11.079151802177105"><ele>544.0</ele><time>2026-04-18T07:08:27Z</time></trkpt><trkpt lat="45.83112788050928" lon="11.079047413770882"><ele>544.0</ele><time>2026-04-18T07:08:28Z</time></trkpt><trkpt lat="45.831219262949524" lon="11.078994210329506"><ele>544.0</ele><time>2026-04-18T07:08:29Z</time></trkpt><trkpt lat="45.83132843868903" lon="11.078972487196465"><ele>544.0</ele><time>2026-04-18T07:08:30Z</time></trkpt><trkpt lat="45.83144739289257" lon="11.078960490998224"><ele>544.0</ele><time>2026-04-18T07:08:31Z</time></trkpt><trkpt lat="45.83155119004811" lon="11.078894141308162"><ele>544.0</ele><time>2026-04-18T07:08:32Z</time></trkpt><trkpt lat="45.83163907965981" lon="11.078802939577416"><ele>544.0</ele><time>2026-04-18T07:08:33Z</time></trkpt><trkpt lat="45.83167582198928" lon="11.078630749987298"><ele>544.0</ele><time>2026-04-18T07:08:34Z</time></trkpt><trkpt lat="45.8316539518513" lon="11.078456093466134"><ele>544.0</ele><time>2026-04-18T07:08:35Z</time></trkpt><trkpt lat="45.831656512651854" lon="11.078262192926053"><ele>544.0</ele><time>2026-04-18T07:08:36Z</time></trkpt><trkpt lat="45.83164358578603" lon="11.078086654900625"><ele>552.0</ele><time>2026-04-18T07:08:37Z</time></trkpt><trkpt lat="45.83164872665438" lon="11.077935109698341"><ele>560.0</ele><time>2026-04-18T07:08:38Z</time></trkpt><trkpt lat="45.8317240485663" lon="11.07780167866703"><ele>568.0</ele><time>2026-04-18T07:08:39Z</time></trkpt><trkpt lat="45.83181918876974" lon="11.077664295132555"><ele>576.0</ele><time>2026-04-18T07:08:40Z</time></trkpt><trkpt lat="45.83193766376099" lon="11.077533699439707"><ele>557.6666666666666</ele><time>2026-04-18T07:08:41Z</time></trkpt><trkpt lat="45.832081323642825" lon="11.077411771412455"><ele>539.3333333333333</ele><time>2026-04-18T07:08:42Z</time></trkpt><trkpt lat="45.83223455871178" lon="11.07733832803542"><ele>521.0</ele><time>2026-04-18T07:08:43Z</time></trkpt><trkpt lat="45.83239230632647" lon="11.077231777650407"><ele>521.0</ele><time>2026-04-18T07:08:44Z</time></trkpt><trkpt lat="45.832533381613366" lon="11.077145254881279"><ele>521.0</ele><time>2026-04-18T07:08:45Z</time></trkpt><trkpt lat="45.83266741599463" lon="11.077079334650803"><ele>521.0</ele><time>2026-04-18T07:08:46Z</time></trkpt><trkpt lat="45.83281361541716" lon="11.077030352717172"><ele>521.0</ele><time>2026-04-18T07:08:47Z</time></trkpt><trkpt lat="45.83298620389809" lon="11.077039058062795"><ele>528.3333333333333</ele><time>2026-04-18T07:08:48Z</time></trkpt><trkpt lat="45.833161795237025" lon="11.077059067399084"><ele>535.6666666666666</ele><time>2026-04-18T07:08:49Z</time></trkpt><trkpt lat="45.83333528784306" lon="11.077036706791679"><ele>543.0</ele><time>2026-04-18T07:08:50Z</time></trkpt><trkpt lat="45.833496643477694" lon="11.076954294818371"><ele>550.6666666666666</ele><time>2026-04-18T07:08:51Z</time></trkpt><trkpt lat="45.83363913242406" lon="11.076834153950362"><ele>558.3333333333333</ele><time>2026-04-18T07:08:52Z</time></trkpt><trkpt lat="45.83378189017806" lon="11.076764656198751"><ele>566.0</ele><time>2026-04-18T07:08:53Z</time></trkpt><trkpt lat="45.833920293568895" lon="11.076704083540278"><ele>566.0</ele><time>2026-04-18T07:08:54Z</time></trkpt><trkpt lat="45.834072439651116" lon="11.076635011148468"><ele>566.0</ele><time>2026-04-18T07:08:55Z</time></trkpt><trkpt lat="45.834232325417574" lon="11.07658533792001"><ele>566.0</ele><time>2026-04-18T07:08:56Z</time></trkpt><trkpt lat="45.834398207952646" lon="11.076516756670378"><ele>554.0</ele><time>2026-04-18T07:08:57Z</time></trkpt><trkpt lat="45.83457290693113" lon="11.07647485519966"><ele>542.0</ele><time>2026-04-18T07:08:58Z</time></trkpt><trkpt lat="45.83475271434729" lon="11.076423601606104"><ele>530.0</ele><time>2026-04-18T07:08:59Z</time></trkpt><trkpt lat="45.83493247685474" lon="11.076380947702223"><ele>530.0</ele><time>2026-04-18T07:09:00Z</time></trkpt><trkpt lat="45.83510738238364" lon="11.076342184520687"><ele>530.0</ele><time>2026-04-18T07:09:01Z</time></trkpt><trkpt lat="45.83527664460527" lon="11.076306107566431"><ele>530.0</ele><time>2026-04-18T07:09:02Z</time></trkpt><trkpt lat="45.83543931000281" lon="11.076251088707505"><ele>532.6666666666666</ele><time>2026-04-18T07:09:03Z</time></trkpt><trkpt lat="45.835601099962744" lon="11.076236442641566"><ele>535.3333333333334</ele><time>2026-04-18T07:09:04Z</time></trkpt><trkpt lat="45.83578475892197" lon="11.07623257738055"><ele>538.0</ele><time>2026-04-18T07:09:05Z</time></trkpt><trkpt lat="45.835955539954924" lon="11.076232223465956"><ele>534.0</ele><time>2026-04-18T07:09:06Z</time></trkpt><trkpt lat="45.83611425862427" lon="11.076267916470876"><ele>530.0</ele><time>2026-04-18T07:09:07Z</time></trkpt><trkpt lat="45.83625971236041" lon="11.076291655263256"><ele>526.0</ele><time>2026-04-18T07:09:08Z</time></trkpt><trkpt lat="45.83638221297418" lon="11.07633997330485"><ele>522.0</ele><time>2026-04-18T07:09:09Z</time></trkpt><trkpt lat="45.836479314546075" lon="11.076381670556817"><ele>522.0</ele><time>2026-04-18T07:09:10Z</time></trkpt><trkpt lat="45.83653247715185" lon="11.0764915157391"><ele>522.0</ele><time>2026-04-18T07:09:11Z</time></trkpt><trkpt lat="45.83656516198977" lon="11.07660133729237"><ele>522.0</ele><time>2026-04-18T07:09:12Z</time></trkpt><trkpt lat="45.836558524016425" lon="11.076742357014245"><ele>522.0</ele><time>2026-04-18T07:09:13Z</time></trkpt><trkpt lat="45.83655054627687" lon="11.07690532135501"><ele>522.0</ele><time>2026-04-18T07:09:14Z</time></trkpt><trkpt lat="45.83655114023503" lon="11.077091069034237"><ele>528.25</ele><time>2026-04-18T07:09:15Z</time></trkpt><trkpt lat="45.8365594898978" lon="11.077292062482561"><ele>534.5</ele><time>2026-04-18T07:09:16Z</time></trkpt><trkpt lat="45.83657006771833" lon="11.077481140517019"><ele>540.75</ele><time>2026-04-18T07:09:17Z</time></trkpt><trkpt lat="45.836604836923165" lon="11.077653262535977"><ele>547.0</ele><time>2026-04-18T07:09:18Z</time></trkpt><trkpt lat="45.83667146655168" lon="11.077811917418703"><ele>550.75</ele><time>2026-04-18T07:09:19Z</time></trkpt><trkpt lat="45.83676464682077" lon="11.077949485069192"><ele>554.5</ele><time>2026-04-18T07:09:20Z</time></trkpt><trkpt lat="45.83688734941354" lon="11.078062275318501"><ele>558.25</ele><time>2026-04-18T07:09:21Z</time></trkpt><trkpt lat="45.83703431378671" lon="11.078137751946771"><ele>562.0</ele><time>2026-04-18T07:09:22Z</time></trkpt><trkpt lat="45.83716638466886" lon="11.078162838536977"><ele>553.25</ele><time>2026-04-18T07:09:23Z</time></trkpt><trkpt lat="45.83728518470899" lon="11.078164759996772"><ele>544.5</ele><time>2026-04-18T07:09:24Z</time></trkpt><trkpt lat="45.837375356464015" lon="11.078049410288727"><ele>535.75</ele><time>2026-04-18T07:09:25Z</time></trkpt><trkpt lat="45.837465558349145" lon="11.077960186112822"><ele>527.0</ele><time>2026-04-18T07:09:26Z</time></trkpt><trkpt lat="45.837573471164696" lon="11.07794300294851"><ele>528.75</ele><time>2026-04-18T07:09:27Z</time></trkpt><trkpt lat="45.83769747946548" lon="11.077995683842833"><ele>530.5</ele><time>2026-04-18T07:09:28Z</time></trkpt><trkpt lat="45.83783514759564" lon="11.078057107461133"><ele>532.25</ele><time>2026-04-18T07:09:29Z</time></trkpt><trkpt lat="45.837987223313434" lon="11.078113861822485"><ele>534.0</ele><time>2026-04-18T07:09:30Z</time></trkpt><trkpt lat="45.83813367992544" lon="11.0781375364029"><ele>534.0</ele><time>2026-04-18T07:09:31Z</time></trkpt><trkpt lat="45.83827486313895" lon="11.078106661278447"><ele>534.0</ele><time>2026-04-18T07:09:32Z</time></trkpt><trkpt lat="45.838429319533994" lon="11.07802558179174"><ele>534.0</ele><time>2026-04-18T07:09:33Z</time></trkpt><trkpt lat="45.83858883177849" lon="11.077903737643563"><ele>533.6666666666666</ele><time>2026-04-18T07:09:34Z</time></trkpt><trkpt lat="45.83875417588284" lon="11.077760042619062"><ele>533.3333333333333</ele><time>2026-04-18T07:09:35Z</time></trkpt><trkpt lat="45.83890017631009" lon="11.077606664008027"><ele>533.0</ele><time>2026-04-18T07:09:36Z</time></trkpt><trkpt lat="45.839009379932364" lon="11.077418650559377"><ele>533.0</ele><time>2026-04-18T07:09:37Z</time></trkpt><trkpt lat="45.8391028542094" lon="11.07721057077348"><ele>533.0</ele><time>2026-04-18T07:09:38Z</time></trkpt><trkpt lat="45.839202254526434" lon="11.077007034694278"><ele>533.0</ele><time>2026-04-18T07:09:39Z</time></trkpt><trkpt lat="45.83930784736452" lon="11.076836333392896"><ele>528.5</ele><time>2026-04-18T07:09:40Z</time></trkpt><trkpt lat="45.83940133783077" lon="11.076663037886961"><ele>524.0</ele><time>2026-04-18T07:09:41Z</time></trkpt><trkpt lat="45.83949811708382" lon="11.076516802759503"><ele>519.5</ele><time>2026-04-18T07:09:42Z</time></trkpt><trkpt lat="45.83963027084087" lon="11.076481806341542"><ele>515.0</ele><time>2026-04-18T07:09:43Z</time></trkpt><trkpt lat="45.83976215241659" lon="11.076434052604906"><ele>515.0</ele><time>2026-04-18T07:09:44Z</time></trkpt><trkpt lat="45.839917761370685" lon="11.076452427948636"><ele>515.0</ele><time>2026-04-18T07:09:45Z</time></trkpt><trkpt lat="45.84007798720211" lon="11.076465995403922"><ele>515.0</ele><time>2026-04-18T07:09:46Z</time></trkpt><trkpt lat="45.84025251512943" lon="11.076452138755528"><ele>520.3333333333333</ele><time>2026-04-18T07:09:47Z</time></trkpt><trkpt lat="45.84042852751176" lon="11.076394003114006"><ele>525.6666666666666</ele><time>2026-04-18T07:09:48Z</time></trkpt><trkpt lat="45.84059414846392" lon="11.076314379398822"><ele>531.0</ele><time>2026-04-18T07:09:49Z</time></trkpt><trkpt lat="45.8407443512682" lon="11.076221272390674"><ele>531.0</ele><time>2026-04-18T07:09:50Z</time></trkpt><trkpt lat="45.84088453659427" lon="11.076142947175246"><ele>531.0</ele><time>2026-04-18T07:09:51Z</time></trkpt><trkpt lat="45.84102740354648" lon="11.076108499435145"><ele>531.0</ele><time>2026-04-18T07:09:52Z</time></trkpt><trkpt lat="45.84119190049191" lon="11.07612127013357"><ele>530.3333333333334</ele><time>2026-04-18T07:09:53Z</time></trkpt><trkpt lat="45.84136848897662" lon="11.07611833495599"><ele>529.6666666666667</ele><time>2026-04-18T07:09:54Z</time></trkpt><trkpt lat="45.84153803422282" lon="11.076122394363974"><ele>529.0</ele><time>2026-04-18T07:09:55Z</time></trkpt><trkpt lat="45.84169172840909" lon="11.076102262876226"><ele>525.0</ele><time>2026-04-18T07:09:56Z</time></trkpt><trkpt lat="45.84179864775664" lon="11.076123992760534"><ele>521.0</ele><time>2026-04-18T07:09:57Z</time></trkpt><trkpt lat="45.8418782965124" lon="11.076232114522405"><ele>517.0</ele><time>2026-04-18T07:09:58Z</time></trkpt><trkpt lat="45.841942428847396" lon="11.076373730944624"><ele>513.0</ele><time>2026-04-18T07:09:59Z</time></trkpt><trkpt lat="45.84200323856596" lon="11.076542209780142"><ele>526.25</ele><time>2026-04-18T07:10:00Z</time></trkpt><trkpt lat="45.842084119165705" lon="11.076713060694846"><ele>539.5</ele><time>2026-04-18T07:10:01Z</time></trkpt><trkpt lat="45.84216985023572" lon="11.076860640578378"><ele>552.75</ele><time>2026-04-18T07:10:02Z</time></trkpt><trkpt lat="45.842255402340605" lon="11.076950882950502"><ele>566.0</ele><time>2026-04-18T07:10:03Z</time></trkpt><trkpt lat="45.84237260618393" lon="11.076990107791525"><ele>566.0</ele><time>2026-04-18T07:10:04Z</time></trkpt><trkpt lat="45.8425027434004" lon="11.076998520294554"><ele>566.0</ele><time>2026-04-18T07:10:05Z</time></trkpt><trkpt lat="45.84263821259563" lon="11.076938152240619"><ele>566.0</ele><time>2026-04-18T07:10:06Z</time></trkpt><trkpt lat="45.84277562291517" lon="11.076829042864"><ele>566.0</ele><time>2026-04-18T07:10:07Z</time></trkpt><trkpt lat="45.84293024955191" lon="11.07670257347431"><ele>561.6666666666666</ele><time>2026-04-18T07:10:08Z</time></trkpt><trkpt lat="45.84309361908501" lon="11.076563539474801"><ele>557.3333333333334</ele><time>2026-04-18T07:10:09Z</time></trkpt><trkpt lat="45.843239035824624" lon="11.07639542965748"><ele>553.0</ele><time>2026-04-18T07:10:10Z</time></trkpt><trkpt lat="45.843364988902955" lon="11.076211799057837"><ele>569.0</ele><time>2026-04-18T07:10:11Z</time></trkpt><trkpt lat="45.84351368714934" lon="11.07613941823698"><ele>585.0</ele><time>2026-04-18T07:10:12Z</time></trkpt><trkpt lat="45.84363238115183" lon="11.0760158395418"><ele>601.0</ele><time>2026-04-18T07:10:13Z</time></trkpt><trkpt lat="45.84375264192304" lon="11.075888381040441"><ele>591.6666666666667</ele><time>2026-04-18T07:10:14Z</time></trkpt><trkpt lat="45.84386645073784" lon="11.075723405267707"><ele>582.3333333333334</ele><time>2026-04-18T07:10:15Z</time></trkpt><trkpt lat="45.84394843181382" lon="11.075542178778534"><ele>573.0</ele><time>2026-04-18T07:10:16Z</time></trkpt><trkpt lat="45.84400784257862" lon="11.075361465351797"><ele>573.0</ele><time>2026-04-18T07:10:17Z</time></trkpt><trkpt lat="45.843991013257934" lon="11.075163441298553"><ele>573.0</ele><time>2026-04-18T07:10:18Z</time></trkpt><trkpt lat="45.84399212399512" lon="11.075000902013727"><ele>573.0</ele><time>2026-04-18T07:10:19Z</time></trkpt><trkpt lat="45.84400120543524" lon="11.07486704252019"><ele>573.0</ele><time>2026-04-18T07:10:20Z</time></trkpt><trkpt lat="45.8440631666298" lon="11.07476784896296"><ele>573.0</ele><time>2026-04-18T07:10:21Z</time></trkpt><trkpt lat="45.84416101613848" lon="11.074696330027887"><ele>572.25</ele><time>2026-04-18T07:10:22Z</time></trkpt><trkpt lat="45.844281227576666" lon="11.074608078123301"><ele>571.5</ele><time>2026-04-18T07:10:23Z</time></trkpt><trkpt lat="45.84441231902465" lon="11.074500984672898"><ele>570.75</ele><time>2026-04-18T07:10:24Z</time></trkpt><trkpt lat="45.84454004177617" lon="11.074382254250779"><ele>570.0</ele><time>2026-04-18T07:10:25Z</time></trkpt><trkpt lat="45.84466572031869" lon="11.074297729883963"><ele>570.0</ele><time>2026-04-18T07:10:26Z</time></trkpt><trkpt lat="45.844814780391786" lon="11.07423947059288"><ele>570.0</ele><time>2026-04-18T07:10:27Z</time></trkpt><trkpt lat="45.844977882808024" lon="11.074221492323558"><ele>570.0</ele><time>2026-04-18T07:10:28Z</time></trkpt><trkpt lat="45.845154069545806" lon="11.074233751854278"><ele>566.3333333333334</ele><time>2026-04-18T07:10:29Z</time></trkpt><trkpt lat="45.84533627928069" lon="11.074289540970623"><ele>562.6666666666667</ele><time>2026-04-18T07:10:30Z</time></trkpt><trkpt lat="45.845502641833214" lon="11.074364937263145"><ele>559.0</ele><time>2026-04-18T07:10:31Z</time></trkpt><trkpt lat="45.84566682039004" lon="11.074423542758106"><ele>559.0</ele><time>2026-04-18T07:10:32Z</time></trkpt><trkpt lat="45.8458550216923" lon="11.07442045580411"><ele>559.0</ele><time>2026-04-18T07:10:33Z</time></trkpt><trkpt lat="45.846053488104026" lon="11.07437438619391"><ele>559.0</ele><time>2026-04-18T07:10:34Z</time></trkpt><trkpt lat="45.84625244246606" lon="11.0743240504761"><ele>563.0</ele><time>2026-04-18T07:10:35Z</time></trkpt><trkpt lat="45.84644979611712" lon="11.074299891235135"><ele>567.0</ele><time>2026-04-18T07:10:36Z</time></trkpt><trkpt lat="45.84662251593312" lon="11.074279138366109"><ele>571.0</ele><time>2026-04-18T07:10:37Z</time></trkpt><trkpt lat="45.84677311736735" lon="11.074252555610324"><ele>570.0</ele><time>2026-04-18T07:10:38Z</time></trkpt><trkpt lat="45.84690506958492" lon="11.074213648963111"><ele>569.0</ele><time>2026-04-18T07:10:39Z</time></trkpt><trkpt lat="45.847014094235085" lon="11.074113332461717"><ele>568.0</ele><time>2026-04-18T07:10:40Z</time></trkpt><trkpt lat="45.84709515381334" lon="11.07394723120402"><ele>567.0</ele><time>2026-04-18T07:10:41Z</time></trkpt><trkpt lat="45.847165058699346" lon="11.073744360693903"><ele>567.0</ele><time>2026-04-18T07:10:42Z</time></trkpt><trkpt lat="45.8472359907375" lon="11.07353936598896"><ele>567.0</ele><time>2026-04-18T07:10:43Z</time></trkpt><trkpt lat="45.84727176242803" lon="11.073358983445011"><ele>567.0</ele><time>2026-04-18T07:10:44Z</time></trkpt><trkpt lat="45.8472763400125" lon="11.07316845746174"><ele>567.0</ele><time>2026-04-18T07:10:45Z</time></trkpt><trkpt lat="45.847258268041486" lon="11.07298634956059"><ele>560.0</ele><time>2026-04-18T07:10:46Z</time></trkpt><trkpt lat="45.84726272516565" lon="11.072832126958417"><ele>553.0</ele><time>2026-04-18T07:10:47Z</time></trkpt><trkpt lat="45.84732701497931" lon="11.072713403352502"><ele>546.0</ele><time>2026-04-18T07:10:48Z</time></trkpt><trkpt lat="45.84741692397384" lon="11.072599860679848"><ele>539.0</ele><time>2026-04-18T07:10:49Z</time></trkpt><trkpt lat="45.847547767246326" lon="11.072533016331455"><ele>540.3333333333333</ele><time>2026-04-18T07:10:50Z</time></trkpt><trkpt lat="45.84769929584588" lon="11.072506917464048"><ele>541.6666666666666</ele><time>2026-04-18T07:10:51Z</time></trkpt><trkpt lat="45.8478602570038" lon="11.072490272493859"><ele>543.0</ele><time>2026-04-18T07:10:52Z</time></trkpt><trkpt lat="45.84802268059358" lon="11.072470743341468"><ele>543.0</ele><time>2026-04-18T07:10:53Z</time></trkpt><trkpt lat="45.84818806687618" lon="11.072509718526497"><ele>543.0</ele><time>2026-04-18T07:10:54Z</time></trkpt><trkpt lat="45.8483498340995" lon="11.072532738228691"><ele>543.0</ele><time>2026-04-18T07:10:55Z</time></trkpt><trkpt lat="45.84850583076177" lon="11.072606727728802"><ele>541.3333333333334</ele><time>2026-04-18T07:10:56Z</time></trkpt><trkpt lat="45.84865489733644" lon="11.072689902756856"><ele>539.6666666666667</ele><time>2026-04-18T07:10:57Z</time></trkpt><trkpt lat="45.84880664782094" lon="11.072742545439487"><ele>538.0</ele><time>2026-04-18T07:10:58Z</time></trkpt><trkpt lat="45.84896158389741" lon="11.07274108236595"><ele>538.0</ele><time>2026-04-18T07:10:59Z</time></trkpt><trkpt lat="45.84910246803478" lon="11.072681072002673"><ele>538.0</ele><time>2026-04-18T07:11:00Z</time></trkpt><trkpt lat="45.84922811823136" lon="11.072567554073784"><ele>538.0</ele><time>2026-04-18T07:11:01Z</time></trkpt><trkpt lat="45.84932347303101" lon="11.072430540000633"><ele>538.0</ele><time>2026-04-18T07:11:02Z</time></trkpt><trkpt lat="45.84940457770513" lon="11.072309309967226"><ele>534.0</ele><time>2026-04-18T07:11:03Z</time></trkpt><trkpt lat="45.84949203327186" lon="11.07226349839674"><ele>530.0</ele><time>2026-04-18T07:11:04Z</time></trkpt><trkpt lat="45.84957235799663" lon="11.072286171374678"><ele>526.0</ele><time>2026-04-18T07:11:05Z</time></trkpt><trkpt lat="45.84964676619946" lon="11.072390533685429"><ele>522.0</ele><time>2026-04-18T07:11:06Z</time></trkpt><trkpt lat="45.84967053458861" lon="11.072543759974668"><ele>518.0</ele><time>2026-04-18T07:11:07Z</time></trkpt><trkpt lat="45.84972895326858" lon="11.072704742644472"><ele>518.0</ele><time>2026-04-18T07:11:08Z</time></trkpt><trkpt lat="45.84978503627778" lon="11.072851079346856"><ele>518.0</ele><time>2026-04-18T07:11:09Z</time></trkpt><trkpt lat="45.84989024582833" lon="11.072962290067991"><ele>518.0</ele><time>2026-04-18T07:11:10Z</time></trkpt><trkpt lat="45.8500274567202" lon="11.073060053330883"><ele>518.0</ele><time>2026-04-18T07:11:11Z</time></trkpt><trkpt lat="45.85018576275281" lon="11.07316401260661"><ele>524.0</ele><time>2026-04-18T07:11:12Z</time></trkpt><trkpt lat="45.85033152163227" lon="11.073267428444169"><ele>530.0</ele><time>2026-04-18T07:11:13Z</time></trkpt><trkpt lat="45.85048472524653" lon="11.073323779917104"><ele>536.0</ele><time>2026-04-18T07:11:14Z</time></trkpt><trkpt lat="45.850640296104196" lon="11.073311933234834"><ele>520.6666666666666</ele><time>2026-04-18T07:11:15Z</time></trkpt><trkpt lat="45.85078259512442" lon="11.073233301853975"><ele>505.33333333333337</ele><time>2026-04-18T07:11:16Z</time></trkpt><trkpt lat="45.85092256843516" lon="11.073113658921827"><ele>490.0</ele><time>2026-04-18T07:11:17Z</time></trkpt><trkpt lat="45.85106588470128" lon="11.072994232486751"><ele>488.0</ele><time>2026-04-18T07:11:18Z</time></trkpt><trkpt lat="45.85121728395751" lon="11.072909970594631"><ele>486.0</ele><time>2026-04-18T07:11:19Z</time></trkpt><trkpt lat="45.85137049945107" lon="11.07285373214023"><ele>484.0</ele><time>2026-04-18T07:11:20Z</time></trkpt><trkpt lat="45.85149946523764" lon="11.07281616683993"><ele>484.0</ele><time>2026-04-18T07:11:21Z</time></trkpt><trkpt lat="45.851594978975534" lon="11.072801935157981"><ele>484.0</ele><time>2026-04-18T07:11:22Z</time></trkpt><trkpt lat="45.85169569548734" lon="11.072804574510032"><ele>484.0</ele><time>2026-04-18T07:11:23Z</time></trkpt><trkpt lat="45.85181199004379" lon="11.072851983923549"><ele>484.0</ele><time>2026-04-18T07:11:24Z</time></trkpt><trkpt lat="45.85192218508498" lon="11.072956912644685"><ele>484.75</ele><time>2026-04-18T07:11:25Z</time></trkpt><trkpt lat="45.852021680795595" lon="11.073061982077606"><ele>485.5</ele><time>2026-04-18T07:11:26Z</time></trkpt><trkpt lat="45.852122560024256" lon="11.073181850861967"><ele>486.25</ele><time>2026-04-18T07:11:27Z</time></trkpt><trkpt lat="45.85219497418218" lon="11.073293874505477"><ele>487.0</ele><time>2026-04-18T07:11:28Z</time></trkpt><trkpt lat="45.85223575597742" lon="11.073420089475235"><ele>487.0</ele><time>2026-04-18T07:11:29Z</time></trkpt><trkpt lat="45.85229742598429" lon="11.073488997553666"><ele>487.00000000000006</ele><time>2026-04-18T07:11:30Z</time></trkpt><trkpt lat="45.85236793163677" lon="11.073553874191663"><ele>487.00000000000006</ele><time>2026-04-18T07:11:31Z</time></trkpt><trkpt lat="45.85246231992812" lon="11.073584331580793"><ele>487.0</ele><time>2026-04-18T07:11:32Z</time></trkpt><trkpt lat="45.85256763431642" lon="11.073639180806877"><ele>487.0</ele><time>2026-04-18T07:11:33Z</time></trkpt><trkpt lat="45.852664310730596" lon="11.073737255787488"><ele>482.8</ele><time>2026-04-18T07:11:34Z</time></trkpt><trkpt lat="45.852731796755265" lon="11.073875610704693"><ele>478.6</ele><time>2026-04-18T07:11:35Z</time></trkpt><trkpt lat="45.85277530205441" lon="11.073999187801608"><ele>474.40000000000003</ele><time>2026-04-18T07:11:36Z</time></trkpt><trkpt lat="45.85286194874479" lon="11.074048813817164"><ele>470.20000000000005</ele><time>2026-04-18T07:11:37Z</time></trkpt><trkpt lat="45.852963978893925" lon="11.074030903432144"><ele>466.0</ele><time>2026-04-18T07:11:38Z</time></trkpt><trkpt lat="45.85308174740338" lon="11.073982495418042"><ele>466.0</ele><time>2026-04-18T07:11:39Z</time></trkpt><trkpt lat="45.853205574551474" lon="11.073930179401827"><ele>466.0</ele><time>2026-04-18T07:11:40Z</time></trkpt><trkpt lat="45.85332721676687" lon="11.073871844316516"><ele>466.0</ele><time>2026-04-18T07:11:41Z</time></trkpt><trkpt lat="45.853436585887444" lon="11.07377642341946"><ele>466.0</ele><time>2026-04-18T07:11:42Z</time></trkpt><trkpt lat="45.85352397766666" lon="11.073664000067046"><ele>467.5</ele><time>2026-04-18T07:11:43Z</time></trkpt><trkpt lat="45.85359933220838" lon="11.073537083527759"><ele>469.0</ele><time>2026-04-18T07:11:44Z</time></trkpt><trkpt lat="45.853676863074035" lon="11.073457909951518"><ele>470.5</ele><time>2026-04-18T07:11:45Z</time></trkpt><trkpt lat="45.85379092517144" lon="11.073422848594577"><ele>472.0</ele><time>2026-04-18T07:11:46Z</time></trkpt><trkpt lat="45.85391267623285" lon="11.07341501884872"><ele>472.0</ele><time>2026-04-18T07:11:47Z</time></trkpt><trkpt lat="45.85402968605736" lon="11.073416805056281"><ele>472.0</ele><time>2026-04-18T07:11:48Z</time></trkpt><trkpt lat="45.85414504654224" lon="11.073437745222613"><ele>472.0</ele><time>2026-04-18T07:11:49Z</time></trkpt><trkpt lat="45.85427603379966" lon="11.073483497647596"><ele>472.0</ele><time>2026-04-18T07:11:50Z</time></trkpt><trkpt lat="45.85440874311467" lon="11.073545841126148"><ele>469.0</ele><time>2026-04-18T07:11:51Z</time></trkpt><trkpt lat="45.85454476727057" lon="11.07358453144592"><ele>466.0</ele><time>2026-04-18T07:11:52Z</time></trkpt><trkpt lat="45.85467880441027" lon="11.073592230893745"><ele>463.0</ele><time>2026-04-18T07:11:53Z</time></trkpt><trkpt lat="45.85481793368266" lon="11.07359040563762"><ele>460.0</ele><time>2026-04-18T07:11:54Z</time></trkpt><trkpt lat="45.854958808480305" lon="11.073591828983316"><ele>460.0</ele><time>2026-04-18T07:11:55Z</time></trkpt><trkpt lat="45.85509842451113" lon="11.073582616479833"><ele>460.0</ele><time>2026-04-18T07:11:56Z</time></trkpt><trkpt lat="45.85525537364884" lon="11.073551874434045"><ele>460.0</ele><time>2026-04-18T07:11:57Z</time></trkpt><trkpt lat="45.85542894712651" lon="11.073436630989196"><ele>463.6666666666667</ele><time>2026-04-18T07:11:58Z</time></trkpt><trkpt lat="45.855626123913495" lon="11.073312682311121"><ele>467.33333333333337</ele><time>2026-04-18T07:11:59Z</time></trkpt><trkpt lat="45.85581676044963" lon="11.073198618067503"><ele>471.0</ele><time>2026-04-18T07:12:00Z</time></trkpt><trkpt lat="45.85599224958677" lon="11.07310715772783"><ele>458.0</ele><time>2026-04-18T07:12:01Z</time></trkpt><trkpt lat="45.85616867606374" lon="11.073051134482434"><ele>445.0</ele><time>2026-04-18T07:12:02Z</time></trkpt><trkpt lat="45.856322914791704" lon="11.072976437598564"><ele>432.0</ele><time>2026-04-18T07:12:03Z</time></trkpt><trkpt lat="45.85646652036632" lon="11.07288906628346"><ele>432.0</ele><time>2026-04-18T07:12:04Z</time></trkpt><trkpt lat="45.856600602845745" lon="11.07285132799142"><ele>432.0</ele><time>2026-04-18T07:12:05Z</time></trkpt><trkpt lat="45.85673101599745" lon="11.07284671684822"><ele>432.0</ele><time>2026-04-18T07:12:06Z</time></trkpt><trkpt lat="45.85684456653638" lon="11.072831350963071"><ele>432.0</ele><time>2026-04-18T07:12:07Z</time></trkpt><trkpt lat="45.85696062997272" lon="11.072889982398681"><ele>429.25</ele><time>2026-04-18T07:12:08Z</time></trkpt><trkpt lat="45.8570813695005" lon="11.072962857442276"><ele>426.5</ele><time>2026-04-18T07:12:09Z</time></trkpt><trkpt lat="45.857187826925156" lon="11.07304982470291"><ele>423.75</ele><time>2026-04-18T07:12:10Z</time></trkpt><trkpt lat="45.85725788816824" lon="11.07315074349997"><ele>421.0</ele><time>2026-04-18T07:12:11Z</time></trkpt><trkpt lat="45.85728753896204" lon="11.073285714089307"><ele>421.0</ele><time>2026-04-18T07:12:12Z</time></trkpt><trkpt lat="45.85729055721344" lon="11.073441764847807"><ele>421.0</ele><time>2026-04-18T07:12:13Z</time></trkpt><trkpt lat="45.85725655186582" lon="11.073608123845512"><ele>421.0</ele><time>2026-04-18T07:12:14Z</time></trkpt><trkpt lat="45.85721038989993" lon="11.073770243450886"><ele>421.0</ele><time>2026-04-18T07:12:15Z</time></trkpt><trkpt lat="45.85720662063679" lon="11.073942078569832"><ele>424.25</ele><time>2026-04-18T07:12:16Z</time></trkpt><trkpt lat="45.85725002827029" lon="11.074107387482915"><ele>427.5</ele><time>2026-04-18T07:12:17Z</time></trkpt><trkpt lat="45.85733253394945" lon="11.07426276406602"><ele>430.75</ele><time>2026-04-18T07:12:18Z</time></trkpt><trkpt lat="45.85743417922428" lon="11.07442012716395"><ele>434.0</ele><time>2026-04-18T07:12:19Z</time></trkpt><trkpt lat="45.85753273559967" lon="11.074604771143196"><ele>434.0</ele><time>2026-04-18T07:12:20Z</time></trkpt><trkpt lat="45.85761299247027" lon="11.074769021469264"><ele>434.0</ele><time>2026-04-18T07:12:21Z</time></trkpt><trkpt lat="45.85769357058636" lon="11.074901213458771"><ele>434.0</ele><time>2026-04-18T07:12:22Z</time></trkpt><trkpt lat="45.85777462787457" lon="11.074993002955118"><ele>434.0</ele><time>2026-04-18T07:12:23Z</time></trkpt><trkpt lat="45.8578809084679" lon="11.075024563558019"><ele>428.0</ele><time>2026-04-18T07:12:24Z</time></trkpt><trkpt lat="45.85798782559017" lon="11.075017652445732"><ele>422.0</ele><time>2026-04-18T07:12:25Z</time></trkpt><trkpt lat="45.8580983556697" lon="11.075060143813534"><ele>416.0</ele><time>2026-04-18T07:12:26Z</time></trkpt><trkpt lat="45.85818519991611" lon="11.07517648576443"><ele>410.0</ele><time>2026-04-18T07:12:27Z</time></trkpt><trkpt lat="45.858248214493244" lon="11.075325178039398"><ele>410.0</ele><time>2026-04-18T07:12:28Z</time></trkpt><trkpt lat="45.85835538189289" lon="11.075439648952676"><ele>410.0</ele><time>2026-04-18T07:12:29Z</time></trkpt><trkpt lat="45.858471477894625" lon="11.075536068878328"><ele>410.0</ele><time>2026-04-18T07:12:30Z</time></trkpt><trkpt lat="45.858549228337374" lon="11.075674566046525"><ele>410.0</ele><time>2026-04-18T07:12:31Z</time></trkpt><trkpt lat="45.85859665299569" lon="11.075848980422634"><ele>408.75</ele><time>2026-04-18T07:12:32Z</time></trkpt><trkpt lat="45.858666175433605" lon="11.075999665113635"><ele>407.5</ele><time>2026-04-18T07:12:33Z</time></trkpt><trkpt lat="45.85877459911533" lon="11.076088231012875"><ele>406.25</ele><time>2026-04-18T07:12:34Z</time></trkpt><trkpt lat="45.85890376167413" lon="11.076120680861113"><ele>405.0</ele><time>2026-04-18T07:12:35Z</time></trkpt><trkpt lat="45.85905636819739" lon="11.07614159135045"><ele>405.0</ele><time>2026-04-18T07:12:36Z</time></trkpt><trkpt lat="45.85922153482883" lon="11.076199371202577"><ele>405.0</ele><time>2026-04-18T07:12:37Z</time></trkpt><trkpt lat="45.85939814205137" lon="11.076266806352274"><ele>405.0</ele><time>2026-04-18T07:12:38Z</time></trkpt><trkpt lat="45.85956516637607" lon="11.076310295507913"><ele>403.66666666666663</ele><time>2026-04-18T07:12:39Z</time></trkpt><trkpt lat="45.859730837821886" lon="11.076336686060877"><ele>402.3333333333333</ele><time>2026-04-18T07:12:40Z</time></trkpt><trkpt lat="45.859885899294184" lon="11.07638181454736"><ele>401.0</ele><time>2026-04-18T07:12:41Z</time></trkpt><trkpt lat="45.86002156282638" lon="11.076447405603917"><ele>407.20000000000005</ele><time>2026-04-18T07:12:42Z</time></trkpt><trkpt lat="45.86012226471339" lon="11.076519269079137"><ele>413.40000000000003</ele><time>2026-04-18T07:12:43Z</time></trkpt><trkpt lat="45.860204658953634" lon="11.07660804170144"><ele>419.6</ele><time>2026-04-18T07:12:44Z</time></trkpt><trkpt lat="45.860281506467416" lon="11.076678384382234"><ele>425.8</ele><time>2026-04-18T07:12:45Z</time></trkpt><trkpt lat="45.86037507115601" lon="11.0766723674014"><ele>432.0</ele><time>2026-04-18T07:12:46Z</time></trkpt><trkpt lat="45.860462716346284" lon="11.076605717847418"><ele>432.0</ele><time>2026-04-18T07:12:47Z</time></trkpt><trkpt lat="45.86055045777628" lon="11.076527169066162"><ele>432.0</ele><time>2026-04-18T07:12:48Z</time></trkpt><trkpt lat="45.86056238303545" lon="11.07636264597089"><ele>432.0</ele><time>2026-04-18T07:12:49Z</time></trkpt><trkpt lat="45.86056296244398" lon="11.076195744275788"><ele>432.0</ele><time>2026-04-18T07:12:50Z</time></trkpt><trkpt lat="45.860560300941586" lon="11.076006581355497"><ele>432.0</ele><time>2026-04-18T07:12:51Z</time></trkpt><trkpt lat="45.860532883489526" lon="11.075823163612942"><ele>432.0</ele><time>2026-04-18T07:12:52Z</time></trkpt><trkpt lat="45.860481866742425" lon="11.075638880481893"><ele>432.0</ele><time>2026-04-18T07:12:53Z</time></trkpt><trkpt lat="45.860415867066386" lon="11.075472999420684"><ele>432.0</ele><time>2026-04-18T07:12:54Z</time></trkpt><trkpt lat="45.86037507704787" lon="11.075329257955167"><ele>432.6</ele><time>2026-04-18T07:12:55Z</time></trkpt><trkpt lat="45.86035116823545" lon="11.075204841158584"><ele>433.20000000000005</ele><time>2026-04-18T07:12:56Z</time></trkpt><trkpt lat="45.86035458589073" lon="11.075060736712054"><ele>433.8</ele><time>2026-04-18T07:12:57Z</time></trkpt><trkpt lat="45.86035395916303" lon="11.074889141285732"><ele>434.4</ele><time>2026-04-18T07:12:58Z</time></trkpt><trkpt lat="45.86036205305317" lon="11.074706690447966"><ele>435.0</ele><time>2026-04-18T07:12:59Z</time></trkpt><trkpt lat="45.86033588401072" lon="11.074528606527076"><ele>436.5</ele><time>2026-04-18T07:13:00Z</time></trkpt><trkpt lat="45.860296562668616" lon="11.074345704462713"><ele>438.0</ele><time>2026-04-18T07:13:01Z</time></trkpt><trkpt lat="45.86030465358991" lon="11.074140697987415"><ele>439.5</ele><time>2026-04-18T07:13:02Z</time></trkpt><trkpt lat="45.8602930878112" lon="11.073944303293372"><ele>441.0</ele><time>2026-04-18T07:13:03Z</time></trkpt><trkpt lat="45.86026789286916" lon="11.073760494149782"><ele>437.25</ele><time>2026-04-18T07:13:04Z</time></trkpt><trkpt lat="45.860247943080054" lon="11.073606646409681"><ele>433.5</ele><time>2026-04-18T07:13:05Z</time></trkpt><trkpt lat="45.86024877503932" lon="11.073459384618623"><ele>429.75</ele><time>2026-04-18T07:13:06Z</time></trkpt><trkpt lat="45.86032541236662" lon="11.073318019205649"><ele>426.0</ele><time>2026-04-18T07:13:07Z</time></trkpt><trkpt lat="45.86034427378893" lon="11.07312863046795"><ele>418.25</ele><time>2026-04-18T07:13:08Z</time></trkpt><trkpt lat="45.860349034305926" lon="11.072930834729085"><ele>410.5</ele><time>2026-04-18T07:13:09Z</time></trkpt><trkpt lat="45.86034986239462" lon="11.072758619062967"><ele>402.75</ele><time>2026-04-18T07:13:10Z</time></trkpt><trkpt lat="45.86037842787531" lon="11.072616973011606"><ele>395.0</ele><time>2026-04-18T07:13:11Z</time></trkpt><trkpt lat="45.86044902433415" lon="11.07252908293565"><ele>395.0</ele><time>2026-04-18T07:13:12Z</time></trkpt><trkpt lat="45.86054838487915" lon="11.072486813462074"><ele>395.0</ele><time>2026-04-18T07:13:13Z</time></trkpt><trkpt lat="45.86067766520652" lon="11.072474020090162"><ele>395.0</ele><time>2026-04-18T07:13:14Z</time></trkpt><trkpt lat="45.86082253868284" lon="11.072450735879343"><ele>395.0</ele><time>2026-04-18T07:13:15Z</time></trkpt><trkpt lat="45.86098806031001" lon="11.07240669814215"><ele>390.66666666666663</ele><time>2026-04-18T07:13:16Z</time></trkpt><trkpt lat="45.86116198095278" lon="11.072361193098276"><ele>386.3333333333333</ele><time>2026-04-18T07:13:17Z</time></trkpt><trkpt lat="45.861320890948036" lon="11.072329512697788"><ele>382.0</ele><time>2026-04-18T07:13:18Z</time></trkpt><trkpt lat="45.861448475977525" lon="11.072298868972657"><ele>382.0</ele><time>2026-04-18T07:13:19Z</time></trkpt><trkpt lat="45.86154737037936" lon="11.0722231653577"><ele>382.0</ele><time>2026-04-18T07:13:20Z</time></trkpt><trkpt lat="45.86160256547204" lon="11.072101424268098"><ele>382.0</ele><time>2026-04-18T07:13:21Z</time></trkpt><trkpt lat="45.861622536096064" lon="11.07194923049984"><ele>382.0</ele><time>2026-04-18T07:13:22Z</time></trkpt><trkpt lat="45.861634955864155" lon="11.071787164444558"><ele>382.0</ele><time>2026-04-18T07:13:23Z</time></trkpt><trkpt lat="45.86169277775487" lon="11.071663475963703"><ele>376.5</ele><time>2026-04-18T07:13:24Z</time></trkpt><trkpt lat="45.86178887402515" lon="11.07157943406852"><ele>371.0</ele><time>2026-04-18T07:13:25Z</time></trkpt><trkpt lat="45.861922163255365" lon="11.07154171167167"><ele>365.5</ele><time>2026-04-18T07:13:26Z</time></trkpt><trkpt lat="45.8620625317342" lon="11.071484837611784"><ele>360.0</ele><time>2026-04-18T07:13:27Z</time></trkpt><trkpt lat="45.862190817855684" lon="11.071353814980247"><ele>360.0</ele><time>2026-04-18T07:13:28Z</time></trkpt><trkpt lat="45.86231366408608" lon="11.07124910779784"><ele>360.0</ele><time>2026-04-18T07:13:29Z</time></trkpt><trkpt lat="45.86241722405543" lon="11.0711690596499"><ele>360.0</ele><time>2026-04-18T07:13:30Z</time></trkpt><trkpt lat="45.86254746045222" lon="11.0711864692039"><ele>360.0</ele><time>2026-04-18T07:13:31Z</time></trkpt><trkpt lat="45.86269367726487" lon="11.07121489248781"><ele>360.0</ele><time>2026-04-18T07:13:32Z</time></trkpt><trkpt lat="45.862850857776294" lon="11.071210596647845"><ele>360.0</ele><time>2026-04-18T07:13:33Z</time></trkpt><trkpt lat="45.86300022083311" lon="11.071200624341301"><ele>360.0</ele><time>2026-04-18T07:13:34Z</time></trkpt><trkpt lat="45.863142315596185" lon="11.071214309947473"><ele>360.0</ele><time>2026-04-18T07:13:35Z</time></trkpt><trkpt lat="45.863285996641274" lon="11.071280269612766"><ele>360.0</ele><time>2026-04-18T07:13:36Z</time></trkpt><trkpt lat="45.863443582920674" lon="11.07137278301589"><ele>360.0</ele><time>2026-04-18T07:13:37Z</time></trkpt><trkpt lat="45.86362389571856" lon="11.071419499658823"><ele>360.0</ele><time>2026-04-18T07:13:38Z</time></trkpt><trkpt lat="45.86381305674306" lon="11.071418300674374"><ele>361.6666666666667</ele><time>2026-04-18T07:13:39Z</time></trkpt><trkpt lat="45.8639984929339" lon="11.071394958815572"><ele>363.33333333333337</ele><time>2026-04-18T07:13:40Z</time></trkpt><trkpt lat="45.8641969915138" lon="11.071371096290441"><ele>365.0</ele><time>2026-04-18T07:13:41Z</time></trkpt><trkpt lat="45.86438132438987" lon="11.07134379195075"><ele>365.0</ele><time>2026-04-18T07:13:42Z</time></trkpt><trkpt lat="45.86454714343242" lon="11.071365928266374"><ele>365.0</ele><time>2026-04-18T07:13:43Z</time></trkpt><trkpt lat="45.86469914940076" lon="11.071428994963112"><ele>365.0</ele><time>2026-04-18T07:13:44Z</time></trkpt><trkpt lat="45.864843037939885" lon="11.071458882379472"><ele>365.0</ele><time>2026-04-18T07:13:45Z</time></trkpt><trkpt lat="45.864960085341934" lon="11.071443046266106"><ele>365.0</ele><time>2026-04-18T07:13:46Z</time></trkpt><trkpt lat="45.86505270425926" lon="11.071362418357248"><ele>365.0</ele><time>2026-04-18T07:13:47Z</time></trkpt><trkpt lat="45.86512850567542" lon="11.071254199575089"><ele>365.0</ele><time>2026-04-18T07:13:48Z</time></trkpt><trkpt lat="45.86513658963145" lon="11.07109568584823"><ele>365.0</ele><time>2026-04-18T07:13:49Z</time></trkpt><trkpt lat="45.86518668963948" lon="11.07098993304382"><ele>371.25</ele><time>2026-04-18T07:13:50Z</time></trkpt><trkpt lat="45.86528852415965" lon="11.070927036578079"><ele>377.5</ele><time>2026-04-18T07:13:51Z</time></trkpt><trkpt lat="45.86541483291356" lon="11.070881897080298"><ele>383.75</ele><time>2026-04-18T07:13:52Z</time></trkpt><trkpt lat="45.865556546566175" lon="11.07083933480611"><ele>390.0</ele><time>2026-04-18T07:13:53Z</time></trkpt><trkpt lat="45.86568765099626" lon="11.070849089940761"><ele>390.0</ele><time>2026-04-18T07:13:54Z</time></trkpt><trkpt lat="45.86581143158002" lon="11.070847873848782"><ele>390.0</ele><time>2026-04-18T07:13:55Z</time></trkpt><trkpt lat="45.86591812731924" lon="11.07076986084294"><ele>390.0</ele><time>2026-04-18T07:13:56Z</time></trkpt><trkpt lat="45.866002697918205" lon="11.070647411763133"><ele>390.0</ele><time>2026-04-18T07:13:57Z</time></trkpt><trkpt lat="45.866089576149655" lon="11.070547232829185"><ele>382.0</ele><time>2026-04-18T07:13:58Z</time></trkpt><trkpt lat="45.86620185133591" lon="11.07052637672756"><ele>374.0</ele><time>2026-04-18T07:13:59Z</time></trkpt><trkpt lat="45.86632549542498" lon="11.070549906957533"><ele>366.0</ele><time>2026-04-18T07:14:00Z</time></trkpt><trkpt lat="45.86646479138613" lon="11.070561579103787"><ele>358.0</ele><time>2026-04-18T07:14:01Z</time></trkpt><trkpt lat="45.866612454178345" lon="11.070548835848601"><ele>358.0</ele><time>2026-04-18T07:14:02Z</time></trkpt><trkpt lat="45.86674446461065" lon="11.070509108868068"><ele>358.0</ele><time>2026-04-18T07:14:03Z</time></trkpt><trkpt lat="45.86683419894948" lon="11.07035879655388"><ele>358.0</ele><time>2026-04-18T07:14:04Z</time></trkpt><trkpt lat="45.86693529553925" lon="11.07026260081607"><ele>358.0</ele><time>2026-04-18T07:14:05Z</time></trkpt><trkpt lat="45.8670684061371" lon="11.070222984877434"><ele>367.0</ele><time>2026-04-18T07:14:06Z</time></trkpt><trkpt lat="45.867221718702545" lon="11.07022970288197"><ele>376.0</ele><time>2026-04-18T07:14:07Z</time></trkpt><trkpt lat="45.86738163238216" lon="11.070206867684506"><ele>385.0</ele><time>2026-04-18T07:14:08Z</time></trkpt><trkpt lat="45.867545993046704" lon="11.070138747021636"><ele>380.25</ele><time>2026-04-18T07:14:09Z</time></trkpt><trkpt lat="45.86769787547132" lon="11.070058109551677"><ele>375.5</ele><time>2026-04-18T07:14:10Z</time></trkpt><trkpt lat="45.867809105416434" lon="11.06996802993043"><ele>370.75</ele><time>2026-04-18T07:14:11Z</time></trkpt><trkpt lat="45.86788102053247" lon="11.069842863011287"><ele>366.0</ele><time>2026-04-18T07:14:12Z</time></trkpt><trkpt lat="45.867927852098916" lon="11.069698574582183"><ele>366.0</ele><time>2026-04-18T07:14:13Z</time></trkpt><trkpt lat="45.867921196176816" lon="11.069544686334947"><ele>366.0</ele><time>2026-04-18T07:14:14Z</time></trkpt><trkpt lat="45.86796496446599" lon="11.069432776753358"><ele>366.0</ele><time>2026-04-18T07:14:15Z</time></trkpt><trkpt lat="45.86804934208688" lon="11.069387100249003"><ele>366.0</ele><time>2026-04-18T07:14:16Z</time></trkpt><trkpt lat="45.8681403218538" lon="11.06941472734749"><ele>366.0</ele><time>2026-04-18T07:14:17Z</time></trkpt><trkpt lat="45.86823589252556" lon="11.069475668041825"><ele>366.0</ele><time>2026-04-18T07:14:18Z</time></trkpt><trkpt lat="45.86835082513745" lon="11.069500988750262"><ele>366.0</ele><time>2026-04-18T07:14:19Z</time></trkpt><trkpt lat="45.86847840637608" lon="11.069537593779508"><ele>366.0</ele><time>2026-04-18T07:14:20Z</time></trkpt><trkpt lat="45.86860720587896" lon="11.06960525858777"><ele>366.0</ele><time>2026-04-18T07:14:21Z</time></trkpt><trkpt lat="45.86872551633654" lon="11.069724994373706"><ele>372.0</ele><time>2026-04-18T07:14:22Z</time></trkpt><trkpt lat="45.86883376740153" lon="11.069887177616586"><ele>378.0</ele><time>2026-04-18T07:14:23Z</time></trkpt><trkpt lat="45.868930582589876" lon="11.070068472275693"><ele>384.0</ele><time>2026-04-18T07:14:24Z</time></trkpt><trkpt lat="45.86900968243127" lon="11.07022642753582"><ele>384.0</ele><time>2026-04-18T07:14:25Z</time></trkpt><trkpt lat="45.86908463114149" lon="11.070353125252256"><ele>384.0</ele><time>2026-04-18T07:14:26Z</time></trkpt><trkpt lat="45.869162676063894" lon="11.070436513661507"><ele>384.0</ele><time>2026-04-18T07:14:27Z</time></trkpt><trkpt lat="45.86926584867497" lon="11.070445003908375"><ele>384.0</ele><time>2026-04-18T07:14:28Z</time></trkpt><trkpt lat="45.86938311491949" lon="11.070396521291482"><ele>384.0</ele><time>2026-04-18T07:14:29Z</time></trkpt><trkpt lat="45.869495923462964" lon="11.070317954337398"><ele>385.5</ele><time>2026-04-18T07:14:30Z</time></trkpt><trkpt lat="45.869606194710435" lon="11.070211054161485"><ele>387.0</ele><time>2026-04-18T07:14:31Z</time></trkpt><trkpt lat="45.869682777890205" lon="11.070077985701245"><ele>388.5</ele><time>2026-04-18T07:14:32Z</time></trkpt><trkpt lat="45.86976382286344" lon="11.069970354882047"><ele>390.0</ele><time>2026-04-18T07:14:33Z</time></trkpt><trkpt lat="45.869884926302014" lon="11.069924663972255"><ele>373.0</ele><time>2026-04-18T07:14:34Z</time></trkpt><trkpt lat="45.870031597106205" lon="11.069898008904657"><ele>356.0</ele><time>2026-04-18T07:14:35Z</time></trkpt><trkpt lat="45.8702033264548" lon="11.069876604063579"><ele>339.0</ele><time>2026-04-18T07:14:36Z</time></trkpt><trkpt lat="45.870377684794605" lon="11.06986463073367"><ele>339.0</ele><time>2026-04-18T07:14:37Z</time></trkpt><trkpt lat="45.870536499996035" lon="11.069842460516844"><ele>339.0</ele><time>2026-04-18T07:14:38Z</time></trkpt><trkpt lat="45.8706744762471" lon="11.069786599703832"><ele>339.0</ele><time>2026-04-18T07:14:39Z</time></trkpt><trkpt lat="45.87080211481933" lon="11.069755710461918"><ele>339.0</ele><time>2026-04-18T07:14:40Z</time></trkpt><trkpt lat="45.87093467281859" lon="11.06980797074342"><ele>340.0</ele><time>2026-04-18T07:14:41Z</time></trkpt><trkpt lat="45.87105500307361" lon="11.069909177650302"><ele>341.0</ele><time>2026-04-18T07:14:42Z</time></trkpt><trkpt lat="45.871175510679585" lon="11.069984755480776"><ele>342.0</ele><time>2026-04-18T07:14:43Z</time></trkpt><trkpt lat="45.87130151257156" lon="11.06997618793326"><ele>343.0</ele><time>2026-04-18T07:14:44Z</time></trkpt><trkpt lat="45.87144060528475" lon="11.069912939528022"><ele>343.0</ele><time>2026-04-18T07:14:45Z</time></trkpt><trkpt lat="45.871597800650115" lon="11.069847460571276"><ele>343.0</ele><time>2026-04-18T07:14:46Z</time></trkpt><trkpt lat="45.87176416120699" lon="11.06978588525763"><ele>343.0</ele><time>2026-04-18T07:14:47Z</time></trkpt><trkpt lat="45.87192232366782" lon="11.069724108223069"><ele>349.3333333333333</ele><time>2026-04-18T07:14:48Z</time></trkpt><trkpt lat="45.87206334220655" lon="11.06963150770733"><ele>355.6666666666667</ele><time>2026-04-18T07:14:49Z</time></trkpt><trkpt lat="45.8721769982899" lon="11.069485804313977"><ele>362.0</ele><time>2026-04-18T07:14:50Z</time></trkpt><trkpt lat="45.87227845580206" lon="11.069320329093912"><ele>362.0</ele><time>2026-04-18T07:14:51Z</time></trkpt><trkpt lat="45.87235710063307" lon="11.06916471606319"><ele>362.0</ele><time>2026-04-18T07:14:52Z</time></trkpt><trkpt lat="45.872429894660876" lon="11.06907971448271"><ele>362.0</ele><time>2026-04-18T07:14:53Z</time></trkpt><trkpt lat="45.87250990421768" lon="11.069051298058714"><ele>362.0</ele><time>2026-04-18T07:14:54Z</time></trkpt><trkpt lat="45.87260297009242" lon="11.06909518887767"><ele>362.0</ele><time>2026-04-18T07:14:55Z</time></trkpt><trkpt lat="45.872701761707226" lon="11.069101569743017"><ele>361.5</ele><time>2026-04-18T07:14:56Z</time></trkpt><trkpt lat="45.87281742699539" lon="11.069044970806912"><ele>361.0</ele><time>2026-04-18T07:14:57Z</time></trkpt><trkpt lat="45.87293036862801" lon="11.068899543297835"><ele>360.5</ele><time>2026-04-18T07:14:58Z</time></trkpt><trkpt lat="45.87298787534735" lon="11.068689029315722"><ele>360.0</ele><time>2026-04-18T07:14:59Z</time></trkpt><trkpt lat="45.87307747125668" lon="11.068538114970751"><ele>360.0</ele><time>2026-04-18T07:15:00Z</time></trkpt><trkpt lat="45.873184545262085" lon="11.068424546129533"><ele>360.0</ele><time>2026-04-18T07:15:01Z</time></trkpt><trkpt lat="45.87325944979324" lon="11.068293097008365"><ele>360.0</ele><time>2026-04-18T07:15:02Z</time></trkpt><trkpt lat="45.87334317079021" lon="11.068187789815566"><ele>360.0</ele><time>2026-04-18T07:15:03Z</time></trkpt><trkpt lat="45.87346550938345" lon="11.068181731329256"><ele>359.0</ele><time>2026-04-18T07:15:04Z</time></trkpt><trkpt lat="45.87358975604484" lon="11.068165666562416"><ele>358.0</ele><time>2026-04-18T07:15:05Z</time></trkpt><trkpt lat="45.87370650846815" lon="11.06813149315457"><ele>357.0</ele><time>2026-04-18T07:15:06Z</time></trkpt><trkpt lat="45.87379810001458" lon="11.068038685606293"><ele>356.0</ele><time>2026-04-18T07:15:07Z</time></trkpt><trkpt lat="45.873856373542885" lon="11.067908496671198"><ele>356.0</ele><time>2026-04-18T07:15:08Z</time></trkpt><trkpt lat="45.873893085413336" lon="11.067792568119247"><ele>356.0</ele><time>2026-04-18T07:15:09Z</time></trkpt><trkpt lat="45.873836057725754" lon="11.067647053695636"><ele>356.0</ele><time>2026-04-18T07:15:10Z</time></trkpt><trkpt lat="45.87376381576457" lon="11.067565000962823"><ele>356.0</ele><time>2026-04-18T07:15:11Z</time></trkpt><trkpt lat="45.87374871728803" lon="11.067386009755078"><ele>356.0</ele><time>2026-04-18T07:15:13Z</time></trkpt><trkpt lat="45.873817059433506" lon="11.0673047774668"><ele>346.0</ele><time>2026-04-18T07:15:14Z</time></trkpt><trkpt lat="45.87392782452785" lon="11.067222869741835"><ele>336.0</ele><time>2026-04-18T07:15:15Z</time></trkpt><trkpt lat="45.874011911403386" lon="11.067073178199276"><ele>326.0</ele><time>2026-04-18T07:15:16Z</time></trkpt><trkpt lat="45.87413060685334" lon="11.06700022879764"><ele>316.0</ele><time>2026-04-18T07:15:17Z</time></trkpt><trkpt lat="45.87425842217519" lon="11.066942830778109"><ele>322.66666666666663</ele><time>2026-04-18T07:15:18Z</time></trkpt><trkpt lat="45.874409867777146" lon="11.066886513369491"><ele>329.3333333333333</ele><time>2026-04-18T07:15:19Z</time></trkpt><trkpt lat="45.87455891666734" lon="11.06681724336929"><ele>336.0</ele><time>2026-04-18T07:15:20Z</time></trkpt><trkpt lat="45.87471150968265" lon="11.066764440486846"><ele>336.0</ele><time>2026-04-18T07:15:21Z</time></trkpt><trkpt lat="45.874866340841834" lon="11.066728982534098"><ele>336.0</ele><time>2026-04-18T07:15:22Z</time></trkpt><trkpt lat="45.87501900607355" lon="11.066642920117578"><ele>336.0</ele><time>2026-04-18T07:15:23Z</time></trkpt><trkpt lat="45.87515369605404" lon="11.06652609195554"><ele>326.6666666666667</ele><time>2026-04-18T07:15:24Z</time></trkpt><trkpt lat="45.87525232940556" lon="11.06635176261453"><ele>317.33333333333337</ele><time>2026-04-18T07:15:25Z</time></trkpt><trkpt lat="45.8753579608524" lon="11.066199219658767"><ele>308.0</ele><time>2026-04-18T07:15:26Z</time></trkpt><trkpt lat="45.875494670944896" lon="11.066118337818498"><ele>308.0</ele><time>2026-04-18T07:15:27Z</time></trkpt><trkpt lat="45.875632744918434" lon="11.066014016365804"><ele>308.0</ele><time>2026-04-18T07:15:28Z</time></trkpt><trkpt lat="45.875790144056104" lon="11.065951674204351"><ele>308.0</ele><time>2026-04-18T07:15:29Z</time></trkpt><trkpt lat="45.87593675752643" lon="11.06592221623855"><ele>310.0</ele><time>2026-04-18T07:15:30Z</time></trkpt><trkpt lat="45.876060272495515" lon="11.065940307349141"><ele>312.0</ele><time>2026-04-18T07:15:31Z</time></trkpt><trkpt lat="45.876166794694896" lon="11.066020709126517"><ele>314.0</ele><time>2026-04-18T07:15:32Z</time></trkpt><trkpt lat="45.876243549290194" lon="11.066133327830702"><ele>316.0</ele><time>2026-04-18T07:15:33Z</time></trkpt><trkpt lat="45.876324314927544" lon="11.066212237780707"><ele>316.0</ele><time>2026-04-18T07:15:34Z</time></trkpt><trkpt lat="45.87641586271482" lon="11.066225709089792"><ele>316.0</ele><time>2026-04-18T07:15:35Z</time></trkpt><trkpt lat="45.87650962395515" lon="11.066160634839102"><ele>316.0</ele><time>2026-04-18T07:15:36Z</time></trkpt><trkpt lat="45.876589577695185" lon="11.066033677291003"><ele>316.0</ele><time>2026-04-18T07:15:37Z</time></trkpt><trkpt lat="45.87668459897288" lon="11.065894945060908"><ele>315.25</ele><time>2026-04-18T07:15:38Z</time></trkpt><trkpt lat="45.87678678866179" lon="11.065748248863875"><ele>314.5</ele><time>2026-04-18T07:15:39Z</time></trkpt><trkpt lat="45.8768868656197" lon="11.065609340755406"><ele>313.75</ele><time>2026-04-18T07:15:40Z</time></trkpt><trkpt lat="45.87699124500391" lon="11.065505764229384"><ele>313.0</ele><time>2026-04-18T07:15:41Z</time></trkpt><trkpt lat="45.87711082647321" lon="11.065435114096848"><ele>313.0</ele><time>2026-04-18T07:15:42Z</time></trkpt><trkpt lat="45.87723199781576" lon="11.065393609477722"><ele>313.0</ele><time>2026-04-18T07:15:43Z</time></trkpt><trkpt lat="45.87733194864497" lon="11.065328644691986"><ele>313.0</ele><time>2026-04-18T07:15:44Z</time></trkpt><trkpt lat="45.87741565540463" lon="11.065203669524934"><ele>313.0</ele><time>2026-04-18T07:15:45Z</time></trkpt><trkpt lat="45.877483856565625" lon="11.065055260103692"><ele>307.25</ele><time>2026-04-18T07:15:46Z</time></trkpt><trkpt lat="45.877539991331716" lon="11.064913145965223"><ele>301.5</ele><time>2026-04-18T07:15:47Z</time></trkpt><trkpt lat="45.87753737965419" lon="11.064740427403665"><ele>295.75</ele><time>2026-04-18T07:15:48Z</time></trkpt><trkpt lat="45.87749591677535" lon="11.06457485785452"><ele>290.0</ele><time>2026-04-18T07:15:49Z</time></trkpt><trkpt lat="45.8774384914811" lon="11.064436811767212"><ele>290.0</ele><time>2026-04-18T07:15:50Z</time></trkpt><trkpt lat="45.8774057581462" lon="11.064347086962504"><ele>290.0</ele><time>2026-04-18T07:15:51Z</time></trkpt><trkpt lat="45.87746525405405" lon="11.06419927834961"><ele>290.0</ele><time>2026-04-18T07:15:53Z</time></trkpt><trkpt lat="45.877547575754406" lon="11.064102095129584"><ele>290.0</ele><time>2026-04-18T07:15:54Z</time></trkpt><trkpt lat="45.87763996296345" lon="11.063964390035345"><ele>290.0</ele><time>2026-04-18T07:15:55Z</time></trkpt><trkpt lat="45.87774429333274" lon="11.063854766742306"><ele>287.25</ele><time>2026-04-18T07:15:56Z</time></trkpt><trkpt lat="45.87783853642508" lon="11.063726383247147"><ele>284.5</ele><time>2026-04-18T07:15:57Z</time></trkpt><trkpt lat="45.87792222198466" lon="11.063627790892571"><ele>281.75</ele><time>2026-04-18T07:15:58Z</time></trkpt><trkpt lat="45.87803986060252" lon="11.063630846186262"><ele>279.0</ele><time>2026-04-18T07:15:59Z</time></trkpt><trkpt lat="45.878158629269244" lon="11.063623326043091"><ele>279.0</ele><time>2026-04-18T07:16:00Z</time></trkpt><trkpt lat="45.878268463770354" lon="11.063612830558888"><ele>279.0</ele><time>2026-04-18T07:16:01Z</time></trkpt><trkpt lat="45.87838190666902" lon="11.063563906936482"><ele>279.0</ele><time>2026-04-18T07:16:02Z</time></trkpt><trkpt lat="45.87848825489016" lon="11.063474710809698"><ele>279.0</ele><time>2026-04-18T07:16:03Z</time></trkpt><trkpt lat="45.87858159829105" lon="11.063406084233346"><ele>276.75</ele><time>2026-04-18T07:16:04Z</time></trkpt><trkpt lat="45.878705045090776" lon="11.063433845414886"><ele>274.5</ele><time>2026-04-18T07:16:05Z</time></trkpt><trkpt lat="45.87884017212501" lon="11.063502606366292"><ele>272.25</ele><time>2026-04-18T07:16:06Z</time></trkpt><trkpt lat="45.87898503217124" lon="11.063579451297224"><ele>270.0</ele><time>2026-04-18T07:16:07Z</time></trkpt><trkpt lat="45.8791289459202" lon="11.063646517969575"><ele>270.0</ele><time>2026-04-18T07:16:08Z</time></trkpt><trkpt lat="45.879256463491714" lon="11.063700743753241"><ele>270.0</ele><time>2026-04-18T07:16:09Z</time></trkpt><trkpt lat="45.87936506898008" lon="11.06372409129869"><ele>270.0</ele><time>2026-04-18T07:16:10Z</time></trkpt><trkpt lat="45.8794650708673" lon="11.063686125854495"><ele>270.0</ele><time>2026-04-18T07:16:11Z</time></trkpt><trkpt lat="45.87957302053626" lon="11.063603290688478"><ele>271.75</ele><time>2026-04-18T07:16:12Z</time></trkpt><trkpt lat="45.87969910838485" lon="11.063540839166972"><ele>273.5</ele><time>2026-04-18T07:16:13Z</time></trkpt><trkpt lat="45.87983971371506" lon="11.063508174518464"><ele>275.25</ele><time>2026-04-18T07:16:14Z</time></trkpt><trkpt lat="45.87997671181631" lon="11.063476784047742"><ele>277.0</ele><time>2026-04-18T07:16:15Z</time></trkpt><trkpt lat="45.880108630303994" lon="11.063427420985724"><ele>273.2</ele><time>2026-04-18T07:16:16Z</time></trkpt><trkpt lat="45.880234084206556" lon="11.063381318237708"><ele>269.4</ele><time>2026-04-18T07:16:17Z</time></trkpt><trkpt lat="45.88034871669759" lon="11.063339200972054"><ele>265.6</ele><time>2026-04-18T07:16:18Z</time></trkpt><trkpt lat="45.880451597719734" lon="11.063292584021795"><ele>261.8</ele><time>2026-04-18T07:16:19Z</time></trkpt><trkpt lat="45.880534409129" lon="11.063240016254383"><ele>258.0</ele><time>2026-04-18T07:16:20Z</time></trkpt><trkpt lat="45.88061204757263" lon="11.063187220123872"><ele>258.0</ele><time>2026-04-18T07:16:21Z</time></trkpt><trkpt lat="45.880682187952836" lon="11.063104083551835"><ele>258.0</ele><time>2026-04-18T07:16:22.024Z</time></trkpt><trkpt lat="45.880754994020705" lon="11.06299811433001"><ele>258.0</ele><time>2026-04-18T07:16:23.021Z</time></trkpt><trkpt lat="45.88083565474036" lon="11.062882692699562"><ele>258.0</ele><time>2026-04-18T07:16:24.018Z</time></trkpt><trkpt lat="45.880914439548675" lon="11.062778786684245"><ele>258.0</ele><time>2026-04-18T07:16:25Z</time></trkpt><trkpt lat="45.88100001845758" lon="11.062702335042337"><ele>260.75</ele><time>2026-04-18T07:16:26Z</time></trkpt><trkpt lat="45.88112491936566" lon="11.062640302663565"><ele>263.5</ele><time>2026-04-18T07:16:27Z</time></trkpt><trkpt lat="45.88126479831567" lon="11.062626851573512"><ele>266.25</ele><time>2026-04-18T07:16:28Z</time></trkpt><trkpt lat="45.88140557034818" lon="11.06265092163732"><ele>269.0</ele><time>2026-04-18T07:16:29Z</time></trkpt><trkpt lat="45.881568050996144" lon="11.062690022277694"><ele>269.0</ele><time>2026-04-18T07:16:30Z</time></trkpt><trkpt lat="45.88173052958778" lon="11.062700710628285"><ele>269.0</ele><time>2026-04-18T07:16:31Z</time></trkpt><trkpt lat="45.881895771058645" lon="11.06269467902088"><ele>269.0</ele><time>2026-04-18T07:16:32Z</time></trkpt><trkpt lat="45.88205440507771" lon="11.06267608020731"><ele>270.5</ele><time>2026-04-18T07:16:33Z</time></trkpt><trkpt lat="45.882208487906304" lon="11.062662213616939"><ele>272.0</ele><time>2026-04-18T07:16:34Z</time></trkpt><trkpt lat="45.88234828462485" lon="11.062654957762236"><ele>273.5</ele><time>2026-04-18T07:16:35Z</time></trkpt><trkpt lat="45.882485463783055" lon="11.062639911272614"><ele>275.0</ele><time>2026-04-18T07:16:36Z</time></trkpt><trkpt lat="45.88262783834937" lon="11.06261932055106"><ele>280.0</ele><time>2026-04-18T07:16:37Z</time></trkpt><trkpt lat="45.882777214507676" lon="11.062567997387971"><ele>285.0</ele><time>2026-04-18T07:16:38Z</time></trkpt><trkpt lat="45.88292754961746" lon="11.062482304046263"><ele>290.0</ele><time>2026-04-18T07:16:39Z</time></trkpt><trkpt lat="45.88307761648963" lon="11.0623693324747"><ele>286.6666666666667</ele><time>2026-04-18T07:16:40Z</time></trkpt><trkpt lat="45.88323282919795" lon="11.062251972066527"><ele>283.3333333333333</ele><time>2026-04-18T07:16:41Z</time></trkpt><trkpt lat="45.88339695761975" lon="11.062148135862248"><ele>280.0</ele><time>2026-04-18T07:16:42Z</time></trkpt><trkpt lat="45.88355819386951" lon="11.062045605213408"><ele>280.0</ele><time>2026-04-18T07:16:43Z</time></trkpt><trkpt lat="45.88372358852468" lon="11.06193331681003"><ele>280.0</ele><time>2026-04-18T07:16:44Z</time></trkpt><trkpt lat="45.88389021178211" lon="11.06182023483381"><ele>280.0</ele><time>2026-04-18T07:16:45Z</time></trkpt><trkpt lat="45.88403610467791" lon="11.06167204500654"><ele>278.66666666666663</ele><time>2026-04-18T07:16:46Z</time></trkpt><trkpt lat="45.88417363404039" lon="11.061531962983304"><ele>277.3333333333333</ele><time>2026-04-18T07:16:47Z</time></trkpt><trkpt lat="45.88430548859776" lon="11.061397659865708"><ele>276.0</ele><time>2026-04-18T07:16:48Z</time></trkpt><trkpt lat="45.884430322361986" lon="11.061270462939754"><ele>276.0</ele><time>2026-04-18T07:16:49Z</time></trkpt><trkpt lat="45.884548218922625" lon="11.061142155030247"><ele>276.0</ele><time>2026-04-18T07:16:50Z</time></trkpt><trkpt lat="45.884680702957155" lon="11.061062718312474"><ele>276.0</ele><time>2026-04-18T07:16:51Z</time></trkpt><trkpt lat="45.88480689772744" lon="11.0609708717396"><ele>276.0</ele><time>2026-04-18T07:16:52Z</time></trkpt><trkpt lat="45.88491912846802" lon="11.060850219534597"><ele>278.25</ele><time>2026-04-18T07:16:53Z</time></trkpt><trkpt lat="45.885033905106624" lon="11.060740731915972"><ele>280.5</ele><time>2026-04-18T07:16:54Z</time></trkpt><trkpt lat="45.8851125135658" lon="11.06057863561186"><ele>282.75</ele><time>2026-04-18T07:16:55Z</time></trkpt><trkpt lat="45.88518121445857" lon="11.060405499008379"><ele>285.0</ele><time>2026-04-18T07:16:56Z</time></trkpt><trkpt lat="45.885266933273165" lon="11.060221605502575"><ele>285.0</ele><time>2026-04-18T07:16:57Z</time></trkpt><trkpt lat="45.885346364929696" lon="11.060009847535147"><ele>285.0</ele><time>2026-04-18T07:16:58Z</time></trkpt><trkpt lat="45.885418970410505" lon="11.059778351264535"><ele>285.0</ele><time>2026-04-18T07:16:59Z</time></trkpt><trkpt lat="45.88551056860159" lon="11.059550650857089"><ele>280.6666666666667</ele><time>2026-04-18T07:17:00Z</time></trkpt><trkpt lat="45.88559808494302" lon="11.059315376677127"><ele>276.33333333333337</ele><time>2026-04-18T07:17:01Z</time></trkpt><trkpt lat="45.88566988800066" lon="11.059076690082762"><ele>272.0</ele><time>2026-04-18T07:17:02Z</time></trkpt><trkpt lat="45.885729618731254" lon="11.058837638096293"><ele>270.0</ele><time>2026-04-18T07:17:03Z</time></trkpt><trkpt lat="45.885794140591415" lon="11.058603430633584"><ele>268.0</ele><time>2026-04-18T07:17:04Z</time></trkpt><trkpt lat="45.88585658966977" lon="11.058373908149251"><ele>266.0</ele><time>2026-04-18T07:17:05Z</time></trkpt><trkpt lat="45.88593154672707" lon="11.058171091020373"><ele>266.0</ele><time>2026-04-18T07:17:06Z</time></trkpt><trkpt lat="45.88598543587105" lon="11.05797930773543"><ele>266.0</ele><time>2026-04-18T07:17:07Z</time></trkpt><trkpt lat="45.886033501304816" lon="11.057816452497729"><ele>266.0</ele><time>2026-04-18T07:17:08Z</time></trkpt><trkpt lat="45.88612973295953" lon="11.057709610608303"><ele>266.0</ele><time>2026-04-18T07:17:09Z</time></trkpt><trkpt lat="45.88625228868897" lon="11.057646850411329"><ele>266.0</ele><time>2026-04-18T07:17:10Z</time></trkpt><trkpt lat="45.88638058906677" lon="11.057590960344628"><ele>266.0</ele><time>2026-04-18T07:17:11Z</time></trkpt><trkpt lat="45.886494940330614" lon="11.057498730179628"><ele>266.0</ele><time>2026-04-18T07:17:12Z</time></trkpt><trkpt lat="45.88659662537571" lon="11.057363528150313"><ele>266.0</ele><time>2026-04-18T07:17:13Z</time></trkpt><trkpt lat="45.88669472547892" lon="11.057204089562918"><ele>275.6666666666667</ele><time>2026-04-18T07:17:14Z</time></trkpt><trkpt lat="45.886791483572914" lon="11.057028104670866"><ele>285.3333333333333</ele><time>2026-04-18T07:17:15Z</time></trkpt><trkpt lat="45.88688445066546" lon="11.056845857955874"><ele>295.0</ele><time>2026-04-18T07:17:16Z</time></trkpt><trkpt lat="45.88696945276609" lon="11.0566439193867"><ele>288.3333333333333</ele><time>2026-04-18T07:17:17Z</time></trkpt><trkpt lat="45.88706134494831" lon="11.056438661045611"><ele>281.6666666666667</ele><time>2026-04-18T07:17:18Z</time></trkpt><trkpt lat="45.88711677818931" lon="11.056198459696269"><ele>275.0</ele><time>2026-04-18T07:17:19Z</time></trkpt><trkpt lat="45.88718588385684" lon="11.055962972695"><ele>270.0</ele><time>2026-04-18T07:17:20Z</time></trkpt><trkpt lat="45.88724973329764" lon="11.0557270413859"><ele>265.0</ele><time>2026-04-18T07:17:21Z</time></trkpt><trkpt lat="45.887306148043486" lon="11.055501953158668"><ele>260.0</ele><time>2026-04-18T07:17:22Z</time></trkpt><trkpt lat="45.88734520426146" lon="11.055266648207343"><ele>260.0</ele><time>2026-04-18T07:17:23Z</time></trkpt><trkpt lat="45.88737462521309" lon="11.055035389151204"><ele>260.0</ele><time>2026-04-18T07:17:24Z</time></trkpt><trkpt lat="45.887391893442214" lon="11.054806062778113"><ele>260.0</ele><time>2026-04-18T07:17:25Z</time></trkpt><trkpt lat="45.88741685024619" lon="11.054579225158236"><ele>257.6666666666667</ele><time>2026-04-18T07:17:26Z</time></trkpt><trkpt lat="45.88741252189939" lon="11.054352265153094"><ele>255.33333333333331</ele><time>2026-04-18T07:17:27Z</time></trkpt><trkpt lat="45.88738009193203" lon="11.054128108967454"><ele>253.0</ele><time>2026-04-18T07:17:28Z</time></trkpt><trkpt lat="45.887344015956195" lon="11.053914114086002"><ele>251.0</ele><time>2026-04-18T07:17:29Z</time></trkpt><trkpt lat="45.88733134200318" lon="11.05370370638053"><ele>249.0</ele><time>2026-04-18T07:17:30Z</time></trkpt><trkpt lat="45.88733646812613" lon="11.053494310303588"><ele>247.0</ele><time>2026-04-18T07:17:31Z</time></trkpt><trkpt lat="45.887360057033334" lon="11.053278351707377"><ele>245.0</ele><time>2026-04-18T07:17:32Z</time></trkpt><trkpt lat="45.88737549701348" lon="11.05306374804524"><ele>244.75</ele><time>2026-04-18T07:17:33Z</time></trkpt><trkpt lat="45.88738897539974" lon="11.052851472840148"><ele>244.5</ele><time>2026-04-18T07:17:34Z</time></trkpt><trkpt lat="45.8874083086895" lon="11.052640007802884"><ele>244.25</ele><time>2026-04-18T07:17:35Z</time></trkpt><trkpt lat="45.88742002422835" lon="11.052429524955729"><ele>244.0</ele><time>2026-04-18T07:17:36Z</time></trkpt><trkpt lat="45.88742637881926" lon="11.052201457173375"><ele>243.66666666666666</ele><time>2026-04-18T07:17:37Z</time></trkpt><trkpt lat="45.88737497460165" lon="11.05196932529111"><ele>243.33333333333331</ele><time>2026-04-18T07:17:38Z</time></trkpt><trkpt lat="45.887349138952786" lon="11.051710783097457"><ele>243.0</ele><time>2026-04-18T07:17:39Z</time></trkpt><trkpt lat="45.88730733904006" lon="11.051453336085828"><ele>243.66666666666669</ele><time>2026-04-18T07:17:40Z</time></trkpt><trkpt lat="45.88726494099451" lon="11.051200940877822"><ele>244.33333333333334</ele><time>2026-04-18T07:17:41Z</time></trkpt><trkpt lat="45.88722493781567" lon="11.050954479918465"><ele>245.0</ele><time>2026-04-18T07:17:42Z</time></trkpt><trkpt lat="45.88718694332129" lon="11.050713871158672"><ele>245.0</ele><time>2026-04-18T07:17:43Z</time></trkpt><trkpt lat="45.887152823728464" lon="11.050474544352335"><ele>245.0</ele><time>2026-04-18T07:17:44Z</time></trkpt><trkpt lat="45.88710921852893" lon="11.050247054137733"><ele>245.0</ele><time>2026-04-18T07:17:45Z</time></trkpt><trkpt lat="45.887079862753176" lon="11.050015141205357"><ele>244.33333333333334</ele><time>2026-04-18T07:17:46Z</time></trkpt><trkpt lat="45.887048484531526" lon="11.049786080531883"><ele>243.66666666666669</ele><time>2026-04-18T07:17:47Z</time></trkpt><trkpt lat="45.88702031555249" lon="11.049560567263738"><ele>243.0</ele><time>2026-04-18T07:17:48Z</time></trkpt><trkpt lat="45.88699278158987" lon="11.049347294926866"><ele>243.0</ele><time>2026-04-18T07:17:49Z</time></trkpt><trkpt lat="45.88694461096916" lon="11.049156409523905"><ele>243.0</ele><time>2026-04-18T07:17:50Z</time></trkpt><trkpt lat="45.88688100742847" lon="11.04897047374319"><ele>243.0</ele><time>2026-04-18T07:17:51Z</time></trkpt><trkpt lat="45.88679620837489" lon="11.048795536369584"><ele>243.0</ele><time>2026-04-18T07:17:52Z</time></trkpt><trkpt lat="45.88671362070399" lon="11.048611128093148"><ele>238.33333333333331</ele><time>2026-04-18T07:17:53Z</time></trkpt><trkpt lat="45.886638874407254" lon="11.048415717396663"><ele>233.66666666666666</ele><time>2026-04-18T07:17:54Z</time></trkpt><trkpt lat="45.886563825665796" lon="11.048221625387866"><ele>229.0</ele><time>2026-04-18T07:17:55Z</time></trkpt><trkpt lat="45.88649366079559" lon="11.048022641193961"><ele>229.0</ele><time>2026-04-18T07:17:56Z</time></trkpt><trkpt lat="45.886420135558176" lon="11.047835455679566"><ele>229.0</ele><time>2026-04-18T07:17:57Z</time></trkpt><trkpt lat="45.886348512031724" lon="11.047648787712742"><ele>229.0</ele><time>2026-04-18T07:17:58Z</time></trkpt><trkpt lat="45.88628104023175" lon="11.047468030498157"><ele>229.0</ele><time>2026-04-18T07:17:59Z</time></trkpt><trkpt lat="45.88622069010689" lon="11.047285536429792"><ele>228.5</ele><time>2026-04-18T07:18:00Z</time></trkpt><trkpt lat="45.88617139598698" lon="11.047103410023137"><ele>228.0</ele><time>2026-04-18T07:18:01Z</time></trkpt><trkpt lat="45.88612701250299" lon="11.046929522775171"><ele>227.5</ele><time>2026-04-18T07:18:02Z</time></trkpt><trkpt lat="45.886088750152915" lon="11.046784984691206"><ele>227.0</ele><time>2026-04-18T07:18:03Z</time></trkpt><trkpt lat="45.886051476412" lon="11.046644180958724"><ele>224.8</ele><time>2026-04-18T07:18:04Z</time></trkpt><trkpt lat="45.886025896292736" lon="11.046493592992123"><ele>222.6</ele><time>2026-04-18T07:18:05Z</time></trkpt><trkpt lat="45.88602856594185" lon="11.046333801265066"><ele>220.40000000000003</ele><time>2026-04-18T07:18:06Z</time></trkpt><trkpt lat="45.886033694615435" lon="11.046178668380172"><ele>218.20000000000002</ele><time>2026-04-18T07:18:07Z</time></trkpt><trkpt lat="45.8860331644599" lon="11.046039614905206"><ele>216.0</ele><time>2026-04-18T07:18:08Z</time></trkpt><trkpt lat="45.88607183818792" lon="11.045914710078694"><ele>216.0</ele><time>2026-04-18T07:18:09Z</time></trkpt><trkpt lat="45.88615966113916" lon="11.045849911330954"><ele>216.00000000000003</ele><time>2026-04-18T07:18:10Z</time></trkpt><trkpt lat="45.886237204864784" lon="11.04578091214588"><ele>216.00000000000003</ele><time>2026-04-18T07:18:11Z</time></trkpt><trkpt lat="45.88631625322873" lon="11.045724774540272"><ele>216.0</ele><time>2026-04-18T07:18:12Z</time></trkpt><trkpt lat="45.88640002328654" lon="11.045668184094602"><ele>216.0</ele><time>2026-04-18T07:18:13Z</time></trkpt><trkpt lat="45.88647971321265" lon="11.045618229303976"><ele>214.5</ele><time>2026-04-18T07:18:14Z</time></trkpt><trkpt lat="45.88655914987707" lon="11.04557578880241"><ele>213.0</ele><time>2026-04-18T07:18:15Z</time></trkpt><trkpt lat="45.88662834719934" lon="11.045522512693715"><ele>211.5</ele><time>2026-04-18T07:18:16Z</time></trkpt><trkpt lat="45.886683404344986" lon="11.045455230011633"><ele>210.0</ele><time>2026-04-18T07:18:17Z</time></trkpt><trkpt lat="45.88674083512024" lon="11.045406133543244"><ele>208.5</ele><time>2026-04-18T07:18:18Z</time></trkpt><trkpt lat="45.88672512113135" lon="11.045287021888685"><ele>207.0</ele><time>2026-04-18T07:18:19Z</time></trkpt><trkpt lat="45.88671839688205" lon="11.045195856654667"><ele>207.0</ele><time>2026-04-18T07:18:20Z</time></trkpt><trkpt lat="45.88667232421762" lon="11.045101783144416"><ele>207.0</ele><time>2026-04-18T07:18:21Z</time></trkpt><trkpt lat="45.88663381201929" lon="11.04500978951543"><ele>207.0</ele><time>2026-04-18T07:18:22Z</time></trkpt><trkpt lat="45.88656836385663" lon="11.044849550472636"><ele>207.0</ele><time>2026-04-18T07:18:24Z</time></trkpt><trkpt lat="45.886541837310034" lon="11.044716304956179"><ele>207.0</ele><time>2026-04-18T07:18:26Z</time></trkpt><trkpt lat="45.88661969032546" lon="11.044597708214223"><ele>206.6</ele><time>2026-04-18T07:18:28Z</time></trkpt><trkpt lat="45.88668899629884" lon="11.044485880962402"><ele>206.2</ele><time>2026-04-18T07:18:30Z</time></trkpt><trkpt lat="45.88676694390021" lon="11.044354417735718"><ele>205.8</ele><time>2026-04-18T07:18:32Z</time></trkpt><trkpt lat="45.88681998954867" lon="11.044270387846993"><ele>205.4</ele><time>2026-04-18T07:18:33Z</time></trkpt><trkpt lat="45.886875462823035" lon="11.044187919994016"><ele>205.0</ele><time>2026-04-18T07:18:34Z</time></trkpt><trkpt lat="45.88693137354271" lon="11.04410605471048"><ele>204.99999999999997</ele><time>2026-04-18T07:18:35Z</time></trkpt><trkpt lat="45.886993293815294" lon="11.044037215187597"><ele>205.0</ele><time>2026-04-18T07:18:36Z</time></trkpt><trkpt lat="45.88704318734515" lon="11.04396569358459"><ele>205.0</ele><time>2026-04-18T07:18:37Z</time></trkpt><trkpt lat="45.88709228946165" lon="11.043895956039695"><ele>205.0</ele><time>2026-04-18T07:18:38Z</time></trkpt><trkpt lat="45.88713910278775" lon="11.04382587219237"><ele>204.99999999999997</ele><time>2026-04-18T07:18:39Z</time></trkpt><trkpt lat="45.88713912987338" lon="11.043594122246633"><ele>205.0</ele><time>2026-04-18T07:18:41Z</time></trkpt><trkpt lat="45.887134658461704" lon="11.043470981548285"><ele>205.0</ele><time>2026-04-18T07:18:42Z</time></trkpt><trkpt lat="45.88713474694409" lon="11.043322165353388"><ele>205.0</ele><time>2026-04-18T07:18:43Z</time></trkpt><trkpt lat="45.88713952691701" lon="11.043166916983306"><ele>205.0</ele><time>2026-04-18T07:18:44Z</time></trkpt><trkpt lat="45.88713799079778" lon="11.043013980942238"><ele>205.0</ele><time>2026-04-18T07:18:45Z</time></trkpt><trkpt lat="45.88715845771028" lon="11.0428451433735"><ele>205.0</ele><time>2026-04-18T07:18:46Z</time></trkpt><trkpt lat="45.88714334746073" lon="11.04266452227236"><ele>204.25</ele><time>2026-04-18T07:18:47Z</time></trkpt><trkpt lat="45.88714797893918" lon="11.042473712388944"><ele>203.5</ele><time>2026-04-18T07:18:48Z</time></trkpt><trkpt lat="45.88715179251258" lon="11.04227899017094"><ele>202.75</ele><time>2026-04-18T07:18:49Z</time></trkpt><trkpt lat="45.88715865549076" lon="11.042086412897142"><ele>202.0</ele><time>2026-04-18T07:18:50Z</time></trkpt><trkpt lat="45.887171193455956" lon="11.041895444373925"><ele>201.6</ele><time>2026-04-18T07:18:51Z</time></trkpt><trkpt lat="45.88718491932261" lon="11.041716332133007"><ele>201.2</ele><time>2026-04-18T07:18:52Z</time></trkpt><trkpt lat="45.88720345651873" lon="11.041553997413388"><ele>200.8</ele><time>2026-04-18T07:18:53Z</time></trkpt><trkpt lat="45.88722475228534" lon="11.041407829487474"><ele>200.4</ele><time>2026-04-18T07:18:54Z</time></trkpt><trkpt lat="45.887248299462534" lon="11.04127294544017"><ele>200.0</ele><time>2026-04-18T07:18:55Z</time></trkpt><trkpt lat="45.88726665021913" lon="11.041152999382959"><ele>200.00000000000003</ele><time>2026-04-18T07:18:56Z</time></trkpt><trkpt lat="45.8872826486571" lon="11.04104834556599"><ele>200.0</ele><time>2026-04-18T07:18:57Z</time></trkpt><trkpt lat="45.887301949036825" lon="11.040887980922435"><ele>200.0</ele><time>2026-04-18T07:18:59Z</time></trkpt><trkpt lat="45.887305619065145" lon="11.040787797278128"><ele>200.0</ele><time>2026-04-18T07:19:01Z</time></trkpt><trkpt lat="45.88730264332005" lon="11.040676515864497"><ele>200.00000000000003</ele><time>2026-04-18T07:19:04Z</time></trkpt><trkpt lat="45.88729686202918" lon="11.040576864770578"><ele>200.0</ele><time>2026-04-18T07:19:13Z</time></trkpt><trkpt lat="45.887275392454825" lon="11.040445402293145"><ele>199.6</ele><time>2026-04-18T07:19:15Z</time></trkpt><trkpt lat="45.887249358253406" lon="11.040292024066092"><ele>199.2</ele><time>2026-04-18T07:19:17Z</time></trkpt><trkpt lat="45.887250237723244" lon="11.040193047396546"><ele>198.8</ele><time>2026-04-18T07:19:18Z</time></trkpt><trkpt lat="45.887243571019184" lon="11.04006881620131"><ele>198.4</ele><time>2026-04-18T07:19:19Z</time></trkpt><trkpt lat="45.887237790168555" lon="11.039923137690247"><ele>198.0</ele><time>2026-04-18T07:19:20Z</time></trkpt><trkpt lat="45.88723347456758" lon="11.039776115623496"><ele>198.0</ele><time>2026-04-18T07:19:21Z</time></trkpt><trkpt lat="45.8872262746591" lon="11.039637233530943"><ele>198.0</ele><time>2026-04-18T07:19:22Z</time></trkpt><trkpt lat="45.887219831064144" lon="11.03948825260101"><ele>198.0</ele><time>2026-04-18T07:19:23Z</time></trkpt><trkpt lat="45.88721377608489" lon="11.039330413278467"><ele>198.0</ele><time>2026-04-18T07:19:24Z</time></trkpt><trkpt lat="45.88720520534024" lon="11.039161539636188"><ele>198.0</ele><time>2026-04-18T07:19:25Z</time></trkpt><trkpt lat="45.88719303312074" lon="11.0389802614272"><ele>197.75</ele><time>2026-04-18T07:19:26Z</time></trkpt><trkpt lat="45.887180298086186" lon="11.038788740524094"><ele>197.5</ele><time>2026-04-18T07:19:27Z</time></trkpt><trkpt lat="45.887173436874946" lon="11.038604669937076"><ele>197.25</ele><time>2026-04-18T07:19:28Z</time></trkpt><trkpt lat="45.88716361251026" lon="11.038422973444876"><ele>197.0</ele><time>2026-04-18T07:19:29Z</time></trkpt><trkpt lat="45.88715784200641" lon="11.038254619549122"><ele>196.83333333333334</ele><time>2026-04-18T07:19:30Z</time></trkpt><trkpt lat="45.887154537047486" lon="11.038099348760271"><ele>196.66666666666669</ele><time>2026-04-18T07:19:31Z</time></trkpt><trkpt lat="45.88714927258448" lon="11.037961326848267"><ele>196.5</ele><time>2026-04-18T07:19:32Z</time></trkpt><trkpt lat="45.887142533749" lon="11.037839694907131"><ele>196.33333333333331</ele><time>2026-04-18T07:19:33Z</time></trkpt><trkpt lat="45.88713483831307" lon="11.037732927129015"><ele>196.16666666666666</ele><time>2026-04-18T07:19:34Z</time></trkpt><trkpt lat="45.88712707797577" lon="11.037640042392896"><ele>196.0</ele><time>2026-04-18T07:19:35Z</time></trkpt><trkpt lat="45.88711884392897" lon="11.037476433210989"><ele>195.66666666666666</ele><time>2026-04-18T07:19:37Z</time></trkpt><trkpt lat="45.88711166874785" lon="11.037361516656665"><ele>195.33333333333331</ele><time>2026-04-18T07:19:39Z</time></trkpt><trkpt lat="45.88711843706076" lon="11.037253861711713"><ele>195.0</ele><time>2026-04-18T07:19:42Z</time></trkpt><trkpt lat="45.887112510694365" lon="11.037150013941488"><ele>194.66666666666669</ele><time>2026-04-18T07:19:46Z</time></trkpt><trkpt lat="45.88709368025352" lon="11.037027712742614"><ele>194.33333333333334</ele><time>2026-04-18T07:20:43Z</time></trkpt><trkpt lat="45.88709425787275" lon="11.036863316960941"><ele>194.0</ele><time>2026-04-18T07:20:46Z</time></trkpt><trkpt lat="45.887084327765386" lon="11.036699104708562"><ele>193.66666666666669</ele><time>2026-04-18T07:20:48Z</time></trkpt><trkpt lat="45.88707881732374" lon="11.036592432627273"><ele>193.33333333333334</ele><time>2026-04-18T07:20:49Z</time></trkpt><trkpt lat="45.887072219030195" lon="11.03646260751912"><ele>193.0</ele><time>2026-04-18T07:20:50Z</time></trkpt><trkpt lat="45.88706781575785" lon="11.036330081687826"><ele>192.66666666666669</ele><time>2026-04-18T07:20:51Z</time></trkpt><trkpt lat="45.88706879783434" lon="11.036197481783411"><ele>192.33333333333334</ele><time>2026-04-18T07:20:52Z</time></trkpt><trkpt lat="45.88706698425705" lon="11.036063366505047"><ele>192.0</ele><time>2026-04-18T07:20:53Z</time></trkpt><trkpt lat="45.8870690173543" lon="11.03591856994536"><ele>192.2</ele><time>2026-04-18T07:20:54Z</time></trkpt><trkpt lat="45.88707588095501" lon="11.035770078490305"><ele>192.39999999999998</ele><time>2026-04-18T07:20:55Z</time></trkpt><trkpt lat="45.88708792487285" lon="11.035612905569918"><ele>192.60000000000002</ele><time>2026-04-18T07:20:56Z</time></trkpt><trkpt lat="45.887102497960086" lon="11.03545161343078"><ele>192.8</ele><time>2026-04-18T07:20:57Z</time></trkpt><trkpt lat="45.88712273933268" lon="11.035287095860818"><ele>193.0</ele><time>2026-04-18T07:20:58Z</time></trkpt><trkpt lat="45.887145225211775" lon="11.035114780404585"><ele>193.0</ele><time>2026-04-18T07:20:59Z</time></trkpt><trkpt lat="45.887191716286935" lon="11.034937288796398"><ele>193.0</ele><time>2026-04-18T07:21:00Z</time></trkpt><trkpt lat="45.88722701881013" lon="11.03474577036579"><ele>193.0</ele><time>2026-04-18T07:21:01Z</time></trkpt><trkpt lat="45.88726277624693" lon="11.034551783922609"><ele>193.0</ele><time>2026-04-18T07:21:02Z</time></trkpt><trkpt lat="45.887296165711476" lon="11.034367349844418"><ele>193.0</ele><time>2026-04-18T07:21:03Z</time></trkpt><trkpt lat="45.88732834039025" lon="11.034189127974464"><ele>193.0</ele><time>2026-04-18T07:21:04Z</time></trkpt><trkpt lat="45.88732667912273" lon="11.034010260057304"><ele>193.0</ele><time>2026-04-18T07:21:05Z</time></trkpt><trkpt lat="45.887352585529" lon="11.03385586033086"><ele>193.0</ele><time>2026-04-18T07:21:06Z</time></trkpt><trkpt lat="45.88737328530281" lon="11.033745454810646"><ele>193.0</ele><time>2026-04-18T07:21:07Z</time></trkpt><trkpt lat="45.88739448079684" lon="11.033651122067269"><ele>192.66666666666666</ele><time>2026-04-18T07:21:08Z</time></trkpt><trkpt lat="45.88744902379334" lon="11.033516084025514"><ele>192.33333333333331</ele><time>2026-04-18T07:21:10Z</time></trkpt><trkpt lat="45.88746975303128" lon="11.033344666577385"><ele>192.0</ele><time>2026-04-18T07:21:12Z</time></trkpt><trkpt lat="45.88748019802708" lon="11.033244599795584"><ele>191.66666666666666</ele><time>2026-04-18T07:21:13Z</time></trkpt><trkpt lat="45.88748845856857" lon="11.033139961197408"><ele>191.33333333333331</ele><time>2026-04-18T07:21:14Z</time></trkpt><trkpt lat="45.887496890576024" lon="11.033036596319441"><ele>191.0</ele><time>2026-04-18T07:21:15Z</time></trkpt><trkpt lat="45.887497314790195" lon="11.032926233592184"><ele>191.0</ele><time>2026-04-18T07:21:16Z</time></trkpt><trkpt lat="45.88750844557642" lon="11.032811480004774"><ele>191.0</ele><time>2026-04-18T07:21:17Z</time></trkpt><trkpt lat="45.88751767156106" lon="11.032701360614054"><ele>191.0</ele><time>2026-04-18T07:21:18Z</time></trkpt><trkpt lat="45.88752625183055" lon="11.03260718605887"><ele>191.0</ele><time>2026-04-18T07:21:19Z</time></trkpt><trkpt lat="45.88755137179992" lon="11.032446290581719"><ele>191.0</ele><time>2026-04-18T07:21:21Z</time></trkpt><trkpt lat="45.8876085587493" lon="11.03230347128366"><ele>191.0</ele><time>2026-04-18T07:21:23Z</time></trkpt><trkpt lat="45.887632734266816" lon="11.032129533445469"><ele>191.0</ele><time>2026-04-18T07:21:25Z</time></trkpt><trkpt lat="45.88755652122452" lon="11.032006406885884"><ele>191.0</ele><time>2026-04-18T07:21:27Z</time></trkpt><trkpt lat="45.887472345812085" lon="11.031881095126828"><ele>191.0</ele><time>2026-04-18T07:21:29Z</time></trkpt><trkpt lat="45.88743238597494" lon="11.031795050654924"><ele>191.0</ele><time>2026-04-18T07:21:30Z</time></trkpt><trkpt lat="45.88739403307697" lon="11.031707516344486"><ele>191.0</ele><time>2026-04-18T07:21:31Z</time></trkpt><trkpt lat="45.88737160654577" lon="11.031622216257787"><ele>191.0</ele><time>2026-04-18T07:21:32Z</time></trkpt><trkpt lat="45.88735969779534" lon="11.031521903086647"><ele>191.0</ele><time>2026-04-18T07:21:33Z</time></trkpt><trkpt lat="45.887352239982555" lon="11.031404118863508"><ele>191.0</ele><time>2026-04-18T07:21:34Z</time></trkpt><trkpt lat="45.88733480838621" lon="11.031261810603407"><ele>191.0</ele><time>2026-04-18T07:21:35Z</time></trkpt><trkpt lat="45.887304573182995" lon="11.031095526986462"><ele>191.0</ele><time>2026-04-18T07:21:36Z</time></trkpt><trkpt lat="45.88729266927789" lon="11.030918313576695"><ele>190.75</ele><time>2026-04-18T07:21:37Z</time></trkpt><trkpt lat="45.88727069021855" lon="11.03074006390364"><ele>190.5</ele><time>2026-04-18T07:21:38Z</time></trkpt><trkpt lat="45.88724983507431" lon="11.030558141218155"><ele>190.25</ele><time>2026-04-18T07:21:39Z</time></trkpt><trkpt lat="45.88721733207639" lon="11.030382094050648"><ele>190.0</ele><time>2026-04-18T07:21:40Z</time></trkpt><trkpt lat="45.8872163847345" lon="11.030184975698846"><ele>190.0</ele><time>2026-04-18T07:21:41Z</time></trkpt><trkpt lat="45.88722366642883" lon="11.029976180269372"><ele>190.0</ele><time>2026-04-18T07:21:42Z</time></trkpt><trkpt lat="45.88723727949996" lon="11.029769646875405"><ele>190.0</ele><time>2026-04-18T07:21:43Z</time></trkpt><trkpt lat="45.887250172097545" lon="11.029561809886228"><ele>190.0</ele><time>2026-04-18T07:21:44Z</time></trkpt><trkpt lat="45.887263325335475" lon="11.029346800072421"><ele>189.25</ele><time>2026-04-18T07:21:45Z</time></trkpt><trkpt lat="45.88727196785112" lon="11.029126854775678"><ele>188.5</ele><time>2026-04-18T07:21:46Z</time></trkpt><trkpt lat="45.88728538357526" lon="11.028909576495758"><ele>187.75</ele><time>2026-04-18T07:21:47Z</time></trkpt><trkpt lat="45.88729744367485" lon="11.028703949638048"><ele>187.0</ele><time>2026-04-18T07:21:48Z</time></trkpt><trkpt lat="45.887308290060126" lon="11.028500067714964"><ele>186.25</ele><time>2026-04-18T07:21:49Z</time></trkpt><trkpt lat="45.88731991702087" lon="11.02829356850392"><ele>185.5</ele><time>2026-04-18T07:21:50Z</time></trkpt><trkpt lat="45.88733350852604" lon="11.02808977458511"><ele>184.75</ele><time>2026-04-18T07:21:51Z</time></trkpt><trkpt lat="45.88734435655174" lon="11.027893325762252"><ele>184.0</ele><time>2026-04-18T07:21:52Z</time></trkpt><trkpt lat="45.88735577909508" lon="11.027699162338811"><ele>184.0</ele><time>2026-04-18T07:21:53Z</time></trkpt><trkpt lat="45.887365334591415" lon="11.02750706045421"><ele>184.0</ele><time>2026-04-18T07:21:54Z</time></trkpt><trkpt lat="45.8873774856341" lon="11.02731168504992"><ele>184.0</ele><time>2026-04-18T07:21:55Z</time></trkpt><trkpt lat="45.8873864971173" lon="11.027114287988796"><ele>184.0</ele><time>2026-04-18T07:21:56Z</time></trkpt><trkpt lat="45.88739556184072" lon="11.026904045006273"><ele>184.0</ele><time>2026-04-18T07:21:57Z</time></trkpt><trkpt lat="45.887407214568086" lon="11.026687789061786"><ele>184.0</ele><time>2026-04-18T07:21:58Z</time></trkpt><trkpt lat="45.88741991763558" lon="11.02646412327037"><ele>184.0</ele><time>2026-04-18T07:21:59Z</time></trkpt><trkpt lat="45.88743152509456" lon="11.026232110526351"><ele>184.0</ele><time>2026-04-18T07:22:00Z</time></trkpt><trkpt lat="45.887446919334224" lon="11.026001130949844"><ele>184.0</ele><time>2026-04-18T07:22:01Z</time></trkpt><trkpt lat="45.88745212996929" lon="11.025763772268249"><ele>184.0</ele><time>2026-04-18T07:22:02Z</time></trkpt><trkpt lat="45.88746408682245" lon="11.025555198912958"><ele>183.75</ele><time>2026-04-18T07:22:03Z</time></trkpt><trkpt lat="45.887482603268836" lon="11.025353470551726"><ele>183.5</ele><time>2026-04-18T07:22:04Z</time></trkpt><trkpt lat="45.887495120515766" lon="11.02515901415581"><ele>183.25</ele><time>2026-04-18T07:22:05Z</time></trkpt><trkpt lat="45.88750242116092" lon="11.024968283250416"><ele>183.0</ele><time>2026-04-18T07:22:06Z</time></trkpt><trkpt lat="45.887511743949766" lon="11.024782690390799"><ele>182.5</ele><time>2026-04-18T07:22:07Z</time></trkpt><trkpt lat="45.887517768332394" lon="11.024602951409005"><ele>182.0</ele><time>2026-04-18T07:22:08Z</time></trkpt><trkpt lat="45.88752619715801" lon="11.024416931715677"><ele>181.5</ele><time>2026-04-18T07:22:09Z</time></trkpt><trkpt lat="45.887538653196344" lon="11.024224030429222"><ele>181.0</ele><time>2026-04-18T07:22:10Z</time></trkpt><trkpt lat="45.88755141131322" lon="11.02403511847815"><ele>180.75</ele><time>2026-04-18T07:22:11Z</time></trkpt><trkpt lat="45.8875625896596" lon="11.023856647465529"><ele>180.5</ele><time>2026-04-18T07:22:12Z</time></trkpt><trkpt lat="45.88757269510702" lon="11.023682763066503"><ele>180.25</ele><time>2026-04-18T07:22:13Z</time></trkpt><trkpt lat="45.88758503528098" lon="11.023509094247752"><ele>180.0</ele><time>2026-04-18T07:22:14Z</time></trkpt><trkpt lat="45.88759789884637" lon="11.023325827979562"><ele>179.25</ele><time>2026-04-18T07:22:15Z</time></trkpt><trkpt lat="45.88761065022351" lon="11.023140681778319"><ele>178.5</ele><time>2026-04-18T07:22:16Z</time></trkpt><trkpt lat="45.887616081786035" lon="11.022949470597666"><ele>177.75</ele><time>2026-04-18T07:22:17Z</time></trkpt><trkpt lat="45.88763045134912" lon="11.022752643244152"><ele>177.0</ele><time>2026-04-18T07:22:18Z</time></trkpt><trkpt lat="45.88765793812546" lon="11.02255194118904"><ele>177.0</ele><time>2026-04-18T07:22:19Z</time></trkpt><trkpt lat="45.88769628843149" lon="11.022345462161915"><ele>177.0</ele><time>2026-04-18T07:22:20Z</time></trkpt><trkpt lat="45.88774549539688" lon="11.022140150385196"><ele>177.0</ele><time>2026-04-18T07:22:21Z</time></trkpt><trkpt lat="45.887798753723914" lon="11.021923679972195"><ele>177.0</ele><time>2026-04-18T07:22:22Z</time></trkpt><trkpt lat="45.887861072193196" lon="11.021721939419054"><ele>177.0</ele><time>2026-04-18T07:22:23Z</time></trkpt><trkpt lat="45.887928819258136" lon="11.021520190291792"><ele>177.0</ele><time>2026-04-18T07:22:24Z</time></trkpt><trkpt lat="45.88799339920599" lon="11.021322280468901"><ele>176.5</ele><time>2026-04-18T07:22:25Z</time></trkpt><trkpt lat="45.8880481643129" lon="11.021128349747732"><ele>176.0</ele><time>2026-04-18T07:22:26Z</time></trkpt><trkpt lat="45.88808862799525" lon="11.020938269102283"><ele>175.5</ele><time>2026-04-18T07:22:27Z</time></trkpt><trkpt lat="45.888112077182576" lon="11.020745297436441"><ele>175.0</ele><time>2026-04-18T07:22:28Z</time></trkpt><trkpt lat="45.88812623909653" lon="11.02054483934442"><ele>175.0</ele><time>2026-04-18T07:22:29Z</time></trkpt><trkpt lat="45.88814410715439" lon="11.020340575985186"><ele>175.0</ele><time>2026-04-18T07:22:30Z</time></trkpt><trkpt lat="45.88816828869331" lon="11.020131572487289"><ele>175.0</ele><time>2026-04-18T07:22:31Z</time></trkpt><trkpt lat="45.88819132545362" lon="11.01992115648537"><ele>175.0</ele><time>2026-04-18T07:22:32Z</time></trkpt><trkpt lat="45.888214806136816" lon="11.019708674550614"><ele>174.75</ele><time>2026-04-18T07:22:33Z</time></trkpt><trkpt lat="45.88824735470277" lon="11.01950657162927"><ele>174.5</ele><time>2026-04-18T07:22:34Z</time></trkpt><trkpt lat="45.888271379650206" lon="11.019298405538356"><ele>174.25</ele><time>2026-04-18T07:22:35Z</time></trkpt><trkpt lat="45.88829394041785" lon="11.019094201678747"><ele>174.0</ele><time>2026-04-18T07:22:36Z</time></trkpt><trkpt lat="45.8883140604813" lon="11.01889264014941"><ele>174.0</ele><time>2026-04-18T07:22:37Z</time></trkpt><trkpt lat="45.88833355078027" lon="11.018695525714312"><ele>174.0</ele><time>2026-04-18T07:22:38Z</time></trkpt><trkpt lat="45.888357300942914" lon="11.01849181715652"><ele>174.0</ele><time>2026-04-18T07:22:39Z</time></trkpt><trkpt lat="45.88838155629812" lon="11.018280545385482"><ele>174.0</ele><time>2026-04-18T07:22:40Z</time></trkpt><trkpt lat="45.888406200081995" lon="11.018079846851732"><ele>174.0</ele><time>2026-04-18T07:22:41Z</time></trkpt><trkpt lat="45.88842951950843" lon="11.017883890752717"><ele>174.0</ele><time>2026-04-18T07:22:42Z</time></trkpt><trkpt lat="45.88844994602996" lon="11.01769575552057"><ele>174.0</ele><time>2026-04-18T07:22:43Z</time></trkpt><trkpt lat="45.888472732809" lon="11.017511715221918"><ele>174.0</ele><time>2026-04-18T07:22:44Z</time></trkpt><trkpt lat="45.888494868040965" lon="11.017320339280657"><ele>174.0</ele><time>2026-04-18T07:22:45Z</time></trkpt><trkpt lat="45.88851663743216" lon="11.017115287444419"><ele>174.0</ele><time>2026-04-18T07:22:46Z</time></trkpt><trkpt lat="45.888538379152166" lon="11.016904431084402"><ele>174.0</ele><time>2026-04-18T07:22:47Z</time></trkpt><trkpt lat="45.88856569574146" lon="11.016662305828874"><ele>172.66666666666666</ele><time>2026-04-18T07:22:48Z</time></trkpt><trkpt lat="45.88857257407028" lon="11.01639690125976"><ele>171.33333333333331</ele><time>2026-04-18T07:22:49Z</time></trkpt><trkpt lat="45.88857494383447" lon="11.016121177280176"><ele>170.0</ele><time>2026-04-18T07:22:50Z</time></trkpt><trkpt lat="45.88857665588709" lon="11.015860003529944"><ele>170.0</ele><time>2026-04-18T07:22:51Z</time></trkpt><trkpt lat="45.888565371066626" lon="11.015619858241937"><ele>170.0</ele><time>2026-04-18T07:22:52Z</time></trkpt><trkpt lat="45.888570358349355" lon="11.015388487969906"><ele>170.0</ele><time>2026-04-18T07:22:53Z</time></trkpt><trkpt lat="45.888575655936606" lon="11.01517528832907"><ele>171.25</ele><time>2026-04-18T07:22:54Z</time></trkpt><trkpt lat="45.88857952844101" lon="11.014969341159718"><ele>172.5</ele><time>2026-04-18T07:22:55Z</time></trkpt><trkpt lat="45.88858153471284" lon="11.014775835674577"><ele>173.75</ele><time>2026-04-18T07:22:56Z</time></trkpt><trkpt lat="45.88858138937082" lon="11.01459295894978"><ele>175.0</ele><time>2026-04-18T07:22:57Z</time></trkpt><trkpt lat="45.88858155346853" lon="11.014407598630767"><ele>175.0</ele><time>2026-04-18T07:22:58Z</time></trkpt><trkpt lat="45.888574498219256" lon="11.014226756950865"><ele>175.0</ele><time>2026-04-18T07:22:59Z</time></trkpt><trkpt lat="45.888536530538005" lon="11.01404963788215"><ele>175.0</ele><time>2026-04-18T07:23:00Z</time></trkpt><trkpt lat="45.88846191354046" lon="11.01387945155273"><ele>175.0</ele><time>2026-04-18T07:23:01Z</time></trkpt><trkpt lat="45.88836221666761" lon="11.013739196549126"><ele>177.5</ele><time>2026-04-18T07:23:02Z</time></trkpt><trkpt lat="45.88824044406392" lon="11.013638506463849"><ele>180.0</ele><time>2026-04-18T07:23:03Z</time></trkpt><trkpt lat="45.88810098150895" lon="11.013585383461422"><ele>182.5</ele><time>2026-04-18T07:23:04Z</time></trkpt><trkpt lat="45.887941803300265" lon="11.013577124444586"><ele>185.0</ele><time>2026-04-18T07:23:05Z</time></trkpt><trkpt lat="45.887769645894075" lon="11.013608934569417"><ele>185.0</ele><time>2026-04-18T07:23:06Z</time></trkpt><trkpt lat="45.88763303011776" lon="11.013596835279534"><ele>185.0</ele><time>2026-04-18T07:23:07Z</time></trkpt><trkpt lat="45.88751666070295" lon="11.013602706966084"><ele>185.0</ele><time>2026-04-18T07:23:08Z</time></trkpt><trkpt lat="45.88738034795468" lon="11.013603738496055"><ele>185.0</ele><time>2026-04-18T07:23:09Z</time></trkpt><trkpt lat="45.8872470291475" lon="11.013613408400719"><ele>185.25</ele><time>2026-04-18T07:23:10Z</time></trkpt><trkpt lat="45.887117936653475" lon="11.013613141749719"><ele>185.5</ele><time>2026-04-18T07:23:11Z</time></trkpt><trkpt lat="45.88698751737784" lon="11.013621419891523"><ele>185.75</ele><time>2026-04-18T07:23:12Z</time></trkpt><trkpt lat="45.88686534618917" lon="11.013624253989322"><ele>186.0</ele><time>2026-04-18T07:23:13Z</time></trkpt><trkpt lat="45.88673488095222" lon="11.013626463777447"><ele>187.0</ele><time>2026-04-18T07:23:14Z</time></trkpt><trkpt lat="45.88659689498458" lon="11.01361929669455"><ele>188.0</ele><time>2026-04-18T07:23:15Z</time></trkpt><trkpt lat="45.8864515100225" lon="11.01359587393343"><ele>189.0</ele><time>2026-04-18T07:23:16Z</time></trkpt><trkpt lat="45.886309974725094" lon="11.01355294521277"><ele>190.0</ele><time>2026-04-18T07:23:17Z</time></trkpt><trkpt lat="45.88617724616542" lon="11.013496482609481"><ele>190.0</ele><time>2026-04-18T07:23:18Z</time></trkpt><trkpt lat="45.88605181203283" lon="11.013433349090636"><ele>190.0</ele><time>2026-04-18T07:23:19Z</time></trkpt><trkpt lat="45.88593040844207" lon="11.01336152350636"><ele>190.0</ele><time>2026-04-18T07:23:20Z</time></trkpt><trkpt lat="45.88582039669723" lon="11.013256243454311"><ele>190.0</ele><time>2026-04-18T07:23:21Z</time></trkpt><trkpt lat="45.88570020004248" lon="11.013181662268586"><ele>191.75</ele><time>2026-04-18T07:23:22Z</time></trkpt><trkpt lat="45.885590965393895" lon="11.013073353217383"><ele>193.5</ele><time>2026-04-18T07:23:23Z</time></trkpt><trkpt lat="45.88547838473577" lon="11.012953857165522"><ele>195.25</ele><time>2026-04-18T07:23:24Z</time></trkpt><trkpt lat="45.88537185867175" lon="11.012828154404614"><ele>197.0</ele><time>2026-04-18T07:23:25Z</time></trkpt><trkpt lat="45.885258815760615" lon="11.01272107843313"><ele>197.0</ele><time>2026-04-18T07:23:26Z</time></trkpt><trkpt lat="45.88514431399388" lon="11.012624920739869"><ele>197.0</ele><time>2026-04-18T07:23:27Z</time></trkpt><trkpt lat="45.88501675270613" lon="11.012550948979188"><ele>197.0</ele><time>2026-04-18T07:23:28Z</time></trkpt><trkpt lat="45.88488036302024" lon="11.012495757433218"><ele>197.0</ele><time>2026-04-18T07:23:29Z</time></trkpt><trkpt lat="45.88474098145713" lon="11.012453304487051"><ele>198.5</ele><time>2026-04-18T07:23:30Z</time></trkpt><trkpt lat="45.884612613833234" lon="11.012414036355587"><ele>200.0</ele><time>2026-04-18T07:23:31Z</time></trkpt><trkpt lat="45.88449955570034" lon="11.012372594276675"><ele>201.5</ele><time>2026-04-18T07:23:32Z</time></trkpt><trkpt lat="45.88439370383068" lon="11.012326530805487"><ele>203.0</ele><time>2026-04-18T07:23:33Z</time></trkpt><trkpt lat="45.884301350188004" lon="11.012277259538424"><ele>202.83333333333334</ele><time>2026-04-18T07:23:34Z</time></trkpt><trkpt lat="45.884229577282255" lon="11.012217766277441"><ele>202.66666666666669</ele><time>2026-04-18T07:23:35Z</time></trkpt><trkpt lat="45.884172894185674" lon="11.012166877507644"><ele>202.5</ele><time>2026-04-18T07:23:36Z</time></trkpt><trkpt lat="45.88410847832629" lon="11.012108127104742"><ele>202.33333333333331</ele><time>2026-04-18T07:23:38Z</time></trkpt><trkpt lat="45.88405198097291" lon="11.012052243904199"><ele>202.16666666666666</ele><time>2026-04-18T07:23:46Z</time></trkpt><trkpt lat="45.88399787266187" lon="11.011998269927016"><ele>202.0</ele><time>2026-04-18T07:23:51Z</time></trkpt><trkpt lat="45.883902803652845" lon="11.011927721769023"><ele>202.0</ele><time>2026-04-18T07:23:59Z</time></trkpt><trkpt lat="45.88380844810605" lon="11.011834622408887"><ele>202.0</ele><time>2026-04-18T07:24:01Z</time></trkpt><trkpt lat="45.88369733599915" lon="11.011729291932157"><ele>202.0</ele><time>2026-04-18T07:24:03Z</time></trkpt><trkpt lat="45.883620532979464" lon="11.011658873642"><ele>202.0</ele><time>2026-04-18T07:24:04Z</time></trkpt><trkpt lat="45.88354302722403" lon="11.011555514028403"><ele>202.0</ele><time>2026-04-18T07:24:05Z</time></trkpt><trkpt lat="45.88346379982458" lon="11.011477101716231"><ele>202.0</ele><time>2026-04-18T07:24:06Z</time></trkpt><trkpt lat="45.8833872663005" lon="11.011401782455307"><ele>202.0</ele><time>2026-04-18T07:24:07Z</time></trkpt><trkpt lat="45.88329035744481" lon="11.011339698201771"><ele>202.0</ele><time>2026-04-18T07:24:08Z</time></trkpt><trkpt lat="45.8831925282767" lon="11.011250312761545"><ele>202.0</ele><time>2026-04-18T07:24:09Z</time></trkpt><trkpt lat="45.88308730679314" lon="11.011150160594655"><ele>202.0</ele><time>2026-04-18T07:24:10Z</time></trkpt><trkpt lat="45.88298310341332" lon="11.011044540204168"><ele>202.0</ele><time>2026-04-18T07:24:11Z</time></trkpt><trkpt lat="45.88287980880349" lon="11.010945433214102"><ele>202.0</ele><time>2026-04-18T07:24:12Z</time></trkpt><trkpt lat="45.88276324802215" lon="11.010874148980834"><ele>202.0</ele><time>2026-04-18T07:24:13Z</time></trkpt><trkpt lat="45.88262578357557" lon="11.0108371705095"><ele>202.0</ele><time>2026-04-18T07:24:14Z</time></trkpt><trkpt lat="45.8824767571598" lon="11.01083388055346"><ele>203.0</ele><time>2026-04-18T07:24:15Z</time></trkpt><trkpt lat="45.88231642746039" lon="11.01083141164588"><ele>204.0</ele><time>2026-04-18T07:24:16Z</time></trkpt><trkpt lat="45.882166546218286" lon="11.010819614027547"><ele>205.0</ele><time>2026-04-18T07:24:17Z</time></trkpt><trkpt lat="45.88200260306739" lon="11.010795000041005"><ele>205.0</ele><time>2026-04-18T07:24:18Z</time></trkpt><trkpt lat="45.88182982653799" lon="11.010758468720843"><ele>205.0</ele><time>2026-04-18T07:24:19Z</time></trkpt><trkpt lat="45.88165184872676" lon="11.010725278944893"><ele>205.0</ele><time>2026-04-18T07:24:20Z</time></trkpt><trkpt lat="45.88147825008506" lon="11.010700071138219"><ele>205.0</ele><time>2026-04-18T07:24:21Z</time></trkpt><trkpt lat="45.88131699871435" lon="11.010673498845973"><ele>205.0</ele><time>2026-04-18T07:24:22Z</time></trkpt><trkpt lat="45.881170130162424" lon="11.01065024633301"><ele>205.0</ele><time>2026-04-18T07:24:23Z</time></trkpt><trkpt lat="45.88104650687468" lon="11.010627062812446"><ele>205.0</ele><time>2026-04-18T07:24:24Z</time></trkpt><trkpt lat="45.88092790017589" lon="11.010595980764627"><ele>205.2</ele><time>2026-04-18T07:24:25Z</time></trkpt><trkpt lat="45.8808234197286" lon="11.010531765790281"><ele>205.4</ele><time>2026-04-18T07:24:26Z</time></trkpt><trkpt lat="45.880742863661006" lon="11.010428871036122"><ele>205.60000000000002</ele><time>2026-04-18T07:24:27Z</time></trkpt><trkpt lat="45.88068030676384" lon="11.010291968689682"><ele>205.8</ele><time>2026-04-18T07:24:28Z</time></trkpt><trkpt lat="45.880636698497625" lon="11.01014406267739"><ele>206.0</ele><time>2026-04-18T07:24:29Z</time></trkpt><trkpt lat="45.88065081490522" lon="11.009982003474928"><ele>206.75</ele><time>2026-04-18T07:24:30Z</time></trkpt><trkpt lat="45.880674274028884" lon="11.00982199836279"><ele>207.5</ele><time>2026-04-18T07:24:31Z</time></trkpt><trkpt lat="45.88070397995823" lon="11.009644721660523"><ele>208.25</ele><time>2026-04-18T07:24:32Z</time></trkpt><trkpt lat="45.88073500201974" lon="11.009461351356558"><ele>209.0</ele><time>2026-04-18T07:24:33Z</time></trkpt><trkpt lat="45.880749537214136" lon="11.009287447986543"><ele>209.0</ele><time>2026-04-18T07:24:34Z</time></trkpt><trkpt lat="45.880785413689956" lon="11.009128393235292"><ele>209.0</ele><time>2026-04-18T07:24:35Z</time></trkpt><trkpt lat="45.88083210981207" lon="11.00898160589662"><ele>209.0</ele><time>2026-04-18T07:24:36Z</time></trkpt><trkpt lat="45.88089154350808" lon="11.008871990482149"><ele>209.0</ele><time>2026-04-18T07:24:37Z</time></trkpt><trkpt lat="45.88093544547087" lon="11.008765446891442"><ele>209.0</ele><time>2026-04-18T07:24:38Z</time></trkpt><trkpt lat="45.88094772455572" lon="11.008648793709328"><ele>209.0</ele><time>2026-04-18T07:24:39Z</time></trkpt><trkpt lat="45.88091702103998" lon="11.008558264337994"><ele>209.0</ele><time>2026-04-18T07:24:40Z</time></trkpt><trkpt lat="45.880859499590514" lon="11.00850917928662"><ele>209.0</ele><time>2026-04-18T07:24:41Z</time></trkpt><trkpt lat="45.88077270615172" lon="11.008506739090416"><ele>209.0</ele><time>2026-04-18T07:24:42Z</time></trkpt><trkpt lat="45.88066842605774" lon="11.008521475849506"><ele>209.0</ele><time>2026-04-18T07:24:43Z</time></trkpt><trkpt lat="45.8805450486835" lon="11.008520716867206"><ele>209.0</ele><time>2026-04-18T07:24:44Z</time></trkpt><trkpt lat="45.88040530812343" lon="11.008507146831404"><ele>209.0</ele><time>2026-04-18T07:24:45Z</time></trkpt><trkpt lat="45.880252158283646" lon="11.008496584492734"><ele>209.0</ele><time>2026-04-18T07:24:46Z</time></trkpt><trkpt lat="45.88009699770077" lon="11.008485421205453"><ele>209.0</ele><time>2026-04-18T07:24:47Z</time></trkpt><trkpt lat="45.879922267582906" lon="11.008471113703225"><ele>209.33333333333334</ele><time>2026-04-18T07:24:48Z</time></trkpt><trkpt lat="45.87972934052307" lon="11.008451395767947"><ele>209.66666666666669</ele><time>2026-04-18T07:24:49Z</time></trkpt><trkpt lat="45.87952357869099" lon="11.008429714379327"><ele>210.0</ele><time>2026-04-18T07:24:50Z</time></trkpt><trkpt lat="45.8793242464068" lon="11.008408983733446"><ele>210.0</ele><time>2026-04-18T07:24:51Z</time></trkpt><trkpt lat="45.87911608290033" lon="11.008389034758176"><ele>210.0</ele><time>2026-04-18T07:24:52Z</time></trkpt><trkpt lat="45.878913142737204" lon="11.008371516151174"><ele>210.0</ele><time>2026-04-18T07:24:53Z</time></trkpt><trkpt lat="45.87871418008591" lon="11.008351092507683"><ele>210.0</ele><time>2026-04-18T07:24:54Z</time></trkpt><trkpt lat="45.878519426438025" lon="11.00832875955452"><ele>210.0</ele><time>2026-04-18T07:24:55Z</time></trkpt><trkpt lat="45.87832566327683" lon="11.008303604677565"><ele>210.0</ele><time>2026-04-18T07:24:56Z</time></trkpt><trkpt lat="45.8781284063057" lon="11.00826458115688"><ele>211.66666666666669</ele><time>2026-04-18T07:24:57Z</time></trkpt><trkpt lat="45.87793056447587" lon="11.008209615650093"><ele>213.33333333333334</ele><time>2026-04-18T07:24:58Z</time></trkpt><trkpt lat="45.877736096288274" lon="11.008146662715996"><ele>215.0</ele><time>2026-04-18T07:24:59Z</time></trkpt><trkpt lat="45.87754863863801" lon="11.008069573292664"><ele>215.0</ele><time>2026-04-18T07:25:00Z</time></trkpt><trkpt lat="45.87736142387069" lon="11.00797130621762"><ele>215.0</ele><time>2026-04-18T07:25:01Z</time></trkpt><trkpt lat="45.877171903237894" lon="11.00785297413016"><ele>215.0</ele><time>2026-04-18T07:25:02Z</time></trkpt><trkpt lat="45.8769779303859" lon="11.00771719395044"><ele>215.0</ele><time>2026-04-18T07:25:03Z</time></trkpt><trkpt lat="45.87678250282237" lon="11.007568669944405"><ele>215.0</ele><time>2026-04-18T07:25:04Z</time></trkpt><trkpt lat="45.876584442112154" lon="11.007414046244019"><ele>215.0</ele><time>2026-04-18T07:25:05Z</time></trkpt><trkpt lat="45.87638493926491" lon="11.007260557690449"><ele>214.0</ele><time>2026-04-18T07:25:06Z</time></trkpt><trkpt lat="45.876184720999376" lon="11.00711542550198"><ele>213.0</ele><time>2026-04-18T07:25:07Z</time></trkpt><trkpt lat="45.87599331049842" lon="11.006952008747755"><ele>212.0</ele><time>2026-04-18T07:25:08Z</time></trkpt><trkpt lat="45.87578970543721" lon="11.006817007478942"><ele>211.66666666666669</ele><time>2026-04-18T07:25:09Z</time></trkpt><trkpt lat="45.875581065072886" lon="11.006716474417196"><ele>211.33333333333331</ele><time>2026-04-18T07:25:10Z</time></trkpt><trkpt lat="45.87537899200946" lon="11.006594827760958"><ele>211.0</ele><time>2026-04-18T07:25:11Z</time></trkpt><trkpt lat="45.875179877257295" lon="11.006474183337584"><ele>212.66666666666666</ele><time>2026-04-18T07:25:12Z</time></trkpt><trkpt lat="45.87498317038324" lon="11.006351425984336"><ele>214.33333333333331</ele><time>2026-04-18T07:25:13Z</time></trkpt><trkpt lat="45.87478676894032" lon="11.00622851561717"><ele>216.0</ele><time>2026-04-18T07:25:14Z</time></trkpt><trkpt lat="45.87458980892292" lon="11.006111256471204"><ele>216.0</ele><time>2026-04-18T07:25:15Z</time></trkpt><trkpt lat="45.874399106595554" lon="11.006003254534757"><ele>216.0</ele><time>2026-04-18T07:25:16Z</time></trkpt><trkpt lat="45.87421256988727" lon="11.005906013109588"><ele>216.0</ele><time>2026-04-18T07:25:17Z</time></trkpt><trkpt lat="45.87403106948437" lon="11.005822698492695"><ele>223.0</ele><time>2026-04-18T07:25:18Z</time></trkpt><trkpt lat="45.873855170480084" lon="11.00572849401982"><ele>230.0</ele><time>2026-04-18T07:25:19Z</time></trkpt><trkpt lat="45.87366407084375" lon="11.005702628840378"><ele>237.0</ele><time>2026-04-18T07:25:20Z</time></trkpt><trkpt lat="45.8734721560478" lon="11.005666622935976"><ele>238.33333333333331</ele><time>2026-04-18T07:25:21Z</time></trkpt><trkpt lat="45.873270900863155" lon="11.005638220058637"><ele>239.66666666666666</ele><time>2026-04-18T07:25:22Z</time></trkpt><trkpt lat="45.87306271139079" lon="11.005617221003806"><ele>241.0</ele><time>2026-04-18T07:25:23Z</time></trkpt><trkpt lat="45.87284949906301" lon="11.005595815062044"><ele>241.0</ele><time>2026-04-18T07:25:24Z</time></trkpt><trkpt lat="45.87263075260351" lon="11.005573721643511"><ele>241.0</ele><time>2026-04-18T07:25:25Z</time></trkpt><trkpt lat="45.872406205297665" lon="11.005553673415607"><ele>241.0</ele><time>2026-04-18T07:25:26Z</time></trkpt><trkpt lat="45.872182187665324" lon="11.005534873001801"><ele>238.66666666666666</ele><time>2026-04-18T07:25:27Z</time></trkpt><trkpt lat="45.87196801777785" lon="11.005521644345636"><ele>236.33333333333331</ele><time>2026-04-18T07:25:28Z</time></trkpt><trkpt lat="45.87176979243715" lon="11.005500680754116"><ele>234.0</ele><time>2026-04-18T07:25:29Z</time></trkpt><trkpt lat="45.87158945717644" lon="11.00547837136756"><ele>231.66666666666669</ele><time>2026-04-18T07:25:30Z</time></trkpt><trkpt lat="45.87141928435905" lon="11.005461715962653"><ele>229.33333333333334</ele><time>2026-04-18T07:25:31Z</time></trkpt><trkpt lat="45.87125335034316" lon="11.005444527639876"><ele>227.0</ele><time>2026-04-18T07:25:32Z</time></trkpt><trkpt lat="45.8711000265722" lon="11.005424596066938"><ele>227.0</ele><time>2026-04-18T07:25:33Z</time></trkpt><trkpt lat="45.87094757579648" lon="11.00536925603467"><ele>227.0</ele><time>2026-04-18T07:25:34Z</time></trkpt><trkpt lat="45.870796778141276" lon="11.005301489631616"><ele>227.0</ele><time>2026-04-18T07:25:35Z</time></trkpt><trkpt lat="45.87064122467988" lon="11.005220668183828"><ele>227.0</ele><time>2026-04-18T07:25:36Z</time></trkpt><trkpt lat="45.87048671135051" lon="11.005112398580248"><ele>227.0</ele><time>2026-04-18T07:25:37Z</time></trkpt><trkpt lat="45.870335344292094" lon="11.00498031767322"><ele>227.0</ele><time>2026-04-18T07:25:38Z</time></trkpt><trkpt lat="45.87019642680905" lon="11.004812850903429"><ele>231.66666666666669</ele><time>2026-04-18T07:25:39Z</time></trkpt><trkpt lat="45.870039463414024" lon="11.00467068857939"><ele>236.33333333333331</ele><time>2026-04-18T07:25:40Z</time></trkpt><trkpt lat="45.86989035393642" lon="11.004515106174525"><ele>241.0</ele><time>2026-04-18T07:25:41Z</time></trkpt><trkpt lat="45.86972909935299" lon="11.004381312559254"><ele>241.0</ele><time>2026-04-18T07:25:42Z</time></trkpt><trkpt lat="45.869558298435464" lon="11.004259329568718"><ele>241.0</ele><time>2026-04-18T07:25:43Z</time></trkpt><trkpt lat="45.869370041509484" lon="11.00415017017589"><ele>241.0</ele><time>2026-04-18T07:25:44Z</time></trkpt><trkpt lat="45.869177228768876" lon="11.004047607589854"><ele>243.66666666666666</ele><time>2026-04-18T07:25:45Z</time></trkpt><trkpt lat="45.868982942043246" lon="11.00394177203377"><ele>246.33333333333331</ele><time>2026-04-18T07:25:46Z</time></trkpt><trkpt lat="45.868795171813204" lon="11.003827745948241"><ele>249.0</ele><time>2026-04-18T07:25:47Z</time></trkpt><trkpt lat="45.86861450308488" lon="11.003711887943531"><ele>249.0</ele><time>2026-04-18T07:25:48Z</time></trkpt><trkpt lat="45.8684451519866" lon="11.003582718857437"><ele>249.0</ele><time>2026-04-18T07:25:49Z</time></trkpt><trkpt lat="45.86829174402228" lon="11.003433298349076"><ele>249.0</ele><time>2026-04-18T07:25:50Z</time></trkpt><trkpt lat="45.86815250675333" lon="11.003264924962089"><ele>249.66666666666669</ele><time>2026-04-18T07:25:51Z</time></trkpt><trkpt lat="45.86802480165895" lon="11.00307481358032"><ele>250.33333333333334</ele><time>2026-04-18T07:25:52Z</time></trkpt><trkpt lat="45.867905903885585" lon="11.00286027432996"><ele>251.0</ele><time>2026-04-18T07:25:53Z</time></trkpt><trkpt lat="45.86779063056747" lon="11.002622350807815"><ele>254.0</ele><time>2026-04-18T07:25:54Z</time></trkpt><trkpt lat="45.867672518054995" lon="11.002374193020238"><ele>257.0</ele><time>2026-04-18T07:25:55Z</time></trkpt><trkpt lat="45.867548331973545" lon="11.002117053355606"><ele>260.0</ele><time>2026-04-18T07:25:56Z</time></trkpt><trkpt lat="45.86741543715177" lon="11.001856167010196"><ele>256.5</ele><time>2026-04-18T07:25:57Z</time></trkpt><trkpt lat="45.867275616793044" lon="11.001586130561453"><ele>253.0</ele><time>2026-04-18T07:25:58Z</time></trkpt><trkpt lat="45.86714606559272" lon="11.001303008601974"><ele>253.0</ele><time>2026-04-18T07:25:59Z</time></trkpt><trkpt lat="45.86700550548793" lon="11.0010386825716"><ele>253.0</ele><time>2026-04-18T07:26:00Z</time></trkpt><trkpt lat="45.86687104828895" lon="11.000786132096723"><ele>246.66666666666666</ele><time>2026-04-18T07:26:01Z</time></trkpt><trkpt lat="45.86674106730403" lon="11.000541938180048"><ele>240.33333333333331</ele><time>2026-04-18T07:26:02Z</time></trkpt><trkpt lat="45.86661544303672" lon="11.0003059291949"><ele>234.0</ele><time>2026-04-18T07:26:03Z</time></trkpt><trkpt lat="45.86649371389172" lon="11.00007719434279"><ele>234.0</ele><time>2026-04-18T07:26:04Z</time></trkpt><trkpt lat="45.86636413305338" lon="10.999871918011065"><ele>234.0</ele><time>2026-04-18T07:26:05Z</time></trkpt><trkpt lat="45.866250901756054" lon="10.999656469648912"><ele>234.0</ele><time>2026-04-18T07:26:06Z</time></trkpt><trkpt lat="45.8661455245253" lon="10.99944491576904"><ele>234.0</ele><time>2026-04-18T07:26:07Z</time></trkpt><trkpt lat="45.8660465281653" lon="10.999234343733969"><ele>234.0</ele><time>2026-04-18T07:26:08Z</time></trkpt><trkpt lat="45.865954538796736" lon="10.999022099772324"><ele>234.0</ele><time>2026-04-18T07:26:09Z</time></trkpt><trkpt lat="45.86586903772454" lon="10.998802774788603"><ele>227.33333333333331</ele><time>2026-04-18T07:26:10Z</time></trkpt><trkpt lat="45.86579394604592" lon="10.998577957926667"><ele>220.66666666666666</ele><time>2026-04-18T07:26:11Z</time></trkpt><trkpt lat="45.86572376394546" lon="10.998351996713907"><ele>214.0</ele><time>2026-04-18T07:26:12Z</time></trkpt><trkpt lat="45.86565729126802" lon="10.998124063462592"><ele>214.0</ele><time>2026-04-18T07:26:13Z</time></trkpt><trkpt lat="45.86559337872671" lon="10.99789600453736"><ele>214.0</ele><time>2026-04-18T07:26:14Z</time></trkpt><trkpt lat="45.86552740570059" lon="10.997667966583055"><ele>214.0</ele><time>2026-04-18T07:26:15Z</time></trkpt><trkpt lat="45.86546015319232" lon="10.997440367305526"><ele>215.25</ele><time>2026-04-18T07:26:16Z</time></trkpt><trkpt lat="45.865392150463194" lon="10.997233964221353"><ele>216.5</ele><time>2026-04-18T07:26:17Z</time></trkpt><trkpt lat="45.86531495500724" lon="10.997059858144592"><ele>217.75</ele><time>2026-04-18T07:26:18Z</time></trkpt><trkpt lat="45.86520832984718" lon="10.996924908419361"><ele>219.0</ele><time>2026-04-18T07:26:19Z</time></trkpt><trkpt lat="45.86507793467174" lon="10.996823029685864"><ele>209.33333333333334</ele><time>2026-04-18T07:26:20Z</time></trkpt><trkpt lat="45.86492797445662" lon="10.996772743238882"><ele>199.66666666666669</ele><time>2026-04-18T07:26:21Z</time></trkpt><trkpt lat="45.86477342188022" lon="10.996763979075986"><ele>190.0</ele><time>2026-04-18T07:26:22Z</time></trkpt><trkpt lat="45.86462761005046" lon="10.996758607838734"><ele>190.0</ele><time>2026-04-18T07:26:23Z</time></trkpt><trkpt lat="45.864502220299" lon="10.996687821210516"><ele>190.0</ele><time>2026-04-18T07:26:24Z</time></trkpt><trkpt lat="45.86437527328981" lon="10.996603089401894"><ele>190.0</ele><time>2026-04-18T07:26:25Z</time></trkpt><trkpt lat="45.86429268024814" lon="10.996429030815753"><ele>190.0</ele><time>2026-04-18T07:26:26Z</time></trkpt><trkpt lat="45.86422096685559" lon="10.996238412590559"><ele>189.33333333333334</ele><time>2026-04-18T07:26:27Z</time></trkpt><trkpt lat="45.864144189680395" lon="10.996032541021089"><ele>188.66666666666666</ele><time>2026-04-18T07:26:28Z</time></trkpt><trkpt lat="45.86405775616392" lon="10.995838648422026"><ele>188.0</ele><time>2026-04-18T07:26:29Z</time></trkpt><trkpt lat="45.86398495808347" lon="10.995649039073767"><ele>188.0</ele><time>2026-04-18T07:26:30Z</time></trkpt><trkpt lat="45.86392222627172" lon="10.995485523496782"><ele>188.0</ele><time>2026-04-18T07:26:31Z</time></trkpt><trkpt lat="45.86386067382244" lon="10.995366227595026"><ele>188.0</ele><time>2026-04-18T07:26:32Z</time></trkpt><trkpt lat="45.86377963990716" lon="10.99529407499224"><ele>188.0</ele><time>2026-04-18T07:26:33Z</time></trkpt><trkpt lat="45.863675718905675" lon="10.995283642307372"><ele>188.0</ele><time>2026-04-18T07:26:34Z</time></trkpt><trkpt lat="45.8635742646303" lon="10.995276534711047"><ele>188.0</ele><time>2026-04-18T07:26:35Z</time></trkpt><trkpt lat="45.86348494012406" lon="10.995229848324746"><ele>188.0</ele><time>2026-04-18T07:26:36Z</time></trkpt><trkpt lat="45.86340176901409" lon="10.99516507538124"><ele>188.0</ele><time>2026-04-18T07:26:37Z</time></trkpt><trkpt lat="45.86333234109658" lon="10.995023002168294"><ele>188.0</ele><time>2026-04-18T07:26:38Z</time></trkpt><trkpt lat="45.86323935620461" lon="10.99490239796606"><ele>188.0</ele><time>2026-04-18T07:26:39Z</time></trkpt><trkpt lat="45.86313557555397" lon="10.994772773891581"><ele>186.0</ele><time>2026-04-18T07:26:40Z</time></trkpt><trkpt lat="45.863021729650654" lon="10.994632278276354"><ele>184.0</ele><time>2026-04-18T07:26:41Z</time></trkpt><trkpt lat="45.86290269080258" lon="10.994477714741532"><ele>182.0</ele><time>2026-04-18T07:26:42Z</time></trkpt><trkpt lat="45.86277877164308" lon="10.994310354861394"><ele>181.0</ele><time>2026-04-18T07:26:43Z</time></trkpt><trkpt lat="45.862652352017626" lon="10.994135550697667"><ele>180.0</ele><time>2026-04-18T07:26:44Z</time></trkpt><trkpt lat="45.86252658377778" lon="10.993957566818704"><ele>179.0</ele><time>2026-04-18T07:26:45Z</time></trkpt><trkpt lat="45.86239681786947" lon="10.993797006286838"><ele>179.0</ele><time>2026-04-18T07:26:46Z</time></trkpt><trkpt lat="45.862252328069495" lon="10.993671110265925"><ele>179.0</ele><time>2026-04-18T07:26:47Z</time></trkpt><trkpt lat="45.86209209691732" lon="10.993581921696416"><ele>179.0</ele><time>2026-04-18T07:26:48Z</time></trkpt><trkpt lat="45.861916506777504" lon="10.993526633717902"><ele>177.33333333333331</ele><time>2026-04-18T07:26:49Z</time></trkpt><trkpt lat="45.86173964724472" lon="10.993502025805386"><ele>175.66666666666666</ele><time>2026-04-18T07:26:50Z</time></trkpt><trkpt lat="45.86157410829239" lon="10.993479703256941"><ele>174.0</ele><time>2026-04-18T07:26:51Z</time></trkpt><trkpt lat="45.86141955962789" lon="10.993443005418815"><ele>174.0</ele><time>2026-04-18T07:26:52Z</time></trkpt><trkpt lat="45.86129435360297" lon="10.993352130333617"><ele>174.0</ele><time>2026-04-18T07:26:53Z</time></trkpt><trkpt lat="45.861179028037824" lon="10.993249868234034"><ele>174.0</ele><time>2026-04-18T07:26:54Z</time></trkpt><trkpt lat="45.86106804265686" lon="10.993144959366377"><ele>174.0</ele><time>2026-04-18T07:26:55Z</time></trkpt><trkpt lat="45.86098338823617" lon="10.992958266982514"><ele>176.0</ele><time>2026-04-18T07:26:56Z</time></trkpt><trkpt lat="45.86088910242911" lon="10.992768724003096"><ele>178.0</ele><time>2026-04-18T07:26:57Z</time></trkpt><trkpt lat="45.86079014337203" lon="10.992562673673936"><ele>180.0</ele><time>2026-04-18T07:26:58Z</time></trkpt><trkpt lat="45.860673803029705" lon="10.992356672193122"><ele>183.0</ele><time>2026-04-18T07:26:59Z</time></trkpt><trkpt lat="45.86056702968484" lon="10.992127839301899"><ele>186.0</ele><time>2026-04-18T07:27:00Z</time></trkpt><trkpt lat="45.86046954853463" lon="10.991898034220302"><ele>189.0</ele><time>2026-04-18T07:27:01Z</time></trkpt><trkpt lat="45.86035252418585" lon="10.99170741233921"><ele>191.33333333333331</ele><time>2026-04-18T07:27:02Z</time></trkpt><trkpt lat="45.860243565700905" lon="10.991520672522677"><ele>193.66666666666666</ele><time>2026-04-18T07:27:03Z</time></trkpt><trkpt lat="45.86010651845627" lon="10.991366103794139"><ele>196.0</ele><time>2026-04-18T07:27:04Z</time></trkpt><trkpt lat="45.859960995452745" lon="10.991229001755007"><ele>196.0</ele><time>2026-04-18T07:27:05Z</time></trkpt><trkpt lat="45.859800721724156" lon="10.991107791516443"><ele>196.0</ele><time>2026-04-18T07:27:06Z</time></trkpt><trkpt lat="45.85963051603728" lon="10.991011558531394"><ele>196.0</ele><time>2026-04-18T07:27:07Z</time></trkpt><trkpt lat="45.859472379741206" lon="10.990935834505747"><ele>196.33333333333331</ele><time>2026-04-18T07:27:08Z</time></trkpt><trkpt lat="45.859327782411604" lon="10.990828376954287"><ele>196.66666666666669</ele><time>2026-04-18T07:27:09Z</time></trkpt><trkpt lat="45.8591658375438" lon="10.990734478716057"><ele>197.0</ele><time>2026-04-18T07:27:10Z</time></trkpt><trkpt lat="45.85899185512403" lon="10.990633600895345"><ele>196.0</ele><time>2026-04-18T07:27:11Z</time></trkpt><trkpt lat="45.858822702165966" lon="10.990535523234014"><ele>195.0</ele><time>2026-04-18T07:27:12Z</time></trkpt><trkpt lat="45.85864936171638" lon="10.990460965615263"><ele>194.0</ele><time>2026-04-18T07:27:13Z</time></trkpt><trkpt lat="45.85849251663744" lon="10.990364654101306"><ele>194.33333333333334</ele><time>2026-04-18T07:27:14Z</time></trkpt><trkpt lat="45.85833901623" lon="10.990279937529344"><ele>194.66666666666669</ele><time>2026-04-18T07:27:15Z</time></trkpt><trkpt lat="45.858191397795196" lon="10.99019662596122"><ele>195.0</ele><time>2026-04-18T07:27:16Z</time></trkpt><trkpt lat="45.85804971290613" lon="10.990115352524809"><ele>195.0</ele><time>2026-04-18T07:27:17Z</time></trkpt><trkpt lat="45.85791221420713" lon="10.990033586912629"><ele>195.0</ele><time>2026-04-18T07:27:18Z</time></trkpt><trkpt lat="45.857787046144814" lon="10.989957313146501"><ele>195.0</ele><time>2026-04-18T07:27:19Z</time></trkpt><trkpt lat="45.85767606981432" lon="10.989895172392679"><ele>195.0</ele><time>2026-04-18T07:27:20Z</time></trkpt><trkpt lat="45.85757670229807" lon="10.989810163789523"><ele>194.0</ele><time>2026-04-18T07:27:21Z</time></trkpt><trkpt lat="45.85746432074874" lon="10.989763888220711"><ele>193.0</ele><time>2026-04-18T07:27:22Z</time></trkpt><trkpt lat="45.85735382151812" lon="10.989688701773193"><ele>192.0</ele><time>2026-04-18T07:27:23Z</time></trkpt><trkpt lat="45.85724386253409" lon="10.989611074155663"><ele>191.0</ele><time>2026-04-18T07:27:24Z</time></trkpt><trkpt lat="45.85712843864881" lon="10.989534556673684"><ele>191.0</ele><time>2026-04-18T07:27:25Z</time></trkpt><trkpt lat="45.85700339080846" lon="10.989472925631606"><ele>191.0</ele><time>2026-04-18T07:27:26Z</time></trkpt><trkpt lat="45.85688526505203" lon="10.989420758182654"><ele>191.0</ele><time>2026-04-18T07:27:27Z</time></trkpt><trkpt lat="45.85676941519703" lon="10.989369946771241"><ele>191.0</ele><time>2026-04-18T07:27:28Z</time></trkpt><trkpt lat="45.85666120179301" lon="10.989316865518246"><ele>191.20000000000002</ele><time>2026-04-18T07:27:29Z</time></trkpt><trkpt lat="45.856559073951225" lon="10.989264492633128"><ele>191.4</ele><time>2026-04-18T07:27:30Z</time></trkpt><trkpt lat="45.856460377433415" lon="10.989212923992564"><ele>191.6</ele><time>2026-04-18T07:27:31Z</time></trkpt><trkpt lat="45.85635912699738" lon="10.989165871684737"><ele>191.8</ele><time>2026-04-18T07:27:32Z</time></trkpt><trkpt lat="45.85625830501482" lon="10.989115698695116"><ele>192.0</ele><time>2026-04-18T07:27:33Z</time></trkpt><trkpt lat="45.85615206644514" lon="10.989059020460443"><ele>192.0</ele><time>2026-04-18T07:27:34Z</time></trkpt><trkpt lat="45.856038711857366" lon="10.988998694570546"><ele>192.0</ele><time>2026-04-18T07:27:35Z</time></trkpt><trkpt lat="45.85591891777892" lon="10.988922707586914"><ele>192.0</ele><time>2026-04-18T07:27:36Z</time></trkpt><trkpt lat="45.85579472676131" lon="10.988820516076895"><ele>192.0</ele><time>2026-04-18T07:27:37Z</time></trkpt><trkpt lat="45.85566903845284" lon="10.988688053125484"><ele>191.66666666666666</ele><time>2026-04-18T07:27:38Z</time></trkpt><trkpt lat="45.855543265876165" lon="10.988530496774299"><ele>191.33333333333331</ele><time>2026-04-18T07:27:39Z</time></trkpt><trkpt lat="45.85541668437225" lon="10.988350255570067"><ele>191.0</ele><time>2026-04-18T07:27:40Z</time></trkpt><trkpt lat="45.85529437425997" lon="10.988145567209742"><ele>191.66666666666666</ele><time>2026-04-18T07:27:41Z</time></trkpt><trkpt lat="45.85517759219998" lon="10.987927172405524"><ele>192.33333333333331</ele><time>2026-04-18T07:27:42Z</time></trkpt><trkpt lat="45.85506453110882" lon="10.987721573918206"><ele>193.0</ele><time>2026-04-18T07:27:43Z</time></trkpt><trkpt lat="45.85495307634716" lon="10.987527422675718"><ele>191.0</ele><time>2026-04-18T07:27:44Z</time></trkpt><trkpt lat="45.85485225002075" lon="10.98734215494045"><ele>189.0</ele><time>2026-04-18T07:27:45Z</time></trkpt><trkpt lat="45.8547590819315" lon="10.987161735227279"><ele>187.0</ele><time>2026-04-18T07:27:46Z</time></trkpt><trkpt lat="45.854679041946234" lon="10.986970599385277"><ele>187.0</ele><time>2026-04-18T07:27:47Z</time></trkpt><trkpt lat="45.85461236112714" lon="10.986768401128765"><ele>187.0</ele><time>2026-04-18T07:27:48Z</time></trkpt><trkpt lat="45.854559653572814" lon="10.986567948282016"><ele>187.0</ele><time>2026-04-18T07:27:49Z</time></trkpt><trkpt lat="45.854517159016126" lon="10.986373608765508"><ele>187.0</ele><time>2026-04-18T07:27:50Z</time></trkpt><trkpt lat="45.85447848470443" lon="10.986184101859688"><ele>187.6</ele><time>2026-04-18T07:27:51Z</time></trkpt><trkpt lat="45.854447326671014" lon="10.986004989891685"><ele>188.2</ele><time>2026-04-18T07:27:52Z</time></trkpt><trkpt lat="45.85445101133211" lon="10.98585822267605"><ele>188.8</ele><time>2026-04-18T07:27:53Z</time></trkpt><trkpt lat="45.85443688019057" lon="10.985744560874918"><ele>189.4</ele><time>2026-04-18T07:27:54Z</time></trkpt><trkpt lat="45.854422825456105" lon="10.985631513708677"><ele>190.0</ele><time>2026-04-18T07:27:55Z</time></trkpt><trkpt lat="45.85440900316711" lon="10.985520336165518"><ele>191.6</ele><time>2026-04-18T07:27:56Z</time></trkpt><trkpt lat="45.854394537363866" lon="10.985403982593635"><ele>193.2</ele><time>2026-04-18T07:27:57Z</time></trkpt><trkpt lat="45.854377999846726" lon="10.985271412904867"><ele>194.8</ele><time>2026-04-18T07:27:58Z</time></trkpt><trkpt lat="45.854358998689534" lon="10.985119954292525"><ele>196.4</ele><time>2026-04-18T07:27:59Z</time></trkpt><trkpt lat="45.85433716726385" lon="10.984945933769813"><ele>198.0</ele><time>2026-04-18T07:28:00Z</time></trkpt><trkpt lat="45.85431444836199" lon="10.984762476903907"><ele>198.5</ele><time>2026-04-18T07:28:01Z</time></trkpt><trkpt lat="45.85428924173106" lon="10.984559745321155"><ele>199.0</ele><time>2026-04-18T07:28:02Z</time></trkpt><trkpt lat="45.854263467115686" lon="10.984352191905796"><ele>199.5</ele><time>2026-04-18T07:28:03Z</time></trkpt><trkpt lat="45.85423669227176" lon="10.984136367924451"><ele>200.0</ele><time>2026-04-18T07:28:04Z</time></trkpt><trkpt lat="45.85420756999328" lon="10.983901180078625"><ele>197.0</ele><time>2026-04-18T07:28:05Z</time></trkpt><trkpt lat="45.854176139026364" lon="10.983647347579854"><ele>194.0</ele><time>2026-04-18T07:28:06Z</time></trkpt><trkpt lat="45.85414512657761" lon="10.983396894795836"><ele>191.0</ele><time>2026-04-18T07:28:07Z</time></trkpt><trkpt lat="45.85411344853775" lon="10.983161852874003"><ele>191.0</ele><time>2026-04-18T07:28:08Z</time></trkpt><trkpt lat="45.85406675508846" lon="10.982944236280598"><ele>191.0</ele><time>2026-04-18T07:28:09Z</time></trkpt><trkpt lat="45.85403080483352" lon="10.98274295164454"><ele>191.0</ele><time>2026-04-18T07:28:10Z</time></trkpt><trkpt lat="45.853989664594856" lon="10.98257154021204"><ele>191.0</ele><time>2026-04-18T07:28:11Z</time></trkpt><trkpt lat="45.85396749340987" lon="10.982449668605597"><ele>192.0</ele><time>2026-04-18T07:28:12Z</time></trkpt><trkpt lat="45.85395170669086" lon="10.982326880982155"><ele>193.0</ele><time>2026-04-18T07:28:13Z</time></trkpt><trkpt lat="45.85391653607435" lon="10.982193843862921"><ele>194.0</ele><time>2026-04-18T07:28:14Z</time></trkpt><trkpt lat="45.85385422216266" lon="10.982039617179394"><ele>195.0</ele><time>2026-04-18T07:28:15Z</time></trkpt><trkpt lat="45.85378167261166" lon="10.98186853027172"><ele>196.0</ele><time>2026-04-18T07:28:16Z</time></trkpt><trkpt lat="45.85370336990963" lon="10.981672106400268"><ele>197.0</ele><time>2026-04-18T07:28:17Z</time></trkpt><trkpt lat="45.85361902802633" lon="10.981448054608645"><ele>198.0</ele><time>2026-04-18T07:28:18Z</time></trkpt><trkpt lat="45.85353864088975" lon="10.981216307215856"><ele>198.0</ele><time>2026-04-18T07:28:19Z</time></trkpt><trkpt lat="45.853456037405806" lon="10.980990342580803"><ele>198.0</ele><time>2026-04-18T07:28:20Z</time></trkpt><trkpt lat="45.853366599538695" lon="10.980755467264977"><ele>198.0</ele><time>2026-04-18T07:28:21Z</time></trkpt><trkpt lat="45.853284815845775" lon="10.980540566981468"><ele>198.25</ele><time>2026-04-18T07:28:22Z</time></trkpt><trkpt lat="45.85320653493147" lon="10.980364919193143"><ele>198.5</ele><time>2026-04-18T07:28:23Z</time></trkpt><trkpt lat="45.85311541499477" lon="10.980216652647401"><ele>198.75</ele><time>2026-04-18T07:28:24Z</time></trkpt><trkpt lat="45.85301073498094" lon="10.98009635868198"><ele>199.0</ele><time>2026-04-18T07:28:25Z</time></trkpt><trkpt lat="45.85289789760582" lon="10.980000928300294"><ele>199.0</ele><time>2026-04-18T07:28:26Z</time></trkpt><trkpt lat="45.85278291800315" lon="10.97992216257145"><ele>199.0</ele><time>2026-04-18T07:28:27Z</time></trkpt><trkpt lat="45.85267112092447" lon="10.979855110769416"><ele>199.0</ele><time>2026-04-18T07:28:28Z</time></trkpt><trkpt lat="45.852569197000406" lon="10.979808325545317"><ele>199.0</ele><time>2026-04-18T07:28:29Z</time></trkpt><trkpt lat="45.85248683936248" lon="10.979765038916144"><ele>199.0</ele><time>2026-04-18T07:28:30Z</time></trkpt><trkpt lat="45.852414175917644" lon="10.979727670840564"><ele>199.33333333333331</ele><time>2026-04-18T07:28:31Z</time></trkpt><trkpt lat="45.852342409846365" lon="10.979697362659648"><ele>199.66666666666666</ele><time>2026-04-18T07:28:32Z</time></trkpt><trkpt lat="45.85227908144579" lon="10.979668139826153"><ele>200.0</ele><time>2026-04-18T07:28:33Z</time></trkpt><trkpt lat="45.8521747439702" lon="10.979599156984953"><ele>200.33333333333331</ele><time>2026-04-18T07:28:35Z</time></trkpt><trkpt lat="45.85209143319743" lon="10.979534973953609"><ele>200.66666666666666</ele><time>2026-04-18T07:28:37Z</time></trkpt><trkpt lat="45.85202257492419" lon="10.979473159353761"><ele>201.0</ele><time>2026-04-18T07:28:39Z</time></trkpt><trkpt lat="45.85194336121815" lon="10.979410462490582"><ele>201.0</ele><time>2026-04-18T07:28:41Z</time></trkpt><trkpt lat="45.851872889781674" lon="10.97928012491656"><ele>201.0</ele><time>2026-04-18T07:28:43Z</time></trkpt><trkpt lat="45.85180004784519" lon="10.979170737877697"><ele>201.0</ele><time>2026-04-18T07:28:45Z</time></trkpt><trkpt lat="45.85171748167431" lon="10.979085578411873"><ele>201.0</ele><time>2026-04-18T07:28:47Z</time></trkpt><trkpt lat="45.85165791673808" lon="10.978984446401883"><ele>201.0</ele><time>2026-04-18T07:28:49Z</time></trkpt><trkpt lat="45.85161579660927" lon="10.978904952628403"><ele>201.0</ele><time>2026-04-18T07:28:51Z</time></trkpt><trkpt lat="45.85157732337041" lon="10.978822789141004"><ele>201.0</ele><time>2026-04-18T07:28:56Z</time></trkpt><trkpt lat="45.85152696317598" lon="10.978754715818766"><ele>201.0</ele><time>2026-04-18T07:29:02Z</time></trkpt><trkpt lat="45.85145222805013" lon="10.978617947924652"><ele>201.0</ele><time>2026-04-18T07:29:04Z</time></trkpt><trkpt lat="45.851368119983995" lon="10.978463622290478"><ele>201.0</ele><time>2026-04-18T07:29:06Z</time></trkpt><trkpt lat="45.85130446345901" lon="10.97836348406182"><ele>201.0</ele><time>2026-04-18T07:29:07Z</time></trkpt><trkpt lat="45.8512263418385" lon="10.978253613246471"><ele>201.0</ele><time>2026-04-18T07:29:08Z</time></trkpt><trkpt lat="45.85115475028889" lon="10.97813413846678"><ele>201.0</ele><time>2026-04-18T07:29:09Z</time></trkpt><trkpt lat="45.85108806400099" lon="10.978020116765991"><ele>201.0</ele><time>2026-04-18T07:29:10Z</time></trkpt><trkpt lat="45.85102212816563" lon="10.97789968323847"><ele>201.0</ele><time>2026-04-18T07:29:11Z</time></trkpt><trkpt lat="45.850957523365295" lon="10.977761300478667"><ele>201.0</ele><time>2026-04-18T07:29:12Z</time></trkpt><trkpt lat="45.85089943882005" lon="10.977601796043139"><ele>201.0</ele><time>2026-04-18T07:29:13Z</time></trkpt><trkpt lat="45.85085473937704" lon="10.977420542321516"><ele>201.0</ele><time>2026-04-18T07:29:14Z</time></trkpt><trkpt lat="45.85083276526173" lon="10.977232453514105"><ele>201.0</ele><time>2026-04-18T07:29:15Z</time></trkpt><trkpt lat="45.850826849373064" lon="10.977056253582335"><ele>201.5</ele><time>2026-04-18T07:29:16Z</time></trkpt><trkpt lat="45.850832648740415" lon="10.976876892422338"><ele>202.0</ele><time>2026-04-18T07:29:17Z</time></trkpt><trkpt lat="45.85085069237797" lon="10.976692329742068"><ele>202.5</ele><time>2026-04-18T07:29:18Z</time></trkpt><trkpt lat="45.850873606062294" lon="10.97650741501058"><ele>203.0</ele><time>2026-04-18T07:29:19Z</time></trkpt><trkpt lat="45.850894513272635" lon="10.976330103431158"><ele>203.2</ele><time>2026-04-18T07:29:20Z</time></trkpt><trkpt lat="45.85091217178785" lon="10.976156418559018"><ele>203.4</ele><time>2026-04-18T07:29:21Z</time></trkpt><trkpt lat="45.85092547728721" lon="10.975994198372506"><ele>203.6</ele><time>2026-04-18T07:29:22Z</time></trkpt><trkpt lat="45.85094512173678" lon="10.975845180820231"><ele>203.79999999999998</ele><time>2026-04-18T07:29:23Z</time></trkpt><trkpt lat="45.850957712370885" lon="10.975691877076827"><ele>204.0</ele><time>2026-04-18T07:29:24Z</time></trkpt><trkpt lat="45.850994017792004" lon="10.97553757055244"><ele>204.0</ele><time>2026-04-18T07:29:25Z</time></trkpt><trkpt lat="45.851017488836625" lon="10.975352270588603"><ele>204.0</ele><time>2026-04-18T07:29:26Z</time></trkpt><trkpt lat="45.851044203340855" lon="10.975145366890706"><ele>204.0</ele><time>2026-04-18T07:29:27Z</time></trkpt><trkpt lat="45.851073665440474" lon="10.974917316157603"><ele>204.0</ele><time>2026-04-18T07:29:28Z</time></trkpt><trkpt lat="45.85109150808643" lon="10.974692535387081"><ele>203.75</ele><time>2026-04-18T07:29:29Z</time></trkpt><trkpt lat="45.8511406601259" lon="10.974484202601747"><ele>203.5</ele><time>2026-04-18T07:29:30Z</time></trkpt><trkpt lat="45.85118676764679" lon="10.974304294084646"><ele>203.25</ele><time>2026-04-18T07:29:31Z</time></trkpt><trkpt lat="45.85123092136579" lon="10.974103547483864"><ele>203.0</ele><time>2026-04-18T07:29:32Z</time></trkpt><trkpt lat="45.8512648719228" lon="10.973877475080462"><ele>202.66666666666669</ele><time>2026-04-18T07:29:33Z</time></trkpt><trkpt lat="45.85130580801898" lon="10.97363627062875"><ele>202.33333333333331</ele><time>2026-04-18T07:29:34Z</time></trkpt><trkpt lat="45.851356127343" lon="10.973410071050733"><ele>202.0</ele><time>2026-04-18T07:29:35Z</time></trkpt><trkpt lat="45.85141726452648" lon="10.973206446297496"><ele>202.0</ele><time>2026-04-18T07:29:36Z</time></trkpt><trkpt lat="45.85148655444653" lon="10.973015778296999"><ele>202.0</ele><time>2026-04-18T07:29:37Z</time></trkpt><trkpt lat="45.85155960386919" lon="10.972840322084872"><ele>202.0</ele><time>2026-04-18T07:29:38Z</time></trkpt><trkpt lat="45.85162745619552" lon="10.972677605499452"><ele>202.0</ele><time>2026-04-18T07:29:39Z</time></trkpt><trkpt lat="45.85169092525422" lon="10.972527780735962"><ele>202.0</ele><time>2026-04-18T07:29:40Z</time></trkpt><trkpt lat="45.851753527131144" lon="10.972356574401323"><ele>202.0</ele><time>2026-04-18T07:29:41Z</time></trkpt><trkpt lat="45.851819661390444" lon="10.972175880680451"><ele>202.0</ele><time>2026-04-18T07:29:42Z</time></trkpt><trkpt lat="45.851895652018335" lon="10.971981059479614"><ele>202.0</ele><time>2026-04-18T07:29:43Z</time></trkpt><trkpt lat="45.85197579431022" lon="10.97177901461195"><ele>201.66666666666666</ele><time>2026-04-18T07:29:44Z</time></trkpt><trkpt lat="45.85205717363584" lon="10.971563208562651"><ele>201.33333333333331</ele><time>2026-04-18T07:29:45Z</time></trkpt><trkpt lat="45.852140702770676" lon="10.971333697284013"><ele>201.0</ele><time>2026-04-18T07:29:46Z</time></trkpt><trkpt lat="45.852227071958666" lon="10.971115458087013"><ele>201.0</ele><time>2026-04-18T07:29:47Z</time></trkpt><trkpt lat="45.852306117939925" lon="10.97091189279363"><ele>201.0</ele><time>2026-04-18T07:29:48Z</time></trkpt><trkpt lat="45.8523722552102" lon="10.97074357520054"><ele>201.0</ele><time>2026-04-18T07:29:49Z</time></trkpt><trkpt lat="45.852430731782476" lon="10.97060296587877"><ele>201.0</ele><time>2026-04-18T07:29:50Z</time></trkpt><trkpt lat="45.852487323016355" lon="10.970475195169534"><ele>201.0</ele><time>2026-04-18T07:29:51Z</time></trkpt><trkpt lat="45.852562351869516" lon="10.970382851163057"><ele>201.0</ele><time>2026-04-18T07:29:52Z</time></trkpt><trkpt lat="45.85263185147895" lon="10.970308145149202"><ele>201.0</ele><time>2026-04-18T07:29:53Z</time></trkpt><trkpt lat="45.85266911361003" lon="10.970208369124718"><ele>201.0</ele><time>2026-04-18T07:29:54Z</time></trkpt><trkpt lat="45.85268128400494" lon="10.970091211148263"><ele>201.0</ele><time>2026-04-18T07:29:55Z</time></trkpt><trkpt lat="45.85269789948288" lon="10.969958104697225"><ele>201.0</ele><time>2026-04-18T07:29:56Z</time></trkpt><trkpt lat="45.852740577643324" lon="10.969823939656575"><ele>200.60000000000002</ele><time>2026-04-18T07:29:57Z</time></trkpt><trkpt lat="45.852791514776115" lon="10.969685141004877"><ele>200.2</ele><time>2026-04-18T07:29:58Z</time></trkpt><trkpt lat="45.85285266607133" lon="10.969549808234287"><ele>199.8</ele><time>2026-04-18T07:29:59Z</time></trkpt><trkpt lat="45.85288639364842" lon="10.969434783597906"><ele>199.39999999999998</ele><time>2026-04-18T07:30:00Z</time></trkpt><trkpt lat="45.852935684317394" lon="10.969326099997497"><ele>199.0</ele><time>2026-04-18T07:30:01Z</time></trkpt><trkpt lat="45.852971706447924" lon="10.969221287037623"><ele>199.16666666666666</ele><time>2026-04-18T07:30:02Z</time></trkpt><trkpt lat="45.85300906485663" lon="10.969114041822923"><ele>199.33333333333331</ele><time>2026-04-18T07:30:03Z</time></trkpt><trkpt lat="45.85304788888241" lon="10.969014421942047"><ele>199.5</ele><time>2026-04-18T07:30:04Z</time></trkpt><trkpt lat="45.85308596792397" lon="10.968918434798066"><ele>199.66666666666669</ele><time>2026-04-18T07:30:05Z</time></trkpt><trkpt lat="45.8531280450725" lon="10.968828102870239"><ele>199.83333333333334</ele><time>2026-04-18T07:30:06Z</time></trkpt><trkpt lat="45.853190312636166" lon="10.968696275466273"><ele>200.0</ele><time>2026-04-18T07:30:08Z</time></trkpt><trkpt lat="45.853235187987" lon="10.96862119873546"><ele>200.0</ele><time>2026-04-18T07:30:09Z</time></trkpt><trkpt lat="45.85328415235287" lon="10.968514116679632"><ele>200.0</ele><time>2026-04-18T07:30:10Z</time></trkpt><trkpt lat="45.85334056450948" lon="10.968382005158809"><ele>200.0</ele><time>2026-04-18T07:30:11Z</time></trkpt><trkpt lat="45.853404004901705" lon="10.968218141649155"><ele>200.0</ele><time>2026-04-18T07:30:12Z</time></trkpt><trkpt lat="45.85346909919051" lon="10.968030923022617"><ele>200.5</ele><time>2026-04-18T07:30:13Z</time></trkpt><trkpt lat="45.853533561881726" lon="10.967838836349735"><ele>201.0</ele><time>2026-04-18T07:30:14Z</time></trkpt><trkpt lat="45.853593999760925" lon="10.967658815593827"><ele>201.5</ele><time>2026-04-18T07:30:15Z</time></trkpt><trkpt lat="45.85364993132436" lon="10.967468209226553"><ele>202.0</ele><time>2026-04-18T07:30:16Z</time></trkpt><trkpt lat="45.85370005057779" lon="10.96725668609529"><ele>202.0</ele><time>2026-04-18T07:30:17Z</time></trkpt><trkpt lat="45.85373444718822" lon="10.967016921013371"><ele>202.0</ele><time>2026-04-18T07:30:18Z</time></trkpt><trkpt lat="45.85374501027785" lon="10.966759775503538"><ele>202.0</ele><time>2026-04-18T07:30:19Z</time></trkpt><trkpt lat="45.853729726631215" lon="10.966486776858973"><ele>202.0</ele><time>2026-04-18T07:30:20Z</time></trkpt><trkpt lat="45.853706968423204" lon="10.966205627236123"><ele>202.0</ele><time>2026-04-18T07:30:21Z</time></trkpt><trkpt lat="45.85368430155361" lon="10.965913209812907"><ele>202.0</ele><time>2026-04-18T07:30:22Z</time></trkpt><trkpt lat="45.85366304053642" lon="10.96561379379663"><ele>202.33333333333331</ele><time>2026-04-18T07:30:23Z</time></trkpt><trkpt lat="45.85364294824148" lon="10.965309870086895"><ele>202.66666666666669</ele><time>2026-04-18T07:30:24Z</time></trkpt><trkpt lat="45.85362431439129" lon="10.965010017938903"><ele>203.0</ele><time>2026-04-18T07:30:25Z</time></trkpt><trkpt lat="45.853608334353815" lon="10.964716479778389"><ele>204.33333333333334</ele><time>2026-04-18T07:30:26Z</time></trkpt><trkpt lat="45.853604710986104" lon="10.964426646032843"><ele>205.66666666666669</ele><time>2026-04-18T07:30:27Z</time></trkpt><trkpt lat="45.85361721558991" lon="10.964129031967646"><ele>207.0</ele><time>2026-04-18T07:30:28Z</time></trkpt><trkpt lat="45.85364541109999" lon="10.963815266959953"><ele>207.5</ele><time>2026-04-18T07:30:29Z</time></trkpt><trkpt lat="45.85368391151838" lon="10.96348831787469"><ele>208.0</ele><time>2026-04-18T07:30:30Z</time></trkpt><trkpt lat="45.85372725456558" lon="10.963160218555874"><ele>206.5</ele><time>2026-04-18T07:30:31Z</time></trkpt><trkpt lat="45.85377113376172" lon="10.96282805567938"><ele>205.0</ele><time>2026-04-18T07:30:32Z</time></trkpt><trkpt lat="45.85381330043383" lon="10.962496901607112"><ele>204.66666666666666</ele><time>2026-04-18T07:30:33Z</time></trkpt><trkpt lat="45.853852476641684" lon="10.962176647650708"><ele>204.33333333333331</ele><time>2026-04-18T07:30:34Z</time></trkpt><trkpt lat="45.853886667675376" lon="10.961862116998029"><ele>204.0</ele><time>2026-04-18T07:30:35Z</time></trkpt><trkpt lat="45.85390050892" lon="10.961542452127414"><ele>204.0</ele><time>2026-04-18T07:30:36Z</time></trkpt><trkpt lat="45.85389385735917" lon="10.961210678540082"><ele>204.0</ele><time>2026-04-18T07:30:37Z</time></trkpt><trkpt lat="45.8538804320414" lon="10.960866793275361"><ele>204.0</ele><time>2026-04-18T07:30:38Z</time></trkpt><trkpt lat="45.85386969960566" lon="10.960534850816824"><ele>204.0</ele><time>2026-04-18T07:30:39Z</time></trkpt><trkpt lat="45.85385992559424" lon="10.960222311795304"><ele>204.0</ele><time>2026-04-18T07:30:40Z</time></trkpt><trkpt lat="45.85384892194646" lon="10.95992589162893"><ele>204.0</ele><time>2026-04-18T07:30:41Z</time></trkpt><trkpt lat="45.853840428468075" lon="10.959643195065134"><ele>204.0</ele><time>2026-04-18T07:30:42Z</time></trkpt><trkpt lat="45.853840072501804" lon="10.959369386623138"><ele>204.0</ele><time>2026-04-18T07:30:43Z</time></trkpt><trkpt lat="45.85385380609856" lon="10.959096016548049"><ele>203.0</ele><time>2026-04-18T07:30:44Z</time></trkpt><trkpt lat="45.85388833279549" lon="10.958817690913786"><ele>202.0</ele><time>2026-04-18T07:30:45Z</time></trkpt><trkpt lat="45.85394081170336" lon="10.958538474221983"><ele>201.0</ele><time>2026-04-18T07:30:46Z</time></trkpt><trkpt lat="45.85400912688917" lon="10.958263605264195"><ele>201.0</ele><time>2026-04-18T07:30:47Z</time></trkpt><trkpt lat="45.854089550795095" lon="10.957984319933855"><ele>201.0</ele><time>2026-04-18T07:30:48Z</time></trkpt><trkpt lat="45.85417943883119" lon="10.957712060789992"><ele>201.0</ele><time>2026-04-18T07:30:49Z</time></trkpt><trkpt lat="45.85427265854393" lon="10.957457215523027"><ele>204.0</ele><time>2026-04-18T07:30:50Z</time></trkpt><trkpt lat="45.854356089257635" lon="10.957221392109401"><ele>207.0</ele><time>2026-04-18T07:30:51Z</time></trkpt><trkpt lat="45.854424615294015" lon="10.956987762702932"><ele>210.0</ele><time>2026-04-18T07:30:52Z</time></trkpt><trkpt lat="45.85448254327832" lon="10.956741875227854"><ele>211.0</ele><time>2026-04-18T07:30:53Z</time></trkpt><trkpt lat="45.854531281836806" lon="10.956512128469265"><ele>212.0</ele><time>2026-04-18T07:30:54Z</time></trkpt><trkpt lat="45.85456744463211" lon="10.956314612555731"><ele>213.0</ele><time>2026-04-18T07:30:55Z</time></trkpt><trkpt lat="45.85459475141999" lon="10.95612225003086"><ele>214.0</ele><time>2026-04-18T07:30:56Z</time></trkpt><trkpt lat="45.85461776004944" lon="10.955922359386586"><ele>212.66666666666666</ele><time>2026-04-18T07:30:57Z</time></trkpt><trkpt lat="45.85463570554514" lon="10.955697099571006"><ele>211.33333333333331</ele><time>2026-04-18T07:30:58Z</time></trkpt><trkpt lat="45.854643804309966" lon="10.955462447221352"><ele>210.0</ele><time>2026-04-18T07:30:59Z</time></trkpt><trkpt lat="45.85463777343998" lon="10.955242618422085"><ele>210.75</ele><time>2026-04-18T07:31:00Z</time></trkpt><trkpt lat="45.854612827255366" lon="10.955032012239881"><ele>211.5</ele><time>2026-04-18T07:31:01Z</time></trkpt><trkpt lat="45.85458093986493" lon="10.954824325536269"><ele>212.25</ele><time>2026-04-18T07:31:02Z</time></trkpt><trkpt lat="45.85455032921918" lon="10.954615434826826"><ele>213.0</ele><time>2026-04-18T07:31:03Z</time></trkpt><trkpt lat="45.85452097459957" lon="10.954403171780175"><ele>213.66666666666669</ele><time>2026-04-18T07:31:04Z</time></trkpt><trkpt lat="45.85448924856013" lon="10.954189628870743"><ele>214.33333333333334</ele><time>2026-04-18T07:31:05Z</time></trkpt><trkpt lat="45.85445434130044" lon="10.953969355135552"><ele>215.0</ele><time>2026-04-18T07:31:06Z</time></trkpt><trkpt lat="45.854419436212254" lon="10.953746287085087"><ele>215.0</ele><time>2026-04-18T07:31:07Z</time></trkpt><trkpt lat="45.85438568542742" lon="10.95351687137228"><ele>215.0</ele><time>2026-04-18T07:31:08Z</time></trkpt><trkpt lat="45.854353410843025" lon="10.953282490828744"><ele>215.0</ele><time>2026-04-18T07:31:09Z</time></trkpt><trkpt lat="45.854318563053376" lon="10.953043832185038"><ele>217.0</ele><time>2026-04-18T07:31:10Z</time></trkpt><trkpt lat="45.85429422622297" lon="10.952799047197866"><ele>219.0</ele><time>2026-04-18T07:31:11Z</time></trkpt><trkpt lat="45.85429363335182" lon="10.952540608842302"><ele>221.0</ele><time>2026-04-18T07:31:12Z</time></trkpt><trkpt lat="45.85430838971024" lon="10.952273758363273"><ele>221.66666666666669</ele><time>2026-04-18T07:31:13Z</time></trkpt><trkpt lat="45.85433415543428" lon="10.951995848091203"><ele>222.33333333333331</ele><time>2026-04-18T07:31:14Z</time></trkpt><trkpt lat="45.85436804118638" lon="10.951698716259681"><ele>223.0</ele><time>2026-04-18T07:31:15Z</time></trkpt><trkpt lat="45.85440777338529" lon="10.951375400456152"><ele>223.0</ele><time>2026-04-18T07:31:16Z</time></trkpt><trkpt lat="45.85444634504174" lon="10.951018329202086"><ele>223.0</ele><time>2026-04-18T07:31:17Z</time></trkpt><trkpt lat="45.854491124264094" lon="10.950641488824886"><ele>223.5</ele><time>2026-04-18T07:31:18Z</time></trkpt><trkpt lat="45.85453746491772" lon="10.950291421861765"><ele>224.0</ele><time>2026-04-18T07:31:19Z</time></trkpt><trkpt lat="45.85458161394549" lon="10.949978635724056"><ele>227.33333333333334</ele><time>2026-04-18T07:31:20Z</time></trkpt><trkpt lat="45.85461975437397" lon="10.94968341030728"><ele>230.66666666666669</ele><time>2026-04-18T07:31:21Z</time></trkpt><trkpt lat="45.854660088348716" lon="10.949402540771855"><ele>234.0</ele><time>2026-04-18T07:31:22Z</time></trkpt><trkpt lat="45.85469669079185" lon="10.949133441012016"><ele>236.33333333333331</ele><time>2026-04-18T07:31:23Z</time></trkpt><trkpt lat="45.85473009234485" lon="10.948876612833878"><ele>238.66666666666666</ele><time>2026-04-18T07:31:24Z</time></trkpt><trkpt lat="45.854762374263174" lon="10.94862652429617"><ele>241.0</ele><time>2026-04-18T07:31:25Z</time></trkpt><trkpt lat="45.85479194556766" lon="10.948374999377004"><ele>241.33333333333331</ele><time>2026-04-18T07:31:26Z</time></trkpt><trkpt lat="45.85482091481938" lon="10.948128109958109"><ele>241.66666666666669</ele><time>2026-04-18T07:31:27Z</time></trkpt><trkpt lat="45.85485785518145" lon="10.947897157901844"><ele>242.0</ele><time>2026-04-18T07:31:28Z</time></trkpt><trkpt lat="45.85488778384223" lon="10.947655840683199"><ele>240.66666666666669</ele><time>2026-04-18T07:31:29Z</time></trkpt><trkpt lat="45.854917835174014" lon="10.947422020459683"><ele>239.33333333333331</ele><time>2026-04-18T07:31:30Z</time></trkpt><trkpt lat="45.85494426228295" lon="10.947191920932166"><ele>238.0</ele><time>2026-04-18T07:31:31Z</time></trkpt><trkpt lat="45.85496958687564" lon="10.946964123220306"><ele>238.0</ele><time>2026-04-18T07:31:32Z</time></trkpt><trkpt lat="45.85499932465618" lon="10.946736988587967"><ele>238.0</ele><time>2026-04-18T07:31:33Z</time></trkpt><trkpt lat="45.855024499799555" lon="10.946503778750257"><ele>238.0</ele><time>2026-04-18T07:31:34Z</time></trkpt><trkpt lat="45.85504936265431" lon="10.946259462550115"><ele>235.33333333333331</ele><time>2026-04-18T07:31:35Z</time></trkpt><trkpt lat="45.85508185373751" lon="10.946013577532476"><ele>232.66666666666669</ele><time>2026-04-18T07:31:36Z</time></trkpt><trkpt lat="45.8551177566014" lon="10.945760820470985"><ele>230.0</ele><time>2026-04-18T07:31:37Z</time></trkpt><trkpt lat="45.855152538054405" lon="10.945505408220841"><ele>243.0</ele><time>2026-04-18T07:31:38Z</time></trkpt><trkpt lat="45.8551854071691" lon="10.945254647363418"><ele>256.0</ele><time>2026-04-18T07:31:39Z</time></trkpt><trkpt lat="45.85521815745159" lon="10.945009059386088"><ele>269.0</ele><time>2026-04-18T07:31:40Z</time></trkpt><trkpt lat="45.85524528408501" lon="10.944763338576905"><ele>269.0</ele><time>2026-04-18T07:31:41Z</time></trkpt><trkpt lat="45.85527144482824" lon="10.944525318651296"><ele>269.0</ele><time>2026-04-18T07:31:42Z</time></trkpt><trkpt lat="45.85530373754665" lon="10.94429099011165"><ele>269.0</ele><time>2026-04-18T07:31:43Z</time></trkpt><trkpt lat="45.855335889009645" lon="10.944057453661058"><ele>265.33333333333337</ele><time>2026-04-18T07:31:44Z</time></trkpt><trkpt lat="45.85536663422466" lon="10.943819404434636"><ele>261.6666666666667</ele><time>2026-04-18T07:31:45Z</time></trkpt><trkpt lat="45.855394470956675" lon="10.94358039633708"><ele>258.0</ele><time>2026-04-18T07:31:46Z</time></trkpt><trkpt lat="45.855423478990254" lon="10.943341490874026"><ele>256.0</ele><time>2026-04-18T07:31:47Z</time></trkpt><trkpt lat="45.85545139039817" lon="10.943111680913772"><ele>254.0</ele><time>2026-04-18T07:31:48Z</time></trkpt><trkpt lat="45.85547603339322" lon="10.942890843665698"><ele>252.0</ele><time>2026-04-18T07:31:49Z</time></trkpt><trkpt lat="45.85550049975292" lon="10.942666048478863"><ele>251.0</ele><time>2026-04-18T07:31:50Z</time></trkpt><trkpt lat="45.85552025049571" lon="10.94244228117128"><ele>250.0</ele><time>2026-04-18T07:31:51Z</time></trkpt><trkpt lat="45.855531225823945" lon="10.94221899350981"><ele>249.0</ele><time>2026-04-18T07:31:52Z</time></trkpt><trkpt lat="45.85552202734048" lon="10.941993713125655"><ele>249.0</ele><time>2026-04-18T07:31:53Z</time></trkpt><trkpt lat="45.855489873291816" lon="10.9417747284063"><ele>249.0</ele><time>2026-04-18T07:31:54Z</time></trkpt><trkpt lat="45.85544200093611" lon="10.94155594731947"><ele>249.0</ele><time>2026-04-18T07:31:55Z</time></trkpt><trkpt lat="45.855387566119" lon="10.941341903884377"><ele>248.25</ele><time>2026-04-18T07:31:56Z</time></trkpt><trkpt lat="45.85532546994218" lon="10.941137287408926"><ele>247.5</ele><time>2026-04-18T07:31:57Z</time></trkpt><trkpt lat="45.855265470729286" lon="10.940938291359654"><ele>246.75</ele><time>2026-04-18T07:31:58Z</time></trkpt><trkpt lat="45.855212422700994" lon="10.940748675992502"><ele>246.0</ele><time>2026-04-18T07:31:59Z</time></trkpt><trkpt lat="45.85515682958847" lon="10.940560275489204"><ele>239.25</ele><time>2026-04-18T07:32:00Z</time></trkpt><trkpt lat="45.85510559078943" lon="10.940377291737146"><ele>232.5</ele><time>2026-04-18T07:32:01Z</time></trkpt><trkpt lat="45.85505807846576" lon="10.940206954490314"><ele>225.75</ele><time>2026-04-18T07:32:02Z</time></trkpt><trkpt lat="45.855010578590424" lon="10.940044938800494"><ele>219.0</ele><time>2026-04-18T07:32:03Z</time></trkpt><trkpt lat="45.854965469376275" lon="10.939893014708339"><ele>219.0</ele><time>2026-04-18T07:32:04Z</time></trkpt><trkpt lat="45.85492045672692" lon="10.939749065006335"><ele>218.99999999999997</ele><time>2026-04-18T07:32:05Z</time></trkpt><trkpt lat="45.854881730211424" lon="10.939613122168824"><ele>218.99999999999997</ele><time>2026-04-18T07:32:06Z</time></trkpt><trkpt lat="45.854842780942896" lon="10.939483209631236"><ele>219.0</ele><time>2026-04-18T07:32:07Z</time></trkpt><trkpt lat="45.8548052417705" lon="10.939358796051994"><ele>219.0</ele><time>2026-04-18T07:32:08Z</time></trkpt><trkpt lat="45.8547719685972" lon="10.939240892063928"><ele>218.83333333333334</ele><time>2026-04-18T07:32:09Z</time></trkpt><trkpt lat="45.854742886994444" lon="10.939133971010028"><ele>218.66666666666669</ele><time>2026-04-18T07:32:10Z</time></trkpt><trkpt lat="45.85471383135691" lon="10.939034993111264"><ele>218.5</ele><time>2026-04-18T07:32:11Z</time></trkpt><trkpt lat="45.854684155024316" lon="10.938938765198792"><ele>218.33333333333334</ele><time>2026-04-18T07:32:12Z</time></trkpt><trkpt lat="45.8546526352676" lon="10.938838526787254"><ele>218.16666666666669</ele><time>2026-04-18T07:32:13Z</time></trkpt><trkpt lat="45.854616991281" lon="10.938725900547063"><ele>218.0</ele><time>2026-04-18T07:32:14Z</time></trkpt><trkpt lat="45.85457829352631" lon="10.938608754851156"><ele>218.00000000000003</ele><time>2026-04-18T07:32:15Z</time></trkpt><trkpt lat="45.85454962503535" lon="10.938486532406573"><ele>218.0</ele><time>2026-04-18T07:32:16Z</time></trkpt><trkpt lat="45.854520452424865" lon="10.938374764447925"><ele>218.0</ele><time>2026-04-18T07:32:17Z</time></trkpt><trkpt lat="45.85448838986683" lon="10.938267601381884"><ele>218.0</ele><time>2026-04-18T07:32:18Z</time></trkpt><trkpt lat="45.85445958266119" lon="10.9381574068357"><ele>218.00000000000003</ele><time>2026-04-18T07:32:19Z</time></trkpt><trkpt lat="45.854425774173656" lon="10.938043773463814"><ele>218.0</ele><time>2026-04-18T07:32:20Z</time></trkpt><trkpt lat="45.854390129506086" lon="10.93792609498376"><ele>218.00000000000003</ele><time>2026-04-18T07:32:21Z</time></trkpt><trkpt lat="45.85435742753416" lon="10.937807966162117"><ele>218.0</ele><time>2026-04-18T07:32:22Z</time></trkpt><trkpt lat="45.85432752662096" lon="10.937698595727483"><ele>218.0</ele><time>2026-04-18T07:32:23Z</time></trkpt><trkpt lat="45.854294920536226" lon="10.937595113017949"><ele>218.0</ele><time>2026-04-18T07:32:24Z</time></trkpt><trkpt lat="45.85426496385204" lon="10.937498257310885"><ele>218.00000000000003</ele><time>2026-04-18T07:32:25Z</time></trkpt><trkpt lat="45.85424281646656" lon="10.937400820416334"><ele>218.0</ele><time>2026-04-18T07:32:26Z</time></trkpt><trkpt lat="45.85422644045392" lon="10.937305724224737"><ele>218.00000000000003</ele><time>2026-04-18T07:32:27Z</time></trkpt><trkpt lat="45.85421082737457" lon="10.937213034066692"><ele>218.0</ele><time>2026-04-18T07:32:28Z</time></trkpt><trkpt lat="45.854188567386146" lon="10.937070962887878"><ele>218.0</ele><time>2026-04-18T07:32:30Z</time></trkpt><trkpt lat="45.854173435564604" lon="10.936956786312548"><ele>218.0</ele><time>2026-04-18T07:32:33Z</time></trkpt><trkpt lat="45.8541644824187" lon="10.936843390228828"><ele>218.00000000000003</ele><time>2026-04-18T07:32:35Z</time></trkpt><trkpt lat="45.85415860430866" lon="10.93670096546387"><ele>218.0</ele><time>2026-04-18T07:32:37Z</time></trkpt><trkpt lat="45.85415506803706" lon="10.936559092589349"><ele>218.33333333333334</ele><time>2026-04-18T07:32:39Z</time></trkpt><trkpt lat="45.85417600536205" lon="10.936429892997191"><ele>218.66666666666669</ele><time>2026-04-18T07:32:41Z</time></trkpt><trkpt lat="45.85417338960312" lon="10.936294590583541"><ele>219.0</ele><time>2026-04-18T07:32:43Z</time></trkpt><trkpt lat="45.85420315381065" lon="10.936195663274017"><ele>219.33333333333331</ele><time>2026-04-18T07:32:45Z</time></trkpt><trkpt lat="45.85422110275785" lon="10.936079815096283"><ele>219.66666666666666</ele><time>2026-04-18T07:32:47Z</time></trkpt><trkpt lat="45.8542448484946" lon="10.935938851982089"><ele>220.0</ele><time>2026-04-18T07:32:49Z</time></trkpt><trkpt lat="45.85426857321411" lon="10.935792366788789"><ele>220.6</ele><time>2026-04-18T07:32:51Z</time></trkpt><trkpt lat="45.85430527757636" lon="10.935618667029189"><ele>221.2</ele><time>2026-04-18T07:32:53Z</time></trkpt><trkpt lat="45.85435057553781" lon="10.935453283941818"><ele>221.8</ele><time>2026-04-18T07:32:55Z</time></trkpt><trkpt lat="45.854369324764995" lon="10.935365097627113"><ele>222.4</ele><time>2026-04-18T07:32:56Z</time></trkpt><trkpt lat="45.85440110164402" lon="10.935202005590819"><ele>223.0</ele><time>2026-04-18T07:32:58Z</time></trkpt><trkpt lat="45.8544317892629" lon="10.935054898092558"><ele>224.0</ele><time>2026-04-18T07:33:00Z</time></trkpt><trkpt lat="45.85446827466281" lon="10.934898804617145"><ele>225.0</ele><time>2026-04-18T07:33:02Z</time></trkpt><trkpt lat="45.85450432933082" lon="10.934707092065002"><ele>226.0</ele><time>2026-04-18T07:33:04Z</time></trkpt><trkpt lat="45.854529044495116" lon="10.934588473137866"><ele>227.0</ele><time>2026-04-18T07:33:05Z</time></trkpt><trkpt lat="45.85455757643337" lon="10.934464026772423"><ele>228.0</ele><time>2026-04-18T07:33:06Z</time></trkpt><trkpt lat="45.85458471488876" lon="10.934349815674194"><ele>228.0</ele><time>2026-04-18T07:33:07Z</time></trkpt><trkpt lat="45.85461281729349" lon="10.93422912161321"><ele>228.0</ele><time>2026-04-18T07:33:08Z</time></trkpt><trkpt lat="45.85464038132354" lon="10.934095593272156"><ele>228.0</ele><time>2026-04-18T07:33:09Z</time></trkpt><trkpt lat="45.85467070939823" lon="10.93395258665701"><ele>228.0</ele><time>2026-04-18T07:33:10Z</time></trkpt><trkpt lat="45.85470331302276" lon="10.933810738999"><ele>228.0</ele><time>2026-04-18T07:33:11Z</time></trkpt><trkpt lat="45.85473341370421" lon="10.933681536481492"><ele>228.0</ele><time>2026-04-18T07:33:12Z</time></trkpt><trkpt lat="45.85476157990185" lon="10.933552978564856"><ele>228.0</ele><time>2026-04-18T07:33:13Z</time></trkpt><trkpt lat="45.854787946268516" lon="10.933423428010615"><ele>228.0</ele><time>2026-04-18T07:33:14Z</time></trkpt><trkpt lat="45.85483356521431" lon="10.933297796711635"><ele>228.0</ele><time>2026-04-18T07:33:15Z</time></trkpt><trkpt lat="45.854847886536334" lon="10.933167954977744"><ele>228.0</ele><time>2026-04-18T07:33:16Z</time></trkpt><trkpt lat="45.85487309358125" lon="10.933053567639451"><ele>228.0</ele><time>2026-04-18T07:33:17Z</time></trkpt><trkpt lat="45.85491005695314" lon="10.93295645467977"><ele>228.0</ele><time>2026-04-18T07:33:18Z</time></trkpt><trkpt lat="45.85493351334517" lon="10.932857826575708"><ele>228.0</ele><time>2026-04-18T07:33:19Z</time></trkpt><trkpt lat="45.85495815955473" lon="10.932761206780262"><ele>228.0</ele><time>2026-04-18T07:33:20Z</time></trkpt><trkpt lat="45.85498152098361" lon="10.93266527513294"><ele>228.0</ele><time>2026-04-18T07:33:21Z</time></trkpt><trkpt lat="45.85501540858652" lon="10.932519988627039"><ele>228.0</ele><time>2026-04-18T07:33:23Z</time></trkpt><trkpt lat="45.85503787737822" lon="10.93242464805368"><ele>228.0</ele><time>2026-04-18T07:33:25Z</time></trkpt><trkpt lat="45.85507434750923" lon="10.932339788075767"><ele>228.0</ele><time>2026-04-18T07:33:27Z</time></trkpt><trkpt lat="45.85514114518185" lon="10.932210267134908"><ele>228.0</ele><time>2026-04-18T07:33:29Z</time></trkpt><trkpt lat="45.855220936042" lon="10.932115271425138"><ele>228.0</ele><time>2026-04-18T07:33:31Z</time></trkpt><trkpt lat="45.855287436120186" lon="10.932001155997737"><ele>228.0</ele><time>2026-04-18T07:33:33Z</time></trkpt><trkpt lat="45.85530243519181" lon="10.931843437006398"><ele>228.33333333333334</ele><time>2026-04-18T07:33:35Z</time></trkpt><trkpt lat="45.855260515985094" lon="10.931681975624786"><ele>228.66666666666669</ele><time>2026-04-18T07:33:37Z</time></trkpt><trkpt lat="45.85525035366393" lon="10.931579933099005"><ele>229.0</ele><time>2026-04-18T07:33:38Z</time></trkpt><trkpt lat="45.85525181592531" lon="10.931465190118075"><ele>229.33333333333334</ele><time>2026-04-18T07:33:39Z</time></trkpt><trkpt lat="45.85527212662143" lon="10.931360048484596"><ele>229.66666666666669</ele><time>2026-04-18T07:33:40Z</time></trkpt><trkpt lat="45.85529587481443" lon="10.931250677464824"><ele>230.0</ele><time>2026-04-18T07:33:41Z</time></trkpt><trkpt lat="45.85532156797653" lon="10.931130652421922"><ele>230.0</ele><time>2026-04-18T07:33:42Z</time></trkpt><trkpt lat="45.855350645250624" lon="10.930996263929737"><ele>230.0</ele><time>2026-04-18T07:33:43Z</time></trkpt><trkpt lat="45.85538689755538" lon="10.930851677734342"><ele>230.0</ele><time>2026-04-18T07:33:44Z</time></trkpt><trkpt lat="45.85540895577477" lon="10.93068459149559"><ele>230.0</ele><time>2026-04-18T07:33:45Z</time></trkpt><trkpt lat="45.85544783066063" lon="10.93051608150248"><ele>230.0</ele><time>2026-04-18T07:33:46Z</time></trkpt><trkpt lat="45.85548905944811" lon="10.930355479599495"><ele>230.0</ele><time>2026-04-18T07:33:47Z</time></trkpt><trkpt lat="45.855530754139394" lon="10.93019605977862"><ele>230.0</ele><time>2026-04-18T07:33:48Z</time></trkpt><trkpt lat="45.85557212672231" lon="10.930028424444213"><ele>230.0</ele><time>2026-04-18T07:33:49Z</time></trkpt><trkpt lat="45.85561100557706" lon="10.9298491932431"><ele>230.0</ele><time>2026-04-18T07:33:50Z</time></trkpt><trkpt lat="45.85565175305936" lon="10.929670044440629"><ele>229.0</ele><time>2026-04-18T07:33:51Z</time></trkpt><trkpt lat="45.85569264504043" lon="10.929488778162414"><ele>228.0</ele><time>2026-04-18T07:33:52Z</time></trkpt><trkpt lat="45.85573558723611" lon="10.929313404700556"><ele>227.0</ele><time>2026-04-18T07:33:53Z</time></trkpt><trkpt lat="45.855777285138714" lon="10.929132226390438"><ele>226.0</ele><time>2026-04-18T07:33:54Z</time></trkpt><trkpt lat="45.855817331204726" lon="10.928945324517846"><ele>226.0</ele><time>2026-04-18T07:33:55Z</time></trkpt><trkpt lat="45.855861600094514" lon="10.928757471773565"><ele>226.0</ele><time>2026-04-18T07:33:56Z</time></trkpt><trkpt lat="45.8559065750857" lon="10.928576576798362"><ele>226.0</ele><time>2026-04-18T07:33:57Z</time></trkpt><trkpt lat="45.85594365864077" lon="10.928398928973087"><ele>226.0</ele><time>2026-04-18T07:33:58Z</time></trkpt><trkpt lat="45.85597774026796" lon="10.928221354217916"><ele>227.5</ele><time>2026-04-18T07:33:59Z</time></trkpt><trkpt lat="45.85601563274889" lon="10.928035430263684"><ele>229.0</ele><time>2026-04-18T07:34:00Z</time></trkpt><trkpt lat="45.85605470316282" lon="10.927846711209082"><ele>230.5</ele><time>2026-04-18T07:34:01Z</time></trkpt><trkpt lat="45.85609714619719" lon="10.92765971916098"><ele>232.0</ele><time>2026-04-18T07:34:02Z</time></trkpt><trkpt lat="45.85613899757492" lon="10.92747330651323"><ele>232.0</ele><time>2026-04-18T07:34:03Z</time></trkpt><trkpt lat="45.85617990615976" lon="10.927283037502084"><ele>232.0</ele><time>2026-04-18T07:34:04Z</time></trkpt><trkpt lat="45.85622373301531" lon="10.927083899382291"><ele>232.0</ele><time>2026-04-18T07:34:05Z</time></trkpt><trkpt lat="45.856272916736835" lon="10.926878611031464"><ele>232.0</ele><time>2026-04-18T07:34:06Z</time></trkpt><trkpt lat="45.85632398928986" lon="10.92666472881351"><ele>230.33333333333331</ele><time>2026-04-18T07:34:07Z</time></trkpt><trkpt lat="45.85637414831159" lon="10.926441161821463"><ele>228.66666666666669</ele><time>2026-04-18T07:34:08Z</time></trkpt><trkpt lat="45.85642757699155" lon="10.926215849514868"><ele>227.0</ele><time>2026-04-18T07:34:09Z</time></trkpt><trkpt lat="45.85648130863915" lon="10.925991919526584"><ele>225.0</ele><time>2026-04-18T07:34:10Z</time></trkpt><trkpt lat="45.85653198631635" lon="10.925770633115166"><ele>223.0</ele><time>2026-04-18T07:34:11Z</time></trkpt><trkpt lat="45.85658338632681" lon="10.925553613286715"><ele>221.0</ele><time>2026-04-18T07:34:12Z</time></trkpt><trkpt lat="45.85663299614007" lon="10.925328830072273"><ele>221.0</ele><time>2026-04-18T07:34:13Z</time></trkpt><trkpt lat="45.85668029978175" lon="10.925091481119821"><ele>221.0</ele><time>2026-04-18T07:34:14Z</time></trkpt><trkpt lat="45.85674560043002" lon="10.9248623064144"><ele>221.0</ele><time>2026-04-18T07:34:15Z</time></trkpt><trkpt lat="45.85679833559253" lon="10.924628439188584"><ele>221.33333333333334</ele><time>2026-04-18T07:34:16Z</time></trkpt><trkpt lat="45.85684965156936" lon="10.924400865589213"><ele>221.66666666666669</ele><time>2026-04-18T07:34:17Z</time></trkpt><trkpt lat="45.85690121215905" lon="10.924172207238543"><ele>222.0</ele><time>2026-04-18T07:34:18Z</time></trkpt><trkpt lat="45.85695292550877" lon="10.92394287141244"><ele>222.0</ele><time>2026-04-18T07:34:19Z</time></trkpt><trkpt lat="45.857004041326825" lon="10.923716858758379"><ele>222.0</ele><time>2026-04-18T07:34:20Z</time></trkpt><trkpt lat="45.85703997657563" lon="10.923489362643506"><ele>222.0</ele><time>2026-04-18T07:34:21Z</time></trkpt><trkpt lat="45.85709089530294" lon="10.923281652856158"><ele>222.0</ele><time>2026-04-18T07:34:22Z</time></trkpt><trkpt lat="45.85713871413789" lon="10.923066943036776"><ele>222.0</ele><time>2026-04-18T07:34:23Z</time></trkpt><trkpt lat="45.85718501835031" lon="10.922847945936114"><ele>222.0</ele><time>2026-04-18T07:34:24Z</time></trkpt><trkpt lat="45.85724846451378" lon="10.922643866035532"><ele>222.25</ele><time>2026-04-18T07:34:25Z</time></trkpt><trkpt lat="45.85727816752639" lon="10.922443320816582"><ele>222.5</ele><time>2026-04-18T07:34:26Z</time></trkpt><trkpt lat="45.857321495441816" lon="10.922248764662266"><ele>222.75</ele><time>2026-04-18T07:34:27Z</time></trkpt><trkpt lat="45.857363026567214" lon="10.9220649810519"><ele>223.0</ele><time>2026-04-18T07:34:28Z</time></trkpt><trkpt lat="45.857418365860646" lon="10.921896790796309"><ele>223.25</ele><time>2026-04-18T07:34:29Z</time></trkpt><trkpt lat="45.85744145748694" lon="10.921718504763824"><ele>223.5</ele><time>2026-04-18T07:34:30Z</time></trkpt><trkpt lat="45.85748617369943" lon="10.92154943031887"><ele>223.75</ele><time>2026-04-18T07:34:31Z</time></trkpt><trkpt lat="45.857534047892294" lon="10.92137329909934"><ele>224.0</ele><time>2026-04-18T07:34:32Z</time></trkpt><trkpt lat="45.8575938403147" lon="10.92118711802777"><ele>222.66666666666669</ele><time>2026-04-18T07:34:33Z</time></trkpt><trkpt lat="45.85767684958343" lon="10.92099650658278"><ele>221.33333333333331</ele><time>2026-04-18T07:34:34Z</time></trkpt><trkpt lat="45.857774175762856" lon="10.920813767997405"><ele>220.0</ele><time>2026-04-18T07:34:35Z</time></trkpt><trkpt lat="45.857884216779354" lon="10.92065698051435"><ele>220.0</ele><time>2026-04-18T07:34:36Z</time></trkpt><trkpt lat="45.85799547283138" lon="10.92052073847013"><ele>220.0</ele><time>2026-04-18T07:34:37Z</time></trkpt><trkpt lat="45.85812022420378" lon="10.92039357144731"><ele>220.0</ele><time>2026-04-18T07:34:38Z</time></trkpt><trkpt lat="45.85826317239181" lon="10.920274162573566"><ele>220.0</ele><time>2026-04-18T07:34:39Z</time></trkpt><trkpt lat="45.85840857609543" lon="10.920155410969594"><ele>220.0</ele><time>2026-04-18T07:34:40Z</time></trkpt><trkpt lat="45.85857035192272" lon="10.92004688183186"><ele>220.0</ele><time>2026-04-18T07:34:41Z</time></trkpt><trkpt lat="45.858724098729425" lon="10.919915838883071"><ele>222.0</ele><time>2026-04-18T07:34:42Z</time></trkpt><trkpt lat="45.85886819421932" lon="10.919768735309725"><ele>224.0</ele><time>2026-04-18T07:34:43Z</time></trkpt><trkpt lat="45.85902475442977" lon="10.91966018040836"><ele>226.0</ele><time>2026-04-18T07:34:44Z</time></trkpt><trkpt lat="45.859182629579905" lon="10.919526085147417"><ele>226.0</ele><time>2026-04-18T07:34:45Z</time></trkpt><trkpt lat="45.85935930153535" lon="10.919376024380758"><ele>226.0</ele><time>2026-04-18T07:34:46Z</time></trkpt><trkpt lat="45.859556995518204" lon="10.919207440601244"><ele>226.0</ele><time>2026-04-18T07:34:47Z</time></trkpt><trkpt lat="45.859763824563196" lon="10.919030569433682"><ele>226.0</ele><time>2026-04-18T07:34:48Z</time></trkpt><trkpt lat="45.85998035294068" lon="10.918848092801891"><ele>226.0</ele><time>2026-04-18T07:34:49Z</time></trkpt><trkpt lat="45.86018929873114" lon="10.918647894085572"><ele>227.0</ele><time>2026-04-18T07:34:50Z</time></trkpt><trkpt lat="45.86042726646784" lon="10.91846979789086"><ele>228.0</ele><time>2026-04-18T07:34:51Z</time></trkpt><trkpt lat="45.86066971288727" lon="10.918263108887665"><ele>228.0</ele><time>2026-04-18T07:34:52Z</time></trkpt><trkpt lat="45.86089547348923" lon="10.918071079013181"><ele>228.0</ele><time>2026-04-18T07:34:53Z</time></trkpt><trkpt lat="45.86111265030398" lon="10.917886350371441"><ele>229.0</ele><time>2026-04-18T07:34:54Z</time></trkpt><trkpt lat="45.86131967441928" lon="10.917710257532551"><ele>230.0</ele><time>2026-04-18T07:34:55Z</time></trkpt><trkpt lat="45.86151857717817" lon="10.917527649724198"><ele>230.0</ele><time>2026-04-18T07:34:56Z</time></trkpt><trkpt lat="45.86172391572321" lon="10.917393720781446"><ele>230.0</ele><time>2026-04-18T07:34:57Z</time></trkpt><trkpt lat="45.8619312344568" lon="10.917284240133618"><ele>230.0</ele><time>2026-04-18T07:34:58Z</time></trkpt><trkpt lat="45.86214153524408" lon="10.917188679529716"><ele>225.66666666666669</ele><time>2026-04-18T07:34:59Z</time></trkpt><trkpt lat="45.86235053636766" lon="10.917112080114055"><ele>221.33333333333331</ele><time>2026-04-18T07:35:00Z</time></trkpt><trkpt lat="45.86255975651428" lon="10.917044730149197"><ele>217.0</ele><time>2026-04-18T07:35:01Z</time></trkpt><trkpt lat="45.862756053743404" lon="10.916988852520758"><ele>216.66666666666666</ele><time>2026-04-18T07:35:02Z</time></trkpt><trkpt lat="45.862947265659535" lon="10.916934664691697"><ele>216.33333333333331</ele><time>2026-04-18T07:35:03Z</time></trkpt><trkpt lat="45.86313052794915" lon="10.916880158747016"><ele>216.0</ele><time>2026-04-18T07:35:04Z</time></trkpt><trkpt lat="45.86330899737275" lon="10.91682617095155"><ele>218.66666666666669</ele><time>2026-04-18T07:35:05Z</time></trkpt><trkpt lat="45.863484527549936" lon="10.916775872252565"><ele>221.33333333333334</ele><time>2026-04-18T07:35:06Z</time></trkpt><trkpt lat="45.863647063493964" lon="10.916728111881948"><ele>224.0</ele><time>2026-04-18T07:35:07Z</time></trkpt><trkpt lat="45.863803410384094" lon="10.916678893926644"><ele>228.0</ele><time>2026-04-18T07:35:08Z</time></trkpt><trkpt lat="45.86395481998182" lon="10.916627502962635"><ele>232.0</ele><time>2026-04-18T07:35:09Z</time></trkpt><trkpt lat="45.86410553528804" lon="10.916566912133513"><ele>236.0</ele><time>2026-04-18T07:35:10Z</time></trkpt><trkpt lat="45.86425406823731" lon="10.916488331016518"><ele>235.66666666666669</ele><time>2026-04-18T07:35:11Z</time></trkpt><trkpt lat="45.86439407449994" lon="10.916380084386159"><ele>235.33333333333331</ele><time>2026-04-18T07:35:12Z</time></trkpt><trkpt lat="45.86452376976286" lon="10.916263077531092"><ele>235.0</ele><time>2026-04-18T07:35:13Z</time></trkpt><trkpt lat="45.86466671844335" lon="10.916150945587653"><ele>235.0</ele><time>2026-04-18T07:35:14Z</time></trkpt><trkpt lat="45.86478694325858" lon="10.916021390689824"><ele>235.0</ele><time>2026-04-18T07:35:15Z</time></trkpt><trkpt lat="45.86491705977436" lon="10.915866106179426"><ele>235.0</ele><time>2026-04-18T07:35:16Z</time></trkpt><trkpt lat="45.8650702866991" lon="10.915738526552085"><ele>230.0</ele><time>2026-04-18T07:35:17Z</time></trkpt><trkpt lat="45.865226832607185" lon="10.915578015624622"><ele>225.0</ele><time>2026-04-18T07:35:18Z</time></trkpt><trkpt lat="45.86539646488779" lon="10.915404086876963"><ele>220.0</ele><time>2026-04-18T07:35:19Z</time></trkpt><trkpt lat="45.86557197233565" lon="10.915225666157848"><ele>220.0</ele><time>2026-04-18T07:35:20Z</time></trkpt><trkpt lat="45.86575046542969" lon="10.915071783516906"><ele>220.0</ele><time>2026-04-18T07:35:21Z</time></trkpt><trkpt lat="45.8659356286334" lon="10.914954160117896"><ele>220.0</ele><time>2026-04-18T07:35:22Z</time></trkpt><trkpt lat="45.86612943830503" lon="10.914847053208778"><ele>222.66666666666666</ele><time>2026-04-18T07:35:23Z</time></trkpt><trkpt lat="45.86632873676763" lon="10.914787621171424"><ele>225.33333333333331</ele><time>2026-04-18T07:35:24Z</time></trkpt><trkpt lat="45.866524261506086" lon="10.914755967251475"><ele>228.0</ele><time>2026-04-18T07:35:25Z</time></trkpt><trkpt lat="45.86670608906283" lon="10.91474809212784"><ele>227.0</ele><time>2026-04-18T07:35:26Z</time></trkpt><trkpt lat="45.866882545969396" lon="10.914741463171634"><ele>226.0</ele><time>2026-04-18T07:35:27Z</time></trkpt><trkpt lat="45.86705042137882" lon="10.91472891117049"><ele>225.0</ele><time>2026-04-18T07:35:28Z</time></trkpt><trkpt lat="45.867201038499296" lon="10.914711013489278"><ele>225.0</ele><time>2026-04-18T07:35:29Z</time></trkpt><trkpt lat="45.86733907345428" lon="10.914698547277567"><ele>225.0</ele><time>2026-04-18T07:35:30Z</time></trkpt><trkpt lat="45.86747039176615" lon="10.914687652154488"><ele>225.0</ele><time>2026-04-18T07:35:31Z</time></trkpt><trkpt lat="45.8675972726045" lon="10.914679953662093"><ele>225.0</ele><time>2026-04-18T07:35:32Z</time></trkpt><trkpt lat="45.86771556187438" lon="10.914644755918143"><ele>224.25</ele><time>2026-04-18T07:35:33Z</time></trkpt><trkpt lat="45.86782252185624" lon="10.914571127213609"><ele>223.5</ele><time>2026-04-18T07:35:34Z</time></trkpt><trkpt lat="45.86791414558575" lon="10.914457074155234"><ele>222.75</ele><time>2026-04-18T07:35:35Z</time></trkpt><trkpt lat="45.867984583936575" lon="10.914314270771381"><ele>222.0</ele><time>2026-04-18T07:35:36Z</time></trkpt><trkpt lat="45.868033057320545" lon="10.914149144719193"><ele>222.0</ele><time>2026-04-18T07:35:37Z</time></trkpt><trkpt lat="45.86805419697327" lon="10.913970922966458"><ele>222.0</ele><time>2026-04-18T07:35:38Z</time></trkpt><trkpt lat="45.86807191598863" lon="10.913791187663907"><ele>222.0</ele><time>2026-04-18T07:35:39Z</time></trkpt><trkpt lat="45.86808853662917" lon="10.913607438069246"><ele>222.0</ele><time>2026-04-18T07:35:40Z</time></trkpt><trkpt lat="45.86811660143112" lon="10.91343329316496"><ele>224.25</ele><time>2026-04-18T07:35:41Z</time></trkpt><trkpt lat="45.868148263427315" lon="10.913254414476974"><ele>226.5</ele><time>2026-04-18T07:35:42Z</time></trkpt><trkpt lat="45.86818888463777" lon="10.913058891952536"><ele>228.75</ele><time>2026-04-18T07:35:43Z</time></trkpt><trkpt lat="45.86824762833979" lon="10.912856569090996"><ele>231.0</ele><time>2026-04-18T07:35:44Z</time></trkpt><trkpt lat="45.86832817645749" lon="10.912657933018572"><ele>227.33333333333331</ele><time>2026-04-18T07:35:45Z</time></trkpt><trkpt lat="45.86842097855631" lon="10.912466211549408"><ele>223.66666666666666</ele><time>2026-04-18T07:35:46Z</time></trkpt><trkpt lat="45.86851606922866" lon="10.912284647234857"><ele>220.0</ele><time>2026-04-18T07:35:47Z</time></trkpt><trkpt lat="45.86860181610838" lon="10.912110045065022"><ele>220.0</ele><time>2026-04-18T07:35:48Z</time></trkpt><trkpt lat="45.86868042271884" lon="10.911939539157343"><ele>220.0</ele><time>2026-04-18T07:35:49Z</time></trkpt><trkpt lat="45.868757568834596" lon="10.911777434263751"><ele>220.0</ele><time>2026-04-18T07:35:50Z</time></trkpt><trkpt lat="45.868829019058616" lon="10.91161995381521"><ele>220.0</ele><time>2026-04-18T07:35:51Z</time></trkpt><trkpt lat="45.86888724299479" lon="10.911444991840874"><ele>221.25</ele><time>2026-04-18T07:35:52Z</time></trkpt><trkpt lat="45.86892737676234" lon="10.911252058349492"><ele>222.5</ele><time>2026-04-18T07:35:53Z</time></trkpt><trkpt lat="45.868945782675745" lon="10.911052114708625"><ele>223.75</ele><time>2026-04-18T07:35:54Z</time></trkpt><trkpt lat="45.868937969405806" lon="10.910845626474012"><ele>225.0</ele><time>2026-04-18T07:35:55Z</time></trkpt><trkpt lat="45.868903920679585" lon="10.910646375776322"><ele>225.5</ele><time>2026-04-18T07:35:56Z</time></trkpt><trkpt lat="45.868846408064506" lon="10.910454208233798"><ele>226.0</ele><time>2026-04-18T07:35:57Z</time></trkpt><trkpt lat="45.86877611260008" lon="10.91027607724928"><ele>226.5</ele><time>2026-04-18T07:35:58Z</time></trkpt><trkpt lat="45.86870612145625" lon="10.910103871511195"><ele>227.0</ele><time>2026-04-18T07:35:59Z</time></trkpt><trkpt lat="45.86863677356012" lon="10.909919100583199"><ele>227.0</ele><time>2026-04-18T07:36:00Z</time></trkpt><trkpt lat="45.868557188302844" lon="10.90971338817406"><ele>227.0</ele><time>2026-04-18T07:36:01Z</time></trkpt><trkpt lat="45.86848431116611" lon="10.909487498704552"><ele>227.0</ele><time>2026-04-18T07:36:02Z</time></trkpt><trkpt lat="45.86841715421009" lon="10.909276331326652"><ele>232.0</ele><time>2026-04-18T07:36:03Z</time></trkpt><trkpt lat="45.8683614042118" lon="10.90907856437885"><ele>237.0</ele><time>2026-04-18T07:36:04Z</time></trkpt><trkpt lat="45.868316885924756" lon="10.908884712047296"><ele>242.0</ele><time>2026-04-18T07:36:05Z</time></trkpt><trkpt lat="45.86828763185172" lon="10.908696656745656"><ele>247.0</ele><time>2026-04-18T07:36:06Z</time></trkpt><trkpt lat="45.868267520002824" lon="10.908508916615475"><ele>246.0</ele><time>2026-04-18T07:36:07Z</time></trkpt><trkpt lat="45.86825049373382" lon="10.908332215372772"><ele>245.0</ele><time>2026-04-18T07:36:08Z</time></trkpt><trkpt lat="45.868234122191566" lon="10.90817666212887"><ele>244.0</ele><time>2026-04-18T07:36:09Z</time></trkpt><trkpt lat="45.8682173911568" lon="10.908026067088613"><ele>243.0</ele><time>2026-04-18T07:36:10Z</time></trkpt><trkpt lat="45.86819897373521" lon="10.907875553934467"><ele>242.0</ele><time>2026-04-18T07:36:11Z</time></trkpt><trkpt lat="45.86818665757048" lon="10.90772366072661"><ele>242.8</ele><time>2026-04-18T07:36:12Z</time></trkpt><trkpt lat="45.868194431799665" lon="10.907567813016422"><ele>243.6</ele><time>2026-04-18T07:36:13Z</time></trkpt><trkpt lat="45.86822327111965" lon="10.907421409008958"><ele>244.40000000000003</ele><time>2026-04-18T07:36:14Z</time></trkpt><trkpt lat="45.868263981267496" lon="10.907293467553432"><ele>245.20000000000002</ele><time>2026-04-18T07:36:15Z</time></trkpt><trkpt lat="45.86831850423008" lon="10.907179607009493"><ele>246.0</ele><time>2026-04-18T07:36:16Z</time></trkpt><trkpt lat="45.86838810743154" lon="10.907080659971287"><ele>246.0</ele><time>2026-04-18T07:36:17Z</time></trkpt><trkpt lat="45.86846448829909" lon="10.907008387992226"><ele>246.0</ele><time>2026-04-18T07:36:18Z</time></trkpt><trkpt lat="45.868541661601505" lon="10.906953153222428"><ele>246.0</ele><time>2026-04-18T07:36:19Z</time></trkpt><trkpt lat="45.868615858802" lon="10.90691504027364"><ele>246.0</ele><time>2026-04-18T07:36:20Z</time></trkpt><trkpt lat="45.8686912836096" lon="10.906906827094964"><ele>246.0</ele><time>2026-04-18T07:36:21Z</time></trkpt><trkpt lat="45.86877070965143" lon="10.906912000797917"><ele>246.0</ele><time>2026-04-18T07:36:22Z</time></trkpt><trkpt lat="45.86885675268666" lon="10.906927024237282"><ele>246.0</ele><time>2026-04-18T07:36:23Z</time></trkpt><trkpt lat="45.868942929402536" lon="10.906968213340061"><ele>246.00000000000003</ele><time>2026-04-18T07:36:24Z</time></trkpt><trkpt lat="45.86902649145158" lon="10.907035812587399"><ele>246.00000000000003</ele><time>2026-04-18T07:36:25Z</time></trkpt><trkpt lat="45.86910831766089" lon="10.907110496272843"><ele>246.0</ele><time>2026-04-18T07:36:26Z</time></trkpt><trkpt lat="45.869190298446455" lon="10.907180879480647"><ele>246.0</ele><time>2026-04-18T07:36:27Z</time></trkpt><trkpt lat="45.869277031773045" lon="10.907262477893655"><ele>245.60000000000002</ele><time>2026-04-18T07:36:28Z</time></trkpt><trkpt lat="45.86936683546786" lon="10.907350535582458"><ele>245.20000000000002</ele><time>2026-04-18T07:36:29Z</time></trkpt><trkpt lat="45.869458621237925" lon="10.907438445247216"><ele>244.79999999999998</ele><time>2026-04-18T07:36:30Z</time></trkpt><trkpt lat="45.86954665192884" lon="10.907518947772683"><ele>244.39999999999998</ele><time>2026-04-18T07:36:31Z</time></trkpt><trkpt lat="45.86963970761443" lon="10.907591523721422"><ele>244.0</ele><time>2026-04-18T07:36:32Z</time></trkpt><trkpt lat="45.8697681926304" lon="10.907644210353189"><ele>244.0</ele><time>2026-04-18T07:36:33Z</time></trkpt><trkpt lat="45.86990687713881" lon="10.907711347166668"><ele>244.0</ele><time>2026-04-18T07:36:34Z</time></trkpt><trkpt lat="45.87007584116184" lon="10.907733255822379"><ele>244.0</ele><time>2026-04-18T07:36:35Z</time></trkpt><trkpt lat="45.87022361246153" lon="10.907784536128602"><ele>245.25</ele><time>2026-04-18T07:36:36Z</time></trkpt><trkpt lat="45.87036931594344" lon="10.907826697690908"><ele>246.5</ele><time>2026-04-18T07:36:37Z</time></trkpt><trkpt lat="45.8705075500927" lon="10.90786071924251"><ele>247.75</ele><time>2026-04-18T07:36:38Z</time></trkpt><trkpt lat="45.87063485398761" lon="10.907889643877157"><ele>249.0</ele><time>2026-04-18T07:36:39Z</time></trkpt><trkpt lat="45.8707484958792" lon="10.907916761499495"><ele>249.0</ele><time>2026-04-18T07:36:40Z</time></trkpt><trkpt lat="45.87085504905023" lon="10.907935662514086"><ele>248.99999999999997</ele><time>2026-04-18T07:36:41Z</time></trkpt><trkpt lat="45.870960318298295" lon="10.907948924696408"><ele>248.99999999999997</ele><time>2026-04-18T07:36:42Z</time></trkpt><trkpt lat="45.87106800357362" lon="10.907956739467494"><ele>249.0</ele><time>2026-04-18T07:36:43Z</time></trkpt><trkpt lat="45.87118278167119" lon="10.907957906012562"><ele>249.0</ele><time>2026-04-18T07:36:44Z</time></trkpt><trkpt lat="45.87130242053286" lon="10.90794279366576"><ele>249.75</ele><time>2026-04-18T07:36:45Z</time></trkpt><trkpt lat="45.87141962604669" lon="10.907903593505205"><ele>250.5</ele><time>2026-04-18T07:36:46Z</time></trkpt><trkpt lat="45.871535867613275" lon="10.907849350713018"><ele>251.25</ele><time>2026-04-18T07:36:47Z</time></trkpt><trkpt lat="45.8716530433223" lon="10.907801309494985"><ele>252.0</ele><time>2026-04-18T07:36:48Z</time></trkpt><trkpt lat="45.87176740322141" lon="10.907761675051804"><ele>252.5</ele><time>2026-04-18T07:36:49Z</time></trkpt><trkpt lat="45.871883553826294" lon="10.90772310611705"><ele>253.0</ele><time>2026-04-18T07:36:50Z</time></trkpt><trkpt lat="45.8720044788456" lon="10.907679833519575"><ele>253.5</ele><time>2026-04-18T07:36:51Z</time></trkpt><trkpt lat="45.872126729078104" lon="10.90763708837471"><ele>254.0</ele><time>2026-04-18T07:36:52Z</time></trkpt><trkpt lat="45.87225320753157" lon="10.907593637261392"><ele>257.25</ele><time>2026-04-18T07:36:53Z</time></trkpt><trkpt lat="45.87237832792378" lon="10.90754811067976"><ele>260.5</ele><time>2026-04-18T07:36:54Z</time></trkpt><trkpt lat="45.872507323754036" lon="10.907500451753554"><ele>263.75</ele><time>2026-04-18T07:36:55Z</time></trkpt><trkpt lat="45.87263679109353" lon="10.907452824464583"><ele>267.0</ele><time>2026-04-18T07:36:56Z</time></trkpt><trkpt lat="45.87276481952042" lon="10.907404729529308"><ele>268.0</ele><time>2026-04-18T07:36:57Z</time></trkpt><trkpt lat="45.87289371918879" lon="10.907359153642306"><ele>269.0</ele><time>2026-04-18T07:36:58Z</time></trkpt><trkpt lat="45.8730185269799" lon="10.907313923344304"><ele>270.0</ele><time>2026-04-18T07:36:59Z</time></trkpt><trkpt lat="45.873142091811815" lon="10.907269356313616"><ele>271.0</ele><time>2026-04-18T07:37:00Z</time></trkpt><trkpt lat="45.87326362180676" lon="10.90722455487652"><ele>271.0</ele><time>2026-04-18T07:37:01Z</time></trkpt><trkpt lat="45.87338147812511" lon="10.907171839832499"><ele>271.0</ele><time>2026-04-18T07:37:02Z</time></trkpt><trkpt lat="45.87348825864349" lon="10.907100792013201"><ele>271.0</ele><time>2026-04-18T07:37:03Z</time></trkpt><trkpt lat="45.87358918890791" lon="10.907012915070796"><ele>271.0</ele><time>2026-04-18T07:37:04Z</time></trkpt><trkpt lat="45.87368031186035" lon="10.90690176105887"><ele>272.5</ele><time>2026-04-18T07:37:05Z</time></trkpt><trkpt lat="45.87376450229124" lon="10.906781641012653"><ele>274.0</ele><time>2026-04-18T07:37:06Z</time></trkpt><trkpt lat="45.873842395865225" lon="10.906657516037193"><ele>275.5</ele><time>2026-04-18T07:37:07Z</time></trkpt><trkpt lat="45.87391604307189" lon="10.906533351491563"><ele>277.0</ele><time>2026-04-18T07:37:08Z</time></trkpt><trkpt lat="45.87398832309229" lon="10.906413390268806"><ele>277.0</ele><time>2026-04-18T07:37:09Z</time></trkpt><trkpt lat="45.874059385428474" lon="10.906294332657488"><ele>277.0</ele><time>2026-04-18T07:37:10Z</time></trkpt><trkpt lat="45.87412580359924" lon="10.906177127961952"><ele>277.0</ele><time>2026-04-18T07:37:11Z</time></trkpt><trkpt lat="45.87418805754293" lon="10.906065801256974"><ele>277.0</ele><time>2026-04-18T07:37:12Z</time></trkpt><trkpt lat="45.87425470720623" lon="10.905954945950644"><ele>277.0</ele><time>2026-04-18T07:37:13Z</time></trkpt><trkpt lat="45.87432865807397" lon="10.905834101924192"><ele>276.0</ele><time>2026-04-18T07:37:14Z</time></trkpt><trkpt lat="45.87441719745505" lon="10.905714509516857"><ele>275.0</ele><time>2026-04-18T07:37:15Z</time></trkpt><trkpt lat="45.87452460602759" lon="10.905610398617892"><ele>274.0</ele><time>2026-04-18T07:37:16Z</time></trkpt><trkpt lat="45.87464498606788" lon="10.905522188810739"><ele>273.0</ele><time>2026-04-18T07:37:17Z</time></trkpt><trkpt lat="45.87477765375402" lon="10.905459366958144"><ele>273.0</ele><time>2026-04-18T07:37:18Z</time></trkpt><trkpt lat="45.874919669125035" lon="10.905427169157983"><ele>273.0</ele><time>2026-04-18T07:37:19Z</time></trkpt><trkpt lat="45.875067439124514" lon="10.90538733105925"><ele>273.0</ele><time>2026-04-18T07:37:20Z</time></trkpt><trkpt lat="45.875234964917624" lon="10.905343358926796"><ele>273.3333333333333</ele><time>2026-04-18T07:37:21Z</time></trkpt><trkpt lat="45.875422521385666" lon="10.905295356637383"><ele>273.66666666666663</ele><time>2026-04-18T07:37:22Z</time></trkpt><trkpt lat="45.875600928243756" lon="10.905226199363696"><ele>274.0</ele><time>2026-04-18T07:37:23Z</time></trkpt><trkpt lat="45.87575990378645" lon="10.905196198919997"><ele>274.0</ele><time>2026-04-18T07:37:24Z</time></trkpt><trkpt lat="45.87589465052683" lon="10.905143859833858"><ele>274.0</ele><time>2026-04-18T07:37:25Z</time></trkpt><trkpt lat="45.876014303140494" lon="10.905084872008462"><ele>274.0</ele><time>2026-04-18T07:37:26Z</time></trkpt><trkpt lat="45.87612215073415" lon="10.90499616635556"><ele>274.0</ele><time>2026-04-18T07:37:27Z</time></trkpt><trkpt lat="45.87622626413377" lon="10.904907278171631"><ele>274.0</ele><time>2026-04-18T07:37:28Z</time></trkpt><trkpt lat="45.87632292935985" lon="10.9048045325961"><ele>274.0</ele><time>2026-04-18T07:37:29Z</time></trkpt><trkpt lat="45.87641276991945" lon="10.904688742195647"><ele>274.0</ele><time>2026-04-18T07:37:30Z</time></trkpt><trkpt lat="45.87648544727705" lon="10.904549038673034"><ele>274.0</ele><time>2026-04-18T07:37:31Z</time></trkpt><trkpt lat="45.87655770908434" lon="10.904401845202607"><ele>274.0</ele><time>2026-04-18T07:37:32Z</time></trkpt><trkpt lat="45.87663277148217" lon="10.90424924930174"><ele>274.0</ele><time>2026-04-18T07:37:33Z</time></trkpt><trkpt lat="45.87671215854244" lon="10.904096770221226"><ele>274.0</ele><time>2026-04-18T07:37:34Z</time></trkpt><trkpt lat="45.87678542137996" lon="10.903942691818882"><ele>274.0</ele><time>2026-04-18T07:37:35Z</time></trkpt><trkpt lat="45.87685820774625" lon="10.903786561356346"><ele>272.5</ele><time>2026-04-18T07:37:36Z</time></trkpt><trkpt lat="45.87692765592938" lon="10.903626731346192"><ele>271.0</ele><time>2026-04-18T07:37:37Z</time></trkpt><trkpt lat="45.876996183512794" lon="10.903467499441954"><ele>269.5</ele><time>2026-04-18T07:37:38Z</time></trkpt><trkpt lat="45.877065868582" lon="10.903307621493301"><ele>268.0</ele><time>2026-04-18T07:37:39Z</time></trkpt><trkpt lat="45.877138465635575" lon="10.903145274638476"><ele>265.25</ele><time>2026-04-18T07:37:40Z</time></trkpt><trkpt lat="45.87721356022221" lon="10.902984930060724"><ele>262.5</ele><time>2026-04-18T07:37:41Z</time></trkpt><trkpt lat="45.87729154596073" lon="10.902814644272137"><ele>259.75</ele><time>2026-04-18T07:37:42Z</time></trkpt><trkpt lat="45.87736910888525" lon="10.902650241928516"><ele>257.0</ele><time>2026-04-18T07:37:43Z</time></trkpt><trkpt lat="45.87744555303272" lon="10.902481425430773"><ele>256.25</ele><time>2026-04-18T07:37:44Z</time></trkpt><trkpt lat="45.87752056146419" lon="10.902313883707423"><ele>255.5</ele><time>2026-04-18T07:37:45Z</time></trkpt><trkpt lat="45.87759193976094" lon="10.90215353222691"><ele>254.75</ele><time>2026-04-18T07:37:46Z</time></trkpt><trkpt lat="45.87765936279838" lon="10.902000058165878"><ele>254.0</ele><time>2026-04-18T07:37:47Z</time></trkpt><trkpt lat="45.87773482080074" lon="10.901856199810664"><ele>252.0</ele><time>2026-04-18T07:37:48Z</time></trkpt><trkpt lat="45.8777879854718" lon="10.90168382296853"><ele>250.0</ele><time>2026-04-18T07:37:49Z</time></trkpt><trkpt lat="45.87783508661147" lon="10.90151660311743"><ele>248.0</ele><time>2026-04-18T07:37:50Z</time></trkpt><trkpt lat="45.87787188485123" lon="10.901339931628543"><ele>246.0</ele><time>2026-04-18T07:37:51Z</time></trkpt><trkpt lat="45.87789978851813" lon="10.901159147523678"><ele>246.0</ele><time>2026-04-18T07:37:52Z</time></trkpt><trkpt lat="45.87792007044159" lon="10.900976721905405"><ele>246.0</ele><time>2026-04-18T07:37:53Z</time></trkpt><trkpt lat="45.8779348994126" lon="10.900792643006648"><ele>246.0</ele><time>2026-04-18T07:37:54Z</time></trkpt><trkpt lat="45.87794390870733" lon="10.900610274534333"><ele>246.0</ele><time>2026-04-18T07:37:55Z</time></trkpt><trkpt lat="45.87794958065746" lon="10.900422165952005"><ele>244.25</ele><time>2026-04-18T07:37:56Z</time></trkpt><trkpt lat="45.87795231666888" lon="10.900238081754253"><ele>242.5</ele><time>2026-04-18T07:37:57Z</time></trkpt><trkpt lat="45.87795537922225" lon="10.90006111086765"><ele>240.75</ele><time>2026-04-18T07:37:58Z</time></trkpt><trkpt lat="45.87796234755306" lon="10.899879447666912"><ele>239.0</ele><time>2026-04-18T07:37:59Z</time></trkpt><trkpt lat="45.87796959548873" lon="10.899696774026063"><ele>237.0</ele><time>2026-04-18T07:38:00Z</time></trkpt><trkpt lat="45.877975784942684" lon="10.89951840298896"><ele>235.0</ele><time>2026-04-18T07:38:01Z</time></trkpt><trkpt lat="45.87797786483012" lon="10.899336756720484"><ele>233.0</ele><time>2026-04-18T07:38:02Z</time></trkpt><trkpt lat="45.87798044805928" lon="10.8991537486984"><ele>231.0</ele><time>2026-04-18T07:38:03Z</time></trkpt><trkpt lat="45.8779843635034" lon="10.898969687383383"><ele>230.25</ele><time>2026-04-18T07:38:04Z</time></trkpt><trkpt lat="45.87798930135094" lon="10.8987901317615"><ele>229.5</ele><time>2026-04-18T07:38:05Z</time></trkpt><trkpt lat="45.87799179284896" lon="10.898627784039034"><ele>228.75</ele><time>2026-04-18T07:38:06Z</time></trkpt><trkpt lat="45.877994532358194" lon="10.898472295214304"><ele>228.0</ele><time>2026-04-18T07:38:07Z</time></trkpt><trkpt lat="45.87799686079167" lon="10.89832151604207"><ele>227.8</ele><time>2026-04-18T07:38:08Z</time></trkpt><trkpt lat="45.87800347156479" lon="10.898175657965115"><ele>227.60000000000002</ele><time>2026-04-18T07:38:09Z</time></trkpt><trkpt lat="45.87800617395617" lon="10.898033071305466"><ele>227.39999999999998</ele><time>2026-04-18T07:38:10Z</time></trkpt><trkpt lat="45.87801368621812" lon="10.897906323406255"><ele>227.2</ele><time>2026-04-18T07:38:11Z</time></trkpt><trkpt lat="45.878017830709396" lon="10.897787704121251"><ele>227.0</ele><time>2026-04-18T07:38:12Z</time></trkpt><trkpt lat="45.87802128150952" lon="10.897674747088589"><ele>226.83333333333334</ele><time>2026-04-18T07:38:13Z</time></trkpt><trkpt lat="45.87802774475946" lon="10.897562282464065"><ele>226.66666666666669</ele><time>2026-04-18T07:38:14Z</time></trkpt><trkpt lat="45.8780496229443" lon="10.897450465228362"><ele>226.5</ele><time>2026-04-18T07:38:15Z</time></trkpt><trkpt lat="45.87808441242156" lon="10.897344214325306"><ele>226.33333333333331</ele><time>2026-04-18T07:38:16Z</time></trkpt><trkpt lat="45.87812145090047" lon="10.897239819731796"><ele>226.16666666666666</ele><time>2026-04-18T07:38:17Z</time></trkpt><trkpt lat="45.878142485580405" lon="10.897127053658872"><ele>226.0</ele><time>2026-04-18T07:38:18Z</time></trkpt><trkpt lat="45.87814186845509" lon="10.89701187266508"><ele>225.99999999999997</ele><time>2026-04-18T07:38:19Z</time></trkpt><trkpt lat="45.87811068589217" lon="10.896900665173062"><ele>226.0</ele><time>2026-04-18T07:38:20Z</time></trkpt><trkpt lat="45.87807025095474" lon="10.89680187625328"><ele>226.0</ele><time>2026-04-18T07:38:21Z</time></trkpt><trkpt lat="45.87804234002623" lon="10.896691946411318"><ele>226.0</ele><time>2026-04-18T07:38:22Z</time></trkpt><trkpt lat="45.878039882537195" lon="10.896563676008983"><ele>225.99999999999997</ele><time>2026-04-18T07:38:23Z</time></trkpt><trkpt lat="45.87804480609552" lon="10.896423588368163"><ele>226.0</ele><time>2026-04-18T07:38:24Z</time></trkpt><trkpt lat="45.87805090657953" lon="10.89628004075257"><ele>225.60000000000002</ele><time>2026-04-18T07:38:25Z</time></trkpt><trkpt lat="45.878053233064534" lon="10.896121083079452"><ele>225.20000000000002</ele><time>2026-04-18T07:38:26Z</time></trkpt><trkpt lat="45.87807036177844" lon="10.895967010614232"><ele>224.79999999999998</ele><time>2026-04-18T07:38:27Z</time></trkpt><trkpt lat="45.878048997515435" lon="10.895801235933039"><ele>224.39999999999998</ele><time>2026-04-18T07:38:28Z</time></trkpt><trkpt lat="45.87805809465717" lon="10.89564281722143"><ele>224.0</ele><time>2026-04-18T07:38:29Z</time></trkpt><trkpt lat="45.878062290756624" lon="10.895488397633306"><ele>223.75</ele><time>2026-04-18T07:38:30Z</time></trkpt><trkpt lat="45.87806568001374" lon="10.895326600239809"><ele>223.5</ele><time>2026-04-18T07:38:31Z</time></trkpt><trkpt lat="45.87807339143839" lon="10.895162916221974"><ele>223.25</ele><time>2026-04-18T07:38:32Z</time></trkpt><trkpt lat="45.878094621830655" lon="10.894990018121302"><ele>223.0</ele><time>2026-04-18T07:38:33Z</time></trkpt><trkpt lat="45.878097362581194" lon="10.894827322423087"><ele>223.0</ele><time>2026-04-18T07:38:34Z</time></trkpt><trkpt lat="45.87808852797111" lon="10.89467744291174"><ele>223.0</ele><time>2026-04-18T07:38:35Z</time></trkpt><trkpt lat="45.87809577485787" lon="10.894537449263883"><ele>223.0</ele><time>2026-04-18T07:38:36Z</time></trkpt><trkpt lat="45.87810122271678" lon="10.894407680727221"><ele>223.0</ele><time>2026-04-18T07:38:37Z</time></trkpt><trkpt lat="45.87810660788803" lon="10.894278606818991"><ele>223.0</ele><time>2026-04-18T07:38:38Z</time></trkpt><trkpt lat="45.87811356628247" lon="10.894153280814939"><ele>223.0</ele><time>2026-04-18T07:38:39Z</time></trkpt><trkpt lat="45.878129045073564" lon="10.894026706262583"><ele>223.0</ele><time>2026-04-18T07:38:40Z</time></trkpt><trkpt lat="45.87814476878504" lon="10.893887954589333"><ele>223.0</ele><time>2026-04-18T07:38:41Z</time></trkpt><trkpt lat="45.87816328247863" lon="10.89374471159744"><ele>223.0</ele><time>2026-04-18T07:38:42Z</time></trkpt><trkpt lat="45.878185806481824" lon="10.893592617537779"><ele>223.0</ele><time>2026-04-18T07:38:43Z</time></trkpt><trkpt lat="45.878211530892706" lon="10.893428174579805"><ele>222.99999999999997</ele><time>2026-04-18T07:38:44Z</time></trkpt><trkpt lat="45.87823947559135" lon="10.893280141800508"><ele>223.0</ele><time>2026-04-18T07:38:45Z</time></trkpt><trkpt lat="45.87826748882582" lon="10.893159460572328"><ele>223.0</ele><time>2026-04-18T07:38:46Z</time></trkpt><trkpt lat="45.87829197292109" lon="10.89304964426924"><ele>223.0</ele><time>2026-04-18T07:38:47Z</time></trkpt><trkpt lat="45.878311165566224" lon="10.892946176590506"><ele>222.99999999999997</ele><time>2026-04-18T07:38:48Z</time></trkpt><trkpt lat="45.87833080866407" lon="10.892845415954655"><ele>223.0</ele><time>2026-04-18T07:38:49Z</time></trkpt><trkpt lat="45.878350716971795" lon="10.892743723180208"><ele>222.99999999999997</ele><time>2026-04-18T07:38:50Z</time></trkpt><trkpt lat="45.87837019890459" lon="10.892644711609796"><ele>223.0</ele><time>2026-04-18T07:38:51Z</time></trkpt><trkpt lat="45.87839039860719" lon="10.892534543997195"><ele>223.0</ele><time>2026-04-18T07:38:52Z</time></trkpt><trkpt lat="45.878408612554544" lon="10.892411173083744"><ele>223.0</ele><time>2026-04-18T07:38:53Z</time></trkpt><trkpt lat="45.87842793500509" lon="10.892288182068631"><ele>222.99999999999997</ele><time>2026-04-18T07:38:54Z</time></trkpt><trkpt lat="45.878441036949546" lon="10.892173756486862"><ele>223.0</ele><time>2026-04-18T07:38:55Z</time></trkpt><trkpt lat="45.87844729581933" lon="10.892052968723489"><ele>223.25</ele><time>2026-04-18T07:38:56Z</time></trkpt><trkpt lat="45.87845536296027" lon="10.89191975909017"><ele>223.5</ele><time>2026-04-18T07:38:57Z</time></trkpt><trkpt lat="45.878462747092456" lon="10.891761899891774"><ele>223.75</ele><time>2026-04-18T07:38:58Z</time></trkpt><trkpt lat="45.878485832034485" lon="10.891581256000151"><ele>224.0</ele><time>2026-04-18T07:38:59Z</time></trkpt><trkpt lat="45.8784892976804" lon="10.891381785570234"><ele>224.0</ele><time>2026-04-18T07:39:00Z</time></trkpt><trkpt lat="45.8784734070768" lon="10.891197324697412"><ele>223.99999999999997</ele><time>2026-04-18T07:39:01Z</time></trkpt><trkpt lat="45.878481136510864" lon="10.891047940123388"><ele>223.99999999999997</ele><time>2026-04-18T07:39:02Z</time></trkpt><trkpt lat="45.878480751931306" lon="10.890903493060431"><ele>224.0</ele><time>2026-04-18T07:39:03Z</time></trkpt><trkpt lat="45.878477364981414" lon="10.890758703442806"><ele>224.0</ele><time>2026-04-18T07:39:04Z</time></trkpt><trkpt lat="45.878473286113895" lon="10.890619621607428"><ele>224.0</ele><time>2026-04-18T07:39:05Z</time></trkpt><trkpt lat="45.87846968462181" lon="10.890489089345484"><ele>223.99999999999997</ele><time>2026-04-18T07:39:06Z</time></trkpt><trkpt lat="45.87846977370178" lon="10.8903630950356"><ele>223.99999999999997</ele><time>2026-04-18T07:39:07Z</time></trkpt><trkpt lat="45.87846774271683" lon="10.890229419158414"><ele>224.0</ele><time>2026-04-18T07:39:08Z</time></trkpt><trkpt lat="45.87846655862516" lon="10.890093599690188"><ele>224.0</ele><time>2026-04-18T07:39:09Z</time></trkpt><trkpt lat="45.87846446683476" lon="10.88996057180783"><ele>223.66666666666669</ele><time>2026-04-18T07:39:10Z</time></trkpt><trkpt lat="45.8784636087244" lon="10.88983161612947"><ele>223.33333333333334</ele><time>2026-04-18T07:39:11Z</time></trkpt><trkpt lat="45.87846103218826" lon="10.889700942794544"><ele>223.0</ele><time>2026-04-18T07:39:12Z</time></trkpt><trkpt lat="45.8784568110259" lon="10.889572929532127"><ele>222.66666666666669</ele><time>2026-04-18T07:39:13Z</time></trkpt><trkpt lat="45.878455760636854" lon="10.889445387516231"><ele>222.33333333333334</ele><time>2026-04-18T07:39:14Z</time></trkpt><trkpt lat="45.8784579570915" lon="10.8893327356765"><ele>222.0</ele><time>2026-04-18T07:39:15Z</time></trkpt><trkpt lat="45.87846825381061" lon="10.889236477972135"><ele>221.42857142857142</ele><time>2026-04-18T07:39:16Z</time></trkpt><trkpt lat="45.878497630578316" lon="10.88914258416552"><ele>220.85714285714286</ele><time>2026-04-18T07:39:17Z</time></trkpt><trkpt lat="45.87854405644787" lon="10.889061576034708"><ele>220.28571428571428</ele><time>2026-04-18T07:39:18Z</time></trkpt><trkpt lat="45.87860006317196" lon="10.888998551935638"><ele>219.71428571428572</ele><time>2026-04-18T07:39:19Z</time></trkpt><trkpt lat="45.87865622046602" lon="10.888935057682223"><ele>219.14285714285717</ele><time>2026-04-18T07:39:20Z</time></trkpt><trkpt lat="45.878691247177535" lon="10.888846338733314"><ele>218.57142857142858</ele><time>2026-04-18T07:39:21Z</time></trkpt><trkpt lat="45.878704800024494" lon="10.88875473303274"><ele>218.0</ele><time>2026-04-18T07:39:22Z</time></trkpt><trkpt lat="45.8786999249645" lon="10.888662718154654"><ele>218.0</ele><time>2026-04-18T07:39:23Z</time></trkpt><trkpt lat="45.878686192939185" lon="10.888490606303248"><ele>218.0</ele><time>2026-04-18T07:39:25Z</time></trkpt><trkpt lat="45.878602385658006" lon="10.888363322942391"><ele>218.0</ele><time>2026-04-18T07:39:27Z</time></trkpt><trkpt lat="45.87850564978012" lon="10.888268201301905"><ele>218.0</ele><time>2026-04-18T07:39:29Z</time></trkpt><trkpt lat="45.87857912144319" lon="10.88808377244495"><ele>217.8</ele><time>2026-04-18T07:39:31Z</time></trkpt><trkpt lat="45.87848798783629" lon="10.888016519074055"><ele>217.60000000000002</ele><time>2026-04-18T07:39:32Z</time></trkpt><trkpt lat="45.87851431066538" lon="10.887919472141629"><ele>217.39999999999998</ele><time>2026-04-18T07:39:33Z</time></trkpt><trkpt lat="45.87855770967847" lon="10.887828433764792"><ele>217.2</ele><time>2026-04-18T07:39:34Z</time></trkpt><trkpt lat="45.87861590927168" lon="10.8877328256263"><ele>217.0</ele><time>2026-04-18T07:39:35Z</time></trkpt><trkpt lat="45.87874727766862" lon="10.887741742422417"><ele>216.99999999999997</ele><time>2026-04-18T07:39:36Z</time></trkpt><trkpt lat="45.878815949572164" lon="10.887692726469968"><ele>217.0</ele><time>2026-04-18T07:39:37Z</time></trkpt><trkpt lat="45.878896169570304" lon="10.887668107262098"><ele>217.0</ele><time>2026-04-18T07:39:38Z</time></trkpt><trkpt lat="45.878983456815305" lon="10.88766119766491"><ele>217.0</ele><time>2026-04-18T07:39:39Z</time></trkpt><trkpt lat="45.87906754562322" lon="10.887686923006761"><ele>216.99999999999997</ele><time>2026-04-18T07:39:40Z</time></trkpt><trkpt lat="45.879155393893456" lon="10.887731472997219"><ele>217.0</ele><time>2026-04-18T07:39:41Z</time></trkpt><trkpt lat="45.87926303121577" lon="10.887786117221944"><ele>217.0</ele><time>2026-04-18T07:39:42Z</time></trkpt><trkpt lat="45.87939729859204" lon="10.887827743263472"><ele>217.0</ele><time>2026-04-18T07:39:43Z</time></trkpt><trkpt lat="45.87953745948939" lon="10.88782076939605"><ele>217.0</ele><time>2026-04-18T07:39:44Z</time></trkpt><trkpt lat="45.879690383261625" lon="10.887734847902818"><ele>217.0</ele><time>2026-04-18T07:39:45Z</time></trkpt><trkpt lat="45.87981306611536" lon="10.887573299450812"><ele>217.0</ele><time>2026-04-18T07:39:46Z</time></trkpt><trkpt lat="45.879885593962406" lon="10.88737059623854"><ele>217.0</ele><time>2026-04-18T07:39:47Z</time></trkpt><trkpt lat="45.87991389947175" lon="10.887251664825923"><ele>217.0</ele><time>2026-04-18T07:39:48Z</time></trkpt><trkpt lat="45.87995526660784" lon="10.887089229410313"><ele>217.0</ele><time>2026-04-18T07:39:50Z</time></trkpt><trkpt lat="45.879982151589175" lon="10.886989261965509"><ele>217.0</ele><time>2026-04-18T07:39:51Z</time></trkpt><trkpt lat="45.88001072607203" lon="10.886894695547712"><ele>218.8</ele><time>2026-04-18T07:39:52Z</time></trkpt><trkpt lat="45.88008063976178" lon="10.886740819723249"><ele>220.6</ele><time>2026-04-18T07:39:54Z</time></trkpt><trkpt lat="45.880129159743774" lon="10.886644665793629"><ele>222.40000000000003</ele><time>2026-04-18T07:39:55Z</time></trkpt><trkpt lat="45.880175706645964" lon="10.886574542433118"><ele>224.20000000000002</ele><time>2026-04-18T07:39:56Z</time></trkpt><trkpt lat="45.88024070747053" lon="10.886481017216205"><ele>226.0</ele><time>2026-04-18T07:39:57Z</time></trkpt><trkpt lat="45.880310975216204" lon="10.886394982008454"><ele>225.99999999999997</ele><time>2026-04-18T07:39:58Z</time></trkpt><trkpt lat="45.88038500356164" lon="10.886315280410484"><ele>226.0</ele><time>2026-04-18T07:39:59Z</time></trkpt><trkpt lat="45.88044217305688" lon="10.886271190551915"><ele>226.0</ele><time>2026-04-18T07:40:00Z</time></trkpt><trkpt lat="45.880510124920406" lon="10.886222704467471"><ele>226.0</ele><time>2026-04-18T07:40:01Z</time></trkpt><trkpt lat="45.88058834211263" lon="10.886174036200517"><ele>225.99999999999997</ele><time>2026-04-18T07:40:02Z</time></trkpt><trkpt lat="45.8807124793266" lon="10.886117662872868"><ele>226.0</ele><time>2026-04-18T07:40:04Z</time></trkpt><trkpt lat="45.88077125274237" lon="10.886050246101508"><ele>170.0</ele><time>2026-04-18T07:40:06Z</time></trkpt><trkpt lat="45.880578170496065" lon="10.8850229728958"><ele>170.0</ele><time>2026-04-18T07:40:08Z</time></trkpt><trkpt lat="45.88052872894788" lon="10.884919155705074"><ele>170.0</ele><time>2026-04-18T07:40:09Z</time></trkpt><trkpt lat="45.88046016255663" lon="10.884842705880226"><ele>170.0</ele><time>2026-04-18T07:40:10Z</time></trkpt><trkpt lat="45.88037578453375" lon="10.884799736661519"><ele>170.0</ele><time>2026-04-18T07:40:11Z</time></trkpt><trkpt lat="45.88028096529603" lon="10.884805458804433"><ele>170.0</ele><time>2026-04-18T07:40:12Z</time></trkpt><trkpt lat="45.88019500847021" lon="10.88484299785784"><ele>170.0</ele><time>2026-04-18T07:40:13Z</time></trkpt><trkpt lat="45.88011938955571" lon="10.884917576397159"><ele>169.0</ele><time>2026-04-18T07:40:14Z</time></trkpt><trkpt lat="45.880061787741695" lon="10.885024210152466"><ele>168.0</ele><time>2026-04-18T07:40:15Z</time></trkpt><trkpt lat="45.88001102609891" lon="10.885144456189543"><ele>167.0</ele><time>2026-04-18T07:40:16Z</time></trkpt><trkpt lat="45.87995353112321" lon="10.885258298086205"><ele>166.0</ele><time>2026-04-18T07:40:17Z</time></trkpt><trkpt lat="45.87989047056575" lon="10.885373213892432"><ele>165.0</ele><time>2026-04-18T07:40:18Z</time></trkpt><trkpt lat="45.879829102849186" lon="10.885490548110381"><ele>167.8</ele><time>2026-04-18T07:40:19Z</time></trkpt><trkpt lat="45.87976406249185" lon="10.885610256992875"><ele>170.6</ele><time>2026-04-18T07:40:20Z</time></trkpt><trkpt lat="45.879700993696744" lon="10.885732255116512"><ele>173.39999999999998</ele><time>2026-04-18T07:40:21Z</time></trkpt><trkpt lat="45.87964051345466" lon="10.88585737855326"><ele>176.2</ele><time>2026-04-18T07:40:22Z</time></trkpt><trkpt lat="45.879579895404795" lon="10.885984017651094"><ele>179.0</ele><time>2026-04-18T07:40:23Z</time></trkpt><trkpt lat="45.87951513340106" lon="10.886112795034219"><ele>177.39999999999998</ele><time>2026-04-18T07:40:24Z</time></trkpt><trkpt lat="45.879448702024355" lon="10.88624251491214"><ele>175.8</ele><time>2026-04-18T07:40:25Z</time></trkpt><trkpt lat="45.87938329625116" lon="10.88637327123284"><ele>174.2</ele><time>2026-04-18T07:40:26Z</time></trkpt><trkpt lat="45.87930235481454" lon="10.886482284679687"><ele>172.60000000000002</ele><time>2026-04-18T07:40:27Z</time></trkpt><trkpt lat="45.87920000670173" lon="10.886551182185702"><ele>171.0</ele><time>2026-04-18T07:40:28Z</time></trkpt><trkpt lat="45.87908949849088" lon="10.886595926062848"><ele>171.0</ele><time>2026-04-18T07:40:29Z</time></trkpt><trkpt lat="45.87897525947009" lon="10.886599350833736"><ele>171.0</ele><time>2026-04-18T07:40:30Z</time></trkpt><trkpt lat="45.87886263599655" lon="10.886568859792867"><ele>171.0</ele><time>2026-04-18T07:40:31Z</time></trkpt><trkpt lat="45.87876027833497" lon="10.886492242435505"><ele>171.0</ele><time>2026-04-18T07:40:32Z</time></trkpt><trkpt lat="45.878672541287166" lon="10.886385741716206"><ele>171.0</ele><time>2026-04-18T07:40:33Z</time></trkpt><trkpt lat="45.87861006464999" lon="10.886248215760236"><ele>171.0</ele><time>2026-04-18T07:40:34Z</time></trkpt><trkpt lat="45.87855663038314" lon="10.886099975175263"><ele>171.0</ele><time>2026-04-18T07:40:35Z</time></trkpt><trkpt lat="45.878503571402575" lon="10.885953692569926"><ele>171.0</ele><time>2026-04-18T07:40:36Z</time></trkpt><trkpt lat="45.878442800579585" lon="10.885811495664901"><ele>169.75</ele><time>2026-04-18T07:40:37Z</time></trkpt><trkpt lat="45.87838060668077" lon="10.88566766718632"><ele>168.5</ele><time>2026-04-18T07:40:38Z</time></trkpt><trkpt lat="45.878326980945076" lon="10.88552397933225"><ele>167.25</ele><time>2026-04-18T07:40:39Z</time></trkpt><trkpt lat="45.878269214050356" lon="10.885379322262454"><ele>166.0</ele><time>2026-04-18T07:40:40Z</time></trkpt><trkpt lat="45.87820085475256" lon="10.885239467924594"><ele>166.0</ele><time>2026-04-18T07:40:41Z</time></trkpt><trkpt lat="45.87811754063603" lon="10.885107246468966"><ele>166.0</ele><time>2026-04-18T07:40:42Z</time></trkpt><trkpt lat="45.87802069922284" lon="10.88497567978143"><ele>166.0</ele><time>2026-04-18T07:40:43Z</time></trkpt><trkpt lat="45.87790905658209" lon="10.884858211688266"><ele>166.0</ele><time>2026-04-18T07:40:44Z</time></trkpt><trkpt lat="45.87778520552836" lon="10.884747348670464"><ele>164.75</ele><time>2026-04-18T07:40:45Z</time></trkpt><trkpt lat="45.87765987729585" lon="10.884626646330627"><ele>163.5</ele><time>2026-04-18T07:40:46Z</time></trkpt><trkpt lat="45.87754006163201" lon="10.884503466620695"><ele>162.25</ele><time>2026-04-18T07:40:47Z</time></trkpt><trkpt lat="45.87741552123551" lon="10.884397381550427"><ele>161.0</ele><time>2026-04-18T07:40:48Z</time></trkpt><trkpt lat="45.87729736470312" lon="10.884279261180712"><ele>153.0</ele><time>2026-04-18T07:40:49Z</time></trkpt><trkpt lat="45.877181796997085" lon="10.88416688545703"><ele>145.0</ele><time>2026-04-18T07:40:50Z</time></trkpt><trkpt lat="45.87707203211916" lon="10.88405875881035"><ele>137.0</ele><time>2026-04-18T07:40:51Z</time></trkpt><trkpt lat="45.876962381370284" lon="10.88395528050409"><ele>129.0</ele><time>2026-04-18T07:40:52Z</time></trkpt><trkpt lat="45.87684639794205" lon="10.883850545568821"><ele>136.33333333333334</ele><time>2026-04-18T07:40:53Z</time></trkpt><trkpt lat="45.876723077804556" lon="10.883721579613185"><ele>143.66666666666669</ele><time>2026-04-18T07:40:54Z</time></trkpt><trkpt lat="45.87658171249721" lon="10.883585912802674"><ele>151.0</ele><time>2026-04-18T07:40:55Z</time></trkpt><trkpt lat="45.876427758941745" lon="10.883438186739005"><ele>138.66666666666669</ele><time>2026-04-18T07:40:56Z</time></trkpt><trkpt lat="45.87626955017568" lon="10.883288355430222"><ele>126.33333333333334</ele><time>2026-04-18T07:40:57Z</time></trkpt><trkpt lat="45.87611097349588" lon="10.883138163903629"><ele>114.0</ele><time>2026-04-18T07:40:58Z</time></trkpt><trkpt lat="45.875956166738206" lon="10.882990647209658"><ele>110.66666666666666</ele><time>2026-04-18T07:40:59Z</time></trkpt><trkpt lat="45.8758010909533" lon="10.882840357542893"><ele>107.33333333333333</ele><time>2026-04-18T07:41:00Z</time></trkpt><trkpt lat="45.875639883722194" lon="10.882683205206515"><ele>104.0</ele><time>2026-04-18T07:41:01Z</time></trkpt><trkpt lat="45.875471500859746" lon="10.88252422645012"><ele>104.0</ele><time>2026-04-18T07:41:02Z</time></trkpt><trkpt lat="45.875298219119834" lon="10.882358353320772"><ele>104.0</ele><time>2026-04-18T07:41:03Z</time></trkpt><trkpt lat="45.87512932042649" lon="10.882181999134538"><ele>104.0</ele><time>2026-04-18T07:41:04Z</time></trkpt><trkpt lat="45.87496666187353" lon="10.882005313479613"><ele>104.33333333333333</ele><time>2026-04-18T07:41:05Z</time></trkpt><trkpt lat="45.874799483371966" lon="10.881839769462758"><ele>104.66666666666666</ele><time>2026-04-18T07:41:06Z</time></trkpt><trkpt lat="45.8746462142475" lon="10.881651829557299"><ele>105.0</ele><time>2026-04-18T07:41:07Z</time></trkpt><trkpt lat="45.874495330376384" lon="10.881462636145342"><ele>105.0</ele><time>2026-04-18T07:41:08Z</time></trkpt><trkpt lat="45.874346034788495" lon="10.881271588076507"><ele>105.0</ele><time>2026-04-18T07:41:09Z</time></trkpt><trkpt lat="45.87420012853869" lon="10.881078505020394"><ele>105.0</ele><time>2026-04-18T07:41:10Z</time></trkpt><trkpt lat="45.874058088689566" lon="10.880884488445583"><ele>103.33333333333334</ele><time>2026-04-18T07:41:11Z</time></trkpt><trkpt lat="45.87391653871495" lon="10.880690425805406"><ele>101.66666666666667</ele><time>2026-04-18T07:41:12Z</time></trkpt><trkpt lat="45.873774061569094" lon="10.880502902400055"><ele>100.0</ele><time>2026-04-18T07:41:13Z</time></trkpt><trkpt lat="45.87363523464988" lon="10.880318841626362"><ele>100.0</ele><time>2026-04-18T07:41:14Z</time></trkpt><trkpt lat="45.873512883097646" lon="10.880117398975633"><ele>100.0</ele><time>2026-04-18T07:41:15Z</time></trkpt><trkpt lat="45.87337859538525" lon="10.879929746424855"><ele>100.0</ele><time>2026-04-18T07:41:16Z</time></trkpt><trkpt lat="45.87323962043517" lon="10.879736595362077"><ele>101.0</ele><time>2026-04-18T07:41:17Z</time></trkpt><trkpt lat="45.87308521642704" lon="10.879522000644753"><ele>102.0</ele><time>2026-04-18T07:41:18Z</time></trkpt><trkpt lat="45.8729308946211" lon="10.879306880823805"><ele>103.0</ele><time>2026-04-18T07:41:19Z</time></trkpt><trkpt lat="45.87278213210043" lon="10.879099330560942"><ele>103.33333333333334</ele><time>2026-04-18T07:41:20Z</time></trkpt><trkpt lat="45.87263726182408" lon="10.87889721083916"><ele>103.66666666666666</ele><time>2026-04-18T07:41:21Z</time></trkpt><trkpt lat="45.872483341005044" lon="10.878711401936611"><ele>104.0</ele><time>2026-04-18T07:41:22Z</time></trkpt><trkpt lat="45.87234501462734" lon="10.878506727099667"><ele>94.33333333333333</ele><time>2026-04-18T07:41:23Z</time></trkpt><trkpt lat="45.87220516655581" lon="10.878309558708521"><ele>84.66666666666666</ele><time>2026-04-18T07:41:24Z</time></trkpt><trkpt lat="45.87206700738347" lon="10.878111460044952"><ele>75.0</ele><time>2026-04-18T07:41:25Z</time></trkpt><trkpt lat="45.87193070611939" lon="10.87791792116036"><ele>75.0</ele><time>2026-04-18T07:41:26Z</time></trkpt><trkpt lat="45.87179590085411" lon="10.877733314375908"><ele>75.0</ele><time>2026-04-18T07:41:27Z</time></trkpt><trkpt lat="45.871666513641365" lon="10.87755561091675"><ele>75.0</ele><time>2026-04-18T07:41:28Z</time></trkpt><trkpt lat="45.8715459995165" lon="10.877391419034405"><ele>74.75</ele><time>2026-04-18T07:41:29Z</time></trkpt><trkpt lat="45.871436108496326" lon="10.877238434139732"><ele>74.5</ele><time>2026-04-18T07:41:30Z</time></trkpt><trkpt lat="45.87133448596618" lon="10.877096676690147"><ele>74.25</ele><time>2026-04-18T07:41:31Z</time></trkpt><trkpt lat="45.87123951597643" lon="10.876967835808852"><ele>74.0</ele><time>2026-04-18T07:41:32Z</time></trkpt><trkpt lat="45.87115371298157" lon="10.876849390456305"><ele>73.60000000000001</ele><time>2026-04-18T07:41:33Z</time></trkpt><trkpt lat="45.87107517070469" lon="10.87673684500027"><ele>73.2</ele><time>2026-04-18T07:41:34Z</time></trkpt><trkpt lat="45.8710097315573" lon="10.87663751220629"><ele>72.80000000000001</ele><time>2026-04-18T07:41:35Z</time></trkpt><trkpt lat="45.870960883812806" lon="10.876555671279014"><ele>72.4</ele><time>2026-04-18T07:41:36Z</time></trkpt><trkpt lat="45.870904928109184" lon="10.876440524255123"><ele>72.0</ele><time>2026-04-18T07:41:38Z</time></trkpt><trkpt lat="45.870877275894024" lon="10.876342189839551"><ele>72.0</ele><time>2026-04-18T07:41:40Z</time></trkpt><trkpt lat="45.870856910971256" lon="10.876236655089096"><ele>72.0</ele><time>2026-04-18T07:41:42Z</time></trkpt><trkpt lat="45.87087312227297" lon="10.876108293888592"><ele>72.0</ele><time>2026-04-18T07:41:44Z</time></trkpt><trkpt lat="45.87092062544042" lon="10.87597139932354"><ele>72.0</ele><time>2026-04-18T07:41:46Z</time></trkpt><trkpt lat="45.870971252510216" lon="10.875848530526579"><ele>72.0</ele><time>2026-04-18T07:41:48Z</time></trkpt><trkpt lat="45.87100914540516" lon="10.875705600599597"><ele>71.0</ele><time>2026-04-18T07:41:50Z</time></trkpt><trkpt lat="45.87107457473782" lon="10.875648775685615"><ele>70.0</ele><time>2026-04-18T07:41:51Z</time></trkpt><trkpt lat="45.87113924621528" lon="10.8755250535808"><ele>69.0</ele><time>2026-04-18T07:41:53Z</time></trkpt><trkpt lat="45.87121096204783" lon="10.875414158520073"><ele>68.0</ele><time>2026-04-18T07:41:55Z</time></trkpt><trkpt lat="45.871303564106995" lon="10.875297349797926"><ele>67.0</ele><time>2026-04-18T07:41:57Z</time></trkpt><trkpt lat="45.871362876319175" lon="10.875246690846883"><ele>67.0</ele><time>2026-04-18T07:41:58Z</time></trkpt><trkpt lat="45.87142519555119" lon="10.875205461140308"><ele>67.0</ele><time>2026-04-18T07:41:59Z</time></trkpt><trkpt lat="45.87149963845329" lon="10.875201081068608"><ele>67.0</ele><time>2026-04-18T07:42:00Z</time></trkpt><trkpt lat="45.87155841826939" lon="10.875153362841706"><ele>67.0</ele><time>2026-04-18T07:42:01Z</time></trkpt><trkpt lat="45.87167229571814" lon="10.875116344371747"><ele>67.0</ele><time>2026-04-18T07:42:03Z</time></trkpt><trkpt lat="45.871775708999984" lon="10.875081321618236"><ele>67.0</ele><time>2026-04-18T07:42:05Z</time></trkpt><trkpt lat="45.87187772271651" lon="10.875039227887898"><ele>66.75</ele><time>2026-04-18T07:42:07Z</time></trkpt><trkpt lat="45.87198676137139" lon="10.87500082430992"><ele>66.5</ele><time>2026-04-18T07:42:09Z</time></trkpt><trkpt lat="45.872098521130454" lon="10.874993865933133"><ele>66.25</ele><time>2026-04-18T07:42:11Z</time></trkpt><trkpt lat="45.8722091853724" lon="10.874966159401072"><ele>66.0</ele><time>2026-04-18T07:42:13Z</time></trkpt><trkpt lat="45.872295165901555" lon="10.874841246895755"><ele>66.0</ele><time>2026-04-18T07:42:15Z</time></trkpt><trkpt lat="45.872335419503955" lon="10.874770547086879"><ele>66.0</ele><time>2026-04-18T07:42:16Z</time></trkpt><trkpt lat="45.87238574601402" lon="10.874702029423815"><ele>66.0</ele><time>2026-04-18T07:42:17Z</time></trkpt><trkpt lat="45.872452031195095" lon="10.874644169198563"><ele>66.0</ele><time>2026-04-18T07:42:18Z</time></trkpt><trkpt lat="45.87252472023687" lon="10.874583718224619"><ele>66.0</ele><time>2026-04-18T07:42:19Z</time></trkpt><trkpt lat="45.87259285696703" lon="10.87452886123013"><ele>66.0</ele><time>2026-04-18T07:42:20Z</time></trkpt><trkpt lat="45.8726575772356" lon="10.87447470813643"><ele>66.0</ele><time>2026-04-18T07:42:21Z</time></trkpt><trkpt lat="45.872741363712926" lon="10.874398168526533"><ele>66.2</ele><time>2026-04-18T07:42:23Z</time></trkpt><trkpt lat="45.87281942635652" lon="10.874330644389554"><ele>66.39999999999999</ele><time>2026-04-18T07:42:25Z</time></trkpt><trkpt lat="45.87292410514654" lon="10.874295847496843"><ele>66.6</ele><time>2026-04-18T07:42:27Z</time></trkpt><trkpt lat="45.873017665012064" lon="10.87423898455621"><ele>66.8</ele><time>2026-04-18T07:42:29Z</time></trkpt><trkpt lat="45.873127608312295" lon="10.87417760192374"><ele>67.0</ele><time>2026-04-18T07:42:31Z</time></trkpt><trkpt lat="45.8731903062085" lon="10.874141846443925"><ele>67.0</ele><time>2026-04-18T07:42:32Z</time></trkpt><trkpt lat="45.8732588454911" lon="10.87409562907651"><ele>67.0</ele><time>2026-04-18T07:42:33Z</time></trkpt><trkpt lat="45.873328634653056" lon="10.87406471706752"><ele>67.0</ele><time>2026-04-18T07:42:34Z</time></trkpt><trkpt lat="45.873393130043034" lon="10.874003206290292"><ele>67.0</ele><time>2026-04-18T07:42:35Z</time></trkpt><trkpt lat="45.87346873412125" lon="10.873967262638548"><ele>67.0</ele><time>2026-04-18T07:42:36Z</time></trkpt><trkpt lat="45.87354673708475" lon="10.87392465378993"><ele>67.0</ele><time>2026-04-18T07:42:37Z</time></trkpt><trkpt lat="45.87363124033969" lon="10.873885980814295"><ele>67.0</ele><time>2026-04-18T07:42:38Z</time></trkpt><trkpt lat="45.873707177409486" lon="10.873839222694027"><ele>67.0</ele><time>2026-04-18T07:42:39Z</time></trkpt><trkpt lat="45.87378150865455" lon="10.87379768487688"><ele>67.0</ele><time>2026-04-18T07:42:40Z</time></trkpt><trkpt lat="45.87386051308652" lon="10.873753736553711"><ele>67.0</ele><time>2026-04-18T07:42:41Z</time></trkpt><trkpt lat="45.873936940349054" lon="10.873706247894031"><ele>67.0</ele><time>2026-04-18T07:42:42Z</time></trkpt><trkpt lat="45.87401383414311" lon="10.873657635379784"><ele>67.0</ele><time>2026-04-18T07:42:43Z</time></trkpt><trkpt lat="45.87409004035221" lon="10.873600824042121"><ele>67.0</ele><time>2026-04-18T07:42:44Z</time></trkpt><trkpt lat="45.87416501541434" lon="10.873540583524663"><ele>67.0</ele><time>2026-04-18T07:42:45Z</time></trkpt><trkpt lat="45.874233790082776" lon="10.873482315341908"><ele>67.0</ele><time>2026-04-18T07:42:46Z</time></trkpt><trkpt lat="45.87429457623405" lon="10.873432326256275"><ele>67.0</ele><time>2026-04-18T07:42:47Z</time></trkpt><trkpt lat="45.874381203688856" lon="10.873345329287696"><ele>67.0</ele><time>2026-04-18T07:42:49Z</time></trkpt><trkpt lat="45.874458298959055" lon="10.873255228435243"><ele>67.0</ele><time>2026-04-18T07:42:51Z</time></trkpt><trkpt lat="45.874536353311655" lon="10.873165012003009"><ele>67.0</ele><time>2026-04-18T07:42:53Z</time></trkpt><trkpt lat="45.874609226253625" lon="10.87308662858529"><ele>67.0</ele><time>2026-04-18T07:42:55Z</time></trkpt><trkpt lat="45.87467816979777" lon="10.873005413921494"><ele>67.0</ele><time>2026-04-18T07:42:57Z</time></trkpt><trkpt lat="45.87475289751217" lon="10.87292371857394"><ele>67.0</ele><time>2026-04-18T07:42:59Z</time></trkpt><trkpt lat="45.874835536940324" lon="10.87284044675759"><ele>67.0</ele><time>2026-04-18T07:43:01Z</time></trkpt><trkpt lat="45.874924419667856" lon="10.87274655132635"><ele>67.0</ele><time>2026-04-18T07:43:03Z</time></trkpt><trkpt lat="45.87502382096009" lon="10.872637060450266"><ele>67.0</ele><time>2026-04-18T07:43:05Z</time></trkpt><trkpt lat="45.87507282492798" lon="10.87257406433744"><ele>67.0</ele><time>2026-04-18T07:43:06Z</time></trkpt><trkpt lat="45.87512292748881" lon="10.872499967552155"><ele>67.0</ele><time>2026-04-18T07:43:07Z</time></trkpt><trkpt lat="45.87517534103642" lon="10.872424627729917"><ele>67.0</ele><time>2026-04-18T07:43:08Z</time></trkpt><trkpt lat="45.87522770915602" lon="10.87235168369444"><ele>67.0</ele><time>2026-04-18T07:43:09Z</time></trkpt><trkpt lat="45.87527288089706" lon="10.87227491059776"><ele>66.83333333333333</ele><time>2026-04-18T07:43:10Z</time></trkpt><trkpt lat="45.87532049290075" lon="10.872196519479317"><ele>66.66666666666666</ele><time>2026-04-18T07:43:11Z</time></trkpt><trkpt lat="45.87537046937082" lon="10.87211294891216"><ele>66.5</ele><time>2026-04-18T07:43:12Z</time></trkpt><trkpt lat="45.875420258211975" lon="10.87202603541889"><ele>66.33333333333333</ele><time>2026-04-18T07:43:13Z</time></trkpt><trkpt lat="45.87547204205429" lon="10.871933527680593"><ele>66.16666666666667</ele><time>2026-04-18T07:43:14Z</time></trkpt><trkpt lat="45.875523111980556" lon="10.871842202704729"><ele>66.0</ele><time>2026-04-18T07:43:15Z</time></trkpt><trkpt lat="45.875573158942345" lon="10.87175354595733"><ele>66.0</ele><time>2026-04-18T07:43:16Z</time></trkpt><trkpt lat="45.87562316672037" lon="10.871671030233472"><ele>66.0</ele><time>2026-04-18T07:43:17Z</time></trkpt><trkpt lat="45.87566952813276" lon="10.871583463773936"><ele>66.0</ele><time>2026-04-18T07:43:18Z</time></trkpt><trkpt lat="45.87571896505068" lon="10.871495157520616"><ele>66.0</ele><time>2026-04-18T07:43:19Z</time></trkpt><trkpt lat="45.875768650251246" lon="10.871409460514162"><ele>66.0</ele><time>2026-04-18T07:43:20Z</time></trkpt><trkpt lat="45.875823166686" lon="10.871329207350355"><ele>66.0</ele><time>2026-04-18T07:43:21Z</time></trkpt><trkpt lat="45.875877355531614" lon="10.87125252131624"><ele>66.0</ele><time>2026-04-18T07:43:22Z</time></trkpt><trkpt lat="45.8759328914473" lon="10.871172544056822"><ele>66.0</ele><time>2026-04-18T07:43:23Z</time></trkpt><trkpt lat="45.87598848432757" lon="10.871083756235981"><ele>66.0</ele><time>2026-04-18T07:43:24Z</time></trkpt><trkpt lat="45.87604603909277" lon="10.870999394951943"><ele>66.0</ele><time>2026-04-18T07:43:25Z</time></trkpt><trkpt lat="45.87610842924578" lon="10.870945393228117"><ele>66.0</ele><time>2026-04-18T07:43:26Z</time></trkpt><trkpt lat="45.87617436977702" lon="10.870909627572418"><ele>66.0</ele><time>2026-04-18T07:43:27Z</time></trkpt><trkpt lat="45.87624131188201" lon="10.870898046393288"><ele>65.8</ele><time>2026-04-18T07:43:28Z</time></trkpt><trkpt lat="45.876306569554444" lon="10.870908604229768"><ele>65.6</ele><time>2026-04-18T07:43:29Z</time></trkpt><trkpt lat="45.87637045388684" lon="10.870936187134713"><ele>65.4</ele><time>2026-04-18T07:43:30Z</time></trkpt><trkpt lat="45.876445604698155" lon="10.870983950481904"><ele>65.2</ele><time>2026-04-18T07:43:31Z</time></trkpt><trkpt lat="45.87653222651185" lon="10.871015373624058"><ele>65.0</ele><time>2026-04-18T07:43:32Z</time></trkpt><trkpt lat="45.87659325012469" lon="10.871218450438349"><ele>65.0</ele><time>2026-04-18T07:43:33Z</time></trkpt><trkpt lat="45.876648992762505" lon="10.87140244505736"><ele>65.0</ele><time>2026-04-18T07:43:34Z</time></trkpt><trkpt lat="45.87673365632443" lon="10.87159393609291"><ele>65.0</ele><time>2026-04-18T07:43:35Z</time></trkpt><trkpt lat="45.87680448915081" lon="10.871786390127744"><ele>65.0</ele><time>2026-04-18T07:43:36Z</time></trkpt><trkpt lat="45.876875826344865" lon="10.871970320046362"><ele>65.66666666666667</ele><time>2026-04-18T07:43:37Z</time></trkpt><trkpt lat="45.8769475115015" lon="10.872148561045185"><ele>66.33333333333333</ele><time>2026-04-18T07:43:38Z</time></trkpt><trkpt lat="45.87702026163378" lon="10.872338365685113"><ele>67.0</ele><time>2026-04-18T07:43:39Z</time></trkpt><trkpt lat="45.87710051161966" lon="10.872539082541794"><ele>67.66666666666666</ele><time>2026-04-18T07:43:40Z</time></trkpt><trkpt lat="45.87718525916478" lon="10.872753916851329"><ele>68.33333333333333</ele><time>2026-04-18T07:43:41Z</time></trkpt><trkpt lat="45.87727924758297" lon="10.87296835399184"><ele>69.0</ele><time>2026-04-18T07:43:42Z</time></trkpt><trkpt lat="45.87738267612287" lon="10.87317047893862"><ele>69.0</ele><time>2026-04-18T07:43:43Z</time></trkpt><trkpt lat="45.877494373601465" lon="10.873344969185192"><ele>69.0</ele><time>2026-04-18T07:43:44Z</time></trkpt><trkpt lat="45.87761243511614" lon="10.873507101522268"><ele>69.0</ele><time>2026-04-18T07:43:45Z</time></trkpt><trkpt lat="45.87773377245586" lon="10.873635403397168"><ele>68.5</ele><time>2026-04-18T07:43:46Z</time></trkpt><trkpt lat="45.87786271754526" lon="10.873721502335563"><ele>68.0</ele><time>2026-04-18T07:43:47Z</time></trkpt><trkpt lat="45.878005013946826" lon="10.873771778821077"><ele>67.5</ele><time>2026-04-18T07:43:48Z</time></trkpt><trkpt lat="45.87816045074261" lon="10.87379667176886"><ele>67.0</ele><time>2026-04-18T07:43:49Z</time></trkpt><trkpt lat="45.878326634708266" lon="10.873821113066585"><ele>68.66666666666666</ele><time>2026-04-18T07:43:50Z</time></trkpt><trkpt lat="45.87850213561992" lon="10.873855977891383"><ele>70.33333333333333</ele><time>2026-04-18T07:43:51Z</time></trkpt><trkpt lat="45.87868364462377" lon="10.873892469548915"><ele>72.0</ele><time>2026-04-18T07:43:52Z</time></trkpt><trkpt lat="45.87886258129854" lon="10.87392680338578"><ele>72.0</ele><time>2026-04-18T07:43:53Z</time></trkpt><trkpt lat="45.87903653476114" lon="10.873960409202974"><ele>72.0</ele><time>2026-04-18T07:43:54Z</time></trkpt><trkpt lat="45.879207344253075" lon="10.873998157005135"><ele>72.0</ele><time>2026-04-18T07:43:55Z</time></trkpt><trkpt lat="45.87937265627756" lon="10.874035825312633"><ele>72.0</ele><time>2026-04-18T07:43:56Z</time></trkpt><trkpt lat="45.879539022736324" lon="10.874064677571933"><ele>72.0</ele><time>2026-04-18T07:43:57Z</time></trkpt><trkpt lat="45.87970263738824" lon="10.874098000202162"><ele>72.0</ele><time>2026-04-18T07:43:58Z</time></trkpt><trkpt lat="45.87986324542124" lon="10.874144056059972"><ele>72.0</ele><time>2026-04-18T07:43:59Z</time></trkpt><trkpt lat="45.880015598230244" lon="10.874211746218984"><ele>72.0</ele><time>2026-04-18T07:44:00Z</time></trkpt><trkpt lat="45.880158590040004" lon="10.87431537369783"><ele>72.0</ele><time>2026-04-18T07:44:01Z</time></trkpt><trkpt lat="45.8802924521422" lon="10.874455998104757"><ele>72.66666666666667</ele><time>2026-04-18T07:44:02Z</time></trkpt><trkpt lat="45.88042860939899" lon="10.87461672904043"><ele>73.33333333333334</ele><time>2026-04-18T07:44:03Z</time></trkpt><trkpt lat="45.88056352329278" lon="10.874797926195951"><ele>74.0</ele><time>2026-04-18T07:44:04Z</time></trkpt><trkpt lat="45.880698370527185" lon="10.874991664100248"><ele>73.0</ele><time>2026-04-18T07:44:05Z</time></trkpt><trkpt lat="45.88082376991645" lon="10.875188478634692"><ele>72.0</ele><time>2026-04-18T07:44:06Z</time></trkpt><trkpt lat="45.880946774440986" lon="10.875388601908714"><ele>71.0</ele><time>2026-04-18T07:44:07Z</time></trkpt><trkpt lat="45.881068001772796" lon="10.875582141740916"><ele>71.66666666666667</ele><time>2026-04-18T07:44:08Z</time></trkpt><trkpt lat="45.881195231043904" lon="10.875763901487954"><ele>72.33333333333333</ele><time>2026-04-18T07:44:09Z</time></trkpt><trkpt lat="45.881335406460025" lon="10.875948903011231"><ele>73.0</ele><time>2026-04-18T07:44:10Z</time></trkpt><trkpt lat="45.881465955246746" lon="10.876098407444315"><ele>73.0</ele><time>2026-04-18T07:44:11Z</time></trkpt><trkpt lat="45.881589586969085" lon="10.876231306716319"><ele>73.0</ele><time>2026-04-18T07:44:12Z</time></trkpt><trkpt lat="45.881703200131845" lon="10.876370918487506"><ele>73.0</ele><time>2026-04-18T07:44:13Z</time></trkpt><trkpt lat="45.88183170057109" lon="10.876508120269358"><ele>74.0</ele><time>2026-04-18T07:44:14Z</time></trkpt><trkpt lat="45.8819762332162" lon="10.876643809508462"><ele>75.0</ele><time>2026-04-18T07:44:15Z</time></trkpt><trkpt lat="45.882135698353885" lon="10.87675949312359"><ele>76.0</ele><time>2026-04-18T07:44:16Z</time></trkpt><trkpt lat="45.88231064262488" lon="10.876870869246142"><ele>75.0</ele><time>2026-04-18T07:44:17Z</time></trkpt><trkpt lat="45.88251054792078" lon="10.876970257750845"><ele>74.0</ele><time>2026-04-18T07:44:18Z</time></trkpt><trkpt lat="45.882724102581605" lon="10.877069725470948"><ele>73.0</ele><time>2026-04-18T07:44:19Z</time></trkpt><trkpt lat="45.88294469684233" lon="10.877170129655006"><ele>73.0</ele><time>2026-04-18T07:44:20Z</time></trkpt><trkpt lat="45.88316648612732" lon="10.877249454803678"><ele>73.0</ele><time>2026-04-18T07:44:21Z</time></trkpt><trkpt lat="45.883376124345915" lon="10.877349884964879"><ele>72.33333333333333</ele><time>2026-04-18T07:44:22Z</time></trkpt><trkpt lat="45.88358172868354" lon="10.877449617440055"><ele>71.66666666666667</ele><time>2026-04-18T07:44:23Z</time></trkpt><trkpt lat="45.88378310760618" lon="10.877551907799624"><ele>71.0</ele><time>2026-04-18T07:44:24Z</time></trkpt><trkpt lat="45.883981883136734" lon="10.877667247146409"><ele>71.0</ele><time>2026-04-18T07:44:25Z</time></trkpt><trkpt lat="45.88418728974017" lon="10.877794051874265"><ele>71.0</ele><time>2026-04-18T07:44:26Z</time></trkpt><trkpt lat="45.884394423476465" lon="10.877928298022573"><ele>71.0</ele><time>2026-04-18T07:44:27Z</time></trkpt><trkpt lat="45.8846031650111" lon="10.878061310526082"><ele>71.0</ele><time>2026-04-18T07:44:28Z</time></trkpt><trkpt lat="45.88481210232561" lon="10.878185914638777"><ele>71.0</ele><time>2026-04-18T07:44:29Z</time></trkpt><trkpt lat="45.88500887183721" lon="10.878301120753193"><ele>71.0</ele><time>2026-04-18T07:44:30Z</time></trkpt><trkpt lat="45.88519884902171" lon="10.878408781816924"><ele>71.0</ele><time>2026-04-18T07:44:31Z</time></trkpt><trkpt lat="45.88538632983944" lon="10.878505124380846"><ele>71.0</ele><time>2026-04-18T07:44:32Z</time></trkpt><trkpt lat="45.88558365365946" lon="10.878574922886015"><ele>71.0</ele><time>2026-04-18T07:44:33Z</time></trkpt><trkpt lat="45.88579168383525" lon="10.87861732762396"><ele>71.0</ele><time>2026-04-18T07:44:34Z</time></trkpt><trkpt lat="45.88601343830307" lon="10.878649779596099"><ele>71.0</ele><time>2026-04-18T07:44:35Z</time></trkpt><trkpt lat="45.88624100352626" lon="10.878683830964567"><ele>71.0</ele><time>2026-04-18T07:44:36Z</time></trkpt><trkpt lat="45.88647775224198" lon="10.878718435204812"><ele>71.0</ele><time>2026-04-18T07:44:37Z</time></trkpt><trkpt lat="45.88672308242974" lon="10.878751937714117"><ele>71.0</ele><time>2026-04-18T07:44:38Z</time></trkpt><trkpt lat="45.88696575986083" lon="10.878785928363701"><ele>70.5</ele><time>2026-04-18T07:44:39Z</time></trkpt><trkpt lat="45.88720342197158" lon="10.878818224740789"><ele>70.0</ele><time>2026-04-18T07:44:40Z</time></trkpt><trkpt lat="45.8874374364612" lon="10.878851154041529"><ele>70.5</ele><time>2026-04-18T07:44:41Z</time></trkpt><trkpt lat="45.887668184873455" lon="10.878888110809878"><ele>71.0</ele><time>2026-04-18T07:44:42Z</time></trkpt><trkpt lat="45.88789640710744" lon="10.878930920262643"><ele>71.0</ele><time>2026-04-18T07:44:43Z</time></trkpt><trkpt lat="45.88811827293882" lon="10.878969759293584"><ele>71.0</ele><time>2026-04-18T07:44:44Z</time></trkpt><trkpt lat="45.88833163143998" lon="10.879006420891015"><ele>71.0</ele><time>2026-04-18T07:44:45Z</time></trkpt><trkpt lat="45.88853683646012" lon="10.879041431866789"><ele>70.66666666666667</ele><time>2026-04-18T07:44:46Z</time></trkpt><trkpt lat="45.88874498178764" lon="10.879083178264052"><ele>70.33333333333333</ele><time>2026-04-18T07:44:47Z</time></trkpt><trkpt lat="45.88895885846624" lon="10.879129570908919"><ele>70.0</ele><time>2026-04-18T07:44:48Z</time></trkpt><trkpt lat="45.88917846040884" lon="10.87917763126122"><ele>70.5</ele><time>2026-04-18T07:44:49Z</time></trkpt><trkpt lat="45.88940348195163" lon="10.879217799165756"><ele>71.0</ele><time>2026-04-18T07:44:50Z</time></trkpt><trkpt lat="45.889634071488565" lon="10.879240767917365"><ele>71.0</ele><time>2026-04-18T07:44:51Z</time></trkpt><trkpt lat="45.88987063851414" lon="10.879255937262688"><ele>71.0</ele><time>2026-04-18T07:44:52Z</time></trkpt><trkpt lat="45.89011109021166" lon="10.879271309507201"><ele>72.0</ele><time>2026-04-18T07:44:53Z</time></trkpt><trkpt lat="45.8903489863735" lon="10.879288757533207"><ele>73.0</ele><time>2026-04-18T07:44:54Z</time></trkpt><trkpt lat="45.89058999014556" lon="10.879305566242607"><ele>73.0</ele><time>2026-04-18T07:44:55Z</time></trkpt><trkpt lat="45.89083230066111" lon="10.87932472122065"><ele>73.0</ele><time>2026-04-18T07:44:56Z</time></trkpt><trkpt lat="45.89108096765731" lon="10.879344639862056"><ele>73.5</ele><time>2026-04-18T07:44:57Z</time></trkpt><trkpt lat="45.89133489243658" lon="10.87936511142674"><ele>74.0</ele><time>2026-04-18T07:44:58Z</time></trkpt><trkpt lat="45.89159153313312" lon="10.879388788080616"><ele>74.5</ele><time>2026-04-18T07:44:59Z</time></trkpt><trkpt lat="45.89184850219898" lon="10.879416174408778"><ele>75.0</ele><time>2026-04-18T07:45:00Z</time></trkpt><trkpt lat="45.89210142097906" lon="10.879443681122684"><ele>75.0</ele><time>2026-04-18T07:45:01Z</time></trkpt><trkpt lat="45.892347950280254" lon="10.879468793997784"><ele>75.0</ele><time>2026-04-18T07:45:02Z</time></trkpt><trkpt lat="45.89259058954067" lon="10.879490578801429"><ele>73.5</ele><time>2026-04-18T07:45:03Z</time></trkpt><trkpt lat="45.892831668593054" lon="10.879510004675579"><ele>72.0</ele><time>2026-04-18T07:45:04Z</time></trkpt><trkpt lat="45.89307031167868" lon="10.879527989262256"><ele>72.0</ele><time>2026-04-18T07:45:05Z</time></trkpt><trkpt lat="45.893303885933825" lon="10.87954657203383"><ele>72.0</ele><time>2026-04-18T07:45:06Z</time></trkpt><trkpt lat="45.89353521139031" lon="10.879567353932012"><ele>72.0</ele><time>2026-04-18T07:45:07Z</time></trkpt><trkpt lat="45.893761602308395" lon="10.879587241326321"><ele>72.0</ele><time>2026-04-18T07:45:08Z</time></trkpt><trkpt lat="45.893985655149685" lon="10.879606311804242"><ele>72.0</ele><time>2026-04-18T07:45:09Z</time></trkpt><trkpt lat="45.89420222125402" lon="10.879624913008616"><ele>72.0</ele><time>2026-04-18T07:45:10Z</time></trkpt><trkpt lat="45.8944058409505" lon="10.87964696372584"><ele>72.0</ele><time>2026-04-18T07:45:11Z</time></trkpt><trkpt lat="45.89458281034519" lon="10.87968980085556"><ele>72.33333333333333</ele><time>2026-04-18T07:45:12Z</time></trkpt><trkpt lat="45.894747833353776" lon="10.879778809347107"><ele>72.66666666666666</ele><time>2026-04-18T07:45:13Z</time></trkpt><trkpt lat="45.894918182898024" lon="10.879898693852498"><ele>73.0</ele><time>2026-04-18T07:45:14Z</time></trkpt><trkpt lat="45.895093242038364" lon="10.88004025119399"><ele>73.66666666666666</ele><time>2026-04-18T07:45:15Z</time></trkpt><trkpt lat="45.89527323164171" lon="10.88018863870535"><ele>74.33333333333333</ele><time>2026-04-18T07:45:16Z</time></trkpt><trkpt lat="45.89546097192101" lon="10.880337238756058"><ele>75.0</ele><time>2026-04-18T07:45:17Z</time></trkpt><trkpt lat="45.89564667385229" lon="10.880484568972104"><ele>75.0</ele><time>2026-04-18T07:45:18Z</time></trkpt><trkpt lat="45.89582215079135" lon="10.880626132411638"><ele>75.0</ele><time>2026-04-18T07:45:19Z</time></trkpt><trkpt lat="45.895984213228466" lon="10.88075974480051"><ele>75.0</ele><time>2026-04-18T07:45:20Z</time></trkpt><trkpt lat="45.8961293332727" lon="10.880872465000191"><ele>74.25</ele><time>2026-04-18T07:45:21Z</time></trkpt><trkpt lat="45.89626369078944" lon="10.88094174143884"><ele>73.5</ele><time>2026-04-18T07:45:22Z</time></trkpt><trkpt lat="45.896406698270276" lon="10.88096732530608"><ele>72.75</ele><time>2026-04-18T07:45:23Z</time></trkpt><trkpt lat="45.89655496300028" lon="10.88093476237372"><ele>72.0</ele><time>2026-04-18T07:45:24Z</time></trkpt><trkpt lat="45.89671274526495" lon="10.880865681548238"><ele>73.0</ele><time>2026-04-18T07:45:25Z</time></trkpt><trkpt lat="45.89687882020302" lon="10.880785230936484"><ele>74.0</ele><time>2026-04-18T07:45:26Z</time></trkpt><trkpt lat="45.89705728924087" lon="10.880697074397556"><ele>75.0</ele><time>2026-04-18T07:45:27Z</time></trkpt><trkpt lat="45.89724709646224" lon="10.880604685572042"><ele>75.0</ele><time>2026-04-18T07:45:28Z</time></trkpt><trkpt lat="45.89744089378469" lon="10.880509862917801"><ele>75.0</ele><time>2026-04-18T07:45:29Z</time></trkpt><trkpt lat="45.89764341430835" lon="10.880423451897446"><ele>75.0</ele><time>2026-04-18T07:45:30Z</time></trkpt><trkpt lat="45.89785640710685" lon="10.880351888849942"><ele>75.5</ele><time>2026-04-18T07:45:31Z</time></trkpt><trkpt lat="45.89807815160285" lon="10.880293459384031"><ele>76.0</ele><time>2026-04-18T07:45:32Z</time></trkpt><trkpt lat="45.898301387783164" lon="10.880242478123973"><ele>76.0</ele><time>2026-04-18T07:45:33Z</time></trkpt><trkpt lat="45.898521818211364" lon="10.880194895515904"><ele>76.0</ele><time>2026-04-18T07:45:34Z</time></trkpt><trkpt lat="45.898732395619376" lon="10.880138838069188"><ele>76.0</ele><time>2026-04-18T07:45:35Z</time></trkpt><trkpt lat="45.89893950071702" lon="10.880087454889646"><ele>76.0</ele><time>2026-04-18T07:45:36Z</time></trkpt><trkpt lat="45.89914681786332" lon="10.880056509826376"><ele>76.0</ele><time>2026-04-18T07:45:37Z</time></trkpt><trkpt lat="45.89935930733826" lon="10.880042785197304"><ele>76.0</ele><time>2026-04-18T07:45:38Z</time></trkpt><trkpt lat="45.89957911073116" lon="10.880052193601987"><ele>76.0</ele><time>2026-04-18T07:45:39Z</time></trkpt><trkpt lat="45.899800911663306" lon="10.880091479978088"><ele>76.0</ele><time>2026-04-18T07:45:40Z</time></trkpt><trkpt lat="45.900012969274044" lon="10.880167743435987"><ele>76.0</ele><time>2026-04-18T07:45:41Z</time></trkpt><trkpt lat="45.900219062615776" lon="10.880252731134089"><ele>76.0</ele><time>2026-04-18T07:45:42Z</time></trkpt><trkpt lat="45.900411087304576" lon="10.880339580536706"><ele>76.0</ele><time>2026-04-18T07:45:43Z</time></trkpt><trkpt lat="45.90059594606319" lon="10.88040673098099"><ele>76.0</ele><time>2026-04-18T07:45:44Z</time></trkpt><trkpt lat="45.90077609014447" lon="10.880444476160646"><ele>77.0</ele><time>2026-04-18T07:45:45Z</time></trkpt><trkpt lat="45.90095157248258" lon="10.880446904309803"><ele>78.0</ele><time>2026-04-18T07:45:46Z</time></trkpt><trkpt lat="45.901129256285785" lon="10.880413825732923"><ele>79.0</ele><time>2026-04-18T07:45:47Z</time></trkpt><trkpt lat="45.901310571215795" lon="10.88034565816769"><ele>79.0</ele><time>2026-04-18T07:45:48Z</time></trkpt><trkpt lat="45.90149916792774" lon="10.880258148078374"><ele>79.0</ele><time>2026-04-18T07:45:49Z</time></trkpt><trkpt lat="45.90169708962763" lon="10.880159473057601"><ele>79.0</ele><time>2026-04-18T07:45:50Z</time></trkpt><trkpt lat="45.90190195192371" lon="10.880057989761838"><ele>78.5</ele><time>2026-04-18T07:45:51Z</time></trkpt><trkpt lat="45.9021161366625" lon="10.879955967572913"><ele>78.0</ele><time>2026-04-18T07:45:52Z</time></trkpt><trkpt lat="45.9023357825367" lon="10.879853163226157"><ele>78.0</ele><time>2026-04-18T07:45:53Z</time></trkpt><trkpt lat="45.90255692892515" lon="10.879744652605423"><ele>78.0</ele><time>2026-04-18T07:45:54Z</time></trkpt><trkpt lat="45.902779191248904" lon="10.87963130272888"><ele>78.66666666666667</ele><time>2026-04-18T07:45:55Z</time></trkpt><trkpt lat="45.902995641216485" lon="10.87952278131559"><ele>79.33333333333334</ele><time>2026-04-18T07:45:56Z</time></trkpt><trkpt lat="45.90320117761218" lon="10.879422307165653"><ele>80.0</ele><time>2026-04-18T07:45:57Z</time></trkpt><trkpt lat="45.903400785469664" lon="10.879324487479087"><ele>79.66666666666667</ele><time>2026-04-18T07:45:58Z</time></trkpt><trkpt lat="45.90360024317916" lon="10.879226745556728"><ele>79.33333333333333</ele><time>2026-04-18T07:45:59Z</time></trkpt><trkpt lat="45.9037914775857" lon="10.879134660891115"><ele>79.0</ele><time>2026-04-18T07:46:00Z</time></trkpt><trkpt lat="45.903974909554385" lon="10.879048179968766"><ele>79.0</ele><time>2026-04-18T07:46:01Z</time></trkpt><trkpt lat="45.9041506970098" lon="10.878963313809196"><ele>79.0</ele><time>2026-04-18T07:46:02Z</time></trkpt><trkpt lat="45.90431830851634" lon="10.878879923004945"><ele>79.0</ele><time>2026-04-18T07:46:03Z</time></trkpt><trkpt lat="45.90447587535861" lon="10.878796603715472"><ele>80.0</ele><time>2026-04-18T07:46:04Z</time></trkpt><trkpt lat="45.90463463012004" lon="10.87874663315107"><ele>81.0</ele><time>2026-04-18T07:46:05Z</time></trkpt><trkpt lat="45.90478346914306" lon="10.878695423344228"><ele>82.0</ele><time>2026-04-18T07:46:06Z</time></trkpt><trkpt lat="45.90492851598124" lon="10.878708591307772"><ele>81.66666666666666</ele><time>2026-04-18T07:46:07Z</time></trkpt><trkpt lat="45.9050819863309" lon="10.878744610355175"><ele>81.33333333333333</ele><time>2026-04-18T07:46:08Z</time></trkpt><trkpt lat="45.90524409416142" lon="10.878763516679209"><ele>81.0</ele><time>2026-04-18T07:46:09Z</time></trkpt><trkpt lat="45.905407182744725" lon="10.878803747022491"><ele>81.0</ele><time>2026-04-18T07:46:10Z</time></trkpt><trkpt lat="45.905568852596325" lon="10.87884601677864"><ele>81.0</ele><time>2026-04-18T07:46:11Z</time></trkpt><trkpt lat="45.90572689509455" lon="10.878905131318431"><ele>81.0</ele><time>2026-04-18T07:46:12Z</time></trkpt><trkpt lat="45.90588862501246" lon="10.878939575570124"><ele>81.33333333333333</ele><time>2026-04-18T07:46:13Z</time></trkpt><trkpt lat="45.906046574932304" lon="10.87900256068756"><ele>81.66666666666666</ele><time>2026-04-18T07:46:14Z</time></trkpt><trkpt lat="45.90621075156721" lon="10.879088635366909"><ele>82.0</ele><time>2026-04-18T07:46:15Z</time></trkpt><trkpt lat="45.9063826778631" lon="10.879184376056502"><ele>81.33333333333333</ele><time>2026-04-18T07:46:16Z</time></trkpt><trkpt lat="45.90656226158615" lon="10.879286739992397"><ele>80.66666666666667</ele><time>2026-04-18T07:46:17Z</time></trkpt><trkpt lat="45.90675197013477" lon="10.87938679148279"><ele>80.0</ele><time>2026-04-18T07:46:18Z</time></trkpt><trkpt lat="45.906952730446406" lon="10.879481075864058"><ele>80.0</ele><time>2026-04-18T07:46:19Z</time></trkpt><trkpt lat="45.9071611361763" lon="10.879575946196512"><ele>80.0</ele><time>2026-04-18T07:46:20Z</time></trkpt><trkpt lat="45.907373866703566" lon="10.87967346445448"><ele>80.0</ele><time>2026-04-18T07:46:21Z</time></trkpt><trkpt lat="45.90757964155129" lon="10.87977017630203"><ele>80.33333333333334</ele><time>2026-04-18T07:46:22Z</time></trkpt><trkpt lat="45.907773739924025" lon="10.879865045239363"><ele>80.66666666666667</ele><time>2026-04-18T07:46:23Z</time></trkpt><trkpt lat="45.90796065540132" lon="10.879949429083116"><ele>81.0</ele><time>2026-04-18T07:46:24Z</time></trkpt><trkpt lat="45.90812380302828" lon="10.880015310952105"><ele>81.0</ele><time>2026-04-18T07:46:25Z</time></trkpt><trkpt lat="45.9082646303981" lon="10.880047591300034"><ele>81.0</ele><time>2026-04-18T07:46:26Z</time></trkpt><trkpt lat="45.908381061046484" lon="10.880050435860065"><ele>81.0</ele><time>2026-04-18T07:46:27Z</time></trkpt><trkpt lat="45.9084864668304" lon="10.88006405045857"><ele>81.0</ele><time>2026-04-18T07:46:28Z</time></trkpt><trkpt lat="45.90857061016609" lon="10.8801165763335"><ele>80.8</ele><time>2026-04-18T07:46:29Z</time></trkpt><trkpt lat="45.908649414616775" lon="10.880156008371726"><ele>80.6</ele><time>2026-04-18T07:46:30Z</time></trkpt><trkpt lat="45.90870348343009" lon="10.8802672425247"><ele>80.4</ele><time>2026-04-18T07:46:31Z</time></trkpt><trkpt lat="45.908756587171055" lon="10.880370818691608"><ele>80.2</ele><time>2026-04-18T07:46:32Z</time></trkpt><trkpt lat="45.90879938314855" lon="10.880506042258029"><ele>80.0</ele><time>2026-04-18T07:46:33Z</time></trkpt><trkpt lat="45.90882313384647" lon="10.880665737162616"><ele>80.0</ele><time>2026-04-18T07:46:34Z</time></trkpt><trkpt lat="45.90882635605844" lon="10.880853636117664"><ele>80.0</ele><time>2026-04-18T07:46:35Z</time></trkpt><trkpt lat="45.908831350720774" lon="10.881058407681055"><ele>80.0</ele><time>2026-04-18T07:46:36Z</time></trkpt><trkpt lat="45.908873634621244" lon="10.881248266540645"><ele>80.0</ele><time>2026-04-18T07:46:37Z</time></trkpt><trkpt lat="45.90893223305064" lon="10.881463113463367"><ele>80.0</ele><time>2026-04-18T07:46:38Z</time></trkpt><trkpt lat="45.909002481630694" lon="10.881699851160942"><ele>80.0</ele><time>2026-04-18T07:46:39Z</time></trkpt><trkpt lat="45.90907681003184" lon="10.88194987172197"><ele>80.0</ele><time>2026-04-18T07:46:40Z</time></trkpt><trkpt lat="45.90915058368353" lon="10.8821938950146"><ele>80.0</ele><time>2026-04-18T07:46:41Z</time></trkpt><trkpt lat="45.90922979724117" lon="10.882455485848435"><ele>80.0</ele><time>2026-04-18T07:46:42Z</time></trkpt><trkpt lat="45.90931503760354" lon="10.882718674124009"><ele>80.0</ele><time>2026-04-18T07:46:43Z</time></trkpt><trkpt lat="45.909408893173556" lon="10.882963790622737"><ele>80.33333333333334</ele><time>2026-04-18T07:46:44Z</time></trkpt><trkpt lat="45.9095148851916" lon="10.883182965171981"><ele>80.66666666666667</ele><time>2026-04-18T07:46:45Z</time></trkpt><trkpt lat="45.90963226211446" lon="10.883374519492532"><ele>81.0</ele><time>2026-04-18T07:46:46Z</time></trkpt><trkpt lat="45.90976072691299" lon="10.88353352354929"><ele>81.33333333333333</ele><time>2026-04-18T07:46:47Z</time></trkpt><trkpt lat="45.909891581035296" lon="10.88367290828373"><ele>81.66666666666666</ele><time>2026-04-18T07:46:48Z</time></trkpt><trkpt lat="45.91002200622367" lon="10.88379615711853"><ele>82.0</ele><time>2026-04-18T07:46:49Z</time></trkpt><trkpt lat="45.91015138899592" lon="10.883895672367307"><ele>82.0</ele><time>2026-04-18T07:46:50Z</time></trkpt><trkpt lat="45.91029057414292" lon="10.883981319114211"><ele>82.0</ele><time>2026-04-18T07:46:51Z</time></trkpt><trkpt lat="45.9104344620519" lon="10.884055012043442"><ele>82.0</ele><time>2026-04-18T07:46:52Z</time></trkpt><trkpt lat="45.910575555576735" lon="10.884125895472371"><ele>82.0</ele><time>2026-04-18T07:46:53Z</time></trkpt><trkpt lat="45.910715236399874" lon="10.884198925075157"><ele>82.0</ele><time>2026-04-18T07:46:54Z</time></trkpt><trkpt lat="45.910857668576654" lon="10.88427267506089"><ele>82.0</ele><time>2026-04-18T07:46:55Z</time></trkpt><trkpt lat="45.91100474668349" lon="10.88434497094426"><ele>82.66666666666666</ele><time>2026-04-18T07:46:56Z</time></trkpt><trkpt lat="45.911150463865596" lon="10.88442180309164"><ele>83.33333333333333</ele><time>2026-04-18T07:46:57Z</time></trkpt><trkpt lat="45.91129414230496" lon="10.88450474820359"><ele>84.0</ele><time>2026-04-18T07:46:58Z</time></trkpt><trkpt lat="45.911438869133235" lon="10.88459536030266"><ele>84.0</ele><time>2026-04-18T07:46:59Z</time></trkpt><trkpt lat="45.91158404095139" lon="10.884698514816842"><ele>84.0</ele><time>2026-04-18T07:47:00Z</time></trkpt><trkpt lat="45.91172409775148" lon="10.884812093312496"><ele>84.0</ele><time>2026-04-18T07:47:01Z</time></trkpt><trkpt lat="45.9118625495763" lon="10.884935803474148"><ele>84.33333333333333</ele><time>2026-04-18T07:47:02Z</time></trkpt><trkpt lat="45.912006609536526" lon="10.885073263745578"><ele>84.66666666666666</ele><time>2026-04-18T07:47:03Z</time></trkpt><trkpt lat="45.91215858361893" lon="10.88523394401866"><ele>85.0</ele><time>2026-04-18T07:47:04Z</time></trkpt><trkpt lat="45.91231192531024" lon="10.88542239782289"><ele>84.33333333333333</ele><time>2026-04-18T07:47:05Z</time></trkpt><trkpt lat="45.912459944605736" lon="10.885633664969752"><ele>83.66666666666667</ele><time>2026-04-18T07:47:06Z</time></trkpt><trkpt lat="45.91259181296419" lon="10.885852885292918"><ele>83.0</ele><time>2026-04-18T07:47:07Z</time></trkpt><trkpt lat="45.912713821690694" lon="10.886072026234741"><ele>82.66666666666667</ele><time>2026-04-18T07:47:08Z</time></trkpt><trkpt lat="45.91282529140622" lon="10.886295561307755"><ele>82.33333333333333</ele><time>2026-04-18T07:47:09Z</time></trkpt><trkpt lat="45.912927886460686" lon="10.886510108817928"><ele>82.0</ele><time>2026-04-18T07:47:10Z</time></trkpt><trkpt lat="45.91301757176828" lon="10.886700151614685"><ele>82.25</ele><time>2026-04-18T07:47:11Z</time></trkpt><trkpt lat="45.91310341640285" lon="10.886879283587193"><ele>82.5</ele><time>2026-04-18T07:47:12Z</time></trkpt><trkpt lat="45.913185132349206" lon="10.887055763423668"><ele>82.75</ele><time>2026-04-18T07:47:13Z</time></trkpt><trkpt lat="45.913267425485245" lon="10.88722786882473"><ele>83.0</ele><time>2026-04-18T07:47:14Z</time></trkpt><trkpt lat="45.913349540474584" lon="10.887405908057898"><ele>83.0</ele><time>2026-04-18T07:47:15Z</time></trkpt><trkpt lat="45.91342981991711" lon="10.887588667740692"><ele>83.0</ele><time>2026-04-18T07:47:16Z</time></trkpt><trkpt lat="45.913500310578414" lon="10.887772021189356"><ele>83.0</ele><time>2026-04-18T07:47:17Z</time></trkpt><trkpt lat="45.91356195060495" lon="10.887955087524277"><ele>83.0</ele><time>2026-04-18T07:47:18Z</time></trkpt><trkpt lat="45.913614192395556" lon="10.888146656308821"><ele>83.25</ele><time>2026-04-18T07:47:19Z</time></trkpt><trkpt lat="45.91365631673233" lon="10.888344748348233"><ele>83.5</ele><time>2026-04-18T07:47:20Z</time></trkpt><trkpt lat="45.913688137774926" lon="10.88855323638633"><ele>83.75</ele><time>2026-04-18T07:47:21Z</time></trkpt><trkpt lat="45.91370422072492" lon="10.888764009962307"><ele>84.0</ele><time>2026-04-18T07:47:22Z</time></trkpt><trkpt lat="45.91370249610009" lon="10.888984018281546"><ele>84.33333333333333</ele><time>2026-04-18T07:47:23Z</time></trkpt><trkpt lat="45.91369361060193" lon="10.889203659309354"><ele>84.66666666666666</ele><time>2026-04-18T07:47:24Z</time></trkpt><trkpt lat="45.913672503504145" lon="10.889431867078253"><ele>85.0</ele><time>2026-04-18T07:47:25Z</time></trkpt><trkpt lat="45.91364433071964" lon="10.889671488770723"><ele>85.0</ele><time>2026-04-18T07:47:26Z</time></trkpt><trkpt lat="45.91360051913128" lon="10.889914916636199"><ele>85.0</ele><time>2026-04-18T07:47:27Z</time></trkpt><trkpt lat="45.91354726236803" lon="10.890148203305019"><ele>85.0</ele><time>2026-04-18T07:47:28Z</time></trkpt><trkpt lat="45.9134998428479" lon="10.890368922783187"><ele>85.33333333333333</ele><time>2026-04-18T07:47:29Z</time></trkpt><trkpt lat="45.913458005355615" lon="10.8905795218118"><ele>85.66666666666667</ele><time>2026-04-18T07:47:30Z</time></trkpt><trkpt lat="45.91341172609238" lon="10.890794652008852"><ele>86.0</ele><time>2026-04-18T07:47:31Z</time></trkpt><trkpt lat="45.91336518421345" lon="10.891015664658703"><ele>88.0</ele><time>2026-04-18T07:47:32Z</time></trkpt><trkpt lat="45.913315310153806" lon="10.891251163043723"><ele>90.0</ele><time>2026-04-18T07:47:33Z</time></trkpt><trkpt lat="45.913266086275655" lon="10.891492531143797"><ele>92.0</ele><time>2026-04-18T07:47:34Z</time></trkpt><trkpt lat="45.91321825260751" lon="10.891720190696345"><ele>92.33333333333334</ele><time>2026-04-18T07:47:35Z</time></trkpt><trkpt lat="45.91317056481451" lon="10.891945495290882"><ele>92.66666666666667</ele><time>2026-04-18T07:47:36Z</time></trkpt><trkpt lat="45.913126739006444" lon="10.892176942472643"><ele>93.0</ele><time>2026-04-18T07:47:37Z</time></trkpt><trkpt lat="45.913092153248705" lon="10.892419206216768"><ele>93.33333333333333</ele><time>2026-04-18T07:47:38Z</time></trkpt><trkpt lat="45.913071286077425" lon="10.892652985771834"><ele>93.66666666666666</ele><time>2026-04-18T07:47:39Z</time></trkpt><trkpt lat="45.91306797193002" lon="10.892876777413385"><ele>94.0</ele><time>2026-04-18T07:47:40Z</time></trkpt><trkpt lat="45.91308003608892" lon="10.893098628383516"><ele>94.0</ele><time>2026-04-18T07:47:41Z</time></trkpt><trkpt lat="45.91310791560595" lon="10.89331822890022"><ele>94.0</ele><time>2026-04-18T07:47:42Z</time></trkpt><trkpt lat="45.913151683715384" lon="10.893533718869936"><ele>94.0</ele><time>2026-04-18T07:47:43Z</time></trkpt><trkpt lat="45.91320924578355" lon="10.8937533953925"><ele>94.66666666666666</ele><time>2026-04-18T07:47:44Z</time></trkpt><trkpt lat="45.91328045051719" lon="10.893967172179172"><ele>95.33333333333333</ele><time>2026-04-18T07:47:45Z</time></trkpt><trkpt lat="45.91337010596312" lon="10.894170222889523"><ele>96.0</ele><time>2026-04-18T07:47:46Z</time></trkpt><trkpt lat="45.913473360799124" lon="10.894349583921805"><ele>96.5</ele><time>2026-04-18T07:47:47Z</time></trkpt><trkpt lat="45.91358206496854" lon="10.89450176064675"><ele>97.0</ele><time>2026-04-18T07:47:48Z</time></trkpt><trkpt lat="45.913687227035645" lon="10.89462927292251"><ele>97.5</ele><time>2026-04-18T07:47:49Z</time></trkpt><trkpt lat="45.91378593506247" lon="10.894734903765055"><ele>98.0</ele><time>2026-04-18T07:47:50Z</time></trkpt><trkpt lat="45.91387883831049" lon="10.894819454007996"><ele>98.0</ele><time>2026-04-18T07:47:51Z</time></trkpt><trkpt lat="45.91395207714793" lon="10.894884882504485"><ele>98.0</ele><time>2026-04-18T07:47:52Z</time></trkpt><trkpt lat="45.91403764499642" lon="10.895003029538264"><ele>98.0</ele><time>2026-04-18T07:47:54Z</time></trkpt><trkpt lat="45.91412415326865" lon="10.895131606523426"><ele>98.0</ele><time>2026-04-18T07:47:56Z</time></trkpt><trkpt lat="45.91416977357977" lon="10.89521293597939"><ele>98.0</ele><time>2026-04-18T07:47:57Z</time></trkpt><trkpt lat="45.914234540189035" lon="10.895296569168355"><ele>98.5</ele><time>2026-04-18T07:47:58Z</time></trkpt><trkpt lat="45.91432804428366" lon="10.895353690655515"><ele>99.0</ele><time>2026-04-18T07:47:59Z</time></trkpt><trkpt lat="45.91444242591197" lon="10.89538692329621"><ele>99.5</ele><time>2026-04-18T07:48:00Z</time></trkpt><trkpt lat="45.91456294322586" lon="10.89540867791432"><ele>100.0</ele><time>2026-04-18T07:48:01Z</time></trkpt><trkpt lat="45.91467854762406" lon="10.895401285408786"><ele>100.0</ele><time>2026-04-18T07:48:02Z</time></trkpt><trkpt lat="45.91479439028091" lon="10.895368637050105"><ele>100.0</ele><time>2026-04-18T07:48:03Z</time></trkpt><trkpt lat="45.91491569351893" lon="10.895325800435812"><ele>100.0</ele><time>2026-04-18T07:48:04Z</time></trkpt><trkpt lat="45.91504322198332" lon="10.895332401109922"><ele>100.0</ele><time>2026-04-18T07:48:05Z</time></trkpt><trkpt lat="45.915177185866185" lon="10.89538502595507"><ele>100.0</ele><time>2026-04-18T07:48:06Z</time></trkpt><trkpt lat="45.91532828174351" lon="10.895460315513155"><ele>100.0</ele><time>2026-04-18T07:48:07Z</time></trkpt><trkpt lat="45.91550264673285" lon="10.895526971108282"><ele>100.0</ele><time>2026-04-18T07:48:08Z</time></trkpt><trkpt lat="45.91569733942336" lon="10.895586129715348"><ele>100.0</ele><time>2026-04-18T07:48:09Z</time></trkpt><trkpt lat="45.91589621847145" lon="10.895642988385895"><ele>100.0</ele><time>2026-04-18T07:48:10Z</time></trkpt><trkpt lat="45.91610748559254" lon="10.8957039231514"><ele>100.0</ele><time>2026-04-18T07:48:11Z</time></trkpt><trkpt lat="45.916334427062964" lon="10.895766521975025"><ele>100.0</ele><time>2026-04-18T07:48:12Z</time></trkpt><trkpt lat="45.916568682650514" lon="10.895828627509506"><ele>100.0</ele><time>2026-04-18T07:48:13Z</time></trkpt><trkpt lat="45.91680772344073" lon="10.895887986569763"><ele>100.5</ele><time>2026-04-18T07:48:14Z</time></trkpt><trkpt lat="45.917051869806365" lon="10.89594696826239"><ele>101.0</ele><time>2026-04-18T07:48:15Z</time></trkpt><trkpt lat="45.91729394694082" lon="10.896035589782153"><ele>101.0</ele><time>2026-04-18T07:48:16Z</time></trkpt><trkpt lat="45.91753790258652" lon="10.896101192844487"><ele>101.0</ele><time>2026-04-18T07:48:17Z</time></trkpt><trkpt lat="45.917781850763795" lon="10.896166522456255"><ele>101.5</ele><time>2026-04-18T07:48:18Z</time></trkpt><trkpt lat="45.91802019333843" lon="10.896230036648863"><ele>102.0</ele><time>2026-04-18T07:48:19Z</time></trkpt><trkpt lat="45.91825195390768" lon="10.89629179684895"><ele>101.0</ele><time>2026-04-18T07:48:20Z</time></trkpt><trkpt lat="45.918479156872806" lon="10.896352342544873"><ele>100.0</ele><time>2026-04-18T07:48:21Z</time></trkpt><trkpt lat="45.91869439671324" lon="10.89642525242475"><ele>100.0</ele><time>2026-04-18T07:48:22Z</time></trkpt><trkpt lat="45.918913108191525" lon="10.896471547421298"><ele>100.0</ele><time>2026-04-18T07:48:23Z</time></trkpt><trkpt lat="45.919119544338194" lon="10.896523906486856"><ele>100.0</ele><time>2026-04-18T07:48:24Z</time></trkpt><trkpt lat="45.91932870160961" lon="10.896579969224344"><ele>100.0</ele><time>2026-04-18T07:48:25Z</time></trkpt><trkpt lat="45.91954279510609" lon="10.896631784450392"><ele>100.0</ele><time>2026-04-18T07:48:26Z</time></trkpt><trkpt lat="45.91975871528026" lon="10.896659144522811"><ele>100.0</ele><time>2026-04-18T07:48:27Z</time></trkpt><trkpt lat="45.919980074633955" lon="10.89665308179364"><ele>100.0</ele><time>2026-04-18T07:48:28Z</time></trkpt><trkpt lat="45.9201960203727" lon="10.896610973251441"><ele>100.0</ele><time>2026-04-18T07:48:29Z</time></trkpt><trkpt lat="45.92040271719167" lon="10.896540793273228"><ele>100.0</ele><time>2026-04-18T07:48:30Z</time></trkpt><trkpt lat="45.92060258682144" lon="10.896442889638955"><ele>100.0</ele><time>2026-04-18T07:48:31Z</time></trkpt><trkpt lat="45.92079011768798" lon="10.896313704714142"><ele>100.0</ele><time>2026-04-18T07:48:32Z</time></trkpt><trkpt lat="45.920966183039624" lon="10.896158999224738"><ele>100.0</ele><time>2026-04-18T07:48:33Z</time></trkpt><trkpt lat="45.9211362439188" lon="10.895975410546352"><ele>99.33333333333334</ele><time>2026-04-18T07:48:34Z</time></trkpt><trkpt lat="45.92128690518083" lon="10.895766118833832"><ele>98.66666666666666</ele><time>2026-04-18T07:48:35Z</time></trkpt><trkpt lat="45.92141997020523" lon="10.895541568669021"><ele>98.0</ele><time>2026-04-18T07:48:36Z</time></trkpt><trkpt lat="45.92153111036031" lon="10.895314501631741"><ele>98.0</ele><time>2026-04-18T07:48:37Z</time></trkpt><trkpt lat="45.9216228364587" lon="10.895078189216367"><ele>98.0</ele><time>2026-04-18T07:48:38Z</time></trkpt><trkpt lat="45.921703069866446" lon="10.89484962062559"><ele>98.0</ele><time>2026-04-18T07:48:39Z</time></trkpt><trkpt lat="45.92177870928429" lon="10.894635363028646"><ele>98.0</ele><time>2026-04-18T07:48:40Z</time></trkpt><trkpt lat="45.92186672723573" lon="10.894432777715174"><ele>98.0</ele><time>2026-04-18T07:48:41Z</time></trkpt><trkpt lat="45.921974158724325" lon="10.894239932408505"><ele>98.0</ele><time>2026-04-18T07:48:42Z</time></trkpt><trkpt lat="45.922102167589685" lon="10.894063086831352"><ele>96.33333333333333</ele><time>2026-04-18T07:48:43Z</time></trkpt><trkpt lat="45.92224503327333" lon="10.893917376426593"><ele>94.66666666666666</ele><time>2026-04-18T07:48:44Z</time></trkpt><trkpt lat="45.92240136221726" lon="10.893787722759027"><ele>93.0</ele><time>2026-04-18T07:48:45Z</time></trkpt><trkpt lat="45.922555346736225" lon="10.893688128135947"><ele>93.33333333333333</ele><time>2026-04-18T07:48:46Z</time></trkpt><trkpt lat="45.9227118754773" lon="10.893629695459943"><ele>93.66666666666666</ele><time>2026-04-18T07:48:47Z</time></trkpt><trkpt lat="45.922870771446995" lon="10.8935782904108"><ele>94.0</ele><time>2026-04-18T07:48:48Z</time></trkpt><trkpt lat="45.92302338606995" lon="10.893529060988183"><ele>94.0</ele><time>2026-04-18T07:48:49Z</time></trkpt><trkpt lat="45.92313266849194" lon="10.893471147075617"><ele>94.0</ele><time>2026-04-18T07:48:50Z</time></trkpt><trkpt lat="45.92322917942257" lon="10.893456336061275"><ele>94.0</ele><time>2026-04-18T07:48:51Z</time></trkpt><trkpt lat="45.923315639880336" lon="10.893438391723443"><ele>94.0</ele><time>2026-04-18T07:48:52Z</time></trkpt><trkpt lat="45.92339980106776" lon="10.893442141917246"><ele>94.0</ele><time>2026-04-18T07:48:53Z</time></trkpt><trkpt lat="45.92349180343397" lon="10.893465326661103"><ele>93.75</ele><time>2026-04-18T07:48:54Z</time></trkpt><trkpt lat="45.923602982754915" lon="10.893482832454886"><ele>93.5</ele><time>2026-04-18T07:48:55Z</time></trkpt><trkpt lat="45.92372616272482" lon="10.893515587966812"><ele>93.25</ele><time>2026-04-18T07:48:56Z</time></trkpt><trkpt lat="45.923845670172" lon="10.893587861737398"><ele>93.0</ele><time>2026-04-18T07:48:57Z</time></trkpt><trkpt lat="45.92395618491627" lon="10.89368030648685"><ele>93.0</ele><time>2026-04-18T07:48:58Z</time></trkpt><trkpt lat="45.92405434979453" lon="10.893771012230173"><ele>93.0</ele><time>2026-04-18T07:48:59Z</time></trkpt><trkpt lat="45.924151571204106" lon="10.893846567588321"><ele>93.0</ele><time>2026-04-18T07:49:00Z</time></trkpt><trkpt lat="45.9242478607672" lon="10.893917833504078"><ele>93.0</ele><time>2026-04-18T07:49:01Z</time></trkpt><trkpt lat="45.924347011666704" lon="10.893996547642795"><ele>93.0</ele><time>2026-04-18T07:49:02Z</time></trkpt><trkpt lat="45.92445561871918" lon="10.894078606441127"><ele>92.5</ele><time>2026-04-18T07:49:03Z</time></trkpt><trkpt lat="45.924578774197975" lon="10.894154928431647"><ele>92.0</ele><time>2026-04-18T07:49:04Z</time></trkpt><trkpt lat="45.92471528062801" lon="10.894215056386376"><ele>91.5</ele><time>2026-04-18T07:49:05Z</time></trkpt><trkpt lat="45.92484668683033" lon="10.894284934179474"><ele>91.0</ele><time>2026-04-18T07:49:06Z</time></trkpt><trkpt lat="45.92497219812949" lon="10.894345276057258"><ele>91.25</ele><time>2026-04-18T07:49:07Z</time></trkpt><trkpt lat="45.925090944053395" lon="10.89440491069651"><ele>91.5</ele><time>2026-04-18T07:49:08Z</time></trkpt><trkpt lat="45.925216183503515" lon="10.89446896515923"><ele>91.75</ele><time>2026-04-18T07:49:09Z</time></trkpt><trkpt lat="45.925343575840245" lon="10.894533139653172"><ele>92.0</ele><time>2026-04-18T07:49:10Z</time></trkpt><trkpt lat="45.92546588487835" lon="10.894594927192246"><ele>92.0</ele><time>2026-04-18T07:49:11Z</time></trkpt><trkpt lat="45.925598043535146" lon="10.894661798748606"><ele>92.0</ele><time>2026-04-18T07:49:12Z</time></trkpt><trkpt lat="45.92574965707351" lon="10.894737835987073"><ele>92.0</ele><time>2026-04-18T07:49:13Z</time></trkpt><trkpt lat="45.925911470161864" lon="10.89481866067736"><ele>92.0</ele><time>2026-04-18T07:49:14Z</time></trkpt><trkpt lat="45.92608168769118" lon="10.894903683430877"><ele>92.0</ele><time>2026-04-18T07:49:15Z</time></trkpt><trkpt lat="45.926257547484184" lon="10.894991601680426"><ele>92.0</ele><time>2026-04-18T07:49:16Z</time></trkpt><trkpt lat="45.9264294501065" lon="10.895078170704686"><ele>92.33333333333334</ele><time>2026-04-18T07:49:17Z</time></trkpt><trkpt lat="45.92659312370883" lon="10.895160595647763"><ele>92.66666666666667</ele><time>2026-04-18T07:49:18Z</time></trkpt><trkpt lat="45.926748840592225" lon="10.895239013660733"><ele>93.0</ele><time>2026-04-18T07:49:19Z</time></trkpt><trkpt lat="45.92689798402957" lon="10.895314121336076"><ele>93.0</ele><time>2026-04-18T07:49:20Z</time></trkpt><trkpt lat="45.9270402309688" lon="10.895385756013827"><ele>93.0</ele><time>2026-04-18T07:49:21Z</time></trkpt><trkpt lat="45.92718733107476" lon="10.895439745118155"><ele>93.0</ele><time>2026-04-18T07:49:22Z</time></trkpt><trkpt lat="45.92733400951137" lon="10.895517733041396"><ele>93.0</ele><time>2026-04-18T07:49:23Z</time></trkpt><trkpt lat="45.92748539639826" lon="10.895595432170042"><ele>93.0</ele><time>2026-04-18T07:49:24Z</time></trkpt><trkpt lat="45.92764298645466" lon="10.895671109785917"><ele>93.0</ele><time>2026-04-18T07:49:25Z</time></trkpt><trkpt lat="45.92779328387941" lon="10.895765492963022"><ele>92.75</ele><time>2026-04-18T07:49:26Z</time></trkpt><trkpt lat="45.92794466787411" lon="10.89582528456352"><ele>92.5</ele><time>2026-04-18T07:49:27Z</time></trkpt><trkpt lat="45.92809100088689" lon="10.895849171559949"><ele>92.25</ele><time>2026-04-18T07:49:28Z</time></trkpt><trkpt lat="45.92822535102386" lon="10.89589464934039"><ele>92.0</ele><time>2026-04-18T07:49:29Z</time></trkpt><trkpt lat="45.92836242120499" lon="10.89591588047421"><ele>92.33333333333334</ele><time>2026-04-18T07:49:30Z</time></trkpt><trkpt lat="45.92851459503827" lon="10.895956365100163"><ele>92.66666666666667</ele><time>2026-04-18T07:49:31Z</time></trkpt><trkpt lat="45.92868554872619" lon="10.895983951572024"><ele>93.0</ele><time>2026-04-18T07:49:32Z</time></trkpt><trkpt lat="45.92887076482514" lon="10.895993647473851"><ele>93.0</ele><time>2026-04-18T07:49:33Z</time></trkpt><trkpt lat="45.92906042651181" lon="10.896040148595985"><ele>93.0</ele><time>2026-04-18T07:49:34Z</time></trkpt><trkpt lat="45.92925231364703" lon="10.896073563773612"><ele>93.0</ele><time>2026-04-18T07:49:35Z</time></trkpt><trkpt lat="45.9294444195764" lon="10.896103325831435"><ele>94.66666666666666</ele><time>2026-04-18T07:49:36Z</time></trkpt><trkpt lat="45.92963229212278" lon="10.896133624948405"><ele>96.33333333333333</ele><time>2026-04-18T07:49:37Z</time></trkpt><trkpt lat="45.92981914002388" lon="10.896163444546097"><ele>98.0</ele><time>2026-04-18T07:49:38Z</time></trkpt><trkpt lat="45.93000209240536" lon="10.896194178056707"><ele>99.33333333333333</ele><time>2026-04-18T07:49:39Z</time></trkpt><trkpt lat="45.93017192050213" lon="10.896221346782246"><ele>100.66666666666666</ele><time>2026-04-18T07:49:40Z</time></trkpt><trkpt lat="45.930320775535826" lon="10.896243814221751"><ele>102.0</ele><time>2026-04-18T07:49:41Z</time></trkpt><trkpt lat="45.93044955415323" lon="10.896258845981318"><ele>102.0</ele><time>2026-04-18T07:49:42Z</time></trkpt><trkpt lat="45.930551155588375" lon="10.896271101126793"><ele>102.0</ele><time>2026-04-18T07:49:43Z</time></trkpt><trkpt lat="45.93063172937382" lon="10.8962817492094"><ele>102.0</ele><time>2026-04-18T07:49:44Z</time></trkpt><trkpt lat="45.930739413014514" lon="10.896303509551071"><ele>102.0</ele><time>2026-04-18T07:49:46Z</time></trkpt><trkpt lat="45.930807384283135" lon="10.896312372771119"><ele>102.0</ele><time>2026-04-18T07:49:48Z</time></trkpt><trkpt lat="45.930869884577525" lon="10.896328858176979"><ele>102.0</ele><time>2026-04-18T07:49:54Z</time></trkpt><trkpt lat="45.93093531173549" lon="10.89634723546253"><ele>101.19999999999999</ele><time>2026-04-18T07:49:56Z</time></trkpt><trkpt lat="45.931044870166346" lon="10.89635280045857"><ele>100.4</ele><time>2026-04-18T07:49:58Z</time></trkpt><trkpt lat="45.93110841236885" lon="10.896362113080668"><ele>99.6</ele><time>2026-04-18T07:49:59Z</time></trkpt><trkpt lat="45.931199385696935" lon="10.896376803038162"><ele>98.80000000000001</ele><time>2026-04-18T07:50:00Z</time></trkpt><trkpt lat="45.93130419361753" lon="10.896399852801332"><ele>98.0</ele><time>2026-04-18T07:50:01Z</time></trkpt><trkpt lat="45.931402874085286" lon="10.896412074297473"><ele>98.0</ele><time>2026-04-18T07:50:02Z</time></trkpt><trkpt lat="45.9314995047597" lon="10.896427396365258"><ele>98.0</ele><time>2026-04-18T07:50:03Z</time></trkpt><trkpt lat="45.93160654809291" lon="10.896442711014778"><ele>98.0</ele><time>2026-04-18T07:50:04Z</time></trkpt><trkpt lat="45.93172016628148" lon="10.896468081748019"><ele>98.0</ele><time>2026-04-18T07:50:05Z</time></trkpt><trkpt lat="45.931847363331194" lon="10.896486167727145"><ele>98.0</ele><time>2026-04-18T07:50:06Z</time></trkpt><trkpt lat="45.931975766698294" lon="10.896505524309758"><ele>97.0</ele><time>2026-04-18T07:50:07Z</time></trkpt><trkpt lat="45.9321067218628" lon="10.896527548917376"><ele>96.0</ele><time>2026-04-18T07:50:08Z</time></trkpt><trkpt lat="45.93224662666509" lon="10.896553009192946"><ele>95.0</ele><time>2026-04-18T07:50:09Z</time></trkpt><trkpt lat="45.93239417968367" lon="10.896584875684233"><ele>94.0</ele><time>2026-04-18T07:50:10Z</time></trkpt><trkpt lat="45.93254730461157" lon="10.896632032901657"><ele>94.0</ele><time>2026-04-18T07:50:11Z</time></trkpt><trkpt lat="45.932709622384415" lon="10.896692659900621"><ele>94.0</ele><time>2026-04-18T07:50:12Z</time></trkpt><trkpt lat="45.93287608713607" lon="10.89676043676261"><ele>94.0</ele><time>2026-04-18T07:50:13Z</time></trkpt><trkpt lat="45.933042449935975" lon="10.896829578604748"><ele>94.33333333333333</ele><time>2026-04-18T07:50:14Z</time></trkpt><trkpt lat="45.93320765812669" lon="10.896898926881681"><ele>94.66666666666667</ele><time>2026-04-18T07:50:15Z</time></trkpt><trkpt lat="45.93336878808029" lon="10.896971197433583"><ele>95.0</ele><time>2026-04-18T07:50:16Z</time></trkpt><trkpt lat="45.93353023005324" lon="10.897042693766291"><ele>94.33333333333334</ele><time>2026-04-18T07:50:17Z</time></trkpt><trkpt lat="45.933687992515836" lon="10.89711434747596"><ele>93.66666666666667</ele><time>2026-04-18T07:50:18Z</time></trkpt><trkpt lat="45.93384357391191" lon="10.897184123249504"><ele>93.0</ele><time>2026-04-18T07:50:19Z</time></trkpt><trkpt lat="45.933998853116215" lon="10.897251777546282"><ele>93.0</ele><time>2026-04-18T07:50:20Z</time></trkpt><trkpt lat="45.934153773047335" lon="10.89732148093594"><ele>93.0</ele><time>2026-04-18T07:50:21Z</time></trkpt><trkpt lat="45.934309484467704" lon="10.897391457588201"><ele>93.0</ele><time>2026-04-18T07:50:22Z</time></trkpt><trkpt lat="45.9344693493525" lon="10.89746534959478"><ele>93.33333333333333</ele><time>2026-04-18T07:50:23Z</time></trkpt><trkpt lat="45.93463301781194" lon="10.897540629295289"><ele>93.66666666666666</ele><time>2026-04-18T07:50:24Z</time></trkpt><trkpt lat="45.934799916047204" lon="10.897617189196465"><ele>94.0</ele><time>2026-04-18T07:50:25Z</time></trkpt><trkpt lat="45.93497087383428" lon="10.89769648573905"><ele>93.66666666666666</ele><time>2026-04-18T07:50:26Z</time></trkpt><trkpt lat="45.93514662273575" lon="10.897778823714257"><ele>93.33333333333333</ele><time>2026-04-18T07:50:27Z</time></trkpt><trkpt lat="45.93532602723426" lon="10.897858869602388"><ele>93.0</ele><time>2026-04-18T07:50:28Z</time></trkpt><trkpt lat="45.93550165909121" lon="10.8979365539379"><ele>93.0</ele><time>2026-04-18T07:50:29Z</time></trkpt><trkpt lat="45.935669891905285" lon="10.898015999358826"><ele>93.0</ele><time>2026-04-18T07:50:30Z</time></trkpt><trkpt lat="45.93582982468277" lon="10.898102172767206"><ele>93.0</ele><time>2026-04-18T07:50:31Z</time></trkpt><trkpt lat="45.93597820306106" lon="10.898213054427712"><ele>92.33333333333333</ele><time>2026-04-18T07:50:32Z</time></trkpt><trkpt lat="45.936124539513614" lon="10.898349905093571"><ele>91.66666666666666</ele><time>2026-04-18T07:50:33Z</time></trkpt><trkpt lat="45.93627044380588" lon="10.898506698911044"><ele>91.0</ele><time>2026-04-18T07:50:34Z</time></trkpt><trkpt lat="45.936419652736085" lon="10.89867842026323"><ele>92.33333333333333</ele><time>2026-04-18T07:50:35Z</time></trkpt><trkpt lat="45.93656947957372" lon="10.898848399880693"><ele>93.66666666666667</ele><time>2026-04-18T07:50:36Z</time></trkpt><trkpt lat="45.936702871554836" lon="10.89903811833101"><ele>95.0</ele><time>2026-04-18T07:50:37Z</time></trkpt><trkpt lat="45.936841798651955" lon="10.899204865423922"><ele>96.0</ele><time>2026-04-18T07:50:38Z</time></trkpt><trkpt lat="45.936976721322296" lon="10.899365674343484"><ele>97.0</ele><time>2026-04-18T07:50:39Z</time></trkpt><trkpt lat="45.93712082622622" lon="10.899509786048775"><ele>98.0</ele><time>2026-04-18T07:50:40Z</time></trkpt><trkpt lat="45.9372446596274" lon="10.899684346158296"><ele>98.0</ele><time>2026-04-18T07:50:41Z</time></trkpt><trkpt lat="45.93738339807139" lon="10.89983969766819"><ele>98.0</ele><time>2026-04-18T07:50:42Z</time></trkpt><trkpt lat="45.93752353478255" lon="10.899979125224318"><ele>98.0</ele><time>2026-04-18T07:50:43Z</time></trkpt><trkpt lat="45.9376661579139" lon="10.900097887725313"><ele>97.66666666666666</ele><time>2026-04-18T07:50:44Z</time></trkpt><trkpt lat="45.937813317747086" lon="10.900201719526759"><ele>97.33333333333334</ele><time>2026-04-18T07:50:45Z</time></trkpt><trkpt lat="45.937962600157455" lon="10.90030403230587"><ele>97.0</ele><time>2026-04-18T07:50:46Z</time></trkpt><trkpt lat="45.938115490932596" lon="10.900406870144938"><ele>97.0</ele><time>2026-04-18T07:50:47Z</time></trkpt><trkpt lat="45.93827319394403" lon="10.90051213239917"><ele>97.0</ele><time>2026-04-18T07:50:48Z</time></trkpt><trkpt lat="45.93843173821932" lon="10.900615575412584"><ele>97.0</ele><time>2026-04-18T07:50:49Z</time></trkpt><trkpt lat="45.93859589008518" lon="10.90071124752372"><ele>96.66666666666667</ele><time>2026-04-18T07:50:50Z</time></trkpt><trkpt lat="45.93876350638048" lon="10.900791030602752"><ele>96.33333333333334</ele><time>2026-04-18T07:50:51Z</time></trkpt><trkpt lat="45.938950381603334" lon="10.900864782724867"><ele>96.0</ele><time>2026-04-18T07:50:52Z</time></trkpt><trkpt lat="45.93915788918952" lon="10.900908193753548"><ele>96.66666666666666</ele><time>2026-04-18T07:50:53Z</time></trkpt><trkpt lat="45.9393460763554" lon="10.900979351917941"><ele>97.33333333333333</ele><time>2026-04-18T07:50:54Z</time></trkpt><trkpt lat="45.9395191821299" lon="10.901043846755215"><ele>98.0</ele><time>2026-04-18T07:50:55Z</time></trkpt><trkpt lat="45.93966640814868" lon="10.901098260480842"><ele>98.0</ele><time>2026-04-18T07:50:56Z</time></trkpt><trkpt lat="45.93979701334651" lon="10.901159862079922"><ele>98.0</ele><time>2026-04-18T07:50:57Z</time></trkpt><trkpt lat="45.93990477501457" lon="10.90124781512404"><ele>98.0</ele><time>2026-04-18T07:50:58Z</time></trkpt><trkpt lat="45.939980754013014" lon="10.90135204983509"><ele>98.0</ele><time>2026-04-18T07:50:59Z</time></trkpt><trkpt lat="45.940055401999274" lon="10.90141255734285"><ele>98.2</ele><time>2026-04-18T07:51:00Z</time></trkpt><trkpt lat="45.94013544258555" lon="10.90140610964096"><ele>98.4</ele><time>2026-04-18T07:51:01Z</time></trkpt><trkpt lat="45.94021727174982" lon="10.901341665019999"><ele>98.60000000000001</ele><time>2026-04-18T07:51:02Z</time></trkpt><trkpt lat="45.94031942506311" lon="10.901282816026724"><ele>98.80000000000001</ele><time>2026-04-18T07:51:03Z</time></trkpt><trkpt lat="45.940441229711666" lon="10.901261915531881"><ele>99.0</ele><time>2026-04-18T07:51:04Z</time></trkpt><trkpt lat="45.9405854834628" lon="10.901264389428738"><ele>99.0</ele><time>2026-04-18T07:51:05Z</time></trkpt><trkpt lat="45.94074327362135" lon="10.901286614577302"><ele>99.0</ele><time>2026-04-18T07:51:06Z</time></trkpt><trkpt lat="45.940913181963865" lon="10.901316953613996"><ele>99.0</ele><time>2026-04-18T07:51:07Z</time></trkpt><trkpt lat="45.94107277570507" lon="10.90133828422841"><ele>99.33333333333334</ele><time>2026-04-18T07:51:08Z</time></trkpt><trkpt lat="45.94124479455103" lon="10.901366821904563"><ele>99.66666666666667</ele><time>2026-04-18T07:51:09Z</time></trkpt><trkpt lat="45.94142483928341" lon="10.901408213414292"><ele>100.0</ele><time>2026-04-18T07:51:10Z</time></trkpt><trkpt lat="45.941610749122596" lon="10.901461313821542"><ele>100.33333333333334</ele><time>2026-04-18T07:51:11Z</time></trkpt><trkpt lat="45.94180440399598" lon="10.901528014853346"><ele>100.66666666666666</ele><time>2026-04-18T07:51:12Z</time></trkpt><trkpt lat="45.94199850700348" lon="10.90160116072329"><ele>101.0</ele><time>2026-04-18T07:51:13Z</time></trkpt><trkpt lat="45.94219148610707" lon="10.901676905982308"><ele>100.33333333333333</ele><time>2026-04-18T07:51:14Z</time></trkpt><trkpt lat="45.94237823998208" lon="10.901752252009194"><ele>99.66666666666666</ele><time>2026-04-18T07:51:15Z</time></trkpt><trkpt lat="45.94255750788925" lon="10.901824136187633"><ele>99.0</ele><time>2026-04-18T07:51:16Z</time></trkpt><trkpt lat="45.94272857380388" lon="10.901890883597353"><ele>98.33333333333334</ele><time>2026-04-18T07:51:17Z</time></trkpt><trkpt lat="45.942898664665115" lon="10.901957054565921"><ele>97.66666666666667</ele><time>2026-04-18T07:51:18Z</time></trkpt><trkpt lat="45.943070030031336" lon="10.902027679569994"><ele>97.0</ele><time>2026-04-18T07:51:19Z</time></trkpt><trkpt lat="45.94324688547122" lon="10.902098741560081"><ele>97.66666666666667</ele><time>2026-04-18T07:51:20Z</time></trkpt><trkpt lat="45.94342884959398" lon="10.902172884977833"><ele>98.33333333333334</ele><time>2026-04-18T07:51:21Z</time></trkpt><trkpt lat="45.94361921324421" lon="10.902246842851616"><ele>99.0</ele><time>2026-04-18T07:51:22Z</time></trkpt><trkpt lat="45.94381183584526" lon="10.902324466376795"><ele>99.0</ele><time>2026-04-18T07:51:23Z</time></trkpt><trkpt lat="45.94401097194839" lon="10.902404434353679"><ele>99.0</ele><time>2026-04-18T07:51:24Z</time></trkpt><trkpt lat="45.94421324355635" lon="10.902485581998555"><ele>99.0</ele><time>2026-04-18T07:51:25Z</time></trkpt><trkpt lat="45.9444154397319" lon="10.90256504924471"><ele>99.66666666666666</ele><time>2026-04-18T07:51:26Z</time></trkpt><trkpt lat="45.94461266719432" lon="10.9026420282301"><ele>100.33333333333333</ele><time>2026-04-18T07:51:27Z</time></trkpt><trkpt lat="45.94480552242135" lon="10.90271709443891"><ele>101.0</ele><time>2026-04-18T07:51:28Z</time></trkpt><trkpt lat="45.94499320129514" lon="10.902791274957984"><ele>101.33333333333333</ele><time>2026-04-18T07:51:29Z</time></trkpt><trkpt lat="45.945176840231696" lon="10.902863855585117"><ele>101.66666666666666</ele><time>2026-04-18T07:51:30Z</time></trkpt><trkpt lat="45.945359030064886" lon="10.90293671724916"><ele>102.0</ele><time>2026-04-18T07:51:31Z</time></trkpt><trkpt lat="45.94554230299541" lon="10.903012250986995"><ele>102.0</ele><time>2026-04-18T07:51:32Z</time></trkpt><trkpt lat="45.94572794152888" lon="10.903089957259514"><ele>102.0</ele><time>2026-04-18T07:51:33Z</time></trkpt><trkpt lat="45.94591828941424" lon="10.903169648672549"><ele>102.0</ele><time>2026-04-18T07:51:34Z</time></trkpt><trkpt lat="45.94610995405202" lon="10.903248611439802"><ele>102.0</ele><time>2026-04-18T07:51:35Z</time></trkpt><trkpt lat="45.946302402024905" lon="10.903329586783727"><ele>102.0</ele><time>2026-04-18T07:51:36Z</time></trkpt><trkpt lat="45.94649292256855" lon="10.903409835475225"><ele>102.0</ele><time>2026-04-18T07:51:37Z</time></trkpt><trkpt lat="45.946682984333535" lon="10.903492417153503"><ele>102.33333333333334</ele><time>2026-04-18T07:51:38Z</time></trkpt><trkpt lat="45.946873298707466" lon="10.90357687913701"><ele>102.66666666666667</ele><time>2026-04-18T07:51:39Z</time></trkpt><trkpt lat="45.94706661278674" lon="10.903661468070817"><ele>103.0</ele><time>2026-04-18T07:51:40Z</time></trkpt><trkpt lat="45.94725920964964" lon="10.903742207233693"><ele>103.0</ele><time>2026-04-18T07:51:41Z</time></trkpt><trkpt lat="45.947451908566066" lon="10.903819013657815"><ele>103.0</ele><time>2026-04-18T07:51:42Z</time></trkpt><trkpt lat="45.94764166665441" lon="10.903892424228928"><ele>103.0</ele><time>2026-04-18T07:51:43Z</time></trkpt><trkpt lat="45.94782855421372" lon="10.9039721503819"><ele>102.66666666666667</ele><time>2026-04-18T07:51:44Z</time></trkpt><trkpt lat="45.9480131046701" lon="10.904058309612225"><ele>102.33333333333334</ele><time>2026-04-18T07:51:45Z</time></trkpt><trkpt lat="45.94818986185445" lon="10.904150278829217"><ele>102.0</ele><time>2026-04-18T07:51:46Z</time></trkpt><trkpt lat="45.94835907066935" lon="10.904256742305705"><ele>103.0</ele><time>2026-04-18T07:51:47Z</time></trkpt><trkpt lat="45.94852251786259" lon="10.904380257115212"><ele>104.0</ele><time>2026-04-18T07:51:48Z</time></trkpt><trkpt lat="45.94868711224131" lon="10.904506118005688"><ele>105.0</ele><time>2026-04-18T07:51:49Z</time></trkpt><trkpt lat="45.948855156634416" lon="10.90462624242775"><ele>105.0</ele><time>2026-04-18T07:51:50Z</time></trkpt><trkpt lat="45.9490260536712" lon="10.904747071105723"><ele>105.0</ele><time>2026-04-18T07:51:51Z</time></trkpt><trkpt lat="45.94919696991287" lon="10.904868529898465"><ele>105.0</ele><time>2026-04-18T07:51:52Z</time></trkpt><trkpt lat="45.94937389061299" lon="10.904985290811448"><ele>105.33333333333334</ele><time>2026-04-18T07:51:53Z</time></trkpt><trkpt lat="45.94955306566804" lon="10.905139467851116"><ele>105.66666666666667</ele><time>2026-04-18T07:51:54Z</time></trkpt><trkpt lat="45.949751738504524" lon="10.90528306455471"><ele>106.0</ele><time>2026-04-18T07:51:55Z</time></trkpt><trkpt lat="45.94995113774012" lon="10.90542607645946"><ele>107.33333333333334</ele><time>2026-04-18T07:51:56Z</time></trkpt><trkpt lat="45.950142883892674" lon="10.905563597622303"><ele>108.66666666666666</ele><time>2026-04-18T07:51:57Z</time></trkpt><trkpt lat="45.950335477191864" lon="10.905676399958532"><ele>110.0</ele><time>2026-04-18T07:51:58Z</time></trkpt><trkpt lat="45.95051669222492" lon="10.90580717895999"><ele>109.33333333333333</ele><time>2026-04-18T07:51:59Z</time></trkpt><trkpt lat="45.95069169256594" lon="10.905933897579523"><ele>108.66666666666666</ele><time>2026-04-18T07:52:00Z</time></trkpt><trkpt lat="45.95086645834009" lon="10.90606241604586"><ele>108.0</ele><time>2026-04-18T07:52:01Z</time></trkpt><trkpt lat="45.951045830010905" lon="10.906192133973999"><ele>109.66666666666666</ele><time>2026-04-18T07:52:02Z</time></trkpt><trkpt lat="45.95122370713986" lon="10.906315710975695"><ele>111.33333333333333</ele><time>2026-04-18T07:52:03Z</time></trkpt><trkpt lat="45.95139082187228" lon="10.906458553351468"><ele>113.0</ele><time>2026-04-18T07:52:04Z</time></trkpt><trkpt lat="45.951569042586" lon="10.906586083641502"><ele>112.33333333333333</ele><time>2026-04-18T07:52:05Z</time></trkpt><trkpt lat="45.95176234326666" lon="10.906722867242422"><ele>111.66666666666666</ele><time>2026-04-18T07:52:06Z</time></trkpt><trkpt lat="45.951954610708775" lon="10.906859601309785"><ele>111.0</ele><time>2026-04-18T07:52:07Z</time></trkpt><trkpt lat="45.952136824511165" lon="10.906967799401492"><ele>110.66666666666666</ele><time>2026-04-18T07:52:08Z</time></trkpt><trkpt lat="45.952303085524676" lon="10.907088610039263"><ele>110.33333333333333</ele><time>2026-04-18T07:52:09Z</time></trkpt><trkpt lat="45.952469296478974" lon="10.907204566115794"><ele>110.0</ele><time>2026-04-18T07:52:10Z</time></trkpt><trkpt lat="45.952636907769644" lon="10.90732576322499"><ele>109.66666666666666</ele><time>2026-04-18T07:52:11Z</time></trkpt><trkpt lat="45.952808210801365" lon="10.907447768913322"><ele>109.33333333333334</ele><time>2026-04-18T07:52:12Z</time></trkpt><trkpt lat="45.952979372797365" lon="10.907570246040205"><ele>109.0</ele><time>2026-04-18T07:52:13Z</time></trkpt><trkpt lat="45.95314455162775" lon="10.90768692539759"><ele>109.0</ele><time>2026-04-18T07:52:14Z</time></trkpt><trkpt lat="45.95330533413673" lon="10.907799371555885"><ele>109.0</ele><time>2026-04-18T07:52:15Z</time></trkpt><trkpt lat="45.95346694585388" lon="10.907915087377736"><ele>109.0</ele><time>2026-04-18T07:52:16Z</time></trkpt><trkpt lat="45.953628712413554" lon="10.908029088460463"><ele>109.0</ele><time>2026-04-18T07:52:17Z</time></trkpt><trkpt lat="45.95378722007946" lon="10.908143459000524"><ele>109.0</ele><time>2026-04-18T07:52:18Z</time></trkpt><trkpt lat="45.95395111112478" lon="10.908258924605311"><ele>109.0</ele><time>2026-04-18T07:52:19Z</time></trkpt><trkpt lat="45.95412560009442" lon="10.908369369503692"><ele>110.66666666666667</ele><time>2026-04-18T07:52:20Z</time></trkpt><trkpt lat="45.95431893347175" lon="10.90849181913486"><ele>112.33333333333334</ele><time>2026-04-18T07:52:21Z</time></trkpt><trkpt lat="45.954509545616574" lon="10.908680661293673"><ele>114.0</ele><time>2026-04-18T07:52:22Z</time></trkpt><trkpt lat="45.954729710677206" lon="10.908838078726907"><ele>114.0</ele><time>2026-04-18T07:52:23Z</time></trkpt><trkpt lat="45.95496460848588" lon="10.909006618339603"><ele>114.0</ele><time>2026-04-18T07:52:24Z</time></trkpt><trkpt lat="45.95521284724025" lon="10.909183215238624"><ele>116.0</ele><time>2026-04-18T07:52:25Z</time></trkpt><trkpt lat="45.955476841588805" lon="10.909344313481478"><ele>118.0</ele><time>2026-04-18T07:52:26Z</time></trkpt><trkpt lat="45.95572397043709" lon="10.909523870723536"><ele>119.5</ele><time>2026-04-18T07:52:27Z</time></trkpt><trkpt lat="45.95596583022455" lon="10.909697066342392"><ele>121.0</ele><time>2026-04-18T07:52:28Z</time></trkpt><trkpt lat="45.95619652563343" lon="10.909865199154625"><ele>121.0</ele><time>2026-04-18T07:52:29Z</time></trkpt><trkpt lat="45.956415211718856" lon="10.910024300057328"><ele>121.0</ele><time>2026-04-18T07:52:30Z</time></trkpt><trkpt lat="45.95662248343212" lon="10.91017488149272"><ele>120.66666666666667</ele><time>2026-04-18T07:52:31Z</time></trkpt><trkpt lat="45.95682131798691" lon="10.910317271522837"><ele>120.33333333333334</ele><time>2026-04-18T07:52:32Z</time></trkpt><trkpt lat="45.957011500334666" lon="10.910451932409426"><ele>120.0</ele><time>2026-04-18T07:52:33Z</time></trkpt><trkpt lat="45.95719194009781" lon="10.910579588274919"><ele>120.0</ele><time>2026-04-18T07:52:34Z</time></trkpt><trkpt lat="45.9573628310863" lon="10.910705003606838"><ele>120.0</ele><time>2026-04-18T07:52:35Z</time></trkpt><trkpt lat="45.95752508484449" lon="10.910827267030886"><ele>120.0</ele><time>2026-04-18T07:52:36Z</time></trkpt><trkpt lat="45.95768128993508" lon="10.91095183757577"><ele>119.33333333333334</ele><time>2026-04-18T07:52:37Z</time></trkpt><trkpt lat="45.957824828885485" lon="10.911084866089807"><ele>118.66666666666667</ele><time>2026-04-18T07:52:38Z</time></trkpt><trkpt lat="45.95795864917556" lon="10.911219452333839"><ele>118.0</ele><time>2026-04-18T07:52:39Z</time></trkpt><trkpt lat="45.95808608264738" lon="10.91135188352854"><ele>118.0</ele><time>2026-04-18T07:52:40Z</time></trkpt><trkpt lat="45.95820337736951" lon="10.911481198095716"><ele>118.0</ele><time>2026-04-18T07:52:41Z</time></trkpt><trkpt lat="45.958308382224885" lon="10.91160307131371"><ele>118.0</ele><time>2026-04-18T07:52:42Z</time></trkpt><trkpt lat="45.95840364216671" lon="10.911722952923066"><ele>118.0</ele><time>2026-04-18T07:52:43Z</time></trkpt><trkpt lat="45.95848987018285" lon="10.911830715824609"><ele>118.2</ele><time>2026-04-18T07:52:44Z</time></trkpt><trkpt lat="45.958566219050454" lon="10.911930780317036"><ele>118.4</ele><time>2026-04-18T07:52:45Z</time></trkpt><trkpt lat="45.958635910425734" lon="10.912026015507431"><ele>118.60000000000001</ele><time>2026-04-18T07:52:46Z</time></trkpt><trkpt lat="45.95870153672523" lon="10.912123697483842"><ele>118.80000000000001</ele><time>2026-04-18T07:52:47Z</time></trkpt><trkpt lat="45.95875457330195" lon="10.912219453613645"><ele>119.0</ele><time>2026-04-18T07:52:48Z</time></trkpt><trkpt lat="45.95879505337753" lon="10.912313524542338"><ele>118.99999999999999</ele><time>2026-04-18T07:52:49Z</time></trkpt><trkpt lat="45.958826280783256" lon="10.912413310245437"><ele>119.0</ele><time>2026-04-18T07:52:50Z</time></trkpt><trkpt lat="45.95885560296123" lon="10.91251232653637"><ele>119.0</ele><time>2026-04-18T07:52:51Z</time></trkpt><trkpt lat="45.95889523992884" lon="10.912596989792055"><ele>119.0</ele><time>2026-04-18T07:52:52Z</time></trkpt><trkpt lat="45.95895489835762" lon="10.912647971691559"><ele>118.99999999999999</ele><time>2026-04-18T07:52:53Z</time></trkpt><trkpt lat="45.95903267008385" lon="10.912683982136363"><ele>119.0</ele><time>2026-04-18T07:52:54Z</time></trkpt><trkpt lat="45.959114454259904" lon="10.912733814726781"><ele>119.0</ele><time>2026-04-18T07:52:55Z</time></trkpt><trkpt lat="45.959197446185165" lon="10.912813976538587"><ele>119.0</ele><time>2026-04-18T07:52:56Z</time></trkpt><trkpt lat="45.959282748639424" lon="10.912917502526264"><ele>119.0</ele><time>2026-04-18T07:52:57Z</time></trkpt><trkpt lat="45.959361304463606" lon="10.913023225001396"><ele>119.0</ele><time>2026-04-18T07:52:58Z</time></trkpt><trkpt lat="45.95944349139915" lon="10.913144014836766"><ele>119.0</ele><time>2026-04-18T07:52:59Z</time></trkpt><trkpt lat="45.95952527414979" lon="10.91326240121607"><ele>120.0</ele><time>2026-04-18T07:53:00Z</time></trkpt><trkpt lat="45.95960818499865" lon="10.913378651494263"><ele>121.0</ele><time>2026-04-18T07:53:01Z</time></trkpt><trkpt lat="45.95969481995775" lon="10.913496250691498"><ele>122.0</ele><time>2026-04-18T07:53:02Z</time></trkpt><trkpt lat="45.95978162461525" lon="10.91361775660921"><ele>123.0</ele><time>2026-04-18T07:53:03Z</time></trkpt><trkpt lat="45.95986873576645" lon="10.91374051442546"><ele>123.33333333333334</ele><time>2026-04-18T07:53:04Z</time></trkpt><trkpt lat="45.95997163246532" lon="10.913874724046982"><ele>123.66666666666667</ele><time>2026-04-18T07:53:05Z</time></trkpt><trkpt lat="45.96007708687539" lon="10.914039179217493"><ele>124.0</ele><time>2026-04-18T07:53:06Z</time></trkpt><trkpt lat="45.96019767754234" lon="10.914203336332822"><ele>123.66666666666667</ele><time>2026-04-18T07:53:07Z</time></trkpt><trkpt lat="45.960314888835256" lon="10.914373796054209"><ele>123.33333333333334</ele><time>2026-04-18T07:53:08Z</time></trkpt><trkpt lat="45.960427333493485" lon="10.914541202371963"><ele>123.0</ele><time>2026-04-18T07:53:09Z</time></trkpt><trkpt lat="45.96053637035568" lon="10.914697781896129"><ele>123.0</ele><time>2026-04-18T07:53:10Z</time></trkpt><trkpt lat="45.960641808386676" lon="10.914847638203112"><ele>123.0</ele><time>2026-04-18T07:53:11Z</time></trkpt><trkpt lat="45.96074358598187" lon="10.914990249117224"><ele>123.0</ele><time>2026-04-18T07:53:12Z</time></trkpt><trkpt lat="45.96084912288046" lon="10.915133779965773"><ele>123.0</ele><time>2026-04-18T07:53:13Z</time></trkpt><trkpt lat="45.96096042464641" lon="10.915282718526113"><ele>123.0</ele><time>2026-04-18T07:53:14Z</time></trkpt><trkpt lat="45.961078444670434" lon="10.915438860616579"><ele>123.0</ele><time>2026-04-18T07:53:15Z</time></trkpt><trkpt lat="45.961203465779334" lon="10.91560359303283"><ele>123.0</ele><time>2026-04-18T07:53:16Z</time></trkpt><trkpt lat="45.96133344539414" lon="10.915783025751283"><ele>123.0</ele><time>2026-04-18T07:53:17Z</time></trkpt><trkpt lat="45.96146355425817" lon="10.915970088555047"><ele>123.0</ele><time>2026-04-18T07:53:18Z</time></trkpt><trkpt lat="45.96159308002131" lon="10.916156741963142"><ele>123.0</ele><time>2026-04-18T07:53:19Z</time></trkpt><trkpt lat="45.96173244260244" lon="10.91634443508479"><ele>123.0</ele><time>2026-04-18T07:53:20Z</time></trkpt><trkpt lat="45.96187705142774" lon="10.91653922557464"><ele>123.0</ele><time>2026-04-18T07:53:21Z</time></trkpt><trkpt lat="45.962030878563816" lon="10.916747333995394"><ele>123.0</ele><time>2026-04-18T07:53:22Z</time></trkpt><trkpt lat="45.96219043813245" lon="10.916958938549636"><ele>122.66666666666666</ele><time>2026-04-18T07:53:23Z</time></trkpt><trkpt lat="45.96234860245982" lon="10.917175856209308"><ele>122.33333333333333</ele><time>2026-04-18T07:53:24Z</time></trkpt><trkpt lat="45.96250451252269" lon="10.917398226691175"><ele>122.0</ele><time>2026-04-18T07:53:25Z</time></trkpt><trkpt lat="45.96265173639514" lon="10.917617079003039"><ele>122.66666666666666</ele><time>2026-04-18T07:53:26Z</time></trkpt><trkpt lat="45.96279790984848" lon="10.917829964231474"><ele>123.33333333333334</ele><time>2026-04-18T07:53:27Z</time></trkpt><trkpt lat="45.962935606730056" lon="10.918036524189212"><ele>124.0</ele><time>2026-04-18T07:53:28Z</time></trkpt><trkpt lat="45.963070194253376" lon="10.91822963387192"><ele>124.0</ele><time>2026-04-18T07:53:29Z</time></trkpt><trkpt lat="45.96319955702305" lon="10.918411746579508"><ele>124.0</ele><time>2026-04-18T07:53:30Z</time></trkpt><trkpt lat="45.96332618437946" lon="10.9185866630213"><ele>124.0</ele><time>2026-04-18T07:53:31Z</time></trkpt><trkpt lat="45.963450486598056" lon="10.918755660494"><ele>124.33333333333334</ele><time>2026-04-18T07:53:32Z</time></trkpt><trkpt lat="45.963565876681706" lon="10.918920853063778"><ele>124.66666666666666</ele><time>2026-04-18T07:53:33Z</time></trkpt><trkpt lat="45.96367463225733" lon="10.919076450462853"><ele>125.0</ele><time>2026-04-18T07:53:34Z</time></trkpt><trkpt lat="45.96378267588733" lon="10.919228848677731"><ele>125.33333333333333</ele><time>2026-04-18T07:53:35Z</time></trkpt><trkpt lat="45.963891831965974" lon="10.919384514851934"><ele>125.66666666666666</ele><time>2026-04-18T07:53:36Z</time></trkpt><trkpt lat="45.96400428075479" lon="10.91954187120197"><ele>126.0</ele><time>2026-04-18T07:53:37Z</time></trkpt><trkpt lat="45.96411718243322" lon="10.919697796278252"><ele>126.66666666666666</ele><time>2026-04-18T07:53:38Z</time></trkpt><trkpt lat="45.96422753571961" lon="10.919852848720115"><ele>127.33333333333333</ele><time>2026-04-18T07:53:39Z</time></trkpt><trkpt lat="45.96433584392063" lon="10.92000776147137"><ele>128.0</ele><time>2026-04-18T07:53:40Z</time></trkpt><trkpt lat="45.96444922044046" lon="10.920162146963484"><ele>128.0</ele><time>2026-04-18T07:53:41Z</time></trkpt><trkpt lat="45.964561307723145" lon="10.920315034328695"><ele>128.0</ele><time>2026-04-18T07:53:42Z</time></trkpt><trkpt lat="45.96467263671717" lon="10.92046845973555"><ele>128.0</ele><time>2026-04-18T07:53:43Z</time></trkpt><trkpt lat="45.964787309024764" lon="10.920626079008994"><ele>128.0</ele><time>2026-04-18T07:53:44Z</time></trkpt><trkpt lat="45.964911279301425" lon="10.92079118634423"><ele>128.0</ele><time>2026-04-18T07:53:45Z</time></trkpt><trkpt lat="45.96504614213378" lon="10.920958603449451"><ele>128.0</ele><time>2026-04-18T07:53:46Z</time></trkpt><trkpt lat="45.96519418173314" lon="10.921122521335185"><ele>129.66666666666666</ele><time>2026-04-18T07:53:47Z</time></trkpt><trkpt lat="45.96535336445682" lon="10.921283478304655"><ele>131.33333333333334</ele><time>2026-04-18T07:53:48Z</time></trkpt><trkpt lat="45.965521463976934" lon="10.921441484265602"><ele>133.0</ele><time>2026-04-18T07:53:49Z</time></trkpt><trkpt lat="45.965690941672776" lon="10.921588501551403"><ele>133.0</ele><time>2026-04-18T07:53:50Z</time></trkpt><trkpt lat="45.96586031743716" lon="10.921722876345907"><ele>133.0</ele><time>2026-04-18T07:53:51Z</time></trkpt><trkpt lat="45.96603856263586" lon="10.921848029565108"><ele>133.0</ele><time>2026-04-18T07:53:52Z</time></trkpt><trkpt lat="45.96622355273446" lon="10.921963539841755"><ele>133.0</ele><time>2026-04-18T07:53:53Z</time></trkpt><trkpt lat="45.966414513161446" lon="10.922069029822145"><ele>133.0</ele><time>2026-04-18T07:53:54Z</time></trkpt><trkpt lat="45.96660690765142" lon="10.922164050628993"><ele>133.0</ele><time>2026-04-18T07:53:55Z</time></trkpt><trkpt lat="45.966803747608964" lon="10.922248286184837"><ele>133.0</ele><time>2026-04-18T07:53:56Z</time></trkpt><trkpt lat="45.96700419662516" lon="10.922324033560677"><ele>133.0</ele><time>2026-04-18T07:53:57Z</time></trkpt><trkpt lat="45.967205489069656" lon="10.92239180749757"><ele>133.0</ele><time>2026-04-18T07:53:58Z</time></trkpt><trkpt lat="45.96740782015133" lon="10.922466119927273"><ele>131.66666666666669</ele><time>2026-04-18T07:53:59Z</time></trkpt><trkpt lat="45.967610172524516" lon="10.922538642500495"><ele>130.33333333333334</ele><time>2026-04-18T07:54:00Z</time></trkpt><trkpt lat="45.96780369465402" lon="10.922610243381998"><ele>129.0</ele><time>2026-04-18T07:54:01Z</time></trkpt><trkpt lat="45.967993045014616" lon="10.922679555630891"><ele>129.0</ele><time>2026-04-18T07:54:02Z</time></trkpt><trkpt lat="45.96817643907386" lon="10.922749312570456"><ele>129.0</ele><time>2026-04-18T07:54:03Z</time></trkpt><trkpt lat="45.968359341617685" lon="10.92281484117518"><ele>129.0</ele><time>2026-04-18T07:54:04Z</time></trkpt><trkpt lat="45.96854208737789" lon="10.922881487560245"><ele>130.33333333333334</ele><time>2026-04-18T07:54:05Z</time></trkpt><trkpt lat="45.968727536955434" lon="10.922944929380876"><ele>131.66666666666669</ele><time>2026-04-18T07:54:06Z</time></trkpt><trkpt lat="45.96891271488941" lon="10.923011178142154"><ele>133.0</ele><time>2026-04-18T07:54:07Z</time></trkpt><trkpt lat="45.969097531208405" lon="10.923072492269393"><ele>134.66666666666669</ele><time>2026-04-18T07:54:08Z</time></trkpt><trkpt lat="45.96928465526511" lon="10.923138979700926"><ele>136.33333333333334</ele><time>2026-04-18T07:54:09Z</time></trkpt><trkpt lat="45.96948126304225" lon="10.923209582403093"><ele>138.0</ele><time>2026-04-18T07:54:10Z</time></trkpt><trkpt lat="45.96967496940721" lon="10.923302079674606"><ele>138.0</ele><time>2026-04-18T07:54:11Z</time></trkpt><trkpt lat="45.96986117981661" lon="10.923369415054408"><ele>138.0</ele><time>2026-04-18T07:54:12Z</time></trkpt><trkpt lat="45.970035309474724" lon="10.923432160062344"><ele>138.0</ele><time>2026-04-18T07:54:13Z</time></trkpt><trkpt lat="45.97020582459599" lon="10.923493468539842"><ele>138.33333333333334</ele><time>2026-04-18T07:54:14Z</time></trkpt><trkpt lat="45.9703792248923" lon="10.923555814363041"><ele>138.66666666666669</ele><time>2026-04-18T07:54:15Z</time></trkpt><trkpt lat="45.97055884649503" lon="10.923620397052936"><ele>139.0</ele><time>2026-04-18T07:54:16Z</time></trkpt><trkpt lat="45.97074424368922" lon="10.923687056349792"><ele>140.0</ele><time>2026-04-18T07:54:17Z</time></trkpt><trkpt lat="45.97093551246119" lon="10.923755826766005"><ele>141.0</ele><time>2026-04-18T07:54:18Z</time></trkpt><trkpt lat="45.97113056985676" lon="10.923825959366928"><ele>142.0</ele><time>2026-04-18T07:54:19Z</time></trkpt><trkpt lat="45.971327841152764" lon="10.923896887981025"><ele>142.0</ele><time>2026-04-18T07:54:20Z</time></trkpt><trkpt lat="45.97153014877976" lon="10.923946506791182"><ele>142.0</ele><time>2026-04-18T07:54:21Z</time></trkpt><trkpt lat="45.97173657437533" lon="10.924020172526939"><ele>142.0</ele><time>2026-04-18T07:54:22Z</time></trkpt><trkpt lat="45.97195058892927" lon="10.924122417282597"><ele>142.0</ele><time>2026-04-18T07:54:23Z</time></trkpt><trkpt lat="45.972183255353755" lon="10.924207244848548"><ele>142.0</ele><time>2026-04-18T07:54:24Z</time></trkpt><trkpt lat="45.97242493452675" lon="10.924295358349806"><ele>143.0</ele><time>2026-04-18T07:54:25Z</time></trkpt><trkpt lat="45.97266853439843" lon="10.924384172115564"><ele>144.0</ele><time>2026-04-18T07:54:26Z</time></trkpt><trkpt lat="45.972913917834475" lon="10.92445573189872"><ele>144.0</ele><time>2026-04-18T07:54:27Z</time></trkpt><trkpt lat="45.973154626499685" lon="10.92455036194063"><ele>144.0</ele><time>2026-04-18T07:54:28Z</time></trkpt><trkpt lat="45.97339818765261" lon="10.924638189770562"><ele>146.5</ele><time>2026-04-18T07:54:29Z</time></trkpt><trkpt lat="45.97364818595553" lon="10.924725966596514"><ele>149.0</ele><time>2026-04-18T07:54:30Z</time></trkpt><trkpt lat="45.97389357214035" lon="10.924813272150294"><ele>149.0</ele><time>2026-04-18T07:54:31Z</time></trkpt><trkpt lat="45.97413718322489" lon="10.924899705127682"><ele>149.0</ele><time>2026-04-18T07:54:32Z</time></trkpt><trkpt lat="45.97437502152765" lon="10.924985499082474"><ele>149.5</ele><time>2026-04-18T07:54:33Z</time></trkpt><trkpt lat="45.97460918552779" lon="10.92507097686921"><ele>150.0</ele><time>2026-04-18T07:54:34Z</time></trkpt><trkpt lat="45.97483865642408" lon="10.925153282357513"><ele>150.0</ele><time>2026-04-18T07:54:35Z</time></trkpt><trkpt lat="45.97506502722443" lon="10.925233761017067"><ele>150.0</ele><time>2026-04-18T07:54:36Z</time></trkpt><trkpt lat="45.9752837768314" lon="10.925311742862329"><ele>150.0</ele><time>2026-04-18T07:54:37Z</time></trkpt><trkpt lat="45.97549414681741" lon="10.925388780053481"><ele>150.0</ele><time>2026-04-18T07:54:38Z</time></trkpt><trkpt lat="45.975688318038074" lon="10.925457375912622"><ele>150.0</ele><time>2026-04-18T07:54:39Z</time></trkpt><trkpt lat="45.97587614754522" lon="10.925514481556581"><ele>151.0</ele><time>2026-04-18T07:54:40Z</time></trkpt><trkpt lat="45.97605326694485" lon="10.925542489618982"><ele>152.0</ele><time>2026-04-18T07:54:41Z</time></trkpt><trkpt lat="45.97623259184088" lon="10.925536155898213"><ele>153.0</ele><time>2026-04-18T07:54:42Z</time></trkpt><trkpt lat="45.97641099346344" lon="10.925485791516834"><ele>153.0</ele><time>2026-04-18T07:54:43Z</time></trkpt><trkpt lat="45.976587800057246" lon="10.925401240733768"><ele>153.0</ele><time>2026-04-18T07:54:44Z</time></trkpt><trkpt lat="45.97676926992114" lon="10.925283233958906"><ele>153.0</ele><time>2026-04-18T07:54:45Z</time></trkpt><trkpt lat="45.976945533978956" lon="10.925168853175254"><ele>155.0</ele><time>2026-04-18T07:54:46Z</time></trkpt><trkpt lat="45.97710839889275" lon="10.925069015749644"><ele>157.0</ele><time>2026-04-18T07:54:47Z</time></trkpt><trkpt lat="45.977253284532665" lon="10.92495002204828"><ele>159.0</ele><time>2026-04-18T07:54:48Z</time></trkpt><trkpt lat="45.977386085992144" lon="10.924799072047982"><ele>159.33333333333334</ele><time>2026-04-18T07:54:49Z</time></trkpt><trkpt lat="45.9775142277234" lon="10.924618401780675"><ele>159.66666666666669</ele><time>2026-04-18T07:54:50Z</time></trkpt><trkpt lat="45.977638553867706" lon="10.924425210337997"><ele>160.0</ele><time>2026-04-18T07:54:51Z</time></trkpt><trkpt lat="45.9777612514211" lon="10.924226625777914"><ele>159.0</ele><time>2026-04-18T07:54:52Z</time></trkpt><trkpt lat="45.97787813159064" lon="10.924048784242773"><ele>158.0</ele><time>2026-04-18T07:54:53Z</time></trkpt><trkpt lat="45.977988184016986" lon="10.923883084603673"><ele>157.0</ele><time>2026-04-18T07:54:54Z</time></trkpt><trkpt lat="45.97809574641385" lon="10.923732357172513"><ele>157.0</ele><time>2026-04-18T07:54:55Z</time></trkpt><trkpt lat="45.978221561402535" lon="10.923606971090027"><ele>157.0</ele><time>2026-04-18T07:54:56Z</time></trkpt><trkpt lat="45.97836262081941" lon="10.923500049599333"><ele>157.0</ele><time>2026-04-18T07:54:57Z</time></trkpt><trkpt lat="45.97851124346797" lon="10.923401813201552"><ele>162.66666666666669</ele><time>2026-04-18T07:54:58Z</time></trkpt><trkpt lat="45.97866747398676" lon="10.923330150649457"><ele>168.33333333333334</ele><time>2026-04-18T07:54:59Z</time></trkpt><trkpt lat="45.97883241553827" lon="10.923295168340815"><ele>174.0</ele><time>2026-04-18T07:55:00Z</time></trkpt><trkpt lat="45.97900117348485" lon="10.923283783100807"><ele>174.0</ele><time>2026-04-18T07:55:01Z</time></trkpt><trkpt lat="45.9791593833164" lon="10.923287683705665"><ele>174.0</ele><time>2026-04-18T07:55:02Z</time></trkpt><trkpt lat="45.979310933980926" lon="10.923306975106865"><ele>174.0</ele><time>2026-04-18T07:55:03Z</time></trkpt><trkpt lat="45.97945474719488" lon="10.923335951779244"><ele>172.0</ele><time>2026-04-18T07:55:04Z</time></trkpt><trkpt lat="45.97958459588834" lon="10.923402142513591"><ele>170.0</ele><time>2026-04-18T07:55:05Z</time></trkpt><trkpt lat="45.979704448647944" lon="10.92345156657895"><ele>168.0</ele><time>2026-04-18T07:55:06Z</time></trkpt><trkpt lat="45.97980224293237" lon="10.923481184556813"><ele>166.0</ele><time>2026-04-18T07:55:07Z</time></trkpt><trkpt lat="45.97988525919368" lon="10.92352324101279"><ele>166.0</ele><time>2026-04-18T07:55:08Z</time></trkpt><trkpt lat="45.97997116292949" lon="10.923565223638398"><ele>166.0</ele><time>2026-04-18T07:55:09Z</time></trkpt><trkpt lat="45.980055838484574" lon="10.923606767382386"><ele>166.0</ele><time>2026-04-18T07:55:10Z</time></trkpt><trkpt lat="45.98014571833916" lon="10.923647329500376"><ele>166.0</ele><time>2026-04-18T07:55:11Z</time></trkpt><trkpt lat="45.980239066649936" lon="10.923687498331404"><ele>166.0</ele><time>2026-04-18T07:55:12Z</time></trkpt><trkpt lat="45.980332737503275" lon="10.92373751427562"><ele>166.20000000000002</ele><time>2026-04-18T07:55:13Z</time></trkpt><trkpt lat="45.98041799767147" lon="10.923779397181555"><ele>166.4</ele><time>2026-04-18T07:55:14Z</time></trkpt><trkpt lat="45.98050828040588" lon="10.923824773748798"><ele>166.6</ele><time>2026-04-18T07:55:15Z</time></trkpt><trkpt lat="45.98060178993979" lon="10.923873749415382"><ele>166.8</ele><time>2026-04-18T07:55:16Z</time></trkpt><trkpt lat="45.980709797452576" lon="10.92392507729955"><ele>167.0</ele><time>2026-04-18T07:55:17Z</time></trkpt><trkpt lat="45.98083297922896" lon="10.923986117170282"><ele>168.2</ele><time>2026-04-18T07:55:18Z</time></trkpt><trkpt lat="45.9809642428041" lon="10.924065117373763"><ele>169.39999999999998</ele><time>2026-04-18T07:55:19Z</time></trkpt><trkpt lat="45.98106799880261" lon="10.924136122083254"><ele>170.60000000000002</ele><time>2026-04-18T07:55:20Z</time></trkpt><trkpt lat="45.98113082684401" lon="10.924186932533548"><ele>171.8</ele><time>2026-04-18T07:55:21Z</time></trkpt><trkpt lat="45.98119796877227" lon="10.924234671170435"><ele>173.0</ele><time>2026-04-18T07:55:22Z</time></trkpt><trkpt lat="45.98126425049288" lon="10.924279594521995"><ele>173.0</ele><time>2026-04-18T07:55:23Z</time></trkpt><trkpt lat="45.981335838624574" lon="10.924327172178728"><ele>173.0</ele><time>2026-04-18T07:55:24Z</time></trkpt><trkpt lat="45.981409938226385" lon="10.924373801959613"><ele>173.0</ele><time>2026-04-18T07:55:25Z</time></trkpt><trkpt lat="45.98149402080879" lon="10.92441815703651"><ele>173.0</ele><time>2026-04-18T07:55:26Z</time></trkpt><trkpt lat="45.9815732624581" lon="10.924462005074853"><ele>173.0</ele><time>2026-04-18T07:55:27Z</time></trkpt><trkpt lat="45.98164232504149" lon="10.92450961001749"><ele>173.0</ele><time>2026-04-18T07:55:28Z</time></trkpt><trkpt lat="45.98171461195616" lon="10.924557502514652"><ele>173.33333333333331</ele><time>2026-04-18T07:55:29Z</time></trkpt><trkpt lat="45.98179270010997" lon="10.92460763333865"><ele>173.66666666666666</ele><time>2026-04-18T07:55:30Z</time></trkpt><trkpt lat="45.981873608592714" lon="10.924656757674674"><ele>174.0</ele><time>2026-04-18T07:55:31Z</time></trkpt><trkpt lat="45.98195249978569" lon="10.92470584502825"><ele>174.33333333333334</ele><time>2026-04-18T07:55:32Z</time></trkpt><trkpt lat="45.982029466532744" lon="10.92475485350522"><ele>174.66666666666669</ele><time>2026-04-18T07:55:33Z</time></trkpt><trkpt lat="45.98210439151054" lon="10.924802889791726"><ele>175.0</ele><time>2026-04-18T07:55:34Z</time></trkpt><trkpt lat="45.98217544984062" lon="10.924848715040397"><ele>175.0</ele><time>2026-04-18T07:55:35Z</time></trkpt><trkpt lat="45.98224719382063" lon="10.924891088790574"><ele>175.0</ele><time>2026-04-18T07:55:36Z</time></trkpt><trkpt lat="45.98232658000932" lon="10.924935672193072"><ele>175.0</ele><time>2026-04-18T07:55:37Z</time></trkpt><trkpt lat="45.98241798784516" lon="10.92499121709576"><ele>175.0</ele><time>2026-04-18T07:55:38Z</time></trkpt><trkpt lat="45.98251879095406" lon="10.925058517414923"><ele>175.0</ele><time>2026-04-18T07:55:39Z</time></trkpt><trkpt lat="45.98264050622604" lon="10.92512890850276"><ele>175.66666666666669</ele><time>2026-04-18T07:55:40Z</time></trkpt><trkpt lat="45.982769199782595" lon="10.925192142936096"><ele>176.33333333333334</ele><time>2026-04-18T07:55:41Z</time></trkpt><trkpt lat="45.98292074498697" lon="10.925283739252604"><ele>177.0</ele><time>2026-04-18T07:55:42Z</time></trkpt><trkpt lat="45.983085294040855" lon="10.925387065621068"><ele>177.0</ele><time>2026-04-18T07:55:43Z</time></trkpt><trkpt lat="45.983267967329354" lon="10.925498791610636"><ele>177.0</ele><time>2026-04-18T07:55:44Z</time></trkpt><trkpt lat="45.98345255572019" lon="10.925604742799262"><ele>177.0</ele><time>2026-04-18T07:55:45Z</time></trkpt><trkpt lat="45.98363989062113" lon="10.925722512473286"><ele>177.33333333333334</ele><time>2026-04-18T07:55:46Z</time></trkpt><trkpt lat="45.983834879288985" lon="10.925854466822942"><ele>177.66666666666669</ele><time>2026-04-18T07:55:47Z</time></trkpt><trkpt lat="45.98402444827091" lon="10.925984104562993"><ele>178.0</ele><time>2026-04-18T07:55:48Z</time></trkpt><trkpt lat="45.984218262606355" lon="10.926119574094496"><ele>179.33333333333334</ele><time>2026-04-18T07:55:49Z</time></trkpt><trkpt lat="45.984409562951505" lon="10.926238671709783"><ele>180.66666666666666</ele><time>2026-04-18T07:55:50Z</time></trkpt><trkpt lat="45.98459990680172" lon="10.926356772831628"><ele>182.0</ele><time>2026-04-18T07:55:51Z</time></trkpt><trkpt lat="45.984780641428934" lon="10.92647126386064"><ele>182.0</ele><time>2026-04-18T07:55:52Z</time></trkpt><trkpt lat="45.98495494327681" lon="10.9265798759223"><ele>182.0</ele><time>2026-04-18T07:55:53Z</time></trkpt><trkpt lat="45.9851170025014" lon="10.926680953135866"><ele>182.0</ele><time>2026-04-18T07:55:54Z</time></trkpt><trkpt lat="45.98526295131666" lon="10.92677200950649"><ele>181.5</ele><time>2026-04-18T07:55:55Z</time></trkpt><trkpt lat="45.98540078913155" lon="10.9268544685616"><ele>181.0</ele><time>2026-04-18T07:55:56Z</time></trkpt><trkpt lat="45.98554101876516" lon="10.926912241986999"><ele>180.5</ele><time>2026-04-18T07:55:57Z</time></trkpt><trkpt lat="45.9856867646939" lon="10.926937446250452"><ele>180.0</ele><time>2026-04-18T07:55:58Z</time></trkpt><trkpt lat="45.985834792372756" lon="10.926943884693232"><ele>181.75</ele><time>2026-04-18T07:55:59Z</time></trkpt><trkpt lat="45.98597636550694" lon="10.926939041748472"><ele>183.5</ele><time>2026-04-18T07:56:00Z</time></trkpt><trkpt lat="45.9861177187872" lon="10.926930929653121"><ele>185.25</ele><time>2026-04-18T07:56:01Z</time></trkpt><trkpt lat="45.986261839751066" lon="10.92695456962133"><ele>187.0</ele><time>2026-04-18T07:56:02Z</time></trkpt><trkpt lat="45.986405265458515" lon="10.92695398032096"><ele>187.0</ele><time>2026-04-18T07:56:03Z</time></trkpt><trkpt lat="45.98654495213285" lon="10.926929309110594"><ele>187.0</ele><time>2026-04-18T07:56:04Z</time></trkpt><trkpt lat="45.986675556553124" lon="10.926951539003381"><ele>187.0</ele><time>2026-04-18T07:56:05Z</time></trkpt><trkpt lat="45.986804160004276" lon="10.926950840905272"><ele>187.0</ele><time>2026-04-18T07:56:06Z</time></trkpt><trkpt lat="45.98694740909453" lon="10.926950215362892"><ele>187.0</ele><time>2026-04-18T07:56:07Z</time></trkpt><trkpt lat="45.98710556335049" lon="10.92694856127968"><ele>187.0</ele><time>2026-04-18T07:56:08Z</time></trkpt><trkpt lat="45.98727866207197" lon="10.926945727051814"><ele>187.0</ele><time>2026-04-18T07:56:09Z</time></trkpt><trkpt lat="45.98745763855803" lon="10.926942796584214"><ele>188.33333333333334</ele><time>2026-04-18T07:56:10Z</time></trkpt><trkpt lat="45.98763270046886" lon="10.926939018117924"><ele>189.66666666666666</ele><time>2026-04-18T07:56:11Z</time></trkpt><trkpt lat="45.987809527564245" lon="10.926931242944597"><ele>191.0</ele><time>2026-04-18T07:56:12Z</time></trkpt><trkpt lat="45.98799940992909" lon="10.926922893724077"><ele>191.0</ele><time>2026-04-18T07:56:13Z</time></trkpt><trkpt lat="45.9881866313666" lon="10.926914661506192"><ele>191.0</ele><time>2026-04-18T07:56:14Z</time></trkpt><trkpt lat="45.98836150601615" lon="10.926883190081176"><ele>191.0</ele><time>2026-04-18T07:56:15Z</time></trkpt><trkpt lat="45.98852336263408" lon="10.926884739081057"><ele>190.75</ele><time>2026-04-18T07:56:16Z</time></trkpt><trkpt lat="45.98866924441258" lon="10.926869533590216"><ele>190.5</ele><time>2026-04-18T07:56:17Z</time></trkpt><trkpt lat="45.98879806072119" lon="10.926847965286505"><ele>190.25</ele><time>2026-04-18T07:56:18Z</time></trkpt><trkpt lat="45.98892146776969" lon="10.92681768315476"><ele>190.0</ele><time>2026-04-18T07:56:19Z</time></trkpt><trkpt lat="45.9890429167146" lon="10.926797905789915"><ele>192.75</ele><time>2026-04-18T07:56:20Z</time></trkpt><trkpt lat="45.989155807988936" lon="10.926725291961493"><ele>195.5</ele><time>2026-04-18T07:56:21Z</time></trkpt><trkpt lat="45.98927377230686" lon="10.926667337447391"><ele>198.25</ele><time>2026-04-18T07:56:22Z</time></trkpt><trkpt lat="45.98938314013813" lon="10.926600736509874"><ele>201.0</ele><time>2026-04-18T07:56:23Z</time></trkpt><trkpt lat="45.98949072177464" lon="10.926525991873781"><ele>201.0</ele><time>2026-04-18T07:56:24Z</time></trkpt><trkpt lat="45.989586522523155" lon="10.92643920318551"><ele>201.0</ele><time>2026-04-18T07:56:25Z</time></trkpt><trkpt lat="45.98968379683156" lon="10.926351624313497"><ele>201.0</ele><time>2026-04-18T07:56:26Z</time></trkpt><trkpt lat="45.98978390520059" lon="10.926259879209741"><ele>201.0</ele><time>2026-04-18T07:56:27Z</time></trkpt><trkpt lat="45.98987923037831" lon="10.92617445300567"><ele>201.0</ele><time>2026-04-18T07:56:28Z</time></trkpt><trkpt lat="45.9899664821687" lon="10.926096408981715"><ele>201.0</ele><time>2026-04-18T07:56:29Z</time></trkpt><trkpt lat="45.990052492094684" lon="10.926030097672315"><ele>201.0</ele><time>2026-04-18T07:56:30Z</time></trkpt><trkpt lat="45.99014625722158" lon="10.92598345223612"><ele>201.0</ele><time>2026-04-18T07:56:31Z</time></trkpt><trkpt lat="45.99024442471969" lon="10.925958222988356"><ele>201.0</ele><time>2026-04-18T07:56:32Z</time></trkpt><trkpt lat="45.990346681094074" lon="10.925958748870388"><ele>202.75</ele><time>2026-04-18T07:56:33Z</time></trkpt><trkpt lat="45.99045067013797" lon="10.925979095908106"><ele>204.5</ele><time>2026-04-18T07:56:34Z</time></trkpt><trkpt lat="45.990558695425285" lon="10.926024867394727"><ele>206.25</ele><time>2026-04-18T07:56:35Z</time></trkpt><trkpt lat="45.990661871332996" lon="10.926107424649679"><ele>208.0</ele><time>2026-04-18T07:56:36Z</time></trkpt><trkpt lat="45.99078007582943" lon="10.926156214720132"><ele>209.5</ele><time>2026-04-18T07:56:37Z</time></trkpt><trkpt lat="45.990896574463484" lon="10.926232515082924"><ele>211.0</ele><time>2026-04-18T07:56:38Z</time></trkpt><trkpt lat="45.9910205715211" lon="10.926316793022927"><ele>212.5</ele><time>2026-04-18T07:56:39Z</time></trkpt><trkpt lat="45.99114881138369" lon="10.926403524457063"><ele>214.0</ele><time>2026-04-18T07:56:40Z</time></trkpt><trkpt lat="45.9912751372358" lon="10.9264840177716"><ele>214.0</ele><time>2026-04-18T07:56:41Z</time></trkpt><trkpt lat="45.99139206979102" lon="10.926538890792175"><ele>214.0</ele><time>2026-04-18T07:56:42Z</time></trkpt><trkpt lat="45.99151381965813" lon="10.926568228086879"><ele>214.0</ele><time>2026-04-18T07:56:43Z</time></trkpt><trkpt lat="45.99163484941686" lon="10.926588480224385"><ele>214.0</ele><time>2026-04-18T07:56:44Z</time></trkpt><trkpt lat="45.9917569966941" lon="10.926603781528552"><ele>214.75</ele><time>2026-04-18T07:56:45Z</time></trkpt><trkpt lat="45.9918851974239" lon="10.926618569449403"><ele>215.5</ele><time>2026-04-18T07:56:46Z</time></trkpt><trkpt lat="45.99201783428211" lon="10.926618914833764"><ele>216.25</ele><time>2026-04-18T07:56:47Z</time></trkpt><trkpt lat="45.99216028853245" lon="10.926619437539454"><ele>217.0</ele><time>2026-04-18T07:56:48Z</time></trkpt><trkpt lat="45.99228700060613" lon="10.926619119489159"><ele>217.0</ele><time>2026-04-18T07:56:49Z</time></trkpt><trkpt lat="45.99239984635196" lon="10.926615384995374"><ele>217.0</ele><time>2026-04-18T07:56:50Z</time></trkpt><trkpt lat="45.992512990432004" lon="10.926618902379818"><ele>217.0</ele><time>2026-04-18T07:56:51Z</time></trkpt><trkpt lat="45.992622011852326" lon="10.926622182570776"><ele>217.0</ele><time>2026-04-18T07:56:52Z</time></trkpt><trkpt lat="45.99272814617846" lon="10.926617619152205"><ele>217.0</ele><time>2026-04-18T07:56:53Z</time></trkpt><trkpt lat="45.99285243419862" lon="10.92661383093363"><ele>217.0</ele><time>2026-04-18T07:56:54Z</time></trkpt><trkpt lat="45.992991982447535" lon="10.926638350267718"><ele>217.0</ele><time>2026-04-18T07:56:55Z</time></trkpt><trkpt lat="45.99316058306041" lon="10.926639995065084"><ele>217.0</ele><time>2026-04-18T07:56:56Z</time></trkpt><trkpt lat="45.99334455571929" lon="10.926638732427174"><ele>217.0</ele><time>2026-04-18T07:56:57Z</time></trkpt><trkpt lat="45.99352619624583" lon="10.926648553888159"><ele>217.0</ele><time>2026-04-18T07:56:58Z</time></trkpt><trkpt lat="45.99371770408858" lon="10.926647451247735"><ele>217.0</ele><time>2026-04-18T07:56:59Z</time></trkpt><trkpt lat="45.99392333628967" lon="10.926643901005324"><ele>217.0</ele><time>2026-04-18T07:57:00Z</time></trkpt><trkpt lat="45.99414004677019" lon="10.926644295871625"><ele>217.0</ele><time>2026-04-18T07:57:01Z</time></trkpt><trkpt lat="45.99436811259091" lon="10.926645098478833"><ele>217.0</ele><time>2026-04-18T07:57:02Z</time></trkpt><trkpt lat="45.994602207518774" lon="10.92664637804893"><ele>218.0</ele><time>2026-04-18T07:57:03Z</time></trkpt><trkpt lat="45.994837196783585" lon="10.92664799600424"><ele>219.0</ele><time>2026-04-18T07:57:04Z</time></trkpt><trkpt lat="45.99506119203787" lon="10.92665078585779"><ele>220.0</ele><time>2026-04-18T07:57:05Z</time></trkpt><trkpt lat="45.9952736654457" lon="10.926646967522421"><ele>221.0</ele><time>2026-04-18T07:57:06Z</time></trkpt><trkpt lat="45.99547790816337" lon="10.926635543461428"><ele>222.0</ele><time>2026-04-18T07:57:07Z</time></trkpt><trkpt lat="45.9956693404264" lon="10.926617811864512"><ele>221.66666666666669</ele><time>2026-04-18T07:57:08Z</time></trkpt><trkpt lat="45.99585175672757" lon="10.926590495302335"><ele>221.33333333333334</ele><time>2026-04-18T07:57:09Z</time></trkpt><trkpt lat="45.99602758366869" lon="10.926559635253092"><ele>221.0</ele><time>2026-04-18T07:57:10Z</time></trkpt><trkpt lat="45.99619881238474" lon="10.926525870245113"><ele>221.0</ele><time>2026-04-18T07:57:11Z</time></trkpt><trkpt lat="45.996371210615735" lon="10.926493495318985"><ele>221.0</ele><time>2026-04-18T07:57:12Z</time></trkpt><trkpt lat="45.996545707675836" lon="10.926466862720538"><ele>221.0</ele><time>2026-04-18T07:57:13Z</time></trkpt><trkpt lat="45.99671838792154" lon="10.926442821808228"><ele>221.33333333333334</ele><time>2026-04-18T07:57:14Z</time></trkpt><trkpt lat="45.996886006154185" lon="10.92639361409265"><ele>221.66666666666669</ele><time>2026-04-18T07:57:15Z</time></trkpt><trkpt lat="45.99703766503743" lon="10.926301326314986"><ele>222.0</ele><time>2026-04-18T07:57:16Z</time></trkpt><trkpt lat="45.997182202550356" lon="10.926180095821548"><ele>222.0</ele><time>2026-04-18T07:57:17Z</time></trkpt><trkpt lat="45.99731733705476" lon="10.926033374206412"><ele>222.0</ele><time>2026-04-18T07:57:18Z</time></trkpt><trkpt lat="45.99744632127511" lon="10.925877206660177"><ele>222.0</ele><time>2026-04-18T07:57:19Z</time></trkpt><trkpt lat="45.99758102066014" lon="10.925753693925698"><ele>221.75</ele><time>2026-04-18T07:57:20Z</time></trkpt><trkpt lat="45.997694562949924" lon="10.92561630834685"><ele>221.5</ele><time>2026-04-18T07:57:21Z</time></trkpt><trkpt lat="45.99782275725493" lon="10.925532949853974"><ele>221.25</ele><time>2026-04-18T07:57:22Z</time></trkpt><trkpt lat="45.99795643710099" lon="10.925488544323718"><ele>221.0</ele><time>2026-04-18T07:57:23Z</time></trkpt><trkpt lat="45.99808836401834" lon="10.92547084990181"><ele>221.0</ele><time>2026-04-18T07:57:24Z</time></trkpt><trkpt lat="45.99822494410385" lon="10.925464534838683"><ele>221.0</ele><time>2026-04-18T07:57:25Z</time></trkpt><trkpt lat="45.99836241791416" lon="10.925453785858108"><ele>221.0</ele><time>2026-04-18T07:57:26Z</time></trkpt><trkpt lat="45.99849926676028" lon="10.925439627833386"><ele>221.0</ele><time>2026-04-18T07:57:27Z</time></trkpt><trkpt lat="45.998633082372095" lon="10.925424298332178"><ele>221.5</ele><time>2026-04-18T07:57:28Z</time></trkpt><trkpt lat="45.998767545939664" lon="10.925410745980075"><ele>222.0</ele><time>2026-04-18T07:57:29Z</time></trkpt><trkpt lat="45.998911142171394" lon="10.925401830697975"><ele>222.5</ele><time>2026-04-18T07:57:30Z</time></trkpt><trkpt lat="45.99905966463011" lon="10.925392604894968"><ele>223.0</ele><time>2026-04-18T07:57:31Z</time></trkpt><trkpt lat="45.9992169361063" lon="10.92537838091607"><ele>223.66666666666666</ele><time>2026-04-18T07:57:32Z</time></trkpt><trkpt lat="45.99937917051472" lon="10.925365034341393"><ele>224.33333333333331</ele><time>2026-04-18T07:57:33Z</time></trkpt><trkpt lat="45.999545263545066" lon="10.925349322640246"><ele>225.0</ele><time>2026-04-18T07:57:34Z</time></trkpt><trkpt lat="45.99971485856975" lon="10.92533752369581"><ele>225.0</ele><time>2026-04-18T07:57:35Z</time></trkpt><trkpt lat="45.9998840051276" lon="10.925327705209272"><ele>225.0</ele><time>2026-04-18T07:57:36Z</time></trkpt><trkpt lat="46.00004356202089" lon="10.925313087327522"><ele>225.0</ele><time>2026-04-18T07:57:37Z</time></trkpt><trkpt lat="46.00019211187541" lon="10.925297928336777"><ele>225.0</ele><time>2026-04-18T07:57:38Z</time></trkpt><trkpt lat="46.00034064460359" lon="10.925282991767176"><ele>225.0</ele><time>2026-04-18T07:57:39Z</time></trkpt><trkpt lat="46.00049872617173" lon="10.925271833170518"><ele>225.0</ele><time>2026-04-18T07:57:40Z</time></trkpt><trkpt lat="46.000662613198145" lon="10.925263872269484"><ele>225.0</ele><time>2026-04-18T07:57:41Z</time></trkpt><trkpt lat="46.00082890227608" lon="10.925259883516695"><ele>225.0</ele><time>2026-04-18T07:57:42Z</time></trkpt><trkpt lat="46.000991568198515" lon="10.925277953442862"><ele>225.0</ele><time>2026-04-18T07:57:43Z</time></trkpt><trkpt lat="46.00114852515848" lon="10.925333651179978"><ele>225.0</ele><time>2026-04-18T07:57:44Z</time></trkpt><trkpt lat="46.00129234878912" lon="10.925435338424105"><ele>225.0</ele><time>2026-04-18T07:57:45Z</time></trkpt><trkpt lat="46.001420659123134" lon="10.92555640695886"><ele>225.0</ele><time>2026-04-18T07:57:46Z</time></trkpt><trkpt lat="46.00154165951799" lon="10.925682875552877"><ele>225.0</ele><time>2026-04-18T07:57:47Z</time></trkpt><trkpt lat="46.00165492592187" lon="10.925804658402008"><ele>225.0</ele><time>2026-04-18T07:57:48Z</time></trkpt><trkpt lat="46.00176848560911" lon="10.925919812782054"><ele>225.0</ele><time>2026-04-18T07:57:49Z</time></trkpt><trkpt lat="46.00188226455963" lon="10.926040858803049"><ele>225.0</ele><time>2026-04-18T07:57:50Z</time></trkpt><trkpt lat="46.001989685461005" lon="10.926184226524283"><ele>225.33333333333331</ele><time>2026-04-18T07:57:51Z</time></trkpt><trkpt lat="46.002087868734755" lon="10.926357139879567"><ele>225.66666666666666</ele><time>2026-04-18T07:57:52Z</time></trkpt><trkpt lat="46.002171080231626" lon="10.926553188189802"><ele>226.0</ele><time>2026-04-18T07:57:53Z</time></trkpt><trkpt lat="46.00224430711876" lon="10.926752652414093"><ele>226.75</ele><time>2026-04-18T07:57:54Z</time></trkpt><trkpt lat="46.00231696128971" lon="10.92694759557516"><ele>227.5</ele><time>2026-04-18T07:57:55Z</time></trkpt><trkpt lat="46.00238957321462" lon="10.927133813020516"><ele>228.25</ele><time>2026-04-18T07:57:56Z</time></trkpt><trkpt lat="46.00245920781944" lon="10.927307111553167"><ele>229.0</ele><time>2026-04-18T07:57:57Z</time></trkpt><trkpt lat="46.0025285548546" lon="10.927471827203497"><ele>229.0</ele><time>2026-04-18T07:57:58Z</time></trkpt><trkpt lat="46.002596091565174" lon="10.927633855146453"><ele>228.99999999999997</ele><time>2026-04-18T07:57:59Z</time></trkpt><trkpt lat="46.00264863383988" lon="10.92776751524869"><ele>228.99999999999997</ele><time>2026-04-18T07:58:00Z</time></trkpt><trkpt lat="46.00269772060344" lon="10.927895385928933"><ele>229.0</ele><time>2026-04-18T07:58:02Z</time></trkpt><trkpt lat="46.00275018732956" lon="10.92801708004557"><ele>229.0</ele><time>2026-04-18T07:58:04Z</time></trkpt><trkpt lat="46.00278558107232" lon="10.928105548049967"><ele>229.0</ele><time>2026-04-18T07:58:13Z</time></trkpt><trkpt lat="46.00282520120359" lon="10.928226863748291"><ele>228.99999999999997</ele><time>2026-04-18T07:58:16Z</time></trkpt><trkpt lat="46.00285726160494" lon="10.92831270327369"><ele>228.99999999999997</ele><time>2026-04-18T07:58:20Z</time></trkpt><trkpt lat="46.00289566146048" lon="10.928432021885575"><ele>229.0</ele><time>2026-04-18T07:58:35Z</time></trkpt><trkpt lat="46.002939750040234" lon="10.92856442786225"><ele>229.0</ele><time>2026-04-18T07:58:37Z</time></trkpt><trkpt lat="46.002982579002435" lon="10.928696682361117"><ele>230.0</ele><time>2026-04-18T07:58:39Z</time></trkpt><trkpt lat="46.00304470744801" lon="10.928854238117882"><ele>230.99999999999997</ele><time>2026-04-18T07:58:41Z</time></trkpt><trkpt lat="46.00307174405271" lon="10.928946841818515"><ele>231.99999999999997</ele><time>2026-04-18T07:58:44Z</time></trkpt><trkpt lat="46.00311594794374" lon="10.929059856231506"><ele>233.0</ele><time>2026-04-18T07:58:58Z</time></trkpt><trkpt lat="46.00313252404957" lon="10.929157872926373"><ele>234.0</ele><time>2026-04-18T07:59:03Z</time></trkpt><trkpt lat="46.003183604894325" lon="10.929305239001254"><ele>234.75</ele><time>2026-04-18T07:59:05Z</time></trkpt><trkpt lat="46.003224385600156" lon="10.929479581333549"><ele>235.5</ele><time>2026-04-18T07:59:07Z</time></trkpt><trkpt lat="46.003242293585195" lon="10.92961901175507"><ele>236.25</ele><time>2026-04-18T07:59:08Z</time></trkpt><trkpt lat="46.00324209335845" lon="10.929788880486091"><ele>237.0</ele><time>2026-04-18T07:59:09Z</time></trkpt><trkpt lat="46.00323607979051" lon="10.929981056761678"><ele>237.75</ele><time>2026-04-18T07:59:10Z</time></trkpt><trkpt lat="46.0032322389644" lon="10.930174915525713"><ele>238.5</ele><time>2026-04-18T07:59:11Z</time></trkpt><trkpt lat="46.00322621425961" lon="10.930381431283271"><ele>239.25</ele><time>2026-04-18T07:59:12Z</time></trkpt><trkpt lat="46.003217993525496" lon="10.930609039228198"><ele>240.0</ele><time>2026-04-18T07:59:13Z</time></trkpt><trkpt lat="46.00321312786027" lon="10.930828380752697"><ele>243.0</ele><time>2026-04-18T07:59:14Z</time></trkpt><trkpt lat="46.003213547970795" lon="10.931058930085912"><ele>246.0</ele><time>2026-04-18T07:59:15Z</time></trkpt><trkpt lat="46.003222999823606" lon="10.9312958647776"><ele>249.0</ele><time>2026-04-18T07:59:16Z</time></trkpt><trkpt lat="46.00326483625835" lon="10.931539398420028"><ele>246.0</ele><time>2026-04-18T07:59:17Z</time></trkpt><trkpt lat="46.003331073868466" lon="10.93177785308689"><ele>243.0</ele><time>2026-04-18T07:59:18Z</time></trkpt><trkpt lat="46.00341751612289" lon="10.931997997900641"><ele>240.0</ele><time>2026-04-18T07:59:19Z</time></trkpt><trkpt lat="46.0035267022764" lon="10.93221435291231"><ele>240.0</ele><time>2026-04-18T07:59:20Z</time></trkpt><trkpt lat="46.003652029669134" lon="10.932413081260114"><ele>240.0</ele><time>2026-04-18T07:59:21Z</time></trkpt><trkpt lat="46.003786819316915" lon="10.932583209865529"><ele>240.0</ele><time>2026-04-18T07:59:22Z</time></trkpt><trkpt lat="46.0039300497874" lon="10.93272963620901"><ele>240.0</ele><time>2026-04-18T07:59:23Z</time></trkpt><trkpt lat="46.00408925397599" lon="10.932841292404397"><ele>240.0</ele><time>2026-04-18T07:59:24Z</time></trkpt><trkpt lat="46.00425903887346" lon="10.932933645372612"><ele>240.0</ele><time>2026-04-18T07:59:25Z</time></trkpt><trkpt lat="46.0044397242908" lon="10.933020828732424"><ele>240.0</ele><time>2026-04-18T07:59:26Z</time></trkpt><trkpt lat="46.004625635897725" lon="10.933118349764438"><ele>240.0</ele><time>2026-04-18T07:59:27Z</time></trkpt><trkpt lat="46.00482024015575" lon="10.93322979489464"><ele>240.0</ele><time>2026-04-18T07:59:28Z</time></trkpt><trkpt lat="46.0050250250547" lon="10.933343586917575"><ele>241.33333333333331</ele><time>2026-04-18T07:59:29Z</time></trkpt><trkpt lat="46.00523468869083" lon="10.933457175503856"><ele>242.66666666666666</ele><time>2026-04-18T07:59:30Z</time></trkpt><trkpt lat="46.00544541104164" lon="10.933565727432967"><ele>244.0</ele><time>2026-04-18T07:59:31Z</time></trkpt><trkpt lat="46.00563777948397" lon="10.93367282921349"><ele>244.0</ele><time>2026-04-18T07:59:32Z</time></trkpt><trkpt lat="46.005802744191584" lon="10.933762003741249"><ele>244.0</ele><time>2026-04-18T07:59:33Z</time></trkpt><trkpt lat="46.00595922580718" lon="10.933813489917428"><ele>244.0</ele><time>2026-04-18T07:59:34Z</time></trkpt><trkpt lat="46.006106764107436" lon="10.933811988444408"><ele>243.66666666666666</ele><time>2026-04-18T07:59:35Z</time></trkpt><trkpt lat="46.006257362590695" lon="10.933772634696776"><ele>243.33333333333331</ele><time>2026-04-18T07:59:36Z</time></trkpt><trkpt lat="46.00640900163452" lon="10.933723352657664"><ele>243.0</ele><time>2026-04-18T07:59:37Z</time></trkpt><trkpt lat="46.00655732292677" lon="10.933673147024477"><ele>241.75</ele><time>2026-04-18T07:59:38Z</time></trkpt><trkpt lat="46.00670206380545" lon="10.933626794529594"><ele>240.5</ele><time>2026-04-18T07:59:39Z</time></trkpt><trkpt lat="46.006840460469114" lon="10.933577826952748"><ele>239.25</ele><time>2026-04-18T07:59:40Z</time></trkpt><trkpt lat="46.00697346733274" lon="10.933536913034022"><ele>238.0</ele><time>2026-04-18T07:59:41Z</time></trkpt><trkpt lat="46.00709828860204" lon="10.933507150135135"><ele>238.0</ele><time>2026-04-18T07:59:42Z</time></trkpt><trkpt lat="46.00721657575355" lon="10.93348345037514"><ele>238.0</ele><time>2026-04-18T07:59:43Z</time></trkpt><trkpt lat="46.00732617113576" lon="10.933494303169427"><ele>238.0</ele><time>2026-04-18T07:59:44Z</time></trkpt><trkpt lat="46.00743219763649" lon="10.933529087996448"><ele>238.0</ele><time>2026-04-18T07:59:45Z</time></trkpt><trkpt lat="46.007530723823194" lon="10.933588427658684"><ele>238.0</ele><time>2026-04-18T07:59:46Z</time></trkpt><trkpt lat="46.00762229674516" lon="10.93367833314737"><ele>238.8</ele><time>2026-04-18T07:59:47Z</time></trkpt><trkpt lat="46.00769798268822" lon="10.933793689169965"><ele>239.60000000000002</ele><time>2026-04-18T07:59:48Z</time></trkpt><trkpt lat="46.007747726197735" lon="10.933925713757427"><ele>240.39999999999998</ele><time>2026-04-18T07:59:49Z</time></trkpt><trkpt lat="46.00777858004447" lon="10.934060411241884"><ele>241.2</ele><time>2026-04-18T07:59:50Z</time></trkpt><trkpt lat="46.007815746919384" lon="10.934202685212536"><ele>242.0</ele><time>2026-04-18T07:59:51Z</time></trkpt><trkpt lat="46.00785503444592" lon="10.93435899945845"><ele>242.0</ele><time>2026-04-18T07:59:52Z</time></trkpt><trkpt lat="46.00789145164618" lon="10.934524870540878"><ele>242.0</ele><time>2026-04-18T07:59:53Z</time></trkpt><trkpt lat="46.0079322070283" lon="10.93469259274091"><ele>242.0</ele><time>2026-04-18T07:59:54Z</time></trkpt><trkpt lat="46.00797915047946" lon="10.934849271619"><ele>242.0</ele><time>2026-04-18T07:59:55Z</time></trkpt><trkpt lat="46.00802941565925" lon="10.934989005953721"><ele>241.25</ele><time>2026-04-18T07:59:56Z</time></trkpt><trkpt lat="46.00808858299749" lon="10.935116766861933"><ele>240.5</ele><time>2026-04-18T07:59:57Z</time></trkpt><trkpt lat="46.00816287301678" lon="10.935235369560655"><ele>239.75</ele><time>2026-04-18T07:59:58Z</time></trkpt><trkpt lat="46.00825943763882" lon="10.935334282942106"><ele>239.0</ele><time>2026-04-18T07:59:59Z</time></trkpt><trkpt lat="46.008372326505985" lon="10.93541304372649"><ele>240.5</ele><time>2026-04-18T08:00:00Z</time></trkpt><trkpt lat="46.008494909504314" lon="10.935473820992241"><ele>242.0</ele><time>2026-04-18T08:00:01Z</time></trkpt><trkpt lat="46.00862222877015" lon="10.935534380991994"><ele>243.5</ele><time>2026-04-18T08:00:02Z</time></trkpt><trkpt lat="46.00875203673762" lon="10.93560355561028"><ele>245.0</ele><time>2026-04-18T08:00:03Z</time></trkpt><trkpt lat="46.00888624487065" lon="10.935684726907613"><ele>245.0</ele><time>2026-04-18T08:00:04Z</time></trkpt><trkpt lat="46.00901939254978" lon="10.935767630089954"><ele>245.0</ele><time>2026-04-18T08:00:05Z</time></trkpt><trkpt lat="46.00915129741708" lon="10.935847940518071"><ele>245.0</ele><time>2026-04-18T08:00:06Z</time></trkpt><trkpt lat="46.00928896931395" lon="10.935938487388265"><ele>245.0</ele><time>2026-04-18T08:00:07Z</time></trkpt><trkpt lat="46.009425650753116" lon="10.936031642930025"><ele>244.75</ele><time>2026-04-18T08:00:08Z</time></trkpt><trkpt lat="46.00955675755294" lon="10.936126768540744"><ele>244.5</ele><time>2026-04-18T08:00:09Z</time></trkpt><trkpt lat="46.009684367488404" lon="10.936219304318003"><ele>244.25</ele><time>2026-04-18T08:00:10Z</time></trkpt><trkpt lat="46.00981483478511" lon="10.936300849146877"><ele>244.0</ele><time>2026-04-18T08:00:11Z</time></trkpt><trkpt lat="46.00994595182327" lon="10.936376002046638"><ele>245.0</ele><time>2026-04-18T08:00:12Z</time></trkpt><trkpt lat="46.01007716543238" lon="10.93645172448119"><ele>246.0</ele><time>2026-04-18T08:00:13Z</time></trkpt><trkpt lat="46.01020464487873" lon="10.936533074209617"><ele>247.0</ele><time>2026-04-18T08:00:14Z</time></trkpt><trkpt lat="46.01033012908383" lon="10.936612814541558"><ele>248.0</ele><time>2026-04-18T08:00:15Z</time></trkpt><trkpt lat="46.01045327427919" lon="10.93668504681412"><ele>247.0</ele><time>2026-04-18T08:00:16Z</time></trkpt><trkpt lat="46.01057162842628" lon="10.936754530829393"><ele>246.0</ele><time>2026-04-18T08:00:17Z</time></trkpt><trkpt lat="46.010686555525865" lon="10.936816001424692"><ele>245.0</ele><time>2026-04-18T08:00:18Z</time></trkpt><trkpt lat="46.01079696373394" lon="10.936863390048178"><ele>244.0</ele><time>2026-04-18T08:00:19Z</time></trkpt><trkpt lat="46.01091389472655" lon="10.936884573160299"><ele>244.0</ele><time>2026-04-18T08:00:20Z</time></trkpt><trkpt lat="46.011031439728846" lon="10.93692174361722"><ele>244.0</ele><time>2026-04-18T08:00:21Z</time></trkpt><trkpt lat="46.01115553198042" lon="10.936929860843515"><ele>244.0</ele><time>2026-04-18T08:00:22Z</time></trkpt><trkpt lat="46.011280046300186" lon="10.936913264269442"><ele>244.0</ele><time>2026-04-18T08:00:23Z</time></trkpt><trkpt lat="46.01140385083533" lon="10.936924998443587"><ele>244.0</ele><time>2026-04-18T08:00:24Z</time></trkpt><trkpt lat="46.011521736167005" lon="10.936959909263033"><ele>244.0</ele><time>2026-04-18T08:00:25Z</time></trkpt><trkpt lat="46.011633410307994" lon="10.937026102527973"><ele>244.0</ele><time>2026-04-18T08:00:26Z</time></trkpt><trkpt lat="46.011731714194546" lon="10.937111756555737"><ele>244.0</ele><time>2026-04-18T08:00:27Z</time></trkpt><trkpt lat="46.01182386788307" lon="10.93720896914819"><ele>244.75</ele><time>2026-04-18T08:00:28Z</time></trkpt><trkpt lat="46.011913499074026" lon="10.93732464036455"><ele>245.5</ele><time>2026-04-18T08:00:29Z</time></trkpt><trkpt lat="46.01200991086917" lon="10.937448223001981"><ele>246.25</ele><time>2026-04-18T08:00:30Z</time></trkpt><trkpt lat="46.01211021404785" lon="10.937568441682224"><ele>247.0</ele><time>2026-04-18T08:00:31Z</time></trkpt><trkpt lat="46.012220954524935" lon="10.937680854037836"><ele>246.5</ele><time>2026-04-18T08:00:32Z</time></trkpt><trkpt lat="46.01232713606637" lon="10.937781330869429"><ele>246.0</ele><time>2026-04-18T08:00:33Z</time></trkpt><trkpt lat="46.01242712675269" lon="10.937876737494287"><ele>245.5</ele><time>2026-04-18T08:00:34Z</time></trkpt><trkpt lat="46.01252013064522" lon="10.937970512983387"><ele>245.0</ele><time>2026-04-18T08:00:35Z</time></trkpt><trkpt lat="46.012599172150495" lon="10.938048157491217"><ele>245.00000000000003</ele><time>2026-04-18T08:00:36Z</time></trkpt><trkpt lat="46.012659414362496" lon="10.938110511846522"><ele>245.0</ele><time>2026-04-18T08:00:37Z</time></trkpt><trkpt lat="46.012740297043806" lon="10.938192363956897"><ele>245.0</ele><time>2026-04-18T08:00:39Z</time></trkpt><trkpt lat="46.012797277349094" lon="10.938256005211672"><ele>245.0</ele><time>2026-04-18T08:00:41Z</time></trkpt><trkpt lat="46.01287203113819" lon="10.938114886358935"><ele>245.00000000000003</ele><time>2026-04-18T08:00:48Z</time></trkpt><trkpt lat="46.01288535175375" lon="10.938215760666713"><ele>245.0</ele><time>2026-04-18T08:01:12Z</time></trkpt><trkpt lat="46.01293075060348" lon="10.938320840245709"><ele>244.0</ele><time>2026-04-18T08:01:15Z</time></trkpt><trkpt lat="46.01295139904581" lon="10.938420465059764"><ele>243.0</ele><time>2026-04-18T08:02:47Z</time></trkpt><trkpt lat="46.01298532925197" lon="10.938565483150697"><ele>242.0</ele><time>2026-04-18T08:02:49Z</time></trkpt><trkpt lat="46.01313481474725" lon="10.938786186981673"><ele>241.0</ele><time>2026-04-18T08:02:51Z</time></trkpt><trkpt lat="46.01319796106925" lon="10.93889617653169"><ele>241.0</ele><time>2026-04-18T08:02:52Z</time></trkpt><trkpt lat="46.01326076089191" lon="10.938995026312348"><ele>241.00000000000003</ele><time>2026-04-18T08:02:53Z</time></trkpt><trkpt lat="46.0133273734497" lon="10.93909788571732"><ele>241.00000000000003</ele><time>2026-04-18T08:02:54Z</time></trkpt><trkpt lat="46.013405221527215" lon="10.939206777659308"><ele>241.0</ele><time>2026-04-18T08:02:55Z</time></trkpt><trkpt lat="46.01349908465239" lon="10.9393169081336"><ele>241.0</ele><time>2026-04-18T08:02:56Z</time></trkpt><trkpt lat="46.01360463440289" lon="10.939428535804188"><ele>242.0</ele><time>2026-04-18T08:02:57Z</time></trkpt><trkpt lat="46.013714773147704" lon="10.93954120636508"><ele>243.0</ele><time>2026-04-18T08:02:58Z</time></trkpt><trkpt lat="46.01382062382072" lon="10.939642126833318"><ele>244.0</ele><time>2026-04-18T08:02:59Z</time></trkpt><trkpt lat="46.01392431311322" lon="10.939740753453318"><ele>245.0</ele><time>2026-04-18T08:03:00Z</time></trkpt><trkpt lat="46.01402532343268" lon="10.939831163224126"><ele>245.0</ele><time>2026-04-18T08:03:01Z</time></trkpt><trkpt lat="46.01412651963735" lon="10.939907657579276"><ele>245.0</ele><time>2026-04-18T08:03:02Z</time></trkpt><trkpt lat="46.01422694588099" lon="10.939964616724446"><ele>245.0</ele><time>2026-04-18T08:03:03Z</time></trkpt><trkpt lat="46.01433124689193" lon="10.939997597370493"><ele>245.0</ele><time>2026-04-18T08:03:04Z</time></trkpt><trkpt lat="46.01443240285532" lon="10.940016363587732"><ele>245.0</ele><time>2026-04-18T08:03:05Z</time></trkpt><trkpt lat="46.01453093171888" lon="10.940034154918036"><ele>244.6</ele><time>2026-04-18T08:03:06Z</time></trkpt><trkpt lat="46.01463106874979" lon="10.94005695376459"><ele>244.2</ele><time>2026-04-18T08:03:07Z</time></trkpt><trkpt lat="46.01473258324015" lon="10.940094302057702"><ele>243.8</ele><time>2026-04-18T08:03:08Z</time></trkpt><trkpt lat="46.0148339714409" lon="10.940149767263968"><ele>243.4</ele><time>2026-04-18T08:03:09Z</time></trkpt><trkpt lat="46.01493406760309" lon="10.94022954843756"><ele>243.0</ele><time>2026-04-18T08:03:10Z</time></trkpt><trkpt lat="46.01503574522502" lon="10.940324523394233"><ele>243.0</ele><time>2026-04-18T08:03:11Z</time></trkpt><trkpt lat="46.015139002676754" lon="10.94043106618104"><ele>243.0</ele><time>2026-04-18T08:03:12Z</time></trkpt><trkpt lat="46.015245845983074" lon="10.940543051118633"><ele>243.0</ele><time>2026-04-18T08:03:13Z</time></trkpt><trkpt lat="46.0153600923093" lon="10.940654826439081"><ele>243.0</ele><time>2026-04-18T08:03:14Z</time></trkpt><trkpt lat="46.01548448246921" lon="10.940765965084596"><ele>243.0</ele><time>2026-04-18T08:03:15Z</time></trkpt><trkpt lat="46.01561211841745" lon="10.940878061995242"><ele>243.0</ele><time>2026-04-18T08:03:16Z</time></trkpt><trkpt lat="46.01574424595345" lon="10.940991734790385"><ele>243.0</ele><time>2026-04-18T08:03:17Z</time></trkpt><trkpt lat="46.01587979096817" lon="10.941105523838804"><ele>244.0</ele><time>2026-04-18T08:03:18Z</time></trkpt><trkpt lat="46.016017039545375" lon="10.94121906460038"><ele>245.0</ele><time>2026-04-18T08:03:19Z</time></trkpt><trkpt lat="46.016150446852414" lon="10.941327336857377"><ele>246.0</ele><time>2026-04-18T08:03:20Z</time></trkpt><trkpt lat="46.01627780838951" lon="10.941428525413029"><ele>246.0</ele><time>2026-04-18T08:03:21Z</time></trkpt><trkpt lat="46.016397830887506" lon="10.941526514403133"><ele>246.0</ele><time>2026-04-18T08:03:22Z</time></trkpt><trkpt lat="46.01651163979982" lon="10.94162227802784"><ele>246.0</ele><time>2026-04-18T08:03:23Z</time></trkpt><trkpt lat="46.016620565942105" lon="10.941712286724414"><ele>246.0</ele><time>2026-04-18T08:03:24Z</time></trkpt><trkpt lat="46.016724634300736" lon="10.941796414299663"><ele>246.16666666666666</ele><time>2026-04-18T08:03:25Z</time></trkpt><trkpt lat="46.01682860406082" lon="10.941866225778737"><ele>246.33333333333331</ele><time>2026-04-18T08:03:26Z</time></trkpt><trkpt lat="46.01692790186155" lon="10.941915462513993"><ele>246.5</ele><time>2026-04-18T08:03:27Z</time></trkpt><trkpt lat="46.0170166512602" lon="10.941942919295709"><ele>246.66666666666666</ele><time>2026-04-18T08:03:28Z</time></trkpt><trkpt lat="46.0170900475179" lon="10.941951989718419"><ele>246.83333333333331</ele><time>2026-04-18T08:03:29Z</time></trkpt><trkpt lat="46.0171537302127" lon="10.94195646658631"><ele>247.0</ele><time>2026-04-18T08:03:31Z</time></trkpt><trkpt lat="46.017230938574656" lon="10.941956172312828"><ele>246.99999999999997</ele><time>2026-04-18T08:03:34Z</time></trkpt><trkpt lat="46.017294056714306" lon="10.941959996025767"><ele>247.0</ele><time>2026-04-18T08:03:36Z</time></trkpt><trkpt lat="46.017391776040824" lon="10.941973539366774"><ele>247.0</ele><time>2026-04-18T08:03:38Z</time></trkpt><trkpt lat="46.01745622770752" lon="10.941983948984124"><ele>247.0</ele><time>2026-04-18T08:03:39Z</time></trkpt><trkpt lat="46.01752957846874" lon="10.941990758283914"><ele>246.99999999999997</ele><time>2026-04-18T08:03:40Z</time></trkpt><trkpt lat="46.017613124637116" lon="10.941994499130452"><ele>247.0</ele><time>2026-04-18T08:03:41Z</time></trkpt><trkpt lat="46.0176992325913" lon="10.94199700414171"><ele>247.39999999999998</ele><time>2026-04-18T08:03:42Z</time></trkpt><trkpt lat="46.01778153494553" lon="10.941997303163877"><ele>247.79999999999998</ele><time>2026-04-18T08:03:43Z</time></trkpt><trkpt lat="46.0178695412876" lon="10.941987858930645"><ele>248.2</ele><time>2026-04-18T08:03:44Z</time></trkpt><trkpt lat="46.01796244946574" lon="10.941993118487757"><ele>248.6</ele><time>2026-04-18T08:03:45Z</time></trkpt><trkpt lat="46.01805531396553" lon="10.941919581755908"><ele>249.0</ele><time>2026-04-18T08:03:46Z</time></trkpt><trkpt lat="46.01814614370885" lon="10.941862615657582"><ele>249.0</ele><time>2026-04-18T08:03:47Z</time></trkpt><trkpt lat="46.01822574008693" lon="10.941798529635093"><ele>249.0</ele><time>2026-04-18T08:03:48Z</time></trkpt><trkpt lat="46.01830322727878" lon="10.941739674712647"><ele>249.0</ele><time>2026-04-18T08:03:49Z</time></trkpt><trkpt lat="46.01838010670471" lon="10.941679242374983"><ele>249.0</ele><time>2026-04-18T08:03:50Z</time></trkpt><trkpt lat="46.01846397464263" lon="10.941643581882294"><ele>249.0</ele><time>2026-04-18T08:03:51Z</time></trkpt><trkpt lat="46.018537942539226" lon="10.941587542457949"><ele>249.0</ele><time>2026-04-18T08:03:52Z</time></trkpt><trkpt lat="46.01860194682359" lon="10.94153907024613"><ele>250.2</ele><time>2026-04-18T08:03:53Z</time></trkpt><trkpt lat="46.018646017081316" lon="10.941469128368164"><ele>251.39999999999998</ele><time>2026-04-18T08:03:54Z</time></trkpt><trkpt lat="46.01874873858216" lon="10.941396458686494"><ele>252.6</ele><time>2026-04-18T08:03:56Z</time></trkpt><trkpt lat="46.01886723505868" lon="10.941319544715652"><ele>253.8</ele><time>2026-04-18T08:03:58Z</time></trkpt><trkpt lat="46.018935763378934" lon="10.941274616450658"><ele>255.0</ele><time>2026-04-18T08:03:59Z</time></trkpt><trkpt lat="46.01900781090917" lon="10.941231546987218"><ele>255.0</ele><time>2026-04-18T08:04:00Z</time></trkpt><trkpt lat="46.01908435422198" lon="10.941181686226443"><ele>255.0</ele><time>2026-04-18T08:04:01Z</time></trkpt><trkpt lat="46.019180077897055" lon="10.941147954248605"><ele>255.0</ele><time>2026-04-18T08:04:02Z</time></trkpt><trkpt lat="46.01929232320717" lon="10.941145718086966"><ele>255.0</ele><time>2026-04-18T08:04:03Z</time></trkpt><trkpt lat="46.0194047864946" lon="10.941155034605332"><ele>255.0</ele><time>2026-04-18T08:04:04Z</time></trkpt><trkpt lat="46.019513530006165" lon="10.941204349479985"><ele>254.5</ele><time>2026-04-18T08:04:05Z</time></trkpt><trkpt lat="46.01962473550974" lon="10.941242037542423"><ele>254.0</ele><time>2026-04-18T08:04:06Z</time></trkpt><trkpt lat="46.01973635551142" lon="10.941289366615697"><ele>253.5</ele><time>2026-04-18T08:04:07Z</time></trkpt><trkpt lat="46.019851938409104" lon="10.941352111217522"><ele>253.0</ele><time>2026-04-18T08:04:08Z</time></trkpt><trkpt lat="46.01997478701275" lon="10.94142545016985"><ele>254.2</ele><time>2026-04-18T08:04:09Z</time></trkpt><trkpt lat="46.02006408171678" lon="10.941484111039008"><ele>255.4</ele><time>2026-04-18T08:04:10Z</time></trkpt><trkpt lat="46.0201514044455" lon="10.94154241437086"><ele>256.59999999999997</ele><time>2026-04-18T08:04:11Z</time></trkpt><trkpt lat="46.02024135790365" lon="10.941607159142933"><ele>257.8</ele><time>2026-04-18T08:04:12Z</time></trkpt><trkpt lat="46.02034503276011" lon="10.941655973931836"><ele>259.0</ele><time>2026-04-18T08:04:13Z</time></trkpt><trkpt lat="46.020439844501084" lon="10.941728649193935"><ele>259.0</ele><time>2026-04-18T08:04:14Z</time></trkpt><trkpt lat="46.02053584169701" lon="10.941798630292327"><ele>259.0</ele><time>2026-04-18T08:04:15Z</time></trkpt><trkpt lat="46.0206282669815" lon="10.941865011439939"><ele>259.0</ele><time>2026-04-18T08:04:16Z</time></trkpt><trkpt lat="46.02072152863915" lon="10.94192759821011"><ele>259.0</ele><time>2026-04-18T08:04:17Z</time></trkpt><trkpt lat="46.020813284197494" lon="10.941995895404943"><ele>259.0</ele><time>2026-04-18T08:04:18Z</time></trkpt><trkpt lat="46.0209074257183" lon="10.94206073884569"><ele>258.2</ele><time>2026-04-18T08:04:19Z</time></trkpt><trkpt lat="46.02100533234213" lon="10.942129581450747"><ele>257.4</ele><time>2026-04-18T08:04:20Z</time></trkpt><trkpt lat="46.02110443443376" lon="10.942199328518644"><ele>256.6</ele><time>2026-04-18T08:04:21Z</time></trkpt><trkpt lat="46.02120307309391" lon="10.942271094080496"><ele>255.8</ele><time>2026-04-18T08:04:22Z</time></trkpt><trkpt lat="46.021300561458716" lon="10.94234422806324"><ele>255.0</ele><time>2026-04-18T08:04:23Z</time></trkpt><trkpt lat="46.021399106333746" lon="10.942415545317674"><ele>255.0</ele><time>2026-04-18T08:04:24Z</time></trkpt><trkpt lat="46.021493228376265" lon="10.942483829455504"><ele>255.0</ele><time>2026-04-18T08:04:25Z</time></trkpt><trkpt lat="46.021582167910495" lon="10.94254710143307"><ele>255.0</ele><time>2026-04-18T08:04:26Z</time></trkpt><trkpt lat="46.02166260637817" lon="10.942604380397096"><ele>255.0</ele><time>2026-04-18T08:04:27Z</time></trkpt><trkpt lat="46.021728960438715" lon="10.942653138832444"><ele>255.0</ele><time>2026-04-18T08:04:28Z</time></trkpt><trkpt lat="46.021793005629874" lon="10.942700675048291"><ele>255.0</ele><time>2026-04-18T08:04:29Z</time></trkpt><trkpt lat="46.02186090496059" lon="10.94274771493922"><ele>254.8</ele><time>2026-04-18T08:04:30Z</time></trkpt><trkpt lat="46.02192801387336" lon="10.942796663431201"><ele>254.6</ele><time>2026-04-18T08:04:31Z</time></trkpt><trkpt lat="46.0220028240366" lon="10.942848887408875"><ele>254.39999999999998</ele><time>2026-04-18T08:04:32Z</time></trkpt><trkpt lat="46.02208740680827" lon="10.942909080731843"><ele>254.2</ele><time>2026-04-18T08:04:33Z</time></trkpt><trkpt lat="46.0221748521986" lon="10.942973961219721"><ele>254.0</ele><time>2026-04-18T08:04:34Z</time></trkpt><trkpt lat="46.02226988072447" lon="10.94304492016236"><ele>254.0</ele><time>2026-04-18T08:04:35Z</time></trkpt><trkpt lat="46.02236192675283" lon="10.943113273218218"><ele>253.99999999999997</ele><time>2026-04-18T08:04:36Z</time></trkpt><trkpt lat="46.022450592765566" lon="10.943173990066029"><ele>253.99999999999997</ele><time>2026-04-18T08:04:37Z</time></trkpt><trkpt lat="46.02253831330499" lon="10.943234239189923"><ele>254.0</ele><time>2026-04-18T08:04:38Z</time></trkpt><trkpt lat="46.0226252406586" lon="10.943296420536795"><ele>254.0</ele><time>2026-04-18T08:04:39Z</time></trkpt><trkpt lat="46.02270688153004" lon="10.943354753571457"><ele>255.2</ele><time>2026-04-18T08:04:40Z</time></trkpt><trkpt lat="46.022786981116326" lon="10.943412819635197"><ele>256.4</ele><time>2026-04-18T08:04:41Z</time></trkpt><trkpt lat="46.02286800340624" lon="10.943470023887134"><ele>257.6</ele><time>2026-04-18T08:04:42Z</time></trkpt><trkpt lat="46.02295079581447" lon="10.943527186583665"><ele>258.8</ele><time>2026-04-18T08:04:43Z</time></trkpt><trkpt lat="46.02303718091712" lon="10.94358481721347"><ele>260.0</ele><time>2026-04-18T08:04:44Z</time></trkpt><trkpt lat="46.02312059841663" lon="10.94364408012551"><ele>260.0</ele><time>2026-04-18T08:04:45Z</time></trkpt><trkpt lat="46.023201971068715" lon="10.943700998946966"><ele>260.0</ele><time>2026-04-18T08:04:46Z</time></trkpt><trkpt lat="46.02327818487121" lon="10.943758892196927"><ele>260.0</ele><time>2026-04-18T08:04:47Z</time></trkpt><trkpt lat="46.02335431595513" lon="10.94381559696162"><ele>260.0</ele><time>2026-04-18T08:04:48Z</time></trkpt><trkpt lat="46.0234343970364" lon="10.94387083175445"><ele>260.0</ele><time>2026-04-18T08:04:49Z</time></trkpt><trkpt lat="46.0235093015963" lon="10.94392236494249"><ele>260.0</ele><time>2026-04-18T08:04:50Z</time></trkpt><trkpt lat="46.023579497369404" lon="10.943971202242352"><ele>259.7142857142857</ele><time>2026-04-18T08:04:51Z</time></trkpt><trkpt lat="46.02364468866152" lon="10.944014273076775"><ele>259.42857142857144</ele><time>2026-04-18T08:04:52Z</time></trkpt><trkpt lat="46.02370665317791" lon="10.944053226914615"><ele>259.1428571428571</ele><time>2026-04-18T08:04:53Z</time></trkpt><trkpt lat="46.02376976285726" lon="10.944093292531909"><ele>258.8571428571429</ele><time>2026-04-18T08:04:54Z</time></trkpt><trkpt lat="46.02383666072287" lon="10.944140234173878"><ele>258.57142857142856</ele><time>2026-04-18T08:04:55Z</time></trkpt><trkpt lat="46.023902697134154" lon="10.944188431433604"><ele>258.2857142857143</ele><time>2026-04-18T08:04:56Z</time></trkpt><trkpt lat="46.02396963619441" lon="10.944236055279278"><ele>258.0</ele><time>2026-04-18T08:04:57Z</time></trkpt><trkpt lat="46.024046394817624" lon="10.944280611922824"><ele>258.0</ele><time>2026-04-18T08:04:58Z</time></trkpt><trkpt lat="46.0241358894603" lon="10.944326872502062"><ele>258.0</ele><time>2026-04-18T08:04:59Z</time></trkpt><trkpt lat="46.02423595269732" lon="10.944382312232076"><ele>258.0</ele><time>2026-04-18T08:05:00Z</time></trkpt><trkpt lat="46.024343667508425" lon="10.944440129416757"><ele>258.0</ele><time>2026-04-18T08:05:01Z</time></trkpt><trkpt lat="46.02445132788639" lon="10.944493756192491"><ele>258.0</ele><time>2026-04-18T08:05:02Z</time></trkpt><trkpt lat="46.0245669103994" lon="10.944551067241298"><ele>256.5</ele><time>2026-04-18T08:05:03Z</time></trkpt><trkpt lat="46.02468533362234" lon="10.94460552868561"><ele>255.0</ele><time>2026-04-18T08:05:04Z</time></trkpt><trkpt lat="46.02480458992788" lon="10.94465646470146"><ele>253.5</ele><time>2026-04-18T08:05:05Z</time></trkpt><trkpt lat="46.02492177272017" lon="10.944702870707872"><ele>252.0</ele><time>2026-04-18T08:05:06Z</time></trkpt><trkpt lat="46.025035945711004" lon="10.944746931099171"><ele>252.0</ele><time>2026-04-18T08:05:07Z</time></trkpt><trkpt lat="46.025145531084604" lon="10.944786634552287"><ele>252.0</ele><time>2026-04-18T08:05:08Z</time></trkpt><trkpt lat="46.02525438954411" lon="10.944825719622951"><ele>252.0</ele><time>2026-04-18T08:05:09Z</time></trkpt><trkpt lat="46.02536783780032" lon="10.944862965506667"><ele>252.0</ele><time>2026-04-18T08:05:10Z</time></trkpt><trkpt lat="46.02548417100282" lon="10.944901310559306"><ele>252.0</ele><time>2026-04-18T08:05:11Z</time></trkpt><trkpt lat="46.02560025996136" lon="10.944941742579037"><ele>252.0</ele><time>2026-04-18T08:05:12Z</time></trkpt><trkpt lat="46.02572159504257" lon="10.944976318609323"><ele>252.0</ele><time>2026-04-18T08:05:13Z</time></trkpt><trkpt lat="46.02584209423941" lon="10.945008858575395"><ele>252.0</ele><time>2026-04-18T08:05:14Z</time></trkpt><trkpt lat="46.02596053690029" lon="10.945044048238698"><ele>251.5</ele><time>2026-04-18T08:05:15Z</time></trkpt><trkpt lat="46.02607847703219" lon="10.945079270262504"><ele>251.0</ele><time>2026-04-18T08:05:16Z</time></trkpt><trkpt lat="46.02619664360754" lon="10.945114995670469"><ele>250.5</ele><time>2026-04-18T08:05:17Z</time></trkpt><trkpt lat="46.02631704510176" lon="10.945146003825062"><ele>250.0</ele><time>2026-04-18T08:05:18Z</time></trkpt><trkpt lat="46.02643233140751" lon="10.945177114209981"><ele>250.0</ele><time>2026-04-18T08:05:19Z</time></trkpt><trkpt lat="46.026543244263046" lon="10.945204016567626"><ele>250.0</ele><time>2026-04-18T08:05:20Z</time></trkpt><trkpt lat="46.02665083857598" lon="10.945228975328236"><ele>250.0</ele><time>2026-04-18T08:05:21Z</time></trkpt><trkpt lat="46.02675203990014" lon="10.945252327076847"><ele>250.0</ele><time>2026-04-18T08:05:22Z</time></trkpt><trkpt lat="46.02685030798025" lon="10.945276312120352"><ele>250.0</ele><time>2026-04-18T08:05:23Z</time></trkpt><trkpt lat="46.02694493937553" lon="10.945310601433977"><ele>250.0</ele><time>2026-04-18T08:05:24Z</time></trkpt><trkpt lat="46.02704739094177" lon="10.94533947364056"><ele>250.0</ele><time>2026-04-18T08:05:25Z</time></trkpt><trkpt lat="46.02715569009506" lon="10.945367507675394"><ele>250.0</ele><time>2026-04-18T08:05:26Z</time></trkpt><trkpt lat="46.027267534600874" lon="10.945397348021881"><ele>250.0</ele><time>2026-04-18T08:05:27Z</time></trkpt><trkpt lat="46.02739034183069" lon="10.945424263591935"><ele>250.25</ele><time>2026-04-18T08:05:28Z</time></trkpt><trkpt lat="46.027520269957996" lon="10.945454410156747"><ele>250.5</ele><time>2026-04-18T08:05:29Z</time></trkpt><trkpt lat="46.027655102584234" lon="10.945484999426494"><ele>250.75</ele><time>2026-04-18T08:05:30Z</time></trkpt><trkpt lat="46.0277904706739" lon="10.945515033645513"><ele>251.0</ele><time>2026-04-18T08:05:31Z</time></trkpt><trkpt lat="46.027924396358394" lon="10.945543349467517"><ele>251.0</ele><time>2026-04-18T08:05:32Z</time></trkpt><trkpt lat="46.02805614753063" lon="10.945563462967758"><ele>251.0</ele><time>2026-04-18T08:05:33Z</time></trkpt><trkpt lat="46.02817821804719" lon="10.945588997212573"><ele>251.0</ele><time>2026-04-18T08:05:34Z</time></trkpt><trkpt lat="46.0282977511015" lon="10.9456086683408"><ele>251.0</ele><time>2026-04-18T08:05:35Z</time></trkpt><trkpt lat="46.028412582952114" lon="10.945626253638709"><ele>250.5</ele><time>2026-04-18T08:05:36Z</time></trkpt><trkpt lat="46.02851989030412" lon="10.945644276621715"><ele>250.0</ele><time>2026-04-18T08:05:37Z</time></trkpt><trkpt lat="46.02863259229458" lon="10.945674325396629"><ele>249.5</ele><time>2026-04-18T08:05:38Z</time></trkpt><trkpt lat="46.028749883629786" lon="10.945712087040539"><ele>249.0</ele><time>2026-04-18T08:05:39Z</time></trkpt><trkpt lat="46.02886801967032" lon="10.945749144058142"><ele>249.0</ele><time>2026-04-18T08:05:40Z</time></trkpt><trkpt lat="46.02898717290342" lon="10.94577632948713"><ele>249.0</ele><time>2026-04-18T08:05:41Z</time></trkpt><trkpt lat="46.02909962230898" lon="10.94580713549314"><ele>249.0</ele><time>2026-04-18T08:05:42Z</time></trkpt><trkpt lat="46.029204466876116" lon="10.945855217163809"><ele>249.0</ele><time>2026-04-18T08:05:43Z</time></trkpt><trkpt lat="46.029306945508075" lon="10.945898638721742"><ele>249.25</ele><time>2026-04-18T08:05:44Z</time></trkpt><trkpt lat="46.02940816175194" lon="10.945911903131103"><ele>249.5</ele><time>2026-04-18T08:05:45Z</time></trkpt><trkpt lat="46.02951779442571" lon="10.945913009191647"><ele>249.75</ele><time>2026-04-18T08:05:46Z</time></trkpt><trkpt lat="46.02963124273362" lon="10.94593544381959"><ele>250.0</ele><time>2026-04-18T08:05:47Z</time></trkpt><trkpt lat="46.02975646959861" lon="10.945965632615753"><ele>250.0</ele><time>2026-04-18T08:05:48Z</time></trkpt><trkpt lat="46.02989358345848" lon="10.945995696325651"><ele>250.0</ele><time>2026-04-18T08:05:49Z</time></trkpt><trkpt lat="46.03003914410992" lon="10.94602796627268"><ele>250.0</ele><time>2026-04-18T08:05:50Z</time></trkpt><trkpt lat="46.03019061011334" lon="10.94606189691699"><ele>250.0</ele><time>2026-04-18T08:05:51Z</time></trkpt><trkpt lat="46.03033902141202" lon="10.946094981496648"><ele>249.0</ele><time>2026-04-18T08:05:52Z</time></trkpt><trkpt lat="46.030489709900245" lon="10.94612853306906"><ele>248.0</ele><time>2026-04-18T08:05:53Z</time></trkpt><trkpt lat="46.03064121103791" lon="10.946166900796033"><ele>247.0</ele><time>2026-04-18T08:05:54Z</time></trkpt><trkpt lat="46.030796625159944" lon="10.94620722760013"><ele>247.0</ele><time>2026-04-18T08:05:55Z</time></trkpt><trkpt lat="46.03095134505505" lon="10.946247095230607"><ele>247.0</ele><time>2026-04-18T08:05:56Z</time></trkpt><trkpt lat="46.03110697430699" lon="10.946285505501532"><ele>247.0</ele><time>2026-04-18T08:05:57Z</time></trkpt><trkpt lat="46.03125845198911" lon="10.946318982461468"><ele>247.0</ele><time>2026-04-18T08:05:58Z</time></trkpt><trkpt lat="46.03139977247979" lon="10.946344635630133"><ele>247.0</ele><time>2026-04-18T08:05:59Z</time></trkpt><trkpt lat="46.03153544666506" lon="10.946357458227226"><ele>247.0</ele><time>2026-04-18T08:06:00Z</time></trkpt><trkpt lat="46.03167592123537" lon="10.9463535295697"><ele>247.0</ele><time>2026-04-18T08:06:01Z</time></trkpt><trkpt lat="46.03181860836669" lon="10.94633518975432"><ele>247.0</ele><time>2026-04-18T08:06:02Z</time></trkpt><trkpt lat="46.031965512763904" lon="10.946309709115551"><ele>247.0</ele><time>2026-04-18T08:06:03Z</time></trkpt><trkpt lat="46.03210857908642" lon="10.946273739929637"><ele>247.0</ele><time>2026-04-18T08:06:04Z</time></trkpt><trkpt lat="46.03224518532977" lon="10.946234101912388"><ele>247.0</ele><time>2026-04-18T08:06:05Z</time></trkpt><trkpt lat="46.03237500524505" lon="10.94620112109516"><ele>247.0</ele><time>2026-04-18T08:06:06Z</time></trkpt><trkpt lat="46.032497805489996" lon="10.946173596905382"><ele>247.0</ele><time>2026-04-18T08:06:07Z</time></trkpt><trkpt lat="46.03261090790278" lon="10.946143135662656"><ele>247.0</ele><time>2026-04-18T08:06:08Z</time></trkpt><trkpt lat="46.032714264748634" lon="10.946127661598945"><ele>247.0</ele><time>2026-04-18T08:06:09Z</time></trkpt><trkpt lat="46.03281199658451" lon="10.946145074345912"><ele>247.0</ele><time>2026-04-18T08:06:10Z</time></trkpt><trkpt lat="46.0328921750056" lon="10.946197864015145"><ele>247.0</ele><time>2026-04-18T08:06:11Z</time></trkpt><trkpt lat="46.03294505934232" lon="10.94629109725317"><ele>247.0</ele><time>2026-04-18T08:06:12Z</time></trkpt><trkpt lat="46.03297602353288" lon="10.946409056448832"><ele>247.0</ele><time>2026-04-18T08:06:13Z</time></trkpt><trkpt lat="46.033004988876804" lon="10.946543553501684"><ele>247.0</ele><time>2026-04-18T08:06:14Z</time></trkpt><trkpt lat="46.0330439080655" lon="10.946682831715307"><ele>247.0</ele><time>2026-04-18T08:06:15Z</time></trkpt><trkpt lat="46.03308741364508" lon="10.94683005516067"><ele>245.0</ele><time>2026-04-18T08:06:16Z</time></trkpt><trkpt lat="46.0331278992864" lon="10.94696289490693"><ele>245.0</ele><time>2026-04-18T08:06:17Z</time></trkpt><trkpt lat="46.03316565999384" lon="10.947089854270354"><ele>245.0</ele><time>2026-04-18T08:06:18Z</time></trkpt><trkpt lat="46.03321091777463" lon="10.947198366948964"><ele>245.0</ele><time>2026-04-18T08:06:19Z</time></trkpt><trkpt lat="46.033255107918166" lon="10.9472869071699"><ele>245.0</ele><time>2026-04-18T08:06:21Z</time></trkpt></trkseg></trk></gpx>